<?xml version="1.0" encoding="UTF-8" standalone="no" ?>
<gpx xmlns="http://www.topografix.com/GPX/1/1" xmlns:xsi="http://www.w3.org/2001/XMLSchema-instance" xsi:schemaLocation="http://www.topografix.com/GPX/1/1 http://www.topografix.com/GPX/1/1/gpx.xsd" version="1.1" creator="VisuGPX - https://www.visugpx.com">
  <metadata>
    <name>rando-port-royal-les-molieres</name>
    <desc><![CDATA[20-05-2021
27.2 km
+493 m/-498 m]]></desc>
  </metadata>
  <trk>
    <name><![CDATA[rando-port-royal-les-molieres_1]]></name>
    <extensions>
      <line xmlns="http://www.topografix.com/GPX/gpx_style/0/2">
        <color>0000FF</color>
        <width>4</width>
      </line>
    </extensions>
    <trkseg>
      <trkpt lat="48.74847" lon="2.01579">
        <ele>166.3</ele>
      </trkpt>
      <trkpt lat="48.74851" lon="2.01539">
        <ele>165.8</ele>
      </trkpt>
      <trkpt lat="48.74851" lon="2.01493">
        <ele>165.4</ele>
      </trkpt>
      <trkpt lat="48.74849" lon="2.01451">
        <ele>164.7</ele>
      </trkpt>
      <trkpt lat="48.74851" lon="2.0137">
        <ele>164.9</ele>
      </trkpt>
      <trkpt lat="48.74874" lon="2.01264">
        <ele>166.3</ele>
        <time>2021-05-20T06:31:46.000Z</time>
      </trkpt>
      <trkpt lat="48.74899" lon="2.01159">
        <ele>159</ele>
        <time>2021-05-20T06:31:47.000Z</time>
      </trkpt>
      <trkpt lat="48.74899" lon="2.01157">
        <ele>160</ele>
        <time>2021-05-20T06:31:48.000Z</time>
      </trkpt>
      <trkpt lat="48.74899" lon="2.01155">
        <ele>160</ele>
        <time>2021-05-20T06:31:49.000Z</time>
      </trkpt>
      <trkpt lat="48.749" lon="2.01153">
        <ele>161</ele>
        <time>2021-05-20T06:31:50.000Z</time>
      </trkpt>
      <trkpt lat="48.749" lon="2.01151">
        <ele>161</ele>
        <time>2021-05-20T06:31:51.000Z</time>
      </trkpt>
      <trkpt lat="48.749" lon="2.01148">
        <ele>162</ele>
        <time>2021-05-20T06:31:52.000Z</time>
      </trkpt>
      <trkpt lat="48.749" lon="2.01146">
        <ele>163</ele>
        <time>2021-05-20T06:31:53.000Z</time>
      </trkpt>
      <trkpt lat="48.74901" lon="2.01144">
        <ele>163</ele>
        <time>2021-05-20T06:31:54.000Z</time>
      </trkpt>
      <trkpt lat="48.74901" lon="2.01142">
        <ele>163</ele>
        <time>2021-05-20T06:31:55.000Z</time>
      </trkpt>
      <trkpt lat="48.74901" lon="2.0114">
        <ele>164</ele>
        <time>2021-05-20T06:31:56.000Z</time>
      </trkpt>
      <trkpt lat="48.74902" lon="2.01138">
        <ele>164</ele>
        <time>2021-05-20T06:31:57.000Z</time>
      </trkpt>
      <trkpt lat="48.74902" lon="2.01136">
        <ele>164</ele>
        <time>2021-05-20T06:31:58.000Z</time>
      </trkpt>
      <trkpt lat="48.74903" lon="2.01134">
        <ele>165</ele>
        <time>2021-05-20T06:31:59.000Z</time>
      </trkpt>
      <trkpt lat="48.74903" lon="2.01132">
        <ele>165</ele>
        <time>2021-05-20T06:32:00.000Z</time>
      </trkpt>
      <trkpt lat="48.74903" lon="2.0113">
        <ele>165</ele>
        <time>2021-05-20T06:32:01.000Z</time>
      </trkpt>
      <trkpt lat="48.74904" lon="2.01128">
        <ele>165</ele>
        <time>2021-05-20T06:32:02.000Z</time>
      </trkpt>
      <trkpt lat="48.74904" lon="2.01126">
        <ele>165</ele>
        <time>2021-05-20T06:32:03.000Z</time>
      </trkpt>
      <trkpt lat="48.74905" lon="2.01124">
        <ele>166</ele>
        <time>2021-05-20T06:32:04.000Z</time>
      </trkpt>
      <trkpt lat="48.74905" lon="2.01123">
        <ele>166</ele>
        <time>2021-05-20T06:32:05.000Z</time>
      </trkpt>
      <trkpt lat="48.74906" lon="2.01121">
        <ele>166</ele>
        <time>2021-05-20T06:32:06.000Z</time>
      </trkpt>
      <trkpt lat="48.74907" lon="2.01119">
        <ele>166</ele>
        <time>2021-05-20T06:32:07.000Z</time>
      </trkpt>
      <trkpt lat="48.74907" lon="2.01118">
        <ele>166</ele>
        <time>2021-05-20T06:32:08.000Z</time>
      </trkpt>
      <trkpt lat="48.74908" lon="2.01117">
        <ele>166</ele>
        <time>2021-05-20T06:32:09.000Z</time>
      </trkpt>
      <trkpt lat="48.74908" lon="2.01115">
        <ele>166</ele>
        <time>2021-05-20T06:32:10.000Z</time>
      </trkpt>
      <trkpt lat="48.74908" lon="2.01113">
        <ele>167</ele>
        <time>2021-05-20T06:32:11.000Z</time>
      </trkpt>
      <trkpt lat="48.74908" lon="2.01111">
        <ele>167</ele>
        <time>2021-05-20T06:32:12.000Z</time>
      </trkpt>
      <trkpt lat="48.74909" lon="2.01109">
        <ele>167</ele>
        <time>2021-05-20T06:32:13.000Z</time>
      </trkpt>
      <trkpt lat="48.74909" lon="2.01107">
        <ele>167</ele>
        <time>2021-05-20T06:32:14.000Z</time>
      </trkpt>
      <trkpt lat="48.7491" lon="2.01105">
        <ele>167</ele>
        <time>2021-05-20T06:32:15.000Z</time>
      </trkpt>
      <trkpt lat="48.7491" lon="2.01103">
        <ele>167</ele>
        <time>2021-05-20T06:32:16.000Z</time>
      </trkpt>
      <trkpt lat="48.7491" lon="2.01102">
        <ele>167</ele>
        <time>2021-05-20T06:32:17.000Z</time>
      </trkpt>
      <trkpt lat="48.74911" lon="2.011">
        <ele>167</ele>
        <time>2021-05-20T06:32:18.000Z</time>
      </trkpt>
      <trkpt lat="48.74912" lon="2.01098">
        <ele>167</ele>
        <time>2021-05-20T06:32:19.000Z</time>
      </trkpt>
      <trkpt lat="48.74912" lon="2.01096">
        <ele>167</ele>
        <time>2021-05-20T06:32:20.000Z</time>
      </trkpt>
      <trkpt lat="48.74913" lon="2.01094">
        <ele>167</ele>
        <time>2021-05-20T06:32:21.000Z</time>
      </trkpt>
      <trkpt lat="48.74914" lon="2.01092">
        <ele>167</ele>
        <time>2021-05-20T06:32:22.000Z</time>
      </trkpt>
      <trkpt lat="48.74914" lon="2.0109">
        <ele>166</ele>
        <time>2021-05-20T06:32:23.000Z</time>
      </trkpt>
      <trkpt lat="48.74915" lon="2.01088">
        <ele>166</ele>
        <time>2021-05-20T06:32:24.000Z</time>
      </trkpt>
      <trkpt lat="48.74915" lon="2.01086">
        <ele>166</ele>
        <time>2021-05-20T06:32:25.000Z</time>
      </trkpt>
      <trkpt lat="48.74916" lon="2.01084">
        <ele>166</ele>
        <time>2021-05-20T06:32:26.000Z</time>
      </trkpt>
      <trkpt lat="48.74916" lon="2.01082">
        <ele>166</ele>
        <time>2021-05-20T06:32:27.000Z</time>
      </trkpt>
      <trkpt lat="48.74916" lon="2.0108">
        <ele>166</ele>
        <time>2021-05-20T06:32:28.000Z</time>
      </trkpt>
      <trkpt lat="48.74917" lon="2.01078">
        <ele>166</ele>
        <time>2021-05-20T06:32:29.000Z</time>
      </trkpt>
      <trkpt lat="48.74917" lon="2.01076">
        <ele>166</ele>
        <time>2021-05-20T06:32:30.000Z</time>
      </trkpt>
      <trkpt lat="48.74918" lon="2.01074">
        <ele>166</ele>
        <time>2021-05-20T06:32:31.000Z</time>
      </trkpt>
      <trkpt lat="48.74918" lon="2.01073">
        <ele>166</ele>
        <time>2021-05-20T06:32:32.000Z</time>
      </trkpt>
      <trkpt lat="48.74918" lon="2.01071">
        <ele>166</ele>
        <time>2021-05-20T06:32:33.000Z</time>
      </trkpt>
      <trkpt lat="48.74919" lon="2.01069">
        <ele>166</ele>
        <time>2021-05-20T06:32:34.000Z</time>
      </trkpt>
      <trkpt lat="48.74919" lon="2.01067">
        <ele>167</ele>
        <time>2021-05-20T06:32:35.000Z</time>
      </trkpt>
      <trkpt lat="48.7492" lon="2.01066">
        <ele>167</ele>
        <time>2021-05-20T06:32:36.000Z</time>
      </trkpt>
      <trkpt lat="48.7492" lon="2.01064">
        <ele>167</ele>
        <time>2021-05-20T06:32:37.000Z</time>
      </trkpt>
      <trkpt lat="48.74921" lon="2.01062">
        <ele>167</ele>
        <time>2021-05-20T06:32:38.000Z</time>
      </trkpt>
      <trkpt lat="48.74921" lon="2.0106">
        <ele>167</ele>
        <time>2021-05-20T06:32:39.000Z</time>
      </trkpt>
      <trkpt lat="48.74922" lon="2.01058">
        <ele>167</ele>
        <time>2021-05-20T06:32:40.000Z</time>
      </trkpt>
      <trkpt lat="48.74922" lon="2.01057">
        <ele>167</ele>
        <time>2021-05-20T06:32:41.000Z</time>
      </trkpt>
      <trkpt lat="48.74923" lon="2.01055">
        <ele>167</ele>
        <time>2021-05-20T06:32:42.000Z</time>
      </trkpt>
      <trkpt lat="48.74923" lon="2.01053">
        <ele>167</ele>
        <time>2021-05-20T06:32:43.000Z</time>
      </trkpt>
      <trkpt lat="48.74923" lon="2.0105">
        <ele>167</ele>
        <time>2021-05-20T06:32:44.000Z</time>
      </trkpt>
      <trkpt lat="48.74924" lon="2.01048">
        <ele>167</ele>
        <time>2021-05-20T06:32:45.000Z</time>
      </trkpt>
      <trkpt lat="48.74924" lon="2.01047">
        <ele>167</ele>
        <time>2021-05-20T06:32:46.000Z</time>
      </trkpt>
      <trkpt lat="48.74925" lon="2.01045">
        <ele>167</ele>
        <time>2021-05-20T06:32:47.000Z</time>
      </trkpt>
      <trkpt lat="48.74925" lon="2.01043">
        <ele>167</ele>
        <time>2021-05-20T06:32:48.000Z</time>
      </trkpt>
      <trkpt lat="48.74925" lon="2.01041">
        <ele>167</ele>
        <time>2021-05-20T06:32:49.000Z</time>
      </trkpt>
      <trkpt lat="48.74926" lon="2.01039">
        <ele>167</ele>
        <time>2021-05-20T06:32:50.000Z</time>
      </trkpt>
      <trkpt lat="48.74926" lon="2.01037">
        <ele>167</ele>
        <time>2021-05-20T06:32:51.000Z</time>
      </trkpt>
      <trkpt lat="48.74927" lon="2.01035">
        <ele>168</ele>
        <time>2021-05-20T06:32:52.000Z</time>
      </trkpt>
      <trkpt lat="48.74927" lon="2.01033">
        <ele>168</ele>
        <time>2021-05-20T06:32:53.000Z</time>
      </trkpt>
      <trkpt lat="48.74927" lon="2.01031">
        <ele>168</ele>
        <time>2021-05-20T06:32:54.000Z</time>
      </trkpt>
      <trkpt lat="48.74928" lon="2.01029">
        <ele>168</ele>
        <time>2021-05-20T06:32:55.000Z</time>
      </trkpt>
      <trkpt lat="48.74928" lon="2.01027">
        <ele>168</ele>
        <time>2021-05-20T06:32:56.000Z</time>
      </trkpt>
      <trkpt lat="48.74929" lon="2.01026">
        <ele>168</ele>
        <time>2021-05-20T06:32:57.000Z</time>
      </trkpt>
      <trkpt lat="48.74929" lon="2.01024">
        <ele>168</ele>
        <time>2021-05-20T06:32:58.000Z</time>
      </trkpt>
      <trkpt lat="48.74929" lon="2.01022">
        <ele>168</ele>
        <time>2021-05-20T06:32:59.000Z</time>
      </trkpt>
      <trkpt lat="48.7493" lon="2.0102">
        <ele>168</ele>
        <time>2021-05-20T06:33:00.000Z</time>
      </trkpt>
      <trkpt lat="48.7493" lon="2.01019">
        <ele>168</ele>
        <time>2021-05-20T06:33:01.000Z</time>
      </trkpt>
      <trkpt lat="48.74931" lon="2.01017">
        <ele>168</ele>
        <time>2021-05-20T06:33:02.000Z</time>
      </trkpt>
      <trkpt lat="48.74932" lon="2.01015">
        <ele>168</ele>
        <time>2021-05-20T06:33:03.000Z</time>
      </trkpt>
      <trkpt lat="48.74932" lon="2.01013">
        <ele>168</ele>
        <time>2021-05-20T06:33:04.000Z</time>
      </trkpt>
      <trkpt lat="48.74933" lon="2.01011">
        <ele>168</ele>
        <time>2021-05-20T06:33:05.000Z</time>
      </trkpt>
      <trkpt lat="48.74933" lon="2.01008">
        <ele>168</ele>
        <time>2021-05-20T06:33:06.000Z</time>
      </trkpt>
      <trkpt lat="48.74934" lon="2.01006">
        <ele>168</ele>
        <time>2021-05-20T06:33:07.000Z</time>
      </trkpt>
      <trkpt lat="48.74935" lon="2.01004">
        <ele>168</ele>
        <time>2021-05-20T06:33:08.000Z</time>
      </trkpt>
      <trkpt lat="48.74935" lon="2.01002">
        <ele>168</ele>
        <time>2021-05-20T06:33:09.000Z</time>
      </trkpt>
      <trkpt lat="48.74936" lon="2.01">
        <ele>168</ele>
        <time>2021-05-20T06:33:10.000Z</time>
      </trkpt>
      <trkpt lat="48.74936" lon="2.00998">
        <ele>168</ele>
        <time>2021-05-20T06:33:11.000Z</time>
      </trkpt>
      <trkpt lat="48.74937" lon="2.00996">
        <ele>168</ele>
        <time>2021-05-20T06:33:12.000Z</time>
      </trkpt>
      <trkpt lat="48.74937" lon="2.00994">
        <ele>168</ele>
        <time>2021-05-20T06:33:13.000Z</time>
      </trkpt>
      <trkpt lat="48.74937" lon="2.00992">
        <ele>168</ele>
        <time>2021-05-20T06:33:14.000Z</time>
      </trkpt>
      <trkpt lat="48.74938" lon="2.0099">
        <ele>168</ele>
        <time>2021-05-20T06:33:15.000Z</time>
      </trkpt>
      <trkpt lat="48.74938" lon="2.00988">
        <ele>168</ele>
        <time>2021-05-20T06:33:16.000Z</time>
      </trkpt>
      <trkpt lat="48.74939" lon="2.00986">
        <ele>168</ele>
        <time>2021-05-20T06:33:17.000Z</time>
      </trkpt>
      <trkpt lat="48.7494" lon="2.00984">
        <ele>168</ele>
        <time>2021-05-20T06:33:18.000Z</time>
      </trkpt>
      <trkpt lat="48.74941" lon="2.00982">
        <ele>169</ele>
        <time>2021-05-20T06:33:19.000Z</time>
      </trkpt>
      <trkpt lat="48.74941" lon="2.0098">
        <ele>169</ele>
        <time>2021-05-20T06:33:20.000Z</time>
      </trkpt>
      <trkpt lat="48.74942" lon="2.00978">
        <ele>169</ele>
        <time>2021-05-20T06:33:21.000Z</time>
      </trkpt>
      <trkpt lat="48.74942" lon="2.00976">
        <ele>169</ele>
        <time>2021-05-20T06:33:22.000Z</time>
      </trkpt>
      <trkpt lat="48.74943" lon="2.00974">
        <ele>169</ele>
        <time>2021-05-20T06:33:23.000Z</time>
      </trkpt>
      <trkpt lat="48.74944" lon="2.00972">
        <ele>169</ele>
        <time>2021-05-20T06:33:24.000Z</time>
      </trkpt>
      <trkpt lat="48.74944" lon="2.0097">
        <ele>169</ele>
        <time>2021-05-20T06:33:25.000Z</time>
      </trkpt>
      <trkpt lat="48.74945" lon="2.00968">
        <ele>169</ele>
        <time>2021-05-20T06:33:26.000Z</time>
      </trkpt>
      <trkpt lat="48.74946" lon="2.00966">
        <ele>169</ele>
        <time>2021-05-20T06:33:27.000Z</time>
      </trkpt>
      <trkpt lat="48.74946" lon="2.00964">
        <ele>169</ele>
        <time>2021-05-20T06:33:28.000Z</time>
      </trkpt>
      <trkpt lat="48.74947" lon="2.00962">
        <ele>169</ele>
        <time>2021-05-20T06:33:29.000Z</time>
      </trkpt>
      <trkpt lat="48.74947" lon="2.0096">
        <ele>169</ele>
        <time>2021-05-20T06:33:30.000Z</time>
      </trkpt>
      <trkpt lat="48.74947" lon="2.00958">
        <ele>169</ele>
        <time>2021-05-20T06:33:31.000Z</time>
      </trkpt>
      <trkpt lat="48.74948" lon="2.00956">
        <ele>169</ele>
        <time>2021-05-20T06:33:32.000Z</time>
      </trkpt>
      <trkpt lat="48.74948" lon="2.00954">
        <ele>169</ele>
        <time>2021-05-20T06:33:33.000Z</time>
      </trkpt>
      <trkpt lat="48.74949" lon="2.00952">
        <ele>169</ele>
        <time>2021-05-20T06:33:34.000Z</time>
      </trkpt>
      <trkpt lat="48.74949" lon="2.00951">
        <ele>169</ele>
        <time>2021-05-20T06:33:35.000Z</time>
      </trkpt>
      <trkpt lat="48.74949" lon="2.00949">
        <ele>169</ele>
        <time>2021-05-20T06:33:36.000Z</time>
      </trkpt>
      <trkpt lat="48.7495" lon="2.00947">
        <ele>169</ele>
        <time>2021-05-20T06:33:37.000Z</time>
      </trkpt>
      <trkpt lat="48.7495" lon="2.00945">
        <ele>168</ele>
        <time>2021-05-20T06:33:38.000Z</time>
      </trkpt>
      <trkpt lat="48.7495" lon="2.00943">
        <ele>168</ele>
        <time>2021-05-20T06:33:39.000Z</time>
      </trkpt>
      <trkpt lat="48.74951" lon="2.00941">
        <ele>168</ele>
        <time>2021-05-20T06:33:40.000Z</time>
      </trkpt>
      <trkpt lat="48.74951" lon="2.00939">
        <ele>168</ele>
        <time>2021-05-20T06:33:41.000Z</time>
      </trkpt>
      <trkpt lat="48.74951" lon="2.00937">
        <ele>168</ele>
        <time>2021-05-20T06:33:42.000Z</time>
      </trkpt>
      <trkpt lat="48.74952" lon="2.00935">
        <ele>168</ele>
        <time>2021-05-20T06:33:43.000Z</time>
      </trkpt>
      <trkpt lat="48.74952" lon="2.00933">
        <ele>168</ele>
        <time>2021-05-20T06:33:44.000Z</time>
      </trkpt>
      <trkpt lat="48.74953" lon="2.00931">
        <ele>168</ele>
        <time>2021-05-20T06:33:45.000Z</time>
      </trkpt>
      <trkpt lat="48.74953" lon="2.0093">
        <ele>169</ele>
        <time>2021-05-20T06:33:46.000Z</time>
      </trkpt>
      <trkpt lat="48.74954" lon="2.00928">
        <ele>169</ele>
        <time>2021-05-20T06:33:47.000Z</time>
      </trkpt>
      <trkpt lat="48.74954" lon="2.00926">
        <ele>169</ele>
        <time>2021-05-20T06:33:48.000Z</time>
      </trkpt>
      <trkpt lat="48.74955" lon="2.00924">
        <ele>169</ele>
        <time>2021-05-20T06:33:49.000Z</time>
      </trkpt>
      <trkpt lat="48.74955" lon="2.00922">
        <ele>169</ele>
        <time>2021-05-20T06:33:50.000Z</time>
      </trkpt>
      <trkpt lat="48.74956" lon="2.0092">
        <ele>169</ele>
        <time>2021-05-20T06:33:51.000Z</time>
      </trkpt>
      <trkpt lat="48.74956" lon="2.00918">
        <ele>169</ele>
        <time>2021-05-20T06:33:52.000Z</time>
      </trkpt>
      <trkpt lat="48.74957" lon="2.00916">
        <ele>169</ele>
        <time>2021-05-20T06:33:53.000Z</time>
      </trkpt>
      <trkpt lat="48.74957" lon="2.00915">
        <ele>169</ele>
        <time>2021-05-20T06:33:54.000Z</time>
      </trkpt>
      <trkpt lat="48.74958" lon="2.00913">
        <ele>169</ele>
        <time>2021-05-20T06:33:55.000Z</time>
      </trkpt>
      <trkpt lat="48.74959" lon="2.00911">
        <ele>169</ele>
        <time>2021-05-20T06:33:56.000Z</time>
      </trkpt>
      <trkpt lat="48.74959" lon="2.0091">
        <ele>169</ele>
        <time>2021-05-20T06:33:57.000Z</time>
      </trkpt>
      <trkpt lat="48.7496" lon="2.00908">
        <ele>169</ele>
        <time>2021-05-20T06:33:58.000Z</time>
      </trkpt>
      <trkpt lat="48.7496" lon="2.00906">
        <ele>170</ele>
        <time>2021-05-20T06:33:59.000Z</time>
      </trkpt>
      <trkpt lat="48.74961" lon="2.00905">
        <ele>170</ele>
        <time>2021-05-20T06:34:00.000Z</time>
      </trkpt>
      <trkpt lat="48.74961" lon="2.00903">
        <ele>170</ele>
        <time>2021-05-20T06:34:01.000Z</time>
      </trkpt>
      <trkpt lat="48.74962" lon="2.00901">
        <ele>170</ele>
        <time>2021-05-20T06:34:02.000Z</time>
      </trkpt>
      <trkpt lat="48.74962" lon="2.00899">
        <ele>170</ele>
        <time>2021-05-20T06:34:03.000Z</time>
      </trkpt>
      <trkpt lat="48.74963" lon="2.00897">
        <ele>170</ele>
        <time>2021-05-20T06:34:04.000Z</time>
      </trkpt>
      <trkpt lat="48.74963" lon="2.00895">
        <ele>171</ele>
        <time>2021-05-20T06:34:05.000Z</time>
      </trkpt>
      <trkpt lat="48.74964" lon="2.00893">
        <ele>171</ele>
        <time>2021-05-20T06:34:06.000Z</time>
      </trkpt>
      <trkpt lat="48.74965" lon="2.00891">
        <ele>171</ele>
        <time>2021-05-20T06:34:07.000Z</time>
      </trkpt>
      <trkpt lat="48.74965" lon="2.00889">
        <ele>171</ele>
        <time>2021-05-20T06:34:08.000Z</time>
      </trkpt>
      <trkpt lat="48.74965" lon="2.00887">
        <ele>171</ele>
        <time>2021-05-20T06:34:09.000Z</time>
      </trkpt>
      <trkpt lat="48.74966" lon="2.00886">
        <ele>171</ele>
        <time>2021-05-20T06:34:10.000Z</time>
      </trkpt>
      <trkpt lat="48.74966" lon="2.00884">
        <ele>171</ele>
        <time>2021-05-20T06:34:11.000Z</time>
      </trkpt>
      <trkpt lat="48.74967" lon="2.00882">
        <ele>171</ele>
        <time>2021-05-20T06:34:12.000Z</time>
      </trkpt>
      <trkpt lat="48.74968" lon="2.0088">
        <ele>171</ele>
        <time>2021-05-20T06:34:13.000Z</time>
      </trkpt>
      <trkpt lat="48.74968" lon="2.00879">
        <ele>171</ele>
        <time>2021-05-20T06:34:14.000Z</time>
      </trkpt>
      <trkpt lat="48.74969" lon="2.00877">
        <ele>171</ele>
        <time>2021-05-20T06:34:15.000Z</time>
      </trkpt>
      <trkpt lat="48.74969" lon="2.00876">
        <ele>171</ele>
        <time>2021-05-20T06:34:16.000Z</time>
      </trkpt>
      <trkpt lat="48.7497" lon="2.00875">
        <ele>171</ele>
        <time>2021-05-20T06:34:17.000Z</time>
      </trkpt>
      <trkpt lat="48.74971" lon="2.00873">
        <ele>171</ele>
        <time>2021-05-20T06:34:18.000Z</time>
      </trkpt>
      <trkpt lat="48.74971" lon="2.00871">
        <ele>171</ele>
        <time>2021-05-20T06:34:19.000Z</time>
      </trkpt>
      <trkpt lat="48.74971" lon="2.0087">
        <ele>171</ele>
        <time>2021-05-20T06:34:20.000Z</time>
      </trkpt>
      <trkpt lat="48.74972" lon="2.00867">
        <ele>171</ele>
        <time>2021-05-20T06:34:21.000Z</time>
      </trkpt>
      <trkpt lat="48.74973" lon="2.00865">
        <ele>171</ele>
        <time>2021-05-20T06:34:22.000Z</time>
      </trkpt>
      <trkpt lat="48.74973" lon="2.00862">
        <ele>171</ele>
        <time>2021-05-20T06:34:23.000Z</time>
      </trkpt>
      <trkpt lat="48.74974" lon="2.0086">
        <ele>171</ele>
        <time>2021-05-20T06:34:24.000Z</time>
      </trkpt>
      <trkpt lat="48.74974" lon="2.00858">
        <ele>171</ele>
        <time>2021-05-20T06:34:25.000Z</time>
      </trkpt>
      <trkpt lat="48.74974" lon="2.00856">
        <ele>171</ele>
        <time>2021-05-20T06:34:26.000Z</time>
      </trkpt>
      <trkpt lat="48.74975" lon="2.00855">
        <ele>171</ele>
        <time>2021-05-20T06:34:27.000Z</time>
      </trkpt>
      <trkpt lat="48.74975" lon="2.00853">
        <ele>171</ele>
        <time>2021-05-20T06:34:28.000Z</time>
      </trkpt>
      <trkpt lat="48.74976" lon="2.00851">
        <ele>171</ele>
        <time>2021-05-20T06:34:29.000Z</time>
      </trkpt>
      <trkpt lat="48.74977" lon="2.0085">
        <ele>170</ele>
        <time>2021-05-20T06:34:30.000Z</time>
      </trkpt>
      <trkpt lat="48.74978" lon="2.00848">
        <ele>170</ele>
        <time>2021-05-20T06:34:31.000Z</time>
      </trkpt>
      <trkpt lat="48.74978" lon="2.00846">
        <ele>170</ele>
        <time>2021-05-20T06:34:32.000Z</time>
      </trkpt>
      <trkpt lat="48.74979" lon="2.00844">
        <ele>170</ele>
        <time>2021-05-20T06:34:33.000Z</time>
      </trkpt>
      <trkpt lat="48.7498" lon="2.00843">
        <ele>170</ele>
        <time>2021-05-20T06:34:34.000Z</time>
      </trkpt>
      <trkpt lat="48.74981" lon="2.00841">
        <ele>170</ele>
        <time>2021-05-20T06:34:35.000Z</time>
      </trkpt>
      <trkpt lat="48.74981" lon="2.00839">
        <ele>170</ele>
        <time>2021-05-20T06:34:36.000Z</time>
      </trkpt>
      <trkpt lat="48.74982" lon="2.00837">
        <ele>170</ele>
        <time>2021-05-20T06:34:37.000Z</time>
      </trkpt>
      <trkpt lat="48.74982" lon="2.00836">
        <ele>170</ele>
        <time>2021-05-20T06:34:38.000Z</time>
      </trkpt>
      <trkpt lat="48.74983" lon="2.00834">
        <ele>170</ele>
        <time>2021-05-20T06:34:39.000Z</time>
      </trkpt>
      <trkpt lat="48.74984" lon="2.00832">
        <ele>170</ele>
        <time>2021-05-20T06:34:40.000Z</time>
      </trkpt>
      <trkpt lat="48.74984" lon="2.0083">
        <ele>170</ele>
        <time>2021-05-20T06:34:41.000Z</time>
      </trkpt>
      <trkpt lat="48.74985" lon="2.00829">
        <ele>170</ele>
        <time>2021-05-20T06:34:42.000Z</time>
      </trkpt>
      <trkpt lat="48.74985" lon="2.00827">
        <ele>170</ele>
        <time>2021-05-20T06:34:43.000Z</time>
      </trkpt>
      <trkpt lat="48.74986" lon="2.00825">
        <ele>170</ele>
        <time>2021-05-20T06:34:44.000Z</time>
      </trkpt>
      <trkpt lat="48.74987" lon="2.00824">
        <ele>170</ele>
        <time>2021-05-20T06:34:45.000Z</time>
      </trkpt>
      <trkpt lat="48.74988" lon="2.00822">
        <ele>170</ele>
        <time>2021-05-20T06:34:46.000Z</time>
      </trkpt>
      <trkpt lat="48.74989" lon="2.00821">
        <ele>170</ele>
        <time>2021-05-20T06:34:47.000Z</time>
      </trkpt>
      <trkpt lat="48.74989" lon="2.00819">
        <ele>170</ele>
        <time>2021-05-20T06:34:48.000Z</time>
      </trkpt>
      <trkpt lat="48.7499" lon="2.00818">
        <ele>169</ele>
        <time>2021-05-20T06:34:49.000Z</time>
      </trkpt>
      <trkpt lat="48.74991" lon="2.00816">
        <ele>169</ele>
        <time>2021-05-20T06:34:50.000Z</time>
      </trkpt>
      <trkpt lat="48.74992" lon="2.00814">
        <ele>169</ele>
        <time>2021-05-20T06:34:51.000Z</time>
      </trkpt>
      <trkpt lat="48.74993" lon="2.00812">
        <ele>169</ele>
        <time>2021-05-20T06:34:52.000Z</time>
      </trkpt>
      <trkpt lat="48.74994" lon="2.00811">
        <ele>169</ele>
        <time>2021-05-20T06:34:53.000Z</time>
      </trkpt>
      <trkpt lat="48.74996" lon="2.00809">
        <ele>169</ele>
        <time>2021-05-20T06:34:54.000Z</time>
      </trkpt>
      <trkpt lat="48.74996" lon="2.00807">
        <ele>169</ele>
        <time>2021-05-20T06:34:55.000Z</time>
      </trkpt>
      <trkpt lat="48.74997" lon="2.00805">
        <ele>169</ele>
        <time>2021-05-20T06:34:56.000Z</time>
      </trkpt>
      <trkpt lat="48.74998" lon="2.00804">
        <ele>169</ele>
        <time>2021-05-20T06:34:57.000Z</time>
      </trkpt>
      <trkpt lat="48.74999" lon="2.00802">
        <ele>170</ele>
        <time>2021-05-20T06:34:58.000Z</time>
      </trkpt>
      <trkpt lat="48.74999" lon="2.008">
        <ele>170</ele>
        <time>2021-05-20T06:34:59.000Z</time>
      </trkpt>
      <trkpt lat="48.75" lon="2.00799">
        <ele>170</ele>
        <time>2021-05-20T06:35:00.000Z</time>
      </trkpt>
      <trkpt lat="48.75001" lon="2.00797">
        <ele>170</ele>
        <time>2021-05-20T06:35:01.000Z</time>
      </trkpt>
      <trkpt lat="48.75002" lon="2.00795">
        <ele>170</ele>
        <time>2021-05-20T06:35:02.000Z</time>
      </trkpt>
      <trkpt lat="48.75003" lon="2.00794">
        <ele>170</ele>
        <time>2021-05-20T06:35:03.000Z</time>
      </trkpt>
      <trkpt lat="48.75004" lon="2.00792">
        <ele>170</ele>
        <time>2021-05-20T06:35:04.000Z</time>
      </trkpt>
      <trkpt lat="48.75005" lon="2.00791">
        <ele>170</ele>
        <time>2021-05-20T06:35:05.000Z</time>
      </trkpt>
      <trkpt lat="48.75006" lon="2.00789">
        <ele>170</ele>
        <time>2021-05-20T06:35:06.000Z</time>
      </trkpt>
      <trkpt lat="48.75007" lon="2.00787">
        <ele>170</ele>
        <time>2021-05-20T06:35:07.000Z</time>
      </trkpt>
      <trkpt lat="48.75008" lon="2.00785">
        <ele>170</ele>
        <time>2021-05-20T06:35:08.000Z</time>
      </trkpt>
      <trkpt lat="48.7501" lon="2.00784">
        <ele>170</ele>
        <time>2021-05-20T06:35:09.000Z</time>
      </trkpt>
      <trkpt lat="48.75011" lon="2.00782">
        <ele>170</ele>
        <time>2021-05-20T06:35:10.000Z</time>
      </trkpt>
      <trkpt lat="48.75012" lon="2.0078">
        <ele>170</ele>
        <time>2021-05-20T06:35:11.000Z</time>
      </trkpt>
      <trkpt lat="48.75013" lon="2.00778">
        <ele>170</ele>
        <time>2021-05-20T06:35:12.000Z</time>
      </trkpt>
      <trkpt lat="48.75014" lon="2.00777">
        <ele>170</ele>
        <time>2021-05-20T06:35:13.000Z</time>
      </trkpt>
      <trkpt lat="48.75015" lon="2.00775">
        <ele>170</ele>
        <time>2021-05-20T06:35:14.000Z</time>
      </trkpt>
      <trkpt lat="48.75016" lon="2.00774">
        <ele>170</ele>
        <time>2021-05-20T06:35:15.000Z</time>
      </trkpt>
      <trkpt lat="48.75017" lon="2.00772">
        <ele>170</ele>
        <time>2021-05-20T06:35:16.000Z</time>
      </trkpt>
      <trkpt lat="48.75018" lon="2.00771">
        <ele>170</ele>
        <time>2021-05-20T06:35:17.000Z</time>
      </trkpt>
      <trkpt lat="48.75019" lon="2.0077">
        <ele>170</ele>
        <time>2021-05-20T06:35:18.000Z</time>
      </trkpt>
      <trkpt lat="48.7502" lon="2.00768">
        <ele>170</ele>
        <time>2021-05-20T06:35:19.000Z</time>
      </trkpt>
      <trkpt lat="48.75021" lon="2.00767">
        <ele>170</ele>
        <time>2021-05-20T06:35:20.000Z</time>
      </trkpt>
      <trkpt lat="48.75022" lon="2.00765">
        <ele>170</ele>
        <time>2021-05-20T06:35:21.000Z</time>
      </trkpt>
      <trkpt lat="48.75023" lon="2.00764">
        <ele>170</ele>
        <time>2021-05-20T06:35:22.000Z</time>
      </trkpt>
      <trkpt lat="48.75024" lon="2.00762">
        <ele>170</ele>
        <time>2021-05-20T06:35:23.000Z</time>
      </trkpt>
      <trkpt lat="48.75025" lon="2.00761">
        <ele>170</ele>
        <time>2021-05-20T06:35:24.000Z</time>
      </trkpt>
      <trkpt lat="48.75026" lon="2.0076">
        <ele>170</ele>
        <time>2021-05-20T06:35:25.000Z</time>
      </trkpt>
      <trkpt lat="48.75026" lon="2.00758">
        <ele>170</ele>
        <time>2021-05-20T06:35:26.000Z</time>
      </trkpt>
      <trkpt lat="48.75027" lon="2.00757">
        <ele>170</ele>
        <time>2021-05-20T06:35:27.000Z</time>
      </trkpt>
      <trkpt lat="48.75028" lon="2.00756">
        <ele>170</ele>
        <time>2021-05-20T06:35:28.000Z</time>
      </trkpt>
      <trkpt lat="48.75029" lon="2.00754">
        <ele>170</ele>
        <time>2021-05-20T06:35:29.000Z</time>
      </trkpt>
      <trkpt lat="48.7503" lon="2.00753">
        <ele>170</ele>
        <time>2021-05-20T06:35:30.000Z</time>
      </trkpt>
      <trkpt lat="48.75031" lon="2.00751">
        <ele>170</ele>
        <time>2021-05-20T06:35:31.000Z</time>
      </trkpt>
      <trkpt lat="48.75031" lon="2.0075">
        <ele>170</ele>
        <time>2021-05-20T06:35:32.000Z</time>
      </trkpt>
      <trkpt lat="48.75031" lon="2.00749">
        <ele>170</ele>
        <time>2021-05-20T06:35:33.000Z</time>
      </trkpt>
      <trkpt lat="48.75031" lon="2.00748">
        <ele>170</ele>
        <time>2021-05-20T06:35:34.000Z</time>
      </trkpt>
      <trkpt lat="48.75031" lon="2.00748">
        <ele>170</ele>
        <time>2021-05-20T06:35:35.000Z</time>
      </trkpt>
      <trkpt lat="48.75031" lon="2.00746">
        <ele>170</ele>
        <time>2021-05-20T06:35:36.000Z</time>
      </trkpt>
      <trkpt lat="48.7503" lon="2.00745">
        <ele>170</ele>
        <time>2021-05-20T06:35:37.000Z</time>
      </trkpt>
      <trkpt lat="48.75029" lon="2.00744">
        <ele>170</ele>
        <time>2021-05-20T06:35:38.000Z</time>
      </trkpt>
      <trkpt lat="48.75029" lon="2.00742">
        <ele>170</ele>
        <time>2021-05-20T06:35:39.000Z</time>
      </trkpt>
      <trkpt lat="48.75029" lon="2.00741">
        <ele>170</ele>
        <time>2021-05-20T06:35:40.000Z</time>
      </trkpt>
      <trkpt lat="48.75028" lon="2.00739">
        <ele>170</ele>
        <time>2021-05-20T06:35:41.000Z</time>
      </trkpt>
      <trkpt lat="48.75028" lon="2.00738">
        <ele>169</ele>
        <time>2021-05-20T06:35:42.000Z</time>
      </trkpt>
      <trkpt lat="48.75028" lon="2.00737">
        <ele>169</ele>
        <time>2021-05-20T06:35:43.000Z</time>
      </trkpt>
      <trkpt lat="48.75027" lon="2.00736">
        <ele>169</ele>
        <time>2021-05-20T06:35:44.000Z</time>
      </trkpt>
      <trkpt lat="48.75027" lon="2.00734">
        <ele>169</ele>
        <time>2021-05-20T06:35:45.000Z</time>
      </trkpt>
      <trkpt lat="48.75027" lon="2.00733">
        <ele>169</ele>
        <time>2021-05-20T06:35:46.000Z</time>
      </trkpt>
      <trkpt lat="48.75027" lon="2.00732">
        <ele>168</ele>
        <time>2021-05-20T06:35:47.000Z</time>
      </trkpt>
      <trkpt lat="48.75026" lon="2.0073">
        <ele>168</ele>
        <time>2021-05-20T06:35:48.000Z</time>
      </trkpt>
      <trkpt lat="48.75026" lon="2.00729">
        <ele>168</ele>
        <time>2021-05-20T06:35:49.000Z</time>
      </trkpt>
      <trkpt lat="48.75026" lon="2.00727">
        <ele>168</ele>
        <time>2021-05-20T06:35:50.000Z</time>
      </trkpt>
      <trkpt lat="48.75026" lon="2.00725">
        <ele>168</ele>
        <time>2021-05-20T06:35:51.000Z</time>
      </trkpt>
      <trkpt lat="48.75025" lon="2.00724">
        <ele>168</ele>
        <time>2021-05-20T06:35:52.000Z</time>
      </trkpt>
      <trkpt lat="48.75024" lon="2.00723">
        <ele>168</ele>
        <time>2021-05-20T06:35:53.000Z</time>
      </trkpt>
      <trkpt lat="48.75024" lon="2.00722">
        <ele>168</ele>
        <time>2021-05-20T06:35:54.000Z</time>
      </trkpt>
      <trkpt lat="48.75023" lon="2.00721">
        <ele>168</ele>
        <time>2021-05-20T06:35:55.000Z</time>
      </trkpt>
      <trkpt lat="48.75022" lon="2.0072">
        <ele>169</ele>
        <time>2021-05-20T06:35:56.000Z</time>
      </trkpt>
      <trkpt lat="48.75022" lon="2.00718">
        <ele>169</ele>
        <time>2021-05-20T06:35:57.000Z</time>
      </trkpt>
      <trkpt lat="48.75021" lon="2.00717">
        <ele>169</ele>
        <time>2021-05-20T06:35:58.000Z</time>
      </trkpt>
      <trkpt lat="48.7502" lon="2.00716">
        <ele>169</ele>
        <time>2021-05-20T06:35:59.000Z</time>
      </trkpt>
      <trkpt lat="48.75019" lon="2.00714">
        <ele>169</ele>
        <time>2021-05-20T06:36:00.000Z</time>
      </trkpt>
      <trkpt lat="48.75018" lon="2.00714">
        <ele>170</ele>
        <time>2021-05-20T06:36:01.000Z</time>
      </trkpt>
      <trkpt lat="48.75017" lon="2.00713">
        <ele>170</ele>
        <time>2021-05-20T06:36:02.000Z</time>
      </trkpt>
      <trkpt lat="48.75017" lon="2.00713">
        <ele>170</ele>
        <time>2021-05-20T06:36:03.000Z</time>
      </trkpt>
      <trkpt lat="48.75016" lon="2.00713">
        <ele>170</ele>
        <time>2021-05-20T06:36:04.000Z</time>
      </trkpt>
      <trkpt lat="48.75015" lon="2.00712">
        <ele>170</ele>
        <time>2021-05-20T06:36:05.000Z</time>
      </trkpt>
      <trkpt lat="48.75014" lon="2.0071">
        <ele>170</ele>
        <time>2021-05-20T06:36:06.000Z</time>
      </trkpt>
      <trkpt lat="48.75013" lon="2.00709">
        <ele>170</ele>
        <time>2021-05-20T06:36:07.000Z</time>
      </trkpt>
      <trkpt lat="48.75012" lon="2.00708">
        <ele>170</ele>
        <time>2021-05-20T06:36:08.000Z</time>
      </trkpt>
      <trkpt lat="48.75011" lon="2.00707">
        <ele>170</ele>
        <time>2021-05-20T06:36:09.000Z</time>
      </trkpt>
      <trkpt lat="48.7501" lon="2.00706">
        <ele>169</ele>
        <time>2021-05-20T06:36:10.000Z</time>
      </trkpt>
      <trkpt lat="48.75009" lon="2.00706">
        <ele>169</ele>
        <time>2021-05-20T06:36:11.000Z</time>
      </trkpt>
      <trkpt lat="48.75008" lon="2.00704">
        <ele>169</ele>
        <time>2021-05-20T06:36:12.000Z</time>
      </trkpt>
      <trkpt lat="48.75007" lon="2.00703">
        <ele>169</ele>
        <time>2021-05-20T06:36:13.000Z</time>
      </trkpt>
      <trkpt lat="48.75006" lon="2.00702">
        <ele>169</ele>
        <time>2021-05-20T06:36:14.000Z</time>
      </trkpt>
      <trkpt lat="48.75005" lon="2.00701">
        <ele>169</ele>
        <time>2021-05-20T06:36:15.000Z</time>
      </trkpt>
      <trkpt lat="48.75004" lon="2.007">
        <ele>169</ele>
        <time>2021-05-20T06:36:16.000Z</time>
      </trkpt>
      <trkpt lat="48.75003" lon="2.00698">
        <ele>169</ele>
        <time>2021-05-20T06:36:17.000Z</time>
      </trkpt>
      <trkpt lat="48.75002" lon="2.00697">
        <ele>169</ele>
        <time>2021-05-20T06:36:18.000Z</time>
      </trkpt>
      <trkpt lat="48.75001" lon="2.00696">
        <ele>169</ele>
        <time>2021-05-20T06:36:19.000Z</time>
      </trkpt>
      <trkpt lat="48.74999" lon="2.00696">
        <ele>169</ele>
        <time>2021-05-20T06:36:20.000Z</time>
      </trkpt>
      <trkpt lat="48.74998" lon="2.00695">
        <ele>169</ele>
        <time>2021-05-20T06:36:21.000Z</time>
      </trkpt>
      <trkpt lat="48.74997" lon="2.00695">
        <ele>169</ele>
        <time>2021-05-20T06:36:22.000Z</time>
      </trkpt>
      <trkpt lat="48.74996" lon="2.00694">
        <ele>169</ele>
        <time>2021-05-20T06:36:23.000Z</time>
      </trkpt>
      <trkpt lat="48.74995" lon="2.00694">
        <ele>169</ele>
        <time>2021-05-20T06:36:24.000Z</time>
      </trkpt>
      <trkpt lat="48.74993" lon="2.00695">
        <ele>169</ele>
        <time>2021-05-20T06:36:25.000Z</time>
      </trkpt>
      <trkpt lat="48.74992" lon="2.00695">
        <ele>169</ele>
        <time>2021-05-20T06:36:26.000Z</time>
      </trkpt>
      <trkpt lat="48.74991" lon="2.00696">
        <ele>169</ele>
        <time>2021-05-20T06:36:27.000Z</time>
      </trkpt>
      <trkpt lat="48.74989" lon="2.00696">
        <ele>169</ele>
        <time>2021-05-20T06:36:28.000Z</time>
      </trkpt>
      <trkpt lat="48.74988" lon="2.00697">
        <ele>169</ele>
        <time>2021-05-20T06:36:29.000Z</time>
      </trkpt>
      <trkpt lat="48.74986" lon="2.00698">
        <ele>168</ele>
        <time>2021-05-20T06:36:30.000Z</time>
      </trkpt>
      <trkpt lat="48.74985" lon="2.00699">
        <ele>168</ele>
        <time>2021-05-20T06:36:31.000Z</time>
      </trkpt>
      <trkpt lat="48.74983" lon="2.00699">
        <ele>168</ele>
        <time>2021-05-20T06:36:32.000Z</time>
      </trkpt>
      <trkpt lat="48.74982" lon="2.007">
        <ele>168</ele>
        <time>2021-05-20T06:36:33.000Z</time>
      </trkpt>
      <trkpt lat="48.7498" lon="2.007">
        <ele>168</ele>
        <time>2021-05-20T06:36:34.000Z</time>
      </trkpt>
      <trkpt lat="48.74979" lon="2.007">
        <ele>168</ele>
        <time>2021-05-20T06:36:35.000Z</time>
      </trkpt>
      <trkpt lat="48.74978" lon="2.007">
        <ele>168</ele>
        <time>2021-05-20T06:36:36.000Z</time>
      </trkpt>
      <trkpt lat="48.74977" lon="2.007">
        <ele>168</ele>
        <time>2021-05-20T06:36:37.000Z</time>
      </trkpt>
      <trkpt lat="48.74975" lon="2.007">
        <ele>168</ele>
        <time>2021-05-20T06:36:38.000Z</time>
      </trkpt>
      <trkpt lat="48.74974" lon="2.007">
        <ele>168</ele>
        <time>2021-05-20T06:36:39.000Z</time>
      </trkpt>
      <trkpt lat="48.74972" lon="2.00699">
        <ele>168</ele>
        <time>2021-05-20T06:36:40.000Z</time>
      </trkpt>
      <trkpt lat="48.74971" lon="2.00698">
        <ele>168</ele>
        <time>2021-05-20T06:36:41.000Z</time>
      </trkpt>
      <trkpt lat="48.74969" lon="2.00698">
        <ele>168</ele>
        <time>2021-05-20T06:36:42.000Z</time>
      </trkpt>
      <trkpt lat="48.74968" lon="2.00697">
        <ele>168</ele>
        <time>2021-05-20T06:36:43.000Z</time>
      </trkpt>
      <trkpt lat="48.74967" lon="2.00696">
        <ele>168</ele>
        <time>2021-05-20T06:36:44.000Z</time>
      </trkpt>
      <trkpt lat="48.74966" lon="2.00696">
        <ele>169</ele>
        <time>2021-05-20T06:36:45.000Z</time>
      </trkpt>
      <trkpt lat="48.74965" lon="2.00695">
        <ele>169</ele>
        <time>2021-05-20T06:36:46.000Z</time>
      </trkpt>
      <trkpt lat="48.74964" lon="2.00693">
        <ele>169</ele>
        <time>2021-05-20T06:36:47.000Z</time>
      </trkpt>
      <trkpt lat="48.74963" lon="2.00692">
        <ele>169</ele>
        <time>2021-05-20T06:36:48.000Z</time>
      </trkpt>
      <trkpt lat="48.74962" lon="2.00691">
        <ele>169</ele>
        <time>2021-05-20T06:36:49.000Z</time>
      </trkpt>
      <trkpt lat="48.74962" lon="2.00691">
        <ele>169</ele>
        <time>2021-05-20T06:36:50.000Z</time>
      </trkpt>
      <trkpt lat="48.74961" lon="2.0069">
        <ele>169</ele>
        <time>2021-05-20T06:36:51.000Z</time>
      </trkpt>
      <trkpt lat="48.7496" lon="2.00689">
        <ele>169</ele>
        <time>2021-05-20T06:36:52.000Z</time>
      </trkpt>
      <trkpt lat="48.7496" lon="2.00688">
        <ele>169</ele>
        <time>2021-05-20T06:36:53.000Z</time>
      </trkpt>
      <trkpt lat="48.7496" lon="2.00687">
        <ele>169</ele>
        <time>2021-05-20T06:36:54.000Z</time>
      </trkpt>
      <trkpt lat="48.7496" lon="2.00686">
        <ele>169</ele>
        <time>2021-05-20T06:36:55.000Z</time>
      </trkpt>
      <trkpt lat="48.74959" lon="2.00685">
        <ele>169</ele>
        <time>2021-05-20T06:36:56.000Z</time>
      </trkpt>
      <trkpt lat="48.74959" lon="2.00684">
        <ele>169</ele>
        <time>2021-05-20T06:36:57.000Z</time>
      </trkpt>
      <trkpt lat="48.74959" lon="2.00684">
        <ele>169</ele>
        <time>2021-05-20T06:36:58.000Z</time>
      </trkpt>
      <trkpt lat="48.74959" lon="2.00683">
        <ele>169</ele>
        <time>2021-05-20T06:36:59.000Z</time>
      </trkpt>
      <trkpt lat="48.74956" lon="2.0068">
        <ele>169</ele>
        <time>2021-05-20T06:37:01.000Z</time>
      </trkpt>
      <trkpt lat="48.74955" lon="2.0068">
        <ele>169</ele>
        <time>2021-05-20T06:37:02.000Z</time>
      </trkpt>
      <trkpt lat="48.74955" lon="2.0068">
        <ele>169</ele>
        <time>2021-05-20T06:37:03.000Z</time>
      </trkpt>
      <trkpt lat="48.74954" lon="2.0068">
        <ele>170</ele>
        <time>2021-05-20T06:37:04.000Z</time>
      </trkpt>
      <trkpt lat="48.74953" lon="2.0068">
        <ele>170</ele>
        <time>2021-05-20T06:37:05.000Z</time>
      </trkpt>
      <trkpt lat="48.74952" lon="2.00681">
        <ele>170</ele>
        <time>2021-05-20T06:37:06.000Z</time>
      </trkpt>
      <trkpt lat="48.74951" lon="2.00682">
        <ele>170</ele>
        <time>2021-05-20T06:37:07.000Z</time>
      </trkpt>
      <trkpt lat="48.74949" lon="2.00683">
        <ele>170</ele>
        <time>2021-05-20T06:37:08.000Z</time>
      </trkpt>
      <trkpt lat="48.74948" lon="2.00684">
        <ele>171</ele>
        <time>2021-05-20T06:37:09.000Z</time>
      </trkpt>
      <trkpt lat="48.74947" lon="2.00684">
        <ele>171</ele>
        <time>2021-05-20T06:37:10.000Z</time>
      </trkpt>
      <trkpt lat="48.74946" lon="2.00685">
        <ele>171</ele>
        <time>2021-05-20T06:37:11.000Z</time>
      </trkpt>
      <trkpt lat="48.74945" lon="2.00686">
        <ele>171</ele>
        <time>2021-05-20T06:37:12.000Z</time>
      </trkpt>
      <trkpt lat="48.74944" lon="2.00687">
        <ele>171</ele>
        <time>2021-05-20T06:37:13.000Z</time>
      </trkpt>
      <trkpt lat="48.74942" lon="2.00688">
        <ele>171</ele>
        <time>2021-05-20T06:37:14.000Z</time>
      </trkpt>
      <trkpt lat="48.74941" lon="2.00688">
        <ele>172</ele>
        <time>2021-05-20T06:37:15.000Z</time>
      </trkpt>
      <trkpt lat="48.7494" lon="2.00689">
        <ele>172</ele>
        <time>2021-05-20T06:37:16.000Z</time>
      </trkpt>
      <trkpt lat="48.74939" lon="2.0069">
        <ele>172</ele>
        <time>2021-05-20T06:37:17.000Z</time>
      </trkpt>
      <trkpt lat="48.74937" lon="2.00691">
        <ele>172</ele>
        <time>2021-05-20T06:37:18.000Z</time>
      </trkpt>
      <trkpt lat="48.74936" lon="2.00691">
        <ele>172</ele>
        <time>2021-05-20T06:37:19.000Z</time>
      </trkpt>
      <trkpt lat="48.74935" lon="2.00692">
        <ele>173</ele>
        <time>2021-05-20T06:37:20.000Z</time>
      </trkpt>
      <trkpt lat="48.74934" lon="2.00693">
        <ele>173</ele>
        <time>2021-05-20T06:37:21.000Z</time>
      </trkpt>
      <trkpt lat="48.74933" lon="2.00693">
        <ele>173</ele>
        <time>2021-05-20T06:37:22.000Z</time>
      </trkpt>
      <trkpt lat="48.74932" lon="2.00694">
        <ele>173</ele>
        <time>2021-05-20T06:37:23.000Z</time>
      </trkpt>
      <trkpt lat="48.74931" lon="2.00695">
        <ele>173</ele>
        <time>2021-05-20T06:37:24.000Z</time>
      </trkpt>
      <trkpt lat="48.74929" lon="2.00695">
        <ele>173</ele>
        <time>2021-05-20T06:37:25.000Z</time>
      </trkpt>
      <trkpt lat="48.74928" lon="2.00696">
        <ele>173</ele>
        <time>2021-05-20T06:37:26.000Z</time>
      </trkpt>
      <trkpt lat="48.74926" lon="2.00697">
        <ele>174</ele>
        <time>2021-05-20T06:37:27.000Z</time>
      </trkpt>
      <trkpt lat="48.74925" lon="2.00698">
        <ele>174</ele>
        <time>2021-05-20T06:37:28.000Z</time>
      </trkpt>
      <trkpt lat="48.74924" lon="2.00699">
        <ele>174</ele>
        <time>2021-05-20T06:37:29.000Z</time>
      </trkpt>
      <trkpt lat="48.74922" lon="2.00699">
        <ele>174</ele>
        <time>2021-05-20T06:37:30.000Z</time>
      </trkpt>
      <trkpt lat="48.74921" lon="2.007">
        <ele>174</ele>
        <time>2021-05-20T06:37:31.000Z</time>
      </trkpt>
      <trkpt lat="48.7492" lon="2.007">
        <ele>174</ele>
        <time>2021-05-20T06:37:32.000Z</time>
      </trkpt>
      <trkpt lat="48.74919" lon="2.00701">
        <ele>175</ele>
        <time>2021-05-20T06:37:33.000Z</time>
      </trkpt>
      <trkpt lat="48.74917" lon="2.00702">
        <ele>175</ele>
        <time>2021-05-20T06:37:34.000Z</time>
      </trkpt>
      <trkpt lat="48.74916" lon="2.00702">
        <ele>175</ele>
        <time>2021-05-20T06:37:35.000Z</time>
      </trkpt>
      <trkpt lat="48.74914" lon="2.00703">
        <ele>175</ele>
        <time>2021-05-20T06:37:36.000Z</time>
      </trkpt>
      <trkpt lat="48.74913" lon="2.00703">
        <ele>175</ele>
        <time>2021-05-20T06:37:37.000Z</time>
      </trkpt>
      <trkpt lat="48.74912" lon="2.00703">
        <ele>175</ele>
        <time>2021-05-20T06:37:38.000Z</time>
      </trkpt>
      <trkpt lat="48.74911" lon="2.00704">
        <ele>175</ele>
        <time>2021-05-20T06:37:39.000Z</time>
      </trkpt>
      <trkpt lat="48.7491" lon="2.00704">
        <ele>175</ele>
        <time>2021-05-20T06:37:40.000Z</time>
      </trkpt>
      <trkpt lat="48.74909" lon="2.00705">
        <ele>176</ele>
        <time>2021-05-20T06:37:41.000Z</time>
      </trkpt>
      <trkpt lat="48.74908" lon="2.00705">
        <ele>176</ele>
        <time>2021-05-20T06:37:42.000Z</time>
      </trkpt>
      <trkpt lat="48.74907" lon="2.00705">
        <ele>176</ele>
        <time>2021-05-20T06:37:43.000Z</time>
      </trkpt>
      <trkpt lat="48.74906" lon="2.00706">
        <ele>176</ele>
        <time>2021-05-20T06:37:44.000Z</time>
      </trkpt>
      <trkpt lat="48.74905" lon="2.00706">
        <ele>176</ele>
        <time>2021-05-20T06:37:45.000Z</time>
      </trkpt>
      <trkpt lat="48.74904" lon="2.00707">
        <ele>176</ele>
        <time>2021-05-20T06:37:46.000Z</time>
      </trkpt>
      <trkpt lat="48.74903" lon="2.00707">
        <ele>176</ele>
        <time>2021-05-20T06:37:47.000Z</time>
      </trkpt>
      <trkpt lat="48.74902" lon="2.00708">
        <ele>176</ele>
        <time>2021-05-20T06:37:48.000Z</time>
      </trkpt>
      <trkpt lat="48.74901" lon="2.00709">
        <ele>176</ele>
        <time>2021-05-20T06:37:49.000Z</time>
      </trkpt>
      <trkpt lat="48.749" lon="2.00709">
        <ele>176</ele>
        <time>2021-05-20T06:37:50.000Z</time>
      </trkpt>
      <trkpt lat="48.74899" lon="2.00709">
        <ele>176</ele>
        <time>2021-05-20T06:37:51.000Z</time>
      </trkpt>
      <trkpt lat="48.74897" lon="2.0071">
        <ele>176</ele>
        <time>2021-05-20T06:37:52.000Z</time>
      </trkpt>
      <trkpt lat="48.74896" lon="2.0071">
        <ele>176</ele>
        <time>2021-05-20T06:37:53.000Z</time>
      </trkpt>
      <trkpt lat="48.74894" lon="2.00711">
        <ele>176</ele>
        <time>2021-05-20T06:37:54.000Z</time>
      </trkpt>
      <trkpt lat="48.74893" lon="2.00712">
        <ele>176</ele>
        <time>2021-05-20T06:37:55.000Z</time>
      </trkpt>
      <trkpt lat="48.74891" lon="2.00712">
        <ele>176</ele>
        <time>2021-05-20T06:37:56.000Z</time>
      </trkpt>
      <trkpt lat="48.7489" lon="2.00713">
        <ele>176</ele>
        <time>2021-05-20T06:37:57.000Z</time>
      </trkpt>
      <trkpt lat="48.74888" lon="2.00714">
        <ele>176</ele>
        <time>2021-05-20T06:37:58.000Z</time>
      </trkpt>
      <trkpt lat="48.74887" lon="2.00715">
        <ele>176</ele>
        <time>2021-05-20T06:37:59.000Z</time>
      </trkpt>
      <trkpt lat="48.74885" lon="2.00716">
        <ele>176</ele>
        <time>2021-05-20T06:38:00.000Z</time>
      </trkpt>
      <trkpt lat="48.74883" lon="2.00717">
        <ele>175</ele>
        <time>2021-05-20T06:38:01.000Z</time>
      </trkpt>
      <trkpt lat="48.74882" lon="2.00718">
        <ele>175</ele>
        <time>2021-05-20T06:38:02.000Z</time>
      </trkpt>
      <trkpt lat="48.7488" lon="2.00718">
        <ele>175</ele>
        <time>2021-05-20T06:38:03.000Z</time>
      </trkpt>
      <trkpt lat="48.74878" lon="2.00719">
        <ele>175</ele>
        <time>2021-05-20T06:38:04.000Z</time>
      </trkpt>
      <trkpt lat="48.74877" lon="2.00719">
        <ele>174</ele>
        <time>2021-05-20T06:38:05.000Z</time>
      </trkpt>
      <trkpt lat="48.74875" lon="2.0072">
        <ele>174</ele>
        <time>2021-05-20T06:38:06.000Z</time>
      </trkpt>
      <trkpt lat="48.74873" lon="2.0072">
        <ele>174</ele>
        <time>2021-05-20T06:38:07.000Z</time>
      </trkpt>
      <trkpt lat="48.74871" lon="2.0072">
        <ele>173</ele>
        <time>2021-05-20T06:38:08.000Z</time>
      </trkpt>
      <trkpt lat="48.74869" lon="2.0072">
        <ele>173</ele>
        <time>2021-05-20T06:38:09.000Z</time>
      </trkpt>
      <trkpt lat="48.74868" lon="2.0072">
        <ele>173</ele>
        <time>2021-05-20T06:38:10.000Z</time>
      </trkpt>
      <trkpt lat="48.74866" lon="2.0072">
        <ele>172</ele>
        <time>2021-05-20T06:38:11.000Z</time>
      </trkpt>
      <trkpt lat="48.74865" lon="2.0072">
        <ele>172</ele>
        <time>2021-05-20T06:38:12.000Z</time>
      </trkpt>
      <trkpt lat="48.74863" lon="2.0072">
        <ele>172</ele>
        <time>2021-05-20T06:38:13.000Z</time>
      </trkpt>
      <trkpt lat="48.74862" lon="2.00719">
        <ele>172</ele>
        <time>2021-05-20T06:38:14.000Z</time>
      </trkpt>
      <trkpt lat="48.7486" lon="2.00719">
        <ele>172</ele>
        <time>2021-05-20T06:38:15.000Z</time>
      </trkpt>
      <trkpt lat="48.74859" lon="2.00718">
        <ele>172</ele>
        <time>2021-05-20T06:38:16.000Z</time>
      </trkpt>
      <trkpt lat="48.74858" lon="2.00717">
        <ele>172</ele>
        <time>2021-05-20T06:38:17.000Z</time>
      </trkpt>
      <trkpt lat="48.74856" lon="2.00716">
        <ele>172</ele>
        <time>2021-05-20T06:38:18.000Z</time>
      </trkpt>
      <trkpt lat="48.74855" lon="2.00716">
        <ele>172</ele>
        <time>2021-05-20T06:38:19.000Z</time>
      </trkpt>
      <trkpt lat="48.74853" lon="2.00715">
        <ele>172</ele>
        <time>2021-05-20T06:38:20.000Z</time>
      </trkpt>
      <trkpt lat="48.74852" lon="2.00714">
        <ele>171</ele>
        <time>2021-05-20T06:38:21.000Z</time>
      </trkpt>
      <trkpt lat="48.74851" lon="2.00713">
        <ele>171</ele>
        <time>2021-05-20T06:38:22.000Z</time>
      </trkpt>
      <trkpt lat="48.74849" lon="2.00712">
        <ele>171</ele>
        <time>2021-05-20T06:38:23.000Z</time>
      </trkpt>
      <trkpt lat="48.74848" lon="2.00711">
        <ele>171</ele>
        <time>2021-05-20T06:38:24.000Z</time>
      </trkpt>
      <trkpt lat="48.74847" lon="2.0071">
        <ele>171</ele>
        <time>2021-05-20T06:38:25.000Z</time>
      </trkpt>
      <trkpt lat="48.74846" lon="2.00708">
        <ele>171</ele>
        <time>2021-05-20T06:38:26.000Z</time>
      </trkpt>
      <trkpt lat="48.74845" lon="2.00707">
        <ele>171</ele>
        <time>2021-05-20T06:38:27.000Z</time>
      </trkpt>
      <trkpt lat="48.74844" lon="2.00706">
        <ele>170</ele>
        <time>2021-05-20T06:38:28.000Z</time>
      </trkpt>
      <trkpt lat="48.74843" lon="2.00704">
        <ele>170</ele>
        <time>2021-05-20T06:38:29.000Z</time>
      </trkpt>
      <trkpt lat="48.74842" lon="2.00703">
        <ele>170</ele>
        <time>2021-05-20T06:38:30.000Z</time>
      </trkpt>
      <trkpt lat="48.74841" lon="2.00702">
        <ele>170</ele>
        <time>2021-05-20T06:38:31.000Z</time>
      </trkpt>
      <trkpt lat="48.7484" lon="2.007">
        <ele>170</ele>
        <time>2021-05-20T06:38:32.000Z</time>
      </trkpt>
      <trkpt lat="48.74839" lon="2.00699">
        <ele>170</ele>
        <time>2021-05-20T06:38:33.000Z</time>
      </trkpt>
      <trkpt lat="48.74838" lon="2.00698">
        <ele>169</ele>
        <time>2021-05-20T06:38:34.000Z</time>
      </trkpt>
      <trkpt lat="48.74837" lon="2.00697">
        <ele>169</ele>
        <time>2021-05-20T06:38:35.000Z</time>
      </trkpt>
      <trkpt lat="48.74836" lon="2.00697">
        <ele>169</ele>
        <time>2021-05-20T06:38:36.000Z</time>
      </trkpt>
      <trkpt lat="48.74836" lon="2.00696">
        <ele>169</ele>
        <time>2021-05-20T06:38:37.000Z</time>
      </trkpt>
      <trkpt lat="48.74835" lon="2.00695">
        <ele>169</ele>
        <time>2021-05-20T06:38:38.000Z</time>
      </trkpt>
      <trkpt lat="48.74833" lon="2.00694">
        <ele>169</ele>
        <time>2021-05-20T06:38:39.000Z</time>
      </trkpt>
      <trkpt lat="48.74832" lon="2.00693">
        <ele>169</ele>
        <time>2021-05-20T06:38:40.000Z</time>
      </trkpt>
      <trkpt lat="48.74831" lon="2.00692">
        <ele>169</ele>
        <time>2021-05-20T06:38:41.000Z</time>
      </trkpt>
      <trkpt lat="48.7483" lon="2.00691">
        <ele>168</ele>
        <time>2021-05-20T06:38:42.000Z</time>
      </trkpt>
      <trkpt lat="48.74828" lon="2.00691">
        <ele>168</ele>
        <time>2021-05-20T06:38:43.000Z</time>
      </trkpt>
      <trkpt lat="48.74827" lon="2.0069">
        <ele>168</ele>
        <time>2021-05-20T06:38:44.000Z</time>
      </trkpt>
      <trkpt lat="48.74826" lon="2.00688">
        <ele>168</ele>
        <time>2021-05-20T06:38:45.000Z</time>
      </trkpt>
      <trkpt lat="48.74826" lon="2.00687">
        <ele>168</ele>
        <time>2021-05-20T06:38:46.000Z</time>
      </trkpt>
      <trkpt lat="48.74825" lon="2.00686">
        <ele>168</ele>
        <time>2021-05-20T06:38:47.000Z</time>
      </trkpt>
      <trkpt lat="48.74825" lon="2.00686">
        <ele>168</ele>
        <time>2021-05-20T06:38:48.000Z</time>
      </trkpt>
      <trkpt lat="48.74825" lon="2.00685">
        <ele>168</ele>
        <time>2021-05-20T06:38:49.000Z</time>
      </trkpt>
      <trkpt lat="48.74825" lon="2.00684">
        <ele>168</ele>
        <time>2021-05-20T06:38:50.000Z</time>
      </trkpt>
      <trkpt lat="48.74825" lon="2.00683">
        <ele>167</ele>
        <time>2021-05-20T06:38:51.000Z</time>
      </trkpt>
      <trkpt lat="48.74825" lon="2.00682">
        <ele>167</ele>
        <time>2021-05-20T06:38:52.000Z</time>
      </trkpt>
      <trkpt lat="48.74825" lon="2.0068">
        <ele>167</ele>
        <time>2021-05-20T06:38:53.000Z</time>
      </trkpt>
      <trkpt lat="48.74825" lon="2.00679">
        <ele>167</ele>
        <time>2021-05-20T06:38:54.000Z</time>
      </trkpt>
      <trkpt lat="48.74826" lon="2.00678">
        <ele>167</ele>
        <time>2021-05-20T06:38:55.000Z</time>
      </trkpt>
      <trkpt lat="48.74826" lon="2.00677">
        <ele>167</ele>
        <time>2021-05-20T06:38:56.000Z</time>
      </trkpt>
      <trkpt lat="48.74827" lon="2.00675">
        <ele>167</ele>
        <time>2021-05-20T06:38:57.000Z</time>
      </trkpt>
      <trkpt lat="48.74828" lon="2.00674">
        <ele>167</ele>
        <time>2021-05-20T06:38:58.000Z</time>
      </trkpt>
      <trkpt lat="48.74828" lon="2.00672">
        <ele>167</ele>
        <time>2021-05-20T06:38:59.000Z</time>
      </trkpt>
      <trkpt lat="48.74828" lon="2.0067">
        <ele>167</ele>
        <time>2021-05-20T06:39:00.000Z</time>
      </trkpt>
      <trkpt lat="48.74828" lon="2.00669">
        <ele>167</ele>
        <time>2021-05-20T06:39:01.000Z</time>
      </trkpt>
      <trkpt lat="48.74827" lon="2.00668">
        <ele>167</ele>
        <time>2021-05-20T06:39:02.000Z</time>
      </trkpt>
      <trkpt lat="48.74826" lon="2.00667">
        <ele>167</ele>
        <time>2021-05-20T06:39:03.000Z</time>
      </trkpt>
      <trkpt lat="48.74826" lon="2.00666">
        <ele>167</ele>
        <time>2021-05-20T06:39:04.000Z</time>
      </trkpt>
      <trkpt lat="48.74825" lon="2.00666">
        <ele>167</ele>
        <time>2021-05-20T06:39:05.000Z</time>
      </trkpt>
      <trkpt lat="48.74824" lon="2.00666">
        <ele>167</ele>
        <time>2021-05-20T06:39:06.000Z</time>
      </trkpt>
      <trkpt lat="48.74823" lon="2.00665">
        <ele>167</ele>
        <time>2021-05-20T06:39:07.000Z</time>
      </trkpt>
      <trkpt lat="48.74823" lon="2.00665">
        <ele>166</ele>
        <time>2021-05-20T06:39:08.000Z</time>
      </trkpt>
      <trkpt lat="48.74822" lon="2.00666">
        <ele>166</ele>
        <time>2021-05-20T06:39:09.000Z</time>
      </trkpt>
      <trkpt lat="48.74821" lon="2.00666">
        <ele>166</ele>
        <time>2021-05-20T06:39:10.000Z</time>
      </trkpt>
      <trkpt lat="48.7482" lon="2.00666">
        <ele>166</ele>
        <time>2021-05-20T06:39:11.000Z</time>
      </trkpt>
      <trkpt lat="48.74819" lon="2.00666">
        <ele>166</ele>
        <time>2021-05-20T06:39:12.000Z</time>
      </trkpt>
      <trkpt lat="48.74818" lon="2.00666">
        <ele>166</ele>
        <time>2021-05-20T06:39:13.000Z</time>
      </trkpt>
      <trkpt lat="48.74817" lon="2.00666">
        <ele>166</ele>
        <time>2021-05-20T06:39:14.000Z</time>
      </trkpt>
      <trkpt lat="48.74816" lon="2.00666">
        <ele>166</ele>
        <time>2021-05-20T06:39:15.000Z</time>
      </trkpt>
      <trkpt lat="48.74815" lon="2.00667">
        <ele>166</ele>
        <time>2021-05-20T06:39:16.000Z</time>
      </trkpt>
      <trkpt lat="48.74813" lon="2.00667">
        <ele>165</ele>
        <time>2021-05-20T06:39:17.000Z</time>
      </trkpt>
      <trkpt lat="48.74812" lon="2.00667">
        <ele>165</ele>
        <time>2021-05-20T06:39:18.000Z</time>
      </trkpt>
      <trkpt lat="48.74811" lon="2.00667">
        <ele>165</ele>
        <time>2021-05-20T06:39:19.000Z</time>
      </trkpt>
      <trkpt lat="48.74809" lon="2.00667">
        <ele>165</ele>
        <time>2021-05-20T06:39:20.000Z</time>
      </trkpt>
      <trkpt lat="48.74808" lon="2.00667">
        <ele>165</ele>
        <time>2021-05-20T06:39:21.000Z</time>
      </trkpt>
      <trkpt lat="48.74807" lon="2.00667">
        <ele>165</ele>
        <time>2021-05-20T06:39:22.000Z</time>
      </trkpt>
      <trkpt lat="48.74806" lon="2.00667">
        <ele>165</ele>
        <time>2021-05-20T06:39:23.000Z</time>
      </trkpt>
      <trkpt lat="48.74804" lon="2.00668">
        <ele>164</ele>
        <time>2021-05-20T06:39:24.000Z</time>
      </trkpt>
      <trkpt lat="48.74803" lon="2.00668">
        <ele>164</ele>
        <time>2021-05-20T06:39:25.000Z</time>
      </trkpt>
      <trkpt lat="48.74802" lon="2.00668">
        <ele>164</ele>
        <time>2021-05-20T06:39:26.000Z</time>
      </trkpt>
      <trkpt lat="48.74801" lon="2.00668">
        <ele>164</ele>
        <time>2021-05-20T06:39:27.000Z</time>
      </trkpt>
      <trkpt lat="48.748" lon="2.00669">
        <ele>164</ele>
        <time>2021-05-20T06:39:28.000Z</time>
      </trkpt>
      <trkpt lat="48.74799" lon="2.00669">
        <ele>164</ele>
        <time>2021-05-20T06:39:29.000Z</time>
      </trkpt>
      <trkpt lat="48.74798" lon="2.00669">
        <ele>164</ele>
        <time>2021-05-20T06:39:30.000Z</time>
      </trkpt>
      <trkpt lat="48.74797" lon="2.00669">
        <ele>164</ele>
        <time>2021-05-20T06:39:31.000Z</time>
      </trkpt>
      <trkpt lat="48.74796" lon="2.0067">
        <ele>164</ele>
        <time>2021-05-20T06:39:32.000Z</time>
      </trkpt>
      <trkpt lat="48.74795" lon="2.0067">
        <ele>163</ele>
        <time>2021-05-20T06:39:33.000Z</time>
      </trkpt>
      <trkpt lat="48.74794" lon="2.0067">
        <ele>163</ele>
        <time>2021-05-20T06:39:34.000Z</time>
      </trkpt>
      <trkpt lat="48.74793" lon="2.0067">
        <ele>163</ele>
        <time>2021-05-20T06:39:35.000Z</time>
      </trkpt>
      <trkpt lat="48.74793" lon="2.00671">
        <ele>163</ele>
        <time>2021-05-20T06:39:36.000Z</time>
      </trkpt>
      <trkpt lat="48.74792" lon="2.00671">
        <ele>163</ele>
        <time>2021-05-20T06:39:37.000Z</time>
      </trkpt>
      <trkpt lat="48.74791" lon="2.00672">
        <ele>163</ele>
        <time>2021-05-20T06:39:38.000Z</time>
      </trkpt>
      <trkpt lat="48.74791" lon="2.00673">
        <ele>163</ele>
        <time>2021-05-20T06:39:39.000Z</time>
      </trkpt>
      <trkpt lat="48.74789" lon="2.00673">
        <ele>163</ele>
        <time>2021-05-20T06:39:40.000Z</time>
      </trkpt>
      <trkpt lat="48.74789" lon="2.00674">
        <ele>163</ele>
        <time>2021-05-20T06:39:41.000Z</time>
      </trkpt>
      <trkpt lat="48.74788" lon="2.00674">
        <ele>163</ele>
        <time>2021-05-20T06:39:42.000Z</time>
      </trkpt>
      <trkpt lat="48.74787" lon="2.00674">
        <ele>163</ele>
        <time>2021-05-20T06:39:43.000Z</time>
      </trkpt>
      <trkpt lat="48.74787" lon="2.00675">
        <ele>163</ele>
        <time>2021-05-20T06:39:44.000Z</time>
      </trkpt>
      <trkpt lat="48.74786" lon="2.00675">
        <ele>162</ele>
        <time>2021-05-20T06:39:45.000Z</time>
      </trkpt>
      <trkpt lat="48.74786" lon="2.00676">
        <ele>162</ele>
        <time>2021-05-20T06:39:46.000Z</time>
      </trkpt>
      <trkpt lat="48.74785" lon="2.00676">
        <ele>162</ele>
        <time>2021-05-20T06:39:47.000Z</time>
      </trkpt>
      <trkpt lat="48.74784" lon="2.00676">
        <ele>162</ele>
        <time>2021-05-20T06:39:48.000Z</time>
      </trkpt>
      <trkpt lat="48.74783" lon="2.00677">
        <ele>162</ele>
        <time>2021-05-20T06:39:49.000Z</time>
      </trkpt>
      <trkpt lat="48.74782" lon="2.00677">
        <ele>162</ele>
        <time>2021-05-20T06:39:50.000Z</time>
      </trkpt>
      <trkpt lat="48.74782" lon="2.00678">
        <ele>161</ele>
        <time>2021-05-20T06:39:51.000Z</time>
      </trkpt>
      <trkpt lat="48.74781" lon="2.00678">
        <ele>161</ele>
        <time>2021-05-20T06:39:52.000Z</time>
      </trkpt>
      <trkpt lat="48.7478" lon="2.00678">
        <ele>161</ele>
        <time>2021-05-20T06:39:53.000Z</time>
      </trkpt>
      <trkpt lat="48.7478" lon="2.00679">
        <ele>161</ele>
        <time>2021-05-20T06:39:54.000Z</time>
      </trkpt>
      <trkpt lat="48.74779" lon="2.00679">
        <ele>160</ele>
        <time>2021-05-20T06:39:55.000Z</time>
      </trkpt>
      <trkpt lat="48.74779" lon="2.00679">
        <ele>160</ele>
        <time>2021-05-20T06:39:56.000Z</time>
      </trkpt>
      <trkpt lat="48.74778" lon="2.00679">
        <ele>160</ele>
        <time>2021-05-20T06:39:57.000Z</time>
      </trkpt>
      <trkpt lat="48.74777" lon="2.0068">
        <ele>160</ele>
        <time>2021-05-20T06:39:58.000Z</time>
      </trkpt>
      <trkpt lat="48.74777" lon="2.0068">
        <ele>160</ele>
        <time>2021-05-20T06:39:59.000Z</time>
      </trkpt>
      <trkpt lat="48.74776" lon="2.00681">
        <ele>159</ele>
        <time>2021-05-20T06:40:00.000Z</time>
      </trkpt>
      <trkpt lat="48.74776" lon="2.00681">
        <ele>159</ele>
        <time>2021-05-20T06:40:01.000Z</time>
      </trkpt>
      <trkpt lat="48.74774" lon="2.00682">
        <ele>158</ele>
        <time>2021-05-20T06:40:02.000Z</time>
      </trkpt>
      <trkpt lat="48.74773" lon="2.00682">
        <ele>158</ele>
        <time>2021-05-20T06:40:03.000Z</time>
      </trkpt>
      <trkpt lat="48.74772" lon="2.00682">
        <ele>158</ele>
        <time>2021-05-20T06:40:04.000Z</time>
      </trkpt>
      <trkpt lat="48.74772" lon="2.00682">
        <ele>158</ele>
        <time>2021-05-20T06:40:05.000Z</time>
      </trkpt>
      <trkpt lat="48.74771" lon="2.00682">
        <ele>157</ele>
        <time>2021-05-20T06:40:06.000Z</time>
      </trkpt>
      <trkpt lat="48.7477" lon="2.00682">
        <ele>157</ele>
        <time>2021-05-20T06:40:07.000Z</time>
      </trkpt>
      <trkpt lat="48.74769" lon="2.00683">
        <ele>157</ele>
        <time>2021-05-20T06:40:08.000Z</time>
      </trkpt>
      <trkpt lat="48.74768" lon="2.00683">
        <ele>157</ele>
        <time>2021-05-20T06:40:09.000Z</time>
      </trkpt>
      <trkpt lat="48.74767" lon="2.00683">
        <ele>156</ele>
        <time>2021-05-20T06:40:10.000Z</time>
      </trkpt>
      <trkpt lat="48.74767" lon="2.00683">
        <ele>156</ele>
        <time>2021-05-20T06:40:11.000Z</time>
      </trkpt>
      <trkpt lat="48.74766" lon="2.00682">
        <ele>156</ele>
        <time>2021-05-20T06:40:12.000Z</time>
      </trkpt>
      <trkpt lat="48.74765" lon="2.00683">
        <ele>156</ele>
        <time>2021-05-20T06:40:13.000Z</time>
      </trkpt>
      <trkpt lat="48.74764" lon="2.00683">
        <ele>156</ele>
        <time>2021-05-20T06:40:14.000Z</time>
      </trkpt>
      <trkpt lat="48.74763" lon="2.00684">
        <ele>156</ele>
        <time>2021-05-20T06:40:15.000Z</time>
      </trkpt>
      <trkpt lat="48.74763" lon="2.00684">
        <ele>156</ele>
        <time>2021-05-20T06:40:16.000Z</time>
      </trkpt>
      <trkpt lat="48.74762" lon="2.00685">
        <ele>156</ele>
        <time>2021-05-20T06:40:17.000Z</time>
      </trkpt>
      <trkpt lat="48.74762" lon="2.00685">
        <ele>156</ele>
        <time>2021-05-20T06:40:18.000Z</time>
      </trkpt>
      <trkpt lat="48.74762" lon="2.00685">
        <ele>156</ele>
        <time>2021-05-20T06:40:19.000Z</time>
      </trkpt>
      <trkpt lat="48.74762" lon="2.00687">
        <ele>156</ele>
        <time>2021-05-20T06:40:20.000Z</time>
      </trkpt>
      <trkpt lat="48.74762" lon="2.00687">
        <ele>156</ele>
        <time>2021-05-20T06:40:21.000Z</time>
      </trkpt>
      <trkpt lat="48.74762" lon="2.00688">
        <ele>156</ele>
        <time>2021-05-20T06:40:22.000Z</time>
      </trkpt>
      <trkpt lat="48.74762" lon="2.00688">
        <ele>156</ele>
        <time>2021-05-20T06:40:23.000Z</time>
      </trkpt>
      <trkpt lat="48.74762" lon="2.00688">
        <ele>156</ele>
        <time>2021-05-20T06:40:24.000Z</time>
      </trkpt>
      <trkpt lat="48.74762" lon="2.00689">
        <ele>155</ele>
        <time>2021-05-20T06:40:25.000Z</time>
      </trkpt>
      <trkpt lat="48.74762" lon="2.00689">
        <ele>155</ele>
        <time>2021-05-20T06:40:26.000Z</time>
      </trkpt>
      <trkpt lat="48.74762" lon="2.0069">
        <ele>155</ele>
        <time>2021-05-20T06:40:27.000Z</time>
      </trkpt>
      <trkpt lat="48.74762" lon="2.0069">
        <ele>155</ele>
        <time>2021-05-20T06:40:28.000Z</time>
      </trkpt>
      <trkpt lat="48.74762" lon="2.0069">
        <ele>155</ele>
        <time>2021-05-20T06:40:29.000Z</time>
      </trkpt>
      <trkpt lat="48.74762" lon="2.0069">
        <ele>154</ele>
        <time>2021-05-20T06:40:30.000Z</time>
      </trkpt>
      <trkpt lat="48.7476" lon="2.0069">
        <ele>154</ele>
        <time>2021-05-20T06:40:31.000Z</time>
      </trkpt>
      <trkpt lat="48.74759" lon="2.0069">
        <ele>154</ele>
        <time>2021-05-20T06:40:32.000Z</time>
      </trkpt>
      <trkpt lat="48.74759" lon="2.0069">
        <ele>153</ele>
        <time>2021-05-20T06:40:33.000Z</time>
      </trkpt>
      <trkpt lat="48.74758" lon="2.0069">
        <ele>153</ele>
        <time>2021-05-20T06:40:34.000Z</time>
      </trkpt>
      <trkpt lat="48.74758" lon="2.0069">
        <ele>153</ele>
        <time>2021-05-20T06:40:35.000Z</time>
      </trkpt>
      <trkpt lat="48.74757" lon="2.0069">
        <ele>153</ele>
        <time>2021-05-20T06:40:36.000Z</time>
      </trkpt>
      <trkpt lat="48.74751" lon="2.00694">
        <ele>150</ele>
        <time>2021-05-20T06:40:37.000Z</time>
      </trkpt>
      <trkpt lat="48.7475" lon="2.00694">
        <ele>150</ele>
        <time>2021-05-20T06:40:38.000Z</time>
      </trkpt>
      <trkpt lat="48.74749" lon="2.00694">
        <ele>150</ele>
        <time>2021-05-20T06:40:39.000Z</time>
      </trkpt>
      <trkpt lat="48.74748" lon="2.00694">
        <ele>150</ele>
        <time>2021-05-20T06:40:40.000Z</time>
      </trkpt>
      <trkpt lat="48.74747" lon="2.00694">
        <ele>150</ele>
        <time>2021-05-20T06:40:41.000Z</time>
      </trkpt>
      <trkpt lat="48.74746" lon="2.00694">
        <ele>150</ele>
        <time>2021-05-20T06:40:42.000Z</time>
      </trkpt>
      <trkpt lat="48.74745" lon="2.00693">
        <ele>150</ele>
        <time>2021-05-20T06:40:43.000Z</time>
      </trkpt>
      <trkpt lat="48.74744" lon="2.00692">
        <ele>150</ele>
        <time>2021-05-20T06:40:44.000Z</time>
      </trkpt>
      <trkpt lat="48.74743" lon="2.00692">
        <ele>150</ele>
        <time>2021-05-20T06:40:45.000Z</time>
      </trkpt>
      <trkpt lat="48.74743" lon="2.00691">
        <ele>149</ele>
        <time>2021-05-20T06:40:46.000Z</time>
      </trkpt>
      <trkpt lat="48.74743" lon="2.0069">
        <ele>149</ele>
        <time>2021-05-20T06:40:47.000Z</time>
      </trkpt>
      <trkpt lat="48.74743" lon="2.00689">
        <ele>149</ele>
        <time>2021-05-20T06:40:48.000Z</time>
      </trkpt>
      <trkpt lat="48.74743" lon="2.00688">
        <ele>148</ele>
        <time>2021-05-20T06:40:49.000Z</time>
      </trkpt>
      <trkpt lat="48.74742" lon="2.00687">
        <ele>148</ele>
        <time>2021-05-20T06:40:50.000Z</time>
      </trkpt>
      <trkpt lat="48.74742" lon="2.00686">
        <ele>148</ele>
        <time>2021-05-20T06:40:51.000Z</time>
      </trkpt>
      <trkpt lat="48.74742" lon="2.00686">
        <ele>147</ele>
        <time>2021-05-20T06:40:52.000Z</time>
      </trkpt>
      <trkpt lat="48.74742" lon="2.00685">
        <ele>147</ele>
        <time>2021-05-20T06:40:53.000Z</time>
      </trkpt>
      <trkpt lat="48.74742" lon="2.00684">
        <ele>147</ele>
        <time>2021-05-20T06:40:54.000Z</time>
      </trkpt>
      <trkpt lat="48.74737" lon="2.00681">
        <ele>144</ele>
        <time>2021-05-20T06:40:55.000Z</time>
      </trkpt>
      <trkpt lat="48.74737" lon="2.00681">
        <ele>144</ele>
        <time>2021-05-20T06:40:56.000Z</time>
      </trkpt>
      <trkpt lat="48.74736" lon="2.00682">
        <ele>144</ele>
        <time>2021-05-20T06:40:57.000Z</time>
      </trkpt>
      <trkpt lat="48.74735" lon="2.00682">
        <ele>144</ele>
        <time>2021-05-20T06:40:58.000Z</time>
      </trkpt>
      <trkpt lat="48.74735" lon="2.00683">
        <ele>144</ele>
        <time>2021-05-20T06:40:59.000Z</time>
      </trkpt>
      <trkpt lat="48.74735" lon="2.00683">
        <ele>144</ele>
        <time>2021-05-20T06:41:00.000Z</time>
      </trkpt>
      <trkpt lat="48.74734" lon="2.00683">
        <ele>144</ele>
        <time>2021-05-20T06:41:01.000Z</time>
      </trkpt>
      <trkpt lat="48.74734" lon="2.00683">
        <ele>144</ele>
        <time>2021-05-20T06:41:02.000Z</time>
      </trkpt>
      <trkpt lat="48.74734" lon="2.00683">
        <ele>143</ele>
        <time>2021-05-20T06:41:03.000Z</time>
      </trkpt>
      <trkpt lat="48.74732" lon="2.00681">
        <ele>143</ele>
        <time>2021-05-20T06:41:04.000Z</time>
      </trkpt>
      <trkpt lat="48.74732" lon="2.0068">
        <ele>143</ele>
        <time>2021-05-20T06:41:05.000Z</time>
      </trkpt>
      <trkpt lat="48.74732" lon="2.0068">
        <ele>143</ele>
        <time>2021-05-20T06:41:06.000Z</time>
      </trkpt>
      <trkpt lat="48.74732" lon="2.00679">
        <ele>143</ele>
        <time>2021-05-20T06:41:07.000Z</time>
      </trkpt>
      <trkpt lat="48.7473" lon="2.00677">
        <ele>143</ele>
        <time>2021-05-20T06:41:08.000Z</time>
      </trkpt>
      <trkpt lat="48.7473" lon="2.00675">
        <ele>143</ele>
        <time>2021-05-20T06:41:09.000Z</time>
      </trkpt>
      <trkpt lat="48.7473" lon="2.00674">
        <ele>143</ele>
        <time>2021-05-20T06:41:10.000Z</time>
      </trkpt>
      <trkpt lat="48.74729" lon="2.00672">
        <ele>143</ele>
        <time>2021-05-20T06:41:11.000Z</time>
      </trkpt>
      <trkpt lat="48.74729" lon="2.0067">
        <ele>143</ele>
        <time>2021-05-20T06:41:12.000Z</time>
      </trkpt>
      <trkpt lat="48.74729" lon="2.00669">
        <ele>143</ele>
        <time>2021-05-20T06:41:13.000Z</time>
      </trkpt>
      <trkpt lat="48.74729" lon="2.00667">
        <ele>143</ele>
        <time>2021-05-20T06:41:14.000Z</time>
      </trkpt>
      <trkpt lat="48.74729" lon="2.00665">
        <ele>143</ele>
        <time>2021-05-20T06:41:15.000Z</time>
      </trkpt>
      <trkpt lat="48.74729" lon="2.00664">
        <ele>143</ele>
        <time>2021-05-20T06:41:16.000Z</time>
      </trkpt>
      <trkpt lat="48.74729" lon="2.00662">
        <ele>143</ele>
        <time>2021-05-20T06:41:17.000Z</time>
      </trkpt>
      <trkpt lat="48.74729" lon="2.0066">
        <ele>143</ele>
        <time>2021-05-20T06:41:18.000Z</time>
      </trkpt>
      <trkpt lat="48.74729" lon="2.00659">
        <ele>143</ele>
        <time>2021-05-20T06:41:19.000Z</time>
      </trkpt>
      <trkpt lat="48.74729" lon="2.00658">
        <ele>142</ele>
        <time>2021-05-20T06:41:20.000Z</time>
      </trkpt>
      <trkpt lat="48.74729" lon="2.00656">
        <ele>142</ele>
        <time>2021-05-20T06:41:21.000Z</time>
      </trkpt>
      <trkpt lat="48.74728" lon="2.00655">
        <ele>142</ele>
        <time>2021-05-20T06:41:22.000Z</time>
      </trkpt>
      <trkpt lat="48.74728" lon="2.00654">
        <ele>142</ele>
        <time>2021-05-20T06:41:23.000Z</time>
      </trkpt>
      <trkpt lat="48.74728" lon="2.00653">
        <ele>142</ele>
        <time>2021-05-20T06:41:24.000Z</time>
      </trkpt>
      <trkpt lat="48.74728" lon="2.00652">
        <ele>143</ele>
        <time>2021-05-20T06:41:25.000Z</time>
      </trkpt>
      <trkpt lat="48.74727" lon="2.00651">
        <ele>143</ele>
        <time>2021-05-20T06:41:26.000Z</time>
      </trkpt>
      <trkpt lat="48.74727" lon="2.0065">
        <ele>143</ele>
        <time>2021-05-20T06:41:27.000Z</time>
      </trkpt>
      <trkpt lat="48.74727" lon="2.00648">
        <ele>143</ele>
        <time>2021-05-20T06:41:28.000Z</time>
      </trkpt>
      <trkpt lat="48.74726" lon="2.00647">
        <ele>143</ele>
        <time>2021-05-20T06:41:29.000Z</time>
      </trkpt>
      <trkpt lat="48.74726" lon="2.00645">
        <ele>143</ele>
        <time>2021-05-20T06:41:30.000Z</time>
      </trkpt>
      <trkpt lat="48.74726" lon="2.00643">
        <ele>143</ele>
        <time>2021-05-20T06:41:31.000Z</time>
      </trkpt>
      <trkpt lat="48.74725" lon="2.00641">
        <ele>143</ele>
        <time>2021-05-20T06:41:32.000Z</time>
      </trkpt>
      <trkpt lat="48.74725" lon="2.00639">
        <ele>143</ele>
        <time>2021-05-20T06:41:33.000Z</time>
      </trkpt>
      <trkpt lat="48.74724" lon="2.00638">
        <ele>143</ele>
        <time>2021-05-20T06:41:34.000Z</time>
      </trkpt>
      <trkpt lat="48.74724" lon="2.00636">
        <ele>142</ele>
        <time>2021-05-20T06:41:35.000Z</time>
      </trkpt>
      <trkpt lat="48.74723" lon="2.00635">
        <ele>142</ele>
        <time>2021-05-20T06:41:36.000Z</time>
      </trkpt>
      <trkpt lat="48.74723" lon="2.00635">
        <ele>142</ele>
        <time>2021-05-20T06:41:37.000Z</time>
      </trkpt>
      <trkpt lat="48.74723" lon="2.00634">
        <ele>142</ele>
        <time>2021-05-20T06:41:38.000Z</time>
      </trkpt>
      <trkpt lat="48.74722" lon="2.00634">
        <ele>142</ele>
        <time>2021-05-20T06:41:39.000Z</time>
      </trkpt>
      <trkpt lat="48.74721" lon="2.00632">
        <ele>142</ele>
        <time>2021-05-20T06:41:40.000Z</time>
      </trkpt>
      <trkpt lat="48.7472" lon="2.00631">
        <ele>142</ele>
        <time>2021-05-20T06:41:41.000Z</time>
      </trkpt>
      <trkpt lat="48.74719" lon="2.00629">
        <ele>142</ele>
        <time>2021-05-20T06:41:42.000Z</time>
      </trkpt>
      <trkpt lat="48.74718" lon="2.00627">
        <ele>142</ele>
        <time>2021-05-20T06:41:43.000Z</time>
      </trkpt>
      <trkpt lat="48.74717" lon="2.00625">
        <ele>142</ele>
        <time>2021-05-20T06:41:44.000Z</time>
      </trkpt>
      <trkpt lat="48.74717" lon="2.00624">
        <ele>142</ele>
        <time>2021-05-20T06:41:45.000Z</time>
      </trkpt>
      <trkpt lat="48.74716" lon="2.00622">
        <ele>142</ele>
        <time>2021-05-20T06:41:46.000Z</time>
      </trkpt>
      <trkpt lat="48.74716" lon="2.0062">
        <ele>141</ele>
        <time>2021-05-20T06:41:47.000Z</time>
      </trkpt>
      <trkpt lat="48.74715" lon="2.00619">
        <ele>141</ele>
        <time>2021-05-20T06:41:48.000Z</time>
      </trkpt>
      <trkpt lat="48.74715" lon="2.00618">
        <ele>141</ele>
        <time>2021-05-20T06:41:49.000Z</time>
      </trkpt>
      <trkpt lat="48.74715" lon="2.00616">
        <ele>141</ele>
        <time>2021-05-20T06:41:50.000Z</time>
      </trkpt>
      <trkpt lat="48.74714" lon="2.00615">
        <ele>141</ele>
        <time>2021-05-20T06:41:51.000Z</time>
      </trkpt>
      <trkpt lat="48.74714" lon="2.00613">
        <ele>141</ele>
        <time>2021-05-20T06:41:52.000Z</time>
      </trkpt>
      <trkpt lat="48.74714" lon="2.00612">
        <ele>141</ele>
        <time>2021-05-20T06:41:53.000Z</time>
      </trkpt>
      <trkpt lat="48.74713" lon="2.0061">
        <ele>140</ele>
        <time>2021-05-20T06:41:54.000Z</time>
      </trkpt>
      <trkpt lat="48.74713" lon="2.00609">
        <ele>140</ele>
        <time>2021-05-20T06:41:55.000Z</time>
      </trkpt>
      <trkpt lat="48.74713" lon="2.00607">
        <ele>140</ele>
        <time>2021-05-20T06:41:56.000Z</time>
      </trkpt>
      <trkpt lat="48.74712" lon="2.00606">
        <ele>140</ele>
        <time>2021-05-20T06:41:57.000Z</time>
      </trkpt>
      <trkpt lat="48.74711" lon="2.00604">
        <ele>140</ele>
        <time>2021-05-20T06:41:58.000Z</time>
      </trkpt>
      <trkpt lat="48.74711" lon="2.00603">
        <ele>140</ele>
        <time>2021-05-20T06:41:59.000Z</time>
      </trkpt>
      <trkpt lat="48.7471" lon="2.00601">
        <ele>139</ele>
        <time>2021-05-20T06:42:00.000Z</time>
      </trkpt>
      <trkpt lat="48.74709" lon="2.00599">
        <ele>139</ele>
        <time>2021-05-20T06:42:01.000Z</time>
      </trkpt>
      <trkpt lat="48.74708" lon="2.00597">
        <ele>139</ele>
        <time>2021-05-20T06:42:02.000Z</time>
      </trkpt>
      <trkpt lat="48.74708" lon="2.00595">
        <ele>139</ele>
        <time>2021-05-20T06:42:03.000Z</time>
      </trkpt>
      <trkpt lat="48.74707" lon="2.00593">
        <ele>138</ele>
        <time>2021-05-20T06:42:04.000Z</time>
      </trkpt>
      <trkpt lat="48.74706" lon="2.00591">
        <ele>138</ele>
        <time>2021-05-20T06:42:05.000Z</time>
      </trkpt>
      <trkpt lat="48.74705" lon="2.0059">
        <ele>138</ele>
        <time>2021-05-20T06:42:06.000Z</time>
      </trkpt>
      <trkpt lat="48.74705" lon="2.00588">
        <ele>138</ele>
        <time>2021-05-20T06:42:07.000Z</time>
      </trkpt>
      <trkpt lat="48.74704" lon="2.00586">
        <ele>138</ele>
        <time>2021-05-20T06:42:08.000Z</time>
      </trkpt>
      <trkpt lat="48.74703" lon="2.00584">
        <ele>138</ele>
        <time>2021-05-20T06:42:09.000Z</time>
      </trkpt>
      <trkpt lat="48.74703" lon="2.00582">
        <ele>137</ele>
        <time>2021-05-20T06:42:10.000Z</time>
      </trkpt>
      <trkpt lat="48.74702" lon="2.00581">
        <ele>137</ele>
        <time>2021-05-20T06:42:11.000Z</time>
      </trkpt>
      <trkpt lat="48.74702" lon="2.00579">
        <ele>137</ele>
        <time>2021-05-20T06:42:12.000Z</time>
      </trkpt>
      <trkpt lat="48.74701" lon="2.00578">
        <ele>137</ele>
        <time>2021-05-20T06:42:13.000Z</time>
      </trkpt>
      <trkpt lat="48.747" lon="2.00577">
        <ele>137</ele>
        <time>2021-05-20T06:42:14.000Z</time>
      </trkpt>
      <trkpt lat="48.747" lon="2.00575">
        <ele>137</ele>
        <time>2021-05-20T06:42:15.000Z</time>
      </trkpt>
      <trkpt lat="48.747" lon="2.00574">
        <ele>137</ele>
        <time>2021-05-20T06:42:16.000Z</time>
      </trkpt>
      <trkpt lat="48.74699" lon="2.00573">
        <ele>137</ele>
        <time>2021-05-20T06:42:17.000Z</time>
      </trkpt>
      <trkpt lat="48.74699" lon="2.00572">
        <ele>137</ele>
        <time>2021-05-20T06:42:18.000Z</time>
      </trkpt>
      <trkpt lat="48.74699" lon="2.00572">
        <ele>137</ele>
        <time>2021-05-20T06:42:19.000Z</time>
      </trkpt>
      <trkpt lat="48.74699" lon="2.00572">
        <ele>137</ele>
        <time>2021-05-20T06:42:20.000Z</time>
      </trkpt>
      <trkpt lat="48.74695" lon="2.00567">
        <ele>135</ele>
        <time>2021-05-20T06:42:21.000Z</time>
      </trkpt>
      <trkpt lat="48.74694" lon="2.00567">
        <ele>135</ele>
        <time>2021-05-20T06:42:22.000Z</time>
      </trkpt>
      <trkpt lat="48.74694" lon="2.00567">
        <ele>135</ele>
        <time>2021-05-20T06:42:23.000Z</time>
      </trkpt>
      <trkpt lat="48.74689" lon="2.00565">
        <ele>135</ele>
        <time>2021-05-20T06:42:24.000Z</time>
      </trkpt>
      <trkpt lat="48.74689" lon="2.00565">
        <ele>135</ele>
        <time>2021-05-20T06:42:25.000Z</time>
      </trkpt>
      <trkpt lat="48.74688" lon="2.00564">
        <ele>135</ele>
        <time>2021-05-20T06:42:26.000Z</time>
      </trkpt>
      <trkpt lat="48.74684" lon="2.00563">
        <ele>135</ele>
        <time>2021-05-20T06:42:27.000Z</time>
      </trkpt>
      <trkpt lat="48.74684" lon="2.00563">
        <ele>136</ele>
        <time>2021-05-20T06:42:28.000Z</time>
      </trkpt>
      <trkpt lat="48.74681" lon="2.0056">
        <ele>136</ele>
        <time>2021-05-20T06:42:29.000Z</time>
      </trkpt>
      <trkpt lat="48.7468" lon="2.00559">
        <ele>136</ele>
        <time>2021-05-20T06:42:30.000Z</time>
      </trkpt>
      <trkpt lat="48.74679" lon="2.00557">
        <ele>136</ele>
        <time>2021-05-20T06:42:31.000Z</time>
      </trkpt>
      <trkpt lat="48.74678" lon="2.00556">
        <ele>136</ele>
        <time>2021-05-20T06:42:32.000Z</time>
      </trkpt>
      <trkpt lat="48.74677" lon="2.00554">
        <ele>136</ele>
        <time>2021-05-20T06:42:33.000Z</time>
      </trkpt>
      <trkpt lat="48.74677" lon="2.00553">
        <ele>137</ele>
        <time>2021-05-20T06:42:34.000Z</time>
      </trkpt>
      <trkpt lat="48.74676" lon="2.00551">
        <ele>137</ele>
        <time>2021-05-20T06:42:35.000Z</time>
      </trkpt>
      <trkpt lat="48.74676" lon="2.0055">
        <ele>137</ele>
        <time>2021-05-20T06:42:36.000Z</time>
      </trkpt>
      <trkpt lat="48.74676" lon="2.00549">
        <ele>137</ele>
        <time>2021-05-20T06:42:37.000Z</time>
      </trkpt>
      <trkpt lat="48.74675" lon="2.00548">
        <ele>137</ele>
        <time>2021-05-20T06:42:38.000Z</time>
      </trkpt>
      <trkpt lat="48.74675" lon="2.00546">
        <ele>137</ele>
        <time>2021-05-20T06:42:39.000Z</time>
      </trkpt>
      <trkpt lat="48.74675" lon="2.00544">
        <ele>137</ele>
        <time>2021-05-20T06:42:40.000Z</time>
      </trkpt>
      <trkpt lat="48.74675" lon="2.00543">
        <ele>137</ele>
        <time>2021-05-20T06:42:41.000Z</time>
      </trkpt>
      <trkpt lat="48.74674" lon="2.00542">
        <ele>137</ele>
        <time>2021-05-20T06:42:42.000Z</time>
      </trkpt>
      <trkpt lat="48.74674" lon="2.0054">
        <ele>137</ele>
        <time>2021-05-20T06:42:43.000Z</time>
      </trkpt>
      <trkpt lat="48.74674" lon="2.00539">
        <ele>137</ele>
        <time>2021-05-20T06:42:44.000Z</time>
      </trkpt>
      <trkpt lat="48.74674" lon="2.00537">
        <ele>137</ele>
        <time>2021-05-20T06:42:45.000Z</time>
      </trkpt>
      <trkpt lat="48.74674" lon="2.00536">
        <ele>137</ele>
        <time>2021-05-20T06:42:46.000Z</time>
      </trkpt>
      <trkpt lat="48.74673" lon="2.00534">
        <ele>137</ele>
        <time>2021-05-20T06:42:47.000Z</time>
      </trkpt>
      <trkpt lat="48.74673" lon="2.00533">
        <ele>137</ele>
        <time>2021-05-20T06:42:48.000Z</time>
      </trkpt>
      <trkpt lat="48.74672" lon="2.00532">
        <ele>137</ele>
        <time>2021-05-20T06:42:49.000Z</time>
      </trkpt>
      <trkpt lat="48.74672" lon="2.00531">
        <ele>136</ele>
        <time>2021-05-20T06:42:50.000Z</time>
      </trkpt>
      <trkpt lat="48.74671" lon="2.0053">
        <ele>136</ele>
        <time>2021-05-20T06:42:51.000Z</time>
      </trkpt>
      <trkpt lat="48.7467" lon="2.00529">
        <ele>137</ele>
        <time>2021-05-20T06:42:52.000Z</time>
      </trkpt>
      <trkpt lat="48.74669" lon="2.00528">
        <ele>137</ele>
        <time>2021-05-20T06:42:53.000Z</time>
      </trkpt>
      <trkpt lat="48.74668" lon="2.00528">
        <ele>137</ele>
        <time>2021-05-20T06:42:54.000Z</time>
      </trkpt>
      <trkpt lat="48.74668" lon="2.00527">
        <ele>137</ele>
        <time>2021-05-20T06:42:55.000Z</time>
      </trkpt>
      <trkpt lat="48.74667" lon="2.00526">
        <ele>137</ele>
        <time>2021-05-20T06:42:56.000Z</time>
      </trkpt>
      <trkpt lat="48.74666" lon="2.00525">
        <ele>137</ele>
        <time>2021-05-20T06:42:57.000Z</time>
      </trkpt>
      <trkpt lat="48.74665" lon="2.00524">
        <ele>137</ele>
        <time>2021-05-20T06:42:58.000Z</time>
      </trkpt>
      <trkpt lat="48.74664" lon="2.00523">
        <ele>137</ele>
        <time>2021-05-20T06:42:59.000Z</time>
      </trkpt>
      <trkpt lat="48.74663" lon="2.00522">
        <ele>137</ele>
        <time>2021-05-20T06:43:00.000Z</time>
      </trkpt>
      <trkpt lat="48.74662" lon="2.0052">
        <ele>137</ele>
        <time>2021-05-20T06:43:01.000Z</time>
      </trkpt>
      <trkpt lat="48.74661" lon="2.00519">
        <ele>137</ele>
        <time>2021-05-20T06:43:02.000Z</time>
      </trkpt>
      <trkpt lat="48.7466" lon="2.00517">
        <ele>138</ele>
        <time>2021-05-20T06:43:03.000Z</time>
      </trkpt>
      <trkpt lat="48.74659" lon="2.00516">
        <ele>138</ele>
        <time>2021-05-20T06:43:04.000Z</time>
      </trkpt>
      <trkpt lat="48.74658" lon="2.00514">
        <ele>138</ele>
        <time>2021-05-20T06:43:05.000Z</time>
      </trkpt>
      <trkpt lat="48.74657" lon="2.00513">
        <ele>138</ele>
        <time>2021-05-20T06:43:06.000Z</time>
      </trkpt>
      <trkpt lat="48.74656" lon="2.00511">
        <ele>138</ele>
        <time>2021-05-20T06:43:07.000Z</time>
      </trkpt>
      <trkpt lat="48.74656" lon="2.0051">
        <ele>139</ele>
        <time>2021-05-20T06:43:08.000Z</time>
      </trkpt>
      <trkpt lat="48.74656" lon="2.00508">
        <ele>139</ele>
        <time>2021-05-20T06:43:09.000Z</time>
      </trkpt>
      <trkpt lat="48.74655" lon="2.00507">
        <ele>139</ele>
        <time>2021-05-20T06:43:10.000Z</time>
      </trkpt>
      <trkpt lat="48.74655" lon="2.00505">
        <ele>139</ele>
        <time>2021-05-20T06:43:11.000Z</time>
      </trkpt>
      <trkpt lat="48.74654" lon="2.00503">
        <ele>139</ele>
        <time>2021-05-20T06:43:12.000Z</time>
      </trkpt>
      <trkpt lat="48.74653" lon="2.00502">
        <ele>140</ele>
        <time>2021-05-20T06:43:13.000Z</time>
      </trkpt>
      <trkpt lat="48.74653" lon="2.005">
        <ele>140</ele>
        <time>2021-05-20T06:43:14.000Z</time>
      </trkpt>
      <trkpt lat="48.74652" lon="2.00499">
        <ele>140</ele>
        <time>2021-05-20T06:43:15.000Z</time>
      </trkpt>
      <trkpt lat="48.74651" lon="2.00497">
        <ele>140</ele>
        <time>2021-05-20T06:43:16.000Z</time>
      </trkpt>
      <trkpt lat="48.7465" lon="2.00496">
        <ele>140</ele>
        <time>2021-05-20T06:43:17.000Z</time>
      </trkpt>
      <trkpt lat="48.7465" lon="2.00495">
        <ele>140</ele>
        <time>2021-05-20T06:43:18.000Z</time>
      </trkpt>
      <trkpt lat="48.74649" lon="2.00494">
        <ele>140</ele>
        <time>2021-05-20T06:43:19.000Z</time>
      </trkpt>
      <trkpt lat="48.74648" lon="2.00492">
        <ele>140</ele>
        <time>2021-05-20T06:43:20.000Z</time>
      </trkpt>
      <trkpt lat="48.74648" lon="2.00491">
        <ele>140</ele>
        <time>2021-05-20T06:43:21.000Z</time>
      </trkpt>
      <trkpt lat="48.74647" lon="2.00489">
        <ele>140</ele>
        <time>2021-05-20T06:43:22.000Z</time>
      </trkpt>
      <trkpt lat="48.74647" lon="2.00488">
        <ele>140</ele>
        <time>2021-05-20T06:43:23.000Z</time>
      </trkpt>
      <trkpt lat="48.74646" lon="2.00487">
        <ele>140</ele>
        <time>2021-05-20T06:43:24.000Z</time>
      </trkpt>
      <trkpt lat="48.74645" lon="2.00485">
        <ele>140</ele>
        <time>2021-05-20T06:43:25.000Z</time>
      </trkpt>
      <trkpt lat="48.74644" lon="2.00484">
        <ele>141</ele>
        <time>2021-05-20T06:43:26.000Z</time>
      </trkpt>
      <trkpt lat="48.74643" lon="2.00483">
        <ele>141</ele>
        <time>2021-05-20T06:43:27.000Z</time>
      </trkpt>
      <trkpt lat="48.74642" lon="2.00481">
        <ele>141</ele>
        <time>2021-05-20T06:43:28.000Z</time>
      </trkpt>
      <trkpt lat="48.74641" lon="2.0048">
        <ele>141</ele>
        <time>2021-05-20T06:43:29.000Z</time>
      </trkpt>
      <trkpt lat="48.74641" lon="2.00479">
        <ele>141</ele>
        <time>2021-05-20T06:43:30.000Z</time>
      </trkpt>
      <trkpt lat="48.7464" lon="2.00477">
        <ele>141</ele>
        <time>2021-05-20T06:43:31.000Z</time>
      </trkpt>
      <trkpt lat="48.74639" lon="2.00476">
        <ele>141</ele>
        <time>2021-05-20T06:43:32.000Z</time>
      </trkpt>
      <trkpt lat="48.74639" lon="2.00475">
        <ele>141</ele>
        <time>2021-05-20T06:43:33.000Z</time>
      </trkpt>
      <trkpt lat="48.74638" lon="2.00474">
        <ele>141</ele>
        <time>2021-05-20T06:43:34.000Z</time>
      </trkpt>
      <trkpt lat="48.74638" lon="2.00472">
        <ele>141</ele>
        <time>2021-05-20T06:43:35.000Z</time>
      </trkpt>
      <trkpt lat="48.74637" lon="2.00471">
        <ele>141</ele>
        <time>2021-05-20T06:43:36.000Z</time>
      </trkpt>
      <trkpt lat="48.74637" lon="2.0047">
        <ele>141</ele>
        <time>2021-05-20T06:43:37.000Z</time>
      </trkpt>
      <trkpt lat="48.74636" lon="2.00468">
        <ele>141</ele>
        <time>2021-05-20T06:43:38.000Z</time>
      </trkpt>
      <trkpt lat="48.74636" lon="2.00466">
        <ele>141</ele>
        <time>2021-05-20T06:43:39.000Z</time>
      </trkpt>
      <trkpt lat="48.74635" lon="2.00464">
        <ele>141</ele>
        <time>2021-05-20T06:43:40.000Z</time>
      </trkpt>
      <trkpt lat="48.74635" lon="2.00462">
        <ele>141</ele>
        <time>2021-05-20T06:43:41.000Z</time>
      </trkpt>
      <trkpt lat="48.74635" lon="2.0046">
        <ele>141</ele>
        <time>2021-05-20T06:43:42.000Z</time>
      </trkpt>
      <trkpt lat="48.74635" lon="2.00458">
        <ele>141</ele>
        <time>2021-05-20T06:43:43.000Z</time>
      </trkpt>
      <trkpt lat="48.74635" lon="2.00456">
        <ele>141</ele>
        <time>2021-05-20T06:43:44.000Z</time>
      </trkpt>
      <trkpt lat="48.74635" lon="2.00454">
        <ele>141</ele>
        <time>2021-05-20T06:43:45.000Z</time>
      </trkpt>
      <trkpt lat="48.74636" lon="2.00452">
        <ele>141</ele>
        <time>2021-05-20T06:43:46.000Z</time>
      </trkpt>
      <trkpt lat="48.74636" lon="2.0045">
        <ele>141</ele>
        <time>2021-05-20T06:43:47.000Z</time>
      </trkpt>
      <trkpt lat="48.74636" lon="2.00449">
        <ele>141</ele>
        <time>2021-05-20T06:43:48.000Z</time>
      </trkpt>
      <trkpt lat="48.74636" lon="2.00447">
        <ele>141</ele>
        <time>2021-05-20T06:43:49.000Z</time>
      </trkpt>
      <trkpt lat="48.74636" lon="2.00446">
        <ele>141</ele>
        <time>2021-05-20T06:43:50.000Z</time>
      </trkpt>
      <trkpt lat="48.74636" lon="2.00444">
        <ele>141</ele>
        <time>2021-05-20T06:43:51.000Z</time>
      </trkpt>
      <trkpt lat="48.74636" lon="2.00442">
        <ele>141</ele>
        <time>2021-05-20T06:43:52.000Z</time>
      </trkpt>
      <trkpt lat="48.74636" lon="2.0044">
        <ele>141</ele>
        <time>2021-05-20T06:43:53.000Z</time>
      </trkpt>
      <trkpt lat="48.74635" lon="2.00439">
        <ele>141</ele>
        <time>2021-05-20T06:43:54.000Z</time>
      </trkpt>
      <trkpt lat="48.74635" lon="2.00437">
        <ele>141</ele>
        <time>2021-05-20T06:43:55.000Z</time>
      </trkpt>
      <trkpt lat="48.74634" lon="2.00436">
        <ele>142</ele>
        <time>2021-05-20T06:43:56.000Z</time>
      </trkpt>
      <trkpt lat="48.74634" lon="2.00435">
        <ele>142</ele>
        <time>2021-05-20T06:43:57.000Z</time>
      </trkpt>
      <trkpt lat="48.74633" lon="2.00434">
        <ele>142</ele>
        <time>2021-05-20T06:43:58.000Z</time>
      </trkpt>
      <trkpt lat="48.74632" lon="2.00433">
        <ele>142</ele>
        <time>2021-05-20T06:43:59.000Z</time>
      </trkpt>
      <trkpt lat="48.74631" lon="2.00432">
        <ele>142</ele>
        <time>2021-05-20T06:44:00.000Z</time>
      </trkpt>
      <trkpt lat="48.74631" lon="2.00431">
        <ele>142</ele>
        <time>2021-05-20T06:44:01.000Z</time>
      </trkpt>
      <trkpt lat="48.7463" lon="2.0043">
        <ele>142</ele>
        <time>2021-05-20T06:44:02.000Z</time>
      </trkpt>
      <trkpt lat="48.74629" lon="2.00429">
        <ele>143</ele>
        <time>2021-05-20T06:44:03.000Z</time>
      </trkpt>
      <trkpt lat="48.74628" lon="2.00428">
        <ele>143</ele>
        <time>2021-05-20T06:44:04.000Z</time>
      </trkpt>
      <trkpt lat="48.74627" lon="2.00427">
        <ele>143</ele>
        <time>2021-05-20T06:44:05.000Z</time>
      </trkpt>
      <trkpt lat="48.74626" lon="2.00425">
        <ele>143</ele>
        <time>2021-05-20T06:44:06.000Z</time>
      </trkpt>
      <trkpt lat="48.74625" lon="2.00424">
        <ele>143</ele>
        <time>2021-05-20T06:44:07.000Z</time>
      </trkpt>
      <trkpt lat="48.74624" lon="2.00423">
        <ele>143</ele>
        <time>2021-05-20T06:44:08.000Z</time>
      </trkpt>
      <trkpt lat="48.74623" lon="2.00422">
        <ele>143</ele>
        <time>2021-05-20T06:44:09.000Z</time>
      </trkpt>
      <trkpt lat="48.74623" lon="2.00421">
        <ele>143</ele>
        <time>2021-05-20T06:44:10.000Z</time>
      </trkpt>
      <trkpt lat="48.74622" lon="2.0042">
        <ele>144</ele>
        <time>2021-05-20T06:44:11.000Z</time>
      </trkpt>
      <trkpt lat="48.74621" lon="2.00418">
        <ele>143</ele>
        <time>2021-05-20T06:44:12.000Z</time>
      </trkpt>
      <trkpt lat="48.7462" lon="2.00416">
        <ele>143</ele>
        <time>2021-05-20T06:44:13.000Z</time>
      </trkpt>
      <trkpt lat="48.74619" lon="2.00415">
        <ele>143</ele>
        <time>2021-05-20T06:44:14.000Z</time>
      </trkpt>
      <trkpt lat="48.74618" lon="2.00413">
        <ele>143</ele>
        <time>2021-05-20T06:44:15.000Z</time>
      </trkpt>
      <trkpt lat="48.74617" lon="2.00412">
        <ele>143</ele>
        <time>2021-05-20T06:44:16.000Z</time>
      </trkpt>
      <trkpt lat="48.74617" lon="2.0041">
        <ele>143</ele>
        <time>2021-05-20T06:44:17.000Z</time>
      </trkpt>
      <trkpt lat="48.74616" lon="2.00408">
        <ele>143</ele>
        <time>2021-05-20T06:44:18.000Z</time>
      </trkpt>
      <trkpt lat="48.74615" lon="2.00407">
        <ele>142</ele>
        <time>2021-05-20T06:44:19.000Z</time>
      </trkpt>
      <trkpt lat="48.74615" lon="2.00405">
        <ele>142</ele>
        <time>2021-05-20T06:44:20.000Z</time>
      </trkpt>
      <trkpt lat="48.74614" lon="2.00404">
        <ele>142</ele>
        <time>2021-05-20T06:44:21.000Z</time>
      </trkpt>
      <trkpt lat="48.74613" lon="2.00403">
        <ele>142</ele>
        <time>2021-05-20T06:44:22.000Z</time>
      </trkpt>
      <trkpt lat="48.74612" lon="2.00401">
        <ele>142</ele>
        <time>2021-05-20T06:44:23.000Z</time>
      </trkpt>
      <trkpt lat="48.74611" lon="2.004">
        <ele>142</ele>
        <time>2021-05-20T06:44:24.000Z</time>
      </trkpt>
      <trkpt lat="48.74611" lon="2.00398">
        <ele>142</ele>
        <time>2021-05-20T06:44:25.000Z</time>
      </trkpt>
      <trkpt lat="48.7461" lon="2.00397">
        <ele>142</ele>
        <time>2021-05-20T06:44:26.000Z</time>
      </trkpt>
      <trkpt lat="48.74609" lon="2.00396">
        <ele>143</ele>
        <time>2021-05-20T06:44:27.000Z</time>
      </trkpt>
      <trkpt lat="48.74609" lon="2.00395">
        <ele>143</ele>
        <time>2021-05-20T06:44:28.000Z</time>
      </trkpt>
      <trkpt lat="48.74609" lon="2.00394">
        <ele>143</ele>
        <time>2021-05-20T06:44:29.000Z</time>
      </trkpt>
      <trkpt lat="48.74608" lon="2.00393">
        <ele>143</ele>
        <time>2021-05-20T06:44:30.000Z</time>
      </trkpt>
      <trkpt lat="48.74608" lon="2.00392">
        <ele>143</ele>
        <time>2021-05-20T06:44:31.000Z</time>
      </trkpt>
      <trkpt lat="48.74607" lon="2.00391">
        <ele>143</ele>
        <time>2021-05-20T06:44:32.000Z</time>
      </trkpt>
      <trkpt lat="48.74607" lon="2.00389">
        <ele>143</ele>
        <time>2021-05-20T06:44:33.000Z</time>
      </trkpt>
      <trkpt lat="48.74606" lon="2.00388">
        <ele>143</ele>
        <time>2021-05-20T06:44:34.000Z</time>
      </trkpt>
      <trkpt lat="48.74606" lon="2.00387">
        <ele>143</ele>
        <time>2021-05-20T06:44:35.000Z</time>
      </trkpt>
      <trkpt lat="48.74605" lon="2.00386">
        <ele>143</ele>
        <time>2021-05-20T06:44:36.000Z</time>
      </trkpt>
      <trkpt lat="48.74604" lon="2.00385">
        <ele>143</ele>
        <time>2021-05-20T06:44:37.000Z</time>
      </trkpt>
      <trkpt lat="48.74603" lon="2.00384">
        <ele>143</ele>
        <time>2021-05-20T06:44:38.000Z</time>
      </trkpt>
      <trkpt lat="48.74603" lon="2.00383">
        <ele>143</ele>
        <time>2021-05-20T06:44:39.000Z</time>
      </trkpt>
      <trkpt lat="48.74602" lon="2.00382">
        <ele>143</ele>
        <time>2021-05-20T06:44:40.000Z</time>
      </trkpt>
      <trkpt lat="48.74602" lon="2.00381">
        <ele>144</ele>
        <time>2021-05-20T06:44:41.000Z</time>
      </trkpt>
      <trkpt lat="48.74601" lon="2.0038">
        <ele>144</ele>
        <time>2021-05-20T06:44:42.000Z</time>
      </trkpt>
      <trkpt lat="48.74601" lon="2.00379">
        <ele>144</ele>
        <time>2021-05-20T06:44:43.000Z</time>
      </trkpt>
      <trkpt lat="48.746" lon="2.00377">
        <ele>144</ele>
        <time>2021-05-20T06:44:44.000Z</time>
      </trkpt>
      <trkpt lat="48.746" lon="2.00376">
        <ele>144</ele>
        <time>2021-05-20T06:44:45.000Z</time>
      </trkpt>
      <trkpt lat="48.74599" lon="2.00375">
        <ele>144</ele>
        <time>2021-05-20T06:44:46.000Z</time>
      </trkpt>
      <trkpt lat="48.74598" lon="2.00374">
        <ele>145</ele>
        <time>2021-05-20T06:44:47.000Z</time>
      </trkpt>
      <trkpt lat="48.74597" lon="2.00373">
        <ele>145</ele>
        <time>2021-05-20T06:44:48.000Z</time>
      </trkpt>
      <trkpt lat="48.74597" lon="2.00372">
        <ele>145</ele>
        <time>2021-05-20T06:44:49.000Z</time>
      </trkpt>
      <trkpt lat="48.74596" lon="2.00371">
        <ele>145</ele>
        <time>2021-05-20T06:44:50.000Z</time>
      </trkpt>
      <trkpt lat="48.74595" lon="2.0037">
        <ele>145</ele>
        <time>2021-05-20T06:44:51.000Z</time>
      </trkpt>
      <trkpt lat="48.74595" lon="2.00369">
        <ele>145</ele>
        <time>2021-05-20T06:44:52.000Z</time>
      </trkpt>
      <trkpt lat="48.74594" lon="2.00369">
        <ele>145</ele>
        <time>2021-05-20T06:44:53.000Z</time>
      </trkpt>
      <trkpt lat="48.74593" lon="2.00368">
        <ele>146</ele>
        <time>2021-05-20T06:44:54.000Z</time>
      </trkpt>
      <trkpt lat="48.74593" lon="2.00368">
        <ele>146</ele>
        <time>2021-05-20T06:44:55.000Z</time>
      </trkpt>
      <trkpt lat="48.74592" lon="2.00368">
        <ele>146</ele>
        <time>2021-05-20T06:44:56.000Z</time>
      </trkpt>
      <trkpt lat="48.74592" lon="2.00367">
        <ele>146</ele>
        <time>2021-05-20T06:44:57.000Z</time>
      </trkpt>
      <trkpt lat="48.74591" lon="2.00366">
        <ele>146</ele>
        <time>2021-05-20T06:44:58.000Z</time>
      </trkpt>
      <trkpt lat="48.74587" lon="2.00363">
        <ele>146</ele>
        <time>2021-05-20T06:44:59.000Z</time>
      </trkpt>
      <trkpt lat="48.74587" lon="2.00363">
        <ele>147</ele>
        <time>2021-05-20T06:45:00.000Z</time>
      </trkpt>
      <trkpt lat="48.74586" lon="2.00362">
        <ele>147</ele>
        <time>2021-05-20T06:45:01.000Z</time>
      </trkpt>
      <trkpt lat="48.74585" lon="2.00362">
        <ele>147</ele>
        <time>2021-05-20T06:45:02.000Z</time>
      </trkpt>
      <trkpt lat="48.74585" lon="2.00361">
        <ele>147</ele>
        <time>2021-05-20T06:45:03.000Z</time>
      </trkpt>
      <trkpt lat="48.74584" lon="2.00361">
        <ele>147</ele>
        <time>2021-05-20T06:45:04.000Z</time>
      </trkpt>
      <trkpt lat="48.74583" lon="2.0036">
        <ele>147</ele>
        <time>2021-05-20T06:45:05.000Z</time>
      </trkpt>
      <trkpt lat="48.74583" lon="2.0036">
        <ele>147</ele>
        <time>2021-05-20T06:45:06.000Z</time>
      </trkpt>
      <trkpt lat="48.74582" lon="2.00359">
        <ele>147</ele>
        <time>2021-05-20T06:45:07.000Z</time>
      </trkpt>
      <trkpt lat="48.74582" lon="2.00358">
        <ele>147</ele>
        <time>2021-05-20T06:45:08.000Z</time>
      </trkpt>
      <trkpt lat="48.74581" lon="2.00358">
        <ele>148</ele>
        <time>2021-05-20T06:45:09.000Z</time>
      </trkpt>
      <trkpt lat="48.74581" lon="2.00357">
        <ele>148</ele>
        <time>2021-05-20T06:45:10.000Z</time>
      </trkpt>
      <trkpt lat="48.7458" lon="2.00356">
        <ele>148</ele>
        <time>2021-05-20T06:45:11.000Z</time>
      </trkpt>
      <trkpt lat="48.74579" lon="2.00356">
        <ele>148</ele>
        <time>2021-05-20T06:45:12.000Z</time>
      </trkpt>
      <trkpt lat="48.74579" lon="2.00355">
        <ele>149</ele>
        <time>2021-05-20T06:45:13.000Z</time>
      </trkpt>
      <trkpt lat="48.74579" lon="2.00355">
        <ele>149</ele>
        <time>2021-05-20T06:45:14.000Z</time>
      </trkpt>
      <trkpt lat="48.74578" lon="2.00354">
        <ele>149</ele>
        <time>2021-05-20T06:45:15.000Z</time>
      </trkpt>
      <trkpt lat="48.74578" lon="2.00353">
        <ele>149</ele>
        <time>2021-05-20T06:45:16.000Z</time>
      </trkpt>
      <trkpt lat="48.74577" lon="2.00352">
        <ele>150</ele>
        <time>2021-05-20T06:45:17.000Z</time>
      </trkpt>
      <trkpt lat="48.74577" lon="2.00351">
        <ele>150</ele>
        <time>2021-05-20T06:45:18.000Z</time>
      </trkpt>
      <trkpt lat="48.74577" lon="2.00351">
        <ele>150</ele>
        <time>2021-05-20T06:45:19.000Z</time>
      </trkpt>
      <trkpt lat="48.74576" lon="2.0035">
        <ele>150</ele>
        <time>2021-05-20T06:45:20.000Z</time>
      </trkpt>
      <trkpt lat="48.74576" lon="2.0035">
        <ele>150</ele>
        <time>2021-05-20T06:45:21.000Z</time>
      </trkpt>
      <trkpt lat="48.74576" lon="2.00348">
        <ele>151</ele>
        <time>2021-05-20T06:45:22.000Z</time>
      </trkpt>
      <trkpt lat="48.74575" lon="2.00347">
        <ele>151</ele>
        <time>2021-05-20T06:45:23.000Z</time>
      </trkpt>
      <trkpt lat="48.74575" lon="2.00346">
        <ele>151</ele>
        <time>2021-05-20T06:45:24.000Z</time>
      </trkpt>
      <trkpt lat="48.74575" lon="2.00346">
        <ele>152</ele>
        <time>2021-05-20T06:45:25.000Z</time>
      </trkpt>
      <trkpt lat="48.74574" lon="2.00345">
        <ele>152</ele>
        <time>2021-05-20T06:45:26.000Z</time>
      </trkpt>
      <trkpt lat="48.74574" lon="2.00344">
        <ele>152</ele>
        <time>2021-05-20T06:45:27.000Z</time>
      </trkpt>
      <trkpt lat="48.74574" lon="2.00344">
        <ele>152</ele>
        <time>2021-05-20T06:45:28.000Z</time>
      </trkpt>
      <trkpt lat="48.74573" lon="2.00343">
        <ele>152</ele>
        <time>2021-05-20T06:45:29.000Z</time>
      </trkpt>
      <trkpt lat="48.74573" lon="2.00342">
        <ele>153</ele>
        <time>2021-05-20T06:45:30.000Z</time>
      </trkpt>
      <trkpt lat="48.74573" lon="2.00341">
        <ele>153</ele>
        <time>2021-05-20T06:45:31.000Z</time>
      </trkpt>
      <trkpt lat="48.74572" lon="2.0034">
        <ele>153</ele>
        <time>2021-05-20T06:45:32.000Z</time>
      </trkpt>
      <trkpt lat="48.74572" lon="2.0034">
        <ele>153</ele>
        <time>2021-05-20T06:45:33.000Z</time>
      </trkpt>
      <trkpt lat="48.74572" lon="2.00339">
        <ele>153</ele>
        <time>2021-05-20T06:45:34.000Z</time>
      </trkpt>
      <trkpt lat="48.74571" lon="2.00338">
        <ele>153</ele>
        <time>2021-05-20T06:45:35.000Z</time>
      </trkpt>
      <trkpt lat="48.74571" lon="2.00338">
        <ele>153</ele>
        <time>2021-05-20T06:45:36.000Z</time>
      </trkpt>
      <trkpt lat="48.7457" lon="2.00337">
        <ele>154</ele>
        <time>2021-05-20T06:45:37.000Z</time>
      </trkpt>
      <trkpt lat="48.7457" lon="2.00336">
        <ele>154</ele>
        <time>2021-05-20T06:45:38.000Z</time>
      </trkpt>
      <trkpt lat="48.7457" lon="2.00336">
        <ele>154</ele>
        <time>2021-05-20T06:45:39.000Z</time>
      </trkpt>
      <trkpt lat="48.74569" lon="2.00335">
        <ele>154</ele>
        <time>2021-05-20T06:45:40.000Z</time>
      </trkpt>
      <trkpt lat="48.74569" lon="2.00335">
        <ele>154</ele>
        <time>2021-05-20T06:45:41.000Z</time>
      </trkpt>
      <trkpt lat="48.74568" lon="2.00334">
        <ele>154</ele>
        <time>2021-05-20T06:45:42.000Z</time>
      </trkpt>
      <trkpt lat="48.74567" lon="2.00333">
        <ele>154</ele>
        <time>2021-05-20T06:45:43.000Z</time>
      </trkpt>
      <trkpt lat="48.74567" lon="2.00332">
        <ele>155</ele>
        <time>2021-05-20T06:45:44.000Z</time>
      </trkpt>
      <trkpt lat="48.74566" lon="2.00331">
        <ele>155</ele>
        <time>2021-05-20T06:45:45.000Z</time>
      </trkpt>
      <trkpt lat="48.74566" lon="2.00331">
        <ele>155</ele>
        <time>2021-05-20T06:45:46.000Z</time>
      </trkpt>
      <trkpt lat="48.74565" lon="2.0033">
        <ele>155</ele>
        <time>2021-05-20T06:45:47.000Z</time>
      </trkpt>
      <trkpt lat="48.74565" lon="2.00329">
        <ele>155</ele>
        <time>2021-05-20T06:45:48.000Z</time>
      </trkpt>
      <trkpt lat="48.74564" lon="2.00328">
        <ele>156</ele>
        <time>2021-05-20T06:45:49.000Z</time>
      </trkpt>
      <trkpt lat="48.74563" lon="2.00328">
        <ele>156</ele>
        <time>2021-05-20T06:45:50.000Z</time>
      </trkpt>
      <trkpt lat="48.74562" lon="2.00327">
        <ele>156</ele>
        <time>2021-05-20T06:45:51.000Z</time>
      </trkpt>
      <trkpt lat="48.74562" lon="2.00326">
        <ele>156</ele>
        <time>2021-05-20T06:45:52.000Z</time>
      </trkpt>
      <trkpt lat="48.74561" lon="2.00325">
        <ele>157</ele>
        <time>2021-05-20T06:45:53.000Z</time>
      </trkpt>
      <trkpt lat="48.7456" lon="2.00324">
        <ele>157</ele>
        <time>2021-05-20T06:45:54.000Z</time>
      </trkpt>
      <trkpt lat="48.74559" lon="2.00323">
        <ele>157</ele>
        <time>2021-05-20T06:45:55.000Z</time>
      </trkpt>
      <trkpt lat="48.74558" lon="2.00323">
        <ele>157</ele>
        <time>2021-05-20T06:45:56.000Z</time>
      </trkpt>
      <trkpt lat="48.74557" lon="2.00322">
        <ele>157</ele>
        <time>2021-05-20T06:45:57.000Z</time>
      </trkpt>
      <trkpt lat="48.74556" lon="2.00321">
        <ele>157</ele>
        <time>2021-05-20T06:45:58.000Z</time>
      </trkpt>
      <trkpt lat="48.74556" lon="2.00321">
        <ele>158</ele>
        <time>2021-05-20T06:45:59.000Z</time>
      </trkpt>
      <trkpt lat="48.74555" lon="2.00321">
        <ele>158</ele>
        <time>2021-05-20T06:46:00.000Z</time>
      </trkpt>
      <trkpt lat="48.74554" lon="2.0032">
        <ele>158</ele>
        <time>2021-05-20T06:46:01.000Z</time>
      </trkpt>
      <trkpt lat="48.74554" lon="2.0032">
        <ele>158</ele>
        <time>2021-05-20T06:46:02.000Z</time>
      </trkpt>
      <trkpt lat="48.74554" lon="2.00319">
        <ele>158</ele>
        <time>2021-05-20T06:46:03.000Z</time>
      </trkpt>
      <trkpt lat="48.74553" lon="2.00318">
        <ele>158</ele>
        <time>2021-05-20T06:46:04.000Z</time>
      </trkpt>
      <trkpt lat="48.74553" lon="2.00317">
        <ele>159</ele>
        <time>2021-05-20T06:46:05.000Z</time>
      </trkpt>
      <trkpt lat="48.74552" lon="2.00316">
        <ele>159</ele>
        <time>2021-05-20T06:46:06.000Z</time>
      </trkpt>
      <trkpt lat="48.74551" lon="2.00315">
        <ele>159</ele>
        <time>2021-05-20T06:46:07.000Z</time>
      </trkpt>
      <trkpt lat="48.74551" lon="2.00315">
        <ele>159</ele>
        <time>2021-05-20T06:46:08.000Z</time>
      </trkpt>
      <trkpt lat="48.74551" lon="2.00314">
        <ele>159</ele>
        <time>2021-05-20T06:46:09.000Z</time>
      </trkpt>
      <trkpt lat="48.74549" lon="2.00312">
        <ele>160</ele>
        <time>2021-05-20T06:46:10.000Z</time>
      </trkpt>
      <trkpt lat="48.74548" lon="2.00311">
        <ele>160</ele>
        <time>2021-05-20T06:46:11.000Z</time>
      </trkpt>
      <trkpt lat="48.74548" lon="2.0031">
        <ele>160</ele>
        <time>2021-05-20T06:46:12.000Z</time>
      </trkpt>
      <trkpt lat="48.74547" lon="2.00309">
        <ele>160</ele>
        <time>2021-05-20T06:46:13.000Z</time>
      </trkpt>
      <trkpt lat="48.74546" lon="2.00308">
        <ele>160</ele>
        <time>2021-05-20T06:46:14.000Z</time>
      </trkpt>
      <trkpt lat="48.74546" lon="2.00307">
        <ele>160</ele>
        <time>2021-05-20T06:46:15.000Z</time>
      </trkpt>
      <trkpt lat="48.74545" lon="2.00306">
        <ele>160</ele>
        <time>2021-05-20T06:46:16.000Z</time>
      </trkpt>
      <trkpt lat="48.74545" lon="2.00305">
        <ele>160</ele>
        <time>2021-05-20T06:46:17.000Z</time>
      </trkpt>
      <trkpt lat="48.74545" lon="2.00305">
        <ele>160</ele>
        <time>2021-05-20T06:46:18.000Z</time>
      </trkpt>
      <trkpt lat="48.74533" lon="2.00296">
        <ele>168</ele>
        <time>2021-05-20T06:46:19.000Z</time>
      </trkpt>
      <trkpt lat="48.74534" lon="2.00297">
        <ele>168</ele>
        <time>2021-05-20T06:46:20.000Z</time>
      </trkpt>
      <trkpt lat="48.74535" lon="2.00296">
        <ele>168</ele>
        <time>2021-05-20T06:46:21.000Z</time>
      </trkpt>
      <trkpt lat="48.74536" lon="2.00296">
        <ele>168</ele>
        <time>2021-05-20T06:46:22.000Z</time>
      </trkpt>
      <trkpt lat="48.74537" lon="2.00296">
        <ele>168</ele>
        <time>2021-05-20T06:46:23.000Z</time>
      </trkpt>
      <trkpt lat="48.74537" lon="2.00296">
        <ele>168</ele>
        <time>2021-05-20T06:46:24.000Z</time>
      </trkpt>
      <trkpt lat="48.74538" lon="2.00296">
        <ele>168</ele>
        <time>2021-05-20T06:46:25.000Z</time>
      </trkpt>
      <trkpt lat="48.74539" lon="2.00296">
        <ele>168</ele>
        <time>2021-05-20T06:46:26.000Z</time>
      </trkpt>
      <trkpt lat="48.74539" lon="2.00296">
        <ele>168</ele>
        <time>2021-05-20T06:46:27.000Z</time>
      </trkpt>
      <trkpt lat="48.74539" lon="2.00296">
        <ele>168</ele>
        <time>2021-05-20T06:46:28.000Z</time>
      </trkpt>
      <trkpt lat="48.74539" lon="2.00296">
        <ele>167</ele>
        <time>2021-05-20T06:46:29.000Z</time>
      </trkpt>
      <trkpt lat="48.74536" lon="2.00294">
        <ele>167</ele>
        <time>2021-05-20T06:46:30.000Z</time>
      </trkpt>
      <trkpt lat="48.74536" lon="2.00293">
        <ele>167</ele>
        <time>2021-05-20T06:46:31.000Z</time>
      </trkpt>
      <trkpt lat="48.74535" lon="2.00293">
        <ele>167</ele>
        <time>2021-05-20T06:46:32.000Z</time>
      </trkpt>
      <trkpt lat="48.74535" lon="2.00292">
        <ele>167</ele>
        <time>2021-05-20T06:46:33.000Z</time>
      </trkpt>
      <trkpt lat="48.74534" lon="2.00291">
        <ele>167</ele>
        <time>2021-05-20T06:46:34.000Z</time>
      </trkpt>
      <trkpt lat="48.74533" lon="2.0029">
        <ele>167</ele>
        <time>2021-05-20T06:46:35.000Z</time>
      </trkpt>
      <trkpt lat="48.74533" lon="2.00289">
        <ele>167</ele>
        <time>2021-05-20T06:46:36.000Z</time>
      </trkpt>
      <trkpt lat="48.74532" lon="2.00288">
        <ele>167</ele>
        <time>2021-05-20T06:46:37.000Z</time>
      </trkpt>
      <trkpt lat="48.74532" lon="2.00287">
        <ele>166</ele>
        <time>2021-05-20T06:46:38.000Z</time>
      </trkpt>
      <trkpt lat="48.74531" lon="2.00285">
        <ele>166</ele>
        <time>2021-05-20T06:46:39.000Z</time>
      </trkpt>
      <trkpt lat="48.7453" lon="2.00284">
        <ele>166</ele>
        <time>2021-05-20T06:46:40.000Z</time>
      </trkpt>
      <trkpt lat="48.74529" lon="2.00283">
        <ele>166</ele>
        <time>2021-05-20T06:46:41.000Z</time>
      </trkpt>
      <trkpt lat="48.74528" lon="2.00282">
        <ele>166</ele>
        <time>2021-05-20T06:46:42.000Z</time>
      </trkpt>
      <trkpt lat="48.74527" lon="2.00281">
        <ele>166</ele>
        <time>2021-05-20T06:46:43.000Z</time>
      </trkpt>
      <trkpt lat="48.74527" lon="2.0028">
        <ele>166</ele>
        <time>2021-05-20T06:46:44.000Z</time>
      </trkpt>
      <trkpt lat="48.74527" lon="2.00279">
        <ele>166</ele>
        <time>2021-05-20T06:46:45.000Z</time>
      </trkpt>
      <trkpt lat="48.74526" lon="2.00278">
        <ele>166</ele>
        <time>2021-05-20T06:46:46.000Z</time>
      </trkpt>
      <trkpt lat="48.74525" lon="2.00276">
        <ele>166</ele>
        <time>2021-05-20T06:46:47.000Z</time>
      </trkpt>
      <trkpt lat="48.74525" lon="2.00276">
        <ele>166</ele>
        <time>2021-05-20T06:46:48.000Z</time>
      </trkpt>
      <trkpt lat="48.74524" lon="2.00275">
        <ele>166</ele>
        <time>2021-05-20T06:46:49.000Z</time>
      </trkpt>
      <trkpt lat="48.74524" lon="2.00274">
        <ele>166</ele>
        <time>2021-05-20T06:46:50.000Z</time>
      </trkpt>
      <trkpt lat="48.74523" lon="2.00273">
        <ele>166</ele>
        <time>2021-05-20T06:46:51.000Z</time>
      </trkpt>
      <trkpt lat="48.74522" lon="2.00272">
        <ele>166</ele>
        <time>2021-05-20T06:46:52.000Z</time>
      </trkpt>
      <trkpt lat="48.74522" lon="2.00271">
        <ele>166</ele>
        <time>2021-05-20T06:46:53.000Z</time>
      </trkpt>
      <trkpt lat="48.74521" lon="2.0027">
        <ele>167</ele>
        <time>2021-05-20T06:46:54.000Z</time>
      </trkpt>
      <trkpt lat="48.74519" lon="2.00268">
        <ele>167</ele>
        <time>2021-05-20T06:46:55.000Z</time>
      </trkpt>
      <trkpt lat="48.74518" lon="2.00267">
        <ele>167</ele>
        <time>2021-05-20T06:46:56.000Z</time>
      </trkpt>
      <trkpt lat="48.74517" lon="2.00267">
        <ele>167</ele>
        <time>2021-05-20T06:46:57.000Z</time>
      </trkpt>
      <trkpt lat="48.74517" lon="2.00266">
        <ele>167</ele>
        <time>2021-05-20T06:46:58.000Z</time>
      </trkpt>
      <trkpt lat="48.74516" lon="2.00265">
        <ele>167</ele>
        <time>2021-05-20T06:46:59.000Z</time>
      </trkpt>
      <trkpt lat="48.74515" lon="2.00263">
        <ele>167</ele>
        <time>2021-05-20T06:47:00.000Z</time>
      </trkpt>
      <trkpt lat="48.74514" lon="2.00262">
        <ele>168</ele>
        <time>2021-05-20T06:47:01.000Z</time>
      </trkpt>
      <trkpt lat="48.74514" lon="2.00261">
        <ele>168</ele>
        <time>2021-05-20T06:47:02.000Z</time>
      </trkpt>
      <trkpt lat="48.74513" lon="2.0026">
        <ele>167</ele>
        <time>2021-05-20T06:47:03.000Z</time>
      </trkpt>
      <trkpt lat="48.74512" lon="2.00259">
        <ele>167</ele>
        <time>2021-05-20T06:47:04.000Z</time>
      </trkpt>
      <trkpt lat="48.74511" lon="2.00257">
        <ele>167</ele>
        <time>2021-05-20T06:47:05.000Z</time>
      </trkpt>
      <trkpt lat="48.7451" lon="2.00256">
        <ele>167</ele>
        <time>2021-05-20T06:47:06.000Z</time>
      </trkpt>
      <trkpt lat="48.7451" lon="2.00254">
        <ele>167</ele>
        <time>2021-05-20T06:47:07.000Z</time>
      </trkpt>
      <trkpt lat="48.74509" lon="2.00253">
        <ele>167</ele>
        <time>2021-05-20T06:47:08.000Z</time>
      </trkpt>
      <trkpt lat="48.74508" lon="2.00252">
        <ele>167</ele>
        <time>2021-05-20T06:47:09.000Z</time>
      </trkpt>
      <trkpt lat="48.74507" lon="2.00251">
        <ele>167</ele>
        <time>2021-05-20T06:47:10.000Z</time>
      </trkpt>
      <trkpt lat="48.74506" lon="2.0025">
        <ele>167</ele>
        <time>2021-05-20T06:47:11.000Z</time>
      </trkpt>
      <trkpt lat="48.74505" lon="2.00249">
        <ele>167</ele>
        <time>2021-05-20T06:47:12.000Z</time>
      </trkpt>
      <trkpt lat="48.74504" lon="2.00248">
        <ele>168</ele>
        <time>2021-05-20T06:47:13.000Z</time>
      </trkpt>
      <trkpt lat="48.74503" lon="2.00248">
        <ele>168</ele>
        <time>2021-05-20T06:47:14.000Z</time>
      </trkpt>
      <trkpt lat="48.74502" lon="2.00247">
        <ele>168</ele>
        <time>2021-05-20T06:47:15.000Z</time>
      </trkpt>
      <trkpt lat="48.74501" lon="2.00246">
        <ele>168</ele>
        <time>2021-05-20T06:47:16.000Z</time>
      </trkpt>
      <trkpt lat="48.745" lon="2.00245">
        <ele>168</ele>
        <time>2021-05-20T06:47:17.000Z</time>
      </trkpt>
      <trkpt lat="48.74499" lon="2.00243">
        <ele>168</ele>
        <time>2021-05-20T06:47:18.000Z</time>
      </trkpt>
      <trkpt lat="48.74498" lon="2.00242">
        <ele>168</ele>
        <time>2021-05-20T06:47:19.000Z</time>
      </trkpt>
      <trkpt lat="48.74497" lon="2.00241">
        <ele>169</ele>
        <time>2021-05-20T06:47:20.000Z</time>
      </trkpt>
      <trkpt lat="48.74497" lon="2.0024">
        <ele>169</ele>
        <time>2021-05-20T06:47:21.000Z</time>
      </trkpt>
      <trkpt lat="48.74496" lon="2.00239">
        <ele>169</ele>
        <time>2021-05-20T06:47:22.000Z</time>
      </trkpt>
      <trkpt lat="48.74495" lon="2.00238">
        <ele>169</ele>
        <time>2021-05-20T06:47:23.000Z</time>
      </trkpt>
      <trkpt lat="48.74495" lon="2.00236">
        <ele>169</ele>
        <time>2021-05-20T06:47:24.000Z</time>
      </trkpt>
      <trkpt lat="48.74494" lon="2.00235">
        <ele>169</ele>
        <time>2021-05-20T06:47:25.000Z</time>
      </trkpt>
      <trkpt lat="48.74493" lon="2.00234">
        <ele>169</ele>
        <time>2021-05-20T06:47:26.000Z</time>
      </trkpt>
      <trkpt lat="48.74492" lon="2.00233">
        <ele>169</ele>
        <time>2021-05-20T06:47:27.000Z</time>
      </trkpt>
      <trkpt lat="48.74491" lon="2.00232">
        <ele>170</ele>
        <time>2021-05-20T06:47:28.000Z</time>
      </trkpt>
      <trkpt lat="48.74491" lon="2.00231">
        <ele>170</ele>
        <time>2021-05-20T06:47:29.000Z</time>
      </trkpt>
      <trkpt lat="48.74491" lon="2.00229">
        <ele>170</ele>
        <time>2021-05-20T06:47:30.000Z</time>
      </trkpt>
      <trkpt lat="48.7449" lon="2.00229">
        <ele>169</ele>
        <time>2021-05-20T06:47:31.000Z</time>
      </trkpt>
      <trkpt lat="48.74489" lon="2.00228">
        <ele>169</ele>
        <time>2021-05-20T06:47:32.000Z</time>
      </trkpt>
      <trkpt lat="48.74489" lon="2.00227">
        <ele>169</ele>
        <time>2021-05-20T06:47:33.000Z</time>
      </trkpt>
      <trkpt lat="48.74488" lon="2.00225">
        <ele>169</ele>
        <time>2021-05-20T06:47:34.000Z</time>
      </trkpt>
      <trkpt lat="48.74487" lon="2.00224">
        <ele>169</ele>
        <time>2021-05-20T06:47:35.000Z</time>
      </trkpt>
      <trkpt lat="48.74486" lon="2.00222">
        <ele>169</ele>
        <time>2021-05-20T06:47:36.000Z</time>
      </trkpt>
      <trkpt lat="48.74485" lon="2.00221">
        <ele>169</ele>
        <time>2021-05-20T06:47:37.000Z</time>
      </trkpt>
      <trkpt lat="48.74484" lon="2.00219">
        <ele>169</ele>
        <time>2021-05-20T06:47:38.000Z</time>
      </trkpt>
      <trkpt lat="48.74483" lon="2.00218">
        <ele>169</ele>
        <time>2021-05-20T06:47:39.000Z</time>
      </trkpt>
      <trkpt lat="48.74482" lon="2.00216">
        <ele>168</ele>
        <time>2021-05-20T06:47:40.000Z</time>
      </trkpt>
      <trkpt lat="48.74481" lon="2.00214">
        <ele>168</ele>
        <time>2021-05-20T06:47:41.000Z</time>
      </trkpt>
      <trkpt lat="48.7448" lon="2.00212">
        <ele>168</ele>
        <time>2021-05-20T06:47:42.000Z</time>
      </trkpt>
      <trkpt lat="48.74479" lon="2.00211">
        <ele>168</ele>
        <time>2021-05-20T06:47:43.000Z</time>
      </trkpt>
      <trkpt lat="48.74478" lon="2.0021">
        <ele>168</ele>
        <time>2021-05-20T06:47:44.000Z</time>
      </trkpt>
      <trkpt lat="48.74477" lon="2.00208">
        <ele>168</ele>
        <time>2021-05-20T06:47:45.000Z</time>
      </trkpt>
      <trkpt lat="48.74477" lon="2.00207">
        <ele>168</ele>
        <time>2021-05-20T06:47:46.000Z</time>
      </trkpt>
      <trkpt lat="48.74476" lon="2.00206">
        <ele>168</ele>
        <time>2021-05-20T06:47:47.000Z</time>
      </trkpt>
      <trkpt lat="48.74476" lon="2.00205">
        <ele>168</ele>
        <time>2021-05-20T06:47:48.000Z</time>
      </trkpt>
      <trkpt lat="48.74475" lon="2.00204">
        <ele>168</ele>
        <time>2021-05-20T06:47:49.000Z</time>
      </trkpt>
      <trkpt lat="48.74474" lon="2.00202">
        <ele>168</ele>
        <time>2021-05-20T06:47:50.000Z</time>
      </trkpt>
      <trkpt lat="48.74473" lon="2.00201">
        <ele>168</ele>
        <time>2021-05-20T06:47:51.000Z</time>
      </trkpt>
      <trkpt lat="48.74472" lon="2.00199">
        <ele>168</ele>
        <time>2021-05-20T06:47:52.000Z</time>
      </trkpt>
      <trkpt lat="48.74471" lon="2.00198">
        <ele>168</ele>
        <time>2021-05-20T06:47:53.000Z</time>
      </trkpt>
      <trkpt lat="48.7447" lon="2.00197">
        <ele>168</ele>
        <time>2021-05-20T06:47:54.000Z</time>
      </trkpt>
      <trkpt lat="48.74469" lon="2.00196">
        <ele>168</ele>
        <time>2021-05-20T06:47:55.000Z</time>
      </trkpt>
      <trkpt lat="48.74468" lon="2.00195">
        <ele>168</ele>
        <time>2021-05-20T06:47:56.000Z</time>
      </trkpt>
      <trkpt lat="48.74468" lon="2.00193">
        <ele>169</ele>
        <time>2021-05-20T06:47:57.000Z</time>
      </trkpt>
      <trkpt lat="48.74467" lon="2.00192">
        <ele>169</ele>
        <time>2021-05-20T06:47:58.000Z</time>
      </trkpt>
      <trkpt lat="48.74466" lon="2.00191">
        <ele>169</ele>
        <time>2021-05-20T06:47:59.000Z</time>
      </trkpt>
      <trkpt lat="48.74465" lon="2.0019">
        <ele>169</ele>
        <time>2021-05-20T06:48:00.000Z</time>
      </trkpt>
      <trkpt lat="48.74464" lon="2.00189">
        <ele>169</ele>
        <time>2021-05-20T06:48:01.000Z</time>
      </trkpt>
      <trkpt lat="48.74463" lon="2.00188">
        <ele>170</ele>
        <time>2021-05-20T06:48:02.000Z</time>
      </trkpt>
      <trkpt lat="48.74462" lon="2.00187">
        <ele>170</ele>
        <time>2021-05-20T06:48:03.000Z</time>
      </trkpt>
      <trkpt lat="48.74461" lon="2.00186">
        <ele>170</ele>
        <time>2021-05-20T06:48:04.000Z</time>
      </trkpt>
      <trkpt lat="48.7446" lon="2.00185">
        <ele>170</ele>
        <time>2021-05-20T06:48:05.000Z</time>
      </trkpt>
      <trkpt lat="48.74459" lon="2.00184">
        <ele>170</ele>
        <time>2021-05-20T06:48:06.000Z</time>
      </trkpt>
      <trkpt lat="48.74459" lon="2.00183">
        <ele>170</ele>
        <time>2021-05-20T06:48:07.000Z</time>
      </trkpt>
      <trkpt lat="48.74458" lon="2.00181">
        <ele>170</ele>
        <time>2021-05-20T06:48:08.000Z</time>
      </trkpt>
      <trkpt lat="48.74457" lon="2.0018">
        <ele>170</ele>
        <time>2021-05-20T06:48:09.000Z</time>
      </trkpt>
      <trkpt lat="48.74456" lon="2.00179">
        <ele>170</ele>
        <time>2021-05-20T06:48:10.000Z</time>
      </trkpt>
      <trkpt lat="48.74455" lon="2.00178">
        <ele>170</ele>
        <time>2021-05-20T06:48:11.000Z</time>
      </trkpt>
      <trkpt lat="48.74454" lon="2.00176">
        <ele>170</ele>
        <time>2021-05-20T06:48:12.000Z</time>
      </trkpt>
      <trkpt lat="48.74454" lon="2.00175">
        <ele>170</ele>
        <time>2021-05-20T06:48:13.000Z</time>
      </trkpt>
      <trkpt lat="48.74453" lon="2.00174">
        <ele>171</ele>
        <time>2021-05-20T06:48:14.000Z</time>
      </trkpt>
      <trkpt lat="48.74451" lon="2.00173">
        <ele>171</ele>
        <time>2021-05-20T06:48:15.000Z</time>
      </trkpt>
      <trkpt lat="48.7445" lon="2.00172">
        <ele>171</ele>
        <time>2021-05-20T06:48:16.000Z</time>
      </trkpt>
      <trkpt lat="48.74449" lon="2.0017">
        <ele>171</ele>
        <time>2021-05-20T06:48:17.000Z</time>
      </trkpt>
      <trkpt lat="48.74448" lon="2.00169">
        <ele>171</ele>
        <time>2021-05-20T06:48:18.000Z</time>
      </trkpt>
      <trkpt lat="48.74447" lon="2.00168">
        <ele>171</ele>
        <time>2021-05-20T06:48:19.000Z</time>
      </trkpt>
      <trkpt lat="48.74446" lon="2.00166">
        <ele>171</ele>
        <time>2021-05-20T06:48:20.000Z</time>
      </trkpt>
      <trkpt lat="48.74445" lon="2.00165">
        <ele>171</ele>
        <time>2021-05-20T06:48:21.000Z</time>
      </trkpt>
      <trkpt lat="48.74444" lon="2.00163">
        <ele>171</ele>
        <time>2021-05-20T06:48:22.000Z</time>
      </trkpt>
      <trkpt lat="48.74442" lon="2.00162">
        <ele>171</ele>
        <time>2021-05-20T06:48:23.000Z</time>
      </trkpt>
      <trkpt lat="48.74441" lon="2.00161">
        <ele>171</ele>
        <time>2021-05-20T06:48:24.000Z</time>
      </trkpt>
      <trkpt lat="48.7444" lon="2.0016">
        <ele>170</ele>
        <time>2021-05-20T06:48:25.000Z</time>
      </trkpt>
      <trkpt lat="48.74439" lon="2.00159">
        <ele>170</ele>
        <time>2021-05-20T06:48:26.000Z</time>
      </trkpt>
      <trkpt lat="48.74439" lon="2.00158">
        <ele>170</ele>
        <time>2021-05-20T06:48:27.000Z</time>
      </trkpt>
      <trkpt lat="48.74438" lon="2.00157">
        <ele>170</ele>
        <time>2021-05-20T06:48:28.000Z</time>
      </trkpt>
      <trkpt lat="48.74437" lon="2.00156">
        <ele>170</ele>
        <time>2021-05-20T06:48:29.000Z</time>
      </trkpt>
      <trkpt lat="48.74436" lon="2.00154">
        <ele>170</ele>
        <time>2021-05-20T06:48:30.000Z</time>
      </trkpt>
      <trkpt lat="48.74435" lon="2.00152">
        <ele>170</ele>
        <time>2021-05-20T06:48:31.000Z</time>
      </trkpt>
      <trkpt lat="48.74434" lon="2.00151">
        <ele>170</ele>
        <time>2021-05-20T06:48:32.000Z</time>
      </trkpt>
      <trkpt lat="48.74433" lon="2.0015">
        <ele>170</ele>
        <time>2021-05-20T06:48:33.000Z</time>
      </trkpt>
      <trkpt lat="48.74432" lon="2.00149">
        <ele>170</ele>
        <time>2021-05-20T06:48:34.000Z</time>
      </trkpt>
      <trkpt lat="48.7443" lon="2.00147">
        <ele>170</ele>
        <time>2021-05-20T06:48:35.000Z</time>
      </trkpt>
      <trkpt lat="48.74429" lon="2.00145">
        <ele>170</ele>
        <time>2021-05-20T06:48:36.000Z</time>
      </trkpt>
      <trkpt lat="48.74428" lon="2.00144">
        <ele>170</ele>
        <time>2021-05-20T06:48:37.000Z</time>
      </trkpt>
      <trkpt lat="48.74427" lon="2.00143">
        <ele>170</ele>
        <time>2021-05-20T06:48:38.000Z</time>
      </trkpt>
      <trkpt lat="48.74426" lon="2.00142">
        <ele>170</ele>
        <time>2021-05-20T06:48:39.000Z</time>
      </trkpt>
      <trkpt lat="48.74425" lon="2.0014">
        <ele>170</ele>
        <time>2021-05-20T06:48:40.000Z</time>
      </trkpt>
      <trkpt lat="48.74424" lon="2.00139">
        <ele>170</ele>
        <time>2021-05-20T06:48:41.000Z</time>
      </trkpt>
      <trkpt lat="48.74423" lon="2.00138">
        <ele>170</ele>
        <time>2021-05-20T06:48:42.000Z</time>
      </trkpt>
      <trkpt lat="48.74422" lon="2.00136">
        <ele>170</ele>
        <time>2021-05-20T06:48:43.000Z</time>
      </trkpt>
      <trkpt lat="48.74421" lon="2.00135">
        <ele>170</ele>
        <time>2021-05-20T06:48:44.000Z</time>
      </trkpt>
      <trkpt lat="48.7442" lon="2.00134">
        <ele>170</ele>
        <time>2021-05-20T06:48:45.000Z</time>
      </trkpt>
      <trkpt lat="48.74419" lon="2.00133">
        <ele>170</ele>
        <time>2021-05-20T06:48:46.000Z</time>
      </trkpt>
      <trkpt lat="48.74418" lon="2.00132">
        <ele>170</ele>
        <time>2021-05-20T06:48:47.000Z</time>
      </trkpt>
      <trkpt lat="48.74417" lon="2.00131">
        <ele>170</ele>
        <time>2021-05-20T06:48:48.000Z</time>
      </trkpt>
      <trkpt lat="48.74416" lon="2.0013">
        <ele>170</ele>
        <time>2021-05-20T06:48:49.000Z</time>
      </trkpt>
      <trkpt lat="48.74416" lon="2.00128">
        <ele>170</ele>
        <time>2021-05-20T06:48:50.000Z</time>
      </trkpt>
      <trkpt lat="48.74415" lon="2.00127">
        <ele>170</ele>
        <time>2021-05-20T06:48:51.000Z</time>
      </trkpt>
      <trkpt lat="48.74414" lon="2.00125">
        <ele>170</ele>
        <time>2021-05-20T06:48:52.000Z</time>
      </trkpt>
      <trkpt lat="48.74414" lon="2.00123">
        <ele>170</ele>
        <time>2021-05-20T06:48:53.000Z</time>
      </trkpt>
      <trkpt lat="48.74413" lon="2.00122">
        <ele>170</ele>
        <time>2021-05-20T06:48:54.000Z</time>
      </trkpt>
      <trkpt lat="48.74412" lon="2.00121">
        <ele>170</ele>
        <time>2021-05-20T06:48:55.000Z</time>
      </trkpt>
      <trkpt lat="48.74412" lon="2.0012">
        <ele>170</ele>
        <time>2021-05-20T06:48:56.000Z</time>
      </trkpt>
      <trkpt lat="48.74411" lon="2.00119">
        <ele>171</ele>
        <time>2021-05-20T06:48:57.000Z</time>
      </trkpt>
      <trkpt lat="48.74411" lon="2.00118">
        <ele>171</ele>
        <time>2021-05-20T06:48:58.000Z</time>
      </trkpt>
      <trkpt lat="48.7441" lon="2.00117">
        <ele>171</ele>
        <time>2021-05-20T06:48:59.000Z</time>
      </trkpt>
      <trkpt lat="48.74409" lon="2.00116">
        <ele>171</ele>
        <time>2021-05-20T06:49:00.000Z</time>
      </trkpt>
      <trkpt lat="48.74409" lon="2.00115">
        <ele>171</ele>
        <time>2021-05-20T06:49:01.000Z</time>
      </trkpt>
      <trkpt lat="48.74408" lon="2.00114">
        <ele>172</ele>
        <time>2021-05-20T06:49:02.000Z</time>
      </trkpt>
      <trkpt lat="48.74407" lon="2.00113">
        <ele>172</ele>
        <time>2021-05-20T06:49:03.000Z</time>
      </trkpt>
      <trkpt lat="48.74406" lon="2.00112">
        <ele>172</ele>
        <time>2021-05-20T06:49:04.000Z</time>
      </trkpt>
      <trkpt lat="48.74405" lon="2.00111">
        <ele>172</ele>
        <time>2021-05-20T06:49:05.000Z</time>
      </trkpt>
      <trkpt lat="48.74404" lon="2.0011">
        <ele>172</ele>
        <time>2021-05-20T06:49:06.000Z</time>
      </trkpt>
      <trkpt lat="48.74404" lon="2.00108">
        <ele>172</ele>
        <time>2021-05-20T06:49:07.000Z</time>
      </trkpt>
      <trkpt lat="48.74403" lon="2.00107">
        <ele>173</ele>
        <time>2021-05-20T06:49:08.000Z</time>
      </trkpt>
      <trkpt lat="48.74402" lon="2.00106">
        <ele>173</ele>
        <time>2021-05-20T06:49:09.000Z</time>
      </trkpt>
      <trkpt lat="48.74401" lon="2.00106">
        <ele>173</ele>
        <time>2021-05-20T06:49:10.000Z</time>
      </trkpt>
      <trkpt lat="48.744" lon="2.00105">
        <ele>173</ele>
        <time>2021-05-20T06:49:11.000Z</time>
      </trkpt>
      <trkpt lat="48.74399" lon="2.00104">
        <ele>173</ele>
        <time>2021-05-20T06:49:12.000Z</time>
      </trkpt>
      <trkpt lat="48.74398" lon="2.00102">
        <ele>173</ele>
        <time>2021-05-20T06:49:13.000Z</time>
      </trkpt>
      <trkpt lat="48.74397" lon="2.001">
        <ele>173</ele>
        <time>2021-05-20T06:49:14.000Z</time>
      </trkpt>
      <trkpt lat="48.74396" lon="2.00099">
        <ele>173</ele>
        <time>2021-05-20T06:49:15.000Z</time>
      </trkpt>
      <trkpt lat="48.74395" lon="2.00098">
        <ele>173</ele>
        <time>2021-05-20T06:49:16.000Z</time>
      </trkpt>
      <trkpt lat="48.74394" lon="2.00097">
        <ele>173</ele>
        <time>2021-05-20T06:49:17.000Z</time>
      </trkpt>
      <trkpt lat="48.74393" lon="2.00096">
        <ele>173</ele>
        <time>2021-05-20T06:49:18.000Z</time>
      </trkpt>
      <trkpt lat="48.74392" lon="2.00095">
        <ele>173</ele>
        <time>2021-05-20T06:49:19.000Z</time>
      </trkpt>
      <trkpt lat="48.74391" lon="2.00094">
        <ele>173</ele>
        <time>2021-05-20T06:49:20.000Z</time>
      </trkpt>
      <trkpt lat="48.7439" lon="2.00093">
        <ele>173</ele>
        <time>2021-05-20T06:49:21.000Z</time>
      </trkpt>
      <trkpt lat="48.74389" lon="2.00093">
        <ele>173</ele>
        <time>2021-05-20T06:49:22.000Z</time>
      </trkpt>
      <trkpt lat="48.74388" lon="2.00092">
        <ele>173</ele>
        <time>2021-05-20T06:49:23.000Z</time>
      </trkpt>
      <trkpt lat="48.74387" lon="2.00092">
        <ele>174</ele>
        <time>2021-05-20T06:49:24.000Z</time>
      </trkpt>
      <trkpt lat="48.74385" lon="2.00092">
        <ele>174</ele>
        <time>2021-05-20T06:49:25.000Z</time>
      </trkpt>
      <trkpt lat="48.74384" lon="2.00092">
        <ele>174</ele>
        <time>2021-05-20T06:49:26.000Z</time>
      </trkpt>
      <trkpt lat="48.74383" lon="2.00092">
        <ele>174</ele>
        <time>2021-05-20T06:49:27.000Z</time>
      </trkpt>
      <trkpt lat="48.74382" lon="2.00092">
        <ele>174</ele>
        <time>2021-05-20T06:49:28.000Z</time>
      </trkpt>
      <trkpt lat="48.74381" lon="2.00092">
        <ele>174</ele>
        <time>2021-05-20T06:49:29.000Z</time>
      </trkpt>
      <trkpt lat="48.7438" lon="2.00093">
        <ele>174</ele>
        <time>2021-05-20T06:49:30.000Z</time>
      </trkpt>
      <trkpt lat="48.74379" lon="2.00092">
        <ele>174</ele>
        <time>2021-05-20T06:49:31.000Z</time>
      </trkpt>
      <trkpt lat="48.74378" lon="2.00093">
        <ele>174</ele>
        <time>2021-05-20T06:49:32.000Z</time>
      </trkpt>
      <trkpt lat="48.74377" lon="2.00093">
        <ele>174</ele>
        <time>2021-05-20T06:49:33.000Z</time>
      </trkpt>
      <trkpt lat="48.74376" lon="2.00093">
        <ele>174</ele>
        <time>2021-05-20T06:49:34.000Z</time>
      </trkpt>
      <trkpt lat="48.74375" lon="2.00093">
        <ele>174</ele>
        <time>2021-05-20T06:49:35.000Z</time>
      </trkpt>
      <trkpt lat="48.74373" lon="2.00093">
        <ele>174</ele>
        <time>2021-05-20T06:49:36.000Z</time>
      </trkpt>
      <trkpt lat="48.74372" lon="2.00093">
        <ele>175</ele>
        <time>2021-05-20T06:49:37.000Z</time>
      </trkpt>
      <trkpt lat="48.7437" lon="2.00093">
        <ele>175</ele>
        <time>2021-05-20T06:49:38.000Z</time>
      </trkpt>
      <trkpt lat="48.74369" lon="2.00093">
        <ele>175</ele>
        <time>2021-05-20T06:49:39.000Z</time>
      </trkpt>
      <trkpt lat="48.74367" lon="2.00093">
        <ele>175</ele>
        <time>2021-05-20T06:49:40.000Z</time>
      </trkpt>
      <trkpt lat="48.74366" lon="2.00093">
        <ele>175</ele>
        <time>2021-05-20T06:49:41.000Z</time>
      </trkpt>
      <trkpt lat="48.74364" lon="2.00093">
        <ele>175</ele>
        <time>2021-05-20T06:49:42.000Z</time>
      </trkpt>
      <trkpt lat="48.74363" lon="2.00093">
        <ele>175</ele>
        <time>2021-05-20T06:49:43.000Z</time>
      </trkpt>
      <trkpt lat="48.74362" lon="2.00093">
        <ele>175</ele>
        <time>2021-05-20T06:49:44.000Z</time>
      </trkpt>
      <trkpt lat="48.7436" lon="2.00093">
        <ele>175</ele>
        <time>2021-05-20T06:49:45.000Z</time>
      </trkpt>
      <trkpt lat="48.74359" lon="2.00093">
        <ele>175</ele>
        <time>2021-05-20T06:49:46.000Z</time>
      </trkpt>
      <trkpt lat="48.74357" lon="2.00093">
        <ele>175</ele>
        <time>2021-05-20T06:49:47.000Z</time>
      </trkpt>
      <trkpt lat="48.74355" lon="2.00093">
        <ele>175</ele>
        <time>2021-05-20T06:49:48.000Z</time>
      </trkpt>
      <trkpt lat="48.74354" lon="2.00093">
        <ele>175</ele>
        <time>2021-05-20T06:49:49.000Z</time>
      </trkpt>
      <trkpt lat="48.74352" lon="2.00092">
        <ele>175</ele>
        <time>2021-05-20T06:49:50.000Z</time>
      </trkpt>
      <trkpt lat="48.7435" lon="2.00093">
        <ele>175</ele>
        <time>2021-05-20T06:49:51.000Z</time>
      </trkpt>
      <trkpt lat="48.74349" lon="2.00093">
        <ele>175</ele>
        <time>2021-05-20T06:49:52.000Z</time>
      </trkpt>
      <trkpt lat="48.74347" lon="2.00093">
        <ele>175</ele>
        <time>2021-05-20T06:49:53.000Z</time>
      </trkpt>
      <trkpt lat="48.74346" lon="2.00093">
        <ele>175</ele>
        <time>2021-05-20T06:49:54.000Z</time>
      </trkpt>
      <trkpt lat="48.74344" lon="2.00093">
        <ele>175</ele>
        <time>2021-05-20T06:49:55.000Z</time>
      </trkpt>
      <trkpt lat="48.74343" lon="2.00093">
        <ele>176</ele>
        <time>2021-05-20T06:49:56.000Z</time>
      </trkpt>
      <trkpt lat="48.74341" lon="2.00093">
        <ele>176</ele>
        <time>2021-05-20T06:49:57.000Z</time>
      </trkpt>
      <trkpt lat="48.7434" lon="2.00093">
        <ele>176</ele>
        <time>2021-05-20T06:49:58.000Z</time>
      </trkpt>
      <trkpt lat="48.74339" lon="2.00093">
        <ele>176</ele>
        <time>2021-05-20T06:49:59.000Z</time>
      </trkpt>
      <trkpt lat="48.74338" lon="2.00093">
        <ele>176</ele>
        <time>2021-05-20T06:50:00.000Z</time>
      </trkpt>
      <trkpt lat="48.74337" lon="2.00093">
        <ele>176</ele>
        <time>2021-05-20T06:50:01.000Z</time>
      </trkpt>
      <trkpt lat="48.74336" lon="2.00093">
        <ele>176</ele>
        <time>2021-05-20T06:50:02.000Z</time>
      </trkpt>
      <trkpt lat="48.74335" lon="2.00093">
        <ele>176</ele>
        <time>2021-05-20T06:50:03.000Z</time>
      </trkpt>
      <trkpt lat="48.74334" lon="2.00093">
        <ele>177</ele>
        <time>2021-05-20T06:50:04.000Z</time>
      </trkpt>
      <trkpt lat="48.74333" lon="2.00094">
        <ele>177</ele>
        <time>2021-05-20T06:50:05.000Z</time>
      </trkpt>
      <trkpt lat="48.74332" lon="2.00094">
        <ele>177</ele>
        <time>2021-05-20T06:50:06.000Z</time>
      </trkpt>
      <trkpt lat="48.74331" lon="2.00094">
        <ele>177</ele>
        <time>2021-05-20T06:50:07.000Z</time>
      </trkpt>
      <trkpt lat="48.74329" lon="2.00095">
        <ele>177</ele>
        <time>2021-05-20T06:50:08.000Z</time>
      </trkpt>
      <trkpt lat="48.74328" lon="2.00095">
        <ele>177</ele>
        <time>2021-05-20T06:50:09.000Z</time>
      </trkpt>
      <trkpt lat="48.74327" lon="2.00095">
        <ele>178</ele>
        <time>2021-05-20T06:50:10.000Z</time>
      </trkpt>
      <trkpt lat="48.74326" lon="2.00096">
        <ele>178</ele>
        <time>2021-05-20T06:50:11.000Z</time>
      </trkpt>
      <trkpt lat="48.74324" lon="2.00096">
        <ele>178</ele>
        <time>2021-05-20T06:50:12.000Z</time>
      </trkpt>
      <trkpt lat="48.74323" lon="2.00096">
        <ele>178</ele>
        <time>2021-05-20T06:50:13.000Z</time>
      </trkpt>
      <trkpt lat="48.74322" lon="2.00097">
        <ele>178</ele>
        <time>2021-05-20T06:50:14.000Z</time>
      </trkpt>
      <trkpt lat="48.7432" lon="2.00097">
        <ele>178</ele>
        <time>2021-05-20T06:50:15.000Z</time>
      </trkpt>
      <trkpt lat="48.74319" lon="2.00097">
        <ele>178</ele>
        <time>2021-05-20T06:50:16.000Z</time>
      </trkpt>
      <trkpt lat="48.74318" lon="2.00098">
        <ele>178</ele>
        <time>2021-05-20T06:50:17.000Z</time>
      </trkpt>
      <trkpt lat="48.74317" lon="2.00098">
        <ele>178</ele>
        <time>2021-05-20T06:50:18.000Z</time>
      </trkpt>
      <trkpt lat="48.74315" lon="2.00098">
        <ele>179</ele>
        <time>2021-05-20T06:50:19.000Z</time>
      </trkpt>
      <trkpt lat="48.74314" lon="2.00098">
        <ele>179</ele>
        <time>2021-05-20T06:50:20.000Z</time>
      </trkpt>
      <trkpt lat="48.74313" lon="2.00099">
        <ele>179</ele>
        <time>2021-05-20T06:50:21.000Z</time>
      </trkpt>
      <trkpt lat="48.74311" lon="2.00099">
        <ele>179</ele>
        <time>2021-05-20T06:50:22.000Z</time>
      </trkpt>
      <trkpt lat="48.7431" lon="2.00099">
        <ele>179</ele>
        <time>2021-05-20T06:50:23.000Z</time>
      </trkpt>
      <trkpt lat="48.74308" lon="2.00099">
        <ele>179</ele>
        <time>2021-05-20T06:50:24.000Z</time>
      </trkpt>
      <trkpt lat="48.74307" lon="2.00099">
        <ele>179</ele>
        <time>2021-05-20T06:50:25.000Z</time>
      </trkpt>
      <trkpt lat="48.74305" lon="2.00099">
        <ele>179</ele>
        <time>2021-05-20T06:50:26.000Z</time>
      </trkpt>
      <trkpt lat="48.74304" lon="2.00099">
        <ele>179</ele>
        <time>2021-05-20T06:50:27.000Z</time>
      </trkpt>
      <trkpt lat="48.74302" lon="2.00099">
        <ele>179</ele>
        <time>2021-05-20T06:50:28.000Z</time>
      </trkpt>
      <trkpt lat="48.743" lon="2.00099">
        <ele>179</ele>
        <time>2021-05-20T06:50:29.000Z</time>
      </trkpt>
      <trkpt lat="48.74298" lon="2.00099">
        <ele>179</ele>
        <time>2021-05-20T06:50:30.000Z</time>
      </trkpt>
      <trkpt lat="48.74297" lon="2.00099">
        <ele>179</ele>
        <time>2021-05-20T06:50:31.000Z</time>
      </trkpt>
      <trkpt lat="48.74295" lon="2.00099">
        <ele>179</ele>
        <time>2021-05-20T06:50:32.000Z</time>
      </trkpt>
      <trkpt lat="48.74294" lon="2.00099">
        <ele>179</ele>
        <time>2021-05-20T06:50:33.000Z</time>
      </trkpt>
      <trkpt lat="48.74292" lon="2.00099">
        <ele>179</ele>
        <time>2021-05-20T06:50:34.000Z</time>
      </trkpt>
      <trkpt lat="48.74291" lon="2.00099">
        <ele>179</ele>
        <time>2021-05-20T06:50:35.000Z</time>
      </trkpt>
      <trkpt lat="48.7429" lon="2.00099">
        <ele>179</ele>
        <time>2021-05-20T06:50:36.000Z</time>
      </trkpt>
      <trkpt lat="48.74288" lon="2.00099">
        <ele>179</ele>
        <time>2021-05-20T06:50:37.000Z</time>
      </trkpt>
      <trkpt lat="48.74287" lon="2.00099">
        <ele>179</ele>
        <time>2021-05-20T06:50:38.000Z</time>
      </trkpt>
      <trkpt lat="48.74286" lon="2.001">
        <ele>179</ele>
        <time>2021-05-20T06:50:39.000Z</time>
      </trkpt>
      <trkpt lat="48.74284" lon="2.001">
        <ele>179</ele>
        <time>2021-05-20T06:50:40.000Z</time>
      </trkpt>
      <trkpt lat="48.74282" lon="2.001">
        <ele>179</ele>
        <time>2021-05-20T06:50:41.000Z</time>
      </trkpt>
      <trkpt lat="48.74281" lon="2.001">
        <ele>179</ele>
        <time>2021-05-20T06:50:42.000Z</time>
      </trkpt>
      <trkpt lat="48.74279" lon="2.001">
        <ele>179</ele>
        <time>2021-05-20T06:50:43.000Z</time>
      </trkpt>
      <trkpt lat="48.74278" lon="2.001">
        <ele>179</ele>
        <time>2021-05-20T06:50:44.000Z</time>
      </trkpt>
      <trkpt lat="48.74276" lon="2.001">
        <ele>179</ele>
        <time>2021-05-20T06:50:45.000Z</time>
      </trkpt>
      <trkpt lat="48.74275" lon="2.00101">
        <ele>179</ele>
        <time>2021-05-20T06:50:46.000Z</time>
      </trkpt>
      <trkpt lat="48.74273" lon="2.00101">
        <ele>179</ele>
        <time>2021-05-20T06:50:47.000Z</time>
      </trkpt>
      <trkpt lat="48.74272" lon="2.00101">
        <ele>179</ele>
        <time>2021-05-20T06:50:48.000Z</time>
      </trkpt>
      <trkpt lat="48.7427" lon="2.00102">
        <ele>179</ele>
        <time>2021-05-20T06:50:49.000Z</time>
      </trkpt>
      <trkpt lat="48.74269" lon="2.00102">
        <ele>179</ele>
        <time>2021-05-20T06:50:50.000Z</time>
      </trkpt>
      <trkpt lat="48.74267" lon="2.00102">
        <ele>179</ele>
        <time>2021-05-20T06:50:51.000Z</time>
      </trkpt>
      <trkpt lat="48.74266" lon="2.00102">
        <ele>178</ele>
        <time>2021-05-20T06:50:52.000Z</time>
      </trkpt>
      <trkpt lat="48.74264" lon="2.00102">
        <ele>178</ele>
        <time>2021-05-20T06:50:53.000Z</time>
      </trkpt>
      <trkpt lat="48.74263" lon="2.00102">
        <ele>178</ele>
        <time>2021-05-20T06:50:54.000Z</time>
      </trkpt>
      <trkpt lat="48.74261" lon="2.00103">
        <ele>178</ele>
        <time>2021-05-20T06:50:55.000Z</time>
      </trkpt>
      <trkpt lat="48.7426" lon="2.00103">
        <ele>178</ele>
        <time>2021-05-20T06:50:56.000Z</time>
      </trkpt>
      <trkpt lat="48.74258" lon="2.00103">
        <ele>178</ele>
        <time>2021-05-20T06:50:57.000Z</time>
      </trkpt>
      <trkpt lat="48.74257" lon="2.00103">
        <ele>178</ele>
        <time>2021-05-20T06:50:58.000Z</time>
      </trkpt>
      <trkpt lat="48.74256" lon="2.00103">
        <ele>178</ele>
        <time>2021-05-20T06:50:59.000Z</time>
      </trkpt>
      <trkpt lat="48.74255" lon="2.00103">
        <ele>178</ele>
        <time>2021-05-20T06:51:00.000Z</time>
      </trkpt>
      <trkpt lat="48.74253" lon="2.00104">
        <ele>178</ele>
        <time>2021-05-20T06:51:01.000Z</time>
      </trkpt>
      <trkpt lat="48.74252" lon="2.00104">
        <ele>178</ele>
        <time>2021-05-20T06:51:02.000Z</time>
      </trkpt>
      <trkpt lat="48.74251" lon="2.00104">
        <ele>178</ele>
        <time>2021-05-20T06:51:03.000Z</time>
      </trkpt>
      <trkpt lat="48.74249" lon="2.00103">
        <ele>178</ele>
        <time>2021-05-20T06:51:04.000Z</time>
      </trkpt>
      <trkpt lat="48.74248" lon="2.00103">
        <ele>178</ele>
        <time>2021-05-20T06:51:05.000Z</time>
      </trkpt>
      <trkpt lat="48.74247" lon="2.00103">
        <ele>178</ele>
        <time>2021-05-20T06:51:06.000Z</time>
      </trkpt>
      <trkpt lat="48.74247" lon="2.00103">
        <ele>178</ele>
        <time>2021-05-20T06:51:07.000Z</time>
      </trkpt>
      <trkpt lat="48.74246" lon="2.00103">
        <ele>179</ele>
        <time>2021-05-20T06:51:08.000Z</time>
      </trkpt>
      <trkpt lat="48.74244" lon="2.00104">
        <ele>179</ele>
        <time>2021-05-20T06:51:09.000Z</time>
      </trkpt>
      <trkpt lat="48.74243" lon="2.00104">
        <ele>179</ele>
        <time>2021-05-20T06:51:10.000Z</time>
      </trkpt>
      <trkpt lat="48.74242" lon="2.00104">
        <ele>179</ele>
        <time>2021-05-20T06:51:11.000Z</time>
      </trkpt>
      <trkpt lat="48.7424" lon="2.00104">
        <ele>179</ele>
        <time>2021-05-20T06:51:12.000Z</time>
      </trkpt>
      <trkpt lat="48.74238" lon="2.00104">
        <ele>179</ele>
        <time>2021-05-20T06:51:13.000Z</time>
      </trkpt>
      <trkpt lat="48.74237" lon="2.00104">
        <ele>179</ele>
        <time>2021-05-20T06:51:14.000Z</time>
      </trkpt>
      <trkpt lat="48.74235" lon="2.00105">
        <ele>179</ele>
        <time>2021-05-20T06:51:15.000Z</time>
      </trkpt>
      <trkpt lat="48.74234" lon="2.00105">
        <ele>179</ele>
        <time>2021-05-20T06:51:16.000Z</time>
      </trkpt>
      <trkpt lat="48.74233" lon="2.00105">
        <ele>179</ele>
        <time>2021-05-20T06:51:17.000Z</time>
      </trkpt>
      <trkpt lat="48.74231" lon="2.00104">
        <ele>178</ele>
        <time>2021-05-20T06:51:18.000Z</time>
      </trkpt>
      <trkpt lat="48.7423" lon="2.00104">
        <ele>178</ele>
        <time>2021-05-20T06:51:19.000Z</time>
      </trkpt>
      <trkpt lat="48.74229" lon="2.00105">
        <ele>178</ele>
        <time>2021-05-20T06:51:20.000Z</time>
      </trkpt>
      <trkpt lat="48.74227" lon="2.00106">
        <ele>178</ele>
        <time>2021-05-20T06:51:21.000Z</time>
      </trkpt>
      <trkpt lat="48.74226" lon="2.00106">
        <ele>178</ele>
        <time>2021-05-20T06:51:22.000Z</time>
      </trkpt>
      <trkpt lat="48.74225" lon="2.00107">
        <ele>178</ele>
        <time>2021-05-20T06:51:23.000Z</time>
      </trkpt>
      <trkpt lat="48.74223" lon="2.00107">
        <ele>178</ele>
        <time>2021-05-20T06:51:24.000Z</time>
      </trkpt>
      <trkpt lat="48.74222" lon="2.00108">
        <ele>178</ele>
        <time>2021-05-20T06:51:25.000Z</time>
      </trkpt>
      <trkpt lat="48.74221" lon="2.00108">
        <ele>178</ele>
        <time>2021-05-20T06:51:26.000Z</time>
      </trkpt>
      <trkpt lat="48.74219" lon="2.00108">
        <ele>178</ele>
        <time>2021-05-20T06:51:27.000Z</time>
      </trkpt>
      <trkpt lat="48.74218" lon="2.00109">
        <ele>178</ele>
        <time>2021-05-20T06:51:28.000Z</time>
      </trkpt>
      <trkpt lat="48.74217" lon="2.00109">
        <ele>178</ele>
        <time>2021-05-20T06:51:29.000Z</time>
      </trkpt>
      <trkpt lat="48.74216" lon="2.0011">
        <ele>178</ele>
        <time>2021-05-20T06:51:30.000Z</time>
      </trkpt>
      <trkpt lat="48.74214" lon="2.00111">
        <ele>178</ele>
        <time>2021-05-20T06:51:31.000Z</time>
      </trkpt>
      <trkpt lat="48.74213" lon="2.00111">
        <ele>178</ele>
        <time>2021-05-20T06:51:32.000Z</time>
      </trkpt>
      <trkpt lat="48.74212" lon="2.00112">
        <ele>178</ele>
        <time>2021-05-20T06:51:33.000Z</time>
      </trkpt>
      <trkpt lat="48.74211" lon="2.00112">
        <ele>178</ele>
        <time>2021-05-20T06:51:34.000Z</time>
      </trkpt>
      <trkpt lat="48.74209" lon="2.00113">
        <ele>178</ele>
        <time>2021-05-20T06:51:35.000Z</time>
      </trkpt>
      <trkpt lat="48.74208" lon="2.00114">
        <ele>178</ele>
        <time>2021-05-20T06:51:36.000Z</time>
      </trkpt>
      <trkpt lat="48.74206" lon="2.00114">
        <ele>178</ele>
        <time>2021-05-20T06:51:37.000Z</time>
      </trkpt>
      <trkpt lat="48.74205" lon="2.00114">
        <ele>178</ele>
        <time>2021-05-20T06:51:38.000Z</time>
      </trkpt>
      <trkpt lat="48.74203" lon="2.00115">
        <ele>178</ele>
        <time>2021-05-20T06:51:39.000Z</time>
      </trkpt>
      <trkpt lat="48.74201" lon="2.00115">
        <ele>178</ele>
        <time>2021-05-20T06:51:40.000Z</time>
      </trkpt>
      <trkpt lat="48.742" lon="2.00115">
        <ele>178</ele>
        <time>2021-05-20T06:51:41.000Z</time>
      </trkpt>
      <trkpt lat="48.74199" lon="2.00116">
        <ele>178</ele>
        <time>2021-05-20T06:51:42.000Z</time>
      </trkpt>
      <trkpt lat="48.74197" lon="2.00116">
        <ele>178</ele>
        <time>2021-05-20T06:51:43.000Z</time>
      </trkpt>
      <trkpt lat="48.74196" lon="2.00117">
        <ele>178</ele>
        <time>2021-05-20T06:51:44.000Z</time>
      </trkpt>
      <trkpt lat="48.74195" lon="2.00117">
        <ele>178</ele>
        <time>2021-05-20T06:51:45.000Z</time>
      </trkpt>
      <trkpt lat="48.74193" lon="2.00118">
        <ele>178</ele>
        <time>2021-05-20T06:51:46.000Z</time>
      </trkpt>
      <trkpt lat="48.74192" lon="2.00118">
        <ele>178</ele>
        <time>2021-05-20T06:51:47.000Z</time>
      </trkpt>
      <trkpt lat="48.7419" lon="2.00118">
        <ele>178</ele>
        <time>2021-05-20T06:51:48.000Z</time>
      </trkpt>
      <trkpt lat="48.74189" lon="2.00118">
        <ele>178</ele>
        <time>2021-05-20T06:51:49.000Z</time>
      </trkpt>
      <trkpt lat="48.74187" lon="2.00119">
        <ele>178</ele>
        <time>2021-05-20T06:51:50.000Z</time>
      </trkpt>
      <trkpt lat="48.74186" lon="2.00119">
        <ele>178</ele>
        <time>2021-05-20T06:51:51.000Z</time>
      </trkpt>
      <trkpt lat="48.74185" lon="2.00119">
        <ele>178</ele>
        <time>2021-05-20T06:51:52.000Z</time>
      </trkpt>
      <trkpt lat="48.74183" lon="2.00119">
        <ele>178</ele>
        <time>2021-05-20T06:51:53.000Z</time>
      </trkpt>
      <trkpt lat="48.74182" lon="2.00119">
        <ele>178</ele>
        <time>2021-05-20T06:51:54.000Z</time>
      </trkpt>
      <trkpt lat="48.7418" lon="2.00119">
        <ele>178</ele>
        <time>2021-05-20T06:51:55.000Z</time>
      </trkpt>
      <trkpt lat="48.74179" lon="2.0012">
        <ele>178</ele>
        <time>2021-05-20T06:51:56.000Z</time>
      </trkpt>
      <trkpt lat="48.74178" lon="2.0012">
        <ele>178</ele>
        <time>2021-05-20T06:51:57.000Z</time>
      </trkpt>
      <trkpt lat="48.74176" lon="2.00119">
        <ele>178</ele>
        <time>2021-05-20T06:51:58.000Z</time>
      </trkpt>
      <trkpt lat="48.74174" lon="2.00119">
        <ele>178</ele>
        <time>2021-05-20T06:51:59.000Z</time>
      </trkpt>
      <trkpt lat="48.74172" lon="2.0012">
        <ele>178</ele>
        <time>2021-05-20T06:52:00.000Z</time>
      </trkpt>
      <trkpt lat="48.74171" lon="2.0012">
        <ele>178</ele>
        <time>2021-05-20T06:52:01.000Z</time>
      </trkpt>
      <trkpt lat="48.74169" lon="2.0012">
        <ele>178</ele>
        <time>2021-05-20T06:52:02.000Z</time>
      </trkpt>
      <trkpt lat="48.74168" lon="2.0012">
        <ele>178</ele>
        <time>2021-05-20T06:52:03.000Z</time>
      </trkpt>
      <trkpt lat="48.74166" lon="2.0012">
        <ele>178</ele>
        <time>2021-05-20T06:52:04.000Z</time>
      </trkpt>
      <trkpt lat="48.74165" lon="2.0012">
        <ele>178</ele>
        <time>2021-05-20T06:52:05.000Z</time>
      </trkpt>
      <trkpt lat="48.74163" lon="2.0012">
        <ele>178</ele>
        <time>2021-05-20T06:52:06.000Z</time>
      </trkpt>
      <trkpt lat="48.74161" lon="2.0012">
        <ele>178</ele>
        <time>2021-05-20T06:52:07.000Z</time>
      </trkpt>
      <trkpt lat="48.7416" lon="2.0012">
        <ele>178</ele>
        <time>2021-05-20T06:52:08.000Z</time>
      </trkpt>
      <trkpt lat="48.74158" lon="2.0012">
        <ele>178</ele>
        <time>2021-05-20T06:52:09.000Z</time>
      </trkpt>
      <trkpt lat="48.74156" lon="2.0012">
        <ele>178</ele>
        <time>2021-05-20T06:52:10.000Z</time>
      </trkpt>
      <trkpt lat="48.74155" lon="2.00121">
        <ele>178</ele>
        <time>2021-05-20T06:52:11.000Z</time>
      </trkpt>
      <trkpt lat="48.74153" lon="2.00121">
        <ele>178</ele>
        <time>2021-05-20T06:52:12.000Z</time>
      </trkpt>
      <trkpt lat="48.74152" lon="2.00121">
        <ele>178</ele>
        <time>2021-05-20T06:52:13.000Z</time>
      </trkpt>
      <trkpt lat="48.7415" lon="2.00122">
        <ele>178</ele>
        <time>2021-05-20T06:52:14.000Z</time>
      </trkpt>
      <trkpt lat="48.74148" lon="2.00122">
        <ele>178</ele>
        <time>2021-05-20T06:52:15.000Z</time>
      </trkpt>
      <trkpt lat="48.74147" lon="2.00122">
        <ele>178</ele>
        <time>2021-05-20T06:52:16.000Z</time>
      </trkpt>
      <trkpt lat="48.74145" lon="2.00123">
        <ele>178</ele>
        <time>2021-05-20T06:52:17.000Z</time>
      </trkpt>
      <trkpt lat="48.74144" lon="2.00123">
        <ele>178</ele>
        <time>2021-05-20T06:52:18.000Z</time>
      </trkpt>
      <trkpt lat="48.74142" lon="2.00123">
        <ele>178</ele>
        <time>2021-05-20T06:52:19.000Z</time>
      </trkpt>
      <trkpt lat="48.74141" lon="2.00123">
        <ele>178</ele>
        <time>2021-05-20T06:52:20.000Z</time>
      </trkpt>
      <trkpt lat="48.74139" lon="2.00124">
        <ele>178</ele>
        <time>2021-05-20T06:52:21.000Z</time>
      </trkpt>
      <trkpt lat="48.74138" lon="2.00124">
        <ele>178</ele>
        <time>2021-05-20T06:52:22.000Z</time>
      </trkpt>
      <trkpt lat="48.74137" lon="2.00124">
        <ele>178</ele>
        <time>2021-05-20T06:52:23.000Z</time>
      </trkpt>
      <trkpt lat="48.74135" lon="2.00125">
        <ele>178</ele>
        <time>2021-05-20T06:52:24.000Z</time>
      </trkpt>
      <trkpt lat="48.74134" lon="2.00125">
        <ele>178</ele>
        <time>2021-05-20T06:52:25.000Z</time>
      </trkpt>
      <trkpt lat="48.74132" lon="2.00125">
        <ele>178</ele>
        <time>2021-05-20T06:52:26.000Z</time>
      </trkpt>
      <trkpt lat="48.7413" lon="2.00125">
        <ele>177</ele>
        <time>2021-05-20T06:52:27.000Z</time>
      </trkpt>
      <trkpt lat="48.74129" lon="2.00125">
        <ele>177</ele>
        <time>2021-05-20T06:52:28.000Z</time>
      </trkpt>
      <trkpt lat="48.74127" lon="2.00126">
        <ele>177</ele>
        <time>2021-05-20T06:52:29.000Z</time>
      </trkpt>
      <trkpt lat="48.74126" lon="2.00126">
        <ele>177</ele>
        <time>2021-05-20T06:52:30.000Z</time>
      </trkpt>
      <trkpt lat="48.74125" lon="2.00126">
        <ele>177</ele>
        <time>2021-05-20T06:52:31.000Z</time>
      </trkpt>
      <trkpt lat="48.74123" lon="2.00127">
        <ele>177</ele>
        <time>2021-05-20T06:52:32.000Z</time>
      </trkpt>
      <trkpt lat="48.74122" lon="2.00127">
        <ele>176</ele>
        <time>2021-05-20T06:52:33.000Z</time>
      </trkpt>
      <trkpt lat="48.7412" lon="2.00127">
        <ele>176</ele>
        <time>2021-05-20T06:52:34.000Z</time>
      </trkpt>
      <trkpt lat="48.74119" lon="2.00128">
        <ele>176</ele>
        <time>2021-05-20T06:52:35.000Z</time>
      </trkpt>
      <trkpt lat="48.74117" lon="2.00128">
        <ele>176</ele>
        <time>2021-05-20T06:52:36.000Z</time>
      </trkpt>
      <trkpt lat="48.74116" lon="2.00128">
        <ele>175</ele>
        <time>2021-05-20T06:52:37.000Z</time>
      </trkpt>
      <trkpt lat="48.74114" lon="2.00128">
        <ele>175</ele>
        <time>2021-05-20T06:52:38.000Z</time>
      </trkpt>
      <trkpt lat="48.74113" lon="2.00128">
        <ele>175</ele>
        <time>2021-05-20T06:52:39.000Z</time>
      </trkpt>
      <trkpt lat="48.74111" lon="2.00128">
        <ele>175</ele>
        <time>2021-05-20T06:52:40.000Z</time>
      </trkpt>
      <trkpt lat="48.7411" lon="2.00128">
        <ele>175</ele>
        <time>2021-05-20T06:52:41.000Z</time>
      </trkpt>
      <trkpt lat="48.74108" lon="2.00128">
        <ele>174</ele>
        <time>2021-05-20T06:52:42.000Z</time>
      </trkpt>
      <trkpt lat="48.74107" lon="2.00128">
        <ele>174</ele>
        <time>2021-05-20T06:52:43.000Z</time>
      </trkpt>
      <trkpt lat="48.74105" lon="2.00129">
        <ele>174</ele>
        <time>2021-05-20T06:52:44.000Z</time>
      </trkpt>
      <trkpt lat="48.74103" lon="2.00129">
        <ele>174</ele>
        <time>2021-05-20T06:52:45.000Z</time>
      </trkpt>
      <trkpt lat="48.74102" lon="2.0013">
        <ele>174</ele>
        <time>2021-05-20T06:52:46.000Z</time>
      </trkpt>
      <trkpt lat="48.74101" lon="2.0013">
        <ele>174</ele>
        <time>2021-05-20T06:52:47.000Z</time>
      </trkpt>
      <trkpt lat="48.74099" lon="2.0013">
        <ele>174</ele>
        <time>2021-05-20T06:52:48.000Z</time>
      </trkpt>
      <trkpt lat="48.74098" lon="2.0013">
        <ele>174</ele>
        <time>2021-05-20T06:52:49.000Z</time>
      </trkpt>
      <trkpt lat="48.74097" lon="2.0013">
        <ele>173</ele>
        <time>2021-05-20T06:52:50.000Z</time>
      </trkpt>
      <trkpt lat="48.74096" lon="2.0013">
        <ele>173</ele>
        <time>2021-05-20T06:52:51.000Z</time>
      </trkpt>
      <trkpt lat="48.74094" lon="2.00131">
        <ele>173</ele>
        <time>2021-05-20T06:52:52.000Z</time>
      </trkpt>
      <trkpt lat="48.74093" lon="2.00131">
        <ele>173</ele>
        <time>2021-05-20T06:52:53.000Z</time>
      </trkpt>
      <trkpt lat="48.74092" lon="2.00131">
        <ele>173</ele>
        <time>2021-05-20T06:52:54.000Z</time>
      </trkpt>
      <trkpt lat="48.74091" lon="2.00131">
        <ele>173</ele>
        <time>2021-05-20T06:52:55.000Z</time>
      </trkpt>
      <trkpt lat="48.7409" lon="2.00131">
        <ele>174</ele>
        <time>2021-05-20T06:52:56.000Z</time>
      </trkpt>
      <trkpt lat="48.74089" lon="2.00131">
        <ele>174</ele>
        <time>2021-05-20T06:52:57.000Z</time>
      </trkpt>
      <trkpt lat="48.74088" lon="2.00131">
        <ele>174</ele>
        <time>2021-05-20T06:52:58.000Z</time>
      </trkpt>
      <trkpt lat="48.74086" lon="2.00131">
        <ele>174</ele>
        <time>2021-05-20T06:52:59.000Z</time>
      </trkpt>
      <trkpt lat="48.74085" lon="2.00131">
        <ele>174</ele>
        <time>2021-05-20T06:53:00.000Z</time>
      </trkpt>
      <trkpt lat="48.74084" lon="2.00131">
        <ele>174</ele>
        <time>2021-05-20T06:53:01.000Z</time>
      </trkpt>
      <trkpt lat="48.74083" lon="2.00131">
        <ele>174</ele>
        <time>2021-05-20T06:53:02.000Z</time>
      </trkpt>
      <trkpt lat="48.74082" lon="2.00131">
        <ele>174</ele>
        <time>2021-05-20T06:53:03.000Z</time>
      </trkpt>
      <trkpt lat="48.74081" lon="2.00131">
        <ele>174</ele>
        <time>2021-05-20T06:53:04.000Z</time>
      </trkpt>
      <trkpt lat="48.7408" lon="2.00132">
        <ele>174</ele>
        <time>2021-05-20T06:53:05.000Z</time>
      </trkpt>
      <trkpt lat="48.74079" lon="2.00132">
        <ele>174</ele>
        <time>2021-05-20T06:53:06.000Z</time>
      </trkpt>
      <trkpt lat="48.74078" lon="2.00132">
        <ele>174</ele>
        <time>2021-05-20T06:53:07.000Z</time>
      </trkpt>
      <trkpt lat="48.74077" lon="2.00132">
        <ele>174</ele>
        <time>2021-05-20T06:53:08.000Z</time>
      </trkpt>
      <trkpt lat="48.74075" lon="2.00133">
        <ele>174</ele>
        <time>2021-05-20T06:53:09.000Z</time>
      </trkpt>
      <trkpt lat="48.74074" lon="2.00133">
        <ele>175</ele>
        <time>2021-05-20T06:53:10.000Z</time>
      </trkpt>
      <trkpt lat="48.74072" lon="2.00134">
        <ele>175</ele>
        <time>2021-05-20T06:53:11.000Z</time>
      </trkpt>
      <trkpt lat="48.74071" lon="2.00134">
        <ele>175</ele>
        <time>2021-05-20T06:53:12.000Z</time>
      </trkpt>
      <trkpt lat="48.74069" lon="2.00135">
        <ele>175</ele>
        <time>2021-05-20T06:53:13.000Z</time>
      </trkpt>
      <trkpt lat="48.74068" lon="2.00135">
        <ele>175</ele>
        <time>2021-05-20T06:53:14.000Z</time>
      </trkpt>
      <trkpt lat="48.74067" lon="2.00135">
        <ele>175</ele>
        <time>2021-05-20T06:53:15.000Z</time>
      </trkpt>
      <trkpt lat="48.74066" lon="2.00135">
        <ele>175</ele>
        <time>2021-05-20T06:53:16.000Z</time>
      </trkpt>
      <trkpt lat="48.74064" lon="2.00135">
        <ele>175</ele>
        <time>2021-05-20T06:53:17.000Z</time>
      </trkpt>
      <trkpt lat="48.74063" lon="2.00135">
        <ele>175</ele>
        <time>2021-05-20T06:53:18.000Z</time>
      </trkpt>
      <trkpt lat="48.74061" lon="2.00135">
        <ele>175</ele>
        <time>2021-05-20T06:53:19.000Z</time>
      </trkpt>
      <trkpt lat="48.74059" lon="2.00135">
        <ele>175</ele>
        <time>2021-05-20T06:53:20.000Z</time>
      </trkpt>
      <trkpt lat="48.74058" lon="2.00135">
        <ele>175</ele>
        <time>2021-05-20T06:53:21.000Z</time>
      </trkpt>
      <trkpt lat="48.74056" lon="2.00136">
        <ele>175</ele>
        <time>2021-05-20T06:53:22.000Z</time>
      </trkpt>
      <trkpt lat="48.74054" lon="2.00136">
        <ele>175</ele>
        <time>2021-05-20T06:53:23.000Z</time>
      </trkpt>
      <trkpt lat="48.74053" lon="2.00136">
        <ele>175</ele>
        <time>2021-05-20T06:53:24.000Z</time>
      </trkpt>
      <trkpt lat="48.74052" lon="2.00137">
        <ele>175</ele>
        <time>2021-05-20T06:53:25.000Z</time>
      </trkpt>
      <trkpt lat="48.74051" lon="2.00137">
        <ele>175</ele>
        <time>2021-05-20T06:53:26.000Z</time>
      </trkpt>
      <trkpt lat="48.74049" lon="2.00137">
        <ele>175</ele>
        <time>2021-05-20T06:53:27.000Z</time>
      </trkpt>
      <trkpt lat="48.74048" lon="2.00137">
        <ele>175</ele>
        <time>2021-05-20T06:53:28.000Z</time>
      </trkpt>
      <trkpt lat="48.74047" lon="2.00137">
        <ele>175</ele>
        <time>2021-05-20T06:53:29.000Z</time>
      </trkpt>
      <trkpt lat="48.74046" lon="2.00137">
        <ele>175</ele>
        <time>2021-05-20T06:53:30.000Z</time>
      </trkpt>
      <trkpt lat="48.74045" lon="2.00137">
        <ele>175</ele>
        <time>2021-05-20T06:53:31.000Z</time>
      </trkpt>
      <trkpt lat="48.74044" lon="2.00137">
        <ele>175</ele>
        <time>2021-05-20T06:53:32.000Z</time>
      </trkpt>
      <trkpt lat="48.74042" lon="2.00137">
        <ele>175</ele>
        <time>2021-05-20T06:53:33.000Z</time>
      </trkpt>
      <trkpt lat="48.74041" lon="2.00137">
        <ele>175</ele>
        <time>2021-05-20T06:53:34.000Z</time>
      </trkpt>
      <trkpt lat="48.74039" lon="2.00137">
        <ele>175</ele>
        <time>2021-05-20T06:53:35.000Z</time>
      </trkpt>
      <trkpt lat="48.74037" lon="2.00138">
        <ele>175</ele>
        <time>2021-05-20T06:53:36.000Z</time>
      </trkpt>
      <trkpt lat="48.74036" lon="2.00138">
        <ele>175</ele>
        <time>2021-05-20T06:53:37.000Z</time>
      </trkpt>
      <trkpt lat="48.74034" lon="2.00139">
        <ele>175</ele>
        <time>2021-05-20T06:53:38.000Z</time>
      </trkpt>
      <trkpt lat="48.74033" lon="2.00139">
        <ele>175</ele>
        <time>2021-05-20T06:53:39.000Z</time>
      </trkpt>
      <trkpt lat="48.74031" lon="2.00139">
        <ele>175</ele>
        <time>2021-05-20T06:53:40.000Z</time>
      </trkpt>
      <trkpt lat="48.7403" lon="2.00139">
        <ele>175</ele>
        <time>2021-05-20T06:53:41.000Z</time>
      </trkpt>
      <trkpt lat="48.74029" lon="2.00139">
        <ele>175</ele>
        <time>2021-05-20T06:53:42.000Z</time>
      </trkpt>
      <trkpt lat="48.74027" lon="2.00139">
        <ele>175</ele>
        <time>2021-05-20T06:53:43.000Z</time>
      </trkpt>
      <trkpt lat="48.74026" lon="2.00139">
        <ele>175</ele>
        <time>2021-05-20T06:53:44.000Z</time>
      </trkpt>
      <trkpt lat="48.74025" lon="2.0014">
        <ele>175</ele>
        <time>2021-05-20T06:53:45.000Z</time>
      </trkpt>
      <trkpt lat="48.74023" lon="2.0014">
        <ele>175</ele>
        <time>2021-05-20T06:53:46.000Z</time>
      </trkpt>
      <trkpt lat="48.74022" lon="2.00141">
        <ele>175</ele>
        <time>2021-05-20T06:53:47.000Z</time>
      </trkpt>
      <trkpt lat="48.7402" lon="2.00142">
        <ele>175</ele>
        <time>2021-05-20T06:53:48.000Z</time>
      </trkpt>
      <trkpt lat="48.74019" lon="2.00142">
        <ele>175</ele>
        <time>2021-05-20T06:53:49.000Z</time>
      </trkpt>
      <trkpt lat="48.74017" lon="2.00143">
        <ele>175</ele>
        <time>2021-05-20T06:53:50.000Z</time>
      </trkpt>
      <trkpt lat="48.74016" lon="2.00144">
        <ele>175</ele>
        <time>2021-05-20T06:53:51.000Z</time>
      </trkpt>
      <trkpt lat="48.74014" lon="2.00144">
        <ele>175</ele>
        <time>2021-05-20T06:53:52.000Z</time>
      </trkpt>
      <trkpt lat="48.74012" lon="2.00145">
        <ele>175</ele>
        <time>2021-05-20T06:53:53.000Z</time>
      </trkpt>
      <trkpt lat="48.74011" lon="2.00145">
        <ele>175</ele>
        <time>2021-05-20T06:53:54.000Z</time>
      </trkpt>
      <trkpt lat="48.74009" lon="2.00146">
        <ele>175</ele>
        <time>2021-05-20T06:53:55.000Z</time>
      </trkpt>
      <trkpt lat="48.74007" lon="2.00147">
        <ele>176</ele>
        <time>2021-05-20T06:53:56.000Z</time>
      </trkpt>
      <trkpt lat="48.74005" lon="2.00147">
        <ele>176</ele>
        <time>2021-05-20T06:53:57.000Z</time>
      </trkpt>
      <trkpt lat="48.74004" lon="2.00148">
        <ele>176</ele>
        <time>2021-05-20T06:53:58.000Z</time>
      </trkpt>
      <trkpt lat="48.74002" lon="2.00149">
        <ele>176</ele>
        <time>2021-05-20T06:53:59.000Z</time>
      </trkpt>
      <trkpt lat="48.74" lon="2.0015">
        <ele>176</ele>
        <time>2021-05-20T06:54:00.000Z</time>
      </trkpt>
      <trkpt lat="48.73998" lon="2.0015">
        <ele>177</ele>
        <time>2021-05-20T06:54:01.000Z</time>
      </trkpt>
      <trkpt lat="48.73997" lon="2.0015">
        <ele>177</ele>
        <time>2021-05-20T06:54:02.000Z</time>
      </trkpt>
      <trkpt lat="48.73995" lon="2.0015">
        <ele>177</ele>
        <time>2021-05-20T06:54:03.000Z</time>
      </trkpt>
      <trkpt lat="48.73994" lon="2.0015">
        <ele>177</ele>
        <time>2021-05-20T06:54:04.000Z</time>
      </trkpt>
      <trkpt lat="48.73992" lon="2.0015">
        <ele>177</ele>
        <time>2021-05-20T06:54:05.000Z</time>
      </trkpt>
      <trkpt lat="48.73991" lon="2.0015">
        <ele>177</ele>
        <time>2021-05-20T06:54:06.000Z</time>
      </trkpt>
      <trkpt lat="48.7399" lon="2.00151">
        <ele>177</ele>
        <time>2021-05-20T06:54:07.000Z</time>
      </trkpt>
      <trkpt lat="48.73988" lon="2.00151">
        <ele>177</ele>
        <time>2021-05-20T06:54:08.000Z</time>
      </trkpt>
      <trkpt lat="48.73987" lon="2.00151">
        <ele>177</ele>
        <time>2021-05-20T06:54:09.000Z</time>
      </trkpt>
      <trkpt lat="48.73986" lon="2.00151">
        <ele>177</ele>
        <time>2021-05-20T06:54:10.000Z</time>
      </trkpt>
      <trkpt lat="48.73984" lon="2.00151">
        <ele>177</ele>
        <time>2021-05-20T06:54:11.000Z</time>
      </trkpt>
      <trkpt lat="48.73983" lon="2.00151">
        <ele>177</ele>
        <time>2021-05-20T06:54:12.000Z</time>
      </trkpt>
      <trkpt lat="48.73982" lon="2.00151">
        <ele>176</ele>
        <time>2021-05-20T06:54:13.000Z</time>
      </trkpt>
      <trkpt lat="48.73981" lon="2.00151">
        <ele>176</ele>
        <time>2021-05-20T06:54:14.000Z</time>
      </trkpt>
      <trkpt lat="48.7398" lon="2.00152">
        <ele>176</ele>
        <time>2021-05-20T06:54:15.000Z</time>
      </trkpt>
      <trkpt lat="48.73979" lon="2.00152">
        <ele>176</ele>
        <time>2021-05-20T06:54:16.000Z</time>
      </trkpt>
      <trkpt lat="48.73978" lon="2.00152">
        <ele>176</ele>
        <time>2021-05-20T06:54:17.000Z</time>
      </trkpt>
      <trkpt lat="48.73977" lon="2.00151">
        <ele>176</ele>
        <time>2021-05-20T06:54:18.000Z</time>
      </trkpt>
      <trkpt lat="48.73976" lon="2.00151">
        <ele>176</ele>
        <time>2021-05-20T06:54:19.000Z</time>
      </trkpt>
      <trkpt lat="48.73975" lon="2.00151">
        <ele>176</ele>
        <time>2021-05-20T06:54:20.000Z</time>
      </trkpt>
      <trkpt lat="48.73974" lon="2.00152">
        <ele>176</ele>
        <time>2021-05-20T06:54:21.000Z</time>
      </trkpt>
      <trkpt lat="48.73973" lon="2.00152">
        <ele>176</ele>
        <time>2021-05-20T06:54:22.000Z</time>
      </trkpt>
      <trkpt lat="48.73972" lon="2.00152">
        <ele>176</ele>
        <time>2021-05-20T06:54:23.000Z</time>
      </trkpt>
      <trkpt lat="48.73972" lon="2.00152">
        <ele>176</ele>
        <time>2021-05-20T06:54:24.000Z</time>
      </trkpt>
      <trkpt lat="48.73971" lon="2.00152">
        <ele>176</ele>
        <time>2021-05-20T06:54:25.000Z</time>
      </trkpt>
      <trkpt lat="48.7397" lon="2.00152">
        <ele>176</ele>
        <time>2021-05-20T06:54:26.000Z</time>
      </trkpt>
      <trkpt lat="48.7397" lon="2.00153">
        <ele>175</ele>
        <time>2021-05-20T06:54:27.000Z</time>
      </trkpt>
      <trkpt lat="48.73969" lon="2.00153">
        <ele>175</ele>
        <time>2021-05-20T06:54:28.000Z</time>
      </trkpt>
      <trkpt lat="48.73969" lon="2.00153">
        <ele>175</ele>
        <time>2021-05-20T06:54:29.000Z</time>
      </trkpt>
      <trkpt lat="48.73968" lon="2.00153">
        <ele>175</ele>
        <time>2021-05-20T06:54:30.000Z</time>
      </trkpt>
      <trkpt lat="48.73967" lon="2.00153">
        <ele>175</ele>
        <time>2021-05-20T06:54:31.000Z</time>
      </trkpt>
      <trkpt lat="48.73967" lon="2.00152">
        <ele>175</ele>
        <time>2021-05-20T06:54:32.000Z</time>
      </trkpt>
      <trkpt lat="48.73966" lon="2.00152">
        <ele>175</ele>
        <time>2021-05-20T06:54:33.000Z</time>
      </trkpt>
      <trkpt lat="48.73965" lon="2.00152">
        <ele>175</ele>
        <time>2021-05-20T06:54:34.000Z</time>
      </trkpt>
      <trkpt lat="48.73964" lon="2.00152">
        <ele>175</ele>
        <time>2021-05-20T06:54:35.000Z</time>
      </trkpt>
      <trkpt lat="48.73963" lon="2.00152">
        <ele>175</ele>
        <time>2021-05-20T06:54:36.000Z</time>
      </trkpt>
      <trkpt lat="48.73962" lon="2.00152">
        <ele>175</ele>
        <time>2021-05-20T06:54:37.000Z</time>
      </trkpt>
      <trkpt lat="48.73962" lon="2.00153">
        <ele>175</ele>
        <time>2021-05-20T06:54:38.000Z</time>
      </trkpt>
      <trkpt lat="48.73961" lon="2.00153">
        <ele>175</ele>
        <time>2021-05-20T06:54:39.000Z</time>
      </trkpt>
      <trkpt lat="48.7396" lon="2.00153">
        <ele>175</ele>
        <time>2021-05-20T06:54:40.000Z</time>
      </trkpt>
      <trkpt lat="48.73959" lon="2.00153">
        <ele>175</ele>
        <time>2021-05-20T06:54:41.000Z</time>
      </trkpt>
      <trkpt lat="48.73959" lon="2.00154">
        <ele>175</ele>
        <time>2021-05-20T06:54:42.000Z</time>
      </trkpt>
      <trkpt lat="48.73958" lon="2.00153">
        <ele>175</ele>
        <time>2021-05-20T06:54:43.000Z</time>
      </trkpt>
      <trkpt lat="48.73958" lon="2.00153">
        <ele>175</ele>
        <time>2021-05-20T06:54:44.000Z</time>
      </trkpt>
      <trkpt lat="48.73956" lon="2.00153">
        <ele>175</ele>
        <time>2021-05-20T06:54:45.000Z</time>
      </trkpt>
      <trkpt lat="48.73955" lon="2.00153">
        <ele>175</ele>
        <time>2021-05-20T06:54:46.000Z</time>
      </trkpt>
      <trkpt lat="48.73954" lon="2.00153">
        <ele>175</ele>
        <time>2021-05-20T06:54:47.000Z</time>
      </trkpt>
      <trkpt lat="48.73953" lon="2.00153">
        <ele>175</ele>
        <time>2021-05-20T06:54:48.000Z</time>
      </trkpt>
      <trkpt lat="48.73952" lon="2.00154">
        <ele>175</ele>
        <time>2021-05-20T06:54:49.000Z</time>
      </trkpt>
      <trkpt lat="48.73951" lon="2.00154">
        <ele>175</ele>
        <time>2021-05-20T06:54:50.000Z</time>
      </trkpt>
      <trkpt lat="48.7395" lon="2.00155">
        <ele>175</ele>
        <time>2021-05-20T06:54:51.000Z</time>
      </trkpt>
      <trkpt lat="48.73949" lon="2.00156">
        <ele>174</ele>
        <time>2021-05-20T06:54:52.000Z</time>
      </trkpt>
      <trkpt lat="48.73948" lon="2.00157">
        <ele>174</ele>
        <time>2021-05-20T06:54:53.000Z</time>
      </trkpt>
      <trkpt lat="48.73947" lon="2.00157">
        <ele>174</ele>
        <time>2021-05-20T06:54:54.000Z</time>
      </trkpt>
      <trkpt lat="48.73946" lon="2.00157">
        <ele>174</ele>
        <time>2021-05-20T06:54:55.000Z</time>
      </trkpt>
      <trkpt lat="48.73945" lon="2.00157">
        <ele>174</ele>
        <time>2021-05-20T06:54:56.000Z</time>
      </trkpt>
      <trkpt lat="48.73944" lon="2.00158">
        <ele>174</ele>
        <time>2021-05-20T06:54:57.000Z</time>
      </trkpt>
      <trkpt lat="48.73943" lon="2.00158">
        <ele>174</ele>
        <time>2021-05-20T06:54:58.000Z</time>
      </trkpt>
      <trkpt lat="48.73942" lon="2.00158">
        <ele>174</ele>
        <time>2021-05-20T06:54:59.000Z</time>
      </trkpt>
      <trkpt lat="48.7394" lon="2.00158">
        <ele>174</ele>
        <time>2021-05-20T06:55:00.000Z</time>
      </trkpt>
      <trkpt lat="48.73939" lon="2.00158">
        <ele>174</ele>
        <time>2021-05-20T06:55:01.000Z</time>
      </trkpt>
      <trkpt lat="48.73939" lon="2.00158">
        <ele>174</ele>
        <time>2021-05-20T06:55:02.000Z</time>
      </trkpt>
      <trkpt lat="48.73938" lon="2.00158">
        <ele>174</ele>
        <time>2021-05-20T06:55:03.000Z</time>
      </trkpt>
      <trkpt lat="48.73937" lon="2.00158">
        <ele>174</ele>
        <time>2021-05-20T06:55:04.000Z</time>
      </trkpt>
      <trkpt lat="48.73935" lon="2.00159">
        <ele>174</ele>
        <time>2021-05-20T06:55:05.000Z</time>
      </trkpt>
      <trkpt lat="48.73934" lon="2.00159">
        <ele>174</ele>
        <time>2021-05-20T06:55:06.000Z</time>
      </trkpt>
      <trkpt lat="48.73933" lon="2.00159">
        <ele>174</ele>
        <time>2021-05-20T06:55:07.000Z</time>
      </trkpt>
      <trkpt lat="48.73931" lon="2.00159">
        <ele>174</ele>
        <time>2021-05-20T06:55:08.000Z</time>
      </trkpt>
      <trkpt lat="48.7393" lon="2.0016">
        <ele>174</ele>
        <time>2021-05-20T06:55:09.000Z</time>
      </trkpt>
      <trkpt lat="48.73929" lon="2.0016">
        <ele>174</ele>
        <time>2021-05-20T06:55:10.000Z</time>
      </trkpt>
      <trkpt lat="48.73928" lon="2.00161">
        <ele>174</ele>
        <time>2021-05-20T06:55:11.000Z</time>
      </trkpt>
      <trkpt lat="48.73927" lon="2.00162">
        <ele>174</ele>
        <time>2021-05-20T06:55:12.000Z</time>
      </trkpt>
      <trkpt lat="48.73925" lon="2.00162">
        <ele>174</ele>
        <time>2021-05-20T06:55:13.000Z</time>
      </trkpt>
      <trkpt lat="48.73924" lon="2.00162">
        <ele>174</ele>
        <time>2021-05-20T06:55:14.000Z</time>
      </trkpt>
      <trkpt lat="48.73923" lon="2.00162">
        <ele>174</ele>
        <time>2021-05-20T06:55:15.000Z</time>
      </trkpt>
      <trkpt lat="48.73922" lon="2.00162">
        <ele>174</ele>
        <time>2021-05-20T06:55:16.000Z</time>
      </trkpt>
      <trkpt lat="48.7392" lon="2.00162">
        <ele>174</ele>
        <time>2021-05-20T06:55:17.000Z</time>
      </trkpt>
      <trkpt lat="48.73919" lon="2.00162">
        <ele>174</ele>
        <time>2021-05-20T06:55:18.000Z</time>
      </trkpt>
      <trkpt lat="48.73918" lon="2.00162">
        <ele>174</ele>
        <time>2021-05-20T06:55:19.000Z</time>
      </trkpt>
      <trkpt lat="48.73917" lon="2.00162">
        <ele>174</ele>
        <time>2021-05-20T06:55:20.000Z</time>
      </trkpt>
      <trkpt lat="48.73916" lon="2.00162">
        <ele>174</ele>
        <time>2021-05-20T06:55:21.000Z</time>
      </trkpt>
      <trkpt lat="48.73915" lon="2.00162">
        <ele>174</ele>
        <time>2021-05-20T06:55:22.000Z</time>
      </trkpt>
      <trkpt lat="48.73913" lon="2.00162">
        <ele>174</ele>
        <time>2021-05-20T06:55:23.000Z</time>
      </trkpt>
      <trkpt lat="48.73912" lon="2.00162">
        <ele>174</ele>
        <time>2021-05-20T06:55:24.000Z</time>
      </trkpt>
      <trkpt lat="48.73911" lon="2.00162">
        <ele>174</ele>
        <time>2021-05-20T06:55:25.000Z</time>
      </trkpt>
      <trkpt lat="48.7391" lon="2.00161">
        <ele>174</ele>
        <time>2021-05-20T06:55:26.000Z</time>
      </trkpt>
      <trkpt lat="48.73909" lon="2.00161">
        <ele>173</ele>
        <time>2021-05-20T06:55:27.000Z</time>
      </trkpt>
      <trkpt lat="48.73907" lon="2.00161">
        <ele>173</ele>
        <time>2021-05-20T06:55:28.000Z</time>
      </trkpt>
      <trkpt lat="48.73906" lon="2.0016">
        <ele>173</ele>
        <time>2021-05-20T06:55:29.000Z</time>
      </trkpt>
      <trkpt lat="48.73905" lon="2.0016">
        <ele>173</ele>
        <time>2021-05-20T06:55:30.000Z</time>
      </trkpt>
      <trkpt lat="48.73905" lon="2.0016">
        <ele>173</ele>
        <time>2021-05-20T06:55:31.000Z</time>
      </trkpt>
      <trkpt lat="48.73904" lon="2.0016">
        <ele>173</ele>
        <time>2021-05-20T06:55:32.000Z</time>
      </trkpt>
      <trkpt lat="48.73903" lon="2.0016">
        <ele>173</ele>
        <time>2021-05-20T06:55:33.000Z</time>
      </trkpt>
      <trkpt lat="48.73902" lon="2.0016">
        <ele>173</ele>
        <time>2021-05-20T06:55:34.000Z</time>
      </trkpt>
      <trkpt lat="48.73902" lon="2.0016">
        <ele>173</ele>
        <time>2021-05-20T06:55:35.000Z</time>
      </trkpt>
      <trkpt lat="48.73901" lon="2.0016">
        <ele>172</ele>
        <time>2021-05-20T06:55:36.000Z</time>
      </trkpt>
      <trkpt lat="48.739" lon="2.0016">
        <ele>172</ele>
        <time>2021-05-20T06:55:37.000Z</time>
      </trkpt>
      <trkpt lat="48.73899" lon="2.0016">
        <ele>172</ele>
        <time>2021-05-20T06:55:38.000Z</time>
      </trkpt>
      <trkpt lat="48.73898" lon="2.0016">
        <ele>172</ele>
        <time>2021-05-20T06:55:39.000Z</time>
      </trkpt>
      <trkpt lat="48.73897" lon="2.00161">
        <ele>172</ele>
        <time>2021-05-20T06:55:40.000Z</time>
      </trkpt>
      <trkpt lat="48.73896" lon="2.00161">
        <ele>172</ele>
        <time>2021-05-20T06:55:41.000Z</time>
      </trkpt>
      <trkpt lat="48.73895" lon="2.00162">
        <ele>172</ele>
        <time>2021-05-20T06:55:42.000Z</time>
      </trkpt>
      <trkpt lat="48.73894" lon="2.00162">
        <ele>172</ele>
        <time>2021-05-20T06:55:43.000Z</time>
      </trkpt>
      <trkpt lat="48.73893" lon="2.00162">
        <ele>172</ele>
        <time>2021-05-20T06:55:44.000Z</time>
      </trkpt>
      <trkpt lat="48.73892" lon="2.00162">
        <ele>172</ele>
        <time>2021-05-20T06:55:45.000Z</time>
      </trkpt>
      <trkpt lat="48.73892" lon="2.00163">
        <ele>172</ele>
        <time>2021-05-20T06:55:46.000Z</time>
      </trkpt>
      <trkpt lat="48.73891" lon="2.00164">
        <ele>172</ele>
        <time>2021-05-20T06:55:47.000Z</time>
      </trkpt>
      <trkpt lat="48.7389" lon="2.00164">
        <ele>172</ele>
        <time>2021-05-20T06:55:48.000Z</time>
      </trkpt>
      <trkpt lat="48.73889" lon="2.00164">
        <ele>172</ele>
        <time>2021-05-20T06:55:49.000Z</time>
      </trkpt>
      <trkpt lat="48.73888" lon="2.00164">
        <ele>172</ele>
        <time>2021-05-20T06:55:50.000Z</time>
      </trkpt>
      <trkpt lat="48.73886" lon="2.00165">
        <ele>172</ele>
        <time>2021-05-20T06:55:51.000Z</time>
      </trkpt>
      <trkpt lat="48.73885" lon="2.00165">
        <ele>172</ele>
        <time>2021-05-20T06:55:52.000Z</time>
      </trkpt>
      <trkpt lat="48.73884" lon="2.00166">
        <ele>172</ele>
        <time>2021-05-20T06:55:53.000Z</time>
      </trkpt>
      <trkpt lat="48.73883" lon="2.00166">
        <ele>172</ele>
        <time>2021-05-20T06:55:54.000Z</time>
      </trkpt>
      <trkpt lat="48.73882" lon="2.00166">
        <ele>172</ele>
        <time>2021-05-20T06:55:55.000Z</time>
      </trkpt>
      <trkpt lat="48.73881" lon="2.00166">
        <ele>171</ele>
        <time>2021-05-20T06:55:56.000Z</time>
      </trkpt>
      <trkpt lat="48.7388" lon="2.00166">
        <ele>171</ele>
        <time>2021-05-20T06:55:57.000Z</time>
      </trkpt>
      <trkpt lat="48.73878" lon="2.00166">
        <ele>171</ele>
        <time>2021-05-20T06:55:58.000Z</time>
      </trkpt>
      <trkpt lat="48.73877" lon="2.00166">
        <ele>171</ele>
        <time>2021-05-20T06:55:59.000Z</time>
      </trkpt>
      <trkpt lat="48.73875" lon="2.00167">
        <ele>171</ele>
        <time>2021-05-20T06:56:00.000Z</time>
      </trkpt>
      <trkpt lat="48.73873" lon="2.00167">
        <ele>171</ele>
        <time>2021-05-20T06:56:01.000Z</time>
      </trkpt>
      <trkpt lat="48.73872" lon="2.00167">
        <ele>171</ele>
        <time>2021-05-20T06:56:02.000Z</time>
      </trkpt>
      <trkpt lat="48.7387" lon="2.00167">
        <ele>171</ele>
        <time>2021-05-20T06:56:03.000Z</time>
      </trkpt>
      <trkpt lat="48.73869" lon="2.00167">
        <ele>171</ele>
        <time>2021-05-20T06:56:04.000Z</time>
      </trkpt>
      <trkpt lat="48.73867" lon="2.00168">
        <ele>171</ele>
        <time>2021-05-20T06:56:05.000Z</time>
      </trkpt>
      <trkpt lat="48.73865" lon="2.00168">
        <ele>172</ele>
        <time>2021-05-20T06:56:06.000Z</time>
      </trkpt>
      <trkpt lat="48.73864" lon="2.00168">
        <ele>172</ele>
        <time>2021-05-20T06:56:07.000Z</time>
      </trkpt>
      <trkpt lat="48.73862" lon="2.00169">
        <ele>172</ele>
        <time>2021-05-20T06:56:08.000Z</time>
      </trkpt>
      <trkpt lat="48.73861" lon="2.00169">
        <ele>172</ele>
        <time>2021-05-20T06:56:09.000Z</time>
      </trkpt>
      <trkpt lat="48.73859" lon="2.00169">
        <ele>172</ele>
        <time>2021-05-20T06:56:10.000Z</time>
      </trkpt>
      <trkpt lat="48.73858" lon="2.00169">
        <ele>172</ele>
        <time>2021-05-20T06:56:11.000Z</time>
      </trkpt>
      <trkpt lat="48.73857" lon="2.0017">
        <ele>172</ele>
        <time>2021-05-20T06:56:12.000Z</time>
      </trkpt>
      <trkpt lat="48.73855" lon="2.0017">
        <ele>172</ele>
        <time>2021-05-20T06:56:13.000Z</time>
      </trkpt>
      <trkpt lat="48.73853" lon="2.00169">
        <ele>172</ele>
        <time>2021-05-20T06:56:14.000Z</time>
      </trkpt>
      <trkpt lat="48.73852" lon="2.00169">
        <ele>172</ele>
        <time>2021-05-20T06:56:15.000Z</time>
      </trkpt>
      <trkpt lat="48.73851" lon="2.0017">
        <ele>172</ele>
        <time>2021-05-20T06:56:16.000Z</time>
      </trkpt>
      <trkpt lat="48.7385" lon="2.0017">
        <ele>172</ele>
        <time>2021-05-20T06:56:17.000Z</time>
      </trkpt>
      <trkpt lat="48.73848" lon="2.0017">
        <ele>172</ele>
        <time>2021-05-20T06:56:18.000Z</time>
      </trkpt>
      <trkpt lat="48.73847" lon="2.0017">
        <ele>172</ele>
        <time>2021-05-20T06:56:19.000Z</time>
      </trkpt>
      <trkpt lat="48.73845" lon="2.0017">
        <ele>172</ele>
        <time>2021-05-20T06:56:20.000Z</time>
      </trkpt>
      <trkpt lat="48.73844" lon="2.0017">
        <ele>172</ele>
        <time>2021-05-20T06:56:21.000Z</time>
      </trkpt>
      <trkpt lat="48.73843" lon="2.0017">
        <ele>172</ele>
        <time>2021-05-20T06:56:22.000Z</time>
      </trkpt>
      <trkpt lat="48.73841" lon="2.0017">
        <ele>172</ele>
        <time>2021-05-20T06:56:23.000Z</time>
      </trkpt>
      <trkpt lat="48.7384" lon="2.0017">
        <ele>172</ele>
        <time>2021-05-20T06:56:24.000Z</time>
      </trkpt>
      <trkpt lat="48.73839" lon="2.0017">
        <ele>172</ele>
        <time>2021-05-20T06:56:25.000Z</time>
      </trkpt>
      <trkpt lat="48.73838" lon="2.00171">
        <ele>172</ele>
        <time>2021-05-20T06:56:26.000Z</time>
      </trkpt>
      <trkpt lat="48.73837" lon="2.00171">
        <ele>172</ele>
        <time>2021-05-20T06:56:27.000Z</time>
      </trkpt>
      <trkpt lat="48.73835" lon="2.00171">
        <ele>172</ele>
        <time>2021-05-20T06:56:28.000Z</time>
      </trkpt>
      <trkpt lat="48.73834" lon="2.00171">
        <ele>172</ele>
        <time>2021-05-20T06:56:29.000Z</time>
      </trkpt>
      <trkpt lat="48.73833" lon="2.00171">
        <ele>172</ele>
        <time>2021-05-20T06:56:30.000Z</time>
      </trkpt>
      <trkpt lat="48.73832" lon="2.00171">
        <ele>172</ele>
        <time>2021-05-20T06:56:31.000Z</time>
      </trkpt>
      <trkpt lat="48.73831" lon="2.00171">
        <ele>172</ele>
        <time>2021-05-20T06:56:32.000Z</time>
      </trkpt>
      <trkpt lat="48.7383" lon="2.00171">
        <ele>172</ele>
        <time>2021-05-20T06:56:33.000Z</time>
      </trkpt>
      <trkpt lat="48.73829" lon="2.00171">
        <ele>172</ele>
        <time>2021-05-20T06:56:34.000Z</time>
      </trkpt>
      <trkpt lat="48.73827" lon="2.00171">
        <ele>173</ele>
        <time>2021-05-20T06:56:35.000Z</time>
      </trkpt>
      <trkpt lat="48.73827" lon="2.0017">
        <ele>173</ele>
        <time>2021-05-20T06:56:36.000Z</time>
      </trkpt>
      <trkpt lat="48.73825" lon="2.0017">
        <ele>173</ele>
        <time>2021-05-20T06:56:37.000Z</time>
      </trkpt>
      <trkpt lat="48.73824" lon="2.00169">
        <ele>173</ele>
        <time>2021-05-20T06:56:38.000Z</time>
      </trkpt>
      <trkpt lat="48.73823" lon="2.00169">
        <ele>173</ele>
        <time>2021-05-20T06:56:39.000Z</time>
      </trkpt>
      <trkpt lat="48.73822" lon="2.00168">
        <ele>173</ele>
        <time>2021-05-20T06:56:40.000Z</time>
      </trkpt>
      <trkpt lat="48.73821" lon="2.00168">
        <ele>173</ele>
        <time>2021-05-20T06:56:41.000Z</time>
      </trkpt>
      <trkpt lat="48.7382" lon="2.00167">
        <ele>173</ele>
        <time>2021-05-20T06:56:42.000Z</time>
      </trkpt>
      <trkpt lat="48.73819" lon="2.00166">
        <ele>173</ele>
        <time>2021-05-20T06:56:43.000Z</time>
      </trkpt>
      <trkpt lat="48.73818" lon="2.00166">
        <ele>173</ele>
        <time>2021-05-20T06:56:44.000Z</time>
      </trkpt>
      <trkpt lat="48.73817" lon="2.00166">
        <ele>173</ele>
        <time>2021-05-20T06:56:45.000Z</time>
      </trkpt>
      <trkpt lat="48.73817" lon="2.00167">
        <ele>173</ele>
        <time>2021-05-20T06:56:46.000Z</time>
      </trkpt>
      <trkpt lat="48.73816" lon="2.00167">
        <ele>173</ele>
        <time>2021-05-20T06:56:47.000Z</time>
      </trkpt>
      <trkpt lat="48.73815" lon="2.00167">
        <ele>173</ele>
        <time>2021-05-20T06:56:48.000Z</time>
      </trkpt>
      <trkpt lat="48.73814" lon="2.00168">
        <ele>173</ele>
        <time>2021-05-20T06:56:49.000Z</time>
      </trkpt>
      <trkpt lat="48.73813" lon="2.00168">
        <ele>173</ele>
        <time>2021-05-20T06:56:50.000Z</time>
      </trkpt>
      <trkpt lat="48.73812" lon="2.00168">
        <ele>173</ele>
        <time>2021-05-20T06:56:51.000Z</time>
      </trkpt>
      <trkpt lat="48.7381" lon="2.00168">
        <ele>173</ele>
        <time>2021-05-20T06:56:52.000Z</time>
      </trkpt>
      <trkpt lat="48.7381" lon="2.00168">
        <ele>173</ele>
        <time>2021-05-20T06:56:53.000Z</time>
      </trkpt>
      <trkpt lat="48.73809" lon="2.00169">
        <ele>173</ele>
        <time>2021-05-20T06:56:54.000Z</time>
      </trkpt>
      <trkpt lat="48.73808" lon="2.00169">
        <ele>173</ele>
        <time>2021-05-20T06:56:55.000Z</time>
      </trkpt>
      <trkpt lat="48.73807" lon="2.00169">
        <ele>173</ele>
        <time>2021-05-20T06:56:56.000Z</time>
      </trkpt>
      <trkpt lat="48.73806" lon="2.00169">
        <ele>173</ele>
        <time>2021-05-20T06:56:57.000Z</time>
      </trkpt>
      <trkpt lat="48.73806" lon="2.00169">
        <ele>173</ele>
        <time>2021-05-20T06:56:58.000Z</time>
      </trkpt>
      <trkpt lat="48.73805" lon="2.00169">
        <ele>173</ele>
        <time>2021-05-20T06:56:59.000Z</time>
      </trkpt>
      <trkpt lat="48.73804" lon="2.00169">
        <ele>173</ele>
        <time>2021-05-20T06:57:00.000Z</time>
      </trkpt>
      <trkpt lat="48.73803" lon="2.00169">
        <ele>173</ele>
        <time>2021-05-20T06:57:01.000Z</time>
      </trkpt>
      <trkpt lat="48.73802" lon="2.00169">
        <ele>173</ele>
        <time>2021-05-20T06:57:02.000Z</time>
      </trkpt>
      <trkpt lat="48.73801" lon="2.00169">
        <ele>173</ele>
        <time>2021-05-20T06:57:03.000Z</time>
      </trkpt>
      <trkpt lat="48.738" lon="2.00169">
        <ele>173</ele>
        <time>2021-05-20T06:57:04.000Z</time>
      </trkpt>
      <trkpt lat="48.73799" lon="2.00169">
        <ele>173</ele>
        <time>2021-05-20T06:57:05.000Z</time>
      </trkpt>
      <trkpt lat="48.73798" lon="2.00169">
        <ele>173</ele>
        <time>2021-05-20T06:57:06.000Z</time>
      </trkpt>
      <trkpt lat="48.73797" lon="2.00169">
        <ele>173</ele>
        <time>2021-05-20T06:57:07.000Z</time>
      </trkpt>
      <trkpt lat="48.73796" lon="2.00168">
        <ele>174</ele>
        <time>2021-05-20T06:57:08.000Z</time>
      </trkpt>
      <trkpt lat="48.73795" lon="2.00168">
        <ele>174</ele>
        <time>2021-05-20T06:57:09.000Z</time>
      </trkpt>
      <trkpt lat="48.73794" lon="2.00168">
        <ele>174</ele>
        <time>2021-05-20T06:57:10.000Z</time>
      </trkpt>
      <trkpt lat="48.73792" lon="2.00168">
        <ele>174</ele>
        <time>2021-05-20T06:57:11.000Z</time>
      </trkpt>
      <trkpt lat="48.73791" lon="2.00168">
        <ele>174</ele>
        <time>2021-05-20T06:57:12.000Z</time>
      </trkpt>
      <trkpt lat="48.73791" lon="2.00168">
        <ele>174</ele>
        <time>2021-05-20T06:57:13.000Z</time>
      </trkpt>
      <trkpt lat="48.7379" lon="2.00168">
        <ele>174</ele>
        <time>2021-05-20T06:57:14.000Z</time>
      </trkpt>
      <trkpt lat="48.73789" lon="2.00167">
        <ele>174</ele>
        <time>2021-05-20T06:57:15.000Z</time>
      </trkpt>
      <trkpt lat="48.73789" lon="2.00168">
        <ele>174</ele>
        <time>2021-05-20T06:57:16.000Z</time>
      </trkpt>
      <trkpt lat="48.73788" lon="2.00168">
        <ele>174</ele>
        <time>2021-05-20T06:57:17.000Z</time>
      </trkpt>
      <trkpt lat="48.73788" lon="2.00169">
        <ele>174</ele>
        <time>2021-05-20T06:57:18.000Z</time>
      </trkpt>
      <trkpt lat="48.73787" lon="2.00169">
        <ele>174</ele>
        <time>2021-05-20T06:57:19.000Z</time>
      </trkpt>
      <trkpt lat="48.73786" lon="2.00169">
        <ele>174</ele>
        <time>2021-05-20T06:57:20.000Z</time>
      </trkpt>
      <trkpt lat="48.73786" lon="2.00169">
        <ele>174</ele>
        <time>2021-05-20T06:57:21.000Z</time>
      </trkpt>
      <trkpt lat="48.73783" lon="2.00171">
        <ele>174</ele>
        <time>2021-05-20T06:57:22.000Z</time>
      </trkpt>
      <trkpt lat="48.73782" lon="2.00172">
        <ele>174</ele>
        <time>2021-05-20T06:57:23.000Z</time>
      </trkpt>
      <trkpt lat="48.73781" lon="2.00172">
        <ele>174</ele>
        <time>2021-05-20T06:57:24.000Z</time>
      </trkpt>
      <trkpt lat="48.73779" lon="2.00172">
        <ele>174</ele>
        <time>2021-05-20T06:57:25.000Z</time>
      </trkpt>
      <trkpt lat="48.73778" lon="2.00172">
        <ele>174</ele>
        <time>2021-05-20T06:57:26.000Z</time>
      </trkpt>
      <trkpt lat="48.73777" lon="2.00172">
        <ele>174</ele>
        <time>2021-05-20T06:57:27.000Z</time>
      </trkpt>
      <trkpt lat="48.73776" lon="2.00172">
        <ele>174</ele>
        <time>2021-05-20T06:57:28.000Z</time>
      </trkpt>
      <trkpt lat="48.73775" lon="2.00172">
        <ele>174</ele>
        <time>2021-05-20T06:57:29.000Z</time>
      </trkpt>
      <trkpt lat="48.73774" lon="2.00173">
        <ele>173</ele>
        <time>2021-05-20T06:57:30.000Z</time>
      </trkpt>
      <trkpt lat="48.73773" lon="2.00174">
        <ele>173</ele>
        <time>2021-05-20T06:57:31.000Z</time>
      </trkpt>
      <trkpt lat="48.73772" lon="2.00174">
        <ele>173</ele>
        <time>2021-05-20T06:57:32.000Z</time>
      </trkpt>
      <trkpt lat="48.73771" lon="2.00174">
        <ele>173</ele>
        <time>2021-05-20T06:57:33.000Z</time>
      </trkpt>
      <trkpt lat="48.73771" lon="2.00175">
        <ele>173</ele>
        <time>2021-05-20T06:57:34.000Z</time>
      </trkpt>
      <trkpt lat="48.7377" lon="2.00175">
        <ele>173</ele>
        <time>2021-05-20T06:57:35.000Z</time>
      </trkpt>
      <trkpt lat="48.73768" lon="2.00176">
        <ele>173</ele>
        <time>2021-05-20T06:57:36.000Z</time>
      </trkpt>
      <trkpt lat="48.73767" lon="2.00176">
        <ele>173</ele>
        <time>2021-05-20T06:57:37.000Z</time>
      </trkpt>
      <trkpt lat="48.73766" lon="2.00176">
        <ele>173</ele>
        <time>2021-05-20T06:57:38.000Z</time>
      </trkpt>
      <trkpt lat="48.73765" lon="2.00177">
        <ele>173</ele>
        <time>2021-05-20T06:57:39.000Z</time>
      </trkpt>
      <trkpt lat="48.73765" lon="2.00177">
        <ele>173</ele>
        <time>2021-05-20T06:57:40.000Z</time>
      </trkpt>
      <trkpt lat="48.73764" lon="2.00178">
        <ele>173</ele>
        <time>2021-05-20T06:57:41.000Z</time>
      </trkpt>
      <trkpt lat="48.73763" lon="2.00178">
        <ele>173</ele>
        <time>2021-05-20T06:57:42.000Z</time>
      </trkpt>
      <trkpt lat="48.73762" lon="2.00179">
        <ele>174</ele>
        <time>2021-05-20T06:57:43.000Z</time>
      </trkpt>
      <trkpt lat="48.73761" lon="2.00179">
        <ele>174</ele>
        <time>2021-05-20T06:57:44.000Z</time>
      </trkpt>
      <trkpt lat="48.7376" lon="2.0018">
        <ele>174</ele>
        <time>2021-05-20T06:57:45.000Z</time>
      </trkpt>
      <trkpt lat="48.73759" lon="2.0018">
        <ele>174</ele>
        <time>2021-05-20T06:57:46.000Z</time>
      </trkpt>
      <trkpt lat="48.73757" lon="2.0018">
        <ele>174</ele>
        <time>2021-05-20T06:57:47.000Z</time>
      </trkpt>
      <trkpt lat="48.73756" lon="2.0018">
        <ele>174</ele>
        <time>2021-05-20T06:57:48.000Z</time>
      </trkpt>
      <trkpt lat="48.73754" lon="2.00181">
        <ele>174</ele>
        <time>2021-05-20T06:57:49.000Z</time>
      </trkpt>
      <trkpt lat="48.73753" lon="2.00181">
        <ele>174</ele>
        <time>2021-05-20T06:57:50.000Z</time>
      </trkpt>
      <trkpt lat="48.73751" lon="2.00181">
        <ele>174</ele>
        <time>2021-05-20T06:57:51.000Z</time>
      </trkpt>
      <trkpt lat="48.7375" lon="2.00181">
        <ele>174</ele>
        <time>2021-05-20T06:57:52.000Z</time>
      </trkpt>
      <trkpt lat="48.73749" lon="2.00181">
        <ele>174</ele>
        <time>2021-05-20T06:57:53.000Z</time>
      </trkpt>
      <trkpt lat="48.73748" lon="2.00181">
        <ele>174</ele>
        <time>2021-05-20T06:57:54.000Z</time>
      </trkpt>
      <trkpt lat="48.73746" lon="2.00182">
        <ele>174</ele>
        <time>2021-05-20T06:57:55.000Z</time>
      </trkpt>
      <trkpt lat="48.73745" lon="2.00182">
        <ele>174</ele>
        <time>2021-05-20T06:57:56.000Z</time>
      </trkpt>
      <trkpt lat="48.73744" lon="2.00182">
        <ele>174</ele>
        <time>2021-05-20T06:57:57.000Z</time>
      </trkpt>
      <trkpt lat="48.73743" lon="2.00182">
        <ele>174</ele>
        <time>2021-05-20T06:57:58.000Z</time>
      </trkpt>
      <trkpt lat="48.73741" lon="2.00182">
        <ele>174</ele>
        <time>2021-05-20T06:57:59.000Z</time>
      </trkpt>
      <trkpt lat="48.7374" lon="2.00183">
        <ele>174</ele>
        <time>2021-05-20T06:58:00.000Z</time>
      </trkpt>
      <trkpt lat="48.73738" lon="2.00183">
        <ele>174</ele>
        <time>2021-05-20T06:58:01.000Z</time>
      </trkpt>
      <trkpt lat="48.73737" lon="2.00184">
        <ele>174</ele>
        <time>2021-05-20T06:58:02.000Z</time>
      </trkpt>
      <trkpt lat="48.73736" lon="2.00184">
        <ele>174</ele>
        <time>2021-05-20T06:58:03.000Z</time>
      </trkpt>
      <trkpt lat="48.73735" lon="2.00184">
        <ele>174</ele>
        <time>2021-05-20T06:58:04.000Z</time>
      </trkpt>
      <trkpt lat="48.73733" lon="2.00185">
        <ele>174</ele>
        <time>2021-05-20T06:58:05.000Z</time>
      </trkpt>
      <trkpt lat="48.73732" lon="2.00185">
        <ele>174</ele>
        <time>2021-05-20T06:58:06.000Z</time>
      </trkpt>
      <trkpt lat="48.7373" lon="2.00186">
        <ele>174</ele>
        <time>2021-05-20T06:58:07.000Z</time>
      </trkpt>
      <trkpt lat="48.73729" lon="2.00186">
        <ele>174</ele>
        <time>2021-05-20T06:58:08.000Z</time>
      </trkpt>
      <trkpt lat="48.73727" lon="2.00186">
        <ele>174</ele>
        <time>2021-05-20T06:58:09.000Z</time>
      </trkpt>
      <trkpt lat="48.73726" lon="2.00186">
        <ele>174</ele>
        <time>2021-05-20T06:58:10.000Z</time>
      </trkpt>
      <trkpt lat="48.73724" lon="2.00186">
        <ele>174</ele>
        <time>2021-05-20T06:58:11.000Z</time>
      </trkpt>
      <trkpt lat="48.73722" lon="2.00186">
        <ele>174</ele>
        <time>2021-05-20T06:58:12.000Z</time>
      </trkpt>
      <trkpt lat="48.73721" lon="2.00187">
        <ele>174</ele>
        <time>2021-05-20T06:58:13.000Z</time>
      </trkpt>
      <trkpt lat="48.73719" lon="2.00187">
        <ele>174</ele>
        <time>2021-05-20T06:58:14.000Z</time>
      </trkpt>
      <trkpt lat="48.73718" lon="2.00187">
        <ele>174</ele>
        <time>2021-05-20T06:58:15.000Z</time>
      </trkpt>
      <trkpt lat="48.73716" lon="2.00187">
        <ele>174</ele>
        <time>2021-05-20T06:58:16.000Z</time>
      </trkpt>
      <trkpt lat="48.73715" lon="2.00187">
        <ele>174</ele>
        <time>2021-05-20T06:58:17.000Z</time>
      </trkpt>
      <trkpt lat="48.73714" lon="2.00187">
        <ele>174</ele>
        <time>2021-05-20T06:58:18.000Z</time>
      </trkpt>
      <trkpt lat="48.73712" lon="2.00187">
        <ele>174</ele>
        <time>2021-05-20T06:58:19.000Z</time>
      </trkpt>
      <trkpt lat="48.73711" lon="2.00188">
        <ele>174</ele>
        <time>2021-05-20T06:58:20.000Z</time>
      </trkpt>
      <trkpt lat="48.7371" lon="2.00188">
        <ele>174</ele>
        <time>2021-05-20T06:58:21.000Z</time>
      </trkpt>
      <trkpt lat="48.73709" lon="2.00188">
        <ele>174</ele>
        <time>2021-05-20T06:58:22.000Z</time>
      </trkpt>
      <trkpt lat="48.73707" lon="2.00188">
        <ele>174</ele>
        <time>2021-05-20T06:58:23.000Z</time>
      </trkpt>
      <trkpt lat="48.73706" lon="2.00189">
        <ele>174</ele>
        <time>2021-05-20T06:58:24.000Z</time>
      </trkpt>
      <trkpt lat="48.73705" lon="2.00189">
        <ele>173</ele>
        <time>2021-05-20T06:58:25.000Z</time>
      </trkpt>
      <trkpt lat="48.73703" lon="2.00189">
        <ele>173</ele>
        <time>2021-05-20T06:58:26.000Z</time>
      </trkpt>
      <trkpt lat="48.73702" lon="2.00189">
        <ele>173</ele>
        <time>2021-05-20T06:58:27.000Z</time>
      </trkpt>
      <trkpt lat="48.73701" lon="2.0019">
        <ele>173</ele>
        <time>2021-05-20T06:58:28.000Z</time>
      </trkpt>
      <trkpt lat="48.737" lon="2.0019">
        <ele>173</ele>
        <time>2021-05-20T06:58:29.000Z</time>
      </trkpt>
      <trkpt lat="48.73699" lon="2.0019">
        <ele>173</ele>
        <time>2021-05-20T06:58:30.000Z</time>
      </trkpt>
      <trkpt lat="48.73698" lon="2.0019">
        <ele>173</ele>
        <time>2021-05-20T06:58:31.000Z</time>
      </trkpt>
      <trkpt lat="48.73697" lon="2.0019">
        <ele>173</ele>
        <time>2021-05-20T06:58:32.000Z</time>
      </trkpt>
      <trkpt lat="48.73696" lon="2.0019">
        <ele>173</ele>
        <time>2021-05-20T06:58:33.000Z</time>
      </trkpt>
      <trkpt lat="48.73695" lon="2.0019">
        <ele>173</ele>
        <time>2021-05-20T06:58:34.000Z</time>
      </trkpt>
      <trkpt lat="48.73693" lon="2.0019">
        <ele>173</ele>
        <time>2021-05-20T06:58:35.000Z</time>
      </trkpt>
      <trkpt lat="48.73692" lon="2.00191">
        <ele>173</ele>
        <time>2021-05-20T06:58:36.000Z</time>
      </trkpt>
      <trkpt lat="48.7369" lon="2.00191">
        <ele>173</ele>
        <time>2021-05-20T06:58:37.000Z</time>
      </trkpt>
      <trkpt lat="48.73689" lon="2.00192">
        <ele>173</ele>
        <time>2021-05-20T06:58:38.000Z</time>
      </trkpt>
      <trkpt lat="48.73688" lon="2.00192">
        <ele>173</ele>
        <time>2021-05-20T06:58:39.000Z</time>
      </trkpt>
      <trkpt lat="48.73686" lon="2.00193">
        <ele>173</ele>
        <time>2021-05-20T06:58:40.000Z</time>
      </trkpt>
      <trkpt lat="48.73685" lon="2.00194">
        <ele>173</ele>
        <time>2021-05-20T06:58:41.000Z</time>
      </trkpt>
      <trkpt lat="48.73684" lon="2.00194">
        <ele>174</ele>
        <time>2021-05-20T06:58:42.000Z</time>
      </trkpt>
      <trkpt lat="48.73682" lon="2.00194">
        <ele>174</ele>
        <time>2021-05-20T06:58:43.000Z</time>
      </trkpt>
      <trkpt lat="48.73681" lon="2.00194">
        <ele>174</ele>
        <time>2021-05-20T06:58:44.000Z</time>
      </trkpt>
      <trkpt lat="48.7368" lon="2.00194">
        <ele>174</ele>
        <time>2021-05-20T06:58:45.000Z</time>
      </trkpt>
      <trkpt lat="48.73678" lon="2.00195">
        <ele>174</ele>
        <time>2021-05-20T06:58:46.000Z</time>
      </trkpt>
      <trkpt lat="48.73677" lon="2.00195">
        <ele>174</ele>
        <time>2021-05-20T06:58:47.000Z</time>
      </trkpt>
      <trkpt lat="48.73676" lon="2.00195">
        <ele>174</ele>
        <time>2021-05-20T06:58:48.000Z</time>
      </trkpt>
      <trkpt lat="48.73674" lon="2.00195">
        <ele>174</ele>
        <time>2021-05-20T06:58:49.000Z</time>
      </trkpt>
      <trkpt lat="48.73673" lon="2.00196">
        <ele>174</ele>
        <time>2021-05-20T06:58:50.000Z</time>
      </trkpt>
      <trkpt lat="48.73672" lon="2.00196">
        <ele>174</ele>
        <time>2021-05-20T06:58:51.000Z</time>
      </trkpt>
      <trkpt lat="48.73671" lon="2.00196">
        <ele>174</ele>
        <time>2021-05-20T06:58:52.000Z</time>
      </trkpt>
      <trkpt lat="48.73669" lon="2.00196">
        <ele>174</ele>
        <time>2021-05-20T06:58:53.000Z</time>
      </trkpt>
      <trkpt lat="48.73668" lon="2.00196">
        <ele>174</ele>
        <time>2021-05-20T06:58:54.000Z</time>
      </trkpt>
      <trkpt lat="48.73667" lon="2.00197">
        <ele>174</ele>
        <time>2021-05-20T06:58:55.000Z</time>
      </trkpt>
      <trkpt lat="48.73665" lon="2.00197">
        <ele>174</ele>
        <time>2021-05-20T06:58:56.000Z</time>
      </trkpt>
      <trkpt lat="48.73664" lon="2.00198">
        <ele>174</ele>
        <time>2021-05-20T06:58:57.000Z</time>
      </trkpt>
      <trkpt lat="48.73663" lon="2.00198">
        <ele>174</ele>
        <time>2021-05-20T06:58:58.000Z</time>
      </trkpt>
      <trkpt lat="48.73661" lon="2.00199">
        <ele>174</ele>
        <time>2021-05-20T06:58:59.000Z</time>
      </trkpt>
      <trkpt lat="48.7366" lon="2.00199">
        <ele>174</ele>
        <time>2021-05-20T06:59:00.000Z</time>
      </trkpt>
      <trkpt lat="48.73658" lon="2.002">
        <ele>174</ele>
        <time>2021-05-20T06:59:01.000Z</time>
      </trkpt>
      <trkpt lat="48.73657" lon="2.002">
        <ele>174</ele>
        <time>2021-05-20T06:59:02.000Z</time>
      </trkpt>
      <trkpt lat="48.73655" lon="2.002">
        <ele>174</ele>
        <time>2021-05-20T06:59:03.000Z</time>
      </trkpt>
      <trkpt lat="48.73654" lon="2.002">
        <ele>174</ele>
        <time>2021-05-20T06:59:04.000Z</time>
      </trkpt>
      <trkpt lat="48.73653" lon="2.002">
        <ele>174</ele>
        <time>2021-05-20T06:59:05.000Z</time>
      </trkpt>
      <trkpt lat="48.73651" lon="2.00201">
        <ele>174</ele>
        <time>2021-05-20T06:59:06.000Z</time>
      </trkpt>
      <trkpt lat="48.7365" lon="2.00201">
        <ele>174</ele>
        <time>2021-05-20T06:59:07.000Z</time>
      </trkpt>
      <trkpt lat="48.73648" lon="2.00201">
        <ele>174</ele>
        <time>2021-05-20T06:59:08.000Z</time>
      </trkpt>
      <trkpt lat="48.73647" lon="2.00201">
        <ele>175</ele>
        <time>2021-05-20T06:59:09.000Z</time>
      </trkpt>
      <trkpt lat="48.73646" lon="2.00202">
        <ele>175</ele>
        <time>2021-05-20T06:59:10.000Z</time>
      </trkpt>
      <trkpt lat="48.73645" lon="2.00202">
        <ele>175</ele>
        <time>2021-05-20T06:59:11.000Z</time>
      </trkpt>
      <trkpt lat="48.73643" lon="2.00202">
        <ele>175</ele>
        <time>2021-05-20T06:59:12.000Z</time>
      </trkpt>
      <trkpt lat="48.73641" lon="2.00202">
        <ele>175</ele>
        <time>2021-05-20T06:59:13.000Z</time>
      </trkpt>
      <trkpt lat="48.7364" lon="2.00202">
        <ele>175</ele>
        <time>2021-05-20T06:59:14.000Z</time>
      </trkpt>
      <trkpt lat="48.73638" lon="2.00202">
        <ele>175</ele>
        <time>2021-05-20T06:59:15.000Z</time>
      </trkpt>
      <trkpt lat="48.73637" lon="2.00202">
        <ele>175</ele>
        <time>2021-05-20T06:59:16.000Z</time>
      </trkpt>
      <trkpt lat="48.73636" lon="2.00203">
        <ele>175</ele>
        <time>2021-05-20T06:59:17.000Z</time>
      </trkpt>
      <trkpt lat="48.73634" lon="2.00203">
        <ele>175</ele>
        <time>2021-05-20T06:59:18.000Z</time>
      </trkpt>
      <trkpt lat="48.73633" lon="2.00203">
        <ele>175</ele>
        <time>2021-05-20T06:59:19.000Z</time>
      </trkpt>
      <trkpt lat="48.73632" lon="2.00204">
        <ele>175</ele>
        <time>2021-05-20T06:59:20.000Z</time>
      </trkpt>
      <trkpt lat="48.73631" lon="2.00204">
        <ele>175</ele>
        <time>2021-05-20T06:59:21.000Z</time>
      </trkpt>
      <trkpt lat="48.73629" lon="2.00205">
        <ele>175</ele>
        <time>2021-05-20T06:59:22.000Z</time>
      </trkpt>
      <trkpt lat="48.73628" lon="2.00205">
        <ele>175</ele>
        <time>2021-05-20T06:59:23.000Z</time>
      </trkpt>
      <trkpt lat="48.73626" lon="2.00206">
        <ele>175</ele>
        <time>2021-05-20T06:59:24.000Z</time>
      </trkpt>
      <trkpt lat="48.73625" lon="2.00206">
        <ele>175</ele>
        <time>2021-05-20T06:59:25.000Z</time>
      </trkpt>
      <trkpt lat="48.73624" lon="2.00206">
        <ele>175</ele>
        <time>2021-05-20T06:59:26.000Z</time>
      </trkpt>
      <trkpt lat="48.73623" lon="2.00206">
        <ele>175</ele>
        <time>2021-05-20T06:59:27.000Z</time>
      </trkpt>
      <trkpt lat="48.73621" lon="2.00207">
        <ele>175</ele>
        <time>2021-05-20T06:59:28.000Z</time>
      </trkpt>
      <trkpt lat="48.7362" lon="2.00207">
        <ele>175</ele>
        <time>2021-05-20T06:59:29.000Z</time>
      </trkpt>
      <trkpt lat="48.73619" lon="2.00207">
        <ele>175</ele>
        <time>2021-05-20T06:59:30.000Z</time>
      </trkpt>
      <trkpt lat="48.73618" lon="2.00207">
        <ele>175</ele>
        <time>2021-05-20T06:59:31.000Z</time>
      </trkpt>
      <trkpt lat="48.73617" lon="2.00207">
        <ele>175</ele>
        <time>2021-05-20T06:59:32.000Z</time>
      </trkpt>
      <trkpt lat="48.73616" lon="2.00207">
        <ele>175</ele>
        <time>2021-05-20T06:59:33.000Z</time>
      </trkpt>
      <trkpt lat="48.73615" lon="2.00208">
        <ele>175</ele>
        <time>2021-05-20T06:59:34.000Z</time>
      </trkpt>
      <trkpt lat="48.73614" lon="2.00208">
        <ele>175</ele>
        <time>2021-05-20T06:59:35.000Z</time>
      </trkpt>
      <trkpt lat="48.73612" lon="2.00207">
        <ele>175</ele>
        <time>2021-05-20T06:59:36.000Z</time>
      </trkpt>
      <trkpt lat="48.73611" lon="2.00207">
        <ele>175</ele>
        <time>2021-05-20T06:59:37.000Z</time>
      </trkpt>
      <trkpt lat="48.73609" lon="2.00207">
        <ele>174</ele>
        <time>2021-05-20T06:59:38.000Z</time>
      </trkpt>
      <trkpt lat="48.73608" lon="2.00207">
        <ele>174</ele>
        <time>2021-05-20T06:59:39.000Z</time>
      </trkpt>
      <trkpt lat="48.73606" lon="2.00207">
        <ele>174</ele>
        <time>2021-05-20T06:59:40.000Z</time>
      </trkpt>
      <trkpt lat="48.73605" lon="2.00207">
        <ele>174</ele>
        <time>2021-05-20T06:59:41.000Z</time>
      </trkpt>
      <trkpt lat="48.73603" lon="2.00208">
        <ele>174</ele>
        <time>2021-05-20T06:59:42.000Z</time>
      </trkpt>
      <trkpt lat="48.73601" lon="2.00208">
        <ele>174</ele>
        <time>2021-05-20T06:59:43.000Z</time>
      </trkpt>
      <trkpt lat="48.736" lon="2.00209">
        <ele>174</ele>
        <time>2021-05-20T06:59:44.000Z</time>
      </trkpt>
      <trkpt lat="48.73598" lon="2.0021">
        <ele>174</ele>
        <time>2021-05-20T06:59:45.000Z</time>
      </trkpt>
      <trkpt lat="48.73596" lon="2.0021">
        <ele>173</ele>
        <time>2021-05-20T06:59:46.000Z</time>
      </trkpt>
      <trkpt lat="48.73595" lon="2.00211">
        <ele>173</ele>
        <time>2021-05-20T06:59:47.000Z</time>
      </trkpt>
      <trkpt lat="48.73594" lon="2.00212">
        <ele>173</ele>
        <time>2021-05-20T06:59:48.000Z</time>
      </trkpt>
      <trkpt lat="48.73593" lon="2.00213">
        <ele>173</ele>
        <time>2021-05-20T06:59:49.000Z</time>
      </trkpt>
      <trkpt lat="48.73591" lon="2.00213">
        <ele>173</ele>
        <time>2021-05-20T06:59:50.000Z</time>
      </trkpt>
      <trkpt lat="48.7359" lon="2.00214">
        <ele>173</ele>
        <time>2021-05-20T06:59:51.000Z</time>
      </trkpt>
      <trkpt lat="48.73588" lon="2.00215">
        <ele>173</ele>
        <time>2021-05-20T06:59:52.000Z</time>
      </trkpt>
      <trkpt lat="48.73587" lon="2.00215">
        <ele>173</ele>
        <time>2021-05-20T06:59:53.000Z</time>
      </trkpt>
      <trkpt lat="48.73585" lon="2.00215">
        <ele>173</ele>
        <time>2021-05-20T06:59:54.000Z</time>
      </trkpt>
      <trkpt lat="48.73584" lon="2.00215">
        <ele>173</ele>
        <time>2021-05-20T06:59:55.000Z</time>
      </trkpt>
      <trkpt lat="48.73583" lon="2.00216">
        <ele>173</ele>
        <time>2021-05-20T06:59:56.000Z</time>
      </trkpt>
      <trkpt lat="48.73581" lon="2.00216">
        <ele>173</ele>
        <time>2021-05-20T06:59:57.000Z</time>
      </trkpt>
      <trkpt lat="48.7358" lon="2.00216">
        <ele>173</ele>
        <time>2021-05-20T06:59:58.000Z</time>
      </trkpt>
      <trkpt lat="48.73579" lon="2.00217">
        <ele>172</ele>
        <time>2021-05-20T06:59:59.000Z</time>
      </trkpt>
      <trkpt lat="48.73578" lon="2.00217">
        <ele>172</ele>
        <time>2021-05-20T07:00:00.000Z</time>
      </trkpt>
      <trkpt lat="48.73577" lon="2.00218">
        <ele>172</ele>
        <time>2021-05-20T07:00:01.000Z</time>
      </trkpt>
      <trkpt lat="48.73576" lon="2.00218">
        <ele>172</ele>
        <time>2021-05-20T07:00:02.000Z</time>
      </trkpt>
      <trkpt lat="48.73575" lon="2.00219">
        <ele>172</ele>
        <time>2021-05-20T07:00:03.000Z</time>
      </trkpt>
      <trkpt lat="48.73574" lon="2.00219">
        <ele>172</ele>
        <time>2021-05-20T07:00:04.000Z</time>
      </trkpt>
      <trkpt lat="48.73573" lon="2.00219">
        <ele>171</ele>
        <time>2021-05-20T07:00:05.000Z</time>
      </trkpt>
      <trkpt lat="48.73572" lon="2.00219">
        <ele>171</ele>
        <time>2021-05-20T07:00:06.000Z</time>
      </trkpt>
      <trkpt lat="48.73571" lon="2.0022">
        <ele>171</ele>
        <time>2021-05-20T07:00:07.000Z</time>
      </trkpt>
      <trkpt lat="48.7357" lon="2.0022">
        <ele>171</ele>
        <time>2021-05-20T07:00:08.000Z</time>
      </trkpt>
      <trkpt lat="48.73569" lon="2.0022">
        <ele>171</ele>
        <time>2021-05-20T07:00:09.000Z</time>
      </trkpt>
      <trkpt lat="48.73568" lon="2.0022">
        <ele>170</ele>
        <time>2021-05-20T07:00:10.000Z</time>
      </trkpt>
      <trkpt lat="48.73567" lon="2.0022">
        <ele>170</ele>
        <time>2021-05-20T07:00:11.000Z</time>
      </trkpt>
      <trkpt lat="48.73566" lon="2.00219">
        <ele>170</ele>
        <time>2021-05-20T07:00:12.000Z</time>
      </trkpt>
      <trkpt lat="48.73565" lon="2.00219">
        <ele>170</ele>
        <time>2021-05-20T07:00:13.000Z</time>
      </trkpt>
      <trkpt lat="48.73565" lon="2.0022">
        <ele>169</ele>
        <time>2021-05-20T07:00:14.000Z</time>
      </trkpt>
      <trkpt lat="48.73564" lon="2.0022">
        <ele>169</ele>
        <time>2021-05-20T07:00:15.000Z</time>
      </trkpt>
      <trkpt lat="48.73564" lon="2.0022">
        <ele>169</ele>
        <time>2021-05-20T07:00:16.000Z</time>
      </trkpt>
      <trkpt lat="48.73563" lon="2.00221">
        <ele>168</ele>
        <time>2021-05-20T07:00:17.000Z</time>
      </trkpt>
      <trkpt lat="48.73561" lon="2.00221">
        <ele>168</ele>
        <time>2021-05-20T07:00:18.000Z</time>
      </trkpt>
      <trkpt lat="48.73561" lon="2.00221">
        <ele>168</ele>
        <time>2021-05-20T07:00:19.000Z</time>
      </trkpt>
      <trkpt lat="48.7356" lon="2.00221">
        <ele>168</ele>
        <time>2021-05-20T07:00:20.000Z</time>
      </trkpt>
      <trkpt lat="48.73559" lon="2.00221">
        <ele>167</ele>
        <time>2021-05-20T07:00:21.000Z</time>
      </trkpt>
      <trkpt lat="48.73558" lon="2.00221">
        <ele>167</ele>
        <time>2021-05-20T07:00:22.000Z</time>
      </trkpt>
      <trkpt lat="48.73557" lon="2.00221">
        <ele>167</ele>
        <time>2021-05-20T07:00:23.000Z</time>
      </trkpt>
      <trkpt lat="48.73556" lon="2.00221">
        <ele>167</ele>
        <time>2021-05-20T07:00:24.000Z</time>
      </trkpt>
      <trkpt lat="48.73556" lon="2.0022">
        <ele>166</ele>
        <time>2021-05-20T07:00:25.000Z</time>
      </trkpt>
      <trkpt lat="48.73555" lon="2.00219">
        <ele>166</ele>
        <time>2021-05-20T07:00:26.000Z</time>
      </trkpt>
      <trkpt lat="48.73555" lon="2.00219">
        <ele>166</ele>
        <time>2021-05-20T07:00:27.000Z</time>
      </trkpt>
      <trkpt lat="48.73554" lon="2.00218">
        <ele>166</ele>
        <time>2021-05-20T07:00:28.000Z</time>
      </trkpt>
      <trkpt lat="48.73553" lon="2.00217">
        <ele>166</ele>
        <time>2021-05-20T07:00:29.000Z</time>
      </trkpt>
      <trkpt lat="48.73553" lon="2.00216">
        <ele>165</ele>
        <time>2021-05-20T07:00:30.000Z</time>
      </trkpt>
      <trkpt lat="48.73552" lon="2.00215">
        <ele>165</ele>
        <time>2021-05-20T07:00:31.000Z</time>
      </trkpt>
      <trkpt lat="48.73552" lon="2.00214">
        <ele>165</ele>
        <time>2021-05-20T07:00:32.000Z</time>
      </trkpt>
      <trkpt lat="48.73551" lon="2.00212">
        <ele>165</ele>
        <time>2021-05-20T07:00:33.000Z</time>
      </trkpt>
      <trkpt lat="48.73551" lon="2.00211">
        <ele>164</ele>
        <time>2021-05-20T07:00:34.000Z</time>
      </trkpt>
      <trkpt lat="48.73551" lon="2.00209">
        <ele>164</ele>
        <time>2021-05-20T07:00:35.000Z</time>
      </trkpt>
      <trkpt lat="48.7355" lon="2.00208">
        <ele>164</ele>
        <time>2021-05-20T07:00:36.000Z</time>
      </trkpt>
      <trkpt lat="48.7355" lon="2.00207">
        <ele>164</ele>
        <time>2021-05-20T07:00:37.000Z</time>
      </trkpt>
      <trkpt lat="48.73549" lon="2.00205">
        <ele>164</ele>
        <time>2021-05-20T07:00:38.000Z</time>
      </trkpt>
      <trkpt lat="48.73549" lon="2.00204">
        <ele>164</ele>
        <time>2021-05-20T07:00:39.000Z</time>
      </trkpt>
      <trkpt lat="48.73548" lon="2.00202">
        <ele>163</ele>
        <time>2021-05-20T07:00:40.000Z</time>
      </trkpt>
      <trkpt lat="48.73548" lon="2.002">
        <ele>163</ele>
        <time>2021-05-20T07:00:41.000Z</time>
      </trkpt>
      <trkpt lat="48.73547" lon="2.00198">
        <ele>163</ele>
        <time>2021-05-20T07:00:42.000Z</time>
      </trkpt>
      <trkpt lat="48.73547" lon="2.00197">
        <ele>163</ele>
        <time>2021-05-20T07:00:43.000Z</time>
      </trkpt>
      <trkpt lat="48.73546" lon="2.00195">
        <ele>162</ele>
        <time>2021-05-20T07:00:44.000Z</time>
      </trkpt>
      <trkpt lat="48.73546" lon="2.00193">
        <ele>162</ele>
        <time>2021-05-20T07:00:45.000Z</time>
      </trkpt>
      <trkpt lat="48.73545" lon="2.00191">
        <ele>162</ele>
        <time>2021-05-20T07:00:46.000Z</time>
      </trkpt>
      <trkpt lat="48.73545" lon="2.0019">
        <ele>162</ele>
        <time>2021-05-20T07:00:47.000Z</time>
      </trkpt>
      <trkpt lat="48.73544" lon="2.00188">
        <ele>162</ele>
        <time>2021-05-20T07:00:48.000Z</time>
      </trkpt>
      <trkpt lat="48.73544" lon="2.00185">
        <ele>161</ele>
        <time>2021-05-20T07:00:49.000Z</time>
      </trkpt>
      <trkpt lat="48.73543" lon="2.00183">
        <ele>161</ele>
        <time>2021-05-20T07:00:50.000Z</time>
      </trkpt>
      <trkpt lat="48.73542" lon="2.00181">
        <ele>161</ele>
        <time>2021-05-20T07:00:51.000Z</time>
      </trkpt>
      <trkpt lat="48.73541" lon="2.00179">
        <ele>161</ele>
        <time>2021-05-20T07:00:52.000Z</time>
      </trkpt>
      <trkpt lat="48.73541" lon="2.00177">
        <ele>160</ele>
        <time>2021-05-20T07:00:53.000Z</time>
      </trkpt>
      <trkpt lat="48.73539" lon="2.00175">
        <ele>160</ele>
        <time>2021-05-20T07:00:54.000Z</time>
      </trkpt>
      <trkpt lat="48.73538" lon="2.00173">
        <ele>160</ele>
        <time>2021-05-20T07:00:55.000Z</time>
      </trkpt>
      <trkpt lat="48.73537" lon="2.00171">
        <ele>160</ele>
        <time>2021-05-20T07:00:56.000Z</time>
      </trkpt>
      <trkpt lat="48.73536" lon="2.00169">
        <ele>160</ele>
        <time>2021-05-20T07:00:57.000Z</time>
      </trkpt>
      <trkpt lat="48.73535" lon="2.00167">
        <ele>159</ele>
        <time>2021-05-20T07:00:58.000Z</time>
      </trkpt>
      <trkpt lat="48.73535" lon="2.00165">
        <ele>159</ele>
        <time>2021-05-20T07:00:59.000Z</time>
      </trkpt>
      <trkpt lat="48.73534" lon="2.00163">
        <ele>159</ele>
        <time>2021-05-20T07:01:00.000Z</time>
      </trkpt>
      <trkpt lat="48.73534" lon="2.00161">
        <ele>159</ele>
        <time>2021-05-20T07:01:01.000Z</time>
      </trkpt>
      <trkpt lat="48.73533" lon="2.0016">
        <ele>159</ele>
        <time>2021-05-20T07:01:02.000Z</time>
      </trkpt>
      <trkpt lat="48.73533" lon="2.00158">
        <ele>158</ele>
        <time>2021-05-20T07:01:03.000Z</time>
      </trkpt>
      <trkpt lat="48.73532" lon="2.00156">
        <ele>158</ele>
        <time>2021-05-20T07:01:04.000Z</time>
      </trkpt>
      <trkpt lat="48.73531" lon="2.00154">
        <ele>158</ele>
        <time>2021-05-20T07:01:05.000Z</time>
      </trkpt>
      <trkpt lat="48.73531" lon="2.00153">
        <ele>158</ele>
        <time>2021-05-20T07:01:06.000Z</time>
      </trkpt>
      <trkpt lat="48.7353" lon="2.00151">
        <ele>158</ele>
        <time>2021-05-20T07:01:07.000Z</time>
      </trkpt>
      <trkpt lat="48.73529" lon="2.0015">
        <ele>158</ele>
        <time>2021-05-20T07:01:08.000Z</time>
      </trkpt>
      <trkpt lat="48.73528" lon="2.00148">
        <ele>157</ele>
        <time>2021-05-20T07:01:09.000Z</time>
      </trkpt>
      <trkpt lat="48.73528" lon="2.00147">
        <ele>157</ele>
        <time>2021-05-20T07:01:10.000Z</time>
      </trkpt>
      <trkpt lat="48.73528" lon="2.00145">
        <ele>157</ele>
        <time>2021-05-20T07:01:11.000Z</time>
      </trkpt>
      <trkpt lat="48.73527" lon="2.00144">
        <ele>157</ele>
        <time>2021-05-20T07:01:12.000Z</time>
      </trkpt>
      <trkpt lat="48.73527" lon="2.00142">
        <ele>156</ele>
        <time>2021-05-20T07:01:13.000Z</time>
      </trkpt>
      <trkpt lat="48.73526" lon="2.0014">
        <ele>156</ele>
        <time>2021-05-20T07:01:14.000Z</time>
      </trkpt>
      <trkpt lat="48.73525" lon="2.00138">
        <ele>156</ele>
        <time>2021-05-20T07:01:15.000Z</time>
      </trkpt>
      <trkpt lat="48.73524" lon="2.00137">
        <ele>156</ele>
        <time>2021-05-20T07:01:16.000Z</time>
      </trkpt>
      <trkpt lat="48.73524" lon="2.00136">
        <ele>156</ele>
        <time>2021-05-20T07:01:17.000Z</time>
      </trkpt>
      <trkpt lat="48.73523" lon="2.00134">
        <ele>156</ele>
        <time>2021-05-20T07:01:18.000Z</time>
      </trkpt>
      <trkpt lat="48.73523" lon="2.00133">
        <ele>156</ele>
        <time>2021-05-20T07:01:19.000Z</time>
      </trkpt>
      <trkpt lat="48.73523" lon="2.00132">
        <ele>156</ele>
        <time>2021-05-20T07:01:20.000Z</time>
      </trkpt>
      <trkpt lat="48.73523" lon="2.0013">
        <ele>156</ele>
        <time>2021-05-20T07:01:21.000Z</time>
      </trkpt>
      <trkpt lat="48.73523" lon="2.00128">
        <ele>156</ele>
        <time>2021-05-20T07:01:22.000Z</time>
      </trkpt>
      <trkpt lat="48.73523" lon="2.00127">
        <ele>157</ele>
        <time>2021-05-20T07:01:23.000Z</time>
      </trkpt>
      <trkpt lat="48.73523" lon="2.00126">
        <ele>157</ele>
        <time>2021-05-20T07:01:24.000Z</time>
      </trkpt>
      <trkpt lat="48.73523" lon="2.00124">
        <ele>157</ele>
        <time>2021-05-20T07:01:25.000Z</time>
      </trkpt>
      <trkpt lat="48.73523" lon="2.00123">
        <ele>157</ele>
        <time>2021-05-20T07:01:26.000Z</time>
      </trkpt>
      <trkpt lat="48.73523" lon="2.00121">
        <ele>157</ele>
        <time>2021-05-20T07:01:27.000Z</time>
      </trkpt>
      <trkpt lat="48.73523" lon="2.00119">
        <ele>157</ele>
        <time>2021-05-20T07:01:28.000Z</time>
      </trkpt>
      <trkpt lat="48.73522" lon="2.00118">
        <ele>157</ele>
        <time>2021-05-20T07:01:29.000Z</time>
      </trkpt>
      <trkpt lat="48.73522" lon="2.00116">
        <ele>157</ele>
        <time>2021-05-20T07:01:30.000Z</time>
      </trkpt>
      <trkpt lat="48.73522" lon="2.00115">
        <ele>158</ele>
        <time>2021-05-20T07:01:31.000Z</time>
      </trkpt>
      <trkpt lat="48.73522" lon="2.00113">
        <ele>158</ele>
        <time>2021-05-20T07:01:32.000Z</time>
      </trkpt>
      <trkpt lat="48.73522" lon="2.00111">
        <ele>158</ele>
        <time>2021-05-20T07:01:33.000Z</time>
      </trkpt>
      <trkpt lat="48.73522" lon="2.00109">
        <ele>158</ele>
        <time>2021-05-20T07:01:34.000Z</time>
      </trkpt>
      <trkpt lat="48.73521" lon="2.00107">
        <ele>158</ele>
        <time>2021-05-20T07:01:35.000Z</time>
      </trkpt>
      <trkpt lat="48.73521" lon="2.00105">
        <ele>158</ele>
        <time>2021-05-20T07:01:36.000Z</time>
      </trkpt>
      <trkpt lat="48.73521" lon="2.00104">
        <ele>158</ele>
        <time>2021-05-20T07:01:37.000Z</time>
      </trkpt>
      <trkpt lat="48.73521" lon="2.00102">
        <ele>158</ele>
        <time>2021-05-20T07:01:38.000Z</time>
      </trkpt>
      <trkpt lat="48.7352" lon="2.001">
        <ele>158</ele>
        <time>2021-05-20T07:01:39.000Z</time>
      </trkpt>
      <trkpt lat="48.7352" lon="2.00098">
        <ele>158</ele>
        <time>2021-05-20T07:01:40.000Z</time>
      </trkpt>
      <trkpt lat="48.73519" lon="2.00097">
        <ele>158</ele>
        <time>2021-05-20T07:01:41.000Z</time>
      </trkpt>
      <trkpt lat="48.73519" lon="2.00095">
        <ele>158</ele>
        <time>2021-05-20T07:01:42.000Z</time>
      </trkpt>
      <trkpt lat="48.73518" lon="2.00094">
        <ele>158</ele>
        <time>2021-05-20T07:01:43.000Z</time>
      </trkpt>
      <trkpt lat="48.73518" lon="2.00092">
        <ele>158</ele>
        <time>2021-05-20T07:01:44.000Z</time>
      </trkpt>
      <trkpt lat="48.73517" lon="2.0009">
        <ele>158</ele>
        <time>2021-05-20T07:01:45.000Z</time>
      </trkpt>
      <trkpt lat="48.73517" lon="2.00088">
        <ele>158</ele>
        <time>2021-05-20T07:01:46.000Z</time>
      </trkpt>
      <trkpt lat="48.73516" lon="2.00087">
        <ele>158</ele>
        <time>2021-05-20T07:01:47.000Z</time>
      </trkpt>
      <trkpt lat="48.73516" lon="2.00085">
        <ele>158</ele>
        <time>2021-05-20T07:01:48.000Z</time>
      </trkpt>
      <trkpt lat="48.73515" lon="2.00084">
        <ele>158</ele>
        <time>2021-05-20T07:01:49.000Z</time>
      </trkpt>
      <trkpt lat="48.73514" lon="2.00083">
        <ele>158</ele>
        <time>2021-05-20T07:01:50.000Z</time>
      </trkpt>
      <trkpt lat="48.73514" lon="2.00083">
        <ele>159</ele>
        <time>2021-05-20T07:01:51.000Z</time>
      </trkpt>
      <trkpt lat="48.73513" lon="2.00082">
        <ele>159</ele>
        <time>2021-05-20T07:01:52.000Z</time>
      </trkpt>
      <trkpt lat="48.73512" lon="2.00082">
        <ele>159</ele>
        <time>2021-05-20T07:01:53.000Z</time>
      </trkpt>
      <trkpt lat="48.73511" lon="2.00081">
        <ele>159</ele>
        <time>2021-05-20T07:01:54.000Z</time>
      </trkpt>
      <trkpt lat="48.7351" lon="2.00081">
        <ele>159</ele>
        <time>2021-05-20T07:01:55.000Z</time>
      </trkpt>
      <trkpt lat="48.73509" lon="2.00081">
        <ele>159</ele>
        <time>2021-05-20T07:01:56.000Z</time>
      </trkpt>
      <trkpt lat="48.73508" lon="2.00082">
        <ele>159</ele>
        <time>2021-05-20T07:01:57.000Z</time>
      </trkpt>
      <trkpt lat="48.73507" lon="2.00082">
        <ele>159</ele>
        <time>2021-05-20T07:01:58.000Z</time>
      </trkpt>
      <trkpt lat="48.73506" lon="2.00083">
        <ele>159</ele>
        <time>2021-05-20T07:01:59.000Z</time>
      </trkpt>
      <trkpt lat="48.73505" lon="2.00084">
        <ele>159</ele>
        <time>2021-05-20T07:02:00.000Z</time>
      </trkpt>
      <trkpt lat="48.73504" lon="2.00085">
        <ele>159</ele>
        <time>2021-05-20T07:02:01.000Z</time>
      </trkpt>
      <trkpt lat="48.73503" lon="2.00086">
        <ele>159</ele>
        <time>2021-05-20T07:02:02.000Z</time>
      </trkpt>
      <trkpt lat="48.73502" lon="2.00087">
        <ele>159</ele>
        <time>2021-05-20T07:02:03.000Z</time>
      </trkpt>
      <trkpt lat="48.73501" lon="2.00088">
        <ele>159</ele>
        <time>2021-05-20T07:02:04.000Z</time>
      </trkpt>
      <trkpt lat="48.735" lon="2.00089">
        <ele>159</ele>
        <time>2021-05-20T07:02:05.000Z</time>
      </trkpt>
      <trkpt lat="48.73499" lon="2.0009">
        <ele>159</ele>
        <time>2021-05-20T07:02:06.000Z</time>
      </trkpt>
      <trkpt lat="48.73498" lon="2.00091">
        <ele>159</ele>
        <time>2021-05-20T07:02:07.000Z</time>
      </trkpt>
      <trkpt lat="48.73497" lon="2.00091">
        <ele>159</ele>
        <time>2021-05-20T07:02:08.000Z</time>
      </trkpt>
      <trkpt lat="48.73496" lon="2.00092">
        <ele>159</ele>
        <time>2021-05-20T07:02:09.000Z</time>
      </trkpt>
      <trkpt lat="48.73495" lon="2.00092">
        <ele>160</ele>
        <time>2021-05-20T07:02:10.000Z</time>
      </trkpt>
      <trkpt lat="48.73494" lon="2.00092">
        <ele>160</ele>
        <time>2021-05-20T07:02:11.000Z</time>
      </trkpt>
      <trkpt lat="48.73494" lon="2.00093">
        <ele>160</ele>
        <time>2021-05-20T07:02:12.000Z</time>
      </trkpt>
      <trkpt lat="48.73493" lon="2.00093">
        <ele>160</ele>
        <time>2021-05-20T07:02:13.000Z</time>
      </trkpt>
      <trkpt lat="48.73492" lon="2.00093">
        <ele>160</ele>
        <time>2021-05-20T07:02:14.000Z</time>
      </trkpt>
      <trkpt lat="48.73491" lon="2.00093">
        <ele>160</ele>
        <time>2021-05-20T07:02:15.000Z</time>
      </trkpt>
      <trkpt lat="48.73491" lon="2.00092">
        <ele>159</ele>
        <time>2021-05-20T07:02:16.000Z</time>
      </trkpt>
      <trkpt lat="48.7349" lon="2.00092">
        <ele>159</ele>
        <time>2021-05-20T07:02:17.000Z</time>
      </trkpt>
      <trkpt lat="48.7349" lon="2.00092">
        <ele>159</ele>
        <time>2021-05-20T07:02:18.000Z</time>
      </trkpt>
      <trkpt lat="48.73489" lon="2.00091">
        <ele>159</ele>
        <time>2021-05-20T07:02:19.000Z</time>
      </trkpt>
      <trkpt lat="48.73488" lon="2.0009">
        <ele>159</ele>
        <time>2021-05-20T07:02:20.000Z</time>
      </trkpt>
      <trkpt lat="48.73487" lon="2.00089">
        <ele>159</ele>
        <time>2021-05-20T07:02:21.000Z</time>
      </trkpt>
      <trkpt lat="48.73486" lon="2.00088">
        <ele>159</ele>
        <time>2021-05-20T07:02:22.000Z</time>
      </trkpt>
      <trkpt lat="48.73485" lon="2.00087">
        <ele>159</ele>
        <time>2021-05-20T07:02:23.000Z</time>
      </trkpt>
      <trkpt lat="48.73484" lon="2.00086">
        <ele>159</ele>
        <time>2021-05-20T07:02:24.000Z</time>
      </trkpt>
      <trkpt lat="48.73483" lon="2.00085">
        <ele>159</ele>
        <time>2021-05-20T07:02:25.000Z</time>
      </trkpt>
      <trkpt lat="48.73482" lon="2.00084">
        <ele>159</ele>
        <time>2021-05-20T07:02:26.000Z</time>
      </trkpt>
      <trkpt lat="48.73481" lon="2.00083">
        <ele>159</ele>
        <time>2021-05-20T07:02:27.000Z</time>
      </trkpt>
      <trkpt lat="48.73481" lon="2.00083">
        <ele>159</ele>
        <time>2021-05-20T07:02:28.000Z</time>
      </trkpt>
      <trkpt lat="48.7348" lon="2.00082">
        <ele>158</ele>
        <time>2021-05-20T07:02:29.000Z</time>
      </trkpt>
      <trkpt lat="48.73479" lon="2.00082">
        <ele>158</ele>
        <time>2021-05-20T07:02:30.000Z</time>
      </trkpt>
      <trkpt lat="48.73478" lon="2.00081">
        <ele>158</ele>
        <time>2021-05-20T07:02:31.000Z</time>
      </trkpt>
      <trkpt lat="48.73477" lon="2.00081">
        <ele>158</ele>
        <time>2021-05-20T07:02:32.000Z</time>
      </trkpt>
      <trkpt lat="48.73477" lon="2.00081">
        <ele>158</ele>
        <time>2021-05-20T07:02:33.000Z</time>
      </trkpt>
      <trkpt lat="48.73476" lon="2.00081">
        <ele>158</ele>
        <time>2021-05-20T07:02:34.000Z</time>
      </trkpt>
      <trkpt lat="48.73475" lon="2.0008">
        <ele>158</ele>
        <time>2021-05-20T07:02:35.000Z</time>
      </trkpt>
      <trkpt lat="48.73473" lon="2.0008">
        <ele>158</ele>
        <time>2021-05-20T07:02:36.000Z</time>
      </trkpt>
      <trkpt lat="48.73471" lon="2.0008">
        <ele>159</ele>
        <time>2021-05-20T07:02:37.000Z</time>
      </trkpt>
      <trkpt lat="48.7347" lon="2.0008">
        <ele>159</ele>
        <time>2021-05-20T07:02:38.000Z</time>
      </trkpt>
      <trkpt lat="48.73469" lon="2.00079">
        <ele>159</ele>
        <time>2021-05-20T07:02:39.000Z</time>
      </trkpt>
      <trkpt lat="48.73468" lon="2.00079">
        <ele>159</ele>
        <time>2021-05-20T07:02:40.000Z</time>
      </trkpt>
      <trkpt lat="48.73467" lon="2.00079">
        <ele>159</ele>
        <time>2021-05-20T07:02:41.000Z</time>
      </trkpt>
      <trkpt lat="48.73466" lon="2.00079">
        <ele>159</ele>
        <time>2021-05-20T07:02:42.000Z</time>
      </trkpt>
      <trkpt lat="48.73465" lon="2.00078">
        <ele>158</ele>
        <time>2021-05-20T07:02:43.000Z</time>
      </trkpt>
      <trkpt lat="48.73463" lon="2.00078">
        <ele>158</ele>
        <time>2021-05-20T07:02:44.000Z</time>
      </trkpt>
      <trkpt lat="48.73462" lon="2.00077">
        <ele>158</ele>
        <time>2021-05-20T07:02:45.000Z</time>
      </trkpt>
      <trkpt lat="48.7346" lon="2.00077">
        <ele>158</ele>
        <time>2021-05-20T07:02:46.000Z</time>
      </trkpt>
      <trkpt lat="48.73459" lon="2.00077">
        <ele>158</ele>
        <time>2021-05-20T07:02:47.000Z</time>
      </trkpt>
      <trkpt lat="48.73458" lon="2.00076">
        <ele>158</ele>
        <time>2021-05-20T07:02:48.000Z</time>
      </trkpt>
      <trkpt lat="48.73457" lon="2.00076">
        <ele>158</ele>
        <time>2021-05-20T07:02:49.000Z</time>
      </trkpt>
      <trkpt lat="48.73456" lon="2.00075">
        <ele>158</ele>
        <time>2021-05-20T07:02:50.000Z</time>
      </trkpt>
      <trkpt lat="48.73455" lon="2.00075">
        <ele>158</ele>
        <time>2021-05-20T07:02:51.000Z</time>
      </trkpt>
      <trkpt lat="48.73454" lon="2.00075">
        <ele>158</ele>
        <time>2021-05-20T07:02:52.000Z</time>
      </trkpt>
      <trkpt lat="48.73453" lon="2.00074">
        <ele>158</ele>
        <time>2021-05-20T07:02:53.000Z</time>
      </trkpt>
      <trkpt lat="48.73452" lon="2.00074">
        <ele>158</ele>
        <time>2021-05-20T07:02:54.000Z</time>
      </trkpt>
      <trkpt lat="48.73451" lon="2.00074">
        <ele>158</ele>
        <time>2021-05-20T07:02:55.000Z</time>
      </trkpt>
      <trkpt lat="48.7345" lon="2.00074">
        <ele>157</ele>
        <time>2021-05-20T07:02:56.000Z</time>
      </trkpt>
      <trkpt lat="48.73448" lon="2.00074">
        <ele>157</ele>
        <time>2021-05-20T07:02:57.000Z</time>
      </trkpt>
      <trkpt lat="48.73447" lon="2.00074">
        <ele>157</ele>
        <time>2021-05-20T07:02:58.000Z</time>
      </trkpt>
      <trkpt lat="48.73446" lon="2.00074">
        <ele>157</ele>
        <time>2021-05-20T07:02:59.000Z</time>
      </trkpt>
      <trkpt lat="48.73445" lon="2.00074">
        <ele>157</ele>
        <time>2021-05-20T07:03:00.000Z</time>
      </trkpt>
      <trkpt lat="48.73443" lon="2.00074">
        <ele>157</ele>
        <time>2021-05-20T07:03:01.000Z</time>
      </trkpt>
      <trkpt lat="48.73442" lon="2.00074">
        <ele>157</ele>
        <time>2021-05-20T07:03:02.000Z</time>
      </trkpt>
      <trkpt lat="48.73441" lon="2.00073">
        <ele>157</ele>
        <time>2021-05-20T07:03:03.000Z</time>
      </trkpt>
      <trkpt lat="48.7344" lon="2.00073">
        <ele>157</ele>
        <time>2021-05-20T07:03:04.000Z</time>
      </trkpt>
      <trkpt lat="48.73439" lon="2.00073">
        <ele>157</ele>
        <time>2021-05-20T07:03:05.000Z</time>
      </trkpt>
      <trkpt lat="48.73438" lon="2.00074">
        <ele>157</ele>
        <time>2021-05-20T07:03:06.000Z</time>
      </trkpt>
      <trkpt lat="48.73437" lon="2.00074">
        <ele>157</ele>
        <time>2021-05-20T07:03:07.000Z</time>
      </trkpt>
      <trkpt lat="48.73436" lon="2.00074">
        <ele>157</ele>
        <time>2021-05-20T07:03:08.000Z</time>
      </trkpt>
      <trkpt lat="48.73434" lon="2.00074">
        <ele>157</ele>
        <time>2021-05-20T07:03:09.000Z</time>
      </trkpt>
      <trkpt lat="48.73433" lon="2.00074">
        <ele>157</ele>
        <time>2021-05-20T07:03:10.000Z</time>
      </trkpt>
      <trkpt lat="48.73433" lon="2.00075">
        <ele>157</ele>
        <time>2021-05-20T07:03:11.000Z</time>
      </trkpt>
      <trkpt lat="48.73432" lon="2.00075">
        <ele>157</ele>
        <time>2021-05-20T07:03:12.000Z</time>
      </trkpt>
      <trkpt lat="48.73431" lon="2.00076">
        <ele>157</ele>
        <time>2021-05-20T07:03:13.000Z</time>
      </trkpt>
      <trkpt lat="48.7343" lon="2.00077">
        <ele>157</ele>
        <time>2021-05-20T07:03:14.000Z</time>
      </trkpt>
      <trkpt lat="48.73429" lon="2.00077">
        <ele>157</ele>
        <time>2021-05-20T07:03:15.000Z</time>
      </trkpt>
      <trkpt lat="48.73428" lon="2.00078">
        <ele>158</ele>
        <time>2021-05-20T07:03:16.000Z</time>
      </trkpt>
      <trkpt lat="48.73428" lon="2.00079">
        <ele>158</ele>
        <time>2021-05-20T07:03:17.000Z</time>
      </trkpt>
      <trkpt lat="48.73427" lon="2.00081">
        <ele>158</ele>
        <time>2021-05-20T07:03:18.000Z</time>
      </trkpt>
      <trkpt lat="48.73426" lon="2.00082">
        <ele>158</ele>
        <time>2021-05-20T07:03:19.000Z</time>
      </trkpt>
      <trkpt lat="48.73424" lon="2.00084">
        <ele>158</ele>
        <time>2021-05-20T07:03:20.000Z</time>
      </trkpt>
      <trkpt lat="48.73423" lon="2.00084">
        <ele>158</ele>
        <time>2021-05-20T07:03:21.000Z</time>
      </trkpt>
      <trkpt lat="48.73422" lon="2.00085">
        <ele>158</ele>
        <time>2021-05-20T07:03:22.000Z</time>
      </trkpt>
      <trkpt lat="48.73421" lon="2.00085">
        <ele>158</ele>
        <time>2021-05-20T07:03:23.000Z</time>
      </trkpt>
      <trkpt lat="48.7342" lon="2.00085">
        <ele>158</ele>
        <time>2021-05-20T07:03:24.000Z</time>
      </trkpt>
      <trkpt lat="48.73418" lon="2.00085">
        <ele>158</ele>
        <time>2021-05-20T07:03:25.000Z</time>
      </trkpt>
      <trkpt lat="48.73417" lon="2.00084">
        <ele>157</ele>
        <time>2021-05-20T07:03:26.000Z</time>
      </trkpt>
      <trkpt lat="48.73416" lon="2.00083">
        <ele>157</ele>
        <time>2021-05-20T07:03:27.000Z</time>
      </trkpt>
      <trkpt lat="48.73415" lon="2.00083">
        <ele>157</ele>
        <time>2021-05-20T07:03:28.000Z</time>
      </trkpt>
      <trkpt lat="48.73413" lon="2.00082">
        <ele>157</ele>
        <time>2021-05-20T07:03:29.000Z</time>
      </trkpt>
      <trkpt lat="48.73412" lon="2.00082">
        <ele>157</ele>
        <time>2021-05-20T07:03:30.000Z</time>
      </trkpt>
      <trkpt lat="48.73411" lon="2.00081">
        <ele>157</ele>
        <time>2021-05-20T07:03:31.000Z</time>
      </trkpt>
      <trkpt lat="48.7341" lon="2.0008">
        <ele>157</ele>
        <time>2021-05-20T07:03:32.000Z</time>
      </trkpt>
      <trkpt lat="48.73409" lon="2.0008">
        <ele>157</ele>
        <time>2021-05-20T07:03:33.000Z</time>
      </trkpt>
      <trkpt lat="48.73408" lon="2.00079">
        <ele>157</ele>
        <time>2021-05-20T07:03:34.000Z</time>
      </trkpt>
      <trkpt lat="48.73407" lon="2.00078">
        <ele>157</ele>
        <time>2021-05-20T07:03:35.000Z</time>
      </trkpt>
      <trkpt lat="48.73405" lon="2.00078">
        <ele>157</ele>
        <time>2021-05-20T07:03:36.000Z</time>
      </trkpt>
      <trkpt lat="48.73404" lon="2.00077">
        <ele>157</ele>
        <time>2021-05-20T07:03:37.000Z</time>
      </trkpt>
      <trkpt lat="48.73403" lon="2.00077">
        <ele>157</ele>
        <time>2021-05-20T07:03:38.000Z</time>
      </trkpt>
      <trkpt lat="48.73401" lon="2.00077">
        <ele>158</ele>
        <time>2021-05-20T07:03:39.000Z</time>
      </trkpt>
      <trkpt lat="48.734" lon="2.00076">
        <ele>158</ele>
        <time>2021-05-20T07:03:40.000Z</time>
      </trkpt>
      <trkpt lat="48.73398" lon="2.00076">
        <ele>158</ele>
        <time>2021-05-20T07:03:41.000Z</time>
      </trkpt>
      <trkpt lat="48.73397" lon="2.00077">
        <ele>158</ele>
        <time>2021-05-20T07:03:42.000Z</time>
      </trkpt>
      <trkpt lat="48.73395" lon="2.00077">
        <ele>158</ele>
        <time>2021-05-20T07:03:43.000Z</time>
      </trkpt>
      <trkpt lat="48.73394" lon="2.00078">
        <ele>158</ele>
        <time>2021-05-20T07:03:44.000Z</time>
      </trkpt>
      <trkpt lat="48.73393" lon="2.00079">
        <ele>158</ele>
        <time>2021-05-20T07:03:45.000Z</time>
      </trkpt>
      <trkpt lat="48.73392" lon="2.00081">
        <ele>158</ele>
        <time>2021-05-20T07:03:46.000Z</time>
      </trkpt>
      <trkpt lat="48.73392" lon="2.00082">
        <ele>158</ele>
        <time>2021-05-20T07:03:47.000Z</time>
      </trkpt>
      <trkpt lat="48.73391" lon="2.00084">
        <ele>158</ele>
        <time>2021-05-20T07:03:48.000Z</time>
      </trkpt>
      <trkpt lat="48.7339" lon="2.00085">
        <ele>158</ele>
        <time>2021-05-20T07:03:49.000Z</time>
      </trkpt>
      <trkpt lat="48.7339" lon="2.00087">
        <ele>158</ele>
        <time>2021-05-20T07:03:50.000Z</time>
      </trkpt>
      <trkpt lat="48.73389" lon="2.00089">
        <ele>158</ele>
        <time>2021-05-20T07:03:51.000Z</time>
      </trkpt>
      <trkpt lat="48.73388" lon="2.00091">
        <ele>158</ele>
        <time>2021-05-20T07:03:52.000Z</time>
      </trkpt>
      <trkpt lat="48.73388" lon="2.00092">
        <ele>159</ele>
        <time>2021-05-20T07:03:53.000Z</time>
      </trkpt>
      <trkpt lat="48.73388" lon="2.00094">
        <ele>159</ele>
        <time>2021-05-20T07:03:54.000Z</time>
      </trkpt>
      <trkpt lat="48.73387" lon="2.00095">
        <ele>159</ele>
        <time>2021-05-20T07:03:55.000Z</time>
      </trkpt>
      <trkpt lat="48.73387" lon="2.00097">
        <ele>159</ele>
        <time>2021-05-20T07:03:56.000Z</time>
      </trkpt>
      <trkpt lat="48.73386" lon="2.00099">
        <ele>159</ele>
        <time>2021-05-20T07:03:57.000Z</time>
      </trkpt>
      <trkpt lat="48.73386" lon="2.00101">
        <ele>159</ele>
        <time>2021-05-20T07:03:58.000Z</time>
      </trkpt>
      <trkpt lat="48.73385" lon="2.00102">
        <ele>159</ele>
        <time>2021-05-20T07:03:59.000Z</time>
      </trkpt>
      <trkpt lat="48.73385" lon="2.00104">
        <ele>159</ele>
        <time>2021-05-20T07:04:00.000Z</time>
      </trkpt>
      <trkpt lat="48.73384" lon="2.00106">
        <ele>159</ele>
        <time>2021-05-20T07:04:01.000Z</time>
      </trkpt>
      <trkpt lat="48.73384" lon="2.00108">
        <ele>159</ele>
        <time>2021-05-20T07:04:02.000Z</time>
      </trkpt>
      <trkpt lat="48.73383" lon="2.0011">
        <ele>159</ele>
        <time>2021-05-20T07:04:03.000Z</time>
      </trkpt>
      <trkpt lat="48.73383" lon="2.00112">
        <ele>159</ele>
        <time>2021-05-20T07:04:04.000Z</time>
      </trkpt>
      <trkpt lat="48.73383" lon="2.00113">
        <ele>159</ele>
        <time>2021-05-20T07:04:05.000Z</time>
      </trkpt>
      <trkpt lat="48.73382" lon="2.00115">
        <ele>159</ele>
        <time>2021-05-20T07:04:06.000Z</time>
      </trkpt>
      <trkpt lat="48.73382" lon="2.00117">
        <ele>159</ele>
        <time>2021-05-20T07:04:07.000Z</time>
      </trkpt>
      <trkpt lat="48.73381" lon="2.00119">
        <ele>159</ele>
        <time>2021-05-20T07:04:08.000Z</time>
      </trkpt>
      <trkpt lat="48.73381" lon="2.00121">
        <ele>159</ele>
        <time>2021-05-20T07:04:09.000Z</time>
      </trkpt>
      <trkpt lat="48.7338" lon="2.00123">
        <ele>159</ele>
        <time>2021-05-20T07:04:10.000Z</time>
      </trkpt>
      <trkpt lat="48.7338" lon="2.00125">
        <ele>159</ele>
        <time>2021-05-20T07:04:11.000Z</time>
      </trkpt>
      <trkpt lat="48.73379" lon="2.00127">
        <ele>159</ele>
        <time>2021-05-20T07:04:12.000Z</time>
      </trkpt>
      <trkpt lat="48.73379" lon="2.00129">
        <ele>159</ele>
        <time>2021-05-20T07:04:13.000Z</time>
      </trkpt>
      <trkpt lat="48.73379" lon="2.0013">
        <ele>159</ele>
        <time>2021-05-20T07:04:14.000Z</time>
      </trkpt>
      <trkpt lat="48.73378" lon="2.00132">
        <ele>159</ele>
        <time>2021-05-20T07:04:15.000Z</time>
      </trkpt>
      <trkpt lat="48.73378" lon="2.00134">
        <ele>159</ele>
        <time>2021-05-20T07:04:16.000Z</time>
      </trkpt>
      <trkpt lat="48.73377" lon="2.00136">
        <ele>159</ele>
        <time>2021-05-20T07:04:17.000Z</time>
      </trkpt>
      <trkpt lat="48.73377" lon="2.00137">
        <ele>159</ele>
        <time>2021-05-20T07:04:18.000Z</time>
      </trkpt>
      <trkpt lat="48.73376" lon="2.00139">
        <ele>159</ele>
        <time>2021-05-20T07:04:19.000Z</time>
      </trkpt>
      <trkpt lat="48.73375" lon="2.00141">
        <ele>158</ele>
        <time>2021-05-20T07:04:20.000Z</time>
      </trkpt>
      <trkpt lat="48.73374" lon="2.00143">
        <ele>158</ele>
        <time>2021-05-20T07:04:21.000Z</time>
      </trkpt>
      <trkpt lat="48.73373" lon="2.00144">
        <ele>158</ele>
        <time>2021-05-20T07:04:22.000Z</time>
      </trkpt>
      <trkpt lat="48.73372" lon="2.00145">
        <ele>159</ele>
        <time>2021-05-20T07:04:23.000Z</time>
      </trkpt>
      <trkpt lat="48.73371" lon="2.00146">
        <ele>159</ele>
        <time>2021-05-20T07:04:24.000Z</time>
      </trkpt>
      <trkpt lat="48.7337" lon="2.00146">
        <ele>159</ele>
        <time>2021-05-20T07:04:25.000Z</time>
      </trkpt>
      <trkpt lat="48.73369" lon="2.00146">
        <ele>159</ele>
        <time>2021-05-20T07:04:26.000Z</time>
      </trkpt>
      <trkpt lat="48.73368" lon="2.00146">
        <ele>159</ele>
        <time>2021-05-20T07:04:27.000Z</time>
      </trkpt>
      <trkpt lat="48.73366" lon="2.00146">
        <ele>159</ele>
        <time>2021-05-20T07:04:28.000Z</time>
      </trkpt>
      <trkpt lat="48.73365" lon="2.00145">
        <ele>159</ele>
        <time>2021-05-20T07:04:29.000Z</time>
      </trkpt>
      <trkpt lat="48.73364" lon="2.00145">
        <ele>159</ele>
        <time>2021-05-20T07:04:30.000Z</time>
      </trkpt>
      <trkpt lat="48.73362" lon="2.00145">
        <ele>159</ele>
        <time>2021-05-20T07:04:31.000Z</time>
      </trkpt>
      <trkpt lat="48.73361" lon="2.00145">
        <ele>159</ele>
        <time>2021-05-20T07:04:32.000Z</time>
      </trkpt>
      <trkpt lat="48.7336" lon="2.00145">
        <ele>159</ele>
        <time>2021-05-20T07:04:33.000Z</time>
      </trkpt>
      <trkpt lat="48.73359" lon="2.00144">
        <ele>159</ele>
        <time>2021-05-20T07:04:34.000Z</time>
      </trkpt>
      <trkpt lat="48.73357" lon="2.00144">
        <ele>159</ele>
        <time>2021-05-20T07:04:35.000Z</time>
      </trkpt>
      <trkpt lat="48.73356" lon="2.00143">
        <ele>159</ele>
        <time>2021-05-20T07:04:36.000Z</time>
      </trkpt>
      <trkpt lat="48.73354" lon="2.00142">
        <ele>159</ele>
        <time>2021-05-20T07:04:37.000Z</time>
      </trkpt>
      <trkpt lat="48.73353" lon="2.00141">
        <ele>159</ele>
        <time>2021-05-20T07:04:38.000Z</time>
      </trkpt>
      <trkpt lat="48.73351" lon="2.0014">
        <ele>159</ele>
        <time>2021-05-20T07:04:39.000Z</time>
      </trkpt>
      <trkpt lat="48.7335" lon="2.00139">
        <ele>159</ele>
        <time>2021-05-20T07:04:40.000Z</time>
      </trkpt>
      <trkpt lat="48.73349" lon="2.00137">
        <ele>159</ele>
        <time>2021-05-20T07:04:41.000Z</time>
      </trkpt>
      <trkpt lat="48.73347" lon="2.00136">
        <ele>159</ele>
        <time>2021-05-20T07:04:42.000Z</time>
      </trkpt>
      <trkpt lat="48.73346" lon="2.00135">
        <ele>159</ele>
        <time>2021-05-20T07:04:43.000Z</time>
      </trkpt>
      <trkpt lat="48.73345" lon="2.00134">
        <ele>159</ele>
        <time>2021-05-20T07:04:44.000Z</time>
      </trkpt>
      <trkpt lat="48.73343" lon="2.00132">
        <ele>159</ele>
        <time>2021-05-20T07:04:45.000Z</time>
      </trkpt>
      <trkpt lat="48.73342" lon="2.00131">
        <ele>159</ele>
        <time>2021-05-20T07:04:46.000Z</time>
      </trkpt>
      <trkpt lat="48.73341" lon="2.0013">
        <ele>159</ele>
        <time>2021-05-20T07:04:47.000Z</time>
      </trkpt>
      <trkpt lat="48.7334" lon="2.00128">
        <ele>159</ele>
        <time>2021-05-20T07:04:48.000Z</time>
      </trkpt>
      <trkpt lat="48.73338" lon="2.00127">
        <ele>159</ele>
        <time>2021-05-20T07:04:49.000Z</time>
      </trkpt>
      <trkpt lat="48.73337" lon="2.00126">
        <ele>159</ele>
        <time>2021-05-20T07:04:50.000Z</time>
      </trkpt>
      <trkpt lat="48.73335" lon="2.00125">
        <ele>159</ele>
        <time>2021-05-20T07:04:51.000Z</time>
      </trkpt>
      <trkpt lat="48.73334" lon="2.00124">
        <ele>159</ele>
        <time>2021-05-20T07:04:52.000Z</time>
      </trkpt>
      <trkpt lat="48.73333" lon="2.00123">
        <ele>159</ele>
        <time>2021-05-20T07:04:53.000Z</time>
      </trkpt>
      <trkpt lat="48.73332" lon="2.00122">
        <ele>159</ele>
        <time>2021-05-20T07:04:54.000Z</time>
      </trkpt>
      <trkpt lat="48.7333" lon="2.00121">
        <ele>159</ele>
        <time>2021-05-20T07:04:55.000Z</time>
      </trkpt>
      <trkpt lat="48.73329" lon="2.00119">
        <ele>159</ele>
        <time>2021-05-20T07:04:56.000Z</time>
      </trkpt>
      <trkpt lat="48.73328" lon="2.00118">
        <ele>159</ele>
        <time>2021-05-20T07:04:57.000Z</time>
      </trkpt>
      <trkpt lat="48.73326" lon="2.00118">
        <ele>159</ele>
        <time>2021-05-20T07:04:58.000Z</time>
      </trkpt>
      <trkpt lat="48.73325" lon="2.00117">
        <ele>159</ele>
        <time>2021-05-20T07:04:59.000Z</time>
      </trkpt>
      <trkpt lat="48.73324" lon="2.00117">
        <ele>159</ele>
        <time>2021-05-20T07:05:00.000Z</time>
      </trkpt>
      <trkpt lat="48.73323" lon="2.00116">
        <ele>159</ele>
        <time>2021-05-20T07:05:01.000Z</time>
      </trkpt>
      <trkpt lat="48.73321" lon="2.00116">
        <ele>159</ele>
        <time>2021-05-20T07:05:02.000Z</time>
      </trkpt>
      <trkpt lat="48.7332" lon="2.00115">
        <ele>159</ele>
        <time>2021-05-20T07:05:03.000Z</time>
      </trkpt>
      <trkpt lat="48.73319" lon="2.00114">
        <ele>159</ele>
        <time>2021-05-20T07:05:04.000Z</time>
      </trkpt>
      <trkpt lat="48.73318" lon="2.00113">
        <ele>159</ele>
        <time>2021-05-20T07:05:05.000Z</time>
      </trkpt>
      <trkpt lat="48.73317" lon="2.00113">
        <ele>159</ele>
        <time>2021-05-20T07:05:06.000Z</time>
      </trkpt>
      <trkpt lat="48.73316" lon="2.00112">
        <ele>159</ele>
        <time>2021-05-20T07:05:07.000Z</time>
      </trkpt>
      <trkpt lat="48.73315" lon="2.00111">
        <ele>159</ele>
        <time>2021-05-20T07:05:08.000Z</time>
      </trkpt>
      <trkpt lat="48.73314" lon="2.0011">
        <ele>159</ele>
        <time>2021-05-20T07:05:09.000Z</time>
      </trkpt>
      <trkpt lat="48.73313" lon="2.0011">
        <ele>159</ele>
        <time>2021-05-20T07:05:10.000Z</time>
      </trkpt>
      <trkpt lat="48.73312" lon="2.00109">
        <ele>159</ele>
        <time>2021-05-20T07:05:11.000Z</time>
      </trkpt>
      <trkpt lat="48.7331" lon="2.00108">
        <ele>159</ele>
        <time>2021-05-20T07:05:12.000Z</time>
      </trkpt>
      <trkpt lat="48.73309" lon="2.00107">
        <ele>159</ele>
        <time>2021-05-20T07:05:13.000Z</time>
      </trkpt>
      <trkpt lat="48.73308" lon="2.00107">
        <ele>159</ele>
        <time>2021-05-20T07:05:14.000Z</time>
      </trkpt>
      <trkpt lat="48.73307" lon="2.00106">
        <ele>159</ele>
        <time>2021-05-20T07:05:15.000Z</time>
      </trkpt>
      <trkpt lat="48.73305" lon="2.00105">
        <ele>159</ele>
        <time>2021-05-20T07:05:16.000Z</time>
      </trkpt>
      <trkpt lat="48.73304" lon="2.00104">
        <ele>159</ele>
        <time>2021-05-20T07:05:17.000Z</time>
      </trkpt>
      <trkpt lat="48.73303" lon="2.00104">
        <ele>159</ele>
        <time>2021-05-20T07:05:18.000Z</time>
      </trkpt>
      <trkpt lat="48.73301" lon="2.00103">
        <ele>159</ele>
        <time>2021-05-20T07:05:19.000Z</time>
      </trkpt>
      <trkpt lat="48.733" lon="2.00102">
        <ele>159</ele>
        <time>2021-05-20T07:05:20.000Z</time>
      </trkpt>
      <trkpt lat="48.73299" lon="2.00101">
        <ele>159</ele>
        <time>2021-05-20T07:05:21.000Z</time>
      </trkpt>
      <trkpt lat="48.73298" lon="2.001">
        <ele>159</ele>
        <time>2021-05-20T07:05:22.000Z</time>
      </trkpt>
      <trkpt lat="48.73296" lon="2.00099">
        <ele>159</ele>
        <time>2021-05-20T07:05:23.000Z</time>
      </trkpt>
      <trkpt lat="48.73295" lon="2.00098">
        <ele>159</ele>
        <time>2021-05-20T07:05:24.000Z</time>
      </trkpt>
      <trkpt lat="48.73294" lon="2.00097">
        <ele>159</ele>
        <time>2021-05-20T07:05:25.000Z</time>
      </trkpt>
      <trkpt lat="48.73292" lon="2.00096">
        <ele>159</ele>
        <time>2021-05-20T07:05:26.000Z</time>
      </trkpt>
      <trkpt lat="48.73291" lon="2.00095">
        <ele>159</ele>
        <time>2021-05-20T07:05:27.000Z</time>
      </trkpt>
      <trkpt lat="48.7329" lon="2.00094">
        <ele>159</ele>
        <time>2021-05-20T07:05:28.000Z</time>
      </trkpt>
      <trkpt lat="48.73289" lon="2.00093">
        <ele>159</ele>
        <time>2021-05-20T07:05:29.000Z</time>
      </trkpt>
      <trkpt lat="48.73288" lon="2.00092">
        <ele>159</ele>
        <time>2021-05-20T07:05:30.000Z</time>
      </trkpt>
      <trkpt lat="48.73287" lon="2.00091">
        <ele>159</ele>
        <time>2021-05-20T07:05:31.000Z</time>
      </trkpt>
      <trkpt lat="48.73285" lon="2.0009">
        <ele>159</ele>
        <time>2021-05-20T07:05:32.000Z</time>
      </trkpt>
      <trkpt lat="48.73284" lon="2.00089">
        <ele>159</ele>
        <time>2021-05-20T07:05:33.000Z</time>
      </trkpt>
      <trkpt lat="48.73283" lon="2.00088">
        <ele>159</ele>
        <time>2021-05-20T07:05:34.000Z</time>
      </trkpt>
      <trkpt lat="48.73282" lon="2.00087">
        <ele>159</ele>
        <time>2021-05-20T07:05:35.000Z</time>
      </trkpt>
      <trkpt lat="48.7328" lon="2.00087">
        <ele>159</ele>
        <time>2021-05-20T07:05:36.000Z</time>
      </trkpt>
      <trkpt lat="48.73279" lon="2.00086">
        <ele>159</ele>
        <time>2021-05-20T07:05:37.000Z</time>
      </trkpt>
      <trkpt lat="48.73278" lon="2.00085">
        <ele>159</ele>
        <time>2021-05-20T07:05:38.000Z</time>
      </trkpt>
      <trkpt lat="48.73277" lon="2.00084">
        <ele>159</ele>
        <time>2021-05-20T07:05:39.000Z</time>
      </trkpt>
      <trkpt lat="48.73276" lon="2.00083">
        <ele>160</ele>
        <time>2021-05-20T07:05:40.000Z</time>
      </trkpt>
      <trkpt lat="48.73274" lon="2.00082">
        <ele>160</ele>
        <time>2021-05-20T07:05:41.000Z</time>
      </trkpt>
      <trkpt lat="48.73273" lon="2.00081">
        <ele>160</ele>
        <time>2021-05-20T07:05:42.000Z</time>
      </trkpt>
      <trkpt lat="48.73272" lon="2.0008">
        <ele>160</ele>
        <time>2021-05-20T07:05:43.000Z</time>
      </trkpt>
      <trkpt lat="48.73271" lon="2.00079">
        <ele>160</ele>
        <time>2021-05-20T07:05:44.000Z</time>
      </trkpt>
      <trkpt lat="48.7327" lon="2.00078">
        <ele>160</ele>
        <time>2021-05-20T07:05:45.000Z</time>
      </trkpt>
      <trkpt lat="48.73269" lon="2.00077">
        <ele>160</ele>
        <time>2021-05-20T07:05:46.000Z</time>
      </trkpt>
      <trkpt lat="48.73268" lon="2.00076">
        <ele>160</ele>
        <time>2021-05-20T07:05:47.000Z</time>
      </trkpt>
      <trkpt lat="48.73267" lon="2.00075">
        <ele>160</ele>
        <time>2021-05-20T07:05:48.000Z</time>
      </trkpt>
      <trkpt lat="48.73266" lon="2.00074">
        <ele>160</ele>
        <time>2021-05-20T07:05:49.000Z</time>
      </trkpt>
      <trkpt lat="48.73265" lon="2.00073">
        <ele>160</ele>
        <time>2021-05-20T07:05:50.000Z</time>
      </trkpt>
      <trkpt lat="48.73263" lon="2.00073">
        <ele>160</ele>
        <time>2021-05-20T07:05:51.000Z</time>
      </trkpt>
      <trkpt lat="48.73262" lon="2.00072">
        <ele>160</ele>
        <time>2021-05-20T07:05:52.000Z</time>
      </trkpt>
      <trkpt lat="48.73261" lon="2.00071">
        <ele>160</ele>
        <time>2021-05-20T07:05:53.000Z</time>
      </trkpt>
      <trkpt lat="48.7326" lon="2.0007">
        <ele>160</ele>
        <time>2021-05-20T07:05:54.000Z</time>
      </trkpt>
      <trkpt lat="48.73259" lon="2.00069">
        <ele>160</ele>
        <time>2021-05-20T07:05:55.000Z</time>
      </trkpt>
      <trkpt lat="48.73258" lon="2.00068">
        <ele>160</ele>
        <time>2021-05-20T07:05:56.000Z</time>
      </trkpt>
      <trkpt lat="48.73257" lon="2.00068">
        <ele>160</ele>
        <time>2021-05-20T07:05:57.000Z</time>
      </trkpt>
      <trkpt lat="48.73256" lon="2.00067">
        <ele>160</ele>
        <time>2021-05-20T07:05:58.000Z</time>
      </trkpt>
      <trkpt lat="48.73255" lon="2.00066">
        <ele>160</ele>
        <time>2021-05-20T07:05:59.000Z</time>
      </trkpt>
      <trkpt lat="48.73253" lon="2.00065">
        <ele>160</ele>
        <time>2021-05-20T07:06:00.000Z</time>
      </trkpt>
      <trkpt lat="48.73252" lon="2.00064">
        <ele>160</ele>
        <time>2021-05-20T07:06:01.000Z</time>
      </trkpt>
      <trkpt lat="48.7325" lon="2.00063">
        <ele>160</ele>
        <time>2021-05-20T07:06:02.000Z</time>
      </trkpt>
      <trkpt lat="48.73249" lon="2.00062">
        <ele>160</ele>
        <time>2021-05-20T07:06:03.000Z</time>
      </trkpt>
      <trkpt lat="48.73248" lon="2.00061">
        <ele>160</ele>
        <time>2021-05-20T07:06:04.000Z</time>
      </trkpt>
      <trkpt lat="48.73247" lon="2.0006">
        <ele>160</ele>
        <time>2021-05-20T07:06:05.000Z</time>
      </trkpt>
      <trkpt lat="48.73246" lon="2.0006">
        <ele>160</ele>
        <time>2021-05-20T07:06:06.000Z</time>
      </trkpt>
      <trkpt lat="48.73245" lon="2.00059">
        <ele>160</ele>
        <time>2021-05-20T07:06:07.000Z</time>
      </trkpt>
      <trkpt lat="48.73244" lon="2.00058">
        <ele>160</ele>
        <time>2021-05-20T07:06:08.000Z</time>
      </trkpt>
      <trkpt lat="48.73242" lon="2.00057">
        <ele>160</ele>
        <time>2021-05-20T07:06:09.000Z</time>
      </trkpt>
      <trkpt lat="48.73241" lon="2.00056">
        <ele>160</ele>
        <time>2021-05-20T07:06:10.000Z</time>
      </trkpt>
      <trkpt lat="48.7324" lon="2.00055">
        <ele>160</ele>
        <time>2021-05-20T07:06:11.000Z</time>
      </trkpt>
      <trkpt lat="48.73238" lon="2.00054">
        <ele>160</ele>
        <time>2021-05-20T07:06:12.000Z</time>
      </trkpt>
      <trkpt lat="48.73237" lon="2.00053">
        <ele>160</ele>
        <time>2021-05-20T07:06:13.000Z</time>
      </trkpt>
      <trkpt lat="48.73236" lon="2.00052">
        <ele>160</ele>
        <time>2021-05-20T07:06:14.000Z</time>
      </trkpt>
      <trkpt lat="48.73234" lon="2.00051">
        <ele>160</ele>
        <time>2021-05-20T07:06:15.000Z</time>
      </trkpt>
      <trkpt lat="48.73233" lon="2.0005">
        <ele>160</ele>
        <time>2021-05-20T07:06:16.000Z</time>
      </trkpt>
      <trkpt lat="48.73232" lon="2.00049">
        <ele>160</ele>
        <time>2021-05-20T07:06:17.000Z</time>
      </trkpt>
      <trkpt lat="48.73231" lon="2.00048">
        <ele>160</ele>
        <time>2021-05-20T07:06:18.000Z</time>
      </trkpt>
      <trkpt lat="48.73229" lon="2.00047">
        <ele>160</ele>
        <time>2021-05-20T07:06:19.000Z</time>
      </trkpt>
      <trkpt lat="48.73228" lon="2.00046">
        <ele>160</ele>
        <time>2021-05-20T07:06:20.000Z</time>
      </trkpt>
      <trkpt lat="48.73227" lon="2.00045">
        <ele>161</ele>
        <time>2021-05-20T07:06:21.000Z</time>
      </trkpt>
      <trkpt lat="48.73226" lon="2.00045">
        <ele>161</ele>
        <time>2021-05-20T07:06:22.000Z</time>
      </trkpt>
      <trkpt lat="48.73225" lon="2.00044">
        <ele>161</ele>
        <time>2021-05-20T07:06:23.000Z</time>
      </trkpt>
      <trkpt lat="48.73223" lon="2.00043">
        <ele>161</ele>
        <time>2021-05-20T07:06:24.000Z</time>
      </trkpt>
      <trkpt lat="48.73222" lon="2.00042">
        <ele>161</ele>
        <time>2021-05-20T07:06:25.000Z</time>
      </trkpt>
      <trkpt lat="48.73221" lon="2.00041">
        <ele>161</ele>
        <time>2021-05-20T07:06:26.000Z</time>
      </trkpt>
      <trkpt lat="48.73219" lon="2.0004">
        <ele>161</ele>
        <time>2021-05-20T07:06:27.000Z</time>
      </trkpt>
      <trkpt lat="48.73218" lon="2.00038">
        <ele>161</ele>
        <time>2021-05-20T07:06:28.000Z</time>
      </trkpt>
      <trkpt lat="48.73217" lon="2.00037">
        <ele>161</ele>
        <time>2021-05-20T07:06:29.000Z</time>
      </trkpt>
      <trkpt lat="48.73215" lon="2.00036">
        <ele>161</ele>
        <time>2021-05-20T07:06:30.000Z</time>
      </trkpt>
      <trkpt lat="48.73214" lon="2.00035">
        <ele>161</ele>
        <time>2021-05-20T07:06:31.000Z</time>
      </trkpt>
      <trkpt lat="48.73213" lon="2.00034">
        <ele>161</ele>
        <time>2021-05-20T07:06:32.000Z</time>
      </trkpt>
      <trkpt lat="48.73211" lon="2.00032">
        <ele>161</ele>
        <time>2021-05-20T07:06:33.000Z</time>
      </trkpt>
      <trkpt lat="48.7321" lon="2.00031">
        <ele>161</ele>
        <time>2021-05-20T07:06:34.000Z</time>
      </trkpt>
      <trkpt lat="48.73209" lon="2.0003">
        <ele>161</ele>
        <time>2021-05-20T07:06:35.000Z</time>
      </trkpt>
      <trkpt lat="48.73207" lon="2.00029">
        <ele>161</ele>
        <time>2021-05-20T07:06:36.000Z</time>
      </trkpt>
      <trkpt lat="48.73206" lon="2.00028">
        <ele>161</ele>
        <time>2021-05-20T07:06:37.000Z</time>
      </trkpt>
      <trkpt lat="48.73204" lon="2.00027">
        <ele>161</ele>
        <time>2021-05-20T07:06:38.000Z</time>
      </trkpt>
      <trkpt lat="48.73203" lon="2.00025">
        <ele>161</ele>
        <time>2021-05-20T07:06:39.000Z</time>
      </trkpt>
      <trkpt lat="48.73201" lon="2.00024">
        <ele>161</ele>
        <time>2021-05-20T07:06:40.000Z</time>
      </trkpt>
      <trkpt lat="48.732" lon="2.00023">
        <ele>161</ele>
        <time>2021-05-20T07:06:41.000Z</time>
      </trkpt>
      <trkpt lat="48.73199" lon="2.00022">
        <ele>161</ele>
        <time>2021-05-20T07:06:42.000Z</time>
      </trkpt>
      <trkpt lat="48.73197" lon="2.00021">
        <ele>161</ele>
        <time>2021-05-20T07:06:43.000Z</time>
      </trkpt>
      <trkpt lat="48.73196" lon="2.0002">
        <ele>161</ele>
        <time>2021-05-20T07:06:44.000Z</time>
      </trkpt>
      <trkpt lat="48.73195" lon="2.00019">
        <ele>162</ele>
        <time>2021-05-20T07:06:45.000Z</time>
      </trkpt>
      <trkpt lat="48.73194" lon="2.00018">
        <ele>162</ele>
        <time>2021-05-20T07:06:46.000Z</time>
      </trkpt>
      <trkpt lat="48.73192" lon="2.00017">
        <ele>162</ele>
        <time>2021-05-20T07:06:47.000Z</time>
      </trkpt>
      <trkpt lat="48.73191" lon="2.00016">
        <ele>162</ele>
        <time>2021-05-20T07:06:48.000Z</time>
      </trkpt>
      <trkpt lat="48.7319" lon="2.00015">
        <ele>162</ele>
        <time>2021-05-20T07:06:49.000Z</time>
      </trkpt>
      <trkpt lat="48.73188" lon="2.00014">
        <ele>162</ele>
        <time>2021-05-20T07:06:50.000Z</time>
      </trkpt>
      <trkpt lat="48.73187" lon="2.00012">
        <ele>162</ele>
        <time>2021-05-20T07:06:51.000Z</time>
      </trkpt>
      <trkpt lat="48.73186" lon="2.00011">
        <ele>162</ele>
        <time>2021-05-20T07:06:52.000Z</time>
      </trkpt>
      <trkpt lat="48.73184" lon="2.0001">
        <ele>162</ele>
        <time>2021-05-20T07:06:53.000Z</time>
      </trkpt>
      <trkpt lat="48.73183" lon="2.00009">
        <ele>162</ele>
        <time>2021-05-20T07:06:54.000Z</time>
      </trkpt>
      <trkpt lat="48.73182" lon="2.00008">
        <ele>162</ele>
        <time>2021-05-20T07:06:55.000Z</time>
      </trkpt>
      <trkpt lat="48.73181" lon="2.00007">
        <ele>162</ele>
        <time>2021-05-20T07:06:56.000Z</time>
      </trkpt>
      <trkpt lat="48.73179" lon="2.00006">
        <ele>162</ele>
        <time>2021-05-20T07:06:57.000Z</time>
      </trkpt>
      <trkpt lat="48.73178" lon="2.00005">
        <ele>162</ele>
        <time>2021-05-20T07:06:58.000Z</time>
      </trkpt>
      <trkpt lat="48.73177" lon="2.00004">
        <ele>162</ele>
        <time>2021-05-20T07:06:59.000Z</time>
      </trkpt>
      <trkpt lat="48.73176" lon="2.00002">
        <ele>162</ele>
        <time>2021-05-20T07:07:00.000Z</time>
      </trkpt>
      <trkpt lat="48.73175" lon="2.00001">
        <ele>162</ele>
        <time>2021-05-20T07:07:01.000Z</time>
      </trkpt>
      <trkpt lat="48.73173" lon="2">
        <ele>162</ele>
        <time>2021-05-20T07:07:02.000Z</time>
      </trkpt>
      <trkpt lat="48.73172" lon="1.99999">
        <ele>162</ele>
        <time>2021-05-20T07:07:03.000Z</time>
      </trkpt>
      <trkpt lat="48.73171" lon="1.99998">
        <ele>162</ele>
        <time>2021-05-20T07:07:04.000Z</time>
      </trkpt>
      <trkpt lat="48.73169" lon="1.99997">
        <ele>162</ele>
        <time>2021-05-20T07:07:05.000Z</time>
      </trkpt>
      <trkpt lat="48.73168" lon="1.99996">
        <ele>162</ele>
        <time>2021-05-20T07:07:06.000Z</time>
      </trkpt>
      <trkpt lat="48.73167" lon="1.99994">
        <ele>162</ele>
        <time>2021-05-20T07:07:07.000Z</time>
      </trkpt>
      <trkpt lat="48.73166" lon="1.99994">
        <ele>162</ele>
        <time>2021-05-20T07:07:08.000Z</time>
      </trkpt>
      <trkpt lat="48.73164" lon="1.99993">
        <ele>162</ele>
        <time>2021-05-20T07:07:09.000Z</time>
      </trkpt>
      <trkpt lat="48.73163" lon="1.99992">
        <ele>162</ele>
        <time>2021-05-20T07:07:10.000Z</time>
      </trkpt>
      <trkpt lat="48.73162" lon="1.99991">
        <ele>162</ele>
        <time>2021-05-20T07:07:11.000Z</time>
      </trkpt>
      <trkpt lat="48.73161" lon="1.9999">
        <ele>163</ele>
        <time>2021-05-20T07:07:12.000Z</time>
      </trkpt>
      <trkpt lat="48.7316" lon="1.99989">
        <ele>163</ele>
        <time>2021-05-20T07:07:13.000Z</time>
      </trkpt>
      <trkpt lat="48.73158" lon="1.99988">
        <ele>163</ele>
        <time>2021-05-20T07:07:14.000Z</time>
      </trkpt>
      <trkpt lat="48.73157" lon="1.99987">
        <ele>163</ele>
        <time>2021-05-20T07:07:15.000Z</time>
      </trkpt>
      <trkpt lat="48.73155" lon="1.99985">
        <ele>163</ele>
        <time>2021-05-20T07:07:16.000Z</time>
      </trkpt>
      <trkpt lat="48.73154" lon="1.99984">
        <ele>163</ele>
        <time>2021-05-20T07:07:17.000Z</time>
      </trkpt>
      <trkpt lat="48.73153" lon="1.99983">
        <ele>163</ele>
        <time>2021-05-20T07:07:18.000Z</time>
      </trkpt>
      <trkpt lat="48.73152" lon="1.99982">
        <ele>163</ele>
        <time>2021-05-20T07:07:19.000Z</time>
      </trkpt>
      <trkpt lat="48.7315" lon="1.99981">
        <ele>163</ele>
        <time>2021-05-20T07:07:20.000Z</time>
      </trkpt>
      <trkpt lat="48.73149" lon="1.9998">
        <ele>163</ele>
        <time>2021-05-20T07:07:21.000Z</time>
      </trkpt>
      <trkpt lat="48.73148" lon="1.99979">
        <ele>163</ele>
        <time>2021-05-20T07:07:22.000Z</time>
      </trkpt>
      <trkpt lat="48.73147" lon="1.99978">
        <ele>163</ele>
        <time>2021-05-20T07:07:23.000Z</time>
      </trkpt>
      <trkpt lat="48.73146" lon="1.99977">
        <ele>163</ele>
        <time>2021-05-20T07:07:24.000Z</time>
      </trkpt>
      <trkpt lat="48.73144" lon="1.99975">
        <ele>163</ele>
        <time>2021-05-20T07:07:25.000Z</time>
      </trkpt>
      <trkpt lat="48.73143" lon="1.99975">
        <ele>163</ele>
        <time>2021-05-20T07:07:26.000Z</time>
      </trkpt>
      <trkpt lat="48.73142" lon="1.99974">
        <ele>164</ele>
        <time>2021-05-20T07:07:27.000Z</time>
      </trkpt>
      <trkpt lat="48.7314" lon="1.99972">
        <ele>164</ele>
        <time>2021-05-20T07:07:28.000Z</time>
      </trkpt>
      <trkpt lat="48.73139" lon="1.99971">
        <ele>164</ele>
        <time>2021-05-20T07:07:29.000Z</time>
      </trkpt>
      <trkpt lat="48.73138" lon="1.9997">
        <ele>164</ele>
        <time>2021-05-20T07:07:30.000Z</time>
      </trkpt>
      <trkpt lat="48.73137" lon="1.99969">
        <ele>164</ele>
        <time>2021-05-20T07:07:31.000Z</time>
      </trkpt>
      <trkpt lat="48.73136" lon="1.99968">
        <ele>163</ele>
        <time>2021-05-20T07:07:32.000Z</time>
      </trkpt>
      <trkpt lat="48.73134" lon="1.99967">
        <ele>163</ele>
        <time>2021-05-20T07:07:33.000Z</time>
      </trkpt>
      <trkpt lat="48.73133" lon="1.99966">
        <ele>163</ele>
        <time>2021-05-20T07:07:34.000Z</time>
      </trkpt>
      <trkpt lat="48.73132" lon="1.99965">
        <ele>163</ele>
        <time>2021-05-20T07:07:35.000Z</time>
      </trkpt>
      <trkpt lat="48.73131" lon="1.99964">
        <ele>163</ele>
        <time>2021-05-20T07:07:36.000Z</time>
      </trkpt>
      <trkpt lat="48.7313" lon="1.99963">
        <ele>163</ele>
        <time>2021-05-20T07:07:37.000Z</time>
      </trkpt>
      <trkpt lat="48.73129" lon="1.99962">
        <ele>163</ele>
        <time>2021-05-20T07:07:38.000Z</time>
      </trkpt>
      <trkpt lat="48.73127" lon="1.99961">
        <ele>163</ele>
        <time>2021-05-20T07:07:39.000Z</time>
      </trkpt>
      <trkpt lat="48.73126" lon="1.9996">
        <ele>163</ele>
        <time>2021-05-20T07:07:40.000Z</time>
      </trkpt>
      <trkpt lat="48.73125" lon="1.99959">
        <ele>163</ele>
        <time>2021-05-20T07:07:41.000Z</time>
      </trkpt>
      <trkpt lat="48.73124" lon="1.99958">
        <ele>163</ele>
        <time>2021-05-20T07:07:42.000Z</time>
      </trkpt>
      <trkpt lat="48.73123" lon="1.99957">
        <ele>163</ele>
        <time>2021-05-20T07:07:43.000Z</time>
      </trkpt>
      <trkpt lat="48.73121" lon="1.99956">
        <ele>163</ele>
        <time>2021-05-20T07:07:44.000Z</time>
      </trkpt>
      <trkpt lat="48.7312" lon="1.99955">
        <ele>163</ele>
        <time>2021-05-20T07:07:45.000Z</time>
      </trkpt>
      <trkpt lat="48.73119" lon="1.99954">
        <ele>163</ele>
        <time>2021-05-20T07:07:46.000Z</time>
      </trkpt>
      <trkpt lat="48.73118" lon="1.99953">
        <ele>163</ele>
        <time>2021-05-20T07:07:47.000Z</time>
      </trkpt>
      <trkpt lat="48.73116" lon="1.99952">
        <ele>163</ele>
        <time>2021-05-20T07:07:48.000Z</time>
      </trkpt>
      <trkpt lat="48.73115" lon="1.99951">
        <ele>163</ele>
        <time>2021-05-20T07:07:49.000Z</time>
      </trkpt>
      <trkpt lat="48.73115" lon="1.9995">
        <ele>163</ele>
        <time>2021-05-20T07:07:50.000Z</time>
      </trkpt>
      <trkpt lat="48.73113" lon="1.99949">
        <ele>163</ele>
        <time>2021-05-20T07:07:51.000Z</time>
      </trkpt>
      <trkpt lat="48.73112" lon="1.99948">
        <ele>163</ele>
        <time>2021-05-20T07:07:52.000Z</time>
      </trkpt>
      <trkpt lat="48.73111" lon="1.99947">
        <ele>163</ele>
        <time>2021-05-20T07:07:53.000Z</time>
      </trkpt>
      <trkpt lat="48.7311" lon="1.99946">
        <ele>163</ele>
        <time>2021-05-20T07:07:54.000Z</time>
      </trkpt>
      <trkpt lat="48.73108" lon="1.99945">
        <ele>163</ele>
        <time>2021-05-20T07:07:55.000Z</time>
      </trkpt>
      <trkpt lat="48.73107" lon="1.99944">
        <ele>163</ele>
        <time>2021-05-20T07:07:56.000Z</time>
      </trkpt>
      <trkpt lat="48.73106" lon="1.99943">
        <ele>163</ele>
        <time>2021-05-20T07:07:57.000Z</time>
      </trkpt>
      <trkpt lat="48.73104" lon="1.99942">
        <ele>164</ele>
        <time>2021-05-20T07:07:58.000Z</time>
      </trkpt>
      <trkpt lat="48.73103" lon="1.99941">
        <ele>164</ele>
        <time>2021-05-20T07:07:59.000Z</time>
      </trkpt>
      <trkpt lat="48.73102" lon="1.9994">
        <ele>164</ele>
        <time>2021-05-20T07:08:00.000Z</time>
      </trkpt>
      <trkpt lat="48.73101" lon="1.99939">
        <ele>164</ele>
        <time>2021-05-20T07:08:01.000Z</time>
      </trkpt>
      <trkpt lat="48.731" lon="1.99939">
        <ele>164</ele>
        <time>2021-05-20T07:08:02.000Z</time>
      </trkpt>
      <trkpt lat="48.73099" lon="1.99938">
        <ele>164</ele>
        <time>2021-05-20T07:08:03.000Z</time>
      </trkpt>
      <trkpt lat="48.73098" lon="1.99936">
        <ele>164</ele>
        <time>2021-05-20T07:08:04.000Z</time>
      </trkpt>
      <trkpt lat="48.73097" lon="1.99935">
        <ele>163</ele>
        <time>2021-05-20T07:08:05.000Z</time>
      </trkpt>
      <trkpt lat="48.73096" lon="1.99934">
        <ele>163</ele>
        <time>2021-05-20T07:08:06.000Z</time>
      </trkpt>
      <trkpt lat="48.73094" lon="1.99933">
        <ele>163</ele>
        <time>2021-05-20T07:08:07.000Z</time>
      </trkpt>
      <trkpt lat="48.73093" lon="1.99932">
        <ele>163</ele>
        <time>2021-05-20T07:08:08.000Z</time>
      </trkpt>
      <trkpt lat="48.73092" lon="1.99932">
        <ele>163</ele>
        <time>2021-05-20T07:08:09.000Z</time>
      </trkpt>
      <trkpt lat="48.7309" lon="1.99931">
        <ele>163</ele>
        <time>2021-05-20T07:08:10.000Z</time>
      </trkpt>
      <trkpt lat="48.73089" lon="1.9993">
        <ele>163</ele>
        <time>2021-05-20T07:08:11.000Z</time>
      </trkpt>
      <trkpt lat="48.73088" lon="1.99929">
        <ele>163</ele>
        <time>2021-05-20T07:08:12.000Z</time>
      </trkpt>
      <trkpt lat="48.73087" lon="1.99928">
        <ele>163</ele>
        <time>2021-05-20T07:08:13.000Z</time>
      </trkpt>
      <trkpt lat="48.73086" lon="1.99927">
        <ele>163</ele>
        <time>2021-05-20T07:08:14.000Z</time>
      </trkpt>
      <trkpt lat="48.73085" lon="1.99927">
        <ele>163</ele>
        <time>2021-05-20T07:08:15.000Z</time>
      </trkpt>
      <trkpt lat="48.73084" lon="1.99926">
        <ele>163</ele>
        <time>2021-05-20T07:08:16.000Z</time>
      </trkpt>
      <trkpt lat="48.73083" lon="1.99925">
        <ele>163</ele>
        <time>2021-05-20T07:08:17.000Z</time>
      </trkpt>
      <trkpt lat="48.73082" lon="1.99924">
        <ele>163</ele>
        <time>2021-05-20T07:08:18.000Z</time>
      </trkpt>
      <trkpt lat="48.73081" lon="1.99924">
        <ele>163</ele>
        <time>2021-05-20T07:08:19.000Z</time>
      </trkpt>
      <trkpt lat="48.73079" lon="1.99923">
        <ele>163</ele>
        <time>2021-05-20T07:08:20.000Z</time>
      </trkpt>
      <trkpt lat="48.73078" lon="1.99922">
        <ele>163</ele>
        <time>2021-05-20T07:08:21.000Z</time>
      </trkpt>
      <trkpt lat="48.73077" lon="1.99921">
        <ele>163</ele>
        <time>2021-05-20T07:08:22.000Z</time>
      </trkpt>
      <trkpt lat="48.73076" lon="1.9992">
        <ele>164</ele>
        <time>2021-05-20T07:08:23.000Z</time>
      </trkpt>
      <trkpt lat="48.73074" lon="1.99919">
        <ele>164</ele>
        <time>2021-05-20T07:08:24.000Z</time>
      </trkpt>
      <trkpt lat="48.73073" lon="1.99918">
        <ele>164</ele>
        <time>2021-05-20T07:08:25.000Z</time>
      </trkpt>
      <trkpt lat="48.73072" lon="1.99917">
        <ele>164</ele>
        <time>2021-05-20T07:08:26.000Z</time>
      </trkpt>
      <trkpt lat="48.73071" lon="1.99917">
        <ele>164</ele>
        <time>2021-05-20T07:08:27.000Z</time>
      </trkpt>
      <trkpt lat="48.73069" lon="1.99916">
        <ele>164</ele>
        <time>2021-05-20T07:08:28.000Z</time>
      </trkpt>
      <trkpt lat="48.73068" lon="1.99915">
        <ele>164</ele>
        <time>2021-05-20T07:08:29.000Z</time>
      </trkpt>
      <trkpt lat="48.73067" lon="1.99914">
        <ele>164</ele>
        <time>2021-05-20T07:08:30.000Z</time>
      </trkpt>
      <trkpt lat="48.73065" lon="1.99913">
        <ele>164</ele>
        <time>2021-05-20T07:08:31.000Z</time>
      </trkpt>
      <trkpt lat="48.73064" lon="1.99912">
        <ele>165</ele>
        <time>2021-05-20T07:08:32.000Z</time>
      </trkpt>
      <trkpt lat="48.73063" lon="1.99911">
        <ele>165</ele>
        <time>2021-05-20T07:08:33.000Z</time>
      </trkpt>
      <trkpt lat="48.73062" lon="1.9991">
        <ele>165</ele>
        <time>2021-05-20T07:08:34.000Z</time>
      </trkpt>
      <trkpt lat="48.73061" lon="1.9991">
        <ele>165</ele>
        <time>2021-05-20T07:08:35.000Z</time>
      </trkpt>
      <trkpt lat="48.7306" lon="1.99909">
        <ele>165</ele>
        <time>2021-05-20T07:08:36.000Z</time>
      </trkpt>
      <trkpt lat="48.73059" lon="1.99908">
        <ele>165</ele>
        <time>2021-05-20T07:08:37.000Z</time>
      </trkpt>
      <trkpt lat="48.73058" lon="1.99907">
        <ele>165</ele>
        <time>2021-05-20T07:08:38.000Z</time>
      </trkpt>
      <trkpt lat="48.73057" lon="1.99907">
        <ele>165</ele>
        <time>2021-05-20T07:08:39.000Z</time>
      </trkpt>
      <trkpt lat="48.73056" lon="1.99906">
        <ele>165</ele>
        <time>2021-05-20T07:08:40.000Z</time>
      </trkpt>
      <trkpt lat="48.73055" lon="1.99905">
        <ele>165</ele>
        <time>2021-05-20T07:08:41.000Z</time>
      </trkpt>
      <trkpt lat="48.73054" lon="1.99904">
        <ele>166</ele>
        <time>2021-05-20T07:08:42.000Z</time>
      </trkpt>
      <trkpt lat="48.73053" lon="1.99903">
        <ele>166</ele>
        <time>2021-05-20T07:08:43.000Z</time>
      </trkpt>
      <trkpt lat="48.73052" lon="1.99902">
        <ele>166</ele>
        <time>2021-05-20T07:08:44.000Z</time>
      </trkpt>
      <trkpt lat="48.73051" lon="1.99901">
        <ele>166</ele>
        <time>2021-05-20T07:08:45.000Z</time>
      </trkpt>
      <trkpt lat="48.7305" lon="1.999">
        <ele>166</ele>
        <time>2021-05-20T07:08:46.000Z</time>
      </trkpt>
      <trkpt lat="48.73049" lon="1.99899">
        <ele>166</ele>
        <time>2021-05-20T07:08:47.000Z</time>
      </trkpt>
      <trkpt lat="48.73047" lon="1.99898">
        <ele>166</ele>
        <time>2021-05-20T07:08:48.000Z</time>
      </trkpt>
      <trkpt lat="48.73046" lon="1.99897">
        <ele>166</ele>
        <time>2021-05-20T07:08:49.000Z</time>
      </trkpt>
      <trkpt lat="48.73045" lon="1.99896">
        <ele>166</ele>
        <time>2021-05-20T07:08:50.000Z</time>
      </trkpt>
      <trkpt lat="48.73044" lon="1.99895">
        <ele>166</ele>
        <time>2021-05-20T07:08:51.000Z</time>
      </trkpt>
      <trkpt lat="48.73043" lon="1.99894">
        <ele>166</ele>
        <time>2021-05-20T07:08:52.000Z</time>
      </trkpt>
      <trkpt lat="48.73042" lon="1.99894">
        <ele>166</ele>
        <time>2021-05-20T07:08:53.000Z</time>
      </trkpt>
      <trkpt lat="48.7304" lon="1.99893">
        <ele>166</ele>
        <time>2021-05-20T07:08:54.000Z</time>
      </trkpt>
      <trkpt lat="48.73039" lon="1.99892">
        <ele>166</ele>
        <time>2021-05-20T07:08:55.000Z</time>
      </trkpt>
      <trkpt lat="48.73038" lon="1.99891">
        <ele>166</ele>
        <time>2021-05-20T07:08:56.000Z</time>
      </trkpt>
      <trkpt lat="48.73037" lon="1.9989">
        <ele>166</ele>
        <time>2021-05-20T07:08:57.000Z</time>
      </trkpt>
      <trkpt lat="48.73035" lon="1.99889">
        <ele>166</ele>
        <time>2021-05-20T07:08:58.000Z</time>
      </trkpt>
      <trkpt lat="48.73034" lon="1.99889">
        <ele>166</ele>
        <time>2021-05-20T07:08:59.000Z</time>
      </trkpt>
      <trkpt lat="48.73032" lon="1.99889">
        <ele>166</ele>
        <time>2021-05-20T07:09:00.000Z</time>
      </trkpt>
      <trkpt lat="48.73031" lon="1.99888">
        <ele>166</ele>
        <time>2021-05-20T07:09:01.000Z</time>
      </trkpt>
      <trkpt lat="48.7303" lon="1.99888">
        <ele>166</ele>
        <time>2021-05-20T07:09:02.000Z</time>
      </trkpt>
      <trkpt lat="48.7303" lon="1.99888">
        <ele>166</ele>
        <time>2021-05-20T07:09:03.000Z</time>
      </trkpt>
      <trkpt lat="48.73029" lon="1.99888">
        <ele>166</ele>
        <time>2021-05-20T07:09:04.000Z</time>
      </trkpt>
      <trkpt lat="48.73028" lon="1.99888">
        <ele>166</ele>
        <time>2021-05-20T07:09:05.000Z</time>
      </trkpt>
      <trkpt lat="48.73027" lon="1.99887">
        <ele>166</ele>
        <time>2021-05-20T07:09:06.000Z</time>
      </trkpt>
      <trkpt lat="48.73026" lon="1.99887">
        <ele>165</ele>
        <time>2021-05-20T07:09:07.000Z</time>
      </trkpt>
      <trkpt lat="48.73025" lon="1.99886">
        <ele>165</ele>
        <time>2021-05-20T07:09:08.000Z</time>
      </trkpt>
      <trkpt lat="48.73024" lon="1.99885">
        <ele>165</ele>
        <time>2021-05-20T07:09:09.000Z</time>
      </trkpt>
      <trkpt lat="48.73023" lon="1.99884">
        <ele>165</ele>
        <time>2021-05-20T07:09:10.000Z</time>
      </trkpt>
      <trkpt lat="48.73022" lon="1.99884">
        <ele>165</ele>
        <time>2021-05-20T07:09:11.000Z</time>
      </trkpt>
      <trkpt lat="48.73021" lon="1.99883">
        <ele>165</ele>
        <time>2021-05-20T07:09:12.000Z</time>
      </trkpt>
      <trkpt lat="48.73019" lon="1.99882">
        <ele>165</ele>
        <time>2021-05-20T07:09:13.000Z</time>
      </trkpt>
      <trkpt lat="48.73017" lon="1.99881">
        <ele>165</ele>
        <time>2021-05-20T07:09:14.000Z</time>
      </trkpt>
      <trkpt lat="48.73016" lon="1.99881">
        <ele>165</ele>
        <time>2021-05-20T07:09:15.000Z</time>
      </trkpt>
      <trkpt lat="48.73014" lon="1.9988">
        <ele>165</ele>
        <time>2021-05-20T07:09:16.000Z</time>
      </trkpt>
      <trkpt lat="48.73013" lon="1.9988">
        <ele>165</ele>
        <time>2021-05-20T07:09:17.000Z</time>
      </trkpt>
      <trkpt lat="48.73012" lon="1.99879">
        <ele>165</ele>
        <time>2021-05-20T07:09:18.000Z</time>
      </trkpt>
      <trkpt lat="48.7301" lon="1.99878">
        <ele>165</ele>
        <time>2021-05-20T07:09:19.000Z</time>
      </trkpt>
      <trkpt lat="48.73009" lon="1.99877">
        <ele>164</ele>
        <time>2021-05-20T07:09:20.000Z</time>
      </trkpt>
      <trkpt lat="48.73007" lon="1.99877">
        <ele>164</ele>
        <time>2021-05-20T07:09:21.000Z</time>
      </trkpt>
      <trkpt lat="48.73006" lon="1.99876">
        <ele>164</ele>
        <time>2021-05-20T07:09:22.000Z</time>
      </trkpt>
      <trkpt lat="48.73004" lon="1.99875">
        <ele>164</ele>
        <time>2021-05-20T07:09:23.000Z</time>
      </trkpt>
      <trkpt lat="48.73003" lon="1.99875">
        <ele>164</ele>
        <time>2021-05-20T07:09:24.000Z</time>
      </trkpt>
      <trkpt lat="48.73001" lon="1.99874">
        <ele>164</ele>
        <time>2021-05-20T07:09:25.000Z</time>
      </trkpt>
      <trkpt lat="48.73" lon="1.99874">
        <ele>164</ele>
        <time>2021-05-20T07:09:26.000Z</time>
      </trkpt>
      <trkpt lat="48.72999" lon="1.99874">
        <ele>164</ele>
        <time>2021-05-20T07:09:27.000Z</time>
      </trkpt>
      <trkpt lat="48.72997" lon="1.99873">
        <ele>164</ele>
        <time>2021-05-20T07:09:28.000Z</time>
      </trkpt>
      <trkpt lat="48.72996" lon="1.99873">
        <ele>164</ele>
        <time>2021-05-20T07:09:29.000Z</time>
      </trkpt>
      <trkpt lat="48.72995" lon="1.99873">
        <ele>164</ele>
        <time>2021-05-20T07:09:30.000Z</time>
      </trkpt>
      <trkpt lat="48.72994" lon="1.99873">
        <ele>164</ele>
        <time>2021-05-20T07:09:31.000Z</time>
      </trkpt>
      <trkpt lat="48.72992" lon="1.99872">
        <ele>164</ele>
        <time>2021-05-20T07:09:32.000Z</time>
      </trkpt>
      <trkpt lat="48.72991" lon="1.99872">
        <ele>164</ele>
        <time>2021-05-20T07:09:33.000Z</time>
      </trkpt>
      <trkpt lat="48.7299" lon="1.99872">
        <ele>164</ele>
        <time>2021-05-20T07:09:34.000Z</time>
      </trkpt>
      <trkpt lat="48.72988" lon="1.99871">
        <ele>164</ele>
        <time>2021-05-20T07:09:35.000Z</time>
      </trkpt>
      <trkpt lat="48.72987" lon="1.99871">
        <ele>164</ele>
        <time>2021-05-20T07:09:36.000Z</time>
      </trkpt>
      <trkpt lat="48.72986" lon="1.99871">
        <ele>164</ele>
        <time>2021-05-20T07:09:37.000Z</time>
      </trkpt>
      <trkpt lat="48.72985" lon="1.99871">
        <ele>164</ele>
        <time>2021-05-20T07:09:38.000Z</time>
      </trkpt>
      <trkpt lat="48.72983" lon="1.99871">
        <ele>164</ele>
        <time>2021-05-20T07:09:39.000Z</time>
      </trkpt>
      <trkpt lat="48.72982" lon="1.99871">
        <ele>164</ele>
        <time>2021-05-20T07:09:40.000Z</time>
      </trkpt>
      <trkpt lat="48.72981" lon="1.99871">
        <ele>164</ele>
        <time>2021-05-20T07:09:41.000Z</time>
      </trkpt>
      <trkpt lat="48.7298" lon="1.99871">
        <ele>164</ele>
        <time>2021-05-20T07:09:42.000Z</time>
      </trkpt>
      <trkpt lat="48.72979" lon="1.99872">
        <ele>164</ele>
        <time>2021-05-20T07:09:43.000Z</time>
      </trkpt>
      <trkpt lat="48.72978" lon="1.99872">
        <ele>164</ele>
        <time>2021-05-20T07:09:44.000Z</time>
      </trkpt>
      <trkpt lat="48.72976" lon="1.99872">
        <ele>164</ele>
        <time>2021-05-20T07:09:45.000Z</time>
      </trkpt>
      <trkpt lat="48.72975" lon="1.99872">
        <ele>165</ele>
        <time>2021-05-20T07:09:46.000Z</time>
      </trkpt>
      <trkpt lat="48.72974" lon="1.99872">
        <ele>165</ele>
        <time>2021-05-20T07:09:47.000Z</time>
      </trkpt>
      <trkpt lat="48.72973" lon="1.99872">
        <ele>165</ele>
        <time>2021-05-20T07:09:48.000Z</time>
      </trkpt>
      <trkpt lat="48.72972" lon="1.99873">
        <ele>165</ele>
        <time>2021-05-20T07:09:49.000Z</time>
      </trkpt>
      <trkpt lat="48.7297" lon="1.99873">
        <ele>165</ele>
        <time>2021-05-20T07:09:50.000Z</time>
      </trkpt>
      <trkpt lat="48.72969" lon="1.99873">
        <ele>165</ele>
        <time>2021-05-20T07:09:51.000Z</time>
      </trkpt>
      <trkpt lat="48.72968" lon="1.99874">
        <ele>165</ele>
        <time>2021-05-20T07:09:52.000Z</time>
      </trkpt>
      <trkpt lat="48.72966" lon="1.99874">
        <ele>166</ele>
        <time>2021-05-20T07:09:53.000Z</time>
      </trkpt>
      <trkpt lat="48.72965" lon="1.99875">
        <ele>166</ele>
        <time>2021-05-20T07:09:54.000Z</time>
      </trkpt>
      <trkpt lat="48.72963" lon="1.99875">
        <ele>166</ele>
        <time>2021-05-20T07:09:55.000Z</time>
      </trkpt>
      <trkpt lat="48.72962" lon="1.99875">
        <ele>166</ele>
        <time>2021-05-20T07:09:56.000Z</time>
      </trkpt>
      <trkpt lat="48.72961" lon="1.99875">
        <ele>166</ele>
        <time>2021-05-20T07:09:57.000Z</time>
      </trkpt>
      <trkpt lat="48.7296" lon="1.99875">
        <ele>166</ele>
        <time>2021-05-20T07:09:58.000Z</time>
      </trkpt>
      <trkpt lat="48.72959" lon="1.99876">
        <ele>167</ele>
        <time>2021-05-20T07:09:59.000Z</time>
      </trkpt>
      <trkpt lat="48.72958" lon="1.99876">
        <ele>167</ele>
        <time>2021-05-20T07:10:00.000Z</time>
      </trkpt>
      <trkpt lat="48.72957" lon="1.99876">
        <ele>167</ele>
        <time>2021-05-20T07:10:01.000Z</time>
      </trkpt>
      <trkpt lat="48.72956" lon="1.99876">
        <ele>167</ele>
        <time>2021-05-20T07:10:02.000Z</time>
      </trkpt>
      <trkpt lat="48.72955" lon="1.99877">
        <ele>167</ele>
        <time>2021-05-20T07:10:03.000Z</time>
      </trkpt>
      <trkpt lat="48.72953" lon="1.99877">
        <ele>167</ele>
        <time>2021-05-20T07:10:04.000Z</time>
      </trkpt>
      <trkpt lat="48.72952" lon="1.99877">
        <ele>168</ele>
        <time>2021-05-20T07:10:05.000Z</time>
      </trkpt>
      <trkpt lat="48.7295" lon="1.99878">
        <ele>168</ele>
        <time>2021-05-20T07:10:06.000Z</time>
      </trkpt>
      <trkpt lat="48.72949" lon="1.99878">
        <ele>168</ele>
        <time>2021-05-20T07:10:07.000Z</time>
      </trkpt>
      <trkpt lat="48.72948" lon="1.99878">
        <ele>168</ele>
        <time>2021-05-20T07:10:08.000Z</time>
      </trkpt>
      <trkpt lat="48.72947" lon="1.99879">
        <ele>168</ele>
        <time>2021-05-20T07:10:09.000Z</time>
      </trkpt>
      <trkpt lat="48.72945" lon="1.99878">
        <ele>168</ele>
        <time>2021-05-20T07:10:10.000Z</time>
      </trkpt>
      <trkpt lat="48.72944" lon="1.99879">
        <ele>168</ele>
        <time>2021-05-20T07:10:11.000Z</time>
      </trkpt>
      <trkpt lat="48.72943" lon="1.99879">
        <ele>168</ele>
        <time>2021-05-20T07:10:12.000Z</time>
      </trkpt>
      <trkpt lat="48.72941" lon="1.99879">
        <ele>168</ele>
        <time>2021-05-20T07:10:13.000Z</time>
      </trkpt>
      <trkpt lat="48.7294" lon="1.9988">
        <ele>168</ele>
        <time>2021-05-20T07:10:14.000Z</time>
      </trkpt>
      <trkpt lat="48.72938" lon="1.9988">
        <ele>168</ele>
        <time>2021-05-20T07:10:15.000Z</time>
      </trkpt>
      <trkpt lat="48.72937" lon="1.99881">
        <ele>168</ele>
        <time>2021-05-20T07:10:16.000Z</time>
      </trkpt>
      <trkpt lat="48.72936" lon="1.99881">
        <ele>168</ele>
        <time>2021-05-20T07:10:17.000Z</time>
      </trkpt>
      <trkpt lat="48.72934" lon="1.99882">
        <ele>167</ele>
        <time>2021-05-20T07:10:18.000Z</time>
      </trkpt>
      <trkpt lat="48.72933" lon="1.99882">
        <ele>167</ele>
        <time>2021-05-20T07:10:19.000Z</time>
      </trkpt>
      <trkpt lat="48.72932" lon="1.99883">
        <ele>167</ele>
        <time>2021-05-20T07:10:20.000Z</time>
      </trkpt>
      <trkpt lat="48.72931" lon="1.99884">
        <ele>167</ele>
        <time>2021-05-20T07:10:21.000Z</time>
      </trkpt>
      <trkpt lat="48.72929" lon="1.99884">
        <ele>167</ele>
        <time>2021-05-20T07:10:22.000Z</time>
      </trkpt>
      <trkpt lat="48.72928" lon="1.99884">
        <ele>167</ele>
        <time>2021-05-20T07:10:23.000Z</time>
      </trkpt>
      <trkpt lat="48.72927" lon="1.99884">
        <ele>167</ele>
        <time>2021-05-20T07:10:24.000Z</time>
      </trkpt>
      <trkpt lat="48.72925" lon="1.99885">
        <ele>167</ele>
        <time>2021-05-20T07:10:25.000Z</time>
      </trkpt>
      <trkpt lat="48.72924" lon="1.99885">
        <ele>167</ele>
        <time>2021-05-20T07:10:26.000Z</time>
      </trkpt>
      <trkpt lat="48.72923" lon="1.99886">
        <ele>167</ele>
        <time>2021-05-20T07:10:27.000Z</time>
      </trkpt>
      <trkpt lat="48.72922" lon="1.99886">
        <ele>167</ele>
        <time>2021-05-20T07:10:28.000Z</time>
      </trkpt>
      <trkpt lat="48.7292" lon="1.99886">
        <ele>167</ele>
        <time>2021-05-20T07:10:29.000Z</time>
      </trkpt>
      <trkpt lat="48.72919" lon="1.99886">
        <ele>167</ele>
        <time>2021-05-20T07:10:30.000Z</time>
      </trkpt>
      <trkpt lat="48.72918" lon="1.99887">
        <ele>167</ele>
        <time>2021-05-20T07:10:31.000Z</time>
      </trkpt>
      <trkpt lat="48.72917" lon="1.99888">
        <ele>167</ele>
        <time>2021-05-20T07:10:32.000Z</time>
      </trkpt>
      <trkpt lat="48.72916" lon="1.99888">
        <ele>167</ele>
        <time>2021-05-20T07:10:33.000Z</time>
      </trkpt>
      <trkpt lat="48.72915" lon="1.99889">
        <ele>167</ele>
        <time>2021-05-20T07:10:34.000Z</time>
      </trkpt>
      <trkpt lat="48.72913" lon="1.99889">
        <ele>167</ele>
        <time>2021-05-20T07:10:35.000Z</time>
      </trkpt>
      <trkpt lat="48.72912" lon="1.99889">
        <ele>167</ele>
        <time>2021-05-20T07:10:36.000Z</time>
      </trkpt>
      <trkpt lat="48.72911" lon="1.99889">
        <ele>167</ele>
        <time>2021-05-20T07:10:37.000Z</time>
      </trkpt>
      <trkpt lat="48.7291" lon="1.9989">
        <ele>167</ele>
        <time>2021-05-20T07:10:38.000Z</time>
      </trkpt>
      <trkpt lat="48.72908" lon="1.9989">
        <ele>167</ele>
        <time>2021-05-20T07:10:39.000Z</time>
      </trkpt>
      <trkpt lat="48.72907" lon="1.9989">
        <ele>167</ele>
        <time>2021-05-20T07:10:40.000Z</time>
      </trkpt>
      <trkpt lat="48.72906" lon="1.9989">
        <ele>166</ele>
        <time>2021-05-20T07:10:41.000Z</time>
      </trkpt>
      <trkpt lat="48.72904" lon="1.9989">
        <ele>166</ele>
        <time>2021-05-20T07:10:42.000Z</time>
      </trkpt>
      <trkpt lat="48.72903" lon="1.9989">
        <ele>166</ele>
        <time>2021-05-20T07:10:43.000Z</time>
      </trkpt>
      <trkpt lat="48.72901" lon="1.9989">
        <ele>166</ele>
        <time>2021-05-20T07:10:44.000Z</time>
      </trkpt>
      <trkpt lat="48.729" lon="1.9989">
        <ele>166</ele>
        <time>2021-05-20T07:10:45.000Z</time>
      </trkpt>
      <trkpt lat="48.72898" lon="1.99891">
        <ele>166</ele>
        <time>2021-05-20T07:10:46.000Z</time>
      </trkpt>
      <trkpt lat="48.72897" lon="1.99891">
        <ele>166</ele>
        <time>2021-05-20T07:10:47.000Z</time>
      </trkpt>
      <trkpt lat="48.72895" lon="1.99891">
        <ele>166</ele>
        <time>2021-05-20T07:10:48.000Z</time>
      </trkpt>
      <trkpt lat="48.72893" lon="1.99891">
        <ele>166</ele>
        <time>2021-05-20T07:10:49.000Z</time>
      </trkpt>
      <trkpt lat="48.72892" lon="1.99892">
        <ele>166</ele>
        <time>2021-05-20T07:10:50.000Z</time>
      </trkpt>
      <trkpt lat="48.7289" lon="1.99892">
        <ele>166</ele>
        <time>2021-05-20T07:10:51.000Z</time>
      </trkpt>
      <trkpt lat="48.72889" lon="1.99892">
        <ele>166</ele>
        <time>2021-05-20T07:10:52.000Z</time>
      </trkpt>
      <trkpt lat="48.72888" lon="1.99892">
        <ele>166</ele>
        <time>2021-05-20T07:10:53.000Z</time>
      </trkpt>
      <trkpt lat="48.72886" lon="1.99892">
        <ele>166</ele>
        <time>2021-05-20T07:10:54.000Z</time>
      </trkpt>
      <trkpt lat="48.72885" lon="1.99892">
        <ele>166</ele>
        <time>2021-05-20T07:10:55.000Z</time>
      </trkpt>
      <trkpt lat="48.72883" lon="1.99892">
        <ele>166</ele>
        <time>2021-05-20T07:10:56.000Z</time>
      </trkpt>
      <trkpt lat="48.72882" lon="1.99891">
        <ele>166</ele>
        <time>2021-05-20T07:10:57.000Z</time>
      </trkpt>
      <trkpt lat="48.7288" lon="1.99891">
        <ele>166</ele>
        <time>2021-05-20T07:10:58.000Z</time>
      </trkpt>
      <trkpt lat="48.72879" lon="1.9989">
        <ele>166</ele>
        <time>2021-05-20T07:10:59.000Z</time>
      </trkpt>
      <trkpt lat="48.72878" lon="1.9989">
        <ele>166</ele>
        <time>2021-05-20T07:11:00.000Z</time>
      </trkpt>
      <trkpt lat="48.72877" lon="1.9989">
        <ele>166</ele>
        <time>2021-05-20T07:11:01.000Z</time>
      </trkpt>
      <trkpt lat="48.72875" lon="1.99889">
        <ele>166</ele>
        <time>2021-05-20T07:11:02.000Z</time>
      </trkpt>
      <trkpt lat="48.72874" lon="1.99889">
        <ele>166</ele>
        <time>2021-05-20T07:11:03.000Z</time>
      </trkpt>
      <trkpt lat="48.72873" lon="1.99889">
        <ele>166</ele>
        <time>2021-05-20T07:11:04.000Z</time>
      </trkpt>
      <trkpt lat="48.72872" lon="1.99888">
        <ele>166</ele>
        <time>2021-05-20T07:11:05.000Z</time>
      </trkpt>
      <trkpt lat="48.7287" lon="1.99888">
        <ele>166</ele>
        <time>2021-05-20T07:11:06.000Z</time>
      </trkpt>
      <trkpt lat="48.72869" lon="1.99887">
        <ele>166</ele>
        <time>2021-05-20T07:11:07.000Z</time>
      </trkpt>
      <trkpt lat="48.72867" lon="1.99886">
        <ele>166</ele>
        <time>2021-05-20T07:11:08.000Z</time>
      </trkpt>
      <trkpt lat="48.72866" lon="1.99885">
        <ele>166</ele>
        <time>2021-05-20T07:11:09.000Z</time>
      </trkpt>
      <trkpt lat="48.72865" lon="1.99884">
        <ele>166</ele>
        <time>2021-05-20T07:11:10.000Z</time>
      </trkpt>
      <trkpt lat="48.72863" lon="1.99884">
        <ele>166</ele>
        <time>2021-05-20T07:11:11.000Z</time>
      </trkpt>
      <trkpt lat="48.72862" lon="1.99883">
        <ele>166</ele>
        <time>2021-05-20T07:11:12.000Z</time>
      </trkpt>
      <trkpt lat="48.72861" lon="1.99883">
        <ele>166</ele>
        <time>2021-05-20T07:11:13.000Z</time>
      </trkpt>
      <trkpt lat="48.72859" lon="1.99882">
        <ele>166</ele>
        <time>2021-05-20T07:11:14.000Z</time>
      </trkpt>
      <trkpt lat="48.72858" lon="1.99881">
        <ele>165</ele>
        <time>2021-05-20T07:11:15.000Z</time>
      </trkpt>
      <trkpt lat="48.72857" lon="1.99881">
        <ele>165</ele>
        <time>2021-05-20T07:11:16.000Z</time>
      </trkpt>
      <trkpt lat="48.72855" lon="1.9988">
        <ele>165</ele>
        <time>2021-05-20T07:11:17.000Z</time>
      </trkpt>
      <trkpt lat="48.72854" lon="1.9988">
        <ele>165</ele>
        <time>2021-05-20T07:11:18.000Z</time>
      </trkpt>
      <trkpt lat="48.72852" lon="1.99879">
        <ele>165</ele>
        <time>2021-05-20T07:11:19.000Z</time>
      </trkpt>
      <trkpt lat="48.72851" lon="1.99878">
        <ele>165</ele>
        <time>2021-05-20T07:11:20.000Z</time>
      </trkpt>
      <trkpt lat="48.7285" lon="1.99878">
        <ele>165</ele>
        <time>2021-05-20T07:11:21.000Z</time>
      </trkpt>
      <trkpt lat="48.72848" lon="1.99877">
        <ele>165</ele>
        <time>2021-05-20T07:11:22.000Z</time>
      </trkpt>
      <trkpt lat="48.72847" lon="1.99877">
        <ele>164</ele>
        <time>2021-05-20T07:11:23.000Z</time>
      </trkpt>
      <trkpt lat="48.72845" lon="1.99876">
        <ele>164</ele>
        <time>2021-05-20T07:11:24.000Z</time>
      </trkpt>
      <trkpt lat="48.72844" lon="1.99875">
        <ele>164</ele>
        <time>2021-05-20T07:11:25.000Z</time>
      </trkpt>
      <trkpt lat="48.72842" lon="1.99875">
        <ele>164</ele>
        <time>2021-05-20T07:11:26.000Z</time>
      </trkpt>
      <trkpt lat="48.72841" lon="1.99874">
        <ele>164</ele>
        <time>2021-05-20T07:11:27.000Z</time>
      </trkpt>
      <trkpt lat="48.7284" lon="1.99874">
        <ele>165</ele>
        <time>2021-05-20T07:11:28.000Z</time>
      </trkpt>
      <trkpt lat="48.72838" lon="1.99873">
        <ele>165</ele>
        <time>2021-05-20T07:11:29.000Z</time>
      </trkpt>
      <trkpt lat="48.72837" lon="1.99873">
        <ele>165</ele>
        <time>2021-05-20T07:11:30.000Z</time>
      </trkpt>
      <trkpt lat="48.72835" lon="1.99872">
        <ele>165</ele>
        <time>2021-05-20T07:11:31.000Z</time>
      </trkpt>
      <trkpt lat="48.72834" lon="1.99872">
        <ele>165</ele>
        <time>2021-05-20T07:11:32.000Z</time>
      </trkpt>
      <trkpt lat="48.72833" lon="1.99871">
        <ele>165</ele>
        <time>2021-05-20T07:11:33.000Z</time>
      </trkpt>
      <trkpt lat="48.72832" lon="1.99871">
        <ele>165</ele>
        <time>2021-05-20T07:11:34.000Z</time>
      </trkpt>
      <trkpt lat="48.7283" lon="1.99871">
        <ele>165</ele>
        <time>2021-05-20T07:11:35.000Z</time>
      </trkpt>
      <trkpt lat="48.72829" lon="1.9987">
        <ele>165</ele>
        <time>2021-05-20T07:11:36.000Z</time>
      </trkpt>
      <trkpt lat="48.72828" lon="1.9987">
        <ele>165</ele>
        <time>2021-05-20T07:11:37.000Z</time>
      </trkpt>
      <trkpt lat="48.72826" lon="1.99869">
        <ele>165</ele>
        <time>2021-05-20T07:11:38.000Z</time>
      </trkpt>
      <trkpt lat="48.72825" lon="1.99869">
        <ele>165</ele>
        <time>2021-05-20T07:11:39.000Z</time>
      </trkpt>
      <trkpt lat="48.72823" lon="1.99868">
        <ele>165</ele>
        <time>2021-05-20T07:11:40.000Z</time>
      </trkpt>
      <trkpt lat="48.72822" lon="1.99867">
        <ele>165</ele>
        <time>2021-05-20T07:11:41.000Z</time>
      </trkpt>
      <trkpt lat="48.72821" lon="1.99867">
        <ele>165</ele>
        <time>2021-05-20T07:11:42.000Z</time>
      </trkpt>
      <trkpt lat="48.72819" lon="1.99866">
        <ele>166</ele>
        <time>2021-05-20T07:11:43.000Z</time>
      </trkpt>
      <trkpt lat="48.72818" lon="1.99866">
        <ele>166</ele>
        <time>2021-05-20T07:11:44.000Z</time>
      </trkpt>
      <trkpt lat="48.72816" lon="1.99866">
        <ele>166</ele>
        <time>2021-05-20T07:11:45.000Z</time>
      </trkpt>
      <trkpt lat="48.72815" lon="1.99865">
        <ele>166</ele>
        <time>2021-05-20T07:11:46.000Z</time>
      </trkpt>
      <trkpt lat="48.72814" lon="1.99865">
        <ele>166</ele>
        <time>2021-05-20T07:11:47.000Z</time>
      </trkpt>
      <trkpt lat="48.72813" lon="1.99865">
        <ele>166</ele>
        <time>2021-05-20T07:11:48.000Z</time>
      </trkpt>
      <trkpt lat="48.72812" lon="1.99865">
        <ele>166</ele>
        <time>2021-05-20T07:11:49.000Z</time>
      </trkpt>
      <trkpt lat="48.7281" lon="1.99864">
        <ele>166</ele>
        <time>2021-05-20T07:11:50.000Z</time>
      </trkpt>
      <trkpt lat="48.72809" lon="1.99864">
        <ele>166</ele>
        <time>2021-05-20T07:11:51.000Z</time>
      </trkpt>
      <trkpt lat="48.72808" lon="1.99863">
        <ele>166</ele>
        <time>2021-05-20T07:11:52.000Z</time>
      </trkpt>
      <trkpt lat="48.72806" lon="1.99863">
        <ele>166</ele>
        <time>2021-05-20T07:11:53.000Z</time>
      </trkpt>
      <trkpt lat="48.72805" lon="1.99863">
        <ele>166</ele>
        <time>2021-05-20T07:11:54.000Z</time>
      </trkpt>
      <trkpt lat="48.72804" lon="1.99863">
        <ele>166</ele>
        <time>2021-05-20T07:11:55.000Z</time>
      </trkpt>
      <trkpt lat="48.72802" lon="1.99862">
        <ele>166</ele>
        <time>2021-05-20T07:11:56.000Z</time>
      </trkpt>
      <trkpt lat="48.72801" lon="1.99862">
        <ele>166</ele>
        <time>2021-05-20T07:11:57.000Z</time>
      </trkpt>
      <trkpt lat="48.728" lon="1.99862">
        <ele>166</ele>
        <time>2021-05-20T07:11:58.000Z</time>
      </trkpt>
      <trkpt lat="48.72799" lon="1.99862">
        <ele>166</ele>
        <time>2021-05-20T07:11:59.000Z</time>
      </trkpt>
      <trkpt lat="48.72798" lon="1.99861">
        <ele>166</ele>
        <time>2021-05-20T07:12:00.000Z</time>
      </trkpt>
      <trkpt lat="48.72797" lon="1.9986">
        <ele>166</ele>
        <time>2021-05-20T07:12:01.000Z</time>
      </trkpt>
      <trkpt lat="48.72796" lon="1.9986">
        <ele>166</ele>
        <time>2021-05-20T07:12:02.000Z</time>
      </trkpt>
      <trkpt lat="48.72795" lon="1.99859">
        <ele>166</ele>
        <time>2021-05-20T07:12:03.000Z</time>
      </trkpt>
      <trkpt lat="48.72794" lon="1.99859">
        <ele>166</ele>
        <time>2021-05-20T07:12:04.000Z</time>
      </trkpt>
      <trkpt lat="48.72793" lon="1.99858">
        <ele>166</ele>
        <time>2021-05-20T07:12:05.000Z</time>
      </trkpt>
      <trkpt lat="48.72792" lon="1.99857">
        <ele>166</ele>
        <time>2021-05-20T07:12:06.000Z</time>
      </trkpt>
      <trkpt lat="48.7279" lon="1.99856">
        <ele>167</ele>
        <time>2021-05-20T07:12:07.000Z</time>
      </trkpt>
      <trkpt lat="48.72789" lon="1.99854">
        <ele>167</ele>
        <time>2021-05-20T07:12:08.000Z</time>
      </trkpt>
      <trkpt lat="48.72788" lon="1.99853">
        <ele>167</ele>
        <time>2021-05-20T07:12:09.000Z</time>
      </trkpt>
      <trkpt lat="48.72787" lon="1.99852">
        <ele>167</ele>
        <time>2021-05-20T07:12:10.000Z</time>
      </trkpt>
      <trkpt lat="48.72785" lon="1.99851">
        <ele>167</ele>
        <time>2021-05-20T07:12:11.000Z</time>
      </trkpt>
      <trkpt lat="48.72784" lon="1.9985">
        <ele>167</ele>
        <time>2021-05-20T07:12:12.000Z</time>
      </trkpt>
      <trkpt lat="48.72782" lon="1.99849">
        <ele>167</ele>
        <time>2021-05-20T07:12:13.000Z</time>
      </trkpt>
      <trkpt lat="48.72781" lon="1.99848">
        <ele>167</ele>
        <time>2021-05-20T07:12:14.000Z</time>
      </trkpt>
      <trkpt lat="48.7278" lon="1.99847">
        <ele>167</ele>
        <time>2021-05-20T07:12:15.000Z</time>
      </trkpt>
      <trkpt lat="48.72779" lon="1.99846">
        <ele>167</ele>
        <time>2021-05-20T07:12:16.000Z</time>
      </trkpt>
      <trkpt lat="48.72778" lon="1.99845">
        <ele>167</ele>
        <time>2021-05-20T07:12:17.000Z</time>
      </trkpt>
      <trkpt lat="48.72777" lon="1.99844">
        <ele>168</ele>
        <time>2021-05-20T07:12:18.000Z</time>
      </trkpt>
      <trkpt lat="48.72776" lon="1.99844">
        <ele>168</ele>
        <time>2021-05-20T07:12:19.000Z</time>
      </trkpt>
      <trkpt lat="48.72775" lon="1.99842">
        <ele>168</ele>
        <time>2021-05-20T07:12:20.000Z</time>
      </trkpt>
      <trkpt lat="48.72774" lon="1.99841">
        <ele>168</ele>
        <time>2021-05-20T07:12:21.000Z</time>
      </trkpt>
      <trkpt lat="48.72772" lon="1.9984">
        <ele>168</ele>
        <time>2021-05-20T07:12:22.000Z</time>
      </trkpt>
      <trkpt lat="48.72771" lon="1.99839">
        <ele>168</ele>
        <time>2021-05-20T07:12:23.000Z</time>
      </trkpt>
      <trkpt lat="48.7277" lon="1.99838">
        <ele>168</ele>
        <time>2021-05-20T07:12:24.000Z</time>
      </trkpt>
      <trkpt lat="48.72769" lon="1.99837">
        <ele>168</ele>
        <time>2021-05-20T07:12:25.000Z</time>
      </trkpt>
      <trkpt lat="48.72768" lon="1.99836">
        <ele>168</ele>
        <time>2021-05-20T07:12:26.000Z</time>
      </trkpt>
      <trkpt lat="48.72767" lon="1.99835">
        <ele>168</ele>
        <time>2021-05-20T07:12:27.000Z</time>
      </trkpt>
      <trkpt lat="48.72766" lon="1.99834">
        <ele>168</ele>
        <time>2021-05-20T07:12:28.000Z</time>
      </trkpt>
      <trkpt lat="48.72765" lon="1.99833">
        <ele>168</ele>
        <time>2021-05-20T07:12:29.000Z</time>
      </trkpt>
      <trkpt lat="48.72763" lon="1.99832">
        <ele>168</ele>
        <time>2021-05-20T07:12:30.000Z</time>
      </trkpt>
      <trkpt lat="48.72762" lon="1.99831">
        <ele>168</ele>
        <time>2021-05-20T07:12:31.000Z</time>
      </trkpt>
      <trkpt lat="48.72761" lon="1.9983">
        <ele>168</ele>
        <time>2021-05-20T07:12:32.000Z</time>
      </trkpt>
      <trkpt lat="48.7276" lon="1.99829">
        <ele>168</ele>
        <time>2021-05-20T07:12:33.000Z</time>
      </trkpt>
      <trkpt lat="48.72758" lon="1.99828">
        <ele>168</ele>
        <time>2021-05-20T07:12:34.000Z</time>
      </trkpt>
      <trkpt lat="48.72757" lon="1.99827">
        <ele>168</ele>
        <time>2021-05-20T07:12:35.000Z</time>
      </trkpt>
      <trkpt lat="48.72756" lon="1.99826">
        <ele>168</ele>
        <time>2021-05-20T07:12:36.000Z</time>
      </trkpt>
      <trkpt lat="48.72755" lon="1.99825">
        <ele>168</ele>
        <time>2021-05-20T07:12:37.000Z</time>
      </trkpt>
      <trkpt lat="48.72754" lon="1.99824">
        <ele>168</ele>
        <time>2021-05-20T07:12:38.000Z</time>
      </trkpt>
      <trkpt lat="48.72753" lon="1.99823">
        <ele>168</ele>
        <time>2021-05-20T07:12:39.000Z</time>
      </trkpt>
      <trkpt lat="48.72752" lon="1.99823">
        <ele>168</ele>
        <time>2021-05-20T07:12:40.000Z</time>
      </trkpt>
      <trkpt lat="48.72751" lon="1.99822">
        <ele>168</ele>
        <time>2021-05-20T07:12:41.000Z</time>
      </trkpt>
      <trkpt lat="48.7275" lon="1.99821">
        <ele>167</ele>
        <time>2021-05-20T07:12:42.000Z</time>
      </trkpt>
      <trkpt lat="48.72748" lon="1.9982">
        <ele>167</ele>
        <time>2021-05-20T07:12:43.000Z</time>
      </trkpt>
      <trkpt lat="48.72747" lon="1.99819">
        <ele>167</ele>
        <time>2021-05-20T07:12:44.000Z</time>
      </trkpt>
      <trkpt lat="48.72746" lon="1.99819">
        <ele>167</ele>
        <time>2021-05-20T07:12:45.000Z</time>
      </trkpt>
      <trkpt lat="48.72744" lon="1.99818">
        <ele>167</ele>
        <time>2021-05-20T07:12:46.000Z</time>
      </trkpt>
      <trkpt lat="48.72743" lon="1.99817">
        <ele>167</ele>
        <time>2021-05-20T07:12:47.000Z</time>
      </trkpt>
      <trkpt lat="48.72742" lon="1.99817">
        <ele>167</ele>
        <time>2021-05-20T07:12:48.000Z</time>
      </trkpt>
      <trkpt lat="48.72741" lon="1.99817">
        <ele>167</ele>
        <time>2021-05-20T07:12:49.000Z</time>
      </trkpt>
      <trkpt lat="48.72739" lon="1.99817">
        <ele>167</ele>
        <time>2021-05-20T07:12:50.000Z</time>
      </trkpt>
      <trkpt lat="48.72738" lon="1.99817">
        <ele>167</ele>
        <time>2021-05-20T07:12:51.000Z</time>
      </trkpt>
      <trkpt lat="48.72737" lon="1.99817">
        <ele>167</ele>
        <time>2021-05-20T07:12:52.000Z</time>
      </trkpt>
      <trkpt lat="48.72735" lon="1.99817">
        <ele>166</ele>
        <time>2021-05-20T07:12:53.000Z</time>
      </trkpt>
      <trkpt lat="48.72734" lon="1.99817">
        <ele>166</ele>
        <time>2021-05-20T07:12:54.000Z</time>
      </trkpt>
      <trkpt lat="48.72732" lon="1.99816">
        <ele>166</ele>
        <time>2021-05-20T07:12:55.000Z</time>
      </trkpt>
      <trkpt lat="48.72731" lon="1.99816">
        <ele>166</ele>
        <time>2021-05-20T07:12:56.000Z</time>
      </trkpt>
      <trkpt lat="48.7273" lon="1.99815">
        <ele>166</ele>
        <time>2021-05-20T07:12:57.000Z</time>
      </trkpt>
      <trkpt lat="48.72729" lon="1.99814">
        <ele>166</ele>
        <time>2021-05-20T07:12:58.000Z</time>
      </trkpt>
      <trkpt lat="48.72728" lon="1.99813">
        <ele>166</ele>
        <time>2021-05-20T07:12:59.000Z</time>
      </trkpt>
      <trkpt lat="48.72727" lon="1.99812">
        <ele>166</ele>
        <time>2021-05-20T07:13:00.000Z</time>
      </trkpt>
      <trkpt lat="48.72726" lon="1.99811">
        <ele>167</ele>
        <time>2021-05-20T07:13:01.000Z</time>
      </trkpt>
      <trkpt lat="48.72724" lon="1.99809">
        <ele>167</ele>
        <time>2021-05-20T07:13:02.000Z</time>
      </trkpt>
      <trkpt lat="48.72723" lon="1.99808">
        <ele>167</ele>
        <time>2021-05-20T07:13:03.000Z</time>
      </trkpt>
      <trkpt lat="48.72722" lon="1.99807">
        <ele>167</ele>
        <time>2021-05-20T07:13:04.000Z</time>
      </trkpt>
      <trkpt lat="48.72721" lon="1.99805">
        <ele>167</ele>
        <time>2021-05-20T07:13:05.000Z</time>
      </trkpt>
      <trkpt lat="48.7272" lon="1.99804">
        <ele>167</ele>
        <time>2021-05-20T07:13:06.000Z</time>
      </trkpt>
      <trkpt lat="48.72719" lon="1.99803">
        <ele>167</ele>
        <time>2021-05-20T07:13:07.000Z</time>
      </trkpt>
      <trkpt lat="48.72718" lon="1.99802">
        <ele>167</ele>
        <time>2021-05-20T07:13:08.000Z</time>
      </trkpt>
      <trkpt lat="48.72717" lon="1.99801">
        <ele>167</ele>
        <time>2021-05-20T07:13:09.000Z</time>
      </trkpt>
      <trkpt lat="48.72716" lon="1.998">
        <ele>167</ele>
        <time>2021-05-20T07:13:10.000Z</time>
      </trkpt>
      <trkpt lat="48.72715" lon="1.99798">
        <ele>167</ele>
        <time>2021-05-20T07:13:11.000Z</time>
      </trkpt>
      <trkpt lat="48.72714" lon="1.99797">
        <ele>167</ele>
        <time>2021-05-20T07:13:12.000Z</time>
      </trkpt>
      <trkpt lat="48.72713" lon="1.99796">
        <ele>166</ele>
        <time>2021-05-20T07:13:13.000Z</time>
      </trkpt>
      <trkpt lat="48.72712" lon="1.99795">
        <ele>166</ele>
        <time>2021-05-20T07:13:14.000Z</time>
      </trkpt>
      <trkpt lat="48.72711" lon="1.99793">
        <ele>166</ele>
        <time>2021-05-20T07:13:15.000Z</time>
      </trkpt>
      <trkpt lat="48.7271" lon="1.99792">
        <ele>166</ele>
        <time>2021-05-20T07:13:16.000Z</time>
      </trkpt>
      <trkpt lat="48.72709" lon="1.9979">
        <ele>166</ele>
        <time>2021-05-20T07:13:17.000Z</time>
      </trkpt>
      <trkpt lat="48.72708" lon="1.99788">
        <ele>166</ele>
        <time>2021-05-20T07:13:18.000Z</time>
      </trkpt>
      <trkpt lat="48.72707" lon="1.99787">
        <ele>166</ele>
        <time>2021-05-20T07:13:19.000Z</time>
      </trkpt>
      <trkpt lat="48.72706" lon="1.99786">
        <ele>166</ele>
        <time>2021-05-20T07:13:20.000Z</time>
      </trkpt>
      <trkpt lat="48.72705" lon="1.99784">
        <ele>167</ele>
        <time>2021-05-20T07:13:21.000Z</time>
      </trkpt>
      <trkpt lat="48.72704" lon="1.99783">
        <ele>167</ele>
        <time>2021-05-20T07:13:22.000Z</time>
      </trkpt>
      <trkpt lat="48.72704" lon="1.99782">
        <ele>166</ele>
        <time>2021-05-20T07:13:23.000Z</time>
      </trkpt>
      <trkpt lat="48.72703" lon="1.99782">
        <ele>166</ele>
        <time>2021-05-20T07:13:24.000Z</time>
      </trkpt>
      <trkpt lat="48.72703" lon="1.99781">
        <ele>166</ele>
        <time>2021-05-20T07:13:25.000Z</time>
      </trkpt>
      <trkpt lat="48.72702" lon="1.99779">
        <ele>166</ele>
        <time>2021-05-20T07:13:26.000Z</time>
      </trkpt>
      <trkpt lat="48.72701" lon="1.99778">
        <ele>166</ele>
        <time>2021-05-20T07:13:27.000Z</time>
      </trkpt>
      <trkpt lat="48.72699" lon="1.99776">
        <ele>166</ele>
        <time>2021-05-20T07:13:28.000Z</time>
      </trkpt>
      <trkpt lat="48.72698" lon="1.99775">
        <ele>166</ele>
        <time>2021-05-20T07:13:29.000Z</time>
      </trkpt>
      <trkpt lat="48.72697" lon="1.99773">
        <ele>166</ele>
        <time>2021-05-20T07:13:30.000Z</time>
      </trkpt>
      <trkpt lat="48.72696" lon="1.99772">
        <ele>166</ele>
        <time>2021-05-20T07:13:31.000Z</time>
      </trkpt>
      <trkpt lat="48.72695" lon="1.9977">
        <ele>166</ele>
        <time>2021-05-20T07:13:32.000Z</time>
      </trkpt>
      <trkpt lat="48.72693" lon="1.99769">
        <ele>166</ele>
        <time>2021-05-20T07:13:33.000Z</time>
      </trkpt>
      <trkpt lat="48.72692" lon="1.99767">
        <ele>166</ele>
        <time>2021-05-20T07:13:34.000Z</time>
      </trkpt>
      <trkpt lat="48.72691" lon="1.99766">
        <ele>166</ele>
        <time>2021-05-20T07:13:35.000Z</time>
      </trkpt>
      <trkpt lat="48.7269" lon="1.99764">
        <ele>166</ele>
        <time>2021-05-20T07:13:36.000Z</time>
      </trkpt>
      <trkpt lat="48.72689" lon="1.99763">
        <ele>166</ele>
        <time>2021-05-20T07:13:37.000Z</time>
      </trkpt>
      <trkpt lat="48.72688" lon="1.99762">
        <ele>166</ele>
        <time>2021-05-20T07:13:38.000Z</time>
      </trkpt>
      <trkpt lat="48.72687" lon="1.99761">
        <ele>166</ele>
        <time>2021-05-20T07:13:39.000Z</time>
      </trkpt>
      <trkpt lat="48.72686" lon="1.99759">
        <ele>166</ele>
        <time>2021-05-20T07:13:40.000Z</time>
      </trkpt>
      <trkpt lat="48.72684" lon="1.99758">
        <ele>166</ele>
        <time>2021-05-20T07:13:41.000Z</time>
      </trkpt>
      <trkpt lat="48.72683" lon="1.99756">
        <ele>166</ele>
        <time>2021-05-20T07:13:42.000Z</time>
      </trkpt>
      <trkpt lat="48.72682" lon="1.99755">
        <ele>166</ele>
        <time>2021-05-20T07:13:43.000Z</time>
      </trkpt>
      <trkpt lat="48.72681" lon="1.99754">
        <ele>166</ele>
        <time>2021-05-20T07:13:44.000Z</time>
      </trkpt>
      <trkpt lat="48.7268" lon="1.99752">
        <ele>166</ele>
        <time>2021-05-20T07:13:45.000Z</time>
      </trkpt>
      <trkpt lat="48.72678" lon="1.99751">
        <ele>166</ele>
        <time>2021-05-20T07:13:46.000Z</time>
      </trkpt>
      <trkpt lat="48.72677" lon="1.9975">
        <ele>166</ele>
        <time>2021-05-20T07:13:47.000Z</time>
      </trkpt>
      <trkpt lat="48.72676" lon="1.99749">
        <ele>166</ele>
        <time>2021-05-20T07:13:48.000Z</time>
      </trkpt>
      <trkpt lat="48.72674" lon="1.99748">
        <ele>166</ele>
        <time>2021-05-20T07:13:49.000Z</time>
      </trkpt>
      <trkpt lat="48.72673" lon="1.99747">
        <ele>166</ele>
        <time>2021-05-20T07:13:50.000Z</time>
      </trkpt>
      <trkpt lat="48.72672" lon="1.99746">
        <ele>166</ele>
        <time>2021-05-20T07:13:51.000Z</time>
      </trkpt>
      <trkpt lat="48.72671" lon="1.99745">
        <ele>166</ele>
        <time>2021-05-20T07:13:52.000Z</time>
      </trkpt>
      <trkpt lat="48.7267" lon="1.99744">
        <ele>166</ele>
        <time>2021-05-20T07:13:53.000Z</time>
      </trkpt>
      <trkpt lat="48.72668" lon="1.99743">
        <ele>166</ele>
        <time>2021-05-20T07:13:54.000Z</time>
      </trkpt>
      <trkpt lat="48.72667" lon="1.99742">
        <ele>166</ele>
        <time>2021-05-20T07:13:55.000Z</time>
      </trkpt>
      <trkpt lat="48.72666" lon="1.99741">
        <ele>166</ele>
        <time>2021-05-20T07:13:56.000Z</time>
      </trkpt>
      <trkpt lat="48.72665" lon="1.9974">
        <ele>166</ele>
        <time>2021-05-20T07:13:57.000Z</time>
      </trkpt>
      <trkpt lat="48.72663" lon="1.99739">
        <ele>166</ele>
        <time>2021-05-20T07:13:58.000Z</time>
      </trkpt>
      <trkpt lat="48.72662" lon="1.99738">
        <ele>165</ele>
        <time>2021-05-20T07:13:59.000Z</time>
      </trkpt>
      <trkpt lat="48.7266" lon="1.99737">
        <ele>165</ele>
        <time>2021-05-20T07:14:00.000Z</time>
      </trkpt>
      <trkpt lat="48.72659" lon="1.99736">
        <ele>165</ele>
        <time>2021-05-20T07:14:01.000Z</time>
      </trkpt>
      <trkpt lat="48.72657" lon="1.99735">
        <ele>165</ele>
        <time>2021-05-20T07:14:02.000Z</time>
      </trkpt>
      <trkpt lat="48.72656" lon="1.99735">
        <ele>165</ele>
        <time>2021-05-20T07:14:03.000Z</time>
      </trkpt>
      <trkpt lat="48.72655" lon="1.99734">
        <ele>165</ele>
        <time>2021-05-20T07:14:04.000Z</time>
      </trkpt>
      <trkpt lat="48.72654" lon="1.99733">
        <ele>165</ele>
        <time>2021-05-20T07:14:05.000Z</time>
      </trkpt>
      <trkpt lat="48.72653" lon="1.99733">
        <ele>165</ele>
        <time>2021-05-20T07:14:06.000Z</time>
      </trkpt>
      <trkpt lat="48.72652" lon="1.99732">
        <ele>165</ele>
        <time>2021-05-20T07:14:07.000Z</time>
      </trkpt>
      <trkpt lat="48.72651" lon="1.99731">
        <ele>165</ele>
        <time>2021-05-20T07:14:08.000Z</time>
      </trkpt>
      <trkpt lat="48.72649" lon="1.9973">
        <ele>165</ele>
        <time>2021-05-20T07:14:09.000Z</time>
      </trkpt>
      <trkpt lat="48.72648" lon="1.99729">
        <ele>165</ele>
        <time>2021-05-20T07:14:10.000Z</time>
      </trkpt>
      <trkpt lat="48.72647" lon="1.99728">
        <ele>165</ele>
        <time>2021-05-20T07:14:11.000Z</time>
      </trkpt>
      <trkpt lat="48.72645" lon="1.99727">
        <ele>165</ele>
        <time>2021-05-20T07:14:12.000Z</time>
      </trkpt>
      <trkpt lat="48.72644" lon="1.99726">
        <ele>165</ele>
        <time>2021-05-20T07:14:13.000Z</time>
      </trkpt>
      <trkpt lat="48.72643" lon="1.99726">
        <ele>165</ele>
        <time>2021-05-20T07:14:14.000Z</time>
      </trkpt>
      <trkpt lat="48.72641" lon="1.99725">
        <ele>165</ele>
        <time>2021-05-20T07:14:15.000Z</time>
      </trkpt>
      <trkpt lat="48.7264" lon="1.99724">
        <ele>165</ele>
        <time>2021-05-20T07:14:16.000Z</time>
      </trkpt>
      <trkpt lat="48.72639" lon="1.99723">
        <ele>165</ele>
        <time>2021-05-20T07:14:17.000Z</time>
      </trkpt>
      <trkpt lat="48.72638" lon="1.99722">
        <ele>165</ele>
        <time>2021-05-20T07:14:18.000Z</time>
      </trkpt>
      <trkpt lat="48.72636" lon="1.99721">
        <ele>165</ele>
        <time>2021-05-20T07:14:19.000Z</time>
      </trkpt>
      <trkpt lat="48.72635" lon="1.99721">
        <ele>165</ele>
        <time>2021-05-20T07:14:20.000Z</time>
      </trkpt>
      <trkpt lat="48.72634" lon="1.9972">
        <ele>165</ele>
        <time>2021-05-20T07:14:21.000Z</time>
      </trkpt>
      <trkpt lat="48.72633" lon="1.99719">
        <ele>165</ele>
        <time>2021-05-20T07:14:22.000Z</time>
      </trkpt>
      <trkpt lat="48.72632" lon="1.99718">
        <ele>165</ele>
        <time>2021-05-20T07:14:23.000Z</time>
      </trkpt>
      <trkpt lat="48.7263" lon="1.99718">
        <ele>165</ele>
        <time>2021-05-20T07:14:24.000Z</time>
      </trkpt>
      <trkpt lat="48.72629" lon="1.99717">
        <ele>165</ele>
        <time>2021-05-20T07:14:25.000Z</time>
      </trkpt>
      <trkpt lat="48.72628" lon="1.99716">
        <ele>165</ele>
        <time>2021-05-20T07:14:26.000Z</time>
      </trkpt>
      <trkpt lat="48.72626" lon="1.99715">
        <ele>165</ele>
        <time>2021-05-20T07:14:27.000Z</time>
      </trkpt>
      <trkpt lat="48.72625" lon="1.99714">
        <ele>165</ele>
        <time>2021-05-20T07:14:28.000Z</time>
      </trkpt>
      <trkpt lat="48.72624" lon="1.99713">
        <ele>165</ele>
        <time>2021-05-20T07:14:29.000Z</time>
      </trkpt>
      <trkpt lat="48.72623" lon="1.99712">
        <ele>165</ele>
        <time>2021-05-20T07:14:30.000Z</time>
      </trkpt>
      <trkpt lat="48.72622" lon="1.99712">
        <ele>165</ele>
        <time>2021-05-20T07:14:31.000Z</time>
      </trkpt>
      <trkpt lat="48.72621" lon="1.99711">
        <ele>165</ele>
        <time>2021-05-20T07:14:32.000Z</time>
      </trkpt>
      <trkpt lat="48.72619" lon="1.9971">
        <ele>165</ele>
        <time>2021-05-20T07:14:33.000Z</time>
      </trkpt>
      <trkpt lat="48.72618" lon="1.99709">
        <ele>165</ele>
        <time>2021-05-20T07:14:34.000Z</time>
      </trkpt>
      <trkpt lat="48.72617" lon="1.99708">
        <ele>165</ele>
        <time>2021-05-20T07:14:35.000Z</time>
      </trkpt>
      <trkpt lat="48.72615" lon="1.99707">
        <ele>165</ele>
        <time>2021-05-20T07:14:36.000Z</time>
      </trkpt>
      <trkpt lat="48.72614" lon="1.99706">
        <ele>165</ele>
        <time>2021-05-20T07:14:37.000Z</time>
      </trkpt>
      <trkpt lat="48.72613" lon="1.99705">
        <ele>165</ele>
        <time>2021-05-20T07:14:38.000Z</time>
      </trkpt>
      <trkpt lat="48.72612" lon="1.99705">
        <ele>165</ele>
        <time>2021-05-20T07:14:39.000Z</time>
      </trkpt>
      <trkpt lat="48.7261" lon="1.99704">
        <ele>165</ele>
        <time>2021-05-20T07:14:40.000Z</time>
      </trkpt>
      <trkpt lat="48.72609" lon="1.99703">
        <ele>165</ele>
        <time>2021-05-20T07:14:41.000Z</time>
      </trkpt>
      <trkpt lat="48.72608" lon="1.99702">
        <ele>165</ele>
        <time>2021-05-20T07:14:42.000Z</time>
      </trkpt>
      <trkpt lat="48.72607" lon="1.99701">
        <ele>165</ele>
        <time>2021-05-20T07:14:43.000Z</time>
      </trkpt>
      <trkpt lat="48.72606" lon="1.99701">
        <ele>165</ele>
        <time>2021-05-20T07:14:44.000Z</time>
      </trkpt>
      <trkpt lat="48.72604" lon="1.997">
        <ele>165</ele>
        <time>2021-05-20T07:14:45.000Z</time>
      </trkpt>
      <trkpt lat="48.72603" lon="1.99699">
        <ele>165</ele>
        <time>2021-05-20T07:14:46.000Z</time>
      </trkpt>
      <trkpt lat="48.72602" lon="1.99698">
        <ele>165</ele>
        <time>2021-05-20T07:14:47.000Z</time>
      </trkpt>
      <trkpt lat="48.72601" lon="1.99697">
        <ele>165</ele>
        <time>2021-05-20T07:14:48.000Z</time>
      </trkpt>
      <trkpt lat="48.726" lon="1.99696">
        <ele>165</ele>
        <time>2021-05-20T07:14:49.000Z</time>
      </trkpt>
      <trkpt lat="48.72598" lon="1.99695">
        <ele>165</ele>
        <time>2021-05-20T07:14:50.000Z</time>
      </trkpt>
      <trkpt lat="48.72597" lon="1.99693">
        <ele>165</ele>
        <time>2021-05-20T07:14:51.000Z</time>
      </trkpt>
      <trkpt lat="48.72596" lon="1.99692">
        <ele>165</ele>
        <time>2021-05-20T07:14:52.000Z</time>
      </trkpt>
      <trkpt lat="48.72595" lon="1.99691">
        <ele>165</ele>
        <time>2021-05-20T07:14:53.000Z</time>
      </trkpt>
      <trkpt lat="48.72593" lon="1.9969">
        <ele>165</ele>
        <time>2021-05-20T07:14:54.000Z</time>
      </trkpt>
      <trkpt lat="48.72592" lon="1.9969">
        <ele>165</ele>
        <time>2021-05-20T07:14:55.000Z</time>
      </trkpt>
      <trkpt lat="48.72591" lon="1.99689">
        <ele>165</ele>
        <time>2021-05-20T07:14:56.000Z</time>
      </trkpt>
      <trkpt lat="48.7259" lon="1.99689">
        <ele>165</ele>
        <time>2021-05-20T07:14:57.000Z</time>
      </trkpt>
      <trkpt lat="48.7259" lon="1.99688">
        <ele>165</ele>
        <time>2021-05-20T07:14:58.000Z</time>
      </trkpt>
      <trkpt lat="48.72588" lon="1.99688">
        <ele>165</ele>
        <time>2021-05-20T07:14:59.000Z</time>
      </trkpt>
      <trkpt lat="48.72587" lon="1.99687">
        <ele>165</ele>
        <time>2021-05-20T07:15:00.000Z</time>
      </trkpt>
      <trkpt lat="48.72586" lon="1.99685">
        <ele>165</ele>
        <time>2021-05-20T07:15:01.000Z</time>
      </trkpt>
      <trkpt lat="48.72585" lon="1.99684">
        <ele>165</ele>
        <time>2021-05-20T07:15:02.000Z</time>
      </trkpt>
      <trkpt lat="48.72583" lon="1.99683">
        <ele>165</ele>
        <time>2021-05-20T07:15:03.000Z</time>
      </trkpt>
      <trkpt lat="48.72582" lon="1.99682">
        <ele>165</ele>
        <time>2021-05-20T07:15:04.000Z</time>
      </trkpt>
      <trkpt lat="48.72581" lon="1.99681">
        <ele>165</ele>
        <time>2021-05-20T07:15:05.000Z</time>
      </trkpt>
      <trkpt lat="48.72579" lon="1.9968">
        <ele>165</ele>
        <time>2021-05-20T07:15:06.000Z</time>
      </trkpt>
      <trkpt lat="48.72578" lon="1.99679">
        <ele>164</ele>
        <time>2021-05-20T07:15:07.000Z</time>
      </trkpt>
      <trkpt lat="48.72577" lon="1.99678">
        <ele>164</ele>
        <time>2021-05-20T07:15:08.000Z</time>
      </trkpt>
      <trkpt lat="48.72576" lon="1.99677">
        <ele>164</ele>
        <time>2021-05-20T07:15:09.000Z</time>
      </trkpt>
      <trkpt lat="48.72575" lon="1.99676">
        <ele>165</ele>
        <time>2021-05-20T07:15:10.000Z</time>
      </trkpt>
      <trkpt lat="48.72574" lon="1.99675">
        <ele>165</ele>
        <time>2021-05-20T07:15:11.000Z</time>
      </trkpt>
      <trkpt lat="48.72573" lon="1.99673">
        <ele>165</ele>
        <time>2021-05-20T07:15:12.000Z</time>
      </trkpt>
      <trkpt lat="48.72572" lon="1.99672">
        <ele>165</ele>
        <time>2021-05-20T07:15:13.000Z</time>
      </trkpt>
      <trkpt lat="48.72571" lon="1.9967">
        <ele>165</ele>
        <time>2021-05-20T07:15:14.000Z</time>
      </trkpt>
      <trkpt lat="48.7257" lon="1.99669">
        <ele>165</ele>
        <time>2021-05-20T07:15:15.000Z</time>
      </trkpt>
      <trkpt lat="48.72569" lon="1.99668">
        <ele>165</ele>
        <time>2021-05-20T07:15:16.000Z</time>
      </trkpt>
      <trkpt lat="48.72569" lon="1.99667">
        <ele>165</ele>
        <time>2021-05-20T07:15:17.000Z</time>
      </trkpt>
      <trkpt lat="48.72568" lon="1.99665">
        <ele>165</ele>
        <time>2021-05-20T07:15:18.000Z</time>
      </trkpt>
      <trkpt lat="48.72567" lon="1.99663">
        <ele>165</ele>
        <time>2021-05-20T07:15:19.000Z</time>
      </trkpt>
      <trkpt lat="48.72567" lon="1.99661">
        <ele>165</ele>
        <time>2021-05-20T07:15:20.000Z</time>
      </trkpt>
      <trkpt lat="48.72567" lon="1.99659">
        <ele>165</ele>
        <time>2021-05-20T07:15:21.000Z</time>
      </trkpt>
      <trkpt lat="48.72566" lon="1.99657">
        <ele>165</ele>
        <time>2021-05-20T07:15:22.000Z</time>
      </trkpt>
      <trkpt lat="48.72566" lon="1.99656">
        <ele>165</ele>
        <time>2021-05-20T07:15:23.000Z</time>
      </trkpt>
      <trkpt lat="48.72566" lon="1.99654">
        <ele>165</ele>
        <time>2021-05-20T07:15:24.000Z</time>
      </trkpt>
      <trkpt lat="48.72566" lon="1.99652">
        <ele>165</ele>
        <time>2021-05-20T07:15:25.000Z</time>
      </trkpt>
      <trkpt lat="48.72566" lon="1.9965">
        <ele>165</ele>
        <time>2021-05-20T07:15:26.000Z</time>
      </trkpt>
      <trkpt lat="48.72567" lon="1.99648">
        <ele>165</ele>
        <time>2021-05-20T07:15:27.000Z</time>
      </trkpt>
      <trkpt lat="48.72567" lon="1.99646">
        <ele>164</ele>
        <time>2021-05-20T07:15:28.000Z</time>
      </trkpt>
      <trkpt lat="48.72568" lon="1.99644">
        <ele>164</ele>
        <time>2021-05-20T07:15:29.000Z</time>
      </trkpt>
      <trkpt lat="48.72568" lon="1.99642">
        <ele>164</ele>
        <time>2021-05-20T07:15:30.000Z</time>
      </trkpt>
      <trkpt lat="48.72569" lon="1.9964">
        <ele>164</ele>
        <time>2021-05-20T07:15:31.000Z</time>
      </trkpt>
      <trkpt lat="48.72569" lon="1.99638">
        <ele>164</ele>
        <time>2021-05-20T07:15:32.000Z</time>
      </trkpt>
      <trkpt lat="48.72569" lon="1.99637">
        <ele>164</ele>
        <time>2021-05-20T07:15:33.000Z</time>
      </trkpt>
      <trkpt lat="48.7257" lon="1.99635">
        <ele>164</ele>
        <time>2021-05-20T07:15:34.000Z</time>
      </trkpt>
      <trkpt lat="48.7257" lon="1.99633">
        <ele>164</ele>
        <time>2021-05-20T07:15:35.000Z</time>
      </trkpt>
      <trkpt lat="48.7257" lon="1.99631">
        <ele>164</ele>
        <time>2021-05-20T07:15:36.000Z</time>
      </trkpt>
      <trkpt lat="48.72571" lon="1.99629">
        <ele>164</ele>
        <time>2021-05-20T07:15:37.000Z</time>
      </trkpt>
      <trkpt lat="48.72571" lon="1.99626">
        <ele>164</ele>
        <time>2021-05-20T07:15:38.000Z</time>
      </trkpt>
      <trkpt lat="48.72572" lon="1.99624">
        <ele>165</ele>
        <time>2021-05-20T07:15:39.000Z</time>
      </trkpt>
      <trkpt lat="48.72572" lon="1.99622">
        <ele>165</ele>
        <time>2021-05-20T07:15:40.000Z</time>
      </trkpt>
      <trkpt lat="48.72572" lon="1.9962">
        <ele>165</ele>
        <time>2021-05-20T07:15:41.000Z</time>
      </trkpt>
      <trkpt lat="48.72573" lon="1.99619">
        <ele>165</ele>
        <time>2021-05-20T07:15:42.000Z</time>
      </trkpt>
      <trkpt lat="48.72573" lon="1.99617">
        <ele>165</ele>
        <time>2021-05-20T07:15:43.000Z</time>
      </trkpt>
      <trkpt lat="48.72572" lon="1.99615">
        <ele>165</ele>
        <time>2021-05-20T07:15:44.000Z</time>
      </trkpt>
      <trkpt lat="48.72573" lon="1.99613">
        <ele>165</ele>
        <time>2021-05-20T07:15:45.000Z</time>
      </trkpt>
      <trkpt lat="48.72573" lon="1.99611">
        <ele>165</ele>
        <time>2021-05-20T07:15:46.000Z</time>
      </trkpt>
      <trkpt lat="48.72573" lon="1.99609">
        <ele>165</ele>
        <time>2021-05-20T07:15:47.000Z</time>
      </trkpt>
      <trkpt lat="48.72574" lon="1.99608">
        <ele>165</ele>
        <time>2021-05-20T07:15:48.000Z</time>
      </trkpt>
      <trkpt lat="48.72574" lon="1.99606">
        <ele>165</ele>
        <time>2021-05-20T07:15:49.000Z</time>
      </trkpt>
      <trkpt lat="48.72574" lon="1.99604">
        <ele>165</ele>
        <time>2021-05-20T07:15:50.000Z</time>
      </trkpt>
      <trkpt lat="48.72574" lon="1.99602">
        <ele>165</ele>
        <time>2021-05-20T07:15:51.000Z</time>
      </trkpt>
      <trkpt lat="48.72573" lon="1.996">
        <ele>165</ele>
        <time>2021-05-20T07:15:52.000Z</time>
      </trkpt>
      <trkpt lat="48.72573" lon="1.99599">
        <ele>165</ele>
        <time>2021-05-20T07:15:53.000Z</time>
      </trkpt>
      <trkpt lat="48.72572" lon="1.99597">
        <ele>165</ele>
        <time>2021-05-20T07:15:54.000Z</time>
      </trkpt>
      <trkpt lat="48.72572" lon="1.99596">
        <ele>165</ele>
        <time>2021-05-20T07:15:55.000Z</time>
      </trkpt>
      <trkpt lat="48.72571" lon="1.99594">
        <ele>165</ele>
        <time>2021-05-20T07:15:56.000Z</time>
      </trkpt>
      <trkpt lat="48.7257" lon="1.99592">
        <ele>165</ele>
        <time>2021-05-20T07:15:57.000Z</time>
      </trkpt>
      <trkpt lat="48.72569" lon="1.99591">
        <ele>165</ele>
        <time>2021-05-20T07:15:58.000Z</time>
      </trkpt>
      <trkpt lat="48.72568" lon="1.99589">
        <ele>165</ele>
        <time>2021-05-20T07:15:59.000Z</time>
      </trkpt>
      <trkpt lat="48.72567" lon="1.99588">
        <ele>165</ele>
        <time>2021-05-20T07:16:00.000Z</time>
      </trkpt>
      <trkpt lat="48.72566" lon="1.99588">
        <ele>165</ele>
        <time>2021-05-20T07:16:01.000Z</time>
      </trkpt>
      <trkpt lat="48.72565" lon="1.99587">
        <ele>165</ele>
        <time>2021-05-20T07:16:02.000Z</time>
      </trkpt>
      <trkpt lat="48.72564" lon="1.99586">
        <ele>165</ele>
        <time>2021-05-20T07:16:03.000Z</time>
      </trkpt>
      <trkpt lat="48.72562" lon="1.99585">
        <ele>164</ele>
        <time>2021-05-20T07:16:04.000Z</time>
      </trkpt>
      <trkpt lat="48.72561" lon="1.99585">
        <ele>164</ele>
        <time>2021-05-20T07:16:05.000Z</time>
      </trkpt>
      <trkpt lat="48.7256" lon="1.99584">
        <ele>164</ele>
        <time>2021-05-20T07:16:06.000Z</time>
      </trkpt>
      <trkpt lat="48.72558" lon="1.99583">
        <ele>164</ele>
        <time>2021-05-20T07:16:07.000Z</time>
      </trkpt>
      <trkpt lat="48.72557" lon="1.99582">
        <ele>164</ele>
        <time>2021-05-20T07:16:08.000Z</time>
      </trkpt>
      <trkpt lat="48.72556" lon="1.99582">
        <ele>164</ele>
        <time>2021-05-20T07:16:09.000Z</time>
      </trkpt>
      <trkpt lat="48.72555" lon="1.99582">
        <ele>164</ele>
        <time>2021-05-20T07:16:10.000Z</time>
      </trkpt>
      <trkpt lat="48.72554" lon="1.99582">
        <ele>164</ele>
        <time>2021-05-20T07:16:11.000Z</time>
      </trkpt>
      <trkpt lat="48.72552" lon="1.99581">
        <ele>164</ele>
        <time>2021-05-20T07:16:12.000Z</time>
      </trkpt>
      <trkpt lat="48.72551" lon="1.9958">
        <ele>164</ele>
        <time>2021-05-20T07:16:13.000Z</time>
      </trkpt>
      <trkpt lat="48.72549" lon="1.9958">
        <ele>164</ele>
        <time>2021-05-20T07:16:14.000Z</time>
      </trkpt>
      <trkpt lat="48.72548" lon="1.9958">
        <ele>164</ele>
        <time>2021-05-20T07:16:15.000Z</time>
      </trkpt>
      <trkpt lat="48.72546" lon="1.99579">
        <ele>164</ele>
        <time>2021-05-20T07:16:16.000Z</time>
      </trkpt>
      <trkpt lat="48.72545" lon="1.99579">
        <ele>164</ele>
        <time>2021-05-20T07:16:17.000Z</time>
      </trkpt>
      <trkpt lat="48.72544" lon="1.99579">
        <ele>164</ele>
        <time>2021-05-20T07:16:18.000Z</time>
      </trkpt>
      <trkpt lat="48.72542" lon="1.99578">
        <ele>164</ele>
        <time>2021-05-20T07:16:19.000Z</time>
      </trkpt>
      <trkpt lat="48.72541" lon="1.99578">
        <ele>164</ele>
        <time>2021-05-20T07:16:20.000Z</time>
      </trkpt>
      <trkpt lat="48.7254" lon="1.99578">
        <ele>164</ele>
        <time>2021-05-20T07:16:21.000Z</time>
      </trkpt>
      <trkpt lat="48.72538" lon="1.99577">
        <ele>164</ele>
        <time>2021-05-20T07:16:22.000Z</time>
      </trkpt>
      <trkpt lat="48.72537" lon="1.99577">
        <ele>164</ele>
        <time>2021-05-20T07:16:23.000Z</time>
      </trkpt>
      <trkpt lat="48.72536" lon="1.99577">
        <ele>164</ele>
        <time>2021-05-20T07:16:24.000Z</time>
      </trkpt>
      <trkpt lat="48.72534" lon="1.99576">
        <ele>164</ele>
        <time>2021-05-20T07:16:25.000Z</time>
      </trkpt>
      <trkpt lat="48.72533" lon="1.99576">
        <ele>164</ele>
        <time>2021-05-20T07:16:26.000Z</time>
      </trkpt>
      <trkpt lat="48.72531" lon="1.99576">
        <ele>164</ele>
        <time>2021-05-20T07:16:27.000Z</time>
      </trkpt>
      <trkpt lat="48.7253" lon="1.99575">
        <ele>164</ele>
        <time>2021-05-20T07:16:28.000Z</time>
      </trkpt>
      <trkpt lat="48.72529" lon="1.99575">
        <ele>163</ele>
        <time>2021-05-20T07:16:29.000Z</time>
      </trkpt>
      <trkpt lat="48.72527" lon="1.99575">
        <ele>163</ele>
        <time>2021-05-20T07:16:30.000Z</time>
      </trkpt>
      <trkpt lat="48.72526" lon="1.99575">
        <ele>163</ele>
        <time>2021-05-20T07:16:31.000Z</time>
      </trkpt>
      <trkpt lat="48.72525" lon="1.99574">
        <ele>163</ele>
        <time>2021-05-20T07:16:32.000Z</time>
      </trkpt>
      <trkpt lat="48.72524" lon="1.99574">
        <ele>163</ele>
        <time>2021-05-20T07:16:33.000Z</time>
      </trkpt>
      <trkpt lat="48.72523" lon="1.99574">
        <ele>163</ele>
        <time>2021-05-20T07:16:34.000Z</time>
      </trkpt>
      <trkpt lat="48.72521" lon="1.99573">
        <ele>163</ele>
        <time>2021-05-20T07:16:35.000Z</time>
      </trkpt>
      <trkpt lat="48.7252" lon="1.99573">
        <ele>163</ele>
        <time>2021-05-20T07:16:36.000Z</time>
      </trkpt>
      <trkpt lat="48.72519" lon="1.99572">
        <ele>163</ele>
        <time>2021-05-20T07:16:37.000Z</time>
      </trkpt>
      <trkpt lat="48.72517" lon="1.99572">
        <ele>163</ele>
        <time>2021-05-20T07:16:38.000Z</time>
      </trkpt>
      <trkpt lat="48.72516" lon="1.99572">
        <ele>163</ele>
        <time>2021-05-20T07:16:39.000Z</time>
      </trkpt>
      <trkpt lat="48.72515" lon="1.99572">
        <ele>163</ele>
        <time>2021-05-20T07:16:40.000Z</time>
      </trkpt>
      <trkpt lat="48.72514" lon="1.99572">
        <ele>163</ele>
        <time>2021-05-20T07:16:41.000Z</time>
      </trkpt>
      <trkpt lat="48.72513" lon="1.99571">
        <ele>163</ele>
        <time>2021-05-20T07:16:42.000Z</time>
      </trkpt>
      <trkpt lat="48.72512" lon="1.99571">
        <ele>163</ele>
        <time>2021-05-20T07:16:43.000Z</time>
      </trkpt>
      <trkpt lat="48.7251" lon="1.9957">
        <ele>163</ele>
        <time>2021-05-20T07:16:44.000Z</time>
      </trkpt>
      <trkpt lat="48.72509" lon="1.9957">
        <ele>163</ele>
        <time>2021-05-20T07:16:45.000Z</time>
      </trkpt>
      <trkpt lat="48.72507" lon="1.9957">
        <ele>163</ele>
        <time>2021-05-20T07:16:46.000Z</time>
      </trkpt>
      <trkpt lat="48.72506" lon="1.9957">
        <ele>163</ele>
        <time>2021-05-20T07:16:47.000Z</time>
      </trkpt>
      <trkpt lat="48.72505" lon="1.9957">
        <ele>163</ele>
        <time>2021-05-20T07:16:48.000Z</time>
      </trkpt>
      <trkpt lat="48.72504" lon="1.9957">
        <ele>163</ele>
        <time>2021-05-20T07:16:49.000Z</time>
      </trkpt>
      <trkpt lat="48.72503" lon="1.99569">
        <ele>163</ele>
        <time>2021-05-20T07:16:50.000Z</time>
      </trkpt>
      <trkpt lat="48.72501" lon="1.99569">
        <ele>163</ele>
        <time>2021-05-20T07:16:51.000Z</time>
      </trkpt>
      <trkpt lat="48.725" lon="1.99569">
        <ele>163</ele>
        <time>2021-05-20T07:16:52.000Z</time>
      </trkpt>
      <trkpt lat="48.72499" lon="1.99568">
        <ele>163</ele>
        <time>2021-05-20T07:16:53.000Z</time>
      </trkpt>
      <trkpt lat="48.72497" lon="1.99568">
        <ele>163</ele>
        <time>2021-05-20T07:16:54.000Z</time>
      </trkpt>
      <trkpt lat="48.72496" lon="1.99567">
        <ele>163</ele>
        <time>2021-05-20T07:16:55.000Z</time>
      </trkpt>
      <trkpt lat="48.72494" lon="1.99567">
        <ele>163</ele>
        <time>2021-05-20T07:16:56.000Z</time>
      </trkpt>
      <trkpt lat="48.72493" lon="1.99567">
        <ele>163</ele>
        <time>2021-05-20T07:16:57.000Z</time>
      </trkpt>
      <trkpt lat="48.72492" lon="1.99567">
        <ele>163</ele>
        <time>2021-05-20T07:16:58.000Z</time>
      </trkpt>
      <trkpt lat="48.7249" lon="1.99567">
        <ele>163</ele>
        <time>2021-05-20T07:16:59.000Z</time>
      </trkpt>
      <trkpt lat="48.72489" lon="1.99566">
        <ele>163</ele>
        <time>2021-05-20T07:17:00.000Z</time>
      </trkpt>
      <trkpt lat="48.72488" lon="1.99566">
        <ele>162</ele>
        <time>2021-05-20T07:17:01.000Z</time>
      </trkpt>
      <trkpt lat="48.72487" lon="1.99566">
        <ele>162</ele>
        <time>2021-05-20T07:17:02.000Z</time>
      </trkpt>
      <trkpt lat="48.72485" lon="1.99565">
        <ele>162</ele>
        <time>2021-05-20T07:17:03.000Z</time>
      </trkpt>
      <trkpt lat="48.72484" lon="1.99565">
        <ele>162</ele>
        <time>2021-05-20T07:17:04.000Z</time>
      </trkpt>
      <trkpt lat="48.72483" lon="1.99565">
        <ele>162</ele>
        <time>2021-05-20T07:17:05.000Z</time>
      </trkpt>
      <trkpt lat="48.72481" lon="1.99565">
        <ele>162</ele>
        <time>2021-05-20T07:17:06.000Z</time>
      </trkpt>
      <trkpt lat="48.7248" lon="1.99565">
        <ele>162</ele>
        <time>2021-05-20T07:17:07.000Z</time>
      </trkpt>
      <trkpt lat="48.72479" lon="1.99565">
        <ele>162</ele>
        <time>2021-05-20T07:17:08.000Z</time>
      </trkpt>
      <trkpt lat="48.72478" lon="1.99565">
        <ele>162</ele>
        <time>2021-05-20T07:17:09.000Z</time>
      </trkpt>
      <trkpt lat="48.72477" lon="1.99564">
        <ele>162</ele>
        <time>2021-05-20T07:17:10.000Z</time>
      </trkpt>
      <trkpt lat="48.72476" lon="1.99565">
        <ele>162</ele>
        <time>2021-05-20T07:17:11.000Z</time>
      </trkpt>
      <trkpt lat="48.72474" lon="1.99564">
        <ele>162</ele>
        <time>2021-05-20T07:17:12.000Z</time>
      </trkpt>
      <trkpt lat="48.72473" lon="1.99564">
        <ele>162</ele>
        <time>2021-05-20T07:17:13.000Z</time>
      </trkpt>
      <trkpt lat="48.72472" lon="1.99564">
        <ele>162</ele>
        <time>2021-05-20T07:17:14.000Z</time>
      </trkpt>
      <trkpt lat="48.72471" lon="1.99563">
        <ele>162</ele>
        <time>2021-05-20T07:17:15.000Z</time>
      </trkpt>
      <trkpt lat="48.72469" lon="1.99562">
        <ele>162</ele>
        <time>2021-05-20T07:17:16.000Z</time>
      </trkpt>
      <trkpt lat="48.72468" lon="1.99562">
        <ele>162</ele>
        <time>2021-05-20T07:17:17.000Z</time>
      </trkpt>
      <trkpt lat="48.72467" lon="1.99561">
        <ele>162</ele>
        <time>2021-05-20T07:17:18.000Z</time>
      </trkpt>
      <trkpt lat="48.72466" lon="1.9956">
        <ele>162</ele>
        <time>2021-05-20T07:17:19.000Z</time>
      </trkpt>
      <trkpt lat="48.72465" lon="1.99559">
        <ele>162</ele>
        <time>2021-05-20T07:17:20.000Z</time>
      </trkpt>
      <trkpt lat="48.72464" lon="1.99558">
        <ele>162</ele>
        <time>2021-05-20T07:17:21.000Z</time>
      </trkpt>
      <trkpt lat="48.72463" lon="1.99557">
        <ele>162</ele>
        <time>2021-05-20T07:17:22.000Z</time>
      </trkpt>
      <trkpt lat="48.72462" lon="1.99556">
        <ele>162</ele>
        <time>2021-05-20T07:17:23.000Z</time>
      </trkpt>
      <trkpt lat="48.72462" lon="1.99555">
        <ele>163</ele>
        <time>2021-05-20T07:17:24.000Z</time>
      </trkpt>
      <trkpt lat="48.72461" lon="1.99553">
        <ele>163</ele>
        <time>2021-05-20T07:17:25.000Z</time>
      </trkpt>
      <trkpt lat="48.7246" lon="1.99552">
        <ele>163</ele>
        <time>2021-05-20T07:17:26.000Z</time>
      </trkpt>
      <trkpt lat="48.7246" lon="1.9955">
        <ele>163</ele>
        <time>2021-05-20T07:17:27.000Z</time>
      </trkpt>
      <trkpt lat="48.72459" lon="1.99548">
        <ele>163</ele>
        <time>2021-05-20T07:17:28.000Z</time>
      </trkpt>
      <trkpt lat="48.72458" lon="1.99547">
        <ele>163</ele>
        <time>2021-05-20T07:17:29.000Z</time>
      </trkpt>
      <trkpt lat="48.72458" lon="1.99545">
        <ele>163</ele>
        <time>2021-05-20T07:17:30.000Z</time>
      </trkpt>
      <trkpt lat="48.72458" lon="1.99543">
        <ele>163</ele>
        <time>2021-05-20T07:17:31.000Z</time>
      </trkpt>
      <trkpt lat="48.72457" lon="1.9954">
        <ele>164</ele>
        <time>2021-05-20T07:17:32.000Z</time>
      </trkpt>
      <trkpt lat="48.72457" lon="1.99538">
        <ele>164</ele>
        <time>2021-05-20T07:17:33.000Z</time>
      </trkpt>
      <trkpt lat="48.72457" lon="1.99536">
        <ele>164</ele>
        <time>2021-05-20T07:17:34.000Z</time>
      </trkpt>
      <trkpt lat="48.72457" lon="1.99534">
        <ele>164</ele>
        <time>2021-05-20T07:17:35.000Z</time>
      </trkpt>
      <trkpt lat="48.72457" lon="1.99532">
        <ele>164</ele>
        <time>2021-05-20T07:17:36.000Z</time>
      </trkpt>
      <trkpt lat="48.72457" lon="1.99531">
        <ele>164</ele>
        <time>2021-05-20T07:17:37.000Z</time>
      </trkpt>
      <trkpt lat="48.72457" lon="1.99529">
        <ele>164</ele>
        <time>2021-05-20T07:17:38.000Z</time>
      </trkpt>
      <trkpt lat="48.72457" lon="1.99527">
        <ele>164</ele>
        <time>2021-05-20T07:17:39.000Z</time>
      </trkpt>
      <trkpt lat="48.72457" lon="1.99525">
        <ele>165</ele>
        <time>2021-05-20T07:17:40.000Z</time>
      </trkpt>
      <trkpt lat="48.72457" lon="1.99523">
        <ele>165</ele>
        <time>2021-05-20T07:17:41.000Z</time>
      </trkpt>
      <trkpt lat="48.72457" lon="1.99521">
        <ele>165</ele>
        <time>2021-05-20T07:17:42.000Z</time>
      </trkpt>
      <trkpt lat="48.72457" lon="1.99519">
        <ele>165</ele>
        <time>2021-05-20T07:17:43.000Z</time>
      </trkpt>
      <trkpt lat="48.72457" lon="1.99517">
        <ele>165</ele>
        <time>2021-05-20T07:17:44.000Z</time>
      </trkpt>
      <trkpt lat="48.72457" lon="1.99515">
        <ele>165</ele>
        <time>2021-05-20T07:17:45.000Z</time>
      </trkpt>
      <trkpt lat="48.72457" lon="1.99513">
        <ele>165</ele>
        <time>2021-05-20T07:17:46.000Z</time>
      </trkpt>
      <trkpt lat="48.72457" lon="1.99511">
        <ele>165</ele>
        <time>2021-05-20T07:17:47.000Z</time>
      </trkpt>
      <trkpt lat="48.72457" lon="1.99509">
        <ele>165</ele>
        <time>2021-05-20T07:17:48.000Z</time>
      </trkpt>
      <trkpt lat="48.72457" lon="1.99506">
        <ele>165</ele>
        <time>2021-05-20T07:17:49.000Z</time>
      </trkpt>
      <trkpt lat="48.72457" lon="1.99504">
        <ele>165</ele>
        <time>2021-05-20T07:17:50.000Z</time>
      </trkpt>
      <trkpt lat="48.72457" lon="1.99502">
        <ele>165</ele>
        <time>2021-05-20T07:17:51.000Z</time>
      </trkpt>
      <trkpt lat="48.72457" lon="1.995">
        <ele>165</ele>
        <time>2021-05-20T07:17:52.000Z</time>
      </trkpt>
      <trkpt lat="48.72456" lon="1.99499">
        <ele>165</ele>
        <time>2021-05-20T07:17:53.000Z</time>
      </trkpt>
      <trkpt lat="48.72456" lon="1.99497">
        <ele>165</ele>
        <time>2021-05-20T07:17:54.000Z</time>
      </trkpt>
      <trkpt lat="48.72455" lon="1.99495">
        <ele>165</ele>
        <time>2021-05-20T07:17:55.000Z</time>
      </trkpt>
      <trkpt lat="48.72455" lon="1.99493">
        <ele>165</ele>
        <time>2021-05-20T07:17:56.000Z</time>
      </trkpt>
      <trkpt lat="48.72454" lon="1.99492">
        <ele>165</ele>
        <time>2021-05-20T07:17:57.000Z</time>
      </trkpt>
      <trkpt lat="48.72453" lon="1.9949">
        <ele>165</ele>
        <time>2021-05-20T07:17:58.000Z</time>
      </trkpt>
      <trkpt lat="48.72452" lon="1.99488">
        <ele>165</ele>
        <time>2021-05-20T07:17:59.000Z</time>
      </trkpt>
      <trkpt lat="48.72451" lon="1.99487">
        <ele>165</ele>
        <time>2021-05-20T07:18:00.000Z</time>
      </trkpt>
      <trkpt lat="48.7245" lon="1.99486">
        <ele>165</ele>
        <time>2021-05-20T07:18:01.000Z</time>
      </trkpt>
      <trkpt lat="48.7245" lon="1.99485">
        <ele>165</ele>
        <time>2021-05-20T07:18:02.000Z</time>
      </trkpt>
      <trkpt lat="48.72449" lon="1.99484">
        <ele>165</ele>
        <time>2021-05-20T07:18:03.000Z</time>
      </trkpt>
      <trkpt lat="48.72448" lon="1.99483">
        <ele>165</ele>
        <time>2021-05-20T07:18:04.000Z</time>
      </trkpt>
      <trkpt lat="48.72447" lon="1.99482">
        <ele>165</ele>
        <time>2021-05-20T07:18:05.000Z</time>
      </trkpt>
      <trkpt lat="48.72446" lon="1.99481">
        <ele>165</ele>
        <time>2021-05-20T07:18:06.000Z</time>
      </trkpt>
      <trkpt lat="48.72444" lon="1.9948">
        <ele>165</ele>
        <time>2021-05-20T07:18:07.000Z</time>
      </trkpt>
      <trkpt lat="48.72443" lon="1.99479">
        <ele>165</ele>
        <time>2021-05-20T07:18:08.000Z</time>
      </trkpt>
      <trkpt lat="48.72442" lon="1.99478">
        <ele>164</ele>
        <time>2021-05-20T07:18:09.000Z</time>
      </trkpt>
      <trkpt lat="48.72441" lon="1.99478">
        <ele>164</ele>
        <time>2021-05-20T07:18:10.000Z</time>
      </trkpt>
      <trkpt lat="48.7244" lon="1.99477">
        <ele>164</ele>
        <time>2021-05-20T07:18:11.000Z</time>
      </trkpt>
      <trkpt lat="48.72439" lon="1.99477">
        <ele>164</ele>
        <time>2021-05-20T07:18:12.000Z</time>
      </trkpt>
      <trkpt lat="48.72437" lon="1.99476">
        <ele>164</ele>
        <time>2021-05-20T07:18:13.000Z</time>
      </trkpt>
      <trkpt lat="48.72436" lon="1.99476">
        <ele>164</ele>
        <time>2021-05-20T07:18:14.000Z</time>
      </trkpt>
      <trkpt lat="48.72435" lon="1.99476">
        <ele>164</ele>
        <time>2021-05-20T07:18:15.000Z</time>
      </trkpt>
      <trkpt lat="48.72434" lon="1.99475">
        <ele>164</ele>
        <time>2021-05-20T07:18:16.000Z</time>
      </trkpt>
      <trkpt lat="48.72432" lon="1.99475">
        <ele>164</ele>
        <time>2021-05-20T07:18:17.000Z</time>
      </trkpt>
      <trkpt lat="48.72431" lon="1.99475">
        <ele>164</ele>
        <time>2021-05-20T07:18:18.000Z</time>
      </trkpt>
      <trkpt lat="48.7243" lon="1.99475">
        <ele>164</ele>
        <time>2021-05-20T07:18:19.000Z</time>
      </trkpt>
      <trkpt lat="48.72429" lon="1.99475">
        <ele>164</ele>
        <time>2021-05-20T07:18:20.000Z</time>
      </trkpt>
      <trkpt lat="48.72428" lon="1.99475">
        <ele>164</ele>
        <time>2021-05-20T07:18:21.000Z</time>
      </trkpt>
      <trkpt lat="48.72427" lon="1.99475">
        <ele>164</ele>
        <time>2021-05-20T07:18:22.000Z</time>
      </trkpt>
      <trkpt lat="48.72426" lon="1.99475">
        <ele>164</ele>
        <time>2021-05-20T07:18:23.000Z</time>
      </trkpt>
      <trkpt lat="48.72425" lon="1.99474">
        <ele>164</ele>
        <time>2021-05-20T07:18:24.000Z</time>
      </trkpt>
      <trkpt lat="48.72423" lon="1.99474">
        <ele>164</ele>
        <time>2021-05-20T07:18:25.000Z</time>
      </trkpt>
      <trkpt lat="48.72422" lon="1.99474">
        <ele>164</ele>
        <time>2021-05-20T07:18:26.000Z</time>
      </trkpt>
      <trkpt lat="48.7242" lon="1.99474">
        <ele>164</ele>
        <time>2021-05-20T07:18:27.000Z</time>
      </trkpt>
      <trkpt lat="48.72419" lon="1.99473">
        <ele>164</ele>
        <time>2021-05-20T07:18:28.000Z</time>
      </trkpt>
      <trkpt lat="48.72417" lon="1.99473">
        <ele>164</ele>
        <time>2021-05-20T07:18:29.000Z</time>
      </trkpt>
      <trkpt lat="48.72416" lon="1.99473">
        <ele>164</ele>
        <time>2021-05-20T07:18:30.000Z</time>
      </trkpt>
      <trkpt lat="48.72415" lon="1.99473">
        <ele>164</ele>
        <time>2021-05-20T07:18:31.000Z</time>
      </trkpt>
      <trkpt lat="48.72414" lon="1.99473">
        <ele>165</ele>
        <time>2021-05-20T07:18:32.000Z</time>
      </trkpt>
      <trkpt lat="48.72412" lon="1.99473">
        <ele>165</ele>
        <time>2021-05-20T07:18:33.000Z</time>
      </trkpt>
      <trkpt lat="48.72411" lon="1.99473">
        <ele>165</ele>
        <time>2021-05-20T07:18:34.000Z</time>
      </trkpt>
      <trkpt lat="48.7241" lon="1.99472">
        <ele>165</ele>
        <time>2021-05-20T07:18:35.000Z</time>
      </trkpt>
      <trkpt lat="48.72408" lon="1.99472">
        <ele>164</ele>
        <time>2021-05-20T07:18:36.000Z</time>
      </trkpt>
      <trkpt lat="48.72407" lon="1.99471">
        <ele>164</ele>
        <time>2021-05-20T07:18:37.000Z</time>
      </trkpt>
      <trkpt lat="48.72406" lon="1.99471">
        <ele>165</ele>
        <time>2021-05-20T07:18:38.000Z</time>
      </trkpt>
      <trkpt lat="48.72404" lon="1.99471">
        <ele>164</ele>
        <time>2021-05-20T07:18:39.000Z</time>
      </trkpt>
      <trkpt lat="48.72403" lon="1.99471">
        <ele>164</ele>
        <time>2021-05-20T07:18:40.000Z</time>
      </trkpt>
      <trkpt lat="48.72401" lon="1.9947">
        <ele>164</ele>
        <time>2021-05-20T07:18:41.000Z</time>
      </trkpt>
      <trkpt lat="48.724" lon="1.9947">
        <ele>164</ele>
        <time>2021-05-20T07:18:42.000Z</time>
      </trkpt>
      <trkpt lat="48.72399" lon="1.9947">
        <ele>164</ele>
        <time>2021-05-20T07:18:43.000Z</time>
      </trkpt>
      <trkpt lat="48.72398" lon="1.99469">
        <ele>164</ele>
        <time>2021-05-20T07:18:44.000Z</time>
      </trkpt>
      <trkpt lat="48.72396" lon="1.99469">
        <ele>164</ele>
        <time>2021-05-20T07:18:45.000Z</time>
      </trkpt>
      <trkpt lat="48.72395" lon="1.99469">
        <ele>164</ele>
        <time>2021-05-20T07:18:46.000Z</time>
      </trkpt>
      <trkpt lat="48.72393" lon="1.99468">
        <ele>164</ele>
        <time>2021-05-20T07:18:47.000Z</time>
      </trkpt>
      <trkpt lat="48.72392" lon="1.99468">
        <ele>164</ele>
        <time>2021-05-20T07:18:48.000Z</time>
      </trkpt>
      <trkpt lat="48.7239" lon="1.99467">
        <ele>164</ele>
        <time>2021-05-20T07:18:49.000Z</time>
      </trkpt>
      <trkpt lat="48.72389" lon="1.99467">
        <ele>164</ele>
        <time>2021-05-20T07:18:50.000Z</time>
      </trkpt>
      <trkpt lat="48.72387" lon="1.99466">
        <ele>164</ele>
        <time>2021-05-20T07:18:51.000Z</time>
      </trkpt>
      <trkpt lat="48.72386" lon="1.99466">
        <ele>164</ele>
        <time>2021-05-20T07:18:52.000Z</time>
      </trkpt>
      <trkpt lat="48.72384" lon="1.99466">
        <ele>164</ele>
        <time>2021-05-20T07:18:53.000Z</time>
      </trkpt>
      <trkpt lat="48.72382" lon="1.99465">
        <ele>164</ele>
        <time>2021-05-20T07:18:54.000Z</time>
      </trkpt>
      <trkpt lat="48.72381" lon="1.99465">
        <ele>164</ele>
        <time>2021-05-20T07:18:55.000Z</time>
      </trkpt>
      <trkpt lat="48.72379" lon="1.99464">
        <ele>163</ele>
        <time>2021-05-20T07:18:56.000Z</time>
      </trkpt>
      <trkpt lat="48.72378" lon="1.99464">
        <ele>163</ele>
        <time>2021-05-20T07:18:57.000Z</time>
      </trkpt>
      <trkpt lat="48.72377" lon="1.99464">
        <ele>163</ele>
        <time>2021-05-20T07:18:58.000Z</time>
      </trkpt>
      <trkpt lat="48.72375" lon="1.99463">
        <ele>164</ele>
        <time>2021-05-20T07:18:59.000Z</time>
      </trkpt>
      <trkpt lat="48.72374" lon="1.99463">
        <ele>164</ele>
        <time>2021-05-20T07:19:00.000Z</time>
      </trkpt>
      <trkpt lat="48.72373" lon="1.99463">
        <ele>164</ele>
        <time>2021-05-20T07:19:01.000Z</time>
      </trkpt>
      <trkpt lat="48.72372" lon="1.99463">
        <ele>164</ele>
        <time>2021-05-20T07:19:02.000Z</time>
      </trkpt>
      <trkpt lat="48.72371" lon="1.99463">
        <ele>164</ele>
        <time>2021-05-20T07:19:03.000Z</time>
      </trkpt>
      <trkpt lat="48.72369" lon="1.99463">
        <ele>164</ele>
        <time>2021-05-20T07:19:04.000Z</time>
      </trkpt>
      <trkpt lat="48.72368" lon="1.99463">
        <ele>164</ele>
        <time>2021-05-20T07:19:05.000Z</time>
      </trkpt>
      <trkpt lat="48.72366" lon="1.99462">
        <ele>164</ele>
        <time>2021-05-20T07:19:06.000Z</time>
      </trkpt>
      <trkpt lat="48.72365" lon="1.99462">
        <ele>164</ele>
        <time>2021-05-20T07:19:07.000Z</time>
      </trkpt>
      <trkpt lat="48.72363" lon="1.99462">
        <ele>164</ele>
        <time>2021-05-20T07:19:08.000Z</time>
      </trkpt>
      <trkpt lat="48.72362" lon="1.99462">
        <ele>164</ele>
        <time>2021-05-20T07:19:09.000Z</time>
      </trkpt>
      <trkpt lat="48.7236" lon="1.99462">
        <ele>164</ele>
        <time>2021-05-20T07:19:10.000Z</time>
      </trkpt>
      <trkpt lat="48.72359" lon="1.99462">
        <ele>163</ele>
        <time>2021-05-20T07:19:11.000Z</time>
      </trkpt>
      <trkpt lat="48.72358" lon="1.99461">
        <ele>163</ele>
        <time>2021-05-20T07:19:12.000Z</time>
      </trkpt>
      <trkpt lat="48.72357" lon="1.99461">
        <ele>163</ele>
        <time>2021-05-20T07:19:13.000Z</time>
      </trkpt>
      <trkpt lat="48.72355" lon="1.99461">
        <ele>163</ele>
        <time>2021-05-20T07:19:14.000Z</time>
      </trkpt>
      <trkpt lat="48.72354" lon="1.99461">
        <ele>163</ele>
        <time>2021-05-20T07:19:15.000Z</time>
      </trkpt>
      <trkpt lat="48.72353" lon="1.99461">
        <ele>163</ele>
        <time>2021-05-20T07:19:16.000Z</time>
      </trkpt>
      <trkpt lat="48.72352" lon="1.99461">
        <ele>163</ele>
        <time>2021-05-20T07:19:17.000Z</time>
      </trkpt>
      <trkpt lat="48.7235" lon="1.9946">
        <ele>163</ele>
        <time>2021-05-20T07:19:18.000Z</time>
      </trkpt>
      <trkpt lat="48.72349" lon="1.9946">
        <ele>163</ele>
        <time>2021-05-20T07:19:19.000Z</time>
      </trkpt>
      <trkpt lat="48.72347" lon="1.9946">
        <ele>163</ele>
        <time>2021-05-20T07:19:20.000Z</time>
      </trkpt>
      <trkpt lat="48.72346" lon="1.9946">
        <ele>163</ele>
        <time>2021-05-20T07:19:21.000Z</time>
      </trkpt>
      <trkpt lat="48.72344" lon="1.99459">
        <ele>164</ele>
        <time>2021-05-20T07:19:22.000Z</time>
      </trkpt>
      <trkpt lat="48.72343" lon="1.99459">
        <ele>164</ele>
        <time>2021-05-20T07:19:23.000Z</time>
      </trkpt>
      <trkpt lat="48.72342" lon="1.99459">
        <ele>164</ele>
        <time>2021-05-20T07:19:24.000Z</time>
      </trkpt>
      <trkpt lat="48.72341" lon="1.99459">
        <ele>164</ele>
        <time>2021-05-20T07:19:25.000Z</time>
      </trkpt>
      <trkpt lat="48.7234" lon="1.99459">
        <ele>164</ele>
        <time>2021-05-20T07:19:26.000Z</time>
      </trkpt>
      <trkpt lat="48.72339" lon="1.99459">
        <ele>164</ele>
        <time>2021-05-20T07:19:27.000Z</time>
      </trkpt>
      <trkpt lat="48.72337" lon="1.99459">
        <ele>164</ele>
        <time>2021-05-20T07:19:28.000Z</time>
      </trkpt>
      <trkpt lat="48.72336" lon="1.99458">
        <ele>164</ele>
        <time>2021-05-20T07:19:29.000Z</time>
      </trkpt>
      <trkpt lat="48.72334" lon="1.99458">
        <ele>164</ele>
        <time>2021-05-20T07:19:30.000Z</time>
      </trkpt>
      <trkpt lat="48.72333" lon="1.99457">
        <ele>164</ele>
        <time>2021-05-20T07:19:31.000Z</time>
      </trkpt>
      <trkpt lat="48.72331" lon="1.99457">
        <ele>164</ele>
        <time>2021-05-20T07:19:32.000Z</time>
      </trkpt>
      <trkpt lat="48.7233" lon="1.99456">
        <ele>164</ele>
        <time>2021-05-20T07:19:33.000Z</time>
      </trkpt>
      <trkpt lat="48.72329" lon="1.99455">
        <ele>164</ele>
        <time>2021-05-20T07:19:34.000Z</time>
      </trkpt>
      <trkpt lat="48.72327" lon="1.99455">
        <ele>164</ele>
        <time>2021-05-20T07:19:35.000Z</time>
      </trkpt>
      <trkpt lat="48.72326" lon="1.99455">
        <ele>164</ele>
        <time>2021-05-20T07:19:36.000Z</time>
      </trkpt>
      <trkpt lat="48.72325" lon="1.99454">
        <ele>164</ele>
        <time>2021-05-20T07:19:37.000Z</time>
      </trkpt>
      <trkpt lat="48.72324" lon="1.99453">
        <ele>164</ele>
        <time>2021-05-20T07:19:38.000Z</time>
      </trkpt>
      <trkpt lat="48.72322" lon="1.99453">
        <ele>164</ele>
        <time>2021-05-20T07:19:39.000Z</time>
      </trkpt>
      <trkpt lat="48.72321" lon="1.99452">
        <ele>164</ele>
        <time>2021-05-20T07:19:40.000Z</time>
      </trkpt>
      <trkpt lat="48.7232" lon="1.99452">
        <ele>164</ele>
        <time>2021-05-20T07:19:41.000Z</time>
      </trkpt>
      <trkpt lat="48.72318" lon="1.99451">
        <ele>164</ele>
        <time>2021-05-20T07:19:42.000Z</time>
      </trkpt>
      <trkpt lat="48.72317" lon="1.99451">
        <ele>164</ele>
        <time>2021-05-20T07:19:43.000Z</time>
      </trkpt>
      <trkpt lat="48.72315" lon="1.9945">
        <ele>164</ele>
        <time>2021-05-20T07:19:44.000Z</time>
      </trkpt>
      <trkpt lat="48.72314" lon="1.9945">
        <ele>164</ele>
        <time>2021-05-20T07:19:45.000Z</time>
      </trkpt>
      <trkpt lat="48.72313" lon="1.99449">
        <ele>164</ele>
        <time>2021-05-20T07:19:46.000Z</time>
      </trkpt>
      <trkpt lat="48.72312" lon="1.99449">
        <ele>164</ele>
        <time>2021-05-20T07:19:47.000Z</time>
      </trkpt>
      <trkpt lat="48.72311" lon="1.99448">
        <ele>164</ele>
        <time>2021-05-20T07:19:48.000Z</time>
      </trkpt>
      <trkpt lat="48.72309" lon="1.99448">
        <ele>164</ele>
        <time>2021-05-20T07:19:49.000Z</time>
      </trkpt>
      <trkpt lat="48.72308" lon="1.99447">
        <ele>164</ele>
        <time>2021-05-20T07:19:50.000Z</time>
      </trkpt>
      <trkpt lat="48.72307" lon="1.99447">
        <ele>164</ele>
        <time>2021-05-20T07:19:51.000Z</time>
      </trkpt>
      <trkpt lat="48.72305" lon="1.99446">
        <ele>164</ele>
        <time>2021-05-20T07:19:52.000Z</time>
      </trkpt>
      <trkpt lat="48.72304" lon="1.99446">
        <ele>164</ele>
        <time>2021-05-20T07:19:53.000Z</time>
      </trkpt>
      <trkpt lat="48.72303" lon="1.99445">
        <ele>164</ele>
        <time>2021-05-20T07:19:54.000Z</time>
      </trkpt>
      <trkpt lat="48.72301" lon="1.99445">
        <ele>164</ele>
        <time>2021-05-20T07:19:55.000Z</time>
      </trkpt>
      <trkpt lat="48.723" lon="1.99444">
        <ele>164</ele>
        <time>2021-05-20T07:19:56.000Z</time>
      </trkpt>
      <trkpt lat="48.72298" lon="1.99444">
        <ele>164</ele>
        <time>2021-05-20T07:19:57.000Z</time>
      </trkpt>
      <trkpt lat="48.72297" lon="1.99443">
        <ele>165</ele>
        <time>2021-05-20T07:19:58.000Z</time>
      </trkpt>
      <trkpt lat="48.72296" lon="1.99443">
        <ele>165</ele>
        <time>2021-05-20T07:19:59.000Z</time>
      </trkpt>
      <trkpt lat="48.72295" lon="1.99443">
        <ele>165</ele>
        <time>2021-05-20T07:20:00.000Z</time>
      </trkpt>
      <trkpt lat="48.72294" lon="1.99442">
        <ele>165</ele>
        <time>2021-05-20T07:20:01.000Z</time>
      </trkpt>
      <trkpt lat="48.72292" lon="1.99442">
        <ele>165</ele>
        <time>2021-05-20T07:20:02.000Z</time>
      </trkpt>
      <trkpt lat="48.72291" lon="1.99441">
        <ele>165</ele>
        <time>2021-05-20T07:20:03.000Z</time>
      </trkpt>
      <trkpt lat="48.72289" lon="1.9944">
        <ele>165</ele>
        <time>2021-05-20T07:20:04.000Z</time>
      </trkpt>
      <trkpt lat="48.72288" lon="1.9944">
        <ele>165</ele>
        <time>2021-05-20T07:20:05.000Z</time>
      </trkpt>
      <trkpt lat="48.72287" lon="1.99439">
        <ele>165</ele>
        <time>2021-05-20T07:20:06.000Z</time>
      </trkpt>
      <trkpt lat="48.72286" lon="1.99438">
        <ele>165</ele>
        <time>2021-05-20T07:20:07.000Z</time>
      </trkpt>
      <trkpt lat="48.72284" lon="1.99438">
        <ele>165</ele>
        <time>2021-05-20T07:20:08.000Z</time>
      </trkpt>
      <trkpt lat="48.72283" lon="1.99437">
        <ele>165</ele>
        <time>2021-05-20T07:20:09.000Z</time>
      </trkpt>
      <trkpt lat="48.72282" lon="1.99437">
        <ele>165</ele>
        <time>2021-05-20T07:20:10.000Z</time>
      </trkpt>
      <trkpt lat="48.72281" lon="1.99436">
        <ele>165</ele>
        <time>2021-05-20T07:20:11.000Z</time>
      </trkpt>
      <trkpt lat="48.7228" lon="1.99435">
        <ele>165</ele>
        <time>2021-05-20T07:20:12.000Z</time>
      </trkpt>
      <trkpt lat="48.72278" lon="1.99434">
        <ele>165</ele>
        <time>2021-05-20T07:20:13.000Z</time>
      </trkpt>
      <trkpt lat="48.72277" lon="1.99434">
        <ele>165</ele>
        <time>2021-05-20T07:20:14.000Z</time>
      </trkpt>
      <trkpt lat="48.72275" lon="1.99433">
        <ele>165</ele>
        <time>2021-05-20T07:20:15.000Z</time>
      </trkpt>
      <trkpt lat="48.72274" lon="1.99432">
        <ele>165</ele>
        <time>2021-05-20T07:20:16.000Z</time>
      </trkpt>
      <trkpt lat="48.72273" lon="1.99431">
        <ele>164</ele>
        <time>2021-05-20T07:20:17.000Z</time>
      </trkpt>
      <trkpt lat="48.72271" lon="1.9943">
        <ele>164</ele>
        <time>2021-05-20T07:20:18.000Z</time>
      </trkpt>
      <trkpt lat="48.7227" lon="1.99429">
        <ele>164</ele>
        <time>2021-05-20T07:20:19.000Z</time>
      </trkpt>
      <trkpt lat="48.72269" lon="1.99429">
        <ele>164</ele>
        <time>2021-05-20T07:20:20.000Z</time>
      </trkpt>
      <trkpt lat="48.72268" lon="1.99428">
        <ele>164</ele>
        <time>2021-05-20T07:20:21.000Z</time>
      </trkpt>
      <trkpt lat="48.72267" lon="1.99427">
        <ele>164</ele>
        <time>2021-05-20T07:20:22.000Z</time>
      </trkpt>
      <trkpt lat="48.72265" lon="1.99427">
        <ele>164</ele>
        <time>2021-05-20T07:20:23.000Z</time>
      </trkpt>
      <trkpt lat="48.72264" lon="1.99426">
        <ele>164</ele>
        <time>2021-05-20T07:20:24.000Z</time>
      </trkpt>
      <trkpt lat="48.72263" lon="1.99425">
        <ele>164</ele>
        <time>2021-05-20T07:20:25.000Z</time>
      </trkpt>
      <trkpt lat="48.72262" lon="1.99424">
        <ele>164</ele>
        <time>2021-05-20T07:20:26.000Z</time>
      </trkpt>
      <trkpt lat="48.72261" lon="1.99423">
        <ele>164</ele>
        <time>2021-05-20T07:20:27.000Z</time>
      </trkpt>
      <trkpt lat="48.72259" lon="1.99422">
        <ele>164</ele>
        <time>2021-05-20T07:20:28.000Z</time>
      </trkpt>
      <trkpt lat="48.72258" lon="1.99422">
        <ele>164</ele>
        <time>2021-05-20T07:20:29.000Z</time>
      </trkpt>
      <trkpt lat="48.72256" lon="1.99421">
        <ele>164</ele>
        <time>2021-05-20T07:20:30.000Z</time>
      </trkpt>
      <trkpt lat="48.72256" lon="1.99421">
        <ele>164</ele>
        <time>2021-05-20T07:20:31.000Z</time>
      </trkpt>
      <trkpt lat="48.72255" lon="1.9942">
        <ele>164</ele>
        <time>2021-05-20T07:20:32.000Z</time>
      </trkpt>
      <trkpt lat="48.72254" lon="1.9942">
        <ele>164</ele>
        <time>2021-05-20T07:20:33.000Z</time>
      </trkpt>
      <trkpt lat="48.72254" lon="1.9942">
        <ele>164</ele>
        <time>2021-05-20T07:20:34.000Z</time>
      </trkpt>
      <trkpt lat="48.72254" lon="1.99419">
        <ele>164</ele>
        <time>2021-05-20T07:20:35.000Z</time>
      </trkpt>
      <trkpt lat="48.72254" lon="1.99419">
        <ele>164</ele>
        <time>2021-05-20T07:20:36.000Z</time>
      </trkpt>
      <trkpt lat="48.72253" lon="1.99419">
        <ele>165</ele>
        <time>2021-05-20T07:20:37.000Z</time>
      </trkpt>
      <trkpt lat="48.72253" lon="1.99419">
        <ele>165</ele>
        <time>2021-05-20T07:20:38.000Z</time>
      </trkpt>
      <trkpt lat="48.72253" lon="1.99418">
        <ele>165</ele>
        <time>2021-05-20T07:20:39.000Z</time>
      </trkpt>
      <trkpt lat="48.72251" lon="1.99417">
        <ele>164</ele>
        <time>2021-05-20T07:20:40.000Z</time>
      </trkpt>
      <trkpt lat="48.7225" lon="1.99417">
        <ele>164</ele>
        <time>2021-05-20T07:20:41.000Z</time>
      </trkpt>
      <trkpt lat="48.72248" lon="1.99416">
        <ele>164</ele>
        <time>2021-05-20T07:20:42.000Z</time>
      </trkpt>
      <trkpt lat="48.72247" lon="1.99416">
        <ele>164</ele>
        <time>2021-05-20T07:20:43.000Z</time>
      </trkpt>
      <trkpt lat="48.72245" lon="1.99416">
        <ele>164</ele>
        <time>2021-05-20T07:20:44.000Z</time>
      </trkpt>
      <trkpt lat="48.72244" lon="1.99415">
        <ele>164</ele>
        <time>2021-05-20T07:20:45.000Z</time>
      </trkpt>
      <trkpt lat="48.72243" lon="1.99415">
        <ele>164</ele>
        <time>2021-05-20T07:20:46.000Z</time>
      </trkpt>
      <trkpt lat="48.72241" lon="1.99415">
        <ele>164</ele>
        <time>2021-05-20T07:20:47.000Z</time>
      </trkpt>
      <trkpt lat="48.7224" lon="1.99415">
        <ele>164</ele>
        <time>2021-05-20T07:20:48.000Z</time>
      </trkpt>
      <trkpt lat="48.72239" lon="1.99415">
        <ele>164</ele>
        <time>2021-05-20T07:20:49.000Z</time>
      </trkpt>
      <trkpt lat="48.72237" lon="1.99415">
        <ele>164</ele>
        <time>2021-05-20T07:20:50.000Z</time>
      </trkpt>
      <trkpt lat="48.72236" lon="1.99415">
        <ele>164</ele>
        <time>2021-05-20T07:20:51.000Z</time>
      </trkpt>
      <trkpt lat="48.72235" lon="1.99416">
        <ele>164</ele>
        <time>2021-05-20T07:20:52.000Z</time>
      </trkpt>
      <trkpt lat="48.72233" lon="1.99416">
        <ele>164</ele>
        <time>2021-05-20T07:20:53.000Z</time>
      </trkpt>
      <trkpt lat="48.72232" lon="1.99416">
        <ele>164</ele>
        <time>2021-05-20T07:20:54.000Z</time>
      </trkpt>
      <trkpt lat="48.72231" lon="1.99416">
        <ele>164</ele>
        <time>2021-05-20T07:20:55.000Z</time>
      </trkpt>
      <trkpt lat="48.72229" lon="1.99417">
        <ele>164</ele>
        <time>2021-05-20T07:20:56.000Z</time>
      </trkpt>
      <trkpt lat="48.72228" lon="1.99417">
        <ele>164</ele>
        <time>2021-05-20T07:20:57.000Z</time>
      </trkpt>
      <trkpt lat="48.72227" lon="1.99417">
        <ele>164</ele>
        <time>2021-05-20T07:20:58.000Z</time>
      </trkpt>
      <trkpt lat="48.72225" lon="1.99417">
        <ele>164</ele>
        <time>2021-05-20T07:20:59.000Z</time>
      </trkpt>
      <trkpt lat="48.72224" lon="1.99418">
        <ele>164</ele>
        <time>2021-05-20T07:21:00.000Z</time>
      </trkpt>
      <trkpt lat="48.72223" lon="1.99418">
        <ele>164</ele>
        <time>2021-05-20T07:21:01.000Z</time>
      </trkpt>
      <trkpt lat="48.72222" lon="1.99419">
        <ele>164</ele>
        <time>2021-05-20T07:21:02.000Z</time>
      </trkpt>
      <trkpt lat="48.7222" lon="1.99419">
        <ele>164</ele>
        <time>2021-05-20T07:21:03.000Z</time>
      </trkpt>
      <trkpt lat="48.72219" lon="1.9942">
        <ele>164</ele>
        <time>2021-05-20T07:21:04.000Z</time>
      </trkpt>
      <trkpt lat="48.72218" lon="1.9942">
        <ele>164</ele>
        <time>2021-05-20T07:21:05.000Z</time>
      </trkpt>
      <trkpt lat="48.72217" lon="1.99421">
        <ele>165</ele>
        <time>2021-05-20T07:21:06.000Z</time>
      </trkpt>
      <trkpt lat="48.72215" lon="1.99421">
        <ele>165</ele>
        <time>2021-05-20T07:21:07.000Z</time>
      </trkpt>
      <trkpt lat="48.72214" lon="1.99422">
        <ele>165</ele>
        <time>2021-05-20T07:21:08.000Z</time>
      </trkpt>
      <trkpt lat="48.72214" lon="1.99422">
        <ele>165</ele>
        <time>2021-05-20T07:21:09.000Z</time>
      </trkpt>
      <trkpt lat="48.72213" lon="1.99422">
        <ele>165</ele>
        <time>2021-05-20T07:21:10.000Z</time>
      </trkpt>
      <trkpt lat="48.72212" lon="1.99422">
        <ele>165</ele>
        <time>2021-05-20T07:21:11.000Z</time>
      </trkpt>
      <trkpt lat="48.72211" lon="1.99423">
        <ele>165</ele>
        <time>2021-05-20T07:21:12.000Z</time>
      </trkpt>
      <trkpt lat="48.72211" lon="1.99423">
        <ele>165</ele>
        <time>2021-05-20T07:21:13.000Z</time>
      </trkpt>
      <trkpt lat="48.7221" lon="1.99423">
        <ele>165</ele>
        <time>2021-05-20T07:21:14.000Z</time>
      </trkpt>
      <trkpt lat="48.72209" lon="1.99424">
        <ele>165</ele>
        <time>2021-05-20T07:21:15.000Z</time>
      </trkpt>
      <trkpt lat="48.72208" lon="1.99424">
        <ele>165</ele>
        <time>2021-05-20T07:21:16.000Z</time>
      </trkpt>
      <trkpt lat="48.72207" lon="1.99424">
        <ele>165</ele>
        <time>2021-05-20T07:21:17.000Z</time>
      </trkpt>
      <trkpt lat="48.72205" lon="1.99425">
        <ele>164</ele>
        <time>2021-05-20T07:21:18.000Z</time>
      </trkpt>
      <trkpt lat="48.72204" lon="1.99425">
        <ele>164</ele>
        <time>2021-05-20T07:21:19.000Z</time>
      </trkpt>
      <trkpt lat="48.72202" lon="1.99425">
        <ele>164</ele>
        <time>2021-05-20T07:21:20.000Z</time>
      </trkpt>
      <trkpt lat="48.72201" lon="1.99426">
        <ele>165</ele>
        <time>2021-05-20T07:21:21.000Z</time>
      </trkpt>
      <trkpt lat="48.72199" lon="1.99426">
        <ele>165</ele>
        <time>2021-05-20T07:21:22.000Z</time>
      </trkpt>
      <trkpt lat="48.72198" lon="1.99427">
        <ele>165</ele>
        <time>2021-05-20T07:21:23.000Z</time>
      </trkpt>
      <trkpt lat="48.72196" lon="1.99428">
        <ele>165</ele>
        <time>2021-05-20T07:21:24.000Z</time>
      </trkpt>
      <trkpt lat="48.72195" lon="1.99429">
        <ele>165</ele>
        <time>2021-05-20T07:21:25.000Z</time>
      </trkpt>
      <trkpt lat="48.72193" lon="1.99429">
        <ele>165</ele>
        <time>2021-05-20T07:21:26.000Z</time>
      </trkpt>
      <trkpt lat="48.72192" lon="1.9943">
        <ele>165</ele>
        <time>2021-05-20T07:21:27.000Z</time>
      </trkpt>
      <trkpt lat="48.7219" lon="1.9943">
        <ele>165</ele>
        <time>2021-05-20T07:21:28.000Z</time>
      </trkpt>
      <trkpt lat="48.72189" lon="1.99431">
        <ele>165</ele>
        <time>2021-05-20T07:21:29.000Z</time>
      </trkpt>
      <trkpt lat="48.72188" lon="1.99431">
        <ele>165</ele>
        <time>2021-05-20T07:21:30.000Z</time>
      </trkpt>
      <trkpt lat="48.72186" lon="1.99432">
        <ele>165</ele>
        <time>2021-05-20T07:21:31.000Z</time>
      </trkpt>
      <trkpt lat="48.72185" lon="1.99432">
        <ele>165</ele>
        <time>2021-05-20T07:21:32.000Z</time>
      </trkpt>
      <trkpt lat="48.72184" lon="1.99433">
        <ele>165</ele>
        <time>2021-05-20T07:21:33.000Z</time>
      </trkpt>
      <trkpt lat="48.72183" lon="1.99434">
        <ele>165</ele>
        <time>2021-05-20T07:21:34.000Z</time>
      </trkpt>
      <trkpt lat="48.72182" lon="1.99435">
        <ele>166</ele>
        <time>2021-05-20T07:21:35.000Z</time>
      </trkpt>
      <trkpt lat="48.72181" lon="1.99436">
        <ele>166</ele>
        <time>2021-05-20T07:21:36.000Z</time>
      </trkpt>
      <trkpt lat="48.7218" lon="1.99437">
        <ele>166</ele>
        <time>2021-05-20T07:21:37.000Z</time>
      </trkpt>
      <trkpt lat="48.72179" lon="1.99438">
        <ele>166</ele>
        <time>2021-05-20T07:21:38.000Z</time>
      </trkpt>
      <trkpt lat="48.72178" lon="1.99438">
        <ele>166</ele>
        <time>2021-05-20T07:21:39.000Z</time>
      </trkpt>
      <trkpt lat="48.72176" lon="1.99439">
        <ele>166</ele>
        <time>2021-05-20T07:21:40.000Z</time>
      </trkpt>
      <trkpt lat="48.72175" lon="1.99439">
        <ele>165</ele>
        <time>2021-05-20T07:21:41.000Z</time>
      </trkpt>
      <trkpt lat="48.72173" lon="1.9944">
        <ele>165</ele>
        <time>2021-05-20T07:21:42.000Z</time>
      </trkpt>
      <trkpt lat="48.72172" lon="1.9944">
        <ele>165</ele>
        <time>2021-05-20T07:21:43.000Z</time>
      </trkpt>
      <trkpt lat="48.72171" lon="1.99441">
        <ele>165</ele>
        <time>2021-05-20T07:21:44.000Z</time>
      </trkpt>
      <trkpt lat="48.72169" lon="1.99441">
        <ele>165</ele>
        <time>2021-05-20T07:21:45.000Z</time>
      </trkpt>
      <trkpt lat="48.72168" lon="1.99442">
        <ele>165</ele>
        <time>2021-05-20T07:21:46.000Z</time>
      </trkpt>
      <trkpt lat="48.72167" lon="1.99443">
        <ele>165</ele>
        <time>2021-05-20T07:21:47.000Z</time>
      </trkpt>
      <trkpt lat="48.72165" lon="1.99443">
        <ele>165</ele>
        <time>2021-05-20T07:21:48.000Z</time>
      </trkpt>
      <trkpt lat="48.72164" lon="1.99444">
        <ele>165</ele>
        <time>2021-05-20T07:21:49.000Z</time>
      </trkpt>
      <trkpt lat="48.72163" lon="1.99444">
        <ele>165</ele>
        <time>2021-05-20T07:21:50.000Z</time>
      </trkpt>
      <trkpt lat="48.72161" lon="1.99445">
        <ele>165</ele>
        <time>2021-05-20T07:21:51.000Z</time>
      </trkpt>
      <trkpt lat="48.7216" lon="1.99445">
        <ele>165</ele>
        <time>2021-05-20T07:21:52.000Z</time>
      </trkpt>
      <trkpt lat="48.72159" lon="1.99446">
        <ele>165</ele>
        <time>2021-05-20T07:21:53.000Z</time>
      </trkpt>
      <trkpt lat="48.72157" lon="1.99447">
        <ele>165</ele>
        <time>2021-05-20T07:21:54.000Z</time>
      </trkpt>
      <trkpt lat="48.72156" lon="1.99447">
        <ele>165</ele>
        <time>2021-05-20T07:21:55.000Z</time>
      </trkpt>
      <trkpt lat="48.72154" lon="1.99448">
        <ele>165</ele>
        <time>2021-05-20T07:21:56.000Z</time>
      </trkpt>
      <trkpt lat="48.72153" lon="1.99449">
        <ele>165</ele>
        <time>2021-05-20T07:21:57.000Z</time>
      </trkpt>
      <trkpt lat="48.72152" lon="1.99449">
        <ele>165</ele>
        <time>2021-05-20T07:21:58.000Z</time>
      </trkpt>
      <trkpt lat="48.7215" lon="1.9945">
        <ele>165</ele>
        <time>2021-05-20T07:21:59.000Z</time>
      </trkpt>
      <trkpt lat="48.72149" lon="1.99451">
        <ele>165</ele>
        <time>2021-05-20T07:22:00.000Z</time>
      </trkpt>
      <trkpt lat="48.72148" lon="1.99451">
        <ele>165</ele>
        <time>2021-05-20T07:22:01.000Z</time>
      </trkpt>
      <trkpt lat="48.72146" lon="1.99452">
        <ele>165</ele>
        <time>2021-05-20T07:22:02.000Z</time>
      </trkpt>
      <trkpt lat="48.72145" lon="1.99453">
        <ele>165</ele>
        <time>2021-05-20T07:22:03.000Z</time>
      </trkpt>
      <trkpt lat="48.72144" lon="1.99453">
        <ele>165</ele>
        <time>2021-05-20T07:22:04.000Z</time>
      </trkpt>
      <trkpt lat="48.72142" lon="1.99454">
        <ele>165</ele>
        <time>2021-05-20T07:22:05.000Z</time>
      </trkpt>
      <trkpt lat="48.72141" lon="1.99454">
        <ele>165</ele>
        <time>2021-05-20T07:22:06.000Z</time>
      </trkpt>
      <trkpt lat="48.72139" lon="1.99455">
        <ele>164</ele>
        <time>2021-05-20T07:22:07.000Z</time>
      </trkpt>
      <trkpt lat="48.72138" lon="1.99456">
        <ele>164</ele>
        <time>2021-05-20T07:22:08.000Z</time>
      </trkpt>
      <trkpt lat="48.72136" lon="1.99456">
        <ele>164</ele>
        <time>2021-05-20T07:22:09.000Z</time>
      </trkpt>
      <trkpt lat="48.72135" lon="1.99457">
        <ele>164</ele>
        <time>2021-05-20T07:22:10.000Z</time>
      </trkpt>
      <trkpt lat="48.72134" lon="1.99458">
        <ele>164</ele>
        <time>2021-05-20T07:22:11.000Z</time>
      </trkpt>
      <trkpt lat="48.72132" lon="1.99459">
        <ele>164</ele>
        <time>2021-05-20T07:22:12.000Z</time>
      </trkpt>
      <trkpt lat="48.72131" lon="1.99459">
        <ele>164</ele>
        <time>2021-05-20T07:22:13.000Z</time>
      </trkpt>
      <trkpt lat="48.7213" lon="1.9946">
        <ele>164</ele>
        <time>2021-05-20T07:22:14.000Z</time>
      </trkpt>
      <trkpt lat="48.72129" lon="1.99461">
        <ele>164</ele>
        <time>2021-05-20T07:22:15.000Z</time>
      </trkpt>
      <trkpt lat="48.72128" lon="1.99461">
        <ele>164</ele>
        <time>2021-05-20T07:22:16.000Z</time>
      </trkpt>
      <trkpt lat="48.72126" lon="1.99462">
        <ele>164</ele>
        <time>2021-05-20T07:22:17.000Z</time>
      </trkpt>
      <trkpt lat="48.72125" lon="1.99463">
        <ele>164</ele>
        <time>2021-05-20T07:22:18.000Z</time>
      </trkpt>
      <trkpt lat="48.72124" lon="1.99464">
        <ele>164</ele>
        <time>2021-05-20T07:22:19.000Z</time>
      </trkpt>
      <trkpt lat="48.72123" lon="1.99465">
        <ele>164</ele>
        <time>2021-05-20T07:22:20.000Z</time>
      </trkpt>
      <trkpt lat="48.72121" lon="1.99466">
        <ele>164</ele>
        <time>2021-05-20T07:22:21.000Z</time>
      </trkpt>
      <trkpt lat="48.7212" lon="1.99466">
        <ele>164</ele>
        <time>2021-05-20T07:22:22.000Z</time>
      </trkpt>
      <trkpt lat="48.72118" lon="1.99467">
        <ele>164</ele>
        <time>2021-05-20T07:22:23.000Z</time>
      </trkpt>
      <trkpt lat="48.72117" lon="1.99468">
        <ele>164</ele>
        <time>2021-05-20T07:22:24.000Z</time>
      </trkpt>
      <trkpt lat="48.72116" lon="1.99469">
        <ele>164</ele>
        <time>2021-05-20T07:22:25.000Z</time>
      </trkpt>
      <trkpt lat="48.72114" lon="1.9947">
        <ele>164</ele>
        <time>2021-05-20T07:22:26.000Z</time>
      </trkpt>
      <trkpt lat="48.72113" lon="1.99471">
        <ele>164</ele>
        <time>2021-05-20T07:22:27.000Z</time>
      </trkpt>
      <trkpt lat="48.72112" lon="1.99472">
        <ele>164</ele>
        <time>2021-05-20T07:22:28.000Z</time>
      </trkpt>
      <trkpt lat="48.72111" lon="1.99472">
        <ele>164</ele>
        <time>2021-05-20T07:22:29.000Z</time>
      </trkpt>
      <trkpt lat="48.7211" lon="1.99473">
        <ele>164</ele>
        <time>2021-05-20T07:22:30.000Z</time>
      </trkpt>
      <trkpt lat="48.72108" lon="1.99474">
        <ele>164</ele>
        <time>2021-05-20T07:22:31.000Z</time>
      </trkpt>
      <trkpt lat="48.72107" lon="1.99475">
        <ele>164</ele>
        <time>2021-05-20T07:22:32.000Z</time>
      </trkpt>
      <trkpt lat="48.72106" lon="1.99475">
        <ele>164</ele>
        <time>2021-05-20T07:22:33.000Z</time>
      </trkpt>
      <trkpt lat="48.72105" lon="1.99476">
        <ele>164</ele>
        <time>2021-05-20T07:22:34.000Z</time>
      </trkpt>
      <trkpt lat="48.72103" lon="1.99477">
        <ele>164</ele>
        <time>2021-05-20T07:22:35.000Z</time>
      </trkpt>
      <trkpt lat="48.72102" lon="1.99478">
        <ele>164</ele>
        <time>2021-05-20T07:22:36.000Z</time>
      </trkpt>
      <trkpt lat="48.72101" lon="1.99479">
        <ele>164</ele>
        <time>2021-05-20T07:22:37.000Z</time>
      </trkpt>
      <trkpt lat="48.72099" lon="1.9948">
        <ele>164</ele>
        <time>2021-05-20T07:22:38.000Z</time>
      </trkpt>
      <trkpt lat="48.72098" lon="1.9948">
        <ele>164</ele>
        <time>2021-05-20T07:22:39.000Z</time>
      </trkpt>
      <trkpt lat="48.72097" lon="1.99482">
        <ele>164</ele>
        <time>2021-05-20T07:22:40.000Z</time>
      </trkpt>
      <trkpt lat="48.72096" lon="1.99482">
        <ele>164</ele>
        <time>2021-05-20T07:22:41.000Z</time>
      </trkpt>
      <trkpt lat="48.72095" lon="1.99483">
        <ele>164</ele>
        <time>2021-05-20T07:22:42.000Z</time>
      </trkpt>
      <trkpt lat="48.72094" lon="1.99484">
        <ele>164</ele>
        <time>2021-05-20T07:22:43.000Z</time>
      </trkpt>
      <trkpt lat="48.72093" lon="1.99485">
        <ele>164</ele>
        <time>2021-05-20T07:22:44.000Z</time>
      </trkpt>
      <trkpt lat="48.72092" lon="1.99485">
        <ele>164</ele>
        <time>2021-05-20T07:22:45.000Z</time>
      </trkpt>
      <trkpt lat="48.72091" lon="1.99486">
        <ele>164</ele>
        <time>2021-05-20T07:22:46.000Z</time>
      </trkpt>
      <trkpt lat="48.72089" lon="1.99486">
        <ele>164</ele>
        <time>2021-05-20T07:22:47.000Z</time>
      </trkpt>
      <trkpt lat="48.72088" lon="1.99487">
        <ele>164</ele>
        <time>2021-05-20T07:22:48.000Z</time>
      </trkpt>
      <trkpt lat="48.72087" lon="1.99488">
        <ele>164</ele>
        <time>2021-05-20T07:22:49.000Z</time>
      </trkpt>
      <trkpt lat="48.72085" lon="1.99488">
        <ele>164</ele>
        <time>2021-05-20T07:22:50.000Z</time>
      </trkpt>
      <trkpt lat="48.72084" lon="1.99489">
        <ele>164</ele>
        <time>2021-05-20T07:22:51.000Z</time>
      </trkpt>
      <trkpt lat="48.72083" lon="1.99489">
        <ele>164</ele>
        <time>2021-05-20T07:22:52.000Z</time>
      </trkpt>
      <trkpt lat="48.72082" lon="1.9949">
        <ele>164</ele>
        <time>2021-05-20T07:22:53.000Z</time>
      </trkpt>
      <trkpt lat="48.72081" lon="1.9949">
        <ele>164</ele>
        <time>2021-05-20T07:22:54.000Z</time>
      </trkpt>
      <trkpt lat="48.7208" lon="1.99491">
        <ele>164</ele>
        <time>2021-05-20T07:22:55.000Z</time>
      </trkpt>
      <trkpt lat="48.72078" lon="1.99491">
        <ele>164</ele>
        <time>2021-05-20T07:22:56.000Z</time>
      </trkpt>
      <trkpt lat="48.72077" lon="1.99492">
        <ele>164</ele>
        <time>2021-05-20T07:22:57.000Z</time>
      </trkpt>
      <trkpt lat="48.72075" lon="1.99492">
        <ele>164</ele>
        <time>2021-05-20T07:22:58.000Z</time>
      </trkpt>
      <trkpt lat="48.72074" lon="1.99492">
        <ele>164</ele>
        <time>2021-05-20T07:22:59.000Z</time>
      </trkpt>
      <trkpt lat="48.72073" lon="1.99493">
        <ele>164</ele>
        <time>2021-05-20T07:23:00.000Z</time>
      </trkpt>
      <trkpt lat="48.72071" lon="1.99493">
        <ele>164</ele>
        <time>2021-05-20T07:23:01.000Z</time>
      </trkpt>
      <trkpt lat="48.7207" lon="1.99494">
        <ele>164</ele>
        <time>2021-05-20T07:23:02.000Z</time>
      </trkpt>
      <trkpt lat="48.72069" lon="1.99494">
        <ele>164</ele>
        <time>2021-05-20T07:23:03.000Z</time>
      </trkpt>
      <trkpt lat="48.72067" lon="1.99494">
        <ele>164</ele>
        <time>2021-05-20T07:23:04.000Z</time>
      </trkpt>
      <trkpt lat="48.72066" lon="1.99494">
        <ele>164</ele>
        <time>2021-05-20T07:23:05.000Z</time>
      </trkpt>
      <trkpt lat="48.72064" lon="1.99494">
        <ele>164</ele>
        <time>2021-05-20T07:23:06.000Z</time>
      </trkpt>
      <trkpt lat="48.72063" lon="1.99494">
        <ele>164</ele>
        <time>2021-05-20T07:23:07.000Z</time>
      </trkpt>
      <trkpt lat="48.72062" lon="1.99494">
        <ele>164</ele>
        <time>2021-05-20T07:23:08.000Z</time>
      </trkpt>
      <trkpt lat="48.7206" lon="1.99494">
        <ele>164</ele>
        <time>2021-05-20T07:23:09.000Z</time>
      </trkpt>
      <trkpt lat="48.72059" lon="1.99493">
        <ele>164</ele>
        <time>2021-05-20T07:23:10.000Z</time>
      </trkpt>
      <trkpt lat="48.72058" lon="1.99493">
        <ele>164</ele>
        <time>2021-05-20T07:23:11.000Z</time>
      </trkpt>
      <trkpt lat="48.72057" lon="1.99493">
        <ele>164</ele>
        <time>2021-05-20T07:23:12.000Z</time>
      </trkpt>
      <trkpt lat="48.72055" lon="1.99493">
        <ele>164</ele>
        <time>2021-05-20T07:23:13.000Z</time>
      </trkpt>
      <trkpt lat="48.72054" lon="1.99492">
        <ele>164</ele>
        <time>2021-05-20T07:23:14.000Z</time>
      </trkpt>
      <trkpt lat="48.72053" lon="1.99492">
        <ele>164</ele>
        <time>2021-05-20T07:23:15.000Z</time>
      </trkpt>
      <trkpt lat="48.72052" lon="1.99492">
        <ele>164</ele>
        <time>2021-05-20T07:23:16.000Z</time>
      </trkpt>
      <trkpt lat="48.7205" lon="1.99492">
        <ele>164</ele>
        <time>2021-05-20T07:23:17.000Z</time>
      </trkpt>
      <trkpt lat="48.72049" lon="1.99491">
        <ele>163</ele>
        <time>2021-05-20T07:23:18.000Z</time>
      </trkpt>
      <trkpt lat="48.72048" lon="1.9949">
        <ele>163</ele>
        <time>2021-05-20T07:23:19.000Z</time>
      </trkpt>
      <trkpt lat="48.72046" lon="1.9949">
        <ele>163</ele>
        <time>2021-05-20T07:23:20.000Z</time>
      </trkpt>
      <trkpt lat="48.72045" lon="1.9949">
        <ele>163</ele>
        <time>2021-05-20T07:23:21.000Z</time>
      </trkpt>
      <trkpt lat="48.72044" lon="1.99489">
        <ele>163</ele>
        <time>2021-05-20T07:23:22.000Z</time>
      </trkpt>
      <trkpt lat="48.72043" lon="1.99488">
        <ele>163</ele>
        <time>2021-05-20T07:23:23.000Z</time>
      </trkpt>
      <trkpt lat="48.72042" lon="1.99488">
        <ele>163</ele>
        <time>2021-05-20T07:23:24.000Z</time>
      </trkpt>
      <trkpt lat="48.72041" lon="1.99487">
        <ele>163</ele>
        <time>2021-05-20T07:23:25.000Z</time>
      </trkpt>
      <trkpt lat="48.72039" lon="1.99486">
        <ele>163</ele>
        <time>2021-05-20T07:23:26.000Z</time>
      </trkpt>
      <trkpt lat="48.72038" lon="1.99485">
        <ele>163</ele>
        <time>2021-05-20T07:23:27.000Z</time>
      </trkpt>
      <trkpt lat="48.72037" lon="1.99484">
        <ele>163</ele>
        <time>2021-05-20T07:23:28.000Z</time>
      </trkpt>
      <trkpt lat="48.72036" lon="1.99482">
        <ele>163</ele>
        <time>2021-05-20T07:23:29.000Z</time>
      </trkpt>
      <trkpt lat="48.72034" lon="1.99481">
        <ele>163</ele>
        <time>2021-05-20T07:23:30.000Z</time>
      </trkpt>
      <trkpt lat="48.72033" lon="1.99481">
        <ele>163</ele>
        <time>2021-05-20T07:23:31.000Z</time>
      </trkpt>
      <trkpt lat="48.72032" lon="1.9948">
        <ele>163</ele>
        <time>2021-05-20T07:23:32.000Z</time>
      </trkpt>
      <trkpt lat="48.72031" lon="1.99479">
        <ele>163</ele>
        <time>2021-05-20T07:23:33.000Z</time>
      </trkpt>
      <trkpt lat="48.7203" lon="1.99478">
        <ele>162</ele>
        <time>2021-05-20T07:23:34.000Z</time>
      </trkpt>
      <trkpt lat="48.72029" lon="1.99477">
        <ele>162</ele>
        <time>2021-05-20T07:23:35.000Z</time>
      </trkpt>
      <trkpt lat="48.72028" lon="1.99477">
        <ele>162</ele>
        <time>2021-05-20T07:23:36.000Z</time>
      </trkpt>
      <trkpt lat="48.72027" lon="1.99476">
        <ele>162</ele>
        <time>2021-05-20T07:23:37.000Z</time>
      </trkpt>
      <trkpt lat="48.72026" lon="1.99475">
        <ele>162</ele>
        <time>2021-05-20T07:23:38.000Z</time>
      </trkpt>
      <trkpt lat="48.72025" lon="1.99473">
        <ele>162</ele>
        <time>2021-05-20T07:23:39.000Z</time>
      </trkpt>
      <trkpt lat="48.72024" lon="1.99472">
        <ele>162</ele>
        <time>2021-05-20T07:23:40.000Z</time>
      </trkpt>
      <trkpt lat="48.72022" lon="1.99471">
        <ele>162</ele>
        <time>2021-05-20T07:23:41.000Z</time>
      </trkpt>
      <trkpt lat="48.72021" lon="1.9947">
        <ele>162</ele>
        <time>2021-05-20T07:23:42.000Z</time>
      </trkpt>
      <trkpt lat="48.7202" lon="1.9947">
        <ele>162</ele>
        <time>2021-05-20T07:23:43.000Z</time>
      </trkpt>
      <trkpt lat="48.72019" lon="1.99469">
        <ele>162</ele>
        <time>2021-05-20T07:23:44.000Z</time>
      </trkpt>
      <trkpt lat="48.72018" lon="1.99468">
        <ele>162</ele>
        <time>2021-05-20T07:23:45.000Z</time>
      </trkpt>
      <trkpt lat="48.72017" lon="1.99467">
        <ele>162</ele>
        <time>2021-05-20T07:23:46.000Z</time>
      </trkpt>
      <trkpt lat="48.72016" lon="1.99466">
        <ele>162</ele>
        <time>2021-05-20T07:23:47.000Z</time>
      </trkpt>
      <trkpt lat="48.72015" lon="1.99465">
        <ele>162</ele>
        <time>2021-05-20T07:23:48.000Z</time>
      </trkpt>
      <trkpt lat="48.72014" lon="1.99464">
        <ele>162</ele>
        <time>2021-05-20T07:23:49.000Z</time>
      </trkpt>
      <trkpt lat="48.72013" lon="1.99463">
        <ele>162</ele>
        <time>2021-05-20T07:23:50.000Z</time>
      </trkpt>
      <trkpt lat="48.72012" lon="1.99462">
        <ele>162</ele>
        <time>2021-05-20T07:23:51.000Z</time>
      </trkpt>
      <trkpt lat="48.72011" lon="1.99461">
        <ele>162</ele>
        <time>2021-05-20T07:23:52.000Z</time>
      </trkpt>
      <trkpt lat="48.72009" lon="1.9946">
        <ele>162</ele>
        <time>2021-05-20T07:23:53.000Z</time>
      </trkpt>
      <trkpt lat="48.72008" lon="1.99459">
        <ele>162</ele>
        <time>2021-05-20T07:23:54.000Z</time>
      </trkpt>
      <trkpt lat="48.72007" lon="1.99458">
        <ele>162</ele>
        <time>2021-05-20T07:23:55.000Z</time>
      </trkpt>
      <trkpt lat="48.72006" lon="1.99457">
        <ele>162</ele>
        <time>2021-05-20T07:23:56.000Z</time>
      </trkpt>
      <trkpt lat="48.72005" lon="1.99456">
        <ele>162</ele>
        <time>2021-05-20T07:23:57.000Z</time>
      </trkpt>
      <trkpt lat="48.72004" lon="1.99455">
        <ele>162</ele>
        <time>2021-05-20T07:23:58.000Z</time>
      </trkpt>
      <trkpt lat="48.72002" lon="1.99454">
        <ele>162</ele>
        <time>2021-05-20T07:23:59.000Z</time>
      </trkpt>
      <trkpt lat="48.72001" lon="1.99452">
        <ele>162</ele>
        <time>2021-05-20T07:24:00.000Z</time>
      </trkpt>
      <trkpt lat="48.72" lon="1.99451">
        <ele>162</ele>
        <time>2021-05-20T07:24:01.000Z</time>
      </trkpt>
      <trkpt lat="48.71999" lon="1.9945">
        <ele>162</ele>
        <time>2021-05-20T07:24:02.000Z</time>
      </trkpt>
      <trkpt lat="48.71997" lon="1.99449">
        <ele>162</ele>
        <time>2021-05-20T07:24:03.000Z</time>
      </trkpt>
      <trkpt lat="48.71997" lon="1.99448">
        <ele>162</ele>
        <time>2021-05-20T07:24:04.000Z</time>
      </trkpt>
      <trkpt lat="48.71996" lon="1.99447">
        <ele>162</ele>
        <time>2021-05-20T07:24:05.000Z</time>
      </trkpt>
      <trkpt lat="48.71995" lon="1.99446">
        <ele>162</ele>
        <time>2021-05-20T07:24:06.000Z</time>
      </trkpt>
      <trkpt lat="48.71994" lon="1.99444">
        <ele>162</ele>
        <time>2021-05-20T07:24:07.000Z</time>
      </trkpt>
      <trkpt lat="48.71993" lon="1.99443">
        <ele>162</ele>
        <time>2021-05-20T07:24:08.000Z</time>
      </trkpt>
      <trkpt lat="48.71992" lon="1.99442">
        <ele>162</ele>
        <time>2021-05-20T07:24:09.000Z</time>
      </trkpt>
      <trkpt lat="48.71991" lon="1.9944">
        <ele>162</ele>
        <time>2021-05-20T07:24:10.000Z</time>
      </trkpt>
      <trkpt lat="48.7199" lon="1.99439">
        <ele>162</ele>
        <time>2021-05-20T07:24:11.000Z</time>
      </trkpt>
      <trkpt lat="48.71988" lon="1.99437">
        <ele>162</ele>
        <time>2021-05-20T07:24:12.000Z</time>
      </trkpt>
      <trkpt lat="48.71987" lon="1.99436">
        <ele>162</ele>
        <time>2021-05-20T07:24:13.000Z</time>
      </trkpt>
      <trkpt lat="48.71986" lon="1.99435">
        <ele>162</ele>
        <time>2021-05-20T07:24:14.000Z</time>
      </trkpt>
      <trkpt lat="48.71984" lon="1.99434">
        <ele>162</ele>
        <time>2021-05-20T07:24:15.000Z</time>
      </trkpt>
      <trkpt lat="48.71983" lon="1.99432">
        <ele>162</ele>
        <time>2021-05-20T07:24:16.000Z</time>
      </trkpt>
      <trkpt lat="48.71982" lon="1.99431">
        <ele>162</ele>
        <time>2021-05-20T07:24:17.000Z</time>
      </trkpt>
      <trkpt lat="48.71981" lon="1.9943">
        <ele>163</ele>
        <time>2021-05-20T07:24:18.000Z</time>
      </trkpt>
      <trkpt lat="48.7198" lon="1.99428">
        <ele>163</ele>
        <time>2021-05-20T07:24:19.000Z</time>
      </trkpt>
      <trkpt lat="48.71979" lon="1.99427">
        <ele>163</ele>
        <time>2021-05-20T07:24:20.000Z</time>
      </trkpt>
      <trkpt lat="48.71978" lon="1.99426">
        <ele>163</ele>
        <time>2021-05-20T07:24:21.000Z</time>
      </trkpt>
      <trkpt lat="48.71977" lon="1.99425">
        <ele>163</ele>
        <time>2021-05-20T07:24:22.000Z</time>
      </trkpt>
      <trkpt lat="48.71976" lon="1.99424">
        <ele>163</ele>
        <time>2021-05-20T07:24:23.000Z</time>
      </trkpt>
      <trkpt lat="48.71975" lon="1.99422">
        <ele>163</ele>
        <time>2021-05-20T07:24:24.000Z</time>
      </trkpt>
      <trkpt lat="48.71974" lon="1.99421">
        <ele>163</ele>
        <time>2021-05-20T07:24:25.000Z</time>
      </trkpt>
      <trkpt lat="48.71973" lon="1.9942">
        <ele>163</ele>
        <time>2021-05-20T07:24:26.000Z</time>
      </trkpt>
      <trkpt lat="48.71972" lon="1.99419">
        <ele>163</ele>
        <time>2021-05-20T07:24:27.000Z</time>
      </trkpt>
      <trkpt lat="48.71972" lon="1.99418">
        <ele>163</ele>
        <time>2021-05-20T07:24:28.000Z</time>
      </trkpt>
      <trkpt lat="48.7197" lon="1.99418">
        <ele>163</ele>
        <time>2021-05-20T07:24:29.000Z</time>
      </trkpt>
      <trkpt lat="48.71969" lon="1.99417">
        <ele>163</ele>
        <time>2021-05-20T07:24:30.000Z</time>
      </trkpt>
      <trkpt lat="48.71968" lon="1.99416">
        <ele>163</ele>
        <time>2021-05-20T07:24:31.000Z</time>
      </trkpt>
      <trkpt lat="48.71967" lon="1.99415">
        <ele>163</ele>
        <time>2021-05-20T07:24:32.000Z</time>
      </trkpt>
      <trkpt lat="48.71966" lon="1.99414">
        <ele>163</ele>
        <time>2021-05-20T07:24:33.000Z</time>
      </trkpt>
      <trkpt lat="48.71966" lon="1.99413">
        <ele>163</ele>
        <time>2021-05-20T07:24:34.000Z</time>
      </trkpt>
      <trkpt lat="48.71964" lon="1.99412">
        <ele>163</ele>
        <time>2021-05-20T07:24:35.000Z</time>
      </trkpt>
      <trkpt lat="48.71963" lon="1.99411">
        <ele>163</ele>
        <time>2021-05-20T07:24:36.000Z</time>
      </trkpt>
      <trkpt lat="48.71962" lon="1.99411">
        <ele>163</ele>
        <time>2021-05-20T07:24:37.000Z</time>
      </trkpt>
      <trkpt lat="48.7196" lon="1.9941">
        <ele>163</ele>
        <time>2021-05-20T07:24:38.000Z</time>
      </trkpt>
      <trkpt lat="48.71959" lon="1.9941">
        <ele>163</ele>
        <time>2021-05-20T07:24:39.000Z</time>
      </trkpt>
      <trkpt lat="48.71958" lon="1.9941">
        <ele>163</ele>
        <time>2021-05-20T07:24:40.000Z</time>
      </trkpt>
      <trkpt lat="48.71956" lon="1.99409">
        <ele>163</ele>
        <time>2021-05-20T07:24:41.000Z</time>
      </trkpt>
      <trkpt lat="48.71955" lon="1.99409">
        <ele>163</ele>
        <time>2021-05-20T07:24:42.000Z</time>
      </trkpt>
      <trkpt lat="48.71954" lon="1.99408">
        <ele>163</ele>
        <time>2021-05-20T07:24:43.000Z</time>
      </trkpt>
      <trkpt lat="48.71952" lon="1.99407">
        <ele>163</ele>
        <time>2021-05-20T07:24:44.000Z</time>
      </trkpt>
      <trkpt lat="48.71951" lon="1.99407">
        <ele>163</ele>
        <time>2021-05-20T07:24:45.000Z</time>
      </trkpt>
      <trkpt lat="48.71949" lon="1.99406">
        <ele>163</ele>
        <time>2021-05-20T07:24:46.000Z</time>
      </trkpt>
      <trkpt lat="48.71948" lon="1.99405">
        <ele>163</ele>
        <time>2021-05-20T07:24:47.000Z</time>
      </trkpt>
      <trkpt lat="48.71947" lon="1.99404">
        <ele>163</ele>
        <time>2021-05-20T07:24:48.000Z</time>
      </trkpt>
      <trkpt lat="48.71945" lon="1.99403">
        <ele>163</ele>
        <time>2021-05-20T07:24:49.000Z</time>
      </trkpt>
      <trkpt lat="48.71944" lon="1.99402">
        <ele>163</ele>
        <time>2021-05-20T07:24:50.000Z</time>
      </trkpt>
      <trkpt lat="48.71944" lon="1.99401">
        <ele>163</ele>
        <time>2021-05-20T07:24:51.000Z</time>
      </trkpt>
      <trkpt lat="48.71943" lon="1.99399">
        <ele>163</ele>
        <time>2021-05-20T07:24:52.000Z</time>
      </trkpt>
      <trkpt lat="48.71942" lon="1.99398">
        <ele>163</ele>
        <time>2021-05-20T07:24:53.000Z</time>
      </trkpt>
      <trkpt lat="48.71941" lon="1.99397">
        <ele>162</ele>
        <time>2021-05-20T07:24:54.000Z</time>
      </trkpt>
      <trkpt lat="48.71939" lon="1.99396">
        <ele>162</ele>
        <time>2021-05-20T07:24:55.000Z</time>
      </trkpt>
      <trkpt lat="48.71938" lon="1.99395">
        <ele>162</ele>
        <time>2021-05-20T07:24:56.000Z</time>
      </trkpt>
      <trkpt lat="48.71937" lon="1.99395">
        <ele>162</ele>
        <time>2021-05-20T07:24:57.000Z</time>
      </trkpt>
      <trkpt lat="48.71936" lon="1.99394">
        <ele>162</ele>
        <time>2021-05-20T07:24:58.000Z</time>
      </trkpt>
      <trkpt lat="48.71935" lon="1.99393">
        <ele>162</ele>
        <time>2021-05-20T07:24:59.000Z</time>
      </trkpt>
      <trkpt lat="48.71934" lon="1.99393">
        <ele>162</ele>
        <time>2021-05-20T07:25:00.000Z</time>
      </trkpt>
      <trkpt lat="48.71933" lon="1.99393">
        <ele>162</ele>
        <time>2021-05-20T07:25:01.000Z</time>
      </trkpt>
      <trkpt lat="48.71932" lon="1.99393">
        <ele>162</ele>
        <time>2021-05-20T07:25:02.000Z</time>
      </trkpt>
      <trkpt lat="48.71931" lon="1.99393">
        <ele>162</ele>
        <time>2021-05-20T07:25:03.000Z</time>
      </trkpt>
      <trkpt lat="48.71931" lon="1.99394">
        <ele>162</ele>
        <time>2021-05-20T07:25:04.000Z</time>
      </trkpt>
      <trkpt lat="48.71931" lon="1.99394">
        <ele>162</ele>
        <time>2021-05-20T07:25:05.000Z</time>
      </trkpt>
      <trkpt lat="48.71931" lon="1.99393">
        <ele>162</ele>
        <time>2021-05-20T07:25:06.000Z</time>
      </trkpt>
      <trkpt lat="48.7193" lon="1.99392">
        <ele>163</ele>
        <time>2021-05-20T07:25:07.000Z</time>
      </trkpt>
      <trkpt lat="48.71928" lon="1.99391">
        <ele>163</ele>
        <time>2021-05-20T07:25:08.000Z</time>
      </trkpt>
      <trkpt lat="48.71927" lon="1.9939">
        <ele>163</ele>
        <time>2021-05-20T07:25:09.000Z</time>
      </trkpt>
      <trkpt lat="48.71925" lon="1.99389">
        <ele>163</ele>
        <time>2021-05-20T07:25:10.000Z</time>
      </trkpt>
      <trkpt lat="48.71924" lon="1.99388">
        <ele>163</ele>
        <time>2021-05-20T07:25:11.000Z</time>
      </trkpt>
      <trkpt lat="48.71922" lon="1.99386">
        <ele>162</ele>
        <time>2021-05-20T07:25:12.000Z</time>
      </trkpt>
      <trkpt lat="48.71921" lon="1.99385">
        <ele>162</ele>
        <time>2021-05-20T07:25:13.000Z</time>
      </trkpt>
      <trkpt lat="48.71919" lon="1.99384">
        <ele>162</ele>
        <time>2021-05-20T07:25:14.000Z</time>
      </trkpt>
      <trkpt lat="48.71918" lon="1.99382">
        <ele>162</ele>
        <time>2021-05-20T07:25:15.000Z</time>
      </trkpt>
      <trkpt lat="48.71916" lon="1.99381">
        <ele>162</ele>
        <time>2021-05-20T07:25:16.000Z</time>
      </trkpt>
      <trkpt lat="48.71915" lon="1.99381">
        <ele>162</ele>
        <time>2021-05-20T07:25:17.000Z</time>
      </trkpt>
      <trkpt lat="48.71913" lon="1.9938">
        <ele>162</ele>
        <time>2021-05-20T07:25:18.000Z</time>
      </trkpt>
      <trkpt lat="48.71912" lon="1.99379">
        <ele>162</ele>
        <time>2021-05-20T07:25:19.000Z</time>
      </trkpt>
      <trkpt lat="48.7191" lon="1.99379">
        <ele>162</ele>
        <time>2021-05-20T07:25:20.000Z</time>
      </trkpt>
      <trkpt lat="48.71909" lon="1.99378">
        <ele>162</ele>
        <time>2021-05-20T07:25:21.000Z</time>
      </trkpt>
      <trkpt lat="48.71907" lon="1.99377">
        <ele>162</ele>
        <time>2021-05-20T07:25:22.000Z</time>
      </trkpt>
      <trkpt lat="48.71906" lon="1.99376">
        <ele>162</ele>
        <time>2021-05-20T07:25:23.000Z</time>
      </trkpt>
      <trkpt lat="48.71905" lon="1.99376">
        <ele>162</ele>
        <time>2021-05-20T07:25:24.000Z</time>
      </trkpt>
      <trkpt lat="48.71903" lon="1.99375">
        <ele>162</ele>
        <time>2021-05-20T07:25:25.000Z</time>
      </trkpt>
      <trkpt lat="48.71902" lon="1.99374">
        <ele>162</ele>
        <time>2021-05-20T07:25:26.000Z</time>
      </trkpt>
      <trkpt lat="48.719" lon="1.99373">
        <ele>162</ele>
        <time>2021-05-20T07:25:27.000Z</time>
      </trkpt>
      <trkpt lat="48.71899" lon="1.99373">
        <ele>162</ele>
        <time>2021-05-20T07:25:28.000Z</time>
      </trkpt>
      <trkpt lat="48.71897" lon="1.99372">
        <ele>162</ele>
        <time>2021-05-20T07:25:29.000Z</time>
      </trkpt>
      <trkpt lat="48.71896" lon="1.99371">
        <ele>162</ele>
        <time>2021-05-20T07:25:30.000Z</time>
      </trkpt>
      <trkpt lat="48.71894" lon="1.99371">
        <ele>162</ele>
        <time>2021-05-20T07:25:31.000Z</time>
      </trkpt>
      <trkpt lat="48.71893" lon="1.99369">
        <ele>162</ele>
        <time>2021-05-20T07:25:32.000Z</time>
      </trkpt>
      <trkpt lat="48.71891" lon="1.99368">
        <ele>162</ele>
        <time>2021-05-20T07:25:33.000Z</time>
      </trkpt>
      <trkpt lat="48.71889" lon="1.99367">
        <ele>162</ele>
        <time>2021-05-20T07:25:34.000Z</time>
      </trkpt>
      <trkpt lat="48.71888" lon="1.99366">
        <ele>162</ele>
        <time>2021-05-20T07:25:35.000Z</time>
      </trkpt>
      <trkpt lat="48.71886" lon="1.99365">
        <ele>162</ele>
        <time>2021-05-20T07:25:36.000Z</time>
      </trkpt>
      <trkpt lat="48.71885" lon="1.99365">
        <ele>162</ele>
        <time>2021-05-20T07:25:37.000Z</time>
      </trkpt>
      <trkpt lat="48.71884" lon="1.99363">
        <ele>161</ele>
        <time>2021-05-20T07:25:38.000Z</time>
      </trkpt>
      <trkpt lat="48.71882" lon="1.99362">
        <ele>161</ele>
        <time>2021-05-20T07:25:39.000Z</time>
      </trkpt>
      <trkpt lat="48.71881" lon="1.99362">
        <ele>161</ele>
        <time>2021-05-20T07:25:40.000Z</time>
      </trkpt>
      <trkpt lat="48.7188" lon="1.9936">
        <ele>161</ele>
        <time>2021-05-20T07:25:41.000Z</time>
      </trkpt>
      <trkpt lat="48.71878" lon="1.99359">
        <ele>161</ele>
        <time>2021-05-20T07:25:42.000Z</time>
      </trkpt>
      <trkpt lat="48.71877" lon="1.99357">
        <ele>161</ele>
        <time>2021-05-20T07:25:43.000Z</time>
      </trkpt>
      <trkpt lat="48.71876" lon="1.99356">
        <ele>161</ele>
        <time>2021-05-20T07:25:44.000Z</time>
      </trkpt>
      <trkpt lat="48.71875" lon="1.99355">
        <ele>161</ele>
        <time>2021-05-20T07:25:45.000Z</time>
      </trkpt>
      <trkpt lat="48.71874" lon="1.99353">
        <ele>161</ele>
        <time>2021-05-20T07:25:46.000Z</time>
      </trkpt>
      <trkpt lat="48.71872" lon="1.99352">
        <ele>161</ele>
        <time>2021-05-20T07:25:47.000Z</time>
      </trkpt>
      <trkpt lat="48.71871" lon="1.9935">
        <ele>161</ele>
        <time>2021-05-20T07:25:48.000Z</time>
      </trkpt>
      <trkpt lat="48.7187" lon="1.99349">
        <ele>161</ele>
        <time>2021-05-20T07:25:49.000Z</time>
      </trkpt>
      <trkpt lat="48.71868" lon="1.99348">
        <ele>161</ele>
        <time>2021-05-20T07:25:50.000Z</time>
      </trkpt>
      <trkpt lat="48.71867" lon="1.99347">
        <ele>161</ele>
        <time>2021-05-20T07:25:51.000Z</time>
      </trkpt>
      <trkpt lat="48.71866" lon="1.99345">
        <ele>161</ele>
        <time>2021-05-20T07:25:52.000Z</time>
      </trkpt>
      <trkpt lat="48.71864" lon="1.99344">
        <ele>161</ele>
        <time>2021-05-20T07:25:53.000Z</time>
      </trkpt>
      <trkpt lat="48.71863" lon="1.99342">
        <ele>161</ele>
        <time>2021-05-20T07:25:54.000Z</time>
      </trkpt>
      <trkpt lat="48.71861" lon="1.99341">
        <ele>162</ele>
        <time>2021-05-20T07:25:55.000Z</time>
      </trkpt>
      <trkpt lat="48.7186" lon="1.9934">
        <ele>162</ele>
        <time>2021-05-20T07:25:56.000Z</time>
      </trkpt>
      <trkpt lat="48.71858" lon="1.99338">
        <ele>162</ele>
        <time>2021-05-20T07:25:57.000Z</time>
      </trkpt>
      <trkpt lat="48.71857" lon="1.99337">
        <ele>162</ele>
        <time>2021-05-20T07:25:58.000Z</time>
      </trkpt>
      <trkpt lat="48.71855" lon="1.99336">
        <ele>162</ele>
        <time>2021-05-20T07:25:59.000Z</time>
      </trkpt>
      <trkpt lat="48.71854" lon="1.99335">
        <ele>162</ele>
        <time>2021-05-20T07:26:00.000Z</time>
      </trkpt>
      <trkpt lat="48.71852" lon="1.99334">
        <ele>162</ele>
        <time>2021-05-20T07:26:01.000Z</time>
      </trkpt>
      <trkpt lat="48.71851" lon="1.99332">
        <ele>162</ele>
        <time>2021-05-20T07:26:02.000Z</time>
      </trkpt>
      <trkpt lat="48.7185" lon="1.99331">
        <ele>163</ele>
        <time>2021-05-20T07:26:03.000Z</time>
      </trkpt>
      <trkpt lat="48.71848" lon="1.9933">
        <ele>163</ele>
        <time>2021-05-20T07:26:04.000Z</time>
      </trkpt>
      <trkpt lat="48.71847" lon="1.99329">
        <ele>163</ele>
        <time>2021-05-20T07:26:05.000Z</time>
      </trkpt>
      <trkpt lat="48.71846" lon="1.99328">
        <ele>163</ele>
        <time>2021-05-20T07:26:06.000Z</time>
      </trkpt>
      <trkpt lat="48.71845" lon="1.99327">
        <ele>163</ele>
        <time>2021-05-20T07:26:07.000Z</time>
      </trkpt>
      <trkpt lat="48.71844" lon="1.99326">
        <ele>163</ele>
        <time>2021-05-20T07:26:08.000Z</time>
      </trkpt>
      <trkpt lat="48.71843" lon="1.99325">
        <ele>163</ele>
        <time>2021-05-20T07:26:09.000Z</time>
      </trkpt>
      <trkpt lat="48.71841" lon="1.99324">
        <ele>163</ele>
        <time>2021-05-20T07:26:10.000Z</time>
      </trkpt>
      <trkpt lat="48.7184" lon="1.99323">
        <ele>163</ele>
        <time>2021-05-20T07:26:11.000Z</time>
      </trkpt>
      <trkpt lat="48.71839" lon="1.99322">
        <ele>163</ele>
        <time>2021-05-20T07:26:12.000Z</time>
      </trkpt>
      <trkpt lat="48.71838" lon="1.99322">
        <ele>163</ele>
        <time>2021-05-20T07:26:13.000Z</time>
      </trkpt>
      <trkpt lat="48.71836" lon="1.99321">
        <ele>163</ele>
        <time>2021-05-20T07:26:14.000Z</time>
      </trkpt>
      <trkpt lat="48.71835" lon="1.9932">
        <ele>163</ele>
        <time>2021-05-20T07:26:15.000Z</time>
      </trkpt>
      <trkpt lat="48.71834" lon="1.99319">
        <ele>163</ele>
        <time>2021-05-20T07:26:16.000Z</time>
      </trkpt>
      <trkpt lat="48.71832" lon="1.99318">
        <ele>163</ele>
        <time>2021-05-20T07:26:17.000Z</time>
      </trkpt>
      <trkpt lat="48.71831" lon="1.99317">
        <ele>163</ele>
        <time>2021-05-20T07:26:18.000Z</time>
      </trkpt>
      <trkpt lat="48.71829" lon="1.99316">
        <ele>163</ele>
        <time>2021-05-20T07:26:19.000Z</time>
      </trkpt>
      <trkpt lat="48.71828" lon="1.99315">
        <ele>163</ele>
        <time>2021-05-20T07:26:20.000Z</time>
      </trkpt>
      <trkpt lat="48.71827" lon="1.99314">
        <ele>163</ele>
        <time>2021-05-20T07:26:21.000Z</time>
      </trkpt>
      <trkpt lat="48.71825" lon="1.99313">
        <ele>163</ele>
        <time>2021-05-20T07:26:22.000Z</time>
      </trkpt>
      <trkpt lat="48.71823" lon="1.99312">
        <ele>163</ele>
        <time>2021-05-20T07:26:23.000Z</time>
      </trkpt>
      <trkpt lat="48.71822" lon="1.99311">
        <ele>163</ele>
        <time>2021-05-20T07:26:24.000Z</time>
      </trkpt>
      <trkpt lat="48.71821" lon="1.99309">
        <ele>163</ele>
        <time>2021-05-20T07:26:25.000Z</time>
      </trkpt>
      <trkpt lat="48.71819" lon="1.99308">
        <ele>163</ele>
        <time>2021-05-20T07:26:26.000Z</time>
      </trkpt>
      <trkpt lat="48.71817" lon="1.99307">
        <ele>163</ele>
        <time>2021-05-20T07:26:27.000Z</time>
      </trkpt>
      <trkpt lat="48.71816" lon="1.99306">
        <ele>163</ele>
        <time>2021-05-20T07:26:28.000Z</time>
      </trkpt>
      <trkpt lat="48.71815" lon="1.99306">
        <ele>163</ele>
        <time>2021-05-20T07:26:29.000Z</time>
      </trkpt>
      <trkpt lat="48.71815" lon="1.99306">
        <ele>163</ele>
        <time>2021-05-20T07:26:30.000Z</time>
      </trkpt>
      <trkpt lat="48.71815" lon="1.99306">
        <ele>163</ele>
        <time>2021-05-20T07:26:31.000Z</time>
      </trkpt>
      <trkpt lat="48.71815" lon="1.99306">
        <ele>163</ele>
        <time>2021-05-20T07:26:32.000Z</time>
      </trkpt>
      <trkpt lat="48.71815" lon="1.99306">
        <ele>163</ele>
        <time>2021-05-20T07:26:33.000Z</time>
      </trkpt>
      <trkpt lat="48.71813" lon="1.99305">
        <ele>163</ele>
        <time>2021-05-20T07:26:34.000Z</time>
      </trkpt>
      <trkpt lat="48.71812" lon="1.99304">
        <ele>163</ele>
        <time>2021-05-20T07:26:35.000Z</time>
      </trkpt>
      <trkpt lat="48.7181" lon="1.99303">
        <ele>163</ele>
        <time>2021-05-20T07:26:36.000Z</time>
      </trkpt>
      <trkpt lat="48.71809" lon="1.99302">
        <ele>163</ele>
        <time>2021-05-20T07:26:37.000Z</time>
      </trkpt>
      <trkpt lat="48.71808" lon="1.99301">
        <ele>163</ele>
        <time>2021-05-20T07:26:38.000Z</time>
      </trkpt>
      <trkpt lat="48.71807" lon="1.993">
        <ele>163</ele>
        <time>2021-05-20T07:26:39.000Z</time>
      </trkpt>
      <trkpt lat="48.71806" lon="1.99299">
        <ele>163</ele>
        <time>2021-05-20T07:26:40.000Z</time>
      </trkpt>
      <trkpt lat="48.71804" lon="1.99298">
        <ele>163</ele>
        <time>2021-05-20T07:26:41.000Z</time>
      </trkpt>
      <trkpt lat="48.71803" lon="1.99296">
        <ele>163</ele>
        <time>2021-05-20T07:26:42.000Z</time>
      </trkpt>
      <trkpt lat="48.71802" lon="1.99295">
        <ele>162</ele>
        <time>2021-05-20T07:26:43.000Z</time>
      </trkpt>
      <trkpt lat="48.718" lon="1.99294">
        <ele>162</ele>
        <time>2021-05-20T07:26:44.000Z</time>
      </trkpt>
      <trkpt lat="48.71799" lon="1.99293">
        <ele>162</ele>
        <time>2021-05-20T07:26:45.000Z</time>
      </trkpt>
      <trkpt lat="48.71797" lon="1.99292">
        <ele>162</ele>
        <time>2021-05-20T07:26:46.000Z</time>
      </trkpt>
      <trkpt lat="48.71796" lon="1.99291">
        <ele>162</ele>
        <time>2021-05-20T07:26:47.000Z</time>
      </trkpt>
      <trkpt lat="48.71795" lon="1.9929">
        <ele>162</ele>
        <time>2021-05-20T07:26:48.000Z</time>
      </trkpt>
      <trkpt lat="48.71793" lon="1.99288">
        <ele>162</ele>
        <time>2021-05-20T07:26:49.000Z</time>
      </trkpt>
      <trkpt lat="48.71792" lon="1.99287">
        <ele>162</ele>
        <time>2021-05-20T07:26:50.000Z</time>
      </trkpt>
      <trkpt lat="48.7179" lon="1.99286">
        <ele>162</ele>
        <time>2021-05-20T07:26:51.000Z</time>
      </trkpt>
      <trkpt lat="48.71789" lon="1.99285">
        <ele>162</ele>
        <time>2021-05-20T07:26:52.000Z</time>
      </trkpt>
      <trkpt lat="48.71787" lon="1.99284">
        <ele>162</ele>
        <time>2021-05-20T07:26:53.000Z</time>
      </trkpt>
      <trkpt lat="48.71786" lon="1.99282">
        <ele>162</ele>
        <time>2021-05-20T07:26:54.000Z</time>
      </trkpt>
      <trkpt lat="48.71785" lon="1.99281">
        <ele>162</ele>
        <time>2021-05-20T07:26:55.000Z</time>
      </trkpt>
      <trkpt lat="48.71783" lon="1.9928">
        <ele>163</ele>
        <time>2021-05-20T07:26:56.000Z</time>
      </trkpt>
      <trkpt lat="48.71782" lon="1.99279">
        <ele>163</ele>
        <time>2021-05-20T07:26:57.000Z</time>
      </trkpt>
      <trkpt lat="48.7178" lon="1.99278">
        <ele>163</ele>
        <time>2021-05-20T07:26:58.000Z</time>
      </trkpt>
      <trkpt lat="48.71779" lon="1.99277">
        <ele>163</ele>
        <time>2021-05-20T07:26:59.000Z</time>
      </trkpt>
      <trkpt lat="48.71778" lon="1.99276">
        <ele>163</ele>
        <time>2021-05-20T07:27:00.000Z</time>
      </trkpt>
      <trkpt lat="48.71776" lon="1.99275">
        <ele>163</ele>
        <time>2021-05-20T07:27:01.000Z</time>
      </trkpt>
      <trkpt lat="48.71775" lon="1.99274">
        <ele>162</ele>
        <time>2021-05-20T07:27:02.000Z</time>
      </trkpt>
      <trkpt lat="48.71774" lon="1.99274">
        <ele>162</ele>
        <time>2021-05-20T07:27:03.000Z</time>
      </trkpt>
      <trkpt lat="48.71773" lon="1.99274">
        <ele>162</ele>
        <time>2021-05-20T07:27:04.000Z</time>
      </trkpt>
      <trkpt lat="48.71772" lon="1.99274">
        <ele>162</ele>
        <time>2021-05-20T07:27:05.000Z</time>
      </trkpt>
      <trkpt lat="48.71772" lon="1.99274">
        <ele>162</ele>
        <time>2021-05-20T07:27:06.000Z</time>
      </trkpt>
      <trkpt lat="48.71772" lon="1.99273">
        <ele>162</ele>
        <time>2021-05-20T07:27:07.000Z</time>
      </trkpt>
      <trkpt lat="48.7177" lon="1.99272">
        <ele>162</ele>
        <time>2021-05-20T07:27:08.000Z</time>
      </trkpt>
      <trkpt lat="48.71769" lon="1.99271">
        <ele>162</ele>
        <time>2021-05-20T07:27:09.000Z</time>
      </trkpt>
      <trkpt lat="48.71767" lon="1.9927">
        <ele>162</ele>
        <time>2021-05-20T07:27:10.000Z</time>
      </trkpt>
      <trkpt lat="48.71766" lon="1.99269">
        <ele>162</ele>
        <time>2021-05-20T07:27:11.000Z</time>
      </trkpt>
      <trkpt lat="48.71764" lon="1.99268">
        <ele>162</ele>
        <time>2021-05-20T07:27:12.000Z</time>
      </trkpt>
      <trkpt lat="48.71762" lon="1.99266">
        <ele>162</ele>
        <time>2021-05-20T07:27:13.000Z</time>
      </trkpt>
      <trkpt lat="48.7176" lon="1.99265">
        <ele>162</ele>
        <time>2021-05-20T07:27:14.000Z</time>
      </trkpt>
      <trkpt lat="48.71759" lon="1.99264">
        <ele>163</ele>
        <time>2021-05-20T07:27:15.000Z</time>
      </trkpt>
      <trkpt lat="48.71757" lon="1.99263">
        <ele>163</ele>
        <time>2021-05-20T07:27:16.000Z</time>
      </trkpt>
      <trkpt lat="48.71755" lon="1.99262">
        <ele>163</ele>
        <time>2021-05-20T07:27:17.000Z</time>
      </trkpt>
      <trkpt lat="48.71753" lon="1.99261">
        <ele>163</ele>
        <time>2021-05-20T07:27:18.000Z</time>
      </trkpt>
      <trkpt lat="48.71752" lon="1.9926">
        <ele>163</ele>
        <time>2021-05-20T07:27:19.000Z</time>
      </trkpt>
      <trkpt lat="48.7175" lon="1.99258">
        <ele>163</ele>
        <time>2021-05-20T07:27:20.000Z</time>
      </trkpt>
      <trkpt lat="48.71749" lon="1.99257">
        <ele>163</ele>
        <time>2021-05-20T07:27:21.000Z</time>
      </trkpt>
      <trkpt lat="48.71747" lon="1.99256">
        <ele>163</ele>
        <time>2021-05-20T07:27:22.000Z</time>
      </trkpt>
      <trkpt lat="48.71745" lon="1.99255">
        <ele>163</ele>
        <time>2021-05-20T07:27:23.000Z</time>
      </trkpt>
      <trkpt lat="48.71744" lon="1.99254">
        <ele>163</ele>
        <time>2021-05-20T07:27:24.000Z</time>
      </trkpt>
      <trkpt lat="48.71742" lon="1.99253">
        <ele>163</ele>
        <time>2021-05-20T07:27:25.000Z</time>
      </trkpt>
      <trkpt lat="48.71741" lon="1.99252">
        <ele>163</ele>
        <time>2021-05-20T07:27:26.000Z</time>
      </trkpt>
      <trkpt lat="48.71739" lon="1.99251">
        <ele>164</ele>
        <time>2021-05-20T07:27:27.000Z</time>
      </trkpt>
      <trkpt lat="48.71738" lon="1.9925">
        <ele>164</ele>
        <time>2021-05-20T07:27:28.000Z</time>
      </trkpt>
      <trkpt lat="48.71736" lon="1.99249">
        <ele>164</ele>
        <time>2021-05-20T07:27:29.000Z</time>
      </trkpt>
      <trkpt lat="48.71734" lon="1.99248">
        <ele>164</ele>
        <time>2021-05-20T07:27:30.000Z</time>
      </trkpt>
      <trkpt lat="48.71733" lon="1.99247">
        <ele>164</ele>
        <time>2021-05-20T07:27:31.000Z</time>
      </trkpt>
      <trkpt lat="48.71731" lon="1.99245">
        <ele>164</ele>
        <time>2021-05-20T07:27:32.000Z</time>
      </trkpt>
      <trkpt lat="48.7173" lon="1.99244">
        <ele>164</ele>
        <time>2021-05-20T07:27:33.000Z</time>
      </trkpt>
      <trkpt lat="48.71728" lon="1.99243">
        <ele>164</ele>
        <time>2021-05-20T07:27:34.000Z</time>
      </trkpt>
      <trkpt lat="48.71727" lon="1.99243">
        <ele>164</ele>
        <time>2021-05-20T07:27:35.000Z</time>
      </trkpt>
      <trkpt lat="48.71726" lon="1.99242">
        <ele>164</ele>
        <time>2021-05-20T07:27:36.000Z</time>
      </trkpt>
      <trkpt lat="48.71725" lon="1.99242">
        <ele>163</ele>
        <time>2021-05-20T07:27:37.000Z</time>
      </trkpt>
      <trkpt lat="48.71724" lon="1.99241">
        <ele>163</ele>
        <time>2021-05-20T07:27:38.000Z</time>
      </trkpt>
      <trkpt lat="48.71723" lon="1.99241">
        <ele>163</ele>
        <time>2021-05-20T07:27:39.000Z</time>
      </trkpt>
      <trkpt lat="48.71723" lon="1.9924">
        <ele>163</ele>
        <time>2021-05-20T07:27:40.000Z</time>
      </trkpt>
      <trkpt lat="48.71722" lon="1.9924">
        <ele>163</ele>
        <time>2021-05-20T07:27:41.000Z</time>
      </trkpt>
      <trkpt lat="48.71722" lon="1.99239">
        <ele>163</ele>
        <time>2021-05-20T07:27:42.000Z</time>
      </trkpt>
      <trkpt lat="48.71722" lon="1.99239">
        <ele>163</ele>
        <time>2021-05-20T07:27:43.000Z</time>
      </trkpt>
      <trkpt lat="48.71721" lon="1.99239">
        <ele>163</ele>
        <time>2021-05-20T07:27:44.000Z</time>
      </trkpt>
      <trkpt lat="48.71721" lon="1.99238">
        <ele>163</ele>
        <time>2021-05-20T07:27:45.000Z</time>
      </trkpt>
      <trkpt lat="48.71719" lon="1.99233">
        <ele>163</ele>
        <time>2021-05-20T07:27:46.000Z</time>
      </trkpt>
      <trkpt lat="48.71718" lon="1.99233">
        <ele>163</ele>
        <time>2021-05-20T07:27:47.000Z</time>
      </trkpt>
      <trkpt lat="48.71717" lon="1.99232">
        <ele>163</ele>
        <time>2021-05-20T07:27:48.000Z</time>
      </trkpt>
      <trkpt lat="48.71717" lon="1.99232">
        <ele>163</ele>
        <time>2021-05-20T07:27:49.000Z</time>
      </trkpt>
      <trkpt lat="48.71717" lon="1.99232">
        <ele>163</ele>
        <time>2021-05-20T07:27:50.000Z</time>
      </trkpt>
      <trkpt lat="48.71716" lon="1.99231">
        <ele>163</ele>
        <time>2021-05-20T07:27:51.000Z</time>
      </trkpt>
      <trkpt lat="48.71715" lon="1.99231">
        <ele>163</ele>
        <time>2021-05-20T07:27:52.000Z</time>
      </trkpt>
      <trkpt lat="48.71715" lon="1.9923">
        <ele>163</ele>
        <time>2021-05-20T07:27:53.000Z</time>
      </trkpt>
      <trkpt lat="48.71714" lon="1.99229">
        <ele>162</ele>
        <time>2021-05-20T07:27:54.000Z</time>
      </trkpt>
      <trkpt lat="48.71713" lon="1.99228">
        <ele>162</ele>
        <time>2021-05-20T07:27:55.000Z</time>
      </trkpt>
      <trkpt lat="48.71711" lon="1.99227">
        <ele>162</ele>
        <time>2021-05-20T07:27:56.000Z</time>
      </trkpt>
      <trkpt lat="48.7171" lon="1.99227">
        <ele>162</ele>
        <time>2021-05-20T07:27:57.000Z</time>
      </trkpt>
      <trkpt lat="48.71709" lon="1.99226">
        <ele>162</ele>
        <time>2021-05-20T07:27:58.000Z</time>
      </trkpt>
      <trkpt lat="48.71708" lon="1.99225">
        <ele>162</ele>
        <time>2021-05-20T07:27:59.000Z</time>
      </trkpt>
      <trkpt lat="48.71707" lon="1.99224">
        <ele>163</ele>
        <time>2021-05-20T07:28:00.000Z</time>
      </trkpt>
      <trkpt lat="48.71705" lon="1.99223">
        <ele>163</ele>
        <time>2021-05-20T07:28:01.000Z</time>
      </trkpt>
      <trkpt lat="48.71704" lon="1.99223">
        <ele>163</ele>
        <time>2021-05-20T07:28:02.000Z</time>
      </trkpt>
      <trkpt lat="48.71703" lon="1.99222">
        <ele>163</ele>
        <time>2021-05-20T07:28:03.000Z</time>
      </trkpt>
      <trkpt lat="48.71702" lon="1.99221">
        <ele>163</ele>
        <time>2021-05-20T07:28:04.000Z</time>
      </trkpt>
      <trkpt lat="48.71701" lon="1.9922">
        <ele>163</ele>
        <time>2021-05-20T07:28:05.000Z</time>
      </trkpt>
      <trkpt lat="48.717" lon="1.99219">
        <ele>163</ele>
        <time>2021-05-20T07:28:06.000Z</time>
      </trkpt>
      <trkpt lat="48.71699" lon="1.99218">
        <ele>163</ele>
        <time>2021-05-20T07:28:07.000Z</time>
      </trkpt>
      <trkpt lat="48.71698" lon="1.99217">
        <ele>163</ele>
        <time>2021-05-20T07:28:08.000Z</time>
      </trkpt>
      <trkpt lat="48.71696" lon="1.99217">
        <ele>163</ele>
        <time>2021-05-20T07:28:09.000Z</time>
      </trkpt>
      <trkpt lat="48.71695" lon="1.99216">
        <ele>164</ele>
        <time>2021-05-20T07:28:10.000Z</time>
      </trkpt>
      <trkpt lat="48.71694" lon="1.99215">
        <ele>164</ele>
        <time>2021-05-20T07:28:11.000Z</time>
      </trkpt>
      <trkpt lat="48.71693" lon="1.99215">
        <ele>164</ele>
        <time>2021-05-20T07:28:12.000Z</time>
      </trkpt>
      <trkpt lat="48.71692" lon="1.99214">
        <ele>164</ele>
        <time>2021-05-20T07:28:13.000Z</time>
      </trkpt>
      <trkpt lat="48.71691" lon="1.99214">
        <ele>164</ele>
        <time>2021-05-20T07:28:14.000Z</time>
      </trkpt>
      <trkpt lat="48.7169" lon="1.99213">
        <ele>164</ele>
        <time>2021-05-20T07:28:15.000Z</time>
      </trkpt>
      <trkpt lat="48.71688" lon="1.99212">
        <ele>164</ele>
        <time>2021-05-20T07:28:16.000Z</time>
      </trkpt>
      <trkpt lat="48.71687" lon="1.99212">
        <ele>164</ele>
        <time>2021-05-20T07:28:17.000Z</time>
      </trkpt>
      <trkpt lat="48.71686" lon="1.99211">
        <ele>164</ele>
        <time>2021-05-20T07:28:18.000Z</time>
      </trkpt>
      <trkpt lat="48.71685" lon="1.9921">
        <ele>164</ele>
        <time>2021-05-20T07:28:19.000Z</time>
      </trkpt>
      <trkpt lat="48.71683" lon="1.99209">
        <ele>165</ele>
        <time>2021-05-20T07:28:20.000Z</time>
      </trkpt>
      <trkpt lat="48.71682" lon="1.99209">
        <ele>165</ele>
        <time>2021-05-20T07:28:21.000Z</time>
      </trkpt>
      <trkpt lat="48.71681" lon="1.99208">
        <ele>165</ele>
        <time>2021-05-20T07:28:22.000Z</time>
      </trkpt>
      <trkpt lat="48.7168" lon="1.99207">
        <ele>165</ele>
        <time>2021-05-20T07:28:23.000Z</time>
      </trkpt>
      <trkpt lat="48.71678" lon="1.99206">
        <ele>165</ele>
        <time>2021-05-20T07:28:24.000Z</time>
      </trkpt>
      <trkpt lat="48.71677" lon="1.99206">
        <ele>165</ele>
        <time>2021-05-20T07:28:25.000Z</time>
      </trkpt>
      <trkpt lat="48.71676" lon="1.99205">
        <ele>165</ele>
        <time>2021-05-20T07:28:26.000Z</time>
      </trkpt>
      <trkpt lat="48.71674" lon="1.99204">
        <ele>165</ele>
        <time>2021-05-20T07:28:27.000Z</time>
      </trkpt>
      <trkpt lat="48.71673" lon="1.99203">
        <ele>165</ele>
        <time>2021-05-20T07:28:28.000Z</time>
      </trkpt>
      <trkpt lat="48.71672" lon="1.99202">
        <ele>165</ele>
        <time>2021-05-20T07:28:29.000Z</time>
      </trkpt>
      <trkpt lat="48.7167" lon="1.99202">
        <ele>165</ele>
        <time>2021-05-20T07:28:30.000Z</time>
      </trkpt>
      <trkpt lat="48.71669" lon="1.99201">
        <ele>165</ele>
        <time>2021-05-20T07:28:31.000Z</time>
      </trkpt>
      <trkpt lat="48.71668" lon="1.99201">
        <ele>165</ele>
        <time>2021-05-20T07:28:32.000Z</time>
      </trkpt>
      <trkpt lat="48.71667" lon="1.992">
        <ele>165</ele>
        <time>2021-05-20T07:28:33.000Z</time>
      </trkpt>
      <trkpt lat="48.71665" lon="1.99199">
        <ele>165</ele>
        <time>2021-05-20T07:28:34.000Z</time>
      </trkpt>
      <trkpt lat="48.71664" lon="1.99198">
        <ele>165</ele>
        <time>2021-05-20T07:28:35.000Z</time>
      </trkpt>
      <trkpt lat="48.71662" lon="1.99197">
        <ele>165</ele>
        <time>2021-05-20T07:28:36.000Z</time>
      </trkpt>
      <trkpt lat="48.71661" lon="1.99197">
        <ele>165</ele>
        <time>2021-05-20T07:28:37.000Z</time>
      </trkpt>
      <trkpt lat="48.7166" lon="1.99196">
        <ele>165</ele>
        <time>2021-05-20T07:28:38.000Z</time>
      </trkpt>
      <trkpt lat="48.71658" lon="1.99195">
        <ele>165</ele>
        <time>2021-05-20T07:28:39.000Z</time>
      </trkpt>
      <trkpt lat="48.71657" lon="1.99194">
        <ele>165</ele>
        <time>2021-05-20T07:28:40.000Z</time>
      </trkpt>
      <trkpt lat="48.71657" lon="1.99194">
        <ele>165</ele>
        <time>2021-05-20T07:28:41.000Z</time>
      </trkpt>
      <trkpt lat="48.71656" lon="1.99194">
        <ele>165</ele>
        <time>2021-05-20T07:28:42.000Z</time>
      </trkpt>
      <trkpt lat="48.71655" lon="1.99193">
        <ele>165</ele>
        <time>2021-05-20T07:28:43.000Z</time>
      </trkpt>
      <trkpt lat="48.71654" lon="1.99192">
        <ele>165</ele>
        <time>2021-05-20T07:28:44.000Z</time>
      </trkpt>
      <trkpt lat="48.71652" lon="1.99191">
        <ele>165</ele>
        <time>2021-05-20T07:28:45.000Z</time>
      </trkpt>
      <trkpt lat="48.71651" lon="1.9919">
        <ele>165</ele>
        <time>2021-05-20T07:28:46.000Z</time>
      </trkpt>
      <trkpt lat="48.71649" lon="1.99189">
        <ele>165</ele>
        <time>2021-05-20T07:28:47.000Z</time>
      </trkpt>
      <trkpt lat="48.71648" lon="1.99189">
        <ele>165</ele>
        <time>2021-05-20T07:28:48.000Z</time>
      </trkpt>
      <trkpt lat="48.71646" lon="1.99188">
        <ele>165</ele>
        <time>2021-05-20T07:28:49.000Z</time>
      </trkpt>
      <trkpt lat="48.71645" lon="1.99187">
        <ele>165</ele>
        <time>2021-05-20T07:28:50.000Z</time>
      </trkpt>
      <trkpt lat="48.71644" lon="1.99186">
        <ele>165</ele>
        <time>2021-05-20T07:28:51.000Z</time>
      </trkpt>
      <trkpt lat="48.71642" lon="1.99185">
        <ele>165</ele>
        <time>2021-05-20T07:28:52.000Z</time>
      </trkpt>
      <trkpt lat="48.71641" lon="1.99184">
        <ele>165</ele>
        <time>2021-05-20T07:28:53.000Z</time>
      </trkpt>
      <trkpt lat="48.7164" lon="1.99184">
        <ele>165</ele>
        <time>2021-05-20T07:28:54.000Z</time>
      </trkpt>
      <trkpt lat="48.71638" lon="1.99183">
        <ele>165</ele>
        <time>2021-05-20T07:28:55.000Z</time>
      </trkpt>
      <trkpt lat="48.71637" lon="1.99182">
        <ele>165</ele>
        <time>2021-05-20T07:28:56.000Z</time>
      </trkpt>
      <trkpt lat="48.71636" lon="1.99181">
        <ele>165</ele>
        <time>2021-05-20T07:28:57.000Z</time>
      </trkpt>
      <trkpt lat="48.71635" lon="1.99181">
        <ele>165</ele>
        <time>2021-05-20T07:28:58.000Z</time>
      </trkpt>
      <trkpt lat="48.71634" lon="1.9918">
        <ele>165</ele>
        <time>2021-05-20T07:28:59.000Z</time>
      </trkpt>
      <trkpt lat="48.71632" lon="1.99179">
        <ele>165</ele>
        <time>2021-05-20T07:29:00.000Z</time>
      </trkpt>
      <trkpt lat="48.71631" lon="1.99178">
        <ele>165</ele>
        <time>2021-05-20T07:29:01.000Z</time>
      </trkpt>
      <trkpt lat="48.71629" lon="1.99177">
        <ele>165</ele>
        <time>2021-05-20T07:29:02.000Z</time>
      </trkpt>
      <trkpt lat="48.71628" lon="1.99177">
        <ele>165</ele>
        <time>2021-05-20T07:29:03.000Z</time>
      </trkpt>
      <trkpt lat="48.71627" lon="1.99176">
        <ele>165</ele>
        <time>2021-05-20T07:29:04.000Z</time>
      </trkpt>
      <trkpt lat="48.71625" lon="1.99175">
        <ele>165</ele>
        <time>2021-05-20T07:29:05.000Z</time>
      </trkpt>
      <trkpt lat="48.71624" lon="1.99174">
        <ele>165</ele>
        <time>2021-05-20T07:29:06.000Z</time>
      </trkpt>
      <trkpt lat="48.71623" lon="1.99174">
        <ele>165</ele>
        <time>2021-05-20T07:29:07.000Z</time>
      </trkpt>
      <trkpt lat="48.71621" lon="1.99173">
        <ele>165</ele>
        <time>2021-05-20T07:29:08.000Z</time>
      </trkpt>
      <trkpt lat="48.7162" lon="1.99172">
        <ele>165</ele>
        <time>2021-05-20T07:29:09.000Z</time>
      </trkpt>
      <trkpt lat="48.71619" lon="1.99171">
        <ele>165</ele>
        <time>2021-05-20T07:29:10.000Z</time>
      </trkpt>
      <trkpt lat="48.71618" lon="1.9917">
        <ele>165</ele>
        <time>2021-05-20T07:29:11.000Z</time>
      </trkpt>
      <trkpt lat="48.71617" lon="1.9917">
        <ele>165</ele>
        <time>2021-05-20T07:29:12.000Z</time>
      </trkpt>
      <trkpt lat="48.71615" lon="1.99169">
        <ele>165</ele>
        <time>2021-05-20T07:29:13.000Z</time>
      </trkpt>
      <trkpt lat="48.71614" lon="1.99168">
        <ele>165</ele>
        <time>2021-05-20T07:29:14.000Z</time>
      </trkpt>
      <trkpt lat="48.71612" lon="1.99168">
        <ele>165</ele>
        <time>2021-05-20T07:29:15.000Z</time>
      </trkpt>
      <trkpt lat="48.71611" lon="1.99167">
        <ele>165</ele>
        <time>2021-05-20T07:29:16.000Z</time>
      </trkpt>
      <trkpt lat="48.7161" lon="1.99166">
        <ele>165</ele>
        <time>2021-05-20T07:29:17.000Z</time>
      </trkpt>
      <trkpt lat="48.71609" lon="1.99166">
        <ele>165</ele>
        <time>2021-05-20T07:29:18.000Z</time>
      </trkpt>
      <trkpt lat="48.71608" lon="1.99165">
        <ele>165</ele>
        <time>2021-05-20T07:29:19.000Z</time>
      </trkpt>
      <trkpt lat="48.71607" lon="1.99165">
        <ele>165</ele>
        <time>2021-05-20T07:29:20.000Z</time>
      </trkpt>
      <trkpt lat="48.71606" lon="1.99164">
        <ele>165</ele>
        <time>2021-05-20T07:29:21.000Z</time>
      </trkpt>
      <trkpt lat="48.71605" lon="1.99164">
        <ele>165</ele>
        <time>2021-05-20T07:29:22.000Z</time>
      </trkpt>
      <trkpt lat="48.71603" lon="1.99163">
        <ele>165</ele>
        <time>2021-05-20T07:29:23.000Z</time>
      </trkpt>
      <trkpt lat="48.71602" lon="1.99163">
        <ele>165</ele>
        <time>2021-05-20T07:29:24.000Z</time>
      </trkpt>
      <trkpt lat="48.71601" lon="1.99162">
        <ele>165</ele>
        <time>2021-05-20T07:29:25.000Z</time>
      </trkpt>
      <trkpt lat="48.716" lon="1.99161">
        <ele>165</ele>
        <time>2021-05-20T07:29:26.000Z</time>
      </trkpt>
      <trkpt lat="48.71598" lon="1.99161">
        <ele>165</ele>
        <time>2021-05-20T07:29:27.000Z</time>
      </trkpt>
      <trkpt lat="48.71597" lon="1.9916">
        <ele>165</ele>
        <time>2021-05-20T07:29:28.000Z</time>
      </trkpt>
      <trkpt lat="48.71596" lon="1.9916">
        <ele>165</ele>
        <time>2021-05-20T07:29:29.000Z</time>
      </trkpt>
      <trkpt lat="48.71595" lon="1.99159">
        <ele>165</ele>
        <time>2021-05-20T07:29:30.000Z</time>
      </trkpt>
      <trkpt lat="48.71594" lon="1.99158">
        <ele>165</ele>
        <time>2021-05-20T07:29:31.000Z</time>
      </trkpt>
      <trkpt lat="48.71593" lon="1.99157">
        <ele>165</ele>
        <time>2021-05-20T07:29:32.000Z</time>
      </trkpt>
      <trkpt lat="48.71591" lon="1.99156">
        <ele>165</ele>
        <time>2021-05-20T07:29:33.000Z</time>
      </trkpt>
      <trkpt lat="48.7159" lon="1.99156">
        <ele>164</ele>
        <time>2021-05-20T07:29:34.000Z</time>
      </trkpt>
      <trkpt lat="48.71589" lon="1.99155">
        <ele>164</ele>
        <time>2021-05-20T07:29:35.000Z</time>
      </trkpt>
      <trkpt lat="48.71588" lon="1.99154">
        <ele>164</ele>
        <time>2021-05-20T07:29:36.000Z</time>
      </trkpt>
      <trkpt lat="48.71587" lon="1.99154">
        <ele>164</ele>
        <time>2021-05-20T07:29:37.000Z</time>
      </trkpt>
      <trkpt lat="48.71586" lon="1.99153">
        <ele>164</ele>
        <time>2021-05-20T07:29:38.000Z</time>
      </trkpt>
      <trkpt lat="48.71585" lon="1.99152">
        <ele>164</ele>
        <time>2021-05-20T07:29:39.000Z</time>
      </trkpt>
      <trkpt lat="48.71584" lon="1.99151">
        <ele>164</ele>
        <time>2021-05-20T07:29:40.000Z</time>
      </trkpt>
      <trkpt lat="48.71582" lon="1.99151">
        <ele>164</ele>
        <time>2021-05-20T07:29:41.000Z</time>
      </trkpt>
      <trkpt lat="48.71581" lon="1.9915">
        <ele>164</ele>
        <time>2021-05-20T07:29:42.000Z</time>
      </trkpt>
      <trkpt lat="48.7158" lon="1.9915">
        <ele>164</ele>
        <time>2021-05-20T07:29:43.000Z</time>
      </trkpt>
      <trkpt lat="48.71579" lon="1.99149">
        <ele>164</ele>
        <time>2021-05-20T07:29:44.000Z</time>
      </trkpt>
      <trkpt lat="48.71578" lon="1.99149">
        <ele>164</ele>
        <time>2021-05-20T07:29:45.000Z</time>
      </trkpt>
      <trkpt lat="48.71577" lon="1.99148">
        <ele>164</ele>
        <time>2021-05-20T07:29:46.000Z</time>
      </trkpt>
      <trkpt lat="48.71576" lon="1.99148">
        <ele>164</ele>
        <time>2021-05-20T07:29:47.000Z</time>
      </trkpt>
      <trkpt lat="48.71574" lon="1.99147">
        <ele>164</ele>
        <time>2021-05-20T07:29:48.000Z</time>
      </trkpt>
      <trkpt lat="48.71573" lon="1.99147">
        <ele>164</ele>
        <time>2021-05-20T07:29:49.000Z</time>
      </trkpt>
      <trkpt lat="48.71572" lon="1.99147">
        <ele>165</ele>
        <time>2021-05-20T07:29:50.000Z</time>
      </trkpt>
      <trkpt lat="48.71571" lon="1.99148">
        <ele>165</ele>
        <time>2021-05-20T07:29:51.000Z</time>
      </trkpt>
      <trkpt lat="48.7157" lon="1.99148">
        <ele>165</ele>
        <time>2021-05-20T07:29:52.000Z</time>
      </trkpt>
      <trkpt lat="48.71569" lon="1.99149">
        <ele>165</ele>
        <time>2021-05-20T07:29:53.000Z</time>
      </trkpt>
      <trkpt lat="48.71568" lon="1.99151">
        <ele>165</ele>
        <time>2021-05-20T07:29:54.000Z</time>
      </trkpt>
      <trkpt lat="48.71568" lon="1.99152">
        <ele>165</ele>
        <time>2021-05-20T07:29:55.000Z</time>
      </trkpt>
      <trkpt lat="48.71567" lon="1.99154">
        <ele>165</ele>
        <time>2021-05-20T07:29:56.000Z</time>
      </trkpt>
      <trkpt lat="48.71566" lon="1.99156">
        <ele>165</ele>
        <time>2021-05-20T07:29:57.000Z</time>
      </trkpt>
      <trkpt lat="48.71566" lon="1.99158">
        <ele>165</ele>
        <time>2021-05-20T07:29:58.000Z</time>
      </trkpt>
      <trkpt lat="48.71565" lon="1.9916">
        <ele>165</ele>
        <time>2021-05-20T07:29:59.000Z</time>
      </trkpt>
      <trkpt lat="48.71564" lon="1.99161">
        <ele>165</ele>
        <time>2021-05-20T07:30:00.000Z</time>
      </trkpt>
      <trkpt lat="48.71564" lon="1.99163">
        <ele>165</ele>
        <time>2021-05-20T07:30:01.000Z</time>
      </trkpt>
      <trkpt lat="48.71563" lon="1.99164">
        <ele>165</ele>
        <time>2021-05-20T07:30:02.000Z</time>
      </trkpt>
      <trkpt lat="48.71563" lon="1.99166">
        <ele>165</ele>
        <time>2021-05-20T07:30:03.000Z</time>
      </trkpt>
      <trkpt lat="48.71563" lon="1.99167">
        <ele>165</ele>
        <time>2021-05-20T07:30:04.000Z</time>
      </trkpt>
      <trkpt lat="48.71562" lon="1.99168">
        <ele>165</ele>
        <time>2021-05-20T07:30:05.000Z</time>
      </trkpt>
      <trkpt lat="48.71561" lon="1.9917">
        <ele>165</ele>
        <time>2021-05-20T07:30:06.000Z</time>
      </trkpt>
      <trkpt lat="48.71561" lon="1.99172">
        <ele>165</ele>
        <time>2021-05-20T07:30:07.000Z</time>
      </trkpt>
      <trkpt lat="48.7156" lon="1.99173">
        <ele>165</ele>
        <time>2021-05-20T07:30:08.000Z</time>
      </trkpt>
      <trkpt lat="48.7156" lon="1.99175">
        <ele>165</ele>
        <time>2021-05-20T07:30:09.000Z</time>
      </trkpt>
      <trkpt lat="48.71559" lon="1.99176">
        <ele>165</ele>
        <time>2021-05-20T07:30:10.000Z</time>
      </trkpt>
      <trkpt lat="48.71559" lon="1.99178">
        <ele>165</ele>
        <time>2021-05-20T07:30:11.000Z</time>
      </trkpt>
      <trkpt lat="48.71558" lon="1.9918">
        <ele>165</ele>
        <time>2021-05-20T07:30:12.000Z</time>
      </trkpt>
      <trkpt lat="48.71557" lon="1.99181">
        <ele>165</ele>
        <time>2021-05-20T07:30:13.000Z</time>
      </trkpt>
      <trkpt lat="48.71556" lon="1.99183">
        <ele>165</ele>
        <time>2021-05-20T07:30:14.000Z</time>
      </trkpt>
      <trkpt lat="48.71555" lon="1.99185">
        <ele>165</ele>
        <time>2021-05-20T07:30:15.000Z</time>
      </trkpt>
      <trkpt lat="48.71555" lon="1.99187">
        <ele>165</ele>
        <time>2021-05-20T07:30:16.000Z</time>
      </trkpt>
      <trkpt lat="48.71554" lon="1.99189">
        <ele>165</ele>
        <time>2021-05-20T07:30:17.000Z</time>
      </trkpt>
      <trkpt lat="48.71553" lon="1.99191">
        <ele>165</ele>
        <time>2021-05-20T07:30:18.000Z</time>
      </trkpt>
      <trkpt lat="48.71552" lon="1.99194">
        <ele>165</ele>
        <time>2021-05-20T07:30:19.000Z</time>
      </trkpt>
      <trkpt lat="48.71551" lon="1.99196">
        <ele>165</ele>
        <time>2021-05-20T07:30:20.000Z</time>
      </trkpt>
      <trkpt lat="48.7155" lon="1.99198">
        <ele>165</ele>
        <time>2021-05-20T07:30:21.000Z</time>
      </trkpt>
      <trkpt lat="48.7155" lon="1.992">
        <ele>165</ele>
        <time>2021-05-20T07:30:22.000Z</time>
      </trkpt>
      <trkpt lat="48.71549" lon="1.99202">
        <ele>165</ele>
        <time>2021-05-20T07:30:23.000Z</time>
      </trkpt>
      <trkpt lat="48.71548" lon="1.99203">
        <ele>165</ele>
        <time>2021-05-20T07:30:24.000Z</time>
      </trkpt>
      <trkpt lat="48.71547" lon="1.99205">
        <ele>165</ele>
        <time>2021-05-20T07:30:25.000Z</time>
      </trkpt>
      <trkpt lat="48.71547" lon="1.99207">
        <ele>165</ele>
        <time>2021-05-20T07:30:26.000Z</time>
      </trkpt>
      <trkpt lat="48.71546" lon="1.99208">
        <ele>165</ele>
        <time>2021-05-20T07:30:27.000Z</time>
      </trkpt>
      <trkpt lat="48.71546" lon="1.9921">
        <ele>165</ele>
        <time>2021-05-20T07:30:28.000Z</time>
      </trkpt>
      <trkpt lat="48.71545" lon="1.99211">
        <ele>165</ele>
        <time>2021-05-20T07:30:29.000Z</time>
      </trkpt>
      <trkpt lat="48.71544" lon="1.99213">
        <ele>165</ele>
        <time>2021-05-20T07:30:30.000Z</time>
      </trkpt>
      <trkpt lat="48.71544" lon="1.99215">
        <ele>165</ele>
        <time>2021-05-20T07:30:31.000Z</time>
      </trkpt>
      <trkpt lat="48.71543" lon="1.99217">
        <ele>165</ele>
        <time>2021-05-20T07:30:32.000Z</time>
      </trkpt>
      <trkpt lat="48.71542" lon="1.99219">
        <ele>165</ele>
        <time>2021-05-20T07:30:33.000Z</time>
      </trkpt>
      <trkpt lat="48.71541" lon="1.99221">
        <ele>165</ele>
        <time>2021-05-20T07:30:34.000Z</time>
      </trkpt>
      <trkpt lat="48.7154" lon="1.99223">
        <ele>165</ele>
        <time>2021-05-20T07:30:35.000Z</time>
      </trkpt>
      <trkpt lat="48.7154" lon="1.99225">
        <ele>165</ele>
        <time>2021-05-20T07:30:36.000Z</time>
      </trkpt>
      <trkpt lat="48.71539" lon="1.99226">
        <ele>165</ele>
        <time>2021-05-20T07:30:37.000Z</time>
      </trkpt>
      <trkpt lat="48.71538" lon="1.99228">
        <ele>165</ele>
        <time>2021-05-20T07:30:38.000Z</time>
      </trkpt>
      <trkpt lat="48.71538" lon="1.9923">
        <ele>165</ele>
        <time>2021-05-20T07:30:39.000Z</time>
      </trkpt>
      <trkpt lat="48.71537" lon="1.99231">
        <ele>165</ele>
        <time>2021-05-20T07:30:40.000Z</time>
      </trkpt>
      <trkpt lat="48.71537" lon="1.99233">
        <ele>165</ele>
        <time>2021-05-20T07:30:41.000Z</time>
      </trkpt>
      <trkpt lat="48.71536" lon="1.99235">
        <ele>165</ele>
        <time>2021-05-20T07:30:42.000Z</time>
      </trkpt>
      <trkpt lat="48.71535" lon="1.99236">
        <ele>165</ele>
        <time>2021-05-20T07:30:43.000Z</time>
      </trkpt>
      <trkpt lat="48.71535" lon="1.99238">
        <ele>165</ele>
        <time>2021-05-20T07:30:44.000Z</time>
      </trkpt>
      <trkpt lat="48.71534" lon="1.9924">
        <ele>165</ele>
        <time>2021-05-20T07:30:45.000Z</time>
      </trkpt>
      <trkpt lat="48.71533" lon="1.99242">
        <ele>165</ele>
        <time>2021-05-20T07:30:46.000Z</time>
      </trkpt>
      <trkpt lat="48.71533" lon="1.99244">
        <ele>165</ele>
        <time>2021-05-20T07:30:47.000Z</time>
      </trkpt>
      <trkpt lat="48.71532" lon="1.99245">
        <ele>165</ele>
        <time>2021-05-20T07:30:48.000Z</time>
      </trkpt>
      <trkpt lat="48.71531" lon="1.99247">
        <ele>165</ele>
        <time>2021-05-20T07:30:49.000Z</time>
      </trkpt>
      <trkpt lat="48.71531" lon="1.99249">
        <ele>165</ele>
        <time>2021-05-20T07:30:50.000Z</time>
      </trkpt>
      <trkpt lat="48.7153" lon="1.99251">
        <ele>165</ele>
        <time>2021-05-20T07:30:51.000Z</time>
      </trkpt>
      <trkpt lat="48.7153" lon="1.99253">
        <ele>165</ele>
        <time>2021-05-20T07:30:52.000Z</time>
      </trkpt>
      <trkpt lat="48.71529" lon="1.99255">
        <ele>165</ele>
        <time>2021-05-20T07:30:53.000Z</time>
      </trkpt>
      <trkpt lat="48.71529" lon="1.99256">
        <ele>165</ele>
        <time>2021-05-20T07:30:54.000Z</time>
      </trkpt>
      <trkpt lat="48.71528" lon="1.99258">
        <ele>165</ele>
        <time>2021-05-20T07:30:55.000Z</time>
      </trkpt>
      <trkpt lat="48.71528" lon="1.99259">
        <ele>165</ele>
        <time>2021-05-20T07:30:56.000Z</time>
      </trkpt>
      <trkpt lat="48.71528" lon="1.9926">
        <ele>165</ele>
        <time>2021-05-20T07:30:57.000Z</time>
      </trkpt>
      <trkpt lat="48.71527" lon="1.99262">
        <ele>165</ele>
        <time>2021-05-20T07:30:58.000Z</time>
      </trkpt>
      <trkpt lat="48.71527" lon="1.99264">
        <ele>165</ele>
        <time>2021-05-20T07:30:59.000Z</time>
      </trkpt>
      <trkpt lat="48.71526" lon="1.99265">
        <ele>165</ele>
        <time>2021-05-20T07:31:00.000Z</time>
      </trkpt>
      <trkpt lat="48.71526" lon="1.99267">
        <ele>165</ele>
        <time>2021-05-20T07:31:01.000Z</time>
      </trkpt>
      <trkpt lat="48.71525" lon="1.99269">
        <ele>165</ele>
        <time>2021-05-20T07:31:02.000Z</time>
      </trkpt>
      <trkpt lat="48.71525" lon="1.99271">
        <ele>165</ele>
        <time>2021-05-20T07:31:03.000Z</time>
      </trkpt>
      <trkpt lat="48.71524" lon="1.99272">
        <ele>165</ele>
        <time>2021-05-20T07:31:04.000Z</time>
      </trkpt>
      <trkpt lat="48.71523" lon="1.99273">
        <ele>165</ele>
        <time>2021-05-20T07:31:05.000Z</time>
      </trkpt>
      <trkpt lat="48.71523" lon="1.99274">
        <ele>165</ele>
        <time>2021-05-20T07:31:06.000Z</time>
      </trkpt>
      <trkpt lat="48.71523" lon="1.99275">
        <ele>165</ele>
        <time>2021-05-20T07:31:07.000Z</time>
      </trkpt>
      <trkpt lat="48.71522" lon="1.99276">
        <ele>165</ele>
        <time>2021-05-20T07:31:08.000Z</time>
      </trkpt>
      <trkpt lat="48.71522" lon="1.99276">
        <ele>165</ele>
        <time>2021-05-20T07:31:09.000Z</time>
      </trkpt>
      <trkpt lat="48.71521" lon="1.99276">
        <ele>165</ele>
        <time>2021-05-20T07:31:10.000Z</time>
      </trkpt>
      <trkpt lat="48.71521" lon="1.99276">
        <ele>165</ele>
        <time>2021-05-20T07:31:11.000Z</time>
      </trkpt>
      <trkpt lat="48.71521" lon="1.99279">
        <ele>165</ele>
        <time>2021-05-20T07:31:12.000Z</time>
      </trkpt>
      <trkpt lat="48.71521" lon="1.9928">
        <ele>165</ele>
        <time>2021-05-20T07:31:13.000Z</time>
      </trkpt>
      <trkpt lat="48.7152" lon="1.99282">
        <ele>165</ele>
        <time>2021-05-20T07:31:14.000Z</time>
      </trkpt>
      <trkpt lat="48.7152" lon="1.99284">
        <ele>165</ele>
        <time>2021-05-20T07:31:15.000Z</time>
      </trkpt>
      <trkpt lat="48.7152" lon="1.99286">
        <ele>165</ele>
        <time>2021-05-20T07:31:16.000Z</time>
      </trkpt>
      <trkpt lat="48.7152" lon="1.99287">
        <ele>165</ele>
        <time>2021-05-20T07:31:17.000Z</time>
      </trkpt>
      <trkpt lat="48.71519" lon="1.99289">
        <ele>165</ele>
        <time>2021-05-20T07:31:18.000Z</time>
      </trkpt>
      <trkpt lat="48.71519" lon="1.99291">
        <ele>165</ele>
        <time>2021-05-20T07:31:19.000Z</time>
      </trkpt>
      <trkpt lat="48.71518" lon="1.99293">
        <ele>165</ele>
        <time>2021-05-20T07:31:20.000Z</time>
      </trkpt>
      <trkpt lat="48.71517" lon="1.99295">
        <ele>165</ele>
        <time>2021-05-20T07:31:21.000Z</time>
      </trkpt>
      <trkpt lat="48.71517" lon="1.99296">
        <ele>165</ele>
        <time>2021-05-20T07:31:22.000Z</time>
      </trkpt>
      <trkpt lat="48.71516" lon="1.99298">
        <ele>165</ele>
        <time>2021-05-20T07:31:23.000Z</time>
      </trkpt>
      <trkpt lat="48.71516" lon="1.993">
        <ele>165</ele>
        <time>2021-05-20T07:31:24.000Z</time>
      </trkpt>
      <trkpt lat="48.71515" lon="1.99302">
        <ele>165</ele>
        <time>2021-05-20T07:31:25.000Z</time>
      </trkpt>
      <trkpt lat="48.71515" lon="1.99303">
        <ele>164</ele>
        <time>2021-05-20T07:31:26.000Z</time>
      </trkpt>
      <trkpt lat="48.71514" lon="1.99305">
        <ele>164</ele>
        <time>2021-05-20T07:31:27.000Z</time>
      </trkpt>
      <trkpt lat="48.71514" lon="1.99307">
        <ele>164</ele>
        <time>2021-05-20T07:31:28.000Z</time>
      </trkpt>
      <trkpt lat="48.71513" lon="1.99309">
        <ele>164</ele>
        <time>2021-05-20T07:31:29.000Z</time>
      </trkpt>
      <trkpt lat="48.71513" lon="1.99311">
        <ele>164</ele>
        <time>2021-05-20T07:31:30.000Z</time>
      </trkpt>
      <trkpt lat="48.71512" lon="1.99313">
        <ele>164</ele>
        <time>2021-05-20T07:31:31.000Z</time>
      </trkpt>
      <trkpt lat="48.71512" lon="1.99315">
        <ele>164</ele>
        <time>2021-05-20T07:31:32.000Z</time>
      </trkpt>
      <trkpt lat="48.71511" lon="1.99317">
        <ele>164</ele>
        <time>2021-05-20T07:31:33.000Z</time>
      </trkpt>
      <trkpt lat="48.71511" lon="1.99319">
        <ele>164</ele>
        <time>2021-05-20T07:31:34.000Z</time>
      </trkpt>
      <trkpt lat="48.7151" lon="1.9932">
        <ele>164</ele>
        <time>2021-05-20T07:31:35.000Z</time>
      </trkpt>
      <trkpt lat="48.7151" lon="1.99322">
        <ele>164</ele>
        <time>2021-05-20T07:31:36.000Z</time>
      </trkpt>
      <trkpt lat="48.7151" lon="1.99324">
        <ele>164</ele>
        <time>2021-05-20T07:31:37.000Z</time>
      </trkpt>
      <trkpt lat="48.71509" lon="1.99326">
        <ele>164</ele>
        <time>2021-05-20T07:31:38.000Z</time>
      </trkpt>
      <trkpt lat="48.71509" lon="1.99327">
        <ele>164</ele>
        <time>2021-05-20T07:31:39.000Z</time>
      </trkpt>
      <trkpt lat="48.71508" lon="1.99329">
        <ele>164</ele>
        <time>2021-05-20T07:31:40.000Z</time>
      </trkpt>
      <trkpt lat="48.71508" lon="1.99331">
        <ele>164</ele>
        <time>2021-05-20T07:31:41.000Z</time>
      </trkpt>
      <trkpt lat="48.71507" lon="1.99333">
        <ele>164</ele>
        <time>2021-05-20T07:31:42.000Z</time>
      </trkpt>
      <trkpt lat="48.71507" lon="1.99335">
        <ele>165</ele>
        <time>2021-05-20T07:31:43.000Z</time>
      </trkpt>
      <trkpt lat="48.71506" lon="1.99337">
        <ele>165</ele>
        <time>2021-05-20T07:31:44.000Z</time>
      </trkpt>
      <trkpt lat="48.71506" lon="1.99339">
        <ele>165</ele>
        <time>2021-05-20T07:31:45.000Z</time>
      </trkpt>
      <trkpt lat="48.71505" lon="1.99341">
        <ele>165</ele>
        <time>2021-05-20T07:31:46.000Z</time>
      </trkpt>
      <trkpt lat="48.71505" lon="1.99343">
        <ele>165</ele>
        <time>2021-05-20T07:31:47.000Z</time>
      </trkpt>
      <trkpt lat="48.71504" lon="1.99345">
        <ele>165</ele>
        <time>2021-05-20T07:31:48.000Z</time>
      </trkpt>
      <trkpt lat="48.71504" lon="1.99346">
        <ele>165</ele>
        <time>2021-05-20T07:31:49.000Z</time>
      </trkpt>
      <trkpt lat="48.71503" lon="1.99348">
        <ele>165</ele>
        <time>2021-05-20T07:31:50.000Z</time>
      </trkpt>
      <trkpt lat="48.71503" lon="1.9935">
        <ele>165</ele>
        <time>2021-05-20T07:31:51.000Z</time>
      </trkpt>
      <trkpt lat="48.71502" lon="1.99352">
        <ele>165</ele>
        <time>2021-05-20T07:31:52.000Z</time>
      </trkpt>
      <trkpt lat="48.71502" lon="1.99353">
        <ele>165</ele>
        <time>2021-05-20T07:31:53.000Z</time>
      </trkpt>
      <trkpt lat="48.71501" lon="1.99355">
        <ele>165</ele>
        <time>2021-05-20T07:31:54.000Z</time>
      </trkpt>
      <trkpt lat="48.715" lon="1.99357">
        <ele>165</ele>
        <time>2021-05-20T07:31:55.000Z</time>
      </trkpt>
      <trkpt lat="48.715" lon="1.99359">
        <ele>165</ele>
        <time>2021-05-20T07:31:56.000Z</time>
      </trkpt>
      <trkpt lat="48.71499" lon="1.9936">
        <ele>165</ele>
        <time>2021-05-20T07:31:57.000Z</time>
      </trkpt>
      <trkpt lat="48.71499" lon="1.99362">
        <ele>165</ele>
        <time>2021-05-20T07:31:58.000Z</time>
      </trkpt>
      <trkpt lat="48.71499" lon="1.99363">
        <ele>165</ele>
        <time>2021-05-20T07:31:59.000Z</time>
      </trkpt>
      <trkpt lat="48.71498" lon="1.99365">
        <ele>165</ele>
        <time>2021-05-20T07:32:00.000Z</time>
      </trkpt>
      <trkpt lat="48.71497" lon="1.99367">
        <ele>165</ele>
        <time>2021-05-20T07:32:01.000Z</time>
      </trkpt>
      <trkpt lat="48.71497" lon="1.99368">
        <ele>165</ele>
        <time>2021-05-20T07:32:02.000Z</time>
      </trkpt>
      <trkpt lat="48.71497" lon="1.9937">
        <ele>165</ele>
        <time>2021-05-20T07:32:03.000Z</time>
      </trkpt>
      <trkpt lat="48.71496" lon="1.99372">
        <ele>165</ele>
        <time>2021-05-20T07:32:04.000Z</time>
      </trkpt>
      <trkpt lat="48.71496" lon="1.99374">
        <ele>165</ele>
        <time>2021-05-20T07:32:05.000Z</time>
      </trkpt>
      <trkpt lat="48.71496" lon="1.99375">
        <ele>165</ele>
        <time>2021-05-20T07:32:06.000Z</time>
      </trkpt>
      <trkpt lat="48.71495" lon="1.99377">
        <ele>165</ele>
        <time>2021-05-20T07:32:07.000Z</time>
      </trkpt>
      <trkpt lat="48.71495" lon="1.99379">
        <ele>165</ele>
        <time>2021-05-20T07:32:08.000Z</time>
      </trkpt>
      <trkpt lat="48.71495" lon="1.9938">
        <ele>165</ele>
        <time>2021-05-20T07:32:09.000Z</time>
      </trkpt>
      <trkpt lat="48.71494" lon="1.99382">
        <ele>165</ele>
        <time>2021-05-20T07:32:10.000Z</time>
      </trkpt>
      <trkpt lat="48.71494" lon="1.99384">
        <ele>165</ele>
        <time>2021-05-20T07:32:11.000Z</time>
      </trkpt>
      <trkpt lat="48.71493" lon="1.99386">
        <ele>165</ele>
        <time>2021-05-20T07:32:12.000Z</time>
      </trkpt>
      <trkpt lat="48.71493" lon="1.99388">
        <ele>164</ele>
        <time>2021-05-20T07:32:13.000Z</time>
      </trkpt>
      <trkpt lat="48.71492" lon="1.99389">
        <ele>164</ele>
        <time>2021-05-20T07:32:14.000Z</time>
      </trkpt>
      <trkpt lat="48.71491" lon="1.99391">
        <ele>164</ele>
        <time>2021-05-20T07:32:15.000Z</time>
      </trkpt>
      <trkpt lat="48.7149" lon="1.99393">
        <ele>164</ele>
        <time>2021-05-20T07:32:16.000Z</time>
      </trkpt>
      <trkpt lat="48.7149" lon="1.99394">
        <ele>164</ele>
        <time>2021-05-20T07:32:17.000Z</time>
      </trkpt>
      <trkpt lat="48.71489" lon="1.99396">
        <ele>164</ele>
        <time>2021-05-20T07:32:18.000Z</time>
      </trkpt>
      <trkpt lat="48.71488" lon="1.99397">
        <ele>164</ele>
        <time>2021-05-20T07:32:19.000Z</time>
      </trkpt>
      <trkpt lat="48.71487" lon="1.99398">
        <ele>164</ele>
        <time>2021-05-20T07:32:20.000Z</time>
      </trkpt>
      <trkpt lat="48.71486" lon="1.99399">
        <ele>164</ele>
        <time>2021-05-20T07:32:21.000Z</time>
      </trkpt>
      <trkpt lat="48.71485" lon="1.994">
        <ele>164</ele>
        <time>2021-05-20T07:32:22.000Z</time>
      </trkpt>
      <trkpt lat="48.71484" lon="1.99401">
        <ele>164</ele>
        <time>2021-05-20T07:32:23.000Z</time>
      </trkpt>
      <trkpt lat="48.71483" lon="1.99402">
        <ele>164</ele>
        <time>2021-05-20T07:32:24.000Z</time>
      </trkpt>
      <trkpt lat="48.71482" lon="1.99403">
        <ele>164</ele>
        <time>2021-05-20T07:32:25.000Z</time>
      </trkpt>
      <trkpt lat="48.71481" lon="1.99403">
        <ele>164</ele>
        <time>2021-05-20T07:32:26.000Z</time>
      </trkpt>
      <trkpt lat="48.7148" lon="1.99404">
        <ele>164</ele>
        <time>2021-05-20T07:32:27.000Z</time>
      </trkpt>
      <trkpt lat="48.71478" lon="1.99405">
        <ele>164</ele>
        <time>2021-05-20T07:32:28.000Z</time>
      </trkpt>
      <trkpt lat="48.71477" lon="1.99406">
        <ele>164</ele>
        <time>2021-05-20T07:32:29.000Z</time>
      </trkpt>
      <trkpt lat="48.71476" lon="1.99407">
        <ele>164</ele>
        <time>2021-05-20T07:32:30.000Z</time>
      </trkpt>
      <trkpt lat="48.71475" lon="1.99408">
        <ele>164</ele>
        <time>2021-05-20T07:32:31.000Z</time>
      </trkpt>
      <trkpt lat="48.71473" lon="1.99408">
        <ele>164</ele>
        <time>2021-05-20T07:32:32.000Z</time>
      </trkpt>
      <trkpt lat="48.71472" lon="1.99408">
        <ele>164</ele>
        <time>2021-05-20T07:32:33.000Z</time>
      </trkpt>
      <trkpt lat="48.71471" lon="1.99409">
        <ele>164</ele>
        <time>2021-05-20T07:32:34.000Z</time>
      </trkpt>
      <trkpt lat="48.71469" lon="1.9941">
        <ele>164</ele>
        <time>2021-05-20T07:32:35.000Z</time>
      </trkpt>
      <trkpt lat="48.71468" lon="1.9941">
        <ele>164</ele>
        <time>2021-05-20T07:32:36.000Z</time>
      </trkpt>
      <trkpt lat="48.71467" lon="1.99411">
        <ele>164</ele>
        <time>2021-05-20T07:32:37.000Z</time>
      </trkpt>
      <trkpt lat="48.71466" lon="1.99411">
        <ele>164</ele>
        <time>2021-05-20T07:32:38.000Z</time>
      </trkpt>
      <trkpt lat="48.71464" lon="1.99412">
        <ele>164</ele>
        <time>2021-05-20T07:32:39.000Z</time>
      </trkpt>
      <trkpt lat="48.71463" lon="1.99413">
        <ele>164</ele>
        <time>2021-05-20T07:32:40.000Z</time>
      </trkpt>
      <trkpt lat="48.71461" lon="1.99413">
        <ele>164</ele>
        <time>2021-05-20T07:32:41.000Z</time>
      </trkpt>
      <trkpt lat="48.7146" lon="1.99414">
        <ele>164</ele>
        <time>2021-05-20T07:32:42.000Z</time>
      </trkpt>
      <trkpt lat="48.71459" lon="1.99414">
        <ele>164</ele>
        <time>2021-05-20T07:32:43.000Z</time>
      </trkpt>
      <trkpt lat="48.71458" lon="1.99415">
        <ele>165</ele>
        <time>2021-05-20T07:32:44.000Z</time>
      </trkpt>
      <trkpt lat="48.71456" lon="1.99415">
        <ele>165</ele>
        <time>2021-05-20T07:32:45.000Z</time>
      </trkpt>
      <trkpt lat="48.71455" lon="1.99415">
        <ele>165</ele>
        <time>2021-05-20T07:32:46.000Z</time>
      </trkpt>
      <trkpt lat="48.71454" lon="1.99415">
        <ele>165</ele>
        <time>2021-05-20T07:32:47.000Z</time>
      </trkpt>
      <trkpt lat="48.71453" lon="1.99415">
        <ele>165</ele>
        <time>2021-05-20T07:32:48.000Z</time>
      </trkpt>
      <trkpt lat="48.71451" lon="1.99416">
        <ele>164</ele>
        <time>2021-05-20T07:32:49.000Z</time>
      </trkpt>
      <trkpt lat="48.7145" lon="1.99416">
        <ele>164</ele>
        <time>2021-05-20T07:32:50.000Z</time>
      </trkpt>
      <trkpt lat="48.71449" lon="1.99416">
        <ele>164</ele>
        <time>2021-05-20T07:32:51.000Z</time>
      </trkpt>
      <trkpt lat="48.71448" lon="1.99417">
        <ele>164</ele>
        <time>2021-05-20T07:32:52.000Z</time>
      </trkpt>
      <trkpt lat="48.71447" lon="1.99417">
        <ele>164</ele>
        <time>2021-05-20T07:32:53.000Z</time>
      </trkpt>
      <trkpt lat="48.71446" lon="1.99418">
        <ele>164</ele>
        <time>2021-05-20T07:32:54.000Z</time>
      </trkpt>
      <trkpt lat="48.71445" lon="1.99418">
        <ele>164</ele>
        <time>2021-05-20T07:32:55.000Z</time>
      </trkpt>
      <trkpt lat="48.71444" lon="1.99419">
        <ele>164</ele>
        <time>2021-05-20T07:32:56.000Z</time>
      </trkpt>
      <trkpt lat="48.71444" lon="1.99419">
        <ele>164</ele>
        <time>2021-05-20T07:32:57.000Z</time>
      </trkpt>
      <trkpt lat="48.71443" lon="1.9942">
        <ele>164</ele>
        <time>2021-05-20T07:32:58.000Z</time>
      </trkpt>
      <trkpt lat="48.71443" lon="1.99421">
        <ele>164</ele>
        <time>2021-05-20T07:32:59.000Z</time>
      </trkpt>
      <trkpt lat="48.71442" lon="1.99422">
        <ele>164</ele>
        <time>2021-05-20T07:33:00.000Z</time>
      </trkpt>
      <trkpt lat="48.71442" lon="1.99423">
        <ele>164</ele>
        <time>2021-05-20T07:33:01.000Z</time>
      </trkpt>
      <trkpt lat="48.71441" lon="1.99424">
        <ele>164</ele>
        <time>2021-05-20T07:33:02.000Z</time>
      </trkpt>
      <trkpt lat="48.71441" lon="1.99425">
        <ele>163</ele>
        <time>2021-05-20T07:33:03.000Z</time>
      </trkpt>
      <trkpt lat="48.7144" lon="1.99425">
        <ele>163</ele>
        <time>2021-05-20T07:33:04.000Z</time>
      </trkpt>
      <trkpt lat="48.7144" lon="1.99426">
        <ele>163</ele>
        <time>2021-05-20T07:33:05.000Z</time>
      </trkpt>
      <trkpt lat="48.7144" lon="1.99427">
        <ele>163</ele>
        <time>2021-05-20T07:33:06.000Z</time>
      </trkpt>
      <trkpt lat="48.71439" lon="1.99427">
        <ele>163</ele>
        <time>2021-05-20T07:33:07.000Z</time>
      </trkpt>
      <trkpt lat="48.71439" lon="1.99427">
        <ele>163</ele>
        <time>2021-05-20T07:33:08.000Z</time>
      </trkpt>
      <trkpt lat="48.71438" lon="1.99428">
        <ele>163</ele>
        <time>2021-05-20T07:33:09.000Z</time>
      </trkpt>
      <trkpt lat="48.71438" lon="1.99428">
        <ele>163</ele>
        <time>2021-05-20T07:33:10.000Z</time>
      </trkpt>
      <trkpt lat="48.71437" lon="1.99429">
        <ele>163</ele>
        <time>2021-05-20T07:33:11.000Z</time>
      </trkpt>
      <trkpt lat="48.71436" lon="1.9943">
        <ele>162</ele>
        <time>2021-05-20T07:33:12.000Z</time>
      </trkpt>
      <trkpt lat="48.71436" lon="1.9943">
        <ele>162</ele>
        <time>2021-05-20T07:33:13.000Z</time>
      </trkpt>
      <trkpt lat="48.71435" lon="1.99431">
        <ele>162</ele>
        <time>2021-05-20T07:33:14.000Z</time>
      </trkpt>
      <trkpt lat="48.71434" lon="1.99431">
        <ele>162</ele>
        <time>2021-05-20T07:33:15.000Z</time>
      </trkpt>
      <trkpt lat="48.71433" lon="1.99431">
        <ele>162</ele>
        <time>2021-05-20T07:33:16.000Z</time>
      </trkpt>
      <trkpt lat="48.71432" lon="1.99432">
        <ele>162</ele>
        <time>2021-05-20T07:33:17.000Z</time>
      </trkpt>
      <trkpt lat="48.71431" lon="1.99432">
        <ele>162</ele>
        <time>2021-05-20T07:33:18.000Z</time>
      </trkpt>
      <trkpt lat="48.7143" lon="1.99432">
        <ele>162</ele>
        <time>2021-05-20T07:33:19.000Z</time>
      </trkpt>
      <trkpt lat="48.7143" lon="1.99433">
        <ele>162</ele>
        <time>2021-05-20T07:33:20.000Z</time>
      </trkpt>
      <trkpt lat="48.71429" lon="1.99433">
        <ele>162</ele>
        <time>2021-05-20T07:33:21.000Z</time>
      </trkpt>
      <trkpt lat="48.71428" lon="1.99434">
        <ele>161</ele>
        <time>2021-05-20T07:33:22.000Z</time>
      </trkpt>
      <trkpt lat="48.71427" lon="1.99434">
        <ele>161</ele>
        <time>2021-05-20T07:33:23.000Z</time>
      </trkpt>
      <trkpt lat="48.71426" lon="1.99435">
        <ele>161</ele>
        <time>2021-05-20T07:33:24.000Z</time>
      </trkpt>
      <trkpt lat="48.71425" lon="1.99435">
        <ele>161</ele>
        <time>2021-05-20T07:33:25.000Z</time>
      </trkpt>
      <trkpt lat="48.71424" lon="1.99436">
        <ele>161</ele>
        <time>2021-05-20T07:33:26.000Z</time>
      </trkpt>
      <trkpt lat="48.71423" lon="1.99437">
        <ele>161</ele>
        <time>2021-05-20T07:33:27.000Z</time>
      </trkpt>
      <trkpt lat="48.71423" lon="1.99437">
        <ele>161</ele>
        <time>2021-05-20T07:33:28.000Z</time>
      </trkpt>
      <trkpt lat="48.71422" lon="1.99438">
        <ele>161</ele>
        <time>2021-05-20T07:33:29.000Z</time>
      </trkpt>
      <trkpt lat="48.7142" lon="1.99439">
        <ele>161</ele>
        <time>2021-05-20T07:33:30.000Z</time>
      </trkpt>
      <trkpt lat="48.7142" lon="1.9944">
        <ele>161</ele>
        <time>2021-05-20T07:33:31.000Z</time>
      </trkpt>
      <trkpt lat="48.71419" lon="1.9944">
        <ele>161</ele>
        <time>2021-05-20T07:33:32.000Z</time>
      </trkpt>
      <trkpt lat="48.71419" lon="1.99441">
        <ele>161</ele>
        <time>2021-05-20T07:33:33.000Z</time>
      </trkpt>
      <trkpt lat="48.71418" lon="1.99442">
        <ele>161</ele>
        <time>2021-05-20T07:33:34.000Z</time>
      </trkpt>
      <trkpt lat="48.71417" lon="1.99443">
        <ele>161</ele>
        <time>2021-05-20T07:33:35.000Z</time>
      </trkpt>
      <trkpt lat="48.71416" lon="1.99444">
        <ele>161</ele>
        <time>2021-05-20T07:33:36.000Z</time>
      </trkpt>
      <trkpt lat="48.71414" lon="1.99445">
        <ele>161</ele>
        <time>2021-05-20T07:33:37.000Z</time>
      </trkpt>
      <trkpt lat="48.71413" lon="1.99446">
        <ele>161</ele>
        <time>2021-05-20T07:33:38.000Z</time>
      </trkpt>
      <trkpt lat="48.71411" lon="1.99447">
        <ele>161</ele>
        <time>2021-05-20T07:33:39.000Z</time>
      </trkpt>
      <trkpt lat="48.7141" lon="1.99448">
        <ele>161</ele>
        <time>2021-05-20T07:33:40.000Z</time>
      </trkpt>
      <trkpt lat="48.71408" lon="1.99449">
        <ele>161</ele>
        <time>2021-05-20T07:33:41.000Z</time>
      </trkpt>
      <trkpt lat="48.71407" lon="1.99449">
        <ele>161</ele>
        <time>2021-05-20T07:33:42.000Z</time>
      </trkpt>
      <trkpt lat="48.71407" lon="1.9945">
        <ele>161</ele>
        <time>2021-05-20T07:33:43.000Z</time>
      </trkpt>
      <trkpt lat="48.71406" lon="1.99451">
        <ele>161</ele>
        <time>2021-05-20T07:33:44.000Z</time>
      </trkpt>
      <trkpt lat="48.71404" lon="1.99451">
        <ele>161</ele>
        <time>2021-05-20T07:33:45.000Z</time>
      </trkpt>
      <trkpt lat="48.71403" lon="1.99452">
        <ele>161</ele>
        <time>2021-05-20T07:33:46.000Z</time>
      </trkpt>
      <trkpt lat="48.71402" lon="1.99453">
        <ele>161</ele>
        <time>2021-05-20T07:33:47.000Z</time>
      </trkpt>
      <trkpt lat="48.71401" lon="1.99454">
        <ele>161</ele>
        <time>2021-05-20T07:33:48.000Z</time>
      </trkpt>
      <trkpt lat="48.714" lon="1.99455">
        <ele>162</ele>
        <time>2021-05-20T07:33:49.000Z</time>
      </trkpt>
      <trkpt lat="48.71399" lon="1.99456">
        <ele>162</ele>
        <time>2021-05-20T07:33:50.000Z</time>
      </trkpt>
      <trkpt lat="48.71397" lon="1.99457">
        <ele>162</ele>
        <time>2021-05-20T07:33:51.000Z</time>
      </trkpt>
      <trkpt lat="48.71396" lon="1.99458">
        <ele>162</ele>
        <time>2021-05-20T07:33:52.000Z</time>
      </trkpt>
      <trkpt lat="48.71396" lon="1.99458">
        <ele>162</ele>
        <time>2021-05-20T07:33:53.000Z</time>
      </trkpt>
      <trkpt lat="48.71395" lon="1.99459">
        <ele>162</ele>
        <time>2021-05-20T07:33:54.000Z</time>
      </trkpt>
      <trkpt lat="48.71394" lon="1.9946">
        <ele>162</ele>
        <time>2021-05-20T07:33:55.000Z</time>
      </trkpt>
      <trkpt lat="48.71393" lon="1.9946">
        <ele>162</ele>
        <time>2021-05-20T07:33:56.000Z</time>
      </trkpt>
      <trkpt lat="48.71391" lon="1.99461">
        <ele>163</ele>
        <time>2021-05-20T07:33:57.000Z</time>
      </trkpt>
      <trkpt lat="48.7139" lon="1.99462">
        <ele>163</ele>
        <time>2021-05-20T07:33:58.000Z</time>
      </trkpt>
      <trkpt lat="48.71389" lon="1.99463">
        <ele>163</ele>
        <time>2021-05-20T07:33:59.000Z</time>
      </trkpt>
      <trkpt lat="48.71387" lon="1.99464">
        <ele>163</ele>
        <time>2021-05-20T07:34:00.000Z</time>
      </trkpt>
      <trkpt lat="48.71386" lon="1.99465">
        <ele>163</ele>
        <time>2021-05-20T07:34:01.000Z</time>
      </trkpt>
      <trkpt lat="48.71384" lon="1.99465">
        <ele>163</ele>
        <time>2021-05-20T07:34:02.000Z</time>
      </trkpt>
      <trkpt lat="48.71383" lon="1.99466">
        <ele>163</ele>
        <time>2021-05-20T07:34:03.000Z</time>
      </trkpt>
      <trkpt lat="48.71381" lon="1.99467">
        <ele>163</ele>
        <time>2021-05-20T07:34:04.000Z</time>
      </trkpt>
      <trkpt lat="48.7138" lon="1.99468">
        <ele>164</ele>
        <time>2021-05-20T07:34:05.000Z</time>
      </trkpt>
      <trkpt lat="48.71378" lon="1.99469">
        <ele>164</ele>
        <time>2021-05-20T07:34:06.000Z</time>
      </trkpt>
      <trkpt lat="48.71377" lon="1.9947">
        <ele>164</ele>
        <time>2021-05-20T07:34:07.000Z</time>
      </trkpt>
      <trkpt lat="48.71376" lon="1.99471">
        <ele>164</ele>
        <time>2021-05-20T07:34:08.000Z</time>
      </trkpt>
      <trkpt lat="48.71376" lon="1.99472">
        <ele>164</ele>
        <time>2021-05-20T07:34:09.000Z</time>
      </trkpt>
      <trkpt lat="48.71375" lon="1.99473">
        <ele>164</ele>
        <time>2021-05-20T07:34:10.000Z</time>
      </trkpt>
      <trkpt lat="48.71374" lon="1.99474">
        <ele>164</ele>
        <time>2021-05-20T07:34:11.000Z</time>
      </trkpt>
      <trkpt lat="48.71373" lon="1.99475">
        <ele>164</ele>
        <time>2021-05-20T07:34:12.000Z</time>
      </trkpt>
      <trkpt lat="48.71372" lon="1.99476">
        <ele>165</ele>
        <time>2021-05-20T07:34:13.000Z</time>
      </trkpt>
      <trkpt lat="48.71371" lon="1.99477">
        <ele>165</ele>
        <time>2021-05-20T07:34:14.000Z</time>
      </trkpt>
      <trkpt lat="48.7137" lon="1.99478">
        <ele>165</ele>
        <time>2021-05-20T07:34:15.000Z</time>
      </trkpt>
      <trkpt lat="48.71368" lon="1.99478">
        <ele>165</ele>
        <time>2021-05-20T07:34:16.000Z</time>
      </trkpt>
      <trkpt lat="48.71367" lon="1.99479">
        <ele>165</ele>
        <time>2021-05-20T07:34:17.000Z</time>
      </trkpt>
      <trkpt lat="48.71366" lon="1.9948">
        <ele>165</ele>
        <time>2021-05-20T07:34:18.000Z</time>
      </trkpt>
      <trkpt lat="48.71365" lon="1.99481">
        <ele>166</ele>
        <time>2021-05-20T07:34:19.000Z</time>
      </trkpt>
      <trkpt lat="48.71363" lon="1.99481">
        <ele>166</ele>
        <time>2021-05-20T07:34:20.000Z</time>
      </trkpt>
      <trkpt lat="48.71362" lon="1.99482">
        <ele>166</ele>
        <time>2021-05-20T07:34:21.000Z</time>
      </trkpt>
      <trkpt lat="48.71361" lon="1.99483">
        <ele>166</ele>
        <time>2021-05-20T07:34:22.000Z</time>
      </trkpt>
      <trkpt lat="48.7136" lon="1.99484">
        <ele>166</ele>
        <time>2021-05-20T07:34:23.000Z</time>
      </trkpt>
      <trkpt lat="48.71359" lon="1.99484">
        <ele>167</ele>
        <time>2021-05-20T07:34:24.000Z</time>
      </trkpt>
      <trkpt lat="48.71358" lon="1.99485">
        <ele>167</ele>
        <time>2021-05-20T07:34:25.000Z</time>
      </trkpt>
      <trkpt lat="48.71357" lon="1.99486">
        <ele>167</ele>
        <time>2021-05-20T07:34:26.000Z</time>
      </trkpt>
      <trkpt lat="48.71356" lon="1.99486">
        <ele>167</ele>
        <time>2021-05-20T07:34:27.000Z</time>
      </trkpt>
      <trkpt lat="48.71355" lon="1.99487">
        <ele>167</ele>
        <time>2021-05-20T07:34:28.000Z</time>
      </trkpt>
      <trkpt lat="48.71354" lon="1.99487">
        <ele>167</ele>
        <time>2021-05-20T07:34:29.000Z</time>
      </trkpt>
      <trkpt lat="48.71353" lon="1.99488">
        <ele>167</ele>
        <time>2021-05-20T07:34:30.000Z</time>
      </trkpt>
      <trkpt lat="48.71352" lon="1.99489">
        <ele>168</ele>
        <time>2021-05-20T07:34:31.000Z</time>
      </trkpt>
      <trkpt lat="48.7135" lon="1.9949">
        <ele>168</ele>
        <time>2021-05-20T07:34:32.000Z</time>
      </trkpt>
      <trkpt lat="48.71349" lon="1.99491">
        <ele>168</ele>
        <time>2021-05-20T07:34:33.000Z</time>
      </trkpt>
      <trkpt lat="48.71347" lon="1.99491">
        <ele>168</ele>
        <time>2021-05-20T07:34:34.000Z</time>
      </trkpt>
      <trkpt lat="48.71346" lon="1.99492">
        <ele>168</ele>
        <time>2021-05-20T07:34:35.000Z</time>
      </trkpt>
      <trkpt lat="48.71344" lon="1.99493">
        <ele>168</ele>
        <time>2021-05-20T07:34:36.000Z</time>
      </trkpt>
      <trkpt lat="48.71343" lon="1.99494">
        <ele>168</ele>
        <time>2021-05-20T07:34:37.000Z</time>
      </trkpt>
      <trkpt lat="48.71341" lon="1.99495">
        <ele>168</ele>
        <time>2021-05-20T07:34:38.000Z</time>
      </trkpt>
      <trkpt lat="48.7134" lon="1.99496">
        <ele>169</ele>
        <time>2021-05-20T07:34:39.000Z</time>
      </trkpt>
      <trkpt lat="48.71339" lon="1.99497">
        <ele>169</ele>
        <time>2021-05-20T07:34:40.000Z</time>
      </trkpt>
      <trkpt lat="48.71338" lon="1.99498">
        <ele>169</ele>
        <time>2021-05-20T07:34:41.000Z</time>
      </trkpt>
      <trkpt lat="48.71337" lon="1.99498">
        <ele>169</ele>
        <time>2021-05-20T07:34:42.000Z</time>
      </trkpt>
      <trkpt lat="48.71336" lon="1.99499">
        <ele>169</ele>
        <time>2021-05-20T07:34:43.000Z</time>
      </trkpt>
      <trkpt lat="48.71335" lon="1.995">
        <ele>169</ele>
        <time>2021-05-20T07:34:44.000Z</time>
      </trkpt>
      <trkpt lat="48.71333" lon="1.995">
        <ele>169</ele>
        <time>2021-05-20T07:34:45.000Z</time>
      </trkpt>
      <trkpt lat="48.71332" lon="1.99501">
        <ele>169</ele>
        <time>2021-05-20T07:34:46.000Z</time>
      </trkpt>
      <trkpt lat="48.71331" lon="1.99501">
        <ele>170</ele>
        <time>2021-05-20T07:34:47.000Z</time>
      </trkpt>
      <trkpt lat="48.7133" lon="1.99502">
        <ele>170</ele>
        <time>2021-05-20T07:34:48.000Z</time>
      </trkpt>
      <trkpt lat="48.71329" lon="1.99503">
        <ele>170</ele>
        <time>2021-05-20T07:34:49.000Z</time>
      </trkpt>
      <trkpt lat="48.71328" lon="1.99504">
        <ele>170</ele>
        <time>2021-05-20T07:34:50.000Z</time>
      </trkpt>
      <trkpt lat="48.71326" lon="1.99504">
        <ele>170</ele>
        <time>2021-05-20T07:34:51.000Z</time>
      </trkpt>
      <trkpt lat="48.71325" lon="1.99505">
        <ele>171</ele>
        <time>2021-05-20T07:34:52.000Z</time>
      </trkpt>
      <trkpt lat="48.71324" lon="1.99506">
        <ele>171</ele>
        <time>2021-05-20T07:34:53.000Z</time>
      </trkpt>
      <trkpt lat="48.71322" lon="1.99506">
        <ele>171</ele>
        <time>2021-05-20T07:34:54.000Z</time>
      </trkpt>
      <trkpt lat="48.7132" lon="1.99507">
        <ele>171</ele>
        <time>2021-05-20T07:34:55.000Z</time>
      </trkpt>
      <trkpt lat="48.71319" lon="1.99508">
        <ele>171</ele>
        <time>2021-05-20T07:34:56.000Z</time>
      </trkpt>
      <trkpt lat="48.71317" lon="1.99509">
        <ele>171</ele>
        <time>2021-05-20T07:34:57.000Z</time>
      </trkpt>
      <trkpt lat="48.71315" lon="1.9951">
        <ele>172</ele>
        <time>2021-05-20T07:34:58.000Z</time>
      </trkpt>
      <trkpt lat="48.71314" lon="1.9951">
        <ele>172</ele>
        <time>2021-05-20T07:34:59.000Z</time>
      </trkpt>
      <trkpt lat="48.71312" lon="1.99511">
        <ele>172</ele>
        <time>2021-05-20T07:35:00.000Z</time>
      </trkpt>
      <trkpt lat="48.71311" lon="1.99512">
        <ele>172</ele>
        <time>2021-05-20T07:35:01.000Z</time>
      </trkpt>
      <trkpt lat="48.71309" lon="1.99512">
        <ele>172</ele>
        <time>2021-05-20T07:35:02.000Z</time>
      </trkpt>
      <trkpt lat="48.71308" lon="1.99513">
        <ele>172</ele>
        <time>2021-05-20T07:35:03.000Z</time>
      </trkpt>
      <trkpt lat="48.71307" lon="1.99513">
        <ele>172</ele>
        <time>2021-05-20T07:35:04.000Z</time>
      </trkpt>
      <trkpt lat="48.71305" lon="1.99514">
        <ele>173</ele>
        <time>2021-05-20T07:35:05.000Z</time>
      </trkpt>
      <trkpt lat="48.71304" lon="1.99515">
        <ele>173</ele>
        <time>2021-05-20T07:35:06.000Z</time>
      </trkpt>
      <trkpt lat="48.71303" lon="1.99516">
        <ele>173</ele>
        <time>2021-05-20T07:35:07.000Z</time>
      </trkpt>
      <trkpt lat="48.71301" lon="1.99516">
        <ele>173</ele>
        <time>2021-05-20T07:35:08.000Z</time>
      </trkpt>
      <trkpt lat="48.713" lon="1.99516">
        <ele>173</ele>
        <time>2021-05-20T07:35:09.000Z</time>
      </trkpt>
      <trkpt lat="48.71299" lon="1.99516">
        <ele>173</ele>
        <time>2021-05-20T07:35:10.000Z</time>
      </trkpt>
      <trkpt lat="48.71298" lon="1.99516">
        <ele>173</ele>
        <time>2021-05-20T07:35:11.000Z</time>
      </trkpt>
      <trkpt lat="48.71297" lon="1.99517">
        <ele>173</ele>
        <time>2021-05-20T07:35:12.000Z</time>
      </trkpt>
      <trkpt lat="48.71295" lon="1.99517">
        <ele>173</ele>
        <time>2021-05-20T07:35:13.000Z</time>
      </trkpt>
      <trkpt lat="48.71294" lon="1.99517">
        <ele>173</ele>
        <time>2021-05-20T07:35:14.000Z</time>
      </trkpt>
      <trkpt lat="48.71293" lon="1.99517">
        <ele>173</ele>
        <time>2021-05-20T07:35:15.000Z</time>
      </trkpt>
      <trkpt lat="48.71291" lon="1.99517">
        <ele>173</ele>
        <time>2021-05-20T07:35:16.000Z</time>
      </trkpt>
      <trkpt lat="48.7129" lon="1.99518">
        <ele>173</ele>
        <time>2021-05-20T07:35:17.000Z</time>
      </trkpt>
      <trkpt lat="48.71289" lon="1.99518">
        <ele>173</ele>
        <time>2021-05-20T07:35:18.000Z</time>
      </trkpt>
      <trkpt lat="48.71287" lon="1.99518">
        <ele>173</ele>
        <time>2021-05-20T07:35:19.000Z</time>
      </trkpt>
      <trkpt lat="48.71286" lon="1.99519">
        <ele>173</ele>
        <time>2021-05-20T07:35:20.000Z</time>
      </trkpt>
      <trkpt lat="48.71285" lon="1.99519">
        <ele>173</ele>
        <time>2021-05-20T07:35:21.000Z</time>
      </trkpt>
      <trkpt lat="48.71284" lon="1.9952">
        <ele>173</ele>
        <time>2021-05-20T07:35:22.000Z</time>
      </trkpt>
      <trkpt lat="48.71283" lon="1.9952">
        <ele>174</ele>
        <time>2021-05-20T07:35:23.000Z</time>
      </trkpt>
      <trkpt lat="48.71281" lon="1.99521">
        <ele>174</ele>
        <time>2021-05-20T07:35:24.000Z</time>
      </trkpt>
      <trkpt lat="48.7128" lon="1.99522">
        <ele>174</ele>
        <time>2021-05-20T07:35:25.000Z</time>
      </trkpt>
      <trkpt lat="48.71278" lon="1.99523">
        <ele>174</ele>
        <time>2021-05-20T07:35:26.000Z</time>
      </trkpt>
      <trkpt lat="48.71277" lon="1.99524">
        <ele>174</ele>
        <time>2021-05-20T07:35:27.000Z</time>
      </trkpt>
      <trkpt lat="48.71276" lon="1.99525">
        <ele>174</ele>
        <time>2021-05-20T07:35:28.000Z</time>
      </trkpt>
      <trkpt lat="48.71274" lon="1.99526">
        <ele>174</ele>
        <time>2021-05-20T07:35:29.000Z</time>
      </trkpt>
      <trkpt lat="48.71273" lon="1.99526">
        <ele>174</ele>
        <time>2021-05-20T07:35:30.000Z</time>
      </trkpt>
      <trkpt lat="48.71272" lon="1.99527">
        <ele>175</ele>
        <time>2021-05-20T07:35:31.000Z</time>
      </trkpt>
      <trkpt lat="48.7127" lon="1.99528">
        <ele>175</ele>
        <time>2021-05-20T07:35:32.000Z</time>
      </trkpt>
      <trkpt lat="48.71269" lon="1.9953">
        <ele>175</ele>
        <time>2021-05-20T07:35:33.000Z</time>
      </trkpt>
      <trkpt lat="48.71267" lon="1.99531">
        <ele>175</ele>
        <time>2021-05-20T07:35:34.000Z</time>
      </trkpt>
      <trkpt lat="48.71266" lon="1.99532">
        <ele>175</ele>
        <time>2021-05-20T07:35:35.000Z</time>
      </trkpt>
      <trkpt lat="48.71264" lon="1.99533">
        <ele>175</ele>
        <time>2021-05-20T07:35:36.000Z</time>
      </trkpt>
      <trkpt lat="48.71263" lon="1.99534">
        <ele>175</ele>
        <time>2021-05-20T07:35:37.000Z</time>
      </trkpt>
      <trkpt lat="48.71262" lon="1.99535">
        <ele>175</ele>
        <time>2021-05-20T07:35:38.000Z</time>
      </trkpt>
      <trkpt lat="48.71261" lon="1.99536">
        <ele>175</ele>
        <time>2021-05-20T07:35:39.000Z</time>
      </trkpt>
      <trkpt lat="48.7126" lon="1.99536">
        <ele>175</ele>
        <time>2021-05-20T07:35:40.000Z</time>
      </trkpt>
      <trkpt lat="48.7126" lon="1.99537">
        <ele>175</ele>
        <time>2021-05-20T07:35:41.000Z</time>
      </trkpt>
      <trkpt lat="48.71258" lon="1.99538">
        <ele>175</ele>
        <time>2021-05-20T07:35:42.000Z</time>
      </trkpt>
      <trkpt lat="48.71257" lon="1.9954">
        <ele>175</ele>
        <time>2021-05-20T07:35:43.000Z</time>
      </trkpt>
      <trkpt lat="48.71256" lon="1.99541">
        <ele>175</ele>
        <time>2021-05-20T07:35:44.000Z</time>
      </trkpt>
      <trkpt lat="48.71255" lon="1.99542">
        <ele>176</ele>
        <time>2021-05-20T07:35:45.000Z</time>
      </trkpt>
      <trkpt lat="48.71254" lon="1.99543">
        <ele>176</ele>
        <time>2021-05-20T07:35:46.000Z</time>
      </trkpt>
      <trkpt lat="48.71253" lon="1.99544">
        <ele>176</ele>
        <time>2021-05-20T07:35:47.000Z</time>
      </trkpt>
      <trkpt lat="48.71251" lon="1.99545">
        <ele>176</ele>
        <time>2021-05-20T07:35:48.000Z</time>
      </trkpt>
      <trkpt lat="48.7125" lon="1.99545">
        <ele>176</ele>
        <time>2021-05-20T07:35:49.000Z</time>
      </trkpt>
      <trkpt lat="48.71249" lon="1.99546">
        <ele>176</ele>
        <time>2021-05-20T07:35:50.000Z</time>
      </trkpt>
      <trkpt lat="48.71248" lon="1.99548">
        <ele>176</ele>
        <time>2021-05-20T07:35:51.000Z</time>
      </trkpt>
      <trkpt lat="48.71246" lon="1.99549">
        <ele>176</ele>
        <time>2021-05-20T07:35:52.000Z</time>
      </trkpt>
      <trkpt lat="48.71245" lon="1.9955">
        <ele>176</ele>
        <time>2021-05-20T07:35:53.000Z</time>
      </trkpt>
      <trkpt lat="48.71244" lon="1.99551">
        <ele>176</ele>
        <time>2021-05-20T07:35:54.000Z</time>
      </trkpt>
      <trkpt lat="48.71243" lon="1.99552">
        <ele>176</ele>
        <time>2021-05-20T07:35:55.000Z</time>
      </trkpt>
      <trkpt lat="48.71241" lon="1.99553">
        <ele>176</ele>
        <time>2021-05-20T07:35:56.000Z</time>
      </trkpt>
      <trkpt lat="48.7124" lon="1.99554">
        <ele>176</ele>
        <time>2021-05-20T07:35:57.000Z</time>
      </trkpt>
      <trkpt lat="48.71238" lon="1.99555">
        <ele>176</ele>
        <time>2021-05-20T07:35:58.000Z</time>
      </trkpt>
      <trkpt lat="48.71236" lon="1.99555">
        <ele>176</ele>
        <time>2021-05-20T07:35:59.000Z</time>
      </trkpt>
      <trkpt lat="48.71235" lon="1.99556">
        <ele>176</ele>
        <time>2021-05-20T07:36:00.000Z</time>
      </trkpt>
      <trkpt lat="48.71234" lon="1.99558">
        <ele>176</ele>
        <time>2021-05-20T07:36:01.000Z</time>
      </trkpt>
      <trkpt lat="48.71233" lon="1.99559">
        <ele>176</ele>
        <time>2021-05-20T07:36:02.000Z</time>
      </trkpt>
      <trkpt lat="48.71232" lon="1.9956">
        <ele>176</ele>
        <time>2021-05-20T07:36:03.000Z</time>
      </trkpt>
      <trkpt lat="48.71231" lon="1.99561">
        <ele>176</ele>
        <time>2021-05-20T07:36:04.000Z</time>
      </trkpt>
      <trkpt lat="48.71229" lon="1.99562">
        <ele>176</ele>
        <time>2021-05-20T07:36:05.000Z</time>
      </trkpt>
      <trkpt lat="48.71228" lon="1.99564">
        <ele>176</ele>
        <time>2021-05-20T07:36:06.000Z</time>
      </trkpt>
      <trkpt lat="48.71227" lon="1.99565">
        <ele>176</ele>
        <time>2021-05-20T07:36:07.000Z</time>
      </trkpt>
      <trkpt lat="48.71226" lon="1.99566">
        <ele>176</ele>
        <time>2021-05-20T07:36:08.000Z</time>
      </trkpt>
      <trkpt lat="48.71225" lon="1.99568">
        <ele>176</ele>
        <time>2021-05-20T07:36:09.000Z</time>
      </trkpt>
      <trkpt lat="48.71224" lon="1.99569">
        <ele>176</ele>
        <time>2021-05-20T07:36:10.000Z</time>
      </trkpt>
      <trkpt lat="48.71223" lon="1.99569">
        <ele>176</ele>
        <time>2021-05-20T07:36:11.000Z</time>
      </trkpt>
      <trkpt lat="48.71222" lon="1.9957">
        <ele>176</ele>
        <time>2021-05-20T07:36:12.000Z</time>
      </trkpt>
      <trkpt lat="48.71221" lon="1.99571">
        <ele>176</ele>
        <time>2021-05-20T07:36:13.000Z</time>
      </trkpt>
      <trkpt lat="48.7122" lon="1.99572">
        <ele>176</ele>
        <time>2021-05-20T07:36:14.000Z</time>
      </trkpt>
      <trkpt lat="48.71219" lon="1.99573">
        <ele>176</ele>
        <time>2021-05-20T07:36:15.000Z</time>
      </trkpt>
      <trkpt lat="48.71218" lon="1.99574">
        <ele>176</ele>
        <time>2021-05-20T07:36:16.000Z</time>
      </trkpt>
      <trkpt lat="48.71217" lon="1.99575">
        <ele>176</ele>
        <time>2021-05-20T07:36:17.000Z</time>
      </trkpt>
      <trkpt lat="48.71216" lon="1.99576">
        <ele>175</ele>
        <time>2021-05-20T07:36:18.000Z</time>
      </trkpt>
      <trkpt lat="48.71215" lon="1.99577">
        <ele>175</ele>
        <time>2021-05-20T07:36:19.000Z</time>
      </trkpt>
      <trkpt lat="48.71214" lon="1.99578">
        <ele>175</ele>
        <time>2021-05-20T07:36:20.000Z</time>
      </trkpt>
      <trkpt lat="48.71213" lon="1.9958">
        <ele>175</ele>
        <time>2021-05-20T07:36:21.000Z</time>
      </trkpt>
      <trkpt lat="48.71211" lon="1.9958">
        <ele>175</ele>
        <time>2021-05-20T07:36:22.000Z</time>
      </trkpt>
      <trkpt lat="48.7121" lon="1.99582">
        <ele>175</ele>
        <time>2021-05-20T07:36:23.000Z</time>
      </trkpt>
      <trkpt lat="48.71209" lon="1.99583">
        <ele>175</ele>
        <time>2021-05-20T07:36:24.000Z</time>
      </trkpt>
      <trkpt lat="48.71208" lon="1.99584">
        <ele>175</ele>
        <time>2021-05-20T07:36:25.000Z</time>
      </trkpt>
      <trkpt lat="48.71207" lon="1.99585">
        <ele>175</ele>
        <time>2021-05-20T07:36:26.000Z</time>
      </trkpt>
      <trkpt lat="48.71206" lon="1.99586">
        <ele>175</ele>
        <time>2021-05-20T07:36:27.000Z</time>
      </trkpt>
      <trkpt lat="48.71206" lon="1.99588">
        <ele>175</ele>
        <time>2021-05-20T07:36:28.000Z</time>
      </trkpt>
      <trkpt lat="48.71205" lon="1.99589">
        <ele>175</ele>
        <time>2021-05-20T07:36:29.000Z</time>
      </trkpt>
      <trkpt lat="48.71204" lon="1.9959">
        <ele>175</ele>
        <time>2021-05-20T07:36:30.000Z</time>
      </trkpt>
      <trkpt lat="48.71203" lon="1.99591">
        <ele>175</ele>
        <time>2021-05-20T07:36:31.000Z</time>
      </trkpt>
      <trkpt lat="48.71202" lon="1.99592">
        <ele>175</ele>
        <time>2021-05-20T07:36:32.000Z</time>
      </trkpt>
      <trkpt lat="48.71201" lon="1.99593">
        <ele>175</ele>
        <time>2021-05-20T07:36:33.000Z</time>
      </trkpt>
      <trkpt lat="48.712" lon="1.99595">
        <ele>175</ele>
        <time>2021-05-20T07:36:34.000Z</time>
      </trkpt>
      <trkpt lat="48.71199" lon="1.99597">
        <ele>175</ele>
        <time>2021-05-20T07:36:35.000Z</time>
      </trkpt>
      <trkpt lat="48.71198" lon="1.99599">
        <ele>175</ele>
        <time>2021-05-20T07:36:36.000Z</time>
      </trkpt>
      <trkpt lat="48.71197" lon="1.996">
        <ele>175</ele>
        <time>2021-05-20T07:36:37.000Z</time>
      </trkpt>
      <trkpt lat="48.71197" lon="1.99602">
        <ele>175</ele>
        <time>2021-05-20T07:36:38.000Z</time>
      </trkpt>
      <trkpt lat="48.71196" lon="1.99603">
        <ele>175</ele>
        <time>2021-05-20T07:36:39.000Z</time>
      </trkpt>
      <trkpt lat="48.71196" lon="1.99604">
        <ele>175</ele>
        <time>2021-05-20T07:36:40.000Z</time>
      </trkpt>
      <trkpt lat="48.71195" lon="1.99606">
        <ele>175</ele>
        <time>2021-05-20T07:36:41.000Z</time>
      </trkpt>
      <trkpt lat="48.71194" lon="1.99607">
        <ele>175</ele>
        <time>2021-05-20T07:36:42.000Z</time>
      </trkpt>
      <trkpt lat="48.71193" lon="1.99609">
        <ele>175</ele>
        <time>2021-05-20T07:36:43.000Z</time>
      </trkpt>
      <trkpt lat="48.71192" lon="1.99611">
        <ele>175</ele>
        <time>2021-05-20T07:36:44.000Z</time>
      </trkpt>
      <trkpt lat="48.71191" lon="1.99612">
        <ele>175</ele>
        <time>2021-05-20T07:36:45.000Z</time>
      </trkpt>
      <trkpt lat="48.7119" lon="1.99613">
        <ele>175</ele>
        <time>2021-05-20T07:36:46.000Z</time>
      </trkpt>
      <trkpt lat="48.71189" lon="1.99614">
        <ele>175</ele>
        <time>2021-05-20T07:36:47.000Z</time>
      </trkpt>
      <trkpt lat="48.71188" lon="1.99616">
        <ele>175</ele>
        <time>2021-05-20T07:36:48.000Z</time>
      </trkpt>
      <trkpt lat="48.71187" lon="1.99617">
        <ele>175</ele>
        <time>2021-05-20T07:36:49.000Z</time>
      </trkpt>
      <trkpt lat="48.71186" lon="1.99618">
        <ele>175</ele>
        <time>2021-05-20T07:36:50.000Z</time>
      </trkpt>
      <trkpt lat="48.71185" lon="1.99619">
        <ele>176</ele>
        <time>2021-05-20T07:36:51.000Z</time>
      </trkpt>
      <trkpt lat="48.71183" lon="1.99621">
        <ele>176</ele>
        <time>2021-05-20T07:36:52.000Z</time>
      </trkpt>
      <trkpt lat="48.71182" lon="1.99622">
        <ele>176</ele>
        <time>2021-05-20T07:36:53.000Z</time>
      </trkpt>
      <trkpt lat="48.71181" lon="1.99624">
        <ele>176</ele>
        <time>2021-05-20T07:36:54.000Z</time>
      </trkpt>
      <trkpt lat="48.7118" lon="1.99625">
        <ele>176</ele>
        <time>2021-05-20T07:36:55.000Z</time>
      </trkpt>
      <trkpt lat="48.71179" lon="1.99626">
        <ele>176</ele>
        <time>2021-05-20T07:36:56.000Z</time>
      </trkpt>
      <trkpt lat="48.71179" lon="1.99627">
        <ele>176</ele>
        <time>2021-05-20T07:36:57.000Z</time>
      </trkpt>
      <trkpt lat="48.71178" lon="1.99628">
        <ele>176</ele>
        <time>2021-05-20T07:36:58.000Z</time>
      </trkpt>
      <trkpt lat="48.71177" lon="1.9963">
        <ele>176</ele>
        <time>2021-05-20T07:36:59.000Z</time>
      </trkpt>
      <trkpt lat="48.71177" lon="1.99631">
        <ele>176</ele>
        <time>2021-05-20T07:37:00.000Z</time>
      </trkpt>
      <trkpt lat="48.71176" lon="1.99632">
        <ele>177</ele>
        <time>2021-05-20T07:37:01.000Z</time>
      </trkpt>
      <trkpt lat="48.71175" lon="1.99634">
        <ele>177</ele>
        <time>2021-05-20T07:37:02.000Z</time>
      </trkpt>
      <trkpt lat="48.71174" lon="1.99635">
        <ele>177</ele>
        <time>2021-05-20T07:37:03.000Z</time>
      </trkpt>
      <trkpt lat="48.71173" lon="1.99636">
        <ele>177</ele>
        <time>2021-05-20T07:37:04.000Z</time>
      </trkpt>
      <trkpt lat="48.71172" lon="1.99638">
        <ele>177</ele>
        <time>2021-05-20T07:37:05.000Z</time>
      </trkpt>
      <trkpt lat="48.71171" lon="1.9964">
        <ele>177</ele>
        <time>2021-05-20T07:37:06.000Z</time>
      </trkpt>
      <trkpt lat="48.7117" lon="1.99641">
        <ele>177</ele>
        <time>2021-05-20T07:37:07.000Z</time>
      </trkpt>
      <trkpt lat="48.7117" lon="1.99642">
        <ele>177</ele>
        <time>2021-05-20T07:37:08.000Z</time>
      </trkpt>
      <trkpt lat="48.71169" lon="1.99644">
        <ele>178</ele>
        <time>2021-05-20T07:37:09.000Z</time>
      </trkpt>
      <trkpt lat="48.71168" lon="1.99645">
        <ele>178</ele>
        <time>2021-05-20T07:37:10.000Z</time>
      </trkpt>
      <trkpt lat="48.71167" lon="1.99647">
        <ele>178</ele>
        <time>2021-05-20T07:37:11.000Z</time>
      </trkpt>
      <trkpt lat="48.71167" lon="1.99648">
        <ele>178</ele>
        <time>2021-05-20T07:37:12.000Z</time>
      </trkpt>
      <trkpt lat="48.71166" lon="1.9965">
        <ele>178</ele>
        <time>2021-05-20T07:37:13.000Z</time>
      </trkpt>
      <trkpt lat="48.71165" lon="1.99651">
        <ele>178</ele>
        <time>2021-05-20T07:37:14.000Z</time>
      </trkpt>
      <trkpt lat="48.71164" lon="1.99653">
        <ele>178</ele>
        <time>2021-05-20T07:37:15.000Z</time>
      </trkpt>
      <trkpt lat="48.71164" lon="1.99654">
        <ele>178</ele>
        <time>2021-05-20T07:37:16.000Z</time>
      </trkpt>
      <trkpt lat="48.71163" lon="1.99655">
        <ele>178</ele>
        <time>2021-05-20T07:37:17.000Z</time>
      </trkpt>
      <trkpt lat="48.71162" lon="1.99656">
        <ele>178</ele>
        <time>2021-05-20T07:37:18.000Z</time>
      </trkpt>
      <trkpt lat="48.71162" lon="1.99657">
        <ele>178</ele>
        <time>2021-05-20T07:37:19.000Z</time>
      </trkpt>
      <trkpt lat="48.71161" lon="1.99658">
        <ele>178</ele>
        <time>2021-05-20T07:37:20.000Z</time>
      </trkpt>
      <trkpt lat="48.71161" lon="1.99659">
        <ele>178</ele>
        <time>2021-05-20T07:37:21.000Z</time>
      </trkpt>
      <trkpt lat="48.7116" lon="1.9966">
        <ele>178</ele>
        <time>2021-05-20T07:37:22.000Z</time>
      </trkpt>
      <trkpt lat="48.71159" lon="1.99661">
        <ele>178</ele>
        <time>2021-05-20T07:37:23.000Z</time>
      </trkpt>
      <trkpt lat="48.71158" lon="1.99662">
        <ele>178</ele>
        <time>2021-05-20T07:37:24.000Z</time>
      </trkpt>
      <trkpt lat="48.71157" lon="1.99663">
        <ele>178</ele>
        <time>2021-05-20T07:37:25.000Z</time>
      </trkpt>
      <trkpt lat="48.71156" lon="1.99663">
        <ele>178</ele>
        <time>2021-05-20T07:37:26.000Z</time>
      </trkpt>
      <trkpt lat="48.71155" lon="1.99665">
        <ele>178</ele>
        <time>2021-05-20T07:37:27.000Z</time>
      </trkpt>
      <trkpt lat="48.71154" lon="1.99666">
        <ele>179</ele>
        <time>2021-05-20T07:37:28.000Z</time>
      </trkpt>
      <trkpt lat="48.71153" lon="1.99666">
        <ele>179</ele>
        <time>2021-05-20T07:37:29.000Z</time>
      </trkpt>
      <trkpt lat="48.71151" lon="1.99668">
        <ele>179</ele>
        <time>2021-05-20T07:37:30.000Z</time>
      </trkpt>
      <trkpt lat="48.7115" lon="1.99669">
        <ele>179</ele>
        <time>2021-05-20T07:37:31.000Z</time>
      </trkpt>
      <trkpt lat="48.71149" lon="1.9967">
        <ele>179</ele>
        <time>2021-05-20T07:37:32.000Z</time>
      </trkpt>
      <trkpt lat="48.71148" lon="1.99671">
        <ele>179</ele>
        <time>2021-05-20T07:37:33.000Z</time>
      </trkpt>
      <trkpt lat="48.71147" lon="1.99672">
        <ele>179</ele>
        <time>2021-05-20T07:37:34.000Z</time>
      </trkpt>
      <trkpt lat="48.71145" lon="1.99673">
        <ele>179</ele>
        <time>2021-05-20T07:37:35.000Z</time>
      </trkpt>
      <trkpt lat="48.71144" lon="1.99674">
        <ele>179</ele>
        <time>2021-05-20T07:37:36.000Z</time>
      </trkpt>
      <trkpt lat="48.71142" lon="1.99675">
        <ele>179</ele>
        <time>2021-05-20T07:37:37.000Z</time>
      </trkpt>
      <trkpt lat="48.71141" lon="1.99676">
        <ele>179</ele>
        <time>2021-05-20T07:37:38.000Z</time>
      </trkpt>
      <trkpt lat="48.7114" lon="1.99677">
        <ele>179</ele>
        <time>2021-05-20T07:37:39.000Z</time>
      </trkpt>
      <trkpt lat="48.71139" lon="1.99677">
        <ele>179</ele>
        <time>2021-05-20T07:37:40.000Z</time>
      </trkpt>
      <trkpt lat="48.71138" lon="1.99678">
        <ele>179</ele>
        <time>2021-05-20T07:37:41.000Z</time>
      </trkpt>
      <trkpt lat="48.71136" lon="1.99679">
        <ele>179</ele>
        <time>2021-05-20T07:37:42.000Z</time>
      </trkpt>
      <trkpt lat="48.71135" lon="1.9968">
        <ele>179</ele>
        <time>2021-05-20T07:37:43.000Z</time>
      </trkpt>
      <trkpt lat="48.71134" lon="1.99681">
        <ele>180</ele>
        <time>2021-05-20T07:37:44.000Z</time>
      </trkpt>
      <trkpt lat="48.71133" lon="1.99681">
        <ele>180</ele>
        <time>2021-05-20T07:37:45.000Z</time>
      </trkpt>
      <trkpt lat="48.71132" lon="1.99682">
        <ele>180</ele>
        <time>2021-05-20T07:37:46.000Z</time>
      </trkpt>
      <trkpt lat="48.7113" lon="1.99683">
        <ele>180</ele>
        <time>2021-05-20T07:37:47.000Z</time>
      </trkpt>
      <trkpt lat="48.71129" lon="1.99684">
        <ele>180</ele>
        <time>2021-05-20T07:37:48.000Z</time>
      </trkpt>
      <trkpt lat="48.71128" lon="1.99684">
        <ele>179</ele>
        <time>2021-05-20T07:37:49.000Z</time>
      </trkpt>
      <trkpt lat="48.71127" lon="1.99685">
        <ele>179</ele>
        <time>2021-05-20T07:37:50.000Z</time>
      </trkpt>
      <trkpt lat="48.71126" lon="1.99686">
        <ele>179</ele>
        <time>2021-05-20T07:37:51.000Z</time>
      </trkpt>
      <trkpt lat="48.71125" lon="1.99687">
        <ele>180</ele>
        <time>2021-05-20T07:37:52.000Z</time>
      </trkpt>
      <trkpt lat="48.71123" lon="1.99688">
        <ele>180</ele>
        <time>2021-05-20T07:37:53.000Z</time>
      </trkpt>
      <trkpt lat="48.71122" lon="1.9969">
        <ele>180</ele>
        <time>2021-05-20T07:37:54.000Z</time>
      </trkpt>
      <trkpt lat="48.7112" lon="1.99691">
        <ele>180</ele>
        <time>2021-05-20T07:37:55.000Z</time>
      </trkpt>
      <trkpt lat="48.71119" lon="1.99693">
        <ele>180</ele>
        <time>2021-05-20T07:37:56.000Z</time>
      </trkpt>
      <trkpt lat="48.71118" lon="1.99695">
        <ele>180</ele>
        <time>2021-05-20T07:37:57.000Z</time>
      </trkpt>
      <trkpt lat="48.71117" lon="1.99696">
        <ele>180</ele>
        <time>2021-05-20T07:37:58.000Z</time>
      </trkpt>
      <trkpt lat="48.71116" lon="1.99698">
        <ele>180</ele>
        <time>2021-05-20T07:37:59.000Z</time>
      </trkpt>
      <trkpt lat="48.71114" lon="1.997">
        <ele>180</ele>
        <time>2021-05-20T07:38:00.000Z</time>
      </trkpt>
      <trkpt lat="48.71113" lon="1.99701">
        <ele>180</ele>
        <time>2021-05-20T07:38:01.000Z</time>
      </trkpt>
      <trkpt lat="48.71112" lon="1.99703">
        <ele>180</ele>
        <time>2021-05-20T07:38:02.000Z</time>
      </trkpt>
      <trkpt lat="48.71111" lon="1.99706">
        <ele>180</ele>
        <time>2021-05-20T07:38:03.000Z</time>
      </trkpt>
      <trkpt lat="48.7111" lon="1.99708">
        <ele>180</ele>
        <time>2021-05-20T07:38:04.000Z</time>
      </trkpt>
      <trkpt lat="48.71108" lon="1.9971">
        <ele>180</ele>
        <time>2021-05-20T07:38:05.000Z</time>
      </trkpt>
      <trkpt lat="48.71107" lon="1.99712">
        <ele>180</ele>
        <time>2021-05-20T07:38:06.000Z</time>
      </trkpt>
      <trkpt lat="48.71106" lon="1.99714">
        <ele>180</ele>
        <time>2021-05-20T07:38:07.000Z</time>
      </trkpt>
      <trkpt lat="48.71105" lon="1.99715">
        <ele>181</ele>
        <time>2021-05-20T07:38:08.000Z</time>
      </trkpt>
      <trkpt lat="48.71104" lon="1.99717">
        <ele>181</ele>
        <time>2021-05-20T07:38:09.000Z</time>
      </trkpt>
      <trkpt lat="48.71104" lon="1.99719">
        <ele>181</ele>
        <time>2021-05-20T07:38:10.000Z</time>
      </trkpt>
      <trkpt lat="48.71103" lon="1.99721">
        <ele>181</ele>
        <time>2021-05-20T07:38:11.000Z</time>
      </trkpt>
      <trkpt lat="48.71102" lon="1.99722">
        <ele>181</ele>
        <time>2021-05-20T07:38:12.000Z</time>
      </trkpt>
      <trkpt lat="48.71101" lon="1.99724">
        <ele>181</ele>
        <time>2021-05-20T07:38:13.000Z</time>
      </trkpt>
      <trkpt lat="48.711" lon="1.99725">
        <ele>181</ele>
        <time>2021-05-20T07:38:14.000Z</time>
      </trkpt>
      <trkpt lat="48.71099" lon="1.99727">
        <ele>181</ele>
        <time>2021-05-20T07:38:15.000Z</time>
      </trkpt>
      <trkpt lat="48.71097" lon="1.99728">
        <ele>181</ele>
        <time>2021-05-20T07:38:16.000Z</time>
      </trkpt>
      <trkpt lat="48.71096" lon="1.9973">
        <ele>181</ele>
        <time>2021-05-20T07:38:17.000Z</time>
      </trkpt>
      <trkpt lat="48.71095" lon="1.99732">
        <ele>181</ele>
        <time>2021-05-20T07:38:18.000Z</time>
      </trkpt>
      <trkpt lat="48.71094" lon="1.99734">
        <ele>181</ele>
        <time>2021-05-20T07:38:19.000Z</time>
      </trkpt>
      <trkpt lat="48.71092" lon="1.99735">
        <ele>181</ele>
        <time>2021-05-20T07:38:20.000Z</time>
      </trkpt>
      <trkpt lat="48.71091" lon="1.99737">
        <ele>181</ele>
        <time>2021-05-20T07:38:21.000Z</time>
      </trkpt>
      <trkpt lat="48.7109" lon="1.99738">
        <ele>180</ele>
        <time>2021-05-20T07:38:22.000Z</time>
      </trkpt>
      <trkpt lat="48.71089" lon="1.9974">
        <ele>180</ele>
        <time>2021-05-20T07:38:23.000Z</time>
      </trkpt>
      <trkpt lat="48.71088" lon="1.99742">
        <ele>180</ele>
        <time>2021-05-20T07:38:24.000Z</time>
      </trkpt>
      <trkpt lat="48.71087" lon="1.99744">
        <ele>180</ele>
        <time>2021-05-20T07:38:25.000Z</time>
      </trkpt>
      <trkpt lat="48.71086" lon="1.99746">
        <ele>180</ele>
        <time>2021-05-20T07:38:26.000Z</time>
      </trkpt>
      <trkpt lat="48.71085" lon="1.99747">
        <ele>180</ele>
        <time>2021-05-20T07:38:27.000Z</time>
      </trkpt>
      <trkpt lat="48.71085" lon="1.99749">
        <ele>179</ele>
        <time>2021-05-20T07:38:28.000Z</time>
      </trkpt>
      <trkpt lat="48.71084" lon="1.99751">
        <ele>179</ele>
        <time>2021-05-20T07:38:29.000Z</time>
      </trkpt>
      <trkpt lat="48.71083" lon="1.99753">
        <ele>179</ele>
        <time>2021-05-20T07:38:30.000Z</time>
      </trkpt>
      <trkpt lat="48.71083" lon="1.99754">
        <ele>179</ele>
        <time>2021-05-20T07:38:31.000Z</time>
      </trkpt>
      <trkpt lat="48.71082" lon="1.99756">
        <ele>179</ele>
        <time>2021-05-20T07:38:32.000Z</time>
      </trkpt>
      <trkpt lat="48.71082" lon="1.99758">
        <ele>179</ele>
        <time>2021-05-20T07:38:33.000Z</time>
      </trkpt>
      <trkpt lat="48.71081" lon="1.99759">
        <ele>178</ele>
        <time>2021-05-20T07:38:34.000Z</time>
      </trkpt>
      <trkpt lat="48.71079" lon="1.99761">
        <ele>178</ele>
        <time>2021-05-20T07:38:35.000Z</time>
      </trkpt>
      <trkpt lat="48.71079" lon="1.99763">
        <ele>178</ele>
        <time>2021-05-20T07:38:36.000Z</time>
      </trkpt>
      <trkpt lat="48.71078" lon="1.99765">
        <ele>178</ele>
        <time>2021-05-20T07:38:37.000Z</time>
      </trkpt>
      <trkpt lat="48.71077" lon="1.99766">
        <ele>178</ele>
        <time>2021-05-20T07:38:38.000Z</time>
      </trkpt>
      <trkpt lat="48.71076" lon="1.99768">
        <ele>178</ele>
        <time>2021-05-20T07:38:39.000Z</time>
      </trkpt>
      <trkpt lat="48.71076" lon="1.99769">
        <ele>178</ele>
        <time>2021-05-20T07:38:40.000Z</time>
      </trkpt>
      <trkpt lat="48.71075" lon="1.99771">
        <ele>178</ele>
        <time>2021-05-20T07:38:41.000Z</time>
      </trkpt>
      <trkpt lat="48.71074" lon="1.99773">
        <ele>179</ele>
        <time>2021-05-20T07:38:42.000Z</time>
      </trkpt>
      <trkpt lat="48.71073" lon="1.99775">
        <ele>179</ele>
        <time>2021-05-20T07:38:43.000Z</time>
      </trkpt>
      <trkpt lat="48.71072" lon="1.99776">
        <ele>179</ele>
        <time>2021-05-20T07:38:44.000Z</time>
      </trkpt>
      <trkpt lat="48.71071" lon="1.99777">
        <ele>179</ele>
        <time>2021-05-20T07:38:45.000Z</time>
      </trkpt>
      <trkpt lat="48.71071" lon="1.99779">
        <ele>179</ele>
        <time>2021-05-20T07:38:46.000Z</time>
      </trkpt>
      <trkpt lat="48.7107" lon="1.9978">
        <ele>179</ele>
        <time>2021-05-20T07:38:47.000Z</time>
      </trkpt>
      <trkpt lat="48.71069" lon="1.99781">
        <ele>179</ele>
        <time>2021-05-20T07:38:48.000Z</time>
      </trkpt>
      <trkpt lat="48.71068" lon="1.99783">
        <ele>179</ele>
        <time>2021-05-20T07:38:49.000Z</time>
      </trkpt>
      <trkpt lat="48.71067" lon="1.99784">
        <ele>179</ele>
        <time>2021-05-20T07:38:50.000Z</time>
      </trkpt>
      <trkpt lat="48.71066" lon="1.99785">
        <ele>180</ele>
        <time>2021-05-20T07:38:51.000Z</time>
      </trkpt>
      <trkpt lat="48.71065" lon="1.99786">
        <ele>180</ele>
        <time>2021-05-20T07:38:52.000Z</time>
      </trkpt>
      <trkpt lat="48.71064" lon="1.99788">
        <ele>180</ele>
        <time>2021-05-20T07:38:53.000Z</time>
      </trkpt>
      <trkpt lat="48.71063" lon="1.99789">
        <ele>180</ele>
        <time>2021-05-20T07:38:54.000Z</time>
      </trkpt>
      <trkpt lat="48.71063" lon="1.9979">
        <ele>180</ele>
        <time>2021-05-20T07:38:55.000Z</time>
      </trkpt>
      <trkpt lat="48.71062" lon="1.99791">
        <ele>180</ele>
        <time>2021-05-20T07:38:56.000Z</time>
      </trkpt>
      <trkpt lat="48.71061" lon="1.99792">
        <ele>180</ele>
        <time>2021-05-20T07:38:57.000Z</time>
      </trkpt>
      <trkpt lat="48.7106" lon="1.99793">
        <ele>180</ele>
        <time>2021-05-20T07:38:58.000Z</time>
      </trkpt>
      <trkpt lat="48.7106" lon="1.99795">
        <ele>180</ele>
        <time>2021-05-20T07:38:59.000Z</time>
      </trkpt>
      <trkpt lat="48.71059" lon="1.99796">
        <ele>180</ele>
        <time>2021-05-20T07:39:00.000Z</time>
      </trkpt>
      <trkpt lat="48.71058" lon="1.99797">
        <ele>180</ele>
        <time>2021-05-20T07:39:01.000Z</time>
      </trkpt>
      <trkpt lat="48.71057" lon="1.99799">
        <ele>180</ele>
        <time>2021-05-20T07:39:02.000Z</time>
      </trkpt>
      <trkpt lat="48.71056" lon="1.998">
        <ele>180</ele>
        <time>2021-05-20T07:39:03.000Z</time>
      </trkpt>
      <trkpt lat="48.71055" lon="1.99802">
        <ele>180</ele>
        <time>2021-05-20T07:39:04.000Z</time>
      </trkpt>
      <trkpt lat="48.71054" lon="1.99803">
        <ele>180</ele>
        <time>2021-05-20T07:39:05.000Z</time>
      </trkpt>
      <trkpt lat="48.71053" lon="1.99804">
        <ele>180</ele>
        <time>2021-05-20T07:39:06.000Z</time>
      </trkpt>
      <trkpt lat="48.71052" lon="1.99806">
        <ele>180</ele>
        <time>2021-05-20T07:39:07.000Z</time>
      </trkpt>
      <trkpt lat="48.71051" lon="1.99807">
        <ele>180</ele>
        <time>2021-05-20T07:39:08.000Z</time>
      </trkpt>
      <trkpt lat="48.7105" lon="1.99809">
        <ele>180</ele>
        <time>2021-05-20T07:39:09.000Z</time>
      </trkpt>
      <trkpt lat="48.71049" lon="1.9981">
        <ele>180</ele>
        <time>2021-05-20T07:39:10.000Z</time>
      </trkpt>
      <trkpt lat="48.71048" lon="1.99812">
        <ele>180</ele>
        <time>2021-05-20T07:39:11.000Z</time>
      </trkpt>
      <trkpt lat="48.71047" lon="1.99813">
        <ele>179</ele>
        <time>2021-05-20T07:39:12.000Z</time>
      </trkpt>
      <trkpt lat="48.71046" lon="1.99814">
        <ele>179</ele>
        <time>2021-05-20T07:39:13.000Z</time>
      </trkpt>
      <trkpt lat="48.71045" lon="1.99816">
        <ele>179</ele>
        <time>2021-05-20T07:39:14.000Z</time>
      </trkpt>
      <trkpt lat="48.71045" lon="1.99817">
        <ele>179</ele>
        <time>2021-05-20T07:39:15.000Z</time>
      </trkpt>
      <trkpt lat="48.71044" lon="1.99818">
        <ele>179</ele>
        <time>2021-05-20T07:39:16.000Z</time>
      </trkpt>
      <trkpt lat="48.71043" lon="1.9982">
        <ele>179</ele>
        <time>2021-05-20T07:39:17.000Z</time>
      </trkpt>
      <trkpt lat="48.71042" lon="1.99821">
        <ele>179</ele>
        <time>2021-05-20T07:39:18.000Z</time>
      </trkpt>
      <trkpt lat="48.7104" lon="1.99823">
        <ele>179</ele>
        <time>2021-05-20T07:39:19.000Z</time>
      </trkpt>
      <trkpt lat="48.71039" lon="1.99825">
        <ele>179</ele>
        <time>2021-05-20T07:39:20.000Z</time>
      </trkpt>
      <trkpt lat="48.71038" lon="1.99826">
        <ele>179</ele>
        <time>2021-05-20T07:39:21.000Z</time>
      </trkpt>
      <trkpt lat="48.71037" lon="1.99827">
        <ele>179</ele>
        <time>2021-05-20T07:39:22.000Z</time>
      </trkpt>
      <trkpt lat="48.71036" lon="1.99829">
        <ele>180</ele>
        <time>2021-05-20T07:39:23.000Z</time>
      </trkpt>
      <trkpt lat="48.71035" lon="1.9983">
        <ele>180</ele>
        <time>2021-05-20T07:39:24.000Z</time>
      </trkpt>
      <trkpt lat="48.71034" lon="1.99832">
        <ele>180</ele>
        <time>2021-05-20T07:39:25.000Z</time>
      </trkpt>
      <trkpt lat="48.71033" lon="1.99833">
        <ele>180</ele>
        <time>2021-05-20T07:39:26.000Z</time>
      </trkpt>
      <trkpt lat="48.71032" lon="1.99835">
        <ele>180</ele>
        <time>2021-05-20T07:39:27.000Z</time>
      </trkpt>
      <trkpt lat="48.71032" lon="1.99836">
        <ele>180</ele>
        <time>2021-05-20T07:39:28.000Z</time>
      </trkpt>
      <trkpt lat="48.71031" lon="1.99838">
        <ele>180</ele>
        <time>2021-05-20T07:39:29.000Z</time>
      </trkpt>
      <trkpt lat="48.7103" lon="1.9984">
        <ele>180</ele>
        <time>2021-05-20T07:39:30.000Z</time>
      </trkpt>
      <trkpt lat="48.71029" lon="1.99841">
        <ele>180</ele>
        <time>2021-05-20T07:39:31.000Z</time>
      </trkpt>
      <trkpt lat="48.71028" lon="1.99842">
        <ele>180</ele>
        <time>2021-05-20T07:39:32.000Z</time>
      </trkpt>
      <trkpt lat="48.71027" lon="1.99844">
        <ele>180</ele>
        <time>2021-05-20T07:39:33.000Z</time>
      </trkpt>
      <trkpt lat="48.71026" lon="1.99846">
        <ele>180</ele>
        <time>2021-05-20T07:39:34.000Z</time>
      </trkpt>
      <trkpt lat="48.71025" lon="1.99847">
        <ele>180</ele>
        <time>2021-05-20T07:39:35.000Z</time>
      </trkpt>
      <trkpt lat="48.71024" lon="1.99849">
        <ele>181</ele>
        <time>2021-05-20T07:39:36.000Z</time>
      </trkpt>
      <trkpt lat="48.71024" lon="1.9985">
        <ele>181</ele>
        <time>2021-05-20T07:39:37.000Z</time>
      </trkpt>
      <trkpt lat="48.71023" lon="1.99851">
        <ele>181</ele>
        <time>2021-05-20T07:39:38.000Z</time>
      </trkpt>
      <trkpt lat="48.71022" lon="1.99853">
        <ele>181</ele>
        <time>2021-05-20T07:39:39.000Z</time>
      </trkpt>
      <trkpt lat="48.71021" lon="1.99854">
        <ele>181</ele>
        <time>2021-05-20T07:39:40.000Z</time>
      </trkpt>
      <trkpt lat="48.7102" lon="1.99856">
        <ele>181</ele>
        <time>2021-05-20T07:39:41.000Z</time>
      </trkpt>
      <trkpt lat="48.71019" lon="1.99858">
        <ele>181</ele>
        <time>2021-05-20T07:39:42.000Z</time>
      </trkpt>
      <trkpt lat="48.71018" lon="1.99859">
        <ele>181</ele>
        <time>2021-05-20T07:39:43.000Z</time>
      </trkpt>
      <trkpt lat="48.71018" lon="1.99861">
        <ele>181</ele>
        <time>2021-05-20T07:39:44.000Z</time>
      </trkpt>
      <trkpt lat="48.71017" lon="1.99863">
        <ele>181</ele>
        <time>2021-05-20T07:39:45.000Z</time>
      </trkpt>
      <trkpt lat="48.71016" lon="1.99865">
        <ele>181</ele>
        <time>2021-05-20T07:39:46.000Z</time>
      </trkpt>
      <trkpt lat="48.71016" lon="1.99866">
        <ele>181</ele>
        <time>2021-05-20T07:39:47.000Z</time>
      </trkpt>
      <trkpt lat="48.71015" lon="1.99868">
        <ele>181</ele>
        <time>2021-05-20T07:39:48.000Z</time>
      </trkpt>
      <trkpt lat="48.71014" lon="1.99869">
        <ele>181</ele>
        <time>2021-05-20T07:39:49.000Z</time>
      </trkpt>
      <trkpt lat="48.71013" lon="1.99871">
        <ele>181</ele>
        <time>2021-05-20T07:39:50.000Z</time>
      </trkpt>
      <trkpt lat="48.71012" lon="1.99872">
        <ele>181</ele>
        <time>2021-05-20T07:39:51.000Z</time>
      </trkpt>
      <trkpt lat="48.71011" lon="1.99874">
        <ele>181</ele>
        <time>2021-05-20T07:39:52.000Z</time>
      </trkpt>
      <trkpt lat="48.7101" lon="1.99875">
        <ele>181</ele>
        <time>2021-05-20T07:39:53.000Z</time>
      </trkpt>
      <trkpt lat="48.71009" lon="1.99877">
        <ele>181</ele>
        <time>2021-05-20T07:39:54.000Z</time>
      </trkpt>
      <trkpt lat="48.71008" lon="1.99879">
        <ele>181</ele>
        <time>2021-05-20T07:39:55.000Z</time>
      </trkpt>
      <trkpt lat="48.71007" lon="1.9988">
        <ele>181</ele>
        <time>2021-05-20T07:39:56.000Z</time>
      </trkpt>
      <trkpt lat="48.71006" lon="1.99882">
        <ele>181</ele>
        <time>2021-05-20T07:39:57.000Z</time>
      </trkpt>
      <trkpt lat="48.71006" lon="1.99883">
        <ele>181</ele>
        <time>2021-05-20T07:39:58.000Z</time>
      </trkpt>
      <trkpt lat="48.71005" lon="1.99884">
        <ele>181</ele>
        <time>2021-05-20T07:39:59.000Z</time>
      </trkpt>
      <trkpt lat="48.71005" lon="1.99886">
        <ele>181</ele>
        <time>2021-05-20T07:40:00.000Z</time>
      </trkpt>
      <trkpt lat="48.71004" lon="1.99887">
        <ele>181</ele>
        <time>2021-05-20T07:40:01.000Z</time>
      </trkpt>
      <trkpt lat="48.71003" lon="1.99889">
        <ele>181</ele>
        <time>2021-05-20T07:40:02.000Z</time>
      </trkpt>
      <trkpt lat="48.71003" lon="1.9989">
        <ele>181</ele>
        <time>2021-05-20T07:40:03.000Z</time>
      </trkpt>
      <trkpt lat="48.71002" lon="1.99891">
        <ele>181</ele>
        <time>2021-05-20T07:40:04.000Z</time>
      </trkpt>
      <trkpt lat="48.71001" lon="1.99893">
        <ele>181</ele>
        <time>2021-05-20T07:40:05.000Z</time>
      </trkpt>
      <trkpt lat="48.71" lon="1.99894">
        <ele>181</ele>
        <time>2021-05-20T07:40:06.000Z</time>
      </trkpt>
      <trkpt lat="48.70999" lon="1.99896">
        <ele>181</ele>
        <time>2021-05-20T07:40:07.000Z</time>
      </trkpt>
      <trkpt lat="48.70999" lon="1.99897">
        <ele>181</ele>
        <time>2021-05-20T07:40:08.000Z</time>
      </trkpt>
      <trkpt lat="48.70998" lon="1.99898">
        <ele>181</ele>
        <time>2021-05-20T07:40:09.000Z</time>
      </trkpt>
      <trkpt lat="48.70997" lon="1.99899">
        <ele>181</ele>
        <time>2021-05-20T07:40:10.000Z</time>
      </trkpt>
      <trkpt lat="48.70996" lon="1.99901">
        <ele>181</ele>
        <time>2021-05-20T07:40:11.000Z</time>
      </trkpt>
      <trkpt lat="48.70996" lon="1.99903">
        <ele>181</ele>
        <time>2021-05-20T07:40:12.000Z</time>
      </trkpt>
      <trkpt lat="48.70995" lon="1.99904">
        <ele>181</ele>
        <time>2021-05-20T07:40:13.000Z</time>
      </trkpt>
      <trkpt lat="48.70995" lon="1.99905">
        <ele>181</ele>
        <time>2021-05-20T07:40:14.000Z</time>
      </trkpt>
      <trkpt lat="48.70994" lon="1.99907">
        <ele>181</ele>
        <time>2021-05-20T07:40:15.000Z</time>
      </trkpt>
      <trkpt lat="48.70993" lon="1.99908">
        <ele>182</ele>
        <time>2021-05-20T07:40:16.000Z</time>
      </trkpt>
      <trkpt lat="48.70993" lon="1.99909">
        <ele>182</ele>
        <time>2021-05-20T07:40:17.000Z</time>
      </trkpt>
      <trkpt lat="48.70993" lon="1.9991">
        <ele>182</ele>
        <time>2021-05-20T07:40:18.000Z</time>
      </trkpt>
      <trkpt lat="48.70992" lon="1.99911">
        <ele>182</ele>
        <time>2021-05-20T07:40:19.000Z</time>
      </trkpt>
      <trkpt lat="48.70992" lon="1.99912">
        <ele>182</ele>
        <time>2021-05-20T07:40:20.000Z</time>
      </trkpt>
      <trkpt lat="48.70992" lon="1.99913">
        <ele>182</ele>
        <time>2021-05-20T07:40:21.000Z</time>
      </trkpt>
      <trkpt lat="48.70991" lon="1.99914">
        <ele>182</ele>
        <time>2021-05-20T07:40:22.000Z</time>
      </trkpt>
      <trkpt lat="48.70991" lon="1.99915">
        <ele>182</ele>
        <time>2021-05-20T07:40:23.000Z</time>
      </trkpt>
      <trkpt lat="48.7099" lon="1.99916">
        <ele>182</ele>
        <time>2021-05-20T07:40:24.000Z</time>
      </trkpt>
      <trkpt lat="48.70989" lon="1.99917">
        <ele>182</ele>
        <time>2021-05-20T07:40:25.000Z</time>
      </trkpt>
      <trkpt lat="48.70988" lon="1.99918">
        <ele>182</ele>
        <time>2021-05-20T07:40:26.000Z</time>
      </trkpt>
      <trkpt lat="48.70987" lon="1.9992">
        <ele>182</ele>
        <time>2021-05-20T07:40:27.000Z</time>
      </trkpt>
      <trkpt lat="48.70986" lon="1.99922">
        <ele>182</ele>
        <time>2021-05-20T07:40:28.000Z</time>
      </trkpt>
      <trkpt lat="48.70985" lon="1.99924">
        <ele>182</ele>
        <time>2021-05-20T07:40:29.000Z</time>
      </trkpt>
      <trkpt lat="48.70984" lon="1.99925">
        <ele>182</ele>
        <time>2021-05-20T07:40:30.000Z</time>
      </trkpt>
      <trkpt lat="48.70983" lon="1.99927">
        <ele>182</ele>
        <time>2021-05-20T07:40:31.000Z</time>
      </trkpt>
      <trkpt lat="48.70982" lon="1.99928">
        <ele>182</ele>
        <time>2021-05-20T07:40:32.000Z</time>
      </trkpt>
      <trkpt lat="48.70981" lon="1.9993">
        <ele>183</ele>
        <time>2021-05-20T07:40:33.000Z</time>
      </trkpt>
      <trkpt lat="48.7098" lon="1.99932">
        <ele>183</ele>
        <time>2021-05-20T07:40:34.000Z</time>
      </trkpt>
      <trkpt lat="48.70978" lon="1.99934">
        <ele>183</ele>
        <time>2021-05-20T07:40:35.000Z</time>
      </trkpt>
      <trkpt lat="48.70977" lon="1.99936">
        <ele>183</ele>
        <time>2021-05-20T07:40:36.000Z</time>
      </trkpt>
      <trkpt lat="48.70976" lon="1.99937">
        <ele>183</ele>
        <time>2021-05-20T07:40:37.000Z</time>
      </trkpt>
      <trkpt lat="48.70975" lon="1.99939">
        <ele>183</ele>
        <time>2021-05-20T07:40:38.000Z</time>
      </trkpt>
      <trkpt lat="48.70973" lon="1.99941">
        <ele>183</ele>
        <time>2021-05-20T07:40:39.000Z</time>
      </trkpt>
      <trkpt lat="48.70972" lon="1.99942">
        <ele>183</ele>
        <time>2021-05-20T07:40:40.000Z</time>
      </trkpt>
      <trkpt lat="48.70971" lon="1.99943">
        <ele>183</ele>
        <time>2021-05-20T07:40:41.000Z</time>
      </trkpt>
      <trkpt lat="48.70969" lon="1.99945">
        <ele>183</ele>
        <time>2021-05-20T07:40:42.000Z</time>
      </trkpt>
      <trkpt lat="48.70969" lon="1.99946">
        <ele>183</ele>
        <time>2021-05-20T07:40:43.000Z</time>
      </trkpt>
      <trkpt lat="48.70968" lon="1.99948">
        <ele>183</ele>
        <time>2021-05-20T07:40:44.000Z</time>
      </trkpt>
      <trkpt lat="48.70967" lon="1.99949">
        <ele>183</ele>
        <time>2021-05-20T07:40:45.000Z</time>
      </trkpt>
      <trkpt lat="48.70966" lon="1.9995">
        <ele>183</ele>
        <time>2021-05-20T07:40:46.000Z</time>
      </trkpt>
      <trkpt lat="48.70965" lon="1.99952">
        <ele>183</ele>
        <time>2021-05-20T07:40:47.000Z</time>
      </trkpt>
      <trkpt lat="48.70964" lon="1.99953">
        <ele>183</ele>
        <time>2021-05-20T07:40:48.000Z</time>
      </trkpt>
      <trkpt lat="48.70964" lon="1.99954">
        <ele>183</ele>
        <time>2021-05-20T07:40:49.000Z</time>
      </trkpt>
      <trkpt lat="48.70963" lon="1.99956">
        <ele>183</ele>
        <time>2021-05-20T07:40:50.000Z</time>
      </trkpt>
      <trkpt lat="48.70962" lon="1.99957">
        <ele>183</ele>
        <time>2021-05-20T07:40:51.000Z</time>
      </trkpt>
      <trkpt lat="48.70961" lon="1.99958">
        <ele>183</ele>
        <time>2021-05-20T07:40:52.000Z</time>
      </trkpt>
      <trkpt lat="48.7096" lon="1.9996">
        <ele>183</ele>
        <time>2021-05-20T07:40:53.000Z</time>
      </trkpt>
      <trkpt lat="48.70959" lon="1.99962">
        <ele>183</ele>
        <time>2021-05-20T07:40:54.000Z</time>
      </trkpt>
      <trkpt lat="48.70958" lon="1.99963">
        <ele>183</ele>
        <time>2021-05-20T07:40:55.000Z</time>
      </trkpt>
      <trkpt lat="48.70957" lon="1.99965">
        <ele>183</ele>
        <time>2021-05-20T07:40:56.000Z</time>
      </trkpt>
      <trkpt lat="48.70956" lon="1.99967">
        <ele>183</ele>
        <time>2021-05-20T07:40:57.000Z</time>
      </trkpt>
      <trkpt lat="48.70955" lon="1.99968">
        <ele>183</ele>
        <time>2021-05-20T07:40:58.000Z</time>
      </trkpt>
      <trkpt lat="48.70954" lon="1.99969">
        <ele>183</ele>
        <time>2021-05-20T07:40:59.000Z</time>
      </trkpt>
      <trkpt lat="48.70953" lon="1.99971">
        <ele>183</ele>
        <time>2021-05-20T07:41:00.000Z</time>
      </trkpt>
      <trkpt lat="48.70953" lon="1.99973">
        <ele>183</ele>
        <time>2021-05-20T07:41:01.000Z</time>
      </trkpt>
      <trkpt lat="48.70952" lon="1.99974">
        <ele>183</ele>
        <time>2021-05-20T07:41:02.000Z</time>
      </trkpt>
      <trkpt lat="48.70951" lon="1.99975">
        <ele>183</ele>
        <time>2021-05-20T07:41:03.000Z</time>
      </trkpt>
      <trkpt lat="48.70951" lon="1.99977">
        <ele>183</ele>
        <time>2021-05-20T07:41:04.000Z</time>
      </trkpt>
      <trkpt lat="48.7095" lon="1.99979">
        <ele>183</ele>
        <time>2021-05-20T07:41:05.000Z</time>
      </trkpt>
      <trkpt lat="48.70949" lon="1.9998">
        <ele>183</ele>
        <time>2021-05-20T07:41:06.000Z</time>
      </trkpt>
      <trkpt lat="48.70948" lon="1.99982">
        <ele>183</ele>
        <time>2021-05-20T07:41:07.000Z</time>
      </trkpt>
      <trkpt lat="48.70948" lon="1.99983">
        <ele>183</ele>
        <time>2021-05-20T07:41:08.000Z</time>
      </trkpt>
      <trkpt lat="48.70947" lon="1.99984">
        <ele>183</ele>
        <time>2021-05-20T07:41:09.000Z</time>
      </trkpt>
      <trkpt lat="48.70946" lon="1.99986">
        <ele>183</ele>
        <time>2021-05-20T07:41:10.000Z</time>
      </trkpt>
      <trkpt lat="48.70945" lon="1.99987">
        <ele>183</ele>
        <time>2021-05-20T07:41:11.000Z</time>
      </trkpt>
      <trkpt lat="48.70943" lon="1.99988">
        <ele>183</ele>
        <time>2021-05-20T07:41:12.000Z</time>
      </trkpt>
      <trkpt lat="48.70942" lon="1.9999">
        <ele>183</ele>
        <time>2021-05-20T07:41:13.000Z</time>
      </trkpt>
      <trkpt lat="48.70941" lon="1.99991">
        <ele>183</ele>
        <time>2021-05-20T07:41:14.000Z</time>
      </trkpt>
      <trkpt lat="48.7094" lon="1.99993">
        <ele>183</ele>
        <time>2021-05-20T07:41:15.000Z</time>
      </trkpt>
      <trkpt lat="48.70939" lon="1.99994">
        <ele>183</ele>
        <time>2021-05-20T07:41:16.000Z</time>
      </trkpt>
      <trkpt lat="48.70938" lon="1.99996">
        <ele>183</ele>
        <time>2021-05-20T07:41:17.000Z</time>
      </trkpt>
      <trkpt lat="48.70937" lon="1.99997">
        <ele>183</ele>
        <time>2021-05-20T07:41:18.000Z</time>
      </trkpt>
      <trkpt lat="48.70936" lon="1.99998">
        <ele>183</ele>
        <time>2021-05-20T07:41:19.000Z</time>
      </trkpt>
      <trkpt lat="48.70936" lon="2">
        <ele>183</ele>
        <time>2021-05-20T07:41:20.000Z</time>
      </trkpt>
      <trkpt lat="48.70935" lon="2.00002">
        <ele>183</ele>
        <time>2021-05-20T07:41:21.000Z</time>
      </trkpt>
      <trkpt lat="48.70934" lon="2.00004">
        <ele>183</ele>
        <time>2021-05-20T07:41:22.000Z</time>
      </trkpt>
      <trkpt lat="48.70933" lon="2.00006">
        <ele>183</ele>
        <time>2021-05-20T07:41:23.000Z</time>
      </trkpt>
      <trkpt lat="48.70932" lon="2.00007">
        <ele>183</ele>
        <time>2021-05-20T07:41:24.000Z</time>
      </trkpt>
      <trkpt lat="48.70931" lon="2.00009">
        <ele>183</ele>
        <time>2021-05-20T07:41:25.000Z</time>
      </trkpt>
      <trkpt lat="48.7093" lon="2.0001">
        <ele>183</ele>
        <time>2021-05-20T07:41:26.000Z</time>
      </trkpt>
      <trkpt lat="48.70929" lon="2.00012">
        <ele>183</ele>
        <time>2021-05-20T07:41:27.000Z</time>
      </trkpt>
      <trkpt lat="48.70928" lon="2.00013">
        <ele>183</ele>
        <time>2021-05-20T07:41:28.000Z</time>
      </trkpt>
      <trkpt lat="48.70927" lon="2.00015">
        <ele>183</ele>
        <time>2021-05-20T07:41:29.000Z</time>
      </trkpt>
      <trkpt lat="48.70926" lon="2.00017">
        <ele>183</ele>
        <time>2021-05-20T07:41:30.000Z</time>
      </trkpt>
      <trkpt lat="48.70925" lon="2.00018">
        <ele>183</ele>
        <time>2021-05-20T07:41:31.000Z</time>
      </trkpt>
      <trkpt lat="48.70924" lon="2.0002">
        <ele>183</ele>
        <time>2021-05-20T07:41:32.000Z</time>
      </trkpt>
      <trkpt lat="48.70923" lon="2.00022">
        <ele>183</ele>
        <time>2021-05-20T07:41:33.000Z</time>
      </trkpt>
      <trkpt lat="48.70922" lon="2.00024">
        <ele>183</ele>
        <time>2021-05-20T07:41:34.000Z</time>
      </trkpt>
      <trkpt lat="48.70921" lon="2.00026">
        <ele>183</ele>
        <time>2021-05-20T07:41:35.000Z</time>
      </trkpt>
      <trkpt lat="48.7092" lon="2.00028">
        <ele>183</ele>
        <time>2021-05-20T07:41:36.000Z</time>
      </trkpt>
      <trkpt lat="48.70918" lon="2.0003">
        <ele>183</ele>
        <time>2021-05-20T07:41:37.000Z</time>
      </trkpt>
      <trkpt lat="48.70917" lon="2.00032">
        <ele>183</ele>
        <time>2021-05-20T07:41:38.000Z</time>
      </trkpt>
      <trkpt lat="48.70916" lon="2.00033">
        <ele>183</ele>
        <time>2021-05-20T07:41:39.000Z</time>
      </trkpt>
      <trkpt lat="48.70914" lon="2.00035">
        <ele>183</ele>
        <time>2021-05-20T07:41:40.000Z</time>
      </trkpt>
      <trkpt lat="48.70913" lon="2.00036">
        <ele>184</ele>
        <time>2021-05-20T07:41:41.000Z</time>
      </trkpt>
      <trkpt lat="48.70912" lon="2.00037">
        <ele>184</ele>
        <time>2021-05-20T07:41:42.000Z</time>
      </trkpt>
      <trkpt lat="48.70911" lon="2.00039">
        <ele>184</ele>
        <time>2021-05-20T07:41:43.000Z</time>
      </trkpt>
      <trkpt lat="48.7091" lon="2.0004">
        <ele>184</ele>
        <time>2021-05-20T07:41:44.000Z</time>
      </trkpt>
      <trkpt lat="48.70909" lon="2.00042">
        <ele>184</ele>
        <time>2021-05-20T07:41:45.000Z</time>
      </trkpt>
      <trkpt lat="48.70908" lon="2.00044">
        <ele>184</ele>
        <time>2021-05-20T07:41:46.000Z</time>
      </trkpt>
      <trkpt lat="48.70906" lon="2.00046">
        <ele>184</ele>
        <time>2021-05-20T07:41:47.000Z</time>
      </trkpt>
      <trkpt lat="48.70905" lon="2.00047">
        <ele>184</ele>
        <time>2021-05-20T07:41:48.000Z</time>
      </trkpt>
      <trkpt lat="48.70904" lon="2.00049">
        <ele>184</ele>
        <time>2021-05-20T07:41:49.000Z</time>
      </trkpt>
      <trkpt lat="48.70903" lon="2.0005">
        <ele>184</ele>
        <time>2021-05-20T07:41:50.000Z</time>
      </trkpt>
      <trkpt lat="48.70902" lon="2.00052">
        <ele>184</ele>
        <time>2021-05-20T07:41:51.000Z</time>
      </trkpt>
      <trkpt lat="48.70901" lon="2.00054">
        <ele>184</ele>
        <time>2021-05-20T07:41:52.000Z</time>
      </trkpt>
      <trkpt lat="48.709" lon="2.00056">
        <ele>184</ele>
        <time>2021-05-20T07:41:53.000Z</time>
      </trkpt>
      <trkpt lat="48.70899" lon="2.00057">
        <ele>185</ele>
        <time>2021-05-20T07:41:54.000Z</time>
      </trkpt>
      <trkpt lat="48.70899" lon="2.00059">
        <ele>185</ele>
        <time>2021-05-20T07:41:55.000Z</time>
      </trkpt>
      <trkpt lat="48.70898" lon="2.0006">
        <ele>185</ele>
        <time>2021-05-20T07:41:56.000Z</time>
      </trkpt>
      <trkpt lat="48.70897" lon="2.00062">
        <ele>185</ele>
        <time>2021-05-20T07:41:57.000Z</time>
      </trkpt>
      <trkpt lat="48.70897" lon="2.00064">
        <ele>185</ele>
        <time>2021-05-20T07:41:58.000Z</time>
      </trkpt>
      <trkpt lat="48.70896" lon="2.00065">
        <ele>185</ele>
        <time>2021-05-20T07:41:59.000Z</time>
      </trkpt>
      <trkpt lat="48.70895" lon="2.00067">
        <ele>185</ele>
        <time>2021-05-20T07:42:00.000Z</time>
      </trkpt>
      <trkpt lat="48.70894" lon="2.00068">
        <ele>185</ele>
        <time>2021-05-20T07:42:01.000Z</time>
      </trkpt>
      <trkpt lat="48.70893" lon="2.00069">
        <ele>185</ele>
        <time>2021-05-20T07:42:02.000Z</time>
      </trkpt>
      <trkpt lat="48.70892" lon="2.00071">
        <ele>185</ele>
        <time>2021-05-20T07:42:03.000Z</time>
      </trkpt>
      <trkpt lat="48.70891" lon="2.00072">
        <ele>185</ele>
        <time>2021-05-20T07:42:04.000Z</time>
      </trkpt>
      <trkpt lat="48.70891" lon="2.00073">
        <ele>185</ele>
        <time>2021-05-20T07:42:05.000Z</time>
      </trkpt>
      <trkpt lat="48.7089" lon="2.00073">
        <ele>185</ele>
        <time>2021-05-20T07:42:06.000Z</time>
      </trkpt>
      <trkpt lat="48.70889" lon="2.00074">
        <ele>185</ele>
        <time>2021-05-20T07:42:07.000Z</time>
      </trkpt>
      <trkpt lat="48.70889" lon="2.00075">
        <ele>185</ele>
        <time>2021-05-20T07:42:08.000Z</time>
      </trkpt>
      <trkpt lat="48.70888" lon="2.00077">
        <ele>185</ele>
        <time>2021-05-20T07:42:09.000Z</time>
      </trkpt>
      <trkpt lat="48.70887" lon="2.00078">
        <ele>185</ele>
        <time>2021-05-20T07:42:10.000Z</time>
      </trkpt>
      <trkpt lat="48.70887" lon="2.0008">
        <ele>185</ele>
        <time>2021-05-20T07:42:11.000Z</time>
      </trkpt>
      <trkpt lat="48.70886" lon="2.00081">
        <ele>185</ele>
        <time>2021-05-20T07:42:12.000Z</time>
      </trkpt>
      <trkpt lat="48.70885" lon="2.00082">
        <ele>185</ele>
        <time>2021-05-20T07:42:13.000Z</time>
      </trkpt>
      <trkpt lat="48.70884" lon="2.00084">
        <ele>185</ele>
        <time>2021-05-20T07:42:14.000Z</time>
      </trkpt>
      <trkpt lat="48.70883" lon="2.00085">
        <ele>185</ele>
        <time>2021-05-20T07:42:15.000Z</time>
      </trkpt>
      <trkpt lat="48.70883" lon="2.00086">
        <ele>185</ele>
        <time>2021-05-20T07:42:16.000Z</time>
      </trkpt>
      <trkpt lat="48.70882" lon="2.00087">
        <ele>185</ele>
        <time>2021-05-20T07:42:17.000Z</time>
      </trkpt>
      <trkpt lat="48.70881" lon="2.00089">
        <ele>185</ele>
        <time>2021-05-20T07:42:18.000Z</time>
      </trkpt>
      <trkpt lat="48.7088" lon="2.0009">
        <ele>184</ele>
        <time>2021-05-20T07:42:19.000Z</time>
      </trkpt>
      <trkpt lat="48.70879" lon="2.00092">
        <ele>184</ele>
        <time>2021-05-20T07:42:20.000Z</time>
      </trkpt>
      <trkpt lat="48.70878" lon="2.00094">
        <ele>184</ele>
        <time>2021-05-20T07:42:21.000Z</time>
      </trkpt>
      <trkpt lat="48.70877" lon="2.00095">
        <ele>184</ele>
        <time>2021-05-20T07:42:22.000Z</time>
      </trkpt>
      <trkpt lat="48.70876" lon="2.00097">
        <ele>184</ele>
        <time>2021-05-20T07:42:23.000Z</time>
      </trkpt>
      <trkpt lat="48.70876" lon="2.00098">
        <ele>184</ele>
        <time>2021-05-20T07:42:24.000Z</time>
      </trkpt>
      <trkpt lat="48.70875" lon="2.00099">
        <ele>184</ele>
        <time>2021-05-20T07:42:25.000Z</time>
      </trkpt>
      <trkpt lat="48.70875" lon="2.00101">
        <ele>183</ele>
        <time>2021-05-20T07:42:26.000Z</time>
      </trkpt>
      <trkpt lat="48.70874" lon="2.00102">
        <ele>183</ele>
        <time>2021-05-20T07:42:27.000Z</time>
      </trkpt>
      <trkpt lat="48.70874" lon="2.00104">
        <ele>183</ele>
        <time>2021-05-20T07:42:28.000Z</time>
      </trkpt>
      <trkpt lat="48.70873" lon="2.00106">
        <ele>183</ele>
        <time>2021-05-20T07:42:29.000Z</time>
      </trkpt>
      <trkpt lat="48.70873" lon="2.00108">
        <ele>183</ele>
        <time>2021-05-20T07:42:30.000Z</time>
      </trkpt>
      <trkpt lat="48.70872" lon="2.0011">
        <ele>183</ele>
        <time>2021-05-20T07:42:31.000Z</time>
      </trkpt>
      <trkpt lat="48.70872" lon="2.00111">
        <ele>182</ele>
        <time>2021-05-20T07:42:32.000Z</time>
      </trkpt>
      <trkpt lat="48.70872" lon="2.00112">
        <ele>182</ele>
        <time>2021-05-20T07:42:33.000Z</time>
      </trkpt>
      <trkpt lat="48.70872" lon="2.00114">
        <ele>182</ele>
        <time>2021-05-20T07:42:34.000Z</time>
      </trkpt>
      <trkpt lat="48.70873" lon="2.00115">
        <ele>182</ele>
        <time>2021-05-20T07:42:35.000Z</time>
      </trkpt>
      <trkpt lat="48.70873" lon="2.00117">
        <ele>182</ele>
        <time>2021-05-20T07:42:36.000Z</time>
      </trkpt>
      <trkpt lat="48.70873" lon="2.00118">
        <ele>182</ele>
        <time>2021-05-20T07:42:37.000Z</time>
      </trkpt>
      <trkpt lat="48.70874" lon="2.00119">
        <ele>182</ele>
        <time>2021-05-20T07:42:38.000Z</time>
      </trkpt>
      <trkpt lat="48.70874" lon="2.00121">
        <ele>181</ele>
        <time>2021-05-20T07:42:39.000Z</time>
      </trkpt>
      <trkpt lat="48.70875" lon="2.00122">
        <ele>181</ele>
        <time>2021-05-20T07:42:40.000Z</time>
      </trkpt>
      <trkpt lat="48.70875" lon="2.00123">
        <ele>181</ele>
        <time>2021-05-20T07:42:41.000Z</time>
      </trkpt>
      <trkpt lat="48.70876" lon="2.00125">
        <ele>181</ele>
        <time>2021-05-20T07:42:42.000Z</time>
      </trkpt>
      <trkpt lat="48.70877" lon="2.00126">
        <ele>181</ele>
        <time>2021-05-20T07:42:43.000Z</time>
      </trkpt>
      <trkpt lat="48.70878" lon="2.00127">
        <ele>181</ele>
        <time>2021-05-20T07:42:44.000Z</time>
      </trkpt>
      <trkpt lat="48.70879" lon="2.00128">
        <ele>181</ele>
        <time>2021-05-20T07:42:45.000Z</time>
      </trkpt>
      <trkpt lat="48.7088" lon="2.00129">
        <ele>181</ele>
        <time>2021-05-20T07:42:46.000Z</time>
      </trkpt>
      <trkpt lat="48.7088" lon="2.0013">
        <ele>181</ele>
        <time>2021-05-20T07:42:47.000Z</time>
      </trkpt>
      <trkpt lat="48.70881" lon="2.0013">
        <ele>181</ele>
        <time>2021-05-20T07:42:48.000Z</time>
      </trkpt>
      <trkpt lat="48.70882" lon="2.00131">
        <ele>181</ele>
        <time>2021-05-20T07:42:49.000Z</time>
      </trkpt>
      <trkpt lat="48.70883" lon="2.00132">
        <ele>181</ele>
        <time>2021-05-20T07:42:50.000Z</time>
      </trkpt>
      <trkpt lat="48.70884" lon="2.00132">
        <ele>181</ele>
        <time>2021-05-20T07:42:51.000Z</time>
      </trkpt>
      <trkpt lat="48.70885" lon="2.00132">
        <ele>181</ele>
        <time>2021-05-20T07:42:52.000Z</time>
      </trkpt>
      <trkpt lat="48.70886" lon="2.00133">
        <ele>181</ele>
        <time>2021-05-20T07:42:53.000Z</time>
      </trkpt>
      <trkpt lat="48.70887" lon="2.00133">
        <ele>181</ele>
        <time>2021-05-20T07:42:54.000Z</time>
      </trkpt>
      <trkpt lat="48.70887" lon="2.00133">
        <ele>181</ele>
        <time>2021-05-20T07:42:55.000Z</time>
      </trkpt>
      <trkpt lat="48.70888" lon="2.00134">
        <ele>181</ele>
        <time>2021-05-20T07:42:56.000Z</time>
      </trkpt>
      <trkpt lat="48.70889" lon="2.00135">
        <ele>181</ele>
        <time>2021-05-20T07:42:57.000Z</time>
      </trkpt>
      <trkpt lat="48.7089" lon="2.00136">
        <ele>181</ele>
        <time>2021-05-20T07:42:58.000Z</time>
      </trkpt>
      <trkpt lat="48.70891" lon="2.00137">
        <ele>180</ele>
        <time>2021-05-20T07:42:59.000Z</time>
      </trkpt>
      <trkpt lat="48.70892" lon="2.00138">
        <ele>180</ele>
        <time>2021-05-20T07:43:00.000Z</time>
      </trkpt>
      <trkpt lat="48.70893" lon="2.00139">
        <ele>180</ele>
        <time>2021-05-20T07:43:01.000Z</time>
      </trkpt>
      <trkpt lat="48.70894" lon="2.00139">
        <ele>180</ele>
        <time>2021-05-20T07:43:02.000Z</time>
      </trkpt>
      <trkpt lat="48.70895" lon="2.0014">
        <ele>180</ele>
        <time>2021-05-20T07:43:03.000Z</time>
      </trkpt>
      <trkpt lat="48.70896" lon="2.00141">
        <ele>180</ele>
        <time>2021-05-20T07:43:04.000Z</time>
      </trkpt>
      <trkpt lat="48.70897" lon="2.00142">
        <ele>180</ele>
        <time>2021-05-20T07:43:05.000Z</time>
      </trkpt>
      <trkpt lat="48.70898" lon="2.00143">
        <ele>180</ele>
        <time>2021-05-20T07:43:06.000Z</time>
      </trkpt>
      <trkpt lat="48.70899" lon="2.00144">
        <ele>180</ele>
        <time>2021-05-20T07:43:07.000Z</time>
      </trkpt>
      <trkpt lat="48.709" lon="2.00144">
        <ele>180</ele>
        <time>2021-05-20T07:43:08.000Z</time>
      </trkpt>
      <trkpt lat="48.70901" lon="2.00145">
        <ele>180</ele>
        <time>2021-05-20T07:43:09.000Z</time>
      </trkpt>
      <trkpt lat="48.70902" lon="2.00145">
        <ele>180</ele>
        <time>2021-05-20T07:43:10.000Z</time>
      </trkpt>
      <trkpt lat="48.70903" lon="2.00146">
        <ele>180</ele>
        <time>2021-05-20T07:43:11.000Z</time>
      </trkpt>
      <trkpt lat="48.70905" lon="2.00146">
        <ele>180</ele>
        <time>2021-05-20T07:43:12.000Z</time>
      </trkpt>
      <trkpt lat="48.70906" lon="2.00147">
        <ele>180</ele>
        <time>2021-05-20T07:43:13.000Z</time>
      </trkpt>
      <trkpt lat="48.70907" lon="2.00147">
        <ele>180</ele>
        <time>2021-05-20T07:43:14.000Z</time>
      </trkpt>
      <trkpt lat="48.70908" lon="2.00147">
        <ele>181</ele>
        <time>2021-05-20T07:43:15.000Z</time>
      </trkpt>
      <trkpt lat="48.70909" lon="2.00148">
        <ele>181</ele>
        <time>2021-05-20T07:43:16.000Z</time>
      </trkpt>
      <trkpt lat="48.7091" lon="2.00148">
        <ele>181</ele>
        <time>2021-05-20T07:43:17.000Z</time>
      </trkpt>
      <trkpt lat="48.70911" lon="2.00148">
        <ele>181</ele>
        <time>2021-05-20T07:43:18.000Z</time>
      </trkpt>
      <trkpt lat="48.70913" lon="2.00149">
        <ele>181</ele>
        <time>2021-05-20T07:43:19.000Z</time>
      </trkpt>
      <trkpt lat="48.70914" lon="2.00149">
        <ele>181</ele>
        <time>2021-05-20T07:43:20.000Z</time>
      </trkpt>
      <trkpt lat="48.70915" lon="2.0015">
        <ele>181</ele>
        <time>2021-05-20T07:43:21.000Z</time>
      </trkpt>
      <trkpt lat="48.70916" lon="2.0015">
        <ele>181</ele>
        <time>2021-05-20T07:43:22.000Z</time>
      </trkpt>
      <trkpt lat="48.70917" lon="2.00151">
        <ele>181</ele>
        <time>2021-05-20T07:43:23.000Z</time>
      </trkpt>
      <trkpt lat="48.70918" lon="2.00152">
        <ele>181</ele>
        <time>2021-05-20T07:43:24.000Z</time>
      </trkpt>
      <trkpt lat="48.70919" lon="2.00152">
        <ele>182</ele>
        <time>2021-05-20T07:43:25.000Z</time>
      </trkpt>
      <trkpt lat="48.7092" lon="2.00152">
        <ele>182</ele>
        <time>2021-05-20T07:43:26.000Z</time>
      </trkpt>
      <trkpt lat="48.7092" lon="2.00152">
        <ele>182</ele>
        <time>2021-05-20T07:43:27.000Z</time>
      </trkpt>
      <trkpt lat="48.70921" lon="2.00153">
        <ele>182</ele>
        <time>2021-05-20T07:43:28.000Z</time>
      </trkpt>
      <trkpt lat="48.70922" lon="2.00153">
        <ele>182</ele>
        <time>2021-05-20T07:43:29.000Z</time>
      </trkpt>
      <trkpt lat="48.70923" lon="2.00153">
        <ele>182</ele>
        <time>2021-05-20T07:43:30.000Z</time>
      </trkpt>
      <trkpt lat="48.70924" lon="2.00154">
        <ele>182</ele>
        <time>2021-05-20T07:43:31.000Z</time>
      </trkpt>
      <trkpt lat="48.70925" lon="2.00154">
        <ele>182</ele>
        <time>2021-05-20T07:43:32.000Z</time>
      </trkpt>
      <trkpt lat="48.70926" lon="2.00154">
        <ele>183</ele>
        <time>2021-05-20T07:43:33.000Z</time>
      </trkpt>
      <trkpt lat="48.70927" lon="2.00155">
        <ele>183</ele>
        <time>2021-05-20T07:43:34.000Z</time>
      </trkpt>
      <trkpt lat="48.70928" lon="2.00155">
        <ele>183</ele>
        <time>2021-05-20T07:43:35.000Z</time>
      </trkpt>
      <trkpt lat="48.70929" lon="2.00155">
        <ele>183</ele>
        <time>2021-05-20T07:43:36.000Z</time>
      </trkpt>
      <trkpt lat="48.70931" lon="2.00156">
        <ele>183</ele>
        <time>2021-05-20T07:43:37.000Z</time>
      </trkpt>
      <trkpt lat="48.70932" lon="2.00156">
        <ele>183</ele>
        <time>2021-05-20T07:43:38.000Z</time>
      </trkpt>
      <trkpt lat="48.70933" lon="2.00156">
        <ele>183</ele>
        <time>2021-05-20T07:43:39.000Z</time>
      </trkpt>
      <trkpt lat="48.70934" lon="2.00156">
        <ele>183</ele>
        <time>2021-05-20T07:43:40.000Z</time>
      </trkpt>
      <trkpt lat="48.70935" lon="2.00157">
        <ele>182</ele>
        <time>2021-05-20T07:43:41.000Z</time>
      </trkpt>
      <trkpt lat="48.70936" lon="2.00158">
        <ele>182</ele>
        <time>2021-05-20T07:43:42.000Z</time>
      </trkpt>
      <trkpt lat="48.70937" lon="2.00159">
        <ele>182</ele>
        <time>2021-05-20T07:43:43.000Z</time>
      </trkpt>
      <trkpt lat="48.70938" lon="2.0016">
        <ele>182</ele>
        <time>2021-05-20T07:43:44.000Z</time>
      </trkpt>
      <trkpt lat="48.70939" lon="2.00161">
        <ele>182</ele>
        <time>2021-05-20T07:43:45.000Z</time>
      </trkpt>
      <trkpt lat="48.7094" lon="2.00162">
        <ele>182</ele>
        <time>2021-05-20T07:43:46.000Z</time>
      </trkpt>
      <trkpt lat="48.7094" lon="2.00164">
        <ele>183</ele>
        <time>2021-05-20T07:43:47.000Z</time>
      </trkpt>
      <trkpt lat="48.70941" lon="2.00165">
        <ele>183</ele>
        <time>2021-05-20T07:43:48.000Z</time>
      </trkpt>
      <trkpt lat="48.70941" lon="2.00167">
        <ele>183</ele>
        <time>2021-05-20T07:43:49.000Z</time>
      </trkpt>
      <trkpt lat="48.70942" lon="2.00168">
        <ele>183</ele>
        <time>2021-05-20T07:43:50.000Z</time>
      </trkpt>
      <trkpt lat="48.70942" lon="2.00169">
        <ele>183</ele>
        <time>2021-05-20T07:43:51.000Z</time>
      </trkpt>
      <trkpt lat="48.70942" lon="2.0017">
        <ele>183</ele>
        <time>2021-05-20T07:43:52.000Z</time>
      </trkpt>
      <trkpt lat="48.70943" lon="2.00171">
        <ele>183</ele>
        <time>2021-05-20T07:43:53.000Z</time>
      </trkpt>
      <trkpt lat="48.70943" lon="2.00172">
        <ele>183</ele>
        <time>2021-05-20T07:43:54.000Z</time>
      </trkpt>
      <trkpt lat="48.70943" lon="2.00173">
        <ele>183</ele>
        <time>2021-05-20T07:43:55.000Z</time>
      </trkpt>
      <trkpt lat="48.70943" lon="2.00174">
        <ele>183</ele>
        <time>2021-05-20T07:43:56.000Z</time>
      </trkpt>
      <trkpt lat="48.70943" lon="2.00175">
        <ele>183</ele>
        <time>2021-05-20T07:43:57.000Z</time>
      </trkpt>
      <trkpt lat="48.70943" lon="2.00176">
        <ele>183</ele>
        <time>2021-05-20T07:43:58.000Z</time>
      </trkpt>
      <trkpt lat="48.70943" lon="2.00177">
        <ele>183</ele>
        <time>2021-05-20T07:43:59.000Z</time>
      </trkpt>
      <trkpt lat="48.70942" lon="2.00178">
        <ele>183</ele>
        <time>2021-05-20T07:44:00.000Z</time>
      </trkpt>
      <trkpt lat="48.70942" lon="2.0018">
        <ele>183</ele>
        <time>2021-05-20T07:44:01.000Z</time>
      </trkpt>
      <trkpt lat="48.70941" lon="2.00182">
        <ele>183</ele>
        <time>2021-05-20T07:44:02.000Z</time>
      </trkpt>
      <trkpt lat="48.70941" lon="2.00184">
        <ele>183</ele>
        <time>2021-05-20T07:44:03.000Z</time>
      </trkpt>
      <trkpt lat="48.70941" lon="2.00186">
        <ele>183</ele>
        <time>2021-05-20T07:44:04.000Z</time>
      </trkpt>
      <trkpt lat="48.7094" lon="2.00188">
        <ele>183</ele>
        <time>2021-05-20T07:44:05.000Z</time>
      </trkpt>
      <trkpt lat="48.7094" lon="2.0019">
        <ele>183</ele>
        <time>2021-05-20T07:44:06.000Z</time>
      </trkpt>
      <trkpt lat="48.7094" lon="2.00191">
        <ele>183</ele>
        <time>2021-05-20T07:44:07.000Z</time>
      </trkpt>
      <trkpt lat="48.70939" lon="2.00192">
        <ele>183</ele>
        <time>2021-05-20T07:44:08.000Z</time>
      </trkpt>
      <trkpt lat="48.70939" lon="2.00194">
        <ele>183</ele>
        <time>2021-05-20T07:44:09.000Z</time>
      </trkpt>
      <trkpt lat="48.70939" lon="2.00195">
        <ele>183</ele>
        <time>2021-05-20T07:44:10.000Z</time>
      </trkpt>
      <trkpt lat="48.70939" lon="2.00197">
        <ele>183</ele>
        <time>2021-05-20T07:44:11.000Z</time>
      </trkpt>
      <trkpt lat="48.70939" lon="2.00199">
        <ele>183</ele>
        <time>2021-05-20T07:44:12.000Z</time>
      </trkpt>
      <trkpt lat="48.70939" lon="2.002">
        <ele>182</ele>
        <time>2021-05-20T07:44:13.000Z</time>
      </trkpt>
      <trkpt lat="48.70939" lon="2.00202">
        <ele>182</ele>
        <time>2021-05-20T07:44:14.000Z</time>
      </trkpt>
      <trkpt lat="48.70939" lon="2.00204">
        <ele>182</ele>
        <time>2021-05-20T07:44:15.000Z</time>
      </trkpt>
      <trkpt lat="48.70939" lon="2.00205">
        <ele>182</ele>
        <time>2021-05-20T07:44:16.000Z</time>
      </trkpt>
      <trkpt lat="48.70939" lon="2.00207">
        <ele>182</ele>
        <time>2021-05-20T07:44:17.000Z</time>
      </trkpt>
      <trkpt lat="48.70939" lon="2.00208">
        <ele>182</ele>
        <time>2021-05-20T07:44:18.000Z</time>
      </trkpt>
      <trkpt lat="48.70939" lon="2.00209">
        <ele>182</ele>
        <time>2021-05-20T07:44:19.000Z</time>
      </trkpt>
      <trkpt lat="48.7094" lon="2.00211">
        <ele>182</ele>
        <time>2021-05-20T07:44:20.000Z</time>
      </trkpt>
      <trkpt lat="48.70939" lon="2.00212">
        <ele>181</ele>
        <time>2021-05-20T07:44:21.000Z</time>
      </trkpt>
      <trkpt lat="48.70939" lon="2.00214">
        <ele>181</ele>
        <time>2021-05-20T07:44:22.000Z</time>
      </trkpt>
      <trkpt lat="48.70939" lon="2.00216">
        <ele>181</ele>
        <time>2021-05-20T07:44:23.000Z</time>
      </trkpt>
      <trkpt lat="48.70938" lon="2.00217">
        <ele>181</ele>
        <time>2021-05-20T07:44:24.000Z</time>
      </trkpt>
      <trkpt lat="48.70938" lon="2.00219">
        <ele>181</ele>
        <time>2021-05-20T07:44:25.000Z</time>
      </trkpt>
      <trkpt lat="48.70938" lon="2.00221">
        <ele>181</ele>
        <time>2021-05-20T07:44:26.000Z</time>
      </trkpt>
      <trkpt lat="48.70937" lon="2.00223">
        <ele>180</ele>
        <time>2021-05-20T07:44:27.000Z</time>
      </trkpt>
      <trkpt lat="48.70936" lon="2.00224">
        <ele>180</ele>
        <time>2021-05-20T07:44:28.000Z</time>
      </trkpt>
      <trkpt lat="48.70935" lon="2.00226">
        <ele>180</ele>
        <time>2021-05-20T07:44:29.000Z</time>
      </trkpt>
      <trkpt lat="48.70935" lon="2.00229">
        <ele>180</ele>
        <time>2021-05-20T07:44:30.000Z</time>
      </trkpt>
      <trkpt lat="48.70934" lon="2.0023">
        <ele>180</ele>
        <time>2021-05-20T07:44:31.000Z</time>
      </trkpt>
      <trkpt lat="48.70934" lon="2.00232">
        <ele>179</ele>
        <time>2021-05-20T07:44:32.000Z</time>
      </trkpt>
      <trkpt lat="48.70933" lon="2.00234">
        <ele>179</ele>
        <time>2021-05-20T07:44:33.000Z</time>
      </trkpt>
      <trkpt lat="48.70933" lon="2.00236">
        <ele>179</ele>
        <time>2021-05-20T07:44:34.000Z</time>
      </trkpt>
      <trkpt lat="48.70932" lon="2.00237">
        <ele>179</ele>
        <time>2021-05-20T07:44:35.000Z</time>
      </trkpt>
      <trkpt lat="48.70932" lon="2.00238">
        <ele>179</ele>
        <time>2021-05-20T07:44:36.000Z</time>
      </trkpt>
      <trkpt lat="48.70932" lon="2.00238">
        <ele>178</ele>
        <time>2021-05-20T07:44:37.000Z</time>
      </trkpt>
      <trkpt lat="48.70932" lon="2.00239">
        <ele>178</ele>
        <time>2021-05-20T07:44:38.000Z</time>
      </trkpt>
      <trkpt lat="48.70932" lon="2.00239">
        <ele>178</ele>
        <time>2021-05-20T07:44:39.000Z</time>
      </trkpt>
      <trkpt lat="48.70929" lon="2.00253">
        <ele>180</ele>
        <time>2021-05-20T07:44:40.000Z</time>
      </trkpt>
      <trkpt lat="48.70928" lon="2.00254">
        <ele>180</ele>
        <time>2021-05-20T07:44:41.000Z</time>
      </trkpt>
      <trkpt lat="48.70928" lon="2.00255">
        <ele>180</ele>
        <time>2021-05-20T07:44:42.000Z</time>
      </trkpt>
      <trkpt lat="48.70928" lon="2.00256">
        <ele>180</ele>
        <time>2021-05-20T07:44:43.000Z</time>
      </trkpt>
      <trkpt lat="48.70927" lon="2.00257">
        <ele>180</ele>
        <time>2021-05-20T07:44:44.000Z</time>
      </trkpt>
      <trkpt lat="48.70927" lon="2.00258">
        <ele>180</ele>
        <time>2021-05-20T07:44:45.000Z</time>
      </trkpt>
      <trkpt lat="48.70927" lon="2.00259">
        <ele>180</ele>
        <time>2021-05-20T07:44:46.000Z</time>
      </trkpt>
      <trkpt lat="48.70927" lon="2.0026">
        <ele>180</ele>
        <time>2021-05-20T07:44:47.000Z</time>
      </trkpt>
      <trkpt lat="48.70927" lon="2.00262">
        <ele>180</ele>
        <time>2021-05-20T07:44:48.000Z</time>
      </trkpt>
      <trkpt lat="48.70927" lon="2.00264">
        <ele>180</ele>
        <time>2021-05-20T07:44:49.000Z</time>
      </trkpt>
      <trkpt lat="48.70927" lon="2.00266">
        <ele>180</ele>
        <time>2021-05-20T07:44:50.000Z</time>
      </trkpt>
      <trkpt lat="48.70926" lon="2.00267">
        <ele>180</ele>
        <time>2021-05-20T07:44:51.000Z</time>
      </trkpt>
      <trkpt lat="48.70926" lon="2.00269">
        <ele>180</ele>
        <time>2021-05-20T07:44:52.000Z</time>
      </trkpt>
      <trkpt lat="48.70926" lon="2.0027">
        <ele>180</ele>
        <time>2021-05-20T07:44:53.000Z</time>
      </trkpt>
      <trkpt lat="48.70925" lon="2.00271">
        <ele>180</ele>
        <time>2021-05-20T07:44:54.000Z</time>
      </trkpt>
      <trkpt lat="48.70924" lon="2.00274">
        <ele>180</ele>
        <time>2021-05-20T07:44:55.000Z</time>
      </trkpt>
      <trkpt lat="48.70924" lon="2.00275">
        <ele>180</ele>
        <time>2021-05-20T07:44:56.000Z</time>
      </trkpt>
      <trkpt lat="48.70923" lon="2.00277">
        <ele>180</ele>
        <time>2021-05-20T07:44:57.000Z</time>
      </trkpt>
      <trkpt lat="48.70922" lon="2.00278">
        <ele>180</ele>
        <time>2021-05-20T07:44:58.000Z</time>
      </trkpt>
      <trkpt lat="48.70922" lon="2.00279">
        <ele>180</ele>
        <time>2021-05-20T07:44:59.000Z</time>
      </trkpt>
      <trkpt lat="48.70921" lon="2.0028">
        <ele>180</ele>
        <time>2021-05-20T07:45:00.000Z</time>
      </trkpt>
      <trkpt lat="48.70921" lon="2.00281">
        <ele>180</ele>
        <time>2021-05-20T07:45:01.000Z</time>
      </trkpt>
      <trkpt lat="48.7092" lon="2.00282">
        <ele>180</ele>
        <time>2021-05-20T07:45:02.000Z</time>
      </trkpt>
      <trkpt lat="48.7092" lon="2.00283">
        <ele>180</ele>
        <time>2021-05-20T07:45:03.000Z</time>
      </trkpt>
      <trkpt lat="48.70919" lon="2.00285">
        <ele>180</ele>
        <time>2021-05-20T07:45:04.000Z</time>
      </trkpt>
      <trkpt lat="48.70919" lon="2.00286">
        <ele>180</ele>
        <time>2021-05-20T07:45:05.000Z</time>
      </trkpt>
      <trkpt lat="48.70918" lon="2.00287">
        <ele>180</ele>
        <time>2021-05-20T07:45:06.000Z</time>
      </trkpt>
      <trkpt lat="48.70917" lon="2.00289">
        <ele>180</ele>
        <time>2021-05-20T07:45:07.000Z</time>
      </trkpt>
      <trkpt lat="48.70916" lon="2.0029">
        <ele>180</ele>
        <time>2021-05-20T07:45:08.000Z</time>
      </trkpt>
      <trkpt lat="48.70916" lon="2.00292">
        <ele>180</ele>
        <time>2021-05-20T07:45:09.000Z</time>
      </trkpt>
      <trkpt lat="48.70915" lon="2.00293">
        <ele>180</ele>
        <time>2021-05-20T07:45:10.000Z</time>
      </trkpt>
      <trkpt lat="48.70915" lon="2.00295">
        <ele>180</ele>
        <time>2021-05-20T07:45:11.000Z</time>
      </trkpt>
      <trkpt lat="48.70914" lon="2.00296">
        <ele>179</ele>
        <time>2021-05-20T07:45:12.000Z</time>
      </trkpt>
      <trkpt lat="48.70914" lon="2.00297">
        <ele>179</ele>
        <time>2021-05-20T07:45:13.000Z</time>
      </trkpt>
      <trkpt lat="48.70913" lon="2.00299">
        <ele>179</ele>
        <time>2021-05-20T07:45:14.000Z</time>
      </trkpt>
      <trkpt lat="48.70913" lon="2.003">
        <ele>179</ele>
        <time>2021-05-20T07:45:15.000Z</time>
      </trkpt>
      <trkpt lat="48.70913" lon="2.00302">
        <ele>179</ele>
        <time>2021-05-20T07:45:16.000Z</time>
      </trkpt>
      <trkpt lat="48.70912" lon="2.00303">
        <ele>179</ele>
        <time>2021-05-20T07:45:17.000Z</time>
      </trkpt>
      <trkpt lat="48.70912" lon="2.00305">
        <ele>179</ele>
        <time>2021-05-20T07:45:18.000Z</time>
      </trkpt>
      <trkpt lat="48.70911" lon="2.00307">
        <ele>179</ele>
        <time>2021-05-20T07:45:19.000Z</time>
      </trkpt>
      <trkpt lat="48.7091" lon="2.00309">
        <ele>179</ele>
        <time>2021-05-20T07:45:20.000Z</time>
      </trkpt>
      <trkpt lat="48.70909" lon="2.00311">
        <ele>179</ele>
        <time>2021-05-20T07:45:21.000Z</time>
      </trkpt>
      <trkpt lat="48.70909" lon="2.00313">
        <ele>179</ele>
        <time>2021-05-20T07:45:22.000Z</time>
      </trkpt>
      <trkpt lat="48.70908" lon="2.00315">
        <ele>179</ele>
        <time>2021-05-20T07:45:23.000Z</time>
      </trkpt>
      <trkpt lat="48.70907" lon="2.00316">
        <ele>179</ele>
        <time>2021-05-20T07:45:24.000Z</time>
      </trkpt>
      <trkpt lat="48.70906" lon="2.00318">
        <ele>179</ele>
        <time>2021-05-20T07:45:25.000Z</time>
      </trkpt>
      <trkpt lat="48.70905" lon="2.0032">
        <ele>178</ele>
        <time>2021-05-20T07:45:26.000Z</time>
      </trkpt>
      <trkpt lat="48.70904" lon="2.00323">
        <ele>178</ele>
        <time>2021-05-20T07:45:27.000Z</time>
      </trkpt>
      <trkpt lat="48.70903" lon="2.00325">
        <ele>178</ele>
        <time>2021-05-20T07:45:28.000Z</time>
      </trkpt>
      <trkpt lat="48.70902" lon="2.00326">
        <ele>178</ele>
        <time>2021-05-20T07:45:29.000Z</time>
      </trkpt>
      <trkpt lat="48.70902" lon="2.00328">
        <ele>178</ele>
        <time>2021-05-20T07:45:30.000Z</time>
      </trkpt>
      <trkpt lat="48.70901" lon="2.0033">
        <ele>178</ele>
        <time>2021-05-20T07:45:31.000Z</time>
      </trkpt>
      <trkpt lat="48.70901" lon="2.00331">
        <ele>177</ele>
        <time>2021-05-20T07:45:32.000Z</time>
      </trkpt>
      <trkpt lat="48.709" lon="2.00333">
        <ele>177</ele>
        <time>2021-05-20T07:45:33.000Z</time>
      </trkpt>
      <trkpt lat="48.709" lon="2.00334">
        <ele>177</ele>
        <time>2021-05-20T07:45:34.000Z</time>
      </trkpt>
      <trkpt lat="48.70899" lon="2.00336">
        <ele>177</ele>
        <time>2021-05-20T07:45:35.000Z</time>
      </trkpt>
      <trkpt lat="48.70898" lon="2.00338">
        <ele>177</ele>
        <time>2021-05-20T07:45:36.000Z</time>
      </trkpt>
      <trkpt lat="48.70897" lon="2.0034">
        <ele>177</ele>
        <time>2021-05-20T07:45:37.000Z</time>
      </trkpt>
      <trkpt lat="48.70897" lon="2.00341">
        <ele>177</ele>
        <time>2021-05-20T07:45:38.000Z</time>
      </trkpt>
      <trkpt lat="48.70896" lon="2.00343">
        <ele>177</ele>
        <time>2021-05-20T07:45:39.000Z</time>
      </trkpt>
      <trkpt lat="48.70896" lon="2.00345">
        <ele>177</ele>
        <time>2021-05-20T07:45:40.000Z</time>
      </trkpt>
      <trkpt lat="48.70895" lon="2.00346">
        <ele>176</ele>
        <time>2021-05-20T07:45:41.000Z</time>
      </trkpt>
      <trkpt lat="48.70895" lon="2.00348">
        <ele>176</ele>
        <time>2021-05-20T07:45:42.000Z</time>
      </trkpt>
      <trkpt lat="48.70894" lon="2.0035">
        <ele>176</ele>
        <time>2021-05-20T07:45:43.000Z</time>
      </trkpt>
      <trkpt lat="48.70894" lon="2.00352">
        <ele>176</ele>
        <time>2021-05-20T07:45:44.000Z</time>
      </trkpt>
      <trkpt lat="48.70893" lon="2.00354">
        <ele>176</ele>
        <time>2021-05-20T07:45:45.000Z</time>
      </trkpt>
      <trkpt lat="48.70893" lon="2.00356">
        <ele>176</ele>
        <time>2021-05-20T07:45:46.000Z</time>
      </trkpt>
      <trkpt lat="48.70893" lon="2.00358">
        <ele>175</ele>
        <time>2021-05-20T07:45:47.000Z</time>
      </trkpt>
      <trkpt lat="48.70892" lon="2.00359">
        <ele>175</ele>
        <time>2021-05-20T07:45:48.000Z</time>
      </trkpt>
      <trkpt lat="48.70891" lon="2.00361">
        <ele>175</ele>
        <time>2021-05-20T07:45:49.000Z</time>
      </trkpt>
      <trkpt lat="48.70891" lon="2.00363">
        <ele>175</ele>
        <time>2021-05-20T07:45:50.000Z</time>
      </trkpt>
      <trkpt lat="48.7089" lon="2.00364">
        <ele>175</ele>
        <time>2021-05-20T07:45:51.000Z</time>
      </trkpt>
      <trkpt lat="48.70889" lon="2.00366">
        <ele>175</ele>
        <time>2021-05-20T07:45:52.000Z</time>
      </trkpt>
      <trkpt lat="48.70888" lon="2.00367">
        <ele>175</ele>
        <time>2021-05-20T07:45:53.000Z</time>
      </trkpt>
      <trkpt lat="48.70887" lon="2.00369">
        <ele>175</ele>
        <time>2021-05-20T07:45:54.000Z</time>
      </trkpt>
      <trkpt lat="48.70886" lon="2.0037">
        <ele>175</ele>
        <time>2021-05-20T07:45:55.000Z</time>
      </trkpt>
      <trkpt lat="48.70886" lon="2.00371">
        <ele>175</ele>
        <time>2021-05-20T07:45:56.000Z</time>
      </trkpt>
      <trkpt lat="48.70885" lon="2.00371">
        <ele>175</ele>
        <time>2021-05-20T07:45:57.000Z</time>
      </trkpt>
      <trkpt lat="48.70884" lon="2.00371">
        <ele>175</ele>
        <time>2021-05-20T07:45:58.000Z</time>
      </trkpt>
      <trkpt lat="48.70883" lon="2.00371">
        <ele>175</ele>
        <time>2021-05-20T07:45:59.000Z</time>
      </trkpt>
      <trkpt lat="48.70882" lon="2.00371">
        <ele>175</ele>
        <time>2021-05-20T07:46:00.000Z</time>
      </trkpt>
      <trkpt lat="48.70881" lon="2.00371">
        <ele>175</ele>
        <time>2021-05-20T07:46:01.000Z</time>
      </trkpt>
      <trkpt lat="48.7088" lon="2.0037">
        <ele>175</ele>
        <time>2021-05-20T07:46:02.000Z</time>
      </trkpt>
      <trkpt lat="48.70879" lon="2.0037">
        <ele>175</ele>
        <time>2021-05-20T07:46:03.000Z</time>
      </trkpt>
      <trkpt lat="48.70878" lon="2.0037">
        <ele>175</ele>
        <time>2021-05-20T07:46:04.000Z</time>
      </trkpt>
      <trkpt lat="48.70877" lon="2.00369">
        <ele>175</ele>
        <time>2021-05-20T07:46:05.000Z</time>
      </trkpt>
      <trkpt lat="48.70876" lon="2.00368">
        <ele>175</ele>
        <time>2021-05-20T07:46:06.000Z</time>
      </trkpt>
      <trkpt lat="48.70875" lon="2.00367">
        <ele>175</ele>
        <time>2021-05-20T07:46:07.000Z</time>
      </trkpt>
      <trkpt lat="48.70874" lon="2.00367">
        <ele>175</ele>
        <time>2021-05-20T07:46:08.000Z</time>
      </trkpt>
      <trkpt lat="48.70873" lon="2.00366">
        <ele>175</ele>
        <time>2021-05-20T07:46:09.000Z</time>
      </trkpt>
      <trkpt lat="48.70872" lon="2.00365">
        <ele>174</ele>
        <time>2021-05-20T07:46:10.000Z</time>
      </trkpt>
      <trkpt lat="48.70872" lon="2.00365">
        <ele>174</ele>
        <time>2021-05-20T07:46:11.000Z</time>
      </trkpt>
      <trkpt lat="48.70871" lon="2.00364">
        <ele>174</ele>
        <time>2021-05-20T07:46:12.000Z</time>
      </trkpt>
      <trkpt lat="48.7087" lon="2.00363">
        <ele>174</ele>
        <time>2021-05-20T07:46:13.000Z</time>
      </trkpt>
      <trkpt lat="48.7087" lon="2.00363">
        <ele>174</ele>
        <time>2021-05-20T07:46:14.000Z</time>
      </trkpt>
      <trkpt lat="48.70869" lon="2.00362">
        <ele>174</ele>
        <time>2021-05-20T07:46:15.000Z</time>
      </trkpt>
      <trkpt lat="48.70868" lon="2.00362">
        <ele>174</ele>
        <time>2021-05-20T07:46:16.000Z</time>
      </trkpt>
      <trkpt lat="48.70867" lon="2.00362">
        <ele>174</ele>
        <time>2021-05-20T07:46:17.000Z</time>
      </trkpt>
      <trkpt lat="48.70867" lon="2.00362">
        <ele>174</ele>
        <time>2021-05-20T07:46:18.000Z</time>
      </trkpt>
      <trkpt lat="48.70866" lon="2.00363">
        <ele>173</ele>
        <time>2021-05-20T07:46:19.000Z</time>
      </trkpt>
      <trkpt lat="48.70865" lon="2.00363">
        <ele>173</ele>
        <time>2021-05-20T07:46:20.000Z</time>
      </trkpt>
      <trkpt lat="48.70865" lon="2.00365">
        <ele>173</ele>
        <time>2021-05-20T07:46:21.000Z</time>
      </trkpt>
      <trkpt lat="48.70864" lon="2.00366">
        <ele>173</ele>
        <time>2021-05-20T07:46:22.000Z</time>
      </trkpt>
      <trkpt lat="48.70863" lon="2.00367">
        <ele>173</ele>
        <time>2021-05-20T07:46:23.000Z</time>
      </trkpt>
      <trkpt lat="48.70863" lon="2.00369">
        <ele>173</ele>
        <time>2021-05-20T07:46:24.000Z</time>
      </trkpt>
      <trkpt lat="48.70862" lon="2.0037">
        <ele>173</ele>
        <time>2021-05-20T07:46:25.000Z</time>
      </trkpt>
      <trkpt lat="48.70862" lon="2.00372">
        <ele>173</ele>
        <time>2021-05-20T07:46:26.000Z</time>
      </trkpt>
      <trkpt lat="48.70861" lon="2.00373">
        <ele>173</ele>
        <time>2021-05-20T07:46:27.000Z</time>
      </trkpt>
      <trkpt lat="48.70859" lon="2.00375">
        <ele>173</ele>
        <time>2021-05-20T07:46:28.000Z</time>
      </trkpt>
      <trkpt lat="48.70858" lon="2.00377">
        <ele>173</ele>
        <time>2021-05-20T07:46:29.000Z</time>
      </trkpt>
      <trkpt lat="48.70856" lon="2.00378">
        <ele>173</ele>
        <time>2021-05-20T07:46:30.000Z</time>
      </trkpt>
      <trkpt lat="48.70855" lon="2.00379">
        <ele>173</ele>
        <time>2021-05-20T07:46:31.000Z</time>
      </trkpt>
      <trkpt lat="48.70854" lon="2.0038">
        <ele>173</ele>
        <time>2021-05-20T07:46:32.000Z</time>
      </trkpt>
      <trkpt lat="48.70853" lon="2.00382">
        <ele>173</ele>
        <time>2021-05-20T07:46:33.000Z</time>
      </trkpt>
      <trkpt lat="48.70852" lon="2.00383">
        <ele>173</ele>
        <time>2021-05-20T07:46:34.000Z</time>
      </trkpt>
      <trkpt lat="48.70851" lon="2.00384">
        <ele>173</ele>
        <time>2021-05-20T07:46:35.000Z</time>
      </trkpt>
      <trkpt lat="48.70851" lon="2.00385">
        <ele>173</ele>
        <time>2021-05-20T07:46:36.000Z</time>
      </trkpt>
      <trkpt lat="48.7085" lon="2.00387">
        <ele>173</ele>
        <time>2021-05-20T07:46:37.000Z</time>
      </trkpt>
      <trkpt lat="48.7085" lon="2.00388">
        <ele>173</ele>
        <time>2021-05-20T07:46:38.000Z</time>
      </trkpt>
      <trkpt lat="48.7085" lon="2.00389">
        <ele>173</ele>
        <time>2021-05-20T07:46:39.000Z</time>
      </trkpt>
      <trkpt lat="48.70849" lon="2.00391">
        <ele>173</ele>
        <time>2021-05-20T07:46:40.000Z</time>
      </trkpt>
      <trkpt lat="48.70849" lon="2.00392">
        <ele>173</ele>
        <time>2021-05-20T07:46:41.000Z</time>
      </trkpt>
      <trkpt lat="48.70848" lon="2.00394">
        <ele>173</ele>
        <time>2021-05-20T07:46:42.000Z</time>
      </trkpt>
      <trkpt lat="48.70848" lon="2.00395">
        <ele>173</ele>
        <time>2021-05-20T07:46:43.000Z</time>
      </trkpt>
      <trkpt lat="48.70847" lon="2.00397">
        <ele>173</ele>
        <time>2021-05-20T07:46:44.000Z</time>
      </trkpt>
      <trkpt lat="48.70847" lon="2.00398">
        <ele>173</ele>
        <time>2021-05-20T07:46:45.000Z</time>
      </trkpt>
      <trkpt lat="48.70846" lon="2.004">
        <ele>173</ele>
        <time>2021-05-20T07:46:46.000Z</time>
      </trkpt>
      <trkpt lat="48.70846" lon="2.00402">
        <ele>173</ele>
        <time>2021-05-20T07:46:47.000Z</time>
      </trkpt>
      <trkpt lat="48.70845" lon="2.00403">
        <ele>173</ele>
        <time>2021-05-20T07:46:48.000Z</time>
      </trkpt>
      <trkpt lat="48.70845" lon="2.00404">
        <ele>173</ele>
        <time>2021-05-20T07:46:49.000Z</time>
      </trkpt>
      <trkpt lat="48.70845" lon="2.00406">
        <ele>173</ele>
        <time>2021-05-20T07:46:50.000Z</time>
      </trkpt>
      <trkpt lat="48.70844" lon="2.00407">
        <ele>173</ele>
        <time>2021-05-20T07:46:51.000Z</time>
      </trkpt>
      <trkpt lat="48.70844" lon="2.00409">
        <ele>173</ele>
        <time>2021-05-20T07:46:52.000Z</time>
      </trkpt>
      <trkpt lat="48.70843" lon="2.00411">
        <ele>173</ele>
        <time>2021-05-20T07:46:53.000Z</time>
      </trkpt>
      <trkpt lat="48.70843" lon="2.00413">
        <ele>173</ele>
        <time>2021-05-20T07:46:54.000Z</time>
      </trkpt>
      <trkpt lat="48.70843" lon="2.00415">
        <ele>173</ele>
        <time>2021-05-20T07:46:55.000Z</time>
      </trkpt>
      <trkpt lat="48.70843" lon="2.00416">
        <ele>172</ele>
        <time>2021-05-20T07:46:56.000Z</time>
      </trkpt>
      <trkpt lat="48.70842" lon="2.00418">
        <ele>172</ele>
        <time>2021-05-20T07:46:57.000Z</time>
      </trkpt>
      <trkpt lat="48.70842" lon="2.0042">
        <ele>172</ele>
        <time>2021-05-20T07:46:58.000Z</time>
      </trkpt>
      <trkpt lat="48.70841" lon="2.00422">
        <ele>172</ele>
        <time>2021-05-20T07:46:59.000Z</time>
      </trkpt>
      <trkpt lat="48.70841" lon="2.00424">
        <ele>172</ele>
        <time>2021-05-20T07:47:00.000Z</time>
      </trkpt>
      <trkpt lat="48.70841" lon="2.00426">
        <ele>172</ele>
        <time>2021-05-20T07:47:01.000Z</time>
      </trkpt>
      <trkpt lat="48.7084" lon="2.00427">
        <ele>172</ele>
        <time>2021-05-20T07:47:02.000Z</time>
      </trkpt>
      <trkpt lat="48.7084" lon="2.00429">
        <ele>171</ele>
        <time>2021-05-20T07:47:03.000Z</time>
      </trkpt>
      <trkpt lat="48.7084" lon="2.00431">
        <ele>171</ele>
        <time>2021-05-20T07:47:04.000Z</time>
      </trkpt>
      <trkpt lat="48.70839" lon="2.00432">
        <ele>171</ele>
        <time>2021-05-20T07:47:05.000Z</time>
      </trkpt>
      <trkpt lat="48.70839" lon="2.00434">
        <ele>171</ele>
        <time>2021-05-20T07:47:06.000Z</time>
      </trkpt>
      <trkpt lat="48.70839" lon="2.00435">
        <ele>171</ele>
        <time>2021-05-20T07:47:07.000Z</time>
      </trkpt>
      <trkpt lat="48.70838" lon="2.00437">
        <ele>171</ele>
        <time>2021-05-20T07:47:08.000Z</time>
      </trkpt>
      <trkpt lat="48.70837" lon="2.00438">
        <ele>171</ele>
        <time>2021-05-20T07:47:09.000Z</time>
      </trkpt>
      <trkpt lat="48.70837" lon="2.0044">
        <ele>171</ele>
        <time>2021-05-20T07:47:10.000Z</time>
      </trkpt>
      <trkpt lat="48.70836" lon="2.00442">
        <ele>171</ele>
        <time>2021-05-20T07:47:11.000Z</time>
      </trkpt>
      <trkpt lat="48.70836" lon="2.00443">
        <ele>171</ele>
        <time>2021-05-20T07:47:12.000Z</time>
      </trkpt>
      <trkpt lat="48.70835" lon="2.00445">
        <ele>170</ele>
        <time>2021-05-20T07:47:13.000Z</time>
      </trkpt>
      <trkpt lat="48.70834" lon="2.00446">
        <ele>170</ele>
        <time>2021-05-20T07:47:14.000Z</time>
      </trkpt>
      <trkpt lat="48.70833" lon="2.00448">
        <ele>170</ele>
        <time>2021-05-20T07:47:15.000Z</time>
      </trkpt>
      <trkpt lat="48.70833" lon="2.00449">
        <ele>170</ele>
        <time>2021-05-20T07:47:16.000Z</time>
      </trkpt>
      <trkpt lat="48.70832" lon="2.00451">
        <ele>170</ele>
        <time>2021-05-20T07:47:17.000Z</time>
      </trkpt>
      <trkpt lat="48.70832" lon="2.00452">
        <ele>170</ele>
        <time>2021-05-20T07:47:18.000Z</time>
      </trkpt>
      <trkpt lat="48.70831" lon="2.00453">
        <ele>170</ele>
        <time>2021-05-20T07:47:19.000Z</time>
      </trkpt>
      <trkpt lat="48.7083" lon="2.00454">
        <ele>170</ele>
        <time>2021-05-20T07:47:20.000Z</time>
      </trkpt>
      <trkpt lat="48.70829" lon="2.00455">
        <ele>170</ele>
        <time>2021-05-20T07:47:21.000Z</time>
      </trkpt>
      <trkpt lat="48.70829" lon="2.00457">
        <ele>170</ele>
        <time>2021-05-20T07:47:22.000Z</time>
      </trkpt>
      <trkpt lat="48.70828" lon="2.00457">
        <ele>170</ele>
        <time>2021-05-20T07:47:23.000Z</time>
      </trkpt>
      <trkpt lat="48.70827" lon="2.00459">
        <ele>170</ele>
        <time>2021-05-20T07:47:24.000Z</time>
      </trkpt>
      <trkpt lat="48.70827" lon="2.0046">
        <ele>170</ele>
        <time>2021-05-20T07:47:25.000Z</time>
      </trkpt>
      <trkpt lat="48.70826" lon="2.00461">
        <ele>171</ele>
        <time>2021-05-20T07:47:26.000Z</time>
      </trkpt>
      <trkpt lat="48.70826" lon="2.00462">
        <ele>171</ele>
        <time>2021-05-20T07:47:27.000Z</time>
      </trkpt>
      <trkpt lat="48.70825" lon="2.00463">
        <ele>171</ele>
        <time>2021-05-20T07:47:28.000Z</time>
      </trkpt>
      <trkpt lat="48.70825" lon="2.00465">
        <ele>171</ele>
        <time>2021-05-20T07:47:29.000Z</time>
      </trkpt>
      <trkpt lat="48.70824" lon="2.00467">
        <ele>171</ele>
        <time>2021-05-20T07:47:30.000Z</time>
      </trkpt>
      <trkpt lat="48.70823" lon="2.00469">
        <ele>171</ele>
        <time>2021-05-20T07:47:31.000Z</time>
      </trkpt>
      <trkpt lat="48.70823" lon="2.0047">
        <ele>171</ele>
        <time>2021-05-20T07:47:32.000Z</time>
      </trkpt>
      <trkpt lat="48.70822" lon="2.00472">
        <ele>171</ele>
        <time>2021-05-20T07:47:33.000Z</time>
      </trkpt>
      <trkpt lat="48.70821" lon="2.00473">
        <ele>171</ele>
        <time>2021-05-20T07:47:34.000Z</time>
      </trkpt>
      <trkpt lat="48.70821" lon="2.00475">
        <ele>171</ele>
        <time>2021-05-20T07:47:35.000Z</time>
      </trkpt>
      <trkpt lat="48.7082" lon="2.00477">
        <ele>171</ele>
        <time>2021-05-20T07:47:36.000Z</time>
      </trkpt>
      <trkpt lat="48.70819" lon="2.00478">
        <ele>171</ele>
        <time>2021-05-20T07:47:37.000Z</time>
      </trkpt>
      <trkpt lat="48.70818" lon="2.0048">
        <ele>172</ele>
        <time>2021-05-20T07:47:38.000Z</time>
      </trkpt>
      <trkpt lat="48.70817" lon="2.00481">
        <ele>172</ele>
        <time>2021-05-20T07:47:39.000Z</time>
      </trkpt>
      <trkpt lat="48.70816" lon="2.00483">
        <ele>172</ele>
        <time>2021-05-20T07:47:40.000Z</time>
      </trkpt>
      <trkpt lat="48.70815" lon="2.00485">
        <ele>171</ele>
        <time>2021-05-20T07:47:41.000Z</time>
      </trkpt>
      <trkpt lat="48.70814" lon="2.00486">
        <ele>171</ele>
        <time>2021-05-20T07:47:42.000Z</time>
      </trkpt>
      <trkpt lat="48.70813" lon="2.00488">
        <ele>171</ele>
        <time>2021-05-20T07:47:43.000Z</time>
      </trkpt>
      <trkpt lat="48.70811" lon="2.0049">
        <ele>171</ele>
        <time>2021-05-20T07:47:44.000Z</time>
      </trkpt>
      <trkpt lat="48.7081" lon="2.00492">
        <ele>171</ele>
        <time>2021-05-20T07:47:45.000Z</time>
      </trkpt>
      <trkpt lat="48.70809" lon="2.00493">
        <ele>171</ele>
        <time>2021-05-20T07:47:46.000Z</time>
      </trkpt>
      <trkpt lat="48.70808" lon="2.00495">
        <ele>172</ele>
        <time>2021-05-20T07:47:47.000Z</time>
      </trkpt>
      <trkpt lat="48.70807" lon="2.00496">
        <ele>172</ele>
        <time>2021-05-20T07:47:48.000Z</time>
      </trkpt>
      <trkpt lat="48.70806" lon="2.00498">
        <ele>172</ele>
        <time>2021-05-20T07:47:49.000Z</time>
      </trkpt>
      <trkpt lat="48.70805" lon="2.00499">
        <ele>172</ele>
        <time>2021-05-20T07:47:50.000Z</time>
      </trkpt>
      <trkpt lat="48.70804" lon="2.005">
        <ele>172</ele>
        <time>2021-05-20T07:47:51.000Z</time>
      </trkpt>
      <trkpt lat="48.70803" lon="2.00501">
        <ele>172</ele>
        <time>2021-05-20T07:47:52.000Z</time>
      </trkpt>
      <trkpt lat="48.70802" lon="2.00502">
        <ele>172</ele>
        <time>2021-05-20T07:47:53.000Z</time>
      </trkpt>
      <trkpt lat="48.708" lon="2.00503">
        <ele>172</ele>
        <time>2021-05-20T07:47:54.000Z</time>
      </trkpt>
      <trkpt lat="48.70799" lon="2.00504">
        <ele>172</ele>
        <time>2021-05-20T07:47:55.000Z</time>
      </trkpt>
      <trkpt lat="48.70798" lon="2.00505">
        <ele>172</ele>
        <time>2021-05-20T07:47:56.000Z</time>
      </trkpt>
      <trkpt lat="48.70797" lon="2.00505">
        <ele>172</ele>
        <time>2021-05-20T07:47:57.000Z</time>
      </trkpt>
      <trkpt lat="48.70795" lon="2.00505">
        <ele>172</ele>
        <time>2021-05-20T07:47:58.000Z</time>
      </trkpt>
      <trkpt lat="48.70794" lon="2.00506">
        <ele>172</ele>
        <time>2021-05-20T07:47:59.000Z</time>
      </trkpt>
      <trkpt lat="48.70793" lon="2.00507">
        <ele>172</ele>
        <time>2021-05-20T07:48:00.000Z</time>
      </trkpt>
      <trkpt lat="48.70792" lon="2.00507">
        <ele>172</ele>
        <time>2021-05-20T07:48:01.000Z</time>
      </trkpt>
      <trkpt lat="48.70791" lon="2.00508">
        <ele>173</ele>
        <time>2021-05-20T07:48:02.000Z</time>
      </trkpt>
      <trkpt lat="48.70791" lon="2.00508">
        <ele>173</ele>
        <time>2021-05-20T07:48:03.000Z</time>
      </trkpt>
      <trkpt lat="48.7079" lon="2.00509">
        <ele>173</ele>
        <time>2021-05-20T07:48:04.000Z</time>
      </trkpt>
      <trkpt lat="48.70789" lon="2.0051">
        <ele>173</ele>
        <time>2021-05-20T07:48:05.000Z</time>
      </trkpt>
      <trkpt lat="48.70788" lon="2.00511">
        <ele>173</ele>
        <time>2021-05-20T07:48:06.000Z</time>
      </trkpt>
      <trkpt lat="48.70787" lon="2.00512">
        <ele>173</ele>
        <time>2021-05-20T07:48:07.000Z</time>
      </trkpt>
      <trkpt lat="48.70787" lon="2.00513">
        <ele>172</ele>
        <time>2021-05-20T07:48:08.000Z</time>
      </trkpt>
      <trkpt lat="48.70786" lon="2.00515">
        <ele>172</ele>
        <time>2021-05-20T07:48:09.000Z</time>
      </trkpt>
      <trkpt lat="48.70786" lon="2.00516">
        <ele>172</ele>
        <time>2021-05-20T07:48:10.000Z</time>
      </trkpt>
      <trkpt lat="48.70785" lon="2.00518">
        <ele>172</ele>
        <time>2021-05-20T07:48:11.000Z</time>
      </trkpt>
      <trkpt lat="48.70784" lon="2.00519">
        <ele>172</ele>
        <time>2021-05-20T07:48:12.000Z</time>
      </trkpt>
      <trkpt lat="48.70783" lon="2.0052">
        <ele>172</ele>
        <time>2021-05-20T07:48:13.000Z</time>
      </trkpt>
      <trkpt lat="48.70782" lon="2.00522">
        <ele>173</ele>
        <time>2021-05-20T07:48:14.000Z</time>
      </trkpt>
      <trkpt lat="48.70781" lon="2.00523">
        <ele>173</ele>
        <time>2021-05-20T07:48:15.000Z</time>
      </trkpt>
      <trkpt lat="48.7078" lon="2.00524">
        <ele>173</ele>
        <time>2021-05-20T07:48:16.000Z</time>
      </trkpt>
      <trkpt lat="48.7078" lon="2.00525">
        <ele>173</ele>
        <time>2021-05-20T07:48:17.000Z</time>
      </trkpt>
      <trkpt lat="48.70779" lon="2.00527">
        <ele>173</ele>
        <time>2021-05-20T07:48:18.000Z</time>
      </trkpt>
      <trkpt lat="48.70779" lon="2.00528">
        <ele>173</ele>
        <time>2021-05-20T07:48:19.000Z</time>
      </trkpt>
      <trkpt lat="48.70779" lon="2.00529">
        <ele>173</ele>
        <time>2021-05-20T07:48:20.000Z</time>
      </trkpt>
      <trkpt lat="48.70778" lon="2.0053">
        <ele>173</ele>
        <time>2021-05-20T07:48:21.000Z</time>
      </trkpt>
      <trkpt lat="48.70777" lon="2.00531">
        <ele>173</ele>
        <time>2021-05-20T07:48:22.000Z</time>
      </trkpt>
      <trkpt lat="48.70776" lon="2.00533">
        <ele>173</ele>
        <time>2021-05-20T07:48:23.000Z</time>
      </trkpt>
      <trkpt lat="48.70776" lon="2.00534">
        <ele>173</ele>
        <time>2021-05-20T07:48:24.000Z</time>
      </trkpt>
      <trkpt lat="48.70775" lon="2.00535">
        <ele>173</ele>
        <time>2021-05-20T07:48:25.000Z</time>
      </trkpt>
      <trkpt lat="48.70774" lon="2.00536">
        <ele>173</ele>
        <time>2021-05-20T07:48:26.000Z</time>
      </trkpt>
      <trkpt lat="48.70774" lon="2.00537">
        <ele>173</ele>
        <time>2021-05-20T07:48:27.000Z</time>
      </trkpt>
      <trkpt lat="48.70773" lon="2.00539">
        <ele>173</ele>
        <time>2021-05-20T07:48:28.000Z</time>
      </trkpt>
      <trkpt lat="48.70772" lon="2.0054">
        <ele>173</ele>
        <time>2021-05-20T07:48:29.000Z</time>
      </trkpt>
      <trkpt lat="48.70772" lon="2.00541">
        <ele>173</ele>
        <time>2021-05-20T07:48:30.000Z</time>
      </trkpt>
      <trkpt lat="48.70771" lon="2.00542">
        <ele>173</ele>
        <time>2021-05-20T07:48:31.000Z</time>
      </trkpt>
      <trkpt lat="48.70771" lon="2.00543">
        <ele>173</ele>
        <time>2021-05-20T07:48:32.000Z</time>
      </trkpt>
      <trkpt lat="48.7077" lon="2.00545">
        <ele>173</ele>
        <time>2021-05-20T07:48:33.000Z</time>
      </trkpt>
      <trkpt lat="48.7077" lon="2.00546">
        <ele>173</ele>
        <time>2021-05-20T07:48:34.000Z</time>
      </trkpt>
      <trkpt lat="48.7077" lon="2.00547">
        <ele>173</ele>
        <time>2021-05-20T07:48:35.000Z</time>
      </trkpt>
      <trkpt lat="48.70769" lon="2.00548">
        <ele>173</ele>
        <time>2021-05-20T07:48:36.000Z</time>
      </trkpt>
      <trkpt lat="48.70769" lon="2.0055">
        <ele>173</ele>
        <time>2021-05-20T07:48:37.000Z</time>
      </trkpt>
      <trkpt lat="48.70768" lon="2.00551">
        <ele>173</ele>
        <time>2021-05-20T07:48:38.000Z</time>
      </trkpt>
      <trkpt lat="48.70768" lon="2.00552">
        <ele>173</ele>
        <time>2021-05-20T07:48:39.000Z</time>
      </trkpt>
      <trkpt lat="48.70768" lon="2.00552">
        <ele>173</ele>
        <time>2021-05-20T07:48:40.000Z</time>
      </trkpt>
      <trkpt lat="48.70767" lon="2.00553">
        <ele>173</ele>
        <time>2021-05-20T07:48:41.000Z</time>
      </trkpt>
      <trkpt lat="48.70766" lon="2.00554">
        <ele>173</ele>
        <time>2021-05-20T07:48:42.000Z</time>
      </trkpt>
      <trkpt lat="48.70766" lon="2.00554">
        <ele>173</ele>
        <time>2021-05-20T07:48:43.000Z</time>
      </trkpt>
      <trkpt lat="48.70765" lon="2.00555">
        <ele>173</ele>
        <time>2021-05-20T07:48:44.000Z</time>
      </trkpt>
      <trkpt lat="48.70764" lon="2.00556">
        <ele>173</ele>
        <time>2021-05-20T07:48:45.000Z</time>
      </trkpt>
      <trkpt lat="48.70763" lon="2.00557">
        <ele>173</ele>
        <time>2021-05-20T07:48:46.000Z</time>
      </trkpt>
      <trkpt lat="48.70762" lon="2.00558">
        <ele>173</ele>
        <time>2021-05-20T07:48:47.000Z</time>
      </trkpt>
      <trkpt lat="48.70761" lon="2.0056">
        <ele>173</ele>
        <time>2021-05-20T07:48:48.000Z</time>
      </trkpt>
      <trkpt lat="48.7076" lon="2.00561">
        <ele>173</ele>
        <time>2021-05-20T07:48:49.000Z</time>
      </trkpt>
      <trkpt lat="48.70759" lon="2.00563">
        <ele>173</ele>
        <time>2021-05-20T07:48:50.000Z</time>
      </trkpt>
      <trkpt lat="48.70759" lon="2.00564">
        <ele>173</ele>
        <time>2021-05-20T07:48:51.000Z</time>
      </trkpt>
      <trkpt lat="48.70758" lon="2.00566">
        <ele>173</ele>
        <time>2021-05-20T07:48:52.000Z</time>
      </trkpt>
      <trkpt lat="48.70758" lon="2.00567">
        <ele>173</ele>
        <time>2021-05-20T07:48:53.000Z</time>
      </trkpt>
      <trkpt lat="48.70757" lon="2.00569">
        <ele>173</ele>
        <time>2021-05-20T07:48:54.000Z</time>
      </trkpt>
      <trkpt lat="48.70756" lon="2.00571">
        <ele>173</ele>
        <time>2021-05-20T07:48:55.000Z</time>
      </trkpt>
      <trkpt lat="48.70755" lon="2.00573">
        <ele>173</ele>
        <time>2021-05-20T07:48:56.000Z</time>
      </trkpt>
      <trkpt lat="48.70755" lon="2.00574">
        <ele>173</ele>
        <time>2021-05-20T07:48:57.000Z</time>
      </trkpt>
      <trkpt lat="48.70754" lon="2.00576">
        <ele>173</ele>
        <time>2021-05-20T07:48:58.000Z</time>
      </trkpt>
      <trkpt lat="48.70753" lon="2.00577">
        <ele>173</ele>
        <time>2021-05-20T07:48:59.000Z</time>
      </trkpt>
      <trkpt lat="48.70753" lon="2.00579">
        <ele>172</ele>
        <time>2021-05-20T07:49:00.000Z</time>
      </trkpt>
      <trkpt lat="48.70752" lon="2.0058">
        <ele>172</ele>
        <time>2021-05-20T07:49:01.000Z</time>
      </trkpt>
      <trkpt lat="48.70752" lon="2.00581">
        <ele>172</ele>
        <time>2021-05-20T07:49:02.000Z</time>
      </trkpt>
      <trkpt lat="48.70751" lon="2.00583">
        <ele>172</ele>
        <time>2021-05-20T07:49:03.000Z</time>
      </trkpt>
      <trkpt lat="48.7075" lon="2.00585">
        <ele>172</ele>
        <time>2021-05-20T07:49:04.000Z</time>
      </trkpt>
      <trkpt lat="48.7075" lon="2.00586">
        <ele>172</ele>
        <time>2021-05-20T07:49:05.000Z</time>
      </trkpt>
      <trkpt lat="48.70749" lon="2.00588">
        <ele>172</ele>
        <time>2021-05-20T07:49:06.000Z</time>
      </trkpt>
      <trkpt lat="48.70748" lon="2.00589">
        <ele>172</ele>
        <time>2021-05-20T07:49:07.000Z</time>
      </trkpt>
      <trkpt lat="48.70748" lon="2.00591">
        <ele>172</ele>
        <time>2021-05-20T07:49:08.000Z</time>
      </trkpt>
      <trkpt lat="48.70747" lon="2.00592">
        <ele>172</ele>
        <time>2021-05-20T07:49:09.000Z</time>
      </trkpt>
      <trkpt lat="48.70746" lon="2.00594">
        <ele>172</ele>
        <time>2021-05-20T07:49:10.000Z</time>
      </trkpt>
      <trkpt lat="48.70746" lon="2.00595">
        <ele>172</ele>
        <time>2021-05-20T07:49:11.000Z</time>
      </trkpt>
      <trkpt lat="48.70745" lon="2.00595">
        <ele>172</ele>
        <time>2021-05-20T07:49:12.000Z</time>
      </trkpt>
      <trkpt lat="48.70744" lon="2.00596">
        <ele>172</ele>
        <time>2021-05-20T07:49:13.000Z</time>
      </trkpt>
      <trkpt lat="48.70744" lon="2.00597">
        <ele>172</ele>
        <time>2021-05-20T07:49:14.000Z</time>
      </trkpt>
      <trkpt lat="48.70744" lon="2.00598">
        <ele>172</ele>
        <time>2021-05-20T07:49:15.000Z</time>
      </trkpt>
      <trkpt lat="48.70743" lon="2.006">
        <ele>172</ele>
        <time>2021-05-20T07:49:16.000Z</time>
      </trkpt>
      <trkpt lat="48.70742" lon="2.00601">
        <ele>172</ele>
        <time>2021-05-20T07:49:17.000Z</time>
      </trkpt>
      <trkpt lat="48.70742" lon="2.00602">
        <ele>172</ele>
        <time>2021-05-20T07:49:18.000Z</time>
      </trkpt>
      <trkpt lat="48.70741" lon="2.00603">
        <ele>171</ele>
        <time>2021-05-20T07:49:19.000Z</time>
      </trkpt>
      <trkpt lat="48.70741" lon="2.00604">
        <ele>171</ele>
        <time>2021-05-20T07:49:20.000Z</time>
      </trkpt>
      <trkpt lat="48.7074" lon="2.00605">
        <ele>171</ele>
        <time>2021-05-20T07:49:21.000Z</time>
      </trkpt>
      <trkpt lat="48.7074" lon="2.00607">
        <ele>171</ele>
        <time>2021-05-20T07:49:22.000Z</time>
      </trkpt>
      <trkpt lat="48.70739" lon="2.00608">
        <ele>171</ele>
        <time>2021-05-20T07:49:23.000Z</time>
      </trkpt>
      <trkpt lat="48.70738" lon="2.00609">
        <ele>170</ele>
        <time>2021-05-20T07:49:24.000Z</time>
      </trkpt>
      <trkpt lat="48.70737" lon="2.00611">
        <ele>170</ele>
        <time>2021-05-20T07:49:25.000Z</time>
      </trkpt>
      <trkpt lat="48.70736" lon="2.00612">
        <ele>170</ele>
        <time>2021-05-20T07:49:26.000Z</time>
      </trkpt>
      <trkpt lat="48.70735" lon="2.00614">
        <ele>170</ele>
        <time>2021-05-20T07:49:27.000Z</time>
      </trkpt>
      <trkpt lat="48.70735" lon="2.00615">
        <ele>170</ele>
        <time>2021-05-20T07:49:28.000Z</time>
      </trkpt>
      <trkpt lat="48.70734" lon="2.00617">
        <ele>170</ele>
        <time>2021-05-20T07:49:29.000Z</time>
      </trkpt>
      <trkpt lat="48.70733" lon="2.00618">
        <ele>170</ele>
        <time>2021-05-20T07:49:30.000Z</time>
      </trkpt>
      <trkpt lat="48.70732" lon="2.0062">
        <ele>169</ele>
        <time>2021-05-20T07:49:31.000Z</time>
      </trkpt>
      <trkpt lat="48.70732" lon="2.00621">
        <ele>169</ele>
        <time>2021-05-20T07:49:32.000Z</time>
      </trkpt>
      <trkpt lat="48.70731" lon="2.00622">
        <ele>169</ele>
        <time>2021-05-20T07:49:33.000Z</time>
      </trkpt>
      <trkpt lat="48.7073" lon="2.00623">
        <ele>169</ele>
        <time>2021-05-20T07:49:34.000Z</time>
      </trkpt>
      <trkpt lat="48.7073" lon="2.00625">
        <ele>169</ele>
        <time>2021-05-20T07:49:35.000Z</time>
      </trkpt>
      <trkpt lat="48.70729" lon="2.00626">
        <ele>169</ele>
        <time>2021-05-20T07:49:36.000Z</time>
      </trkpt>
      <trkpt lat="48.70729" lon="2.00628">
        <ele>169</ele>
        <time>2021-05-20T07:49:37.000Z</time>
      </trkpt>
      <trkpt lat="48.70728" lon="2.00628">
        <ele>169</ele>
        <time>2021-05-20T07:49:38.000Z</time>
      </trkpt>
      <trkpt lat="48.70728" lon="2.00629">
        <ele>169</ele>
        <time>2021-05-20T07:49:39.000Z</time>
      </trkpt>
      <trkpt lat="48.70727" lon="2.0063">
        <ele>169</ele>
        <time>2021-05-20T07:49:40.000Z</time>
      </trkpt>
      <trkpt lat="48.70726" lon="2.00632">
        <ele>169</ele>
        <time>2021-05-20T07:49:41.000Z</time>
      </trkpt>
      <trkpt lat="48.70725" lon="2.00633">
        <ele>169</ele>
        <time>2021-05-20T07:49:42.000Z</time>
      </trkpt>
      <trkpt lat="48.70724" lon="2.00635">
        <ele>169</ele>
        <time>2021-05-20T07:49:43.000Z</time>
      </trkpt>
      <trkpt lat="48.70723" lon="2.00637">
        <ele>169</ele>
        <time>2021-05-20T07:49:44.000Z</time>
      </trkpt>
      <trkpt lat="48.70722" lon="2.00638">
        <ele>169</ele>
        <time>2021-05-20T07:49:45.000Z</time>
      </trkpt>
      <trkpt lat="48.70721" lon="2.00639">
        <ele>169</ele>
        <time>2021-05-20T07:49:46.000Z</time>
      </trkpt>
      <trkpt lat="48.70721" lon="2.00641">
        <ele>169</ele>
        <time>2021-05-20T07:49:47.000Z</time>
      </trkpt>
      <trkpt lat="48.7072" lon="2.00642">
        <ele>169</ele>
        <time>2021-05-20T07:49:48.000Z</time>
      </trkpt>
      <trkpt lat="48.70719" lon="2.00643">
        <ele>169</ele>
        <time>2021-05-20T07:49:49.000Z</time>
      </trkpt>
      <trkpt lat="48.70719" lon="2.00644">
        <ele>169</ele>
        <time>2021-05-20T07:49:50.000Z</time>
      </trkpt>
      <trkpt lat="48.70718" lon="2.00645">
        <ele>169</ele>
        <time>2021-05-20T07:49:51.000Z</time>
      </trkpt>
      <trkpt lat="48.70717" lon="2.00646">
        <ele>169</ele>
        <time>2021-05-20T07:49:52.000Z</time>
      </trkpt>
      <trkpt lat="48.70716" lon="2.00648">
        <ele>169</ele>
        <time>2021-05-20T07:49:53.000Z</time>
      </trkpt>
      <trkpt lat="48.70715" lon="2.00649">
        <ele>168</ele>
        <time>2021-05-20T07:49:54.000Z</time>
      </trkpt>
      <trkpt lat="48.70714" lon="2.0065">
        <ele>168</ele>
        <time>2021-05-20T07:49:55.000Z</time>
      </trkpt>
      <trkpt lat="48.70713" lon="2.00652">
        <ele>168</ele>
        <time>2021-05-20T07:49:56.000Z</time>
      </trkpt>
      <trkpt lat="48.70713" lon="2.00653">
        <ele>168</ele>
        <time>2021-05-20T07:49:57.000Z</time>
      </trkpt>
      <trkpt lat="48.70712" lon="2.00654">
        <ele>168</ele>
        <time>2021-05-20T07:49:58.000Z</time>
      </trkpt>
      <trkpt lat="48.70712" lon="2.00656">
        <ele>168</ele>
        <time>2021-05-20T07:49:59.000Z</time>
      </trkpt>
      <trkpt lat="48.70711" lon="2.00658">
        <ele>167</ele>
        <time>2021-05-20T07:50:00.000Z</time>
      </trkpt>
      <trkpt lat="48.7071" lon="2.0066">
        <ele>167</ele>
        <time>2021-05-20T07:50:01.000Z</time>
      </trkpt>
      <trkpt lat="48.7071" lon="2.00662">
        <ele>167</ele>
        <time>2021-05-20T07:50:02.000Z</time>
      </trkpt>
      <trkpt lat="48.70709" lon="2.00663">
        <ele>167</ele>
        <time>2021-05-20T07:50:03.000Z</time>
      </trkpt>
      <trkpt lat="48.70708" lon="2.00664">
        <ele>167</ele>
        <time>2021-05-20T07:50:04.000Z</time>
      </trkpt>
      <trkpt lat="48.70708" lon="2.00666">
        <ele>167</ele>
        <time>2021-05-20T07:50:05.000Z</time>
      </trkpt>
      <trkpt lat="48.70707" lon="2.00667">
        <ele>167</ele>
        <time>2021-05-20T07:50:06.000Z</time>
      </trkpt>
      <trkpt lat="48.70706" lon="2.00668">
        <ele>167</ele>
        <time>2021-05-20T07:50:07.000Z</time>
      </trkpt>
      <trkpt lat="48.70705" lon="2.0067">
        <ele>167</ele>
        <time>2021-05-20T07:50:08.000Z</time>
      </trkpt>
      <trkpt lat="48.70704" lon="2.00671">
        <ele>167</ele>
        <time>2021-05-20T07:50:09.000Z</time>
      </trkpt>
      <trkpt lat="48.70703" lon="2.00672">
        <ele>167</ele>
        <time>2021-05-20T07:50:10.000Z</time>
      </trkpt>
      <trkpt lat="48.70703" lon="2.00674">
        <ele>167</ele>
        <time>2021-05-20T07:50:11.000Z</time>
      </trkpt>
      <trkpt lat="48.70702" lon="2.00675">
        <ele>167</ele>
        <time>2021-05-20T07:50:12.000Z</time>
      </trkpt>
      <trkpt lat="48.70702" lon="2.00676">
        <ele>167</ele>
        <time>2021-05-20T07:50:13.000Z</time>
      </trkpt>
      <trkpt lat="48.70701" lon="2.00678">
        <ele>167</ele>
        <time>2021-05-20T07:50:14.000Z</time>
      </trkpt>
      <trkpt lat="48.70701" lon="2.00679">
        <ele>167</ele>
        <time>2021-05-20T07:50:15.000Z</time>
      </trkpt>
      <trkpt lat="48.70701" lon="2.00681">
        <ele>167</ele>
        <time>2021-05-20T07:50:16.000Z</time>
      </trkpt>
      <trkpt lat="48.70701" lon="2.00683">
        <ele>167</ele>
        <time>2021-05-20T07:50:17.000Z</time>
      </trkpt>
      <trkpt lat="48.707" lon="2.00684">
        <ele>168</ele>
        <time>2021-05-20T07:50:18.000Z</time>
      </trkpt>
      <trkpt lat="48.707" lon="2.00686">
        <ele>168</ele>
        <time>2021-05-20T07:50:19.000Z</time>
      </trkpt>
      <trkpt lat="48.70699" lon="2.00688">
        <ele>168</ele>
        <time>2021-05-20T07:50:20.000Z</time>
      </trkpt>
      <trkpt lat="48.70698" lon="2.0069">
        <ele>168</ele>
        <time>2021-05-20T07:50:21.000Z</time>
      </trkpt>
      <trkpt lat="48.70697" lon="2.00691">
        <ele>168</ele>
        <time>2021-05-20T07:50:22.000Z</time>
      </trkpt>
      <trkpt lat="48.70696" lon="2.00692">
        <ele>168</ele>
        <time>2021-05-20T07:50:23.000Z</time>
      </trkpt>
      <trkpt lat="48.70696" lon="2.00694">
        <ele>168</ele>
        <time>2021-05-20T07:50:24.000Z</time>
      </trkpt>
      <trkpt lat="48.70695" lon="2.00695">
        <ele>168</ele>
        <time>2021-05-20T07:50:25.000Z</time>
      </trkpt>
      <trkpt lat="48.70694" lon="2.00696">
        <ele>168</ele>
        <time>2021-05-20T07:50:26.000Z</time>
      </trkpt>
      <trkpt lat="48.70693" lon="2.00698">
        <ele>168</ele>
        <time>2021-05-20T07:50:27.000Z</time>
      </trkpt>
      <trkpt lat="48.70693" lon="2.007">
        <ele>168</ele>
        <time>2021-05-20T07:50:28.000Z</time>
      </trkpt>
      <trkpt lat="48.70692" lon="2.00702">
        <ele>168</ele>
        <time>2021-05-20T07:50:29.000Z</time>
      </trkpt>
      <trkpt lat="48.70691" lon="2.00704">
        <ele>168</ele>
        <time>2021-05-20T07:50:30.000Z</time>
      </trkpt>
      <trkpt lat="48.70691" lon="2.00706">
        <ele>167</ele>
        <time>2021-05-20T07:50:31.000Z</time>
      </trkpt>
      <trkpt lat="48.7069" lon="2.00707">
        <ele>167</ele>
        <time>2021-05-20T07:50:32.000Z</time>
      </trkpt>
      <trkpt lat="48.7069" lon="2.00709">
        <ele>168</ele>
        <time>2021-05-20T07:50:33.000Z</time>
      </trkpt>
      <trkpt lat="48.70689" lon="2.00711">
        <ele>168</ele>
        <time>2021-05-20T07:50:34.000Z</time>
      </trkpt>
      <trkpt lat="48.70689" lon="2.00713">
        <ele>168</ele>
        <time>2021-05-20T07:50:35.000Z</time>
      </trkpt>
      <trkpt lat="48.70688" lon="2.00714">
        <ele>168</ele>
        <time>2021-05-20T07:50:36.000Z</time>
      </trkpt>
      <trkpt lat="48.70687" lon="2.00716">
        <ele>168</ele>
        <time>2021-05-20T07:50:37.000Z</time>
      </trkpt>
      <trkpt lat="48.70687" lon="2.00717">
        <ele>168</ele>
        <time>2021-05-20T07:50:38.000Z</time>
      </trkpt>
      <trkpt lat="48.70687" lon="2.00719">
        <ele>168</ele>
        <time>2021-05-20T07:50:39.000Z</time>
      </trkpt>
      <trkpt lat="48.70686" lon="2.0072">
        <ele>168</ele>
        <time>2021-05-20T07:50:40.000Z</time>
      </trkpt>
      <trkpt lat="48.70686" lon="2.00722">
        <ele>168</ele>
        <time>2021-05-20T07:50:41.000Z</time>
      </trkpt>
      <trkpt lat="48.70686" lon="2.00723">
        <ele>168</ele>
        <time>2021-05-20T07:50:42.000Z</time>
      </trkpt>
      <trkpt lat="48.70685" lon="2.00725">
        <ele>169</ele>
        <time>2021-05-20T07:50:43.000Z</time>
      </trkpt>
      <trkpt lat="48.70685" lon="2.00727">
        <ele>169</ele>
        <time>2021-05-20T07:50:44.000Z</time>
      </trkpt>
      <trkpt lat="48.70685" lon="2.00729">
        <ele>169</ele>
        <time>2021-05-20T07:50:45.000Z</time>
      </trkpt>
      <trkpt lat="48.70684" lon="2.00731">
        <ele>169</ele>
        <time>2021-05-20T07:50:46.000Z</time>
      </trkpt>
      <trkpt lat="48.70684" lon="2.00732">
        <ele>169</ele>
        <time>2021-05-20T07:50:47.000Z</time>
      </trkpt>
      <trkpt lat="48.70683" lon="2.00734">
        <ele>169</ele>
        <time>2021-05-20T07:50:48.000Z</time>
      </trkpt>
      <trkpt lat="48.70683" lon="2.00736">
        <ele>169</ele>
        <time>2021-05-20T07:50:49.000Z</time>
      </trkpt>
      <trkpt lat="48.70682" lon="2.00737">
        <ele>169</ele>
        <time>2021-05-20T07:50:50.000Z</time>
      </trkpt>
      <trkpt lat="48.70682" lon="2.00738">
        <ele>169</ele>
        <time>2021-05-20T07:50:51.000Z</time>
      </trkpt>
      <trkpt lat="48.70681" lon="2.0074">
        <ele>169</ele>
        <time>2021-05-20T07:50:52.000Z</time>
      </trkpt>
      <trkpt lat="48.70681" lon="2.00741">
        <ele>169</ele>
        <time>2021-05-20T07:50:53.000Z</time>
      </trkpt>
      <trkpt lat="48.7068" lon="2.00742">
        <ele>169</ele>
        <time>2021-05-20T07:50:54.000Z</time>
      </trkpt>
      <trkpt lat="48.7068" lon="2.00743">
        <ele>169</ele>
        <time>2021-05-20T07:50:55.000Z</time>
      </trkpt>
      <trkpt lat="48.70679" lon="2.00745">
        <ele>169</ele>
        <time>2021-05-20T07:50:56.000Z</time>
      </trkpt>
      <trkpt lat="48.70678" lon="2.00746">
        <ele>169</ele>
        <time>2021-05-20T07:50:57.000Z</time>
      </trkpt>
      <trkpt lat="48.70677" lon="2.00748">
        <ele>169</ele>
        <time>2021-05-20T07:50:58.000Z</time>
      </trkpt>
      <trkpt lat="48.70676" lon="2.0075">
        <ele>169</ele>
        <time>2021-05-20T07:50:59.000Z</time>
      </trkpt>
      <trkpt lat="48.70676" lon="2.00752">
        <ele>169</ele>
        <time>2021-05-20T07:51:00.000Z</time>
      </trkpt>
      <trkpt lat="48.70676" lon="2.00754">
        <ele>169</ele>
        <time>2021-05-20T07:51:01.000Z</time>
      </trkpt>
      <trkpt lat="48.70675" lon="2.00755">
        <ele>169</ele>
        <time>2021-05-20T07:51:02.000Z</time>
      </trkpt>
      <trkpt lat="48.70675" lon="2.00757">
        <ele>169</ele>
        <time>2021-05-20T07:51:03.000Z</time>
      </trkpt>
      <trkpt lat="48.70674" lon="2.00758">
        <ele>168</ele>
        <time>2021-05-20T07:51:04.000Z</time>
      </trkpt>
      <trkpt lat="48.70673" lon="2.0076">
        <ele>168</ele>
        <time>2021-05-20T07:51:05.000Z</time>
      </trkpt>
      <trkpt lat="48.70673" lon="2.00762">
        <ele>168</ele>
        <time>2021-05-20T07:51:06.000Z</time>
      </trkpt>
      <trkpt lat="48.70672" lon="2.00764">
        <ele>168</ele>
        <time>2021-05-20T07:51:07.000Z</time>
      </trkpt>
      <trkpt lat="48.70671" lon="2.00766">
        <ele>168</ele>
        <time>2021-05-20T07:51:08.000Z</time>
      </trkpt>
      <trkpt lat="48.70671" lon="2.00769">
        <ele>168</ele>
        <time>2021-05-20T07:51:09.000Z</time>
      </trkpt>
      <trkpt lat="48.7067" lon="2.0077">
        <ele>168</ele>
        <time>2021-05-20T07:51:10.000Z</time>
      </trkpt>
      <trkpt lat="48.7067" lon="2.00772">
        <ele>168</ele>
        <time>2021-05-20T07:51:11.000Z</time>
      </trkpt>
      <trkpt lat="48.7067" lon="2.00773">
        <ele>168</ele>
        <time>2021-05-20T07:51:12.000Z</time>
      </trkpt>
      <trkpt lat="48.70669" lon="2.00775">
        <ele>168</ele>
        <time>2021-05-20T07:51:13.000Z</time>
      </trkpt>
      <trkpt lat="48.70669" lon="2.00776">
        <ele>168</ele>
        <time>2021-05-20T07:51:14.000Z</time>
      </trkpt>
      <trkpt lat="48.70668" lon="2.00778">
        <ele>168</ele>
        <time>2021-05-20T07:51:15.000Z</time>
      </trkpt>
      <trkpt lat="48.70668" lon="2.0078">
        <ele>168</ele>
        <time>2021-05-20T07:51:16.000Z</time>
      </trkpt>
      <trkpt lat="48.70667" lon="2.00782">
        <ele>168</ele>
        <time>2021-05-20T07:51:17.000Z</time>
      </trkpt>
      <trkpt lat="48.70666" lon="2.00784">
        <ele>168</ele>
        <time>2021-05-20T07:51:18.000Z</time>
      </trkpt>
      <trkpt lat="48.70666" lon="2.00785">
        <ele>168</ele>
        <time>2021-05-20T07:51:19.000Z</time>
      </trkpt>
      <trkpt lat="48.70665" lon="2.00787">
        <ele>168</ele>
        <time>2021-05-20T07:51:20.000Z</time>
      </trkpt>
      <trkpt lat="48.70664" lon="2.00789">
        <ele>168</ele>
        <time>2021-05-20T07:51:21.000Z</time>
      </trkpt>
      <trkpt lat="48.70664" lon="2.0079">
        <ele>168</ele>
        <time>2021-05-20T07:51:22.000Z</time>
      </trkpt>
      <trkpt lat="48.70663" lon="2.00792">
        <ele>168</ele>
        <time>2021-05-20T07:51:23.000Z</time>
      </trkpt>
      <trkpt lat="48.70663" lon="2.00794">
        <ele>168</ele>
        <time>2021-05-20T07:51:24.000Z</time>
      </trkpt>
      <trkpt lat="48.70662" lon="2.00795">
        <ele>168</ele>
        <time>2021-05-20T07:51:25.000Z</time>
      </trkpt>
      <trkpt lat="48.70662" lon="2.00797">
        <ele>168</ele>
        <time>2021-05-20T07:51:26.000Z</time>
      </trkpt>
      <trkpt lat="48.70661" lon="2.00799">
        <ele>168</ele>
        <time>2021-05-20T07:51:27.000Z</time>
      </trkpt>
      <trkpt lat="48.7066" lon="2.00801">
        <ele>168</ele>
        <time>2021-05-20T07:51:28.000Z</time>
      </trkpt>
      <trkpt lat="48.7066" lon="2.00803">
        <ele>168</ele>
        <time>2021-05-20T07:51:29.000Z</time>
      </trkpt>
      <trkpt lat="48.70659" lon="2.00805">
        <ele>168</ele>
        <time>2021-05-20T07:51:30.000Z</time>
      </trkpt>
      <trkpt lat="48.70659" lon="2.00807">
        <ele>168</ele>
        <time>2021-05-20T07:51:31.000Z</time>
      </trkpt>
      <trkpt lat="48.70659" lon="2.00809">
        <ele>168</ele>
        <time>2021-05-20T07:51:32.000Z</time>
      </trkpt>
      <trkpt lat="48.70658" lon="2.00811">
        <ele>168</ele>
        <time>2021-05-20T07:51:33.000Z</time>
      </trkpt>
      <trkpt lat="48.70658" lon="2.00813">
        <ele>168</ele>
        <time>2021-05-20T07:51:34.000Z</time>
      </trkpt>
      <trkpt lat="48.70658" lon="2.00814">
        <ele>168</ele>
        <time>2021-05-20T07:51:35.000Z</time>
      </trkpt>
      <trkpt lat="48.70657" lon="2.00816">
        <ele>168</ele>
        <time>2021-05-20T07:51:36.000Z</time>
      </trkpt>
      <trkpt lat="48.70657" lon="2.00819">
        <ele>168</ele>
        <time>2021-05-20T07:51:37.000Z</time>
      </trkpt>
      <trkpt lat="48.70657" lon="2.00821">
        <ele>168</ele>
        <time>2021-05-20T07:51:38.000Z</time>
      </trkpt>
      <trkpt lat="48.70656" lon="2.00823">
        <ele>167</ele>
        <time>2021-05-20T07:51:39.000Z</time>
      </trkpt>
      <trkpt lat="48.70656" lon="2.00825">
        <ele>167</ele>
        <time>2021-05-20T07:51:40.000Z</time>
      </trkpt>
      <trkpt lat="48.70656" lon="2.00827">
        <ele>167</ele>
        <time>2021-05-20T07:51:41.000Z</time>
      </trkpt>
      <trkpt lat="48.70656" lon="2.0083">
        <ele>167</ele>
        <time>2021-05-20T07:51:42.000Z</time>
      </trkpt>
      <trkpt lat="48.70655" lon="2.00832">
        <ele>167</ele>
        <time>2021-05-20T07:51:43.000Z</time>
      </trkpt>
      <trkpt lat="48.70654" lon="2.00834">
        <ele>166</ele>
        <time>2021-05-20T07:51:44.000Z</time>
      </trkpt>
      <trkpt lat="48.70654" lon="2.00835">
        <ele>166</ele>
        <time>2021-05-20T07:51:45.000Z</time>
      </trkpt>
      <trkpt lat="48.70653" lon="2.00837">
        <ele>166</ele>
        <time>2021-05-20T07:51:46.000Z</time>
      </trkpt>
      <trkpt lat="48.70653" lon="2.00839">
        <ele>166</ele>
        <time>2021-05-20T07:51:47.000Z</time>
      </trkpt>
      <trkpt lat="48.70653" lon="2.00841">
        <ele>166</ele>
        <time>2021-05-20T07:51:48.000Z</time>
      </trkpt>
      <trkpt lat="48.70653" lon="2.00842">
        <ele>166</ele>
        <time>2021-05-20T07:51:49.000Z</time>
      </trkpt>
      <trkpt lat="48.70653" lon="2.00844">
        <ele>166</ele>
        <time>2021-05-20T07:51:50.000Z</time>
      </trkpt>
      <trkpt lat="48.70653" lon="2.00846">
        <ele>166</ele>
        <time>2021-05-20T07:51:51.000Z</time>
      </trkpt>
      <trkpt lat="48.70653" lon="2.00848">
        <ele>166</ele>
        <time>2021-05-20T07:51:52.000Z</time>
      </trkpt>
      <trkpt lat="48.70652" lon="2.00849">
        <ele>166</ele>
        <time>2021-05-20T07:51:53.000Z</time>
      </trkpt>
      <trkpt lat="48.70652" lon="2.00851">
        <ele>165</ele>
        <time>2021-05-20T07:51:54.000Z</time>
      </trkpt>
      <trkpt lat="48.70652" lon="2.00853">
        <ele>165</ele>
        <time>2021-05-20T07:51:55.000Z</time>
      </trkpt>
      <trkpt lat="48.70653" lon="2.00854">
        <ele>165</ele>
        <time>2021-05-20T07:51:56.000Z</time>
      </trkpt>
      <trkpt lat="48.70653" lon="2.00856">
        <ele>165</ele>
        <time>2021-05-20T07:51:57.000Z</time>
      </trkpt>
      <trkpt lat="48.70652" lon="2.00858">
        <ele>165</ele>
        <time>2021-05-20T07:51:58.000Z</time>
      </trkpt>
      <trkpt lat="48.70652" lon="2.0086">
        <ele>165</ele>
        <time>2021-05-20T07:51:59.000Z</time>
      </trkpt>
      <trkpt lat="48.70652" lon="2.00861">
        <ele>164</ele>
        <time>2021-05-20T07:52:00.000Z</time>
      </trkpt>
      <trkpt lat="48.70651" lon="2.00863">
        <ele>164</ele>
        <time>2021-05-20T07:52:01.000Z</time>
      </trkpt>
      <trkpt lat="48.70651" lon="2.00865">
        <ele>164</ele>
        <time>2021-05-20T07:52:02.000Z</time>
      </trkpt>
      <trkpt lat="48.7065" lon="2.00867">
        <ele>164</ele>
        <time>2021-05-20T07:52:03.000Z</time>
      </trkpt>
      <trkpt lat="48.70649" lon="2.00868">
        <ele>164</ele>
        <time>2021-05-20T07:52:04.000Z</time>
      </trkpt>
      <trkpt lat="48.70648" lon="2.0087">
        <ele>163</ele>
        <time>2021-05-20T07:52:05.000Z</time>
      </trkpt>
      <trkpt lat="48.70647" lon="2.00872">
        <ele>163</ele>
        <time>2021-05-20T07:52:06.000Z</time>
      </trkpt>
      <trkpt lat="48.70647" lon="2.00874">
        <ele>163</ele>
        <time>2021-05-20T07:52:07.000Z</time>
      </trkpt>
      <trkpt lat="48.70646" lon="2.00877">
        <ele>163</ele>
        <time>2021-05-20T07:52:08.000Z</time>
      </trkpt>
      <trkpt lat="48.70646" lon="2.00879">
        <ele>163</ele>
        <time>2021-05-20T07:52:09.000Z</time>
      </trkpt>
      <trkpt lat="48.70645" lon="2.0088">
        <ele>162</ele>
        <time>2021-05-20T07:52:10.000Z</time>
      </trkpt>
      <trkpt lat="48.70644" lon="2.00882">
        <ele>162</ele>
        <time>2021-05-20T07:52:11.000Z</time>
      </trkpt>
      <trkpt lat="48.70644" lon="2.00884">
        <ele>162</ele>
        <time>2021-05-20T07:52:12.000Z</time>
      </trkpt>
      <trkpt lat="48.70643" lon="2.00885">
        <ele>162</ele>
        <time>2021-05-20T07:52:13.000Z</time>
      </trkpt>
      <trkpt lat="48.70642" lon="2.00887">
        <ele>162</ele>
        <time>2021-05-20T07:52:14.000Z</time>
      </trkpt>
      <trkpt lat="48.70642" lon="2.00888">
        <ele>162</ele>
        <time>2021-05-20T07:52:15.000Z</time>
      </trkpt>
      <trkpt lat="48.70642" lon="2.0089">
        <ele>162</ele>
        <time>2021-05-20T07:52:16.000Z</time>
      </trkpt>
      <trkpt lat="48.70641" lon="2.00891">
        <ele>161</ele>
        <time>2021-05-20T07:52:17.000Z</time>
      </trkpt>
      <trkpt lat="48.70641" lon="2.00893">
        <ele>161</ele>
        <time>2021-05-20T07:52:18.000Z</time>
      </trkpt>
      <trkpt lat="48.7064" lon="2.00894">
        <ele>161</ele>
        <time>2021-05-20T07:52:19.000Z</time>
      </trkpt>
      <trkpt lat="48.7064" lon="2.00896">
        <ele>161</ele>
        <time>2021-05-20T07:52:20.000Z</time>
      </trkpt>
      <trkpt lat="48.70639" lon="2.00898">
        <ele>161</ele>
        <time>2021-05-20T07:52:21.000Z</time>
      </trkpt>
      <trkpt lat="48.70639" lon="2.009">
        <ele>161</ele>
        <time>2021-05-20T07:52:22.000Z</time>
      </trkpt>
      <trkpt lat="48.70638" lon="2.00902">
        <ele>161</ele>
        <time>2021-05-20T07:52:23.000Z</time>
      </trkpt>
      <trkpt lat="48.70638" lon="2.00904">
        <ele>161</ele>
        <time>2021-05-20T07:52:24.000Z</time>
      </trkpt>
      <trkpt lat="48.70638" lon="2.00905">
        <ele>161</ele>
        <time>2021-05-20T07:52:25.000Z</time>
      </trkpt>
      <trkpt lat="48.70637" lon="2.00907">
        <ele>161</ele>
        <time>2021-05-20T07:52:26.000Z</time>
      </trkpt>
      <trkpt lat="48.70637" lon="2.00909">
        <ele>161</ele>
        <time>2021-05-20T07:52:27.000Z</time>
      </trkpt>
      <trkpt lat="48.70637" lon="2.00911">
        <ele>161</ele>
        <time>2021-05-20T07:52:28.000Z</time>
      </trkpt>
      <trkpt lat="48.70636" lon="2.00913">
        <ele>161</ele>
        <time>2021-05-20T07:52:29.000Z</time>
      </trkpt>
      <trkpt lat="48.70636" lon="2.00915">
        <ele>161</ele>
        <time>2021-05-20T07:52:30.000Z</time>
      </trkpt>
      <trkpt lat="48.70636" lon="2.00917">
        <ele>161</ele>
        <time>2021-05-20T07:52:31.000Z</time>
      </trkpt>
      <trkpt lat="48.70635" lon="2.00919">
        <ele>161</ele>
        <time>2021-05-20T07:52:32.000Z</time>
      </trkpt>
      <trkpt lat="48.70634" lon="2.00921">
        <ele>160</ele>
        <time>2021-05-20T07:52:33.000Z</time>
      </trkpt>
      <trkpt lat="48.70634" lon="2.00923">
        <ele>160</ele>
        <time>2021-05-20T07:52:34.000Z</time>
      </trkpt>
      <trkpt lat="48.70634" lon="2.00925">
        <ele>160</ele>
        <time>2021-05-20T07:52:35.000Z</time>
      </trkpt>
      <trkpt lat="48.70633" lon="2.00926">
        <ele>160</ele>
        <time>2021-05-20T07:52:36.000Z</time>
      </trkpt>
      <trkpt lat="48.70633" lon="2.00928">
        <ele>160</ele>
        <time>2021-05-20T07:52:37.000Z</time>
      </trkpt>
      <trkpt lat="48.70632" lon="2.0093">
        <ele>160</ele>
        <time>2021-05-20T07:52:38.000Z</time>
      </trkpt>
      <trkpt lat="48.70631" lon="2.00932">
        <ele>160</ele>
        <time>2021-05-20T07:52:39.000Z</time>
      </trkpt>
      <trkpt lat="48.70631" lon="2.00933">
        <ele>160</ele>
        <time>2021-05-20T07:52:40.000Z</time>
      </trkpt>
      <trkpt lat="48.70631" lon="2.00935">
        <ele>160</ele>
        <time>2021-05-20T07:52:41.000Z</time>
      </trkpt>
      <trkpt lat="48.70631" lon="2.00937">
        <ele>160</ele>
        <time>2021-05-20T07:52:42.000Z</time>
      </trkpt>
      <trkpt lat="48.7063" lon="2.00938">
        <ele>160</ele>
        <time>2021-05-20T07:52:43.000Z</time>
      </trkpt>
      <trkpt lat="48.70629" lon="2.0094">
        <ele>160</ele>
        <time>2021-05-20T07:52:44.000Z</time>
      </trkpt>
      <trkpt lat="48.70629" lon="2.00942">
        <ele>160</ele>
        <time>2021-05-20T07:52:45.000Z</time>
      </trkpt>
      <trkpt lat="48.70628" lon="2.00944">
        <ele>160</ele>
        <time>2021-05-20T07:52:46.000Z</time>
      </trkpt>
      <trkpt lat="48.70628" lon="2.00946">
        <ele>159</ele>
        <time>2021-05-20T07:52:47.000Z</time>
      </trkpt>
      <trkpt lat="48.70628" lon="2.00948">
        <ele>159</ele>
        <time>2021-05-20T07:52:48.000Z</time>
      </trkpt>
      <trkpt lat="48.70627" lon="2.0095">
        <ele>159</ele>
        <time>2021-05-20T07:52:49.000Z</time>
      </trkpt>
      <trkpt lat="48.70627" lon="2.00952">
        <ele>159</ele>
        <time>2021-05-20T07:52:50.000Z</time>
      </trkpt>
      <trkpt lat="48.70627" lon="2.00954">
        <ele>159</ele>
        <time>2021-05-20T07:52:51.000Z</time>
      </trkpt>
      <trkpt lat="48.70627" lon="2.00955">
        <ele>159</ele>
        <time>2021-05-20T07:52:52.000Z</time>
      </trkpt>
      <trkpt lat="48.70627" lon="2.00956">
        <ele>159</ele>
        <time>2021-05-20T07:52:53.000Z</time>
      </trkpt>
      <trkpt lat="48.70627" lon="2.00957">
        <ele>159</ele>
        <time>2021-05-20T07:52:54.000Z</time>
      </trkpt>
      <trkpt lat="48.70626" lon="2.00958">
        <ele>159</ele>
        <time>2021-05-20T07:52:55.000Z</time>
      </trkpt>
      <trkpt lat="48.70626" lon="2.0096">
        <ele>159</ele>
        <time>2021-05-20T07:52:56.000Z</time>
      </trkpt>
      <trkpt lat="48.70626" lon="2.00961">
        <ele>159</ele>
        <time>2021-05-20T07:52:57.000Z</time>
      </trkpt>
      <trkpt lat="48.70626" lon="2.00962">
        <ele>159</ele>
        <time>2021-05-20T07:52:58.000Z</time>
      </trkpt>
      <trkpt lat="48.70626" lon="2.00963">
        <ele>159</ele>
        <time>2021-05-20T07:52:59.000Z</time>
      </trkpt>
      <trkpt lat="48.70626" lon="2.00965">
        <ele>159</ele>
        <time>2021-05-20T07:53:00.000Z</time>
      </trkpt>
      <trkpt lat="48.70626" lon="2.00966">
        <ele>159</ele>
        <time>2021-05-20T07:53:01.000Z</time>
      </trkpt>
      <trkpt lat="48.70626" lon="2.00968">
        <ele>159</ele>
        <time>2021-05-20T07:53:02.000Z</time>
      </trkpt>
      <trkpt lat="48.70626" lon="2.0097">
        <ele>159</ele>
        <time>2021-05-20T07:53:03.000Z</time>
      </trkpt>
      <trkpt lat="48.70626" lon="2.00972">
        <ele>159</ele>
        <time>2021-05-20T07:53:04.000Z</time>
      </trkpt>
      <trkpt lat="48.70626" lon="2.00973">
        <ele>159</ele>
        <time>2021-05-20T07:53:05.000Z</time>
      </trkpt>
      <trkpt lat="48.70626" lon="2.00975">
        <ele>159</ele>
        <time>2021-05-20T07:53:06.000Z</time>
      </trkpt>
      <trkpt lat="48.70626" lon="2.00977">
        <ele>158</ele>
        <time>2021-05-20T07:53:07.000Z</time>
      </trkpt>
      <trkpt lat="48.70626" lon="2.00979">
        <ele>158</ele>
        <time>2021-05-20T07:53:08.000Z</time>
      </trkpt>
      <trkpt lat="48.70626" lon="2.00981">
        <ele>158</ele>
        <time>2021-05-20T07:53:09.000Z</time>
      </trkpt>
      <trkpt lat="48.70625" lon="2.00983">
        <ele>158</ele>
        <time>2021-05-20T07:53:10.000Z</time>
      </trkpt>
      <trkpt lat="48.70625" lon="2.00985">
        <ele>158</ele>
        <time>2021-05-20T07:53:11.000Z</time>
      </trkpt>
      <trkpt lat="48.70624" lon="2.00987">
        <ele>158</ele>
        <time>2021-05-20T07:53:12.000Z</time>
      </trkpt>
      <trkpt lat="48.70624" lon="2.00989">
        <ele>158</ele>
        <time>2021-05-20T07:53:13.000Z</time>
      </trkpt>
      <trkpt lat="48.70623" lon="2.00991">
        <ele>158</ele>
        <time>2021-05-20T07:53:14.000Z</time>
      </trkpt>
      <trkpt lat="48.70623" lon="2.00992">
        <ele>158</ele>
        <time>2021-05-20T07:53:15.000Z</time>
      </trkpt>
      <trkpt lat="48.70622" lon="2.00994">
        <ele>158</ele>
        <time>2021-05-20T07:53:16.000Z</time>
      </trkpt>
      <trkpt lat="48.70622" lon="2.00995">
        <ele>158</ele>
        <time>2021-05-20T07:53:17.000Z</time>
      </trkpt>
      <trkpt lat="48.70622" lon="2.00996">
        <ele>158</ele>
        <time>2021-05-20T07:53:18.000Z</time>
      </trkpt>
      <trkpt lat="48.70622" lon="2.00997">
        <ele>158</ele>
        <time>2021-05-20T07:53:19.000Z</time>
      </trkpt>
      <trkpt lat="48.70623" lon="2.00998">
        <ele>159</ele>
        <time>2021-05-20T07:53:20.000Z</time>
      </trkpt>
      <trkpt lat="48.70623" lon="2.00999">
        <ele>159</ele>
        <time>2021-05-20T07:53:21.000Z</time>
      </trkpt>
      <trkpt lat="48.70623" lon="2.01001">
        <ele>159</ele>
        <time>2021-05-20T07:53:22.000Z</time>
      </trkpt>
      <trkpt lat="48.70623" lon="2.01003">
        <ele>159</ele>
        <time>2021-05-20T07:53:23.000Z</time>
      </trkpt>
      <trkpt lat="48.70623" lon="2.01004">
        <ele>159</ele>
        <time>2021-05-20T07:53:24.000Z</time>
      </trkpt>
      <trkpt lat="48.70622" lon="2.01006">
        <ele>159</ele>
        <time>2021-05-20T07:53:25.000Z</time>
      </trkpt>
      <trkpt lat="48.70622" lon="2.01007">
        <ele>159</ele>
        <time>2021-05-20T07:53:26.000Z</time>
      </trkpt>
      <trkpt lat="48.70622" lon="2.01009">
        <ele>159</ele>
        <time>2021-05-20T07:53:27.000Z</time>
      </trkpt>
      <trkpt lat="48.70621" lon="2.01011">
        <ele>158</ele>
        <time>2021-05-20T07:53:28.000Z</time>
      </trkpt>
      <trkpt lat="48.70621" lon="2.01013">
        <ele>158</ele>
        <time>2021-05-20T07:53:29.000Z</time>
      </trkpt>
      <trkpt lat="48.70621" lon="2.01015">
        <ele>158</ele>
        <time>2021-05-20T07:53:30.000Z</time>
      </trkpt>
      <trkpt lat="48.70621" lon="2.01017">
        <ele>158</ele>
        <time>2021-05-20T07:53:31.000Z</time>
      </trkpt>
      <trkpt lat="48.7062" lon="2.0102">
        <ele>158</ele>
        <time>2021-05-20T07:53:32.000Z</time>
      </trkpt>
      <trkpt lat="48.7062" lon="2.01022">
        <ele>158</ele>
        <time>2021-05-20T07:53:33.000Z</time>
      </trkpt>
      <trkpt lat="48.7062" lon="2.01024">
        <ele>158</ele>
        <time>2021-05-20T07:53:34.000Z</time>
      </trkpt>
      <trkpt lat="48.7062" lon="2.01025">
        <ele>158</ele>
        <time>2021-05-20T07:53:35.000Z</time>
      </trkpt>
      <trkpt lat="48.7062" lon="2.01027">
        <ele>158</ele>
        <time>2021-05-20T07:53:36.000Z</time>
      </trkpt>
      <trkpt lat="48.7062" lon="2.01029">
        <ele>158</ele>
        <time>2021-05-20T07:53:37.000Z</time>
      </trkpt>
      <trkpt lat="48.7062" lon="2.0103">
        <ele>158</ele>
        <time>2021-05-20T07:53:38.000Z</time>
      </trkpt>
      <trkpt lat="48.70619" lon="2.01032">
        <ele>158</ele>
        <time>2021-05-20T07:53:39.000Z</time>
      </trkpt>
      <trkpt lat="48.70619" lon="2.01033">
        <ele>157</ele>
        <time>2021-05-20T07:53:40.000Z</time>
      </trkpt>
      <trkpt lat="48.70619" lon="2.01035">
        <ele>157</ele>
        <time>2021-05-20T07:53:41.000Z</time>
      </trkpt>
      <trkpt lat="48.70619" lon="2.01036">
        <ele>157</ele>
        <time>2021-05-20T07:53:42.000Z</time>
      </trkpt>
      <trkpt lat="48.70619" lon="2.01038">
        <ele>157</ele>
        <time>2021-05-20T07:53:43.000Z</time>
      </trkpt>
      <trkpt lat="48.70619" lon="2.0104">
        <ele>157</ele>
        <time>2021-05-20T07:53:44.000Z</time>
      </trkpt>
      <trkpt lat="48.70618" lon="2.01041">
        <ele>156</ele>
        <time>2021-05-20T07:53:45.000Z</time>
      </trkpt>
      <trkpt lat="48.70618" lon="2.01042">
        <ele>156</ele>
        <time>2021-05-20T07:53:46.000Z</time>
      </trkpt>
      <trkpt lat="48.70618" lon="2.01044">
        <ele>156</ele>
        <time>2021-05-20T07:53:47.000Z</time>
      </trkpt>
      <trkpt lat="48.70617" lon="2.01046">
        <ele>156</ele>
        <time>2021-05-20T07:53:48.000Z</time>
      </trkpt>
      <trkpt lat="48.70617" lon="2.01047">
        <ele>156</ele>
        <time>2021-05-20T07:53:49.000Z</time>
      </trkpt>
      <trkpt lat="48.70616" lon="2.01048">
        <ele>156</ele>
        <time>2021-05-20T07:53:50.000Z</time>
      </trkpt>
      <trkpt lat="48.70616" lon="2.01049">
        <ele>156</ele>
        <time>2021-05-20T07:53:51.000Z</time>
      </trkpt>
      <trkpt lat="48.70615" lon="2.0105">
        <ele>156</ele>
        <time>2021-05-20T07:53:52.000Z</time>
      </trkpt>
      <trkpt lat="48.70614" lon="2.01051">
        <ele>156</ele>
        <time>2021-05-20T07:53:53.000Z</time>
      </trkpt>
      <trkpt lat="48.70614" lon="2.01052">
        <ele>156</ele>
        <time>2021-05-20T07:53:54.000Z</time>
      </trkpt>
      <trkpt lat="48.70613" lon="2.01053">
        <ele>156</ele>
        <time>2021-05-20T07:53:55.000Z</time>
      </trkpt>
      <trkpt lat="48.70612" lon="2.01054">
        <ele>156</ele>
        <time>2021-05-20T07:53:56.000Z</time>
      </trkpt>
      <trkpt lat="48.70612" lon="2.01056">
        <ele>156</ele>
        <time>2021-05-20T07:53:57.000Z</time>
      </trkpt>
      <trkpt lat="48.70612" lon="2.01059">
        <ele>156</ele>
        <time>2021-05-20T07:53:58.000Z</time>
      </trkpt>
      <trkpt lat="48.70612" lon="2.01061">
        <ele>156</ele>
        <time>2021-05-20T07:53:59.000Z</time>
      </trkpt>
      <trkpt lat="48.70612" lon="2.01063">
        <ele>156</ele>
        <time>2021-05-20T07:54:00.000Z</time>
      </trkpt>
      <trkpt lat="48.70612" lon="2.01065">
        <ele>156</ele>
        <time>2021-05-20T07:54:01.000Z</time>
      </trkpt>
      <trkpt lat="48.70611" lon="2.01067">
        <ele>156</ele>
        <time>2021-05-20T07:54:02.000Z</time>
      </trkpt>
      <trkpt lat="48.70611" lon="2.01069">
        <ele>156</ele>
        <time>2021-05-20T07:54:03.000Z</time>
      </trkpt>
      <trkpt lat="48.70611" lon="2.01071">
        <ele>156</ele>
        <time>2021-05-20T07:54:04.000Z</time>
      </trkpt>
      <trkpt lat="48.70611" lon="2.01073">
        <ele>156</ele>
        <time>2021-05-20T07:54:05.000Z</time>
      </trkpt>
      <trkpt lat="48.7061" lon="2.01075">
        <ele>156</ele>
        <time>2021-05-20T07:54:06.000Z</time>
      </trkpt>
      <trkpt lat="48.7061" lon="2.01076">
        <ele>156</ele>
        <time>2021-05-20T07:54:07.000Z</time>
      </trkpt>
      <trkpt lat="48.7061" lon="2.01078">
        <ele>156</ele>
        <time>2021-05-20T07:54:08.000Z</time>
      </trkpt>
      <trkpt lat="48.7061" lon="2.01079">
        <ele>156</ele>
        <time>2021-05-20T07:54:09.000Z</time>
      </trkpt>
      <trkpt lat="48.70609" lon="2.01081">
        <ele>156</ele>
        <time>2021-05-20T07:54:10.000Z</time>
      </trkpt>
      <trkpt lat="48.70608" lon="2.01083">
        <ele>156</ele>
        <time>2021-05-20T07:54:11.000Z</time>
      </trkpt>
      <trkpt lat="48.70608" lon="2.01084">
        <ele>156</ele>
        <time>2021-05-20T07:54:12.000Z</time>
      </trkpt>
      <trkpt lat="48.70607" lon="2.01084">
        <ele>156</ele>
        <time>2021-05-20T07:54:13.000Z</time>
      </trkpt>
      <trkpt lat="48.70606" lon="2.01085">
        <ele>156</ele>
        <time>2021-05-20T07:54:14.000Z</time>
      </trkpt>
      <trkpt lat="48.70605" lon="2.01085">
        <ele>156</ele>
        <time>2021-05-20T07:54:15.000Z</time>
      </trkpt>
      <trkpt lat="48.70605" lon="2.01086">
        <ele>156</ele>
        <time>2021-05-20T07:54:16.000Z</time>
      </trkpt>
      <trkpt lat="48.70604" lon="2.01087">
        <ele>156</ele>
        <time>2021-05-20T07:54:17.000Z</time>
      </trkpt>
      <trkpt lat="48.70603" lon="2.01087">
        <ele>156</ele>
        <time>2021-05-20T07:54:18.000Z</time>
      </trkpt>
      <trkpt lat="48.70602" lon="2.01087">
        <ele>156</ele>
        <time>2021-05-20T07:54:19.000Z</time>
      </trkpt>
      <trkpt lat="48.706" lon="2.01088">
        <ele>156</ele>
        <time>2021-05-20T07:54:20.000Z</time>
      </trkpt>
      <trkpt lat="48.70599" lon="2.01088">
        <ele>156</ele>
        <time>2021-05-20T07:54:21.000Z</time>
      </trkpt>
      <trkpt lat="48.70598" lon="2.01088">
        <ele>156</ele>
        <time>2021-05-20T07:54:22.000Z</time>
      </trkpt>
      <trkpt lat="48.70596" lon="2.01088">
        <ele>157</ele>
        <time>2021-05-20T07:54:23.000Z</time>
      </trkpt>
      <trkpt lat="48.70595" lon="2.01089">
        <ele>157</ele>
        <time>2021-05-20T07:54:24.000Z</time>
      </trkpt>
      <trkpt lat="48.70594" lon="2.01089">
        <ele>157</ele>
        <time>2021-05-20T07:54:25.000Z</time>
      </trkpt>
      <trkpt lat="48.70593" lon="2.0109">
        <ele>157</ele>
        <time>2021-05-20T07:54:26.000Z</time>
      </trkpt>
      <trkpt lat="48.70592" lon="2.0109">
        <ele>157</ele>
        <time>2021-05-20T07:54:27.000Z</time>
      </trkpt>
      <trkpt lat="48.70591" lon="2.0109">
        <ele>157</ele>
        <time>2021-05-20T07:54:28.000Z</time>
      </trkpt>
      <trkpt lat="48.7059" lon="2.0109">
        <ele>158</ele>
        <time>2021-05-20T07:54:29.000Z</time>
      </trkpt>
      <trkpt lat="48.70589" lon="2.0109">
        <ele>158</ele>
        <time>2021-05-20T07:54:30.000Z</time>
      </trkpt>
      <trkpt lat="48.70588" lon="2.0109">
        <ele>158</ele>
        <time>2021-05-20T07:54:31.000Z</time>
      </trkpt>
      <trkpt lat="48.70588" lon="2.0109">
        <ele>158</ele>
        <time>2021-05-20T07:54:32.000Z</time>
      </trkpt>
      <trkpt lat="48.70587" lon="2.0109">
        <ele>159</ele>
        <time>2021-05-20T07:54:33.000Z</time>
      </trkpt>
      <trkpt lat="48.70586" lon="2.0109">
        <ele>159</ele>
        <time>2021-05-20T07:54:34.000Z</time>
      </trkpt>
      <trkpt lat="48.70586" lon="2.0109">
        <ele>159</ele>
        <time>2021-05-20T07:54:35.000Z</time>
      </trkpt>
      <trkpt lat="48.70585" lon="2.01091">
        <ele>159</ele>
        <time>2021-05-20T07:54:36.000Z</time>
      </trkpt>
      <trkpt lat="48.70585" lon="2.01091">
        <ele>160</ele>
        <time>2021-05-20T07:54:37.000Z</time>
      </trkpt>
      <trkpt lat="48.70584" lon="2.01091">
        <ele>160</ele>
        <time>2021-05-20T07:54:38.000Z</time>
      </trkpt>
      <trkpt lat="48.70583" lon="2.01091">
        <ele>160</ele>
        <time>2021-05-20T07:54:39.000Z</time>
      </trkpt>
      <trkpt lat="48.70582" lon="2.01092">
        <ele>160</ele>
        <time>2021-05-20T07:54:40.000Z</time>
      </trkpt>
      <trkpt lat="48.70581" lon="2.01092">
        <ele>160</ele>
        <time>2021-05-20T07:54:41.000Z</time>
      </trkpt>
      <trkpt lat="48.7058" lon="2.01092">
        <ele>160</ele>
        <time>2021-05-20T07:54:42.000Z</time>
      </trkpt>
      <trkpt lat="48.70579" lon="2.01092">
        <ele>161</ele>
        <time>2021-05-20T07:54:43.000Z</time>
      </trkpt>
      <trkpt lat="48.70578" lon="2.01092">
        <ele>161</ele>
        <time>2021-05-20T07:54:44.000Z</time>
      </trkpt>
      <trkpt lat="48.70578" lon="2.01092">
        <ele>161</ele>
        <time>2021-05-20T07:54:45.000Z</time>
      </trkpt>
      <trkpt lat="48.70577" lon="2.01093">
        <ele>161</ele>
        <time>2021-05-20T07:54:46.000Z</time>
      </trkpt>
      <trkpt lat="48.70575" lon="2.01093">
        <ele>161</ele>
        <time>2021-05-20T07:54:47.000Z</time>
      </trkpt>
      <trkpt lat="48.70574" lon="2.01093">
        <ele>161</ele>
        <time>2021-05-20T07:54:48.000Z</time>
      </trkpt>
      <trkpt lat="48.70573" lon="2.01093">
        <ele>161</ele>
        <time>2021-05-20T07:54:49.000Z</time>
      </trkpt>
      <trkpt lat="48.70572" lon="2.01093">
        <ele>161</ele>
        <time>2021-05-20T07:54:50.000Z</time>
      </trkpt>
      <trkpt lat="48.70571" lon="2.01094">
        <ele>161</ele>
        <time>2021-05-20T07:54:51.000Z</time>
      </trkpt>
      <trkpt lat="48.7057" lon="2.01094">
        <ele>161</ele>
        <time>2021-05-20T07:54:52.000Z</time>
      </trkpt>
      <trkpt lat="48.70569" lon="2.01095">
        <ele>161</ele>
        <time>2021-05-20T07:54:53.000Z</time>
      </trkpt>
      <trkpt lat="48.70568" lon="2.01095">
        <ele>161</ele>
        <time>2021-05-20T07:54:54.000Z</time>
      </trkpt>
      <trkpt lat="48.70567" lon="2.01095">
        <ele>161</ele>
        <time>2021-05-20T07:54:55.000Z</time>
      </trkpt>
      <trkpt lat="48.70566" lon="2.01095">
        <ele>161</ele>
        <time>2021-05-20T07:54:56.000Z</time>
      </trkpt>
      <trkpt lat="48.70566" lon="2.01095">
        <ele>161</ele>
        <time>2021-05-20T07:54:57.000Z</time>
      </trkpt>
      <trkpt lat="48.70565" lon="2.01095">
        <ele>161</ele>
        <time>2021-05-20T07:54:58.000Z</time>
      </trkpt>
      <trkpt lat="48.70564" lon="2.01095">
        <ele>161</ele>
        <time>2021-05-20T07:54:59.000Z</time>
      </trkpt>
      <trkpt lat="48.70562" lon="2.01095">
        <ele>162</ele>
        <time>2021-05-20T07:55:00.000Z</time>
      </trkpt>
      <trkpt lat="48.70561" lon="2.01095">
        <ele>162</ele>
        <time>2021-05-20T07:55:01.000Z</time>
      </trkpt>
      <trkpt lat="48.7056" lon="2.01095">
        <ele>162</ele>
        <time>2021-05-20T07:55:02.000Z</time>
      </trkpt>
      <trkpt lat="48.70558" lon="2.01095">
        <ele>162</ele>
        <time>2021-05-20T07:55:03.000Z</time>
      </trkpt>
      <trkpt lat="48.70557" lon="2.01094">
        <ele>162</ele>
        <time>2021-05-20T07:55:04.000Z</time>
      </trkpt>
      <trkpt lat="48.70556" lon="2.01095">
        <ele>162</ele>
        <time>2021-05-20T07:55:05.000Z</time>
      </trkpt>
      <trkpt lat="48.70555" lon="2.01095">
        <ele>162</ele>
        <time>2021-05-20T07:55:06.000Z</time>
      </trkpt>
      <trkpt lat="48.70554" lon="2.01095">
        <ele>163</ele>
        <time>2021-05-20T07:55:07.000Z</time>
      </trkpt>
      <trkpt lat="48.70553" lon="2.01095">
        <ele>163</ele>
        <time>2021-05-20T07:55:08.000Z</time>
      </trkpt>
      <trkpt lat="48.70552" lon="2.01095">
        <ele>163</ele>
        <time>2021-05-20T07:55:09.000Z</time>
      </trkpt>
      <trkpt lat="48.70551" lon="2.01096">
        <ele>163</ele>
        <time>2021-05-20T07:55:10.000Z</time>
      </trkpt>
      <trkpt lat="48.7055" lon="2.01096">
        <ele>163</ele>
        <time>2021-05-20T07:55:11.000Z</time>
      </trkpt>
      <trkpt lat="48.70549" lon="2.01096">
        <ele>163</ele>
        <time>2021-05-20T07:55:12.000Z</time>
      </trkpt>
      <trkpt lat="48.70548" lon="2.01096">
        <ele>163</ele>
        <time>2021-05-20T07:55:13.000Z</time>
      </trkpt>
      <trkpt lat="48.70547" lon="2.01097">
        <ele>163</ele>
        <time>2021-05-20T07:55:14.000Z</time>
      </trkpt>
      <trkpt lat="48.70546" lon="2.01097">
        <ele>164</ele>
        <time>2021-05-20T07:55:15.000Z</time>
      </trkpt>
      <trkpt lat="48.70545" lon="2.01097">
        <ele>164</ele>
        <time>2021-05-20T07:55:16.000Z</time>
      </trkpt>
      <trkpt lat="48.70544" lon="2.01098">
        <ele>164</ele>
        <time>2021-05-20T07:55:17.000Z</time>
      </trkpt>
      <trkpt lat="48.70544" lon="2.01099">
        <ele>164</ele>
        <time>2021-05-20T07:55:18.000Z</time>
      </trkpt>
      <trkpt lat="48.70543" lon="2.01099">
        <ele>164</ele>
        <time>2021-05-20T07:55:19.000Z</time>
      </trkpt>
      <trkpt lat="48.70542" lon="2.011">
        <ele>164</ele>
        <time>2021-05-20T07:55:20.000Z</time>
      </trkpt>
      <trkpt lat="48.70541" lon="2.011">
        <ele>164</ele>
        <time>2021-05-20T07:55:21.000Z</time>
      </trkpt>
      <trkpt lat="48.70541" lon="2.01101">
        <ele>164</ele>
        <time>2021-05-20T07:55:22.000Z</time>
      </trkpt>
      <trkpt lat="48.7054" lon="2.01101">
        <ele>164</ele>
        <time>2021-05-20T07:55:23.000Z</time>
      </trkpt>
      <trkpt lat="48.70539" lon="2.01102">
        <ele>164</ele>
        <time>2021-05-20T07:55:24.000Z</time>
      </trkpt>
      <trkpt lat="48.70538" lon="2.01102">
        <ele>164</ele>
        <time>2021-05-20T07:55:25.000Z</time>
      </trkpt>
      <trkpt lat="48.70537" lon="2.01103">
        <ele>164</ele>
        <time>2021-05-20T07:55:26.000Z</time>
      </trkpt>
      <trkpt lat="48.70537" lon="2.01103">
        <ele>164</ele>
        <time>2021-05-20T07:55:27.000Z</time>
      </trkpt>
      <trkpt lat="48.70536" lon="2.01103">
        <ele>163</ele>
        <time>2021-05-20T07:55:28.000Z</time>
      </trkpt>
      <trkpt lat="48.70535" lon="2.01104">
        <ele>163</ele>
        <time>2021-05-20T07:55:29.000Z</time>
      </trkpt>
      <trkpt lat="48.70534" lon="2.01104">
        <ele>163</ele>
        <time>2021-05-20T07:55:30.000Z</time>
      </trkpt>
      <trkpt lat="48.70534" lon="2.01104">
        <ele>164</ele>
        <time>2021-05-20T07:55:31.000Z</time>
      </trkpt>
      <trkpt lat="48.70533" lon="2.01104">
        <ele>164</ele>
        <time>2021-05-20T07:55:32.000Z</time>
      </trkpt>
      <trkpt lat="48.70532" lon="2.01104">
        <ele>164</ele>
        <time>2021-05-20T07:55:33.000Z</time>
      </trkpt>
      <trkpt lat="48.70531" lon="2.01105">
        <ele>164</ele>
        <time>2021-05-20T07:55:34.000Z</time>
      </trkpt>
      <trkpt lat="48.7053" lon="2.01105">
        <ele>164</ele>
        <time>2021-05-20T07:55:35.000Z</time>
      </trkpt>
      <trkpt lat="48.70529" lon="2.01106">
        <ele>164</ele>
        <time>2021-05-20T07:55:36.000Z</time>
      </trkpt>
      <trkpt lat="48.70528" lon="2.01106">
        <ele>164</ele>
        <time>2021-05-20T07:55:37.000Z</time>
      </trkpt>
      <trkpt lat="48.70527" lon="2.01106">
        <ele>164</ele>
        <time>2021-05-20T07:55:38.000Z</time>
      </trkpt>
      <trkpt lat="48.70526" lon="2.01106">
        <ele>163</ele>
        <time>2021-05-20T07:55:39.000Z</time>
      </trkpt>
      <trkpt lat="48.70526" lon="2.01106">
        <ele>163</ele>
        <time>2021-05-20T07:55:40.000Z</time>
      </trkpt>
      <trkpt lat="48.70525" lon="2.01106">
        <ele>163</ele>
        <time>2021-05-20T07:55:41.000Z</time>
      </trkpt>
      <trkpt lat="48.70524" lon="2.01106">
        <ele>163</ele>
        <time>2021-05-20T07:55:42.000Z</time>
      </trkpt>
      <trkpt lat="48.70523" lon="2.01107">
        <ele>163</ele>
        <time>2021-05-20T07:55:43.000Z</time>
      </trkpt>
      <trkpt lat="48.70523" lon="2.01107">
        <ele>162</ele>
        <time>2021-05-20T07:55:44.000Z</time>
      </trkpt>
      <trkpt lat="48.70522" lon="2.01108">
        <ele>162</ele>
        <time>2021-05-20T07:55:45.000Z</time>
      </trkpt>
      <trkpt lat="48.70521" lon="2.01108">
        <ele>162</ele>
        <time>2021-05-20T07:55:46.000Z</time>
      </trkpt>
      <trkpt lat="48.7052" lon="2.01108">
        <ele>161</ele>
        <time>2021-05-20T07:55:47.000Z</time>
      </trkpt>
      <trkpt lat="48.70519" lon="2.01109">
        <ele>161</ele>
        <time>2021-05-20T07:55:48.000Z</time>
      </trkpt>
      <trkpt lat="48.70518" lon="2.01108">
        <ele>161</ele>
        <time>2021-05-20T07:55:49.000Z</time>
      </trkpt>
      <trkpt lat="48.70517" lon="2.01108">
        <ele>161</ele>
        <time>2021-05-20T07:55:50.000Z</time>
      </trkpt>
      <trkpt lat="48.70516" lon="2.01108">
        <ele>160</ele>
        <time>2021-05-20T07:55:51.000Z</time>
      </trkpt>
      <trkpt lat="48.70515" lon="2.01108">
        <ele>160</ele>
        <time>2021-05-20T07:55:52.000Z</time>
      </trkpt>
      <trkpt lat="48.70514" lon="2.01108">
        <ele>160</ele>
        <time>2021-05-20T07:55:53.000Z</time>
      </trkpt>
      <trkpt lat="48.70513" lon="2.01108">
        <ele>160</ele>
        <time>2021-05-20T07:55:54.000Z</time>
      </trkpt>
      <trkpt lat="48.70512" lon="2.01109">
        <ele>159</ele>
        <time>2021-05-20T07:55:55.000Z</time>
      </trkpt>
      <trkpt lat="48.70511" lon="2.01108">
        <ele>159</ele>
        <time>2021-05-20T07:55:56.000Z</time>
      </trkpt>
      <trkpt lat="48.7051" lon="2.01108">
        <ele>159</ele>
        <time>2021-05-20T07:55:57.000Z</time>
      </trkpt>
      <trkpt lat="48.70509" lon="2.01108">
        <ele>159</ele>
        <time>2021-05-20T07:55:58.000Z</time>
      </trkpt>
      <trkpt lat="48.70508" lon="2.01108">
        <ele>158</ele>
        <time>2021-05-20T07:55:59.000Z</time>
      </trkpt>
      <trkpt lat="48.70507" lon="2.01108">
        <ele>158</ele>
        <time>2021-05-20T07:56:00.000Z</time>
      </trkpt>
      <trkpt lat="48.70506" lon="2.01108">
        <ele>158</ele>
        <time>2021-05-20T07:56:01.000Z</time>
      </trkpt>
      <trkpt lat="48.70506" lon="2.01107">
        <ele>157</ele>
        <time>2021-05-20T07:56:02.000Z</time>
      </trkpt>
      <trkpt lat="48.70504" lon="2.01107">
        <ele>157</ele>
        <time>2021-05-20T07:56:03.000Z</time>
      </trkpt>
      <trkpt lat="48.70504" lon="2.01107">
        <ele>157</ele>
        <time>2021-05-20T07:56:04.000Z</time>
      </trkpt>
      <trkpt lat="48.70503" lon="2.01107">
        <ele>157</ele>
        <time>2021-05-20T07:56:05.000Z</time>
      </trkpt>
      <trkpt lat="48.70502" lon="2.01107">
        <ele>156</ele>
        <time>2021-05-20T07:56:06.000Z</time>
      </trkpt>
      <trkpt lat="48.70501" lon="2.01107">
        <ele>156</ele>
        <time>2021-05-20T07:56:07.000Z</time>
      </trkpt>
      <trkpt lat="48.705" lon="2.01108">
        <ele>156</ele>
        <time>2021-05-20T07:56:08.000Z</time>
      </trkpt>
      <trkpt lat="48.70499" lon="2.01108">
        <ele>156</ele>
        <time>2021-05-20T07:56:09.000Z</time>
      </trkpt>
      <trkpt lat="48.70499" lon="2.01109">
        <ele>155</ele>
        <time>2021-05-20T07:56:10.000Z</time>
      </trkpt>
      <trkpt lat="48.70498" lon="2.0111">
        <ele>155</ele>
        <time>2021-05-20T07:56:11.000Z</time>
      </trkpt>
      <trkpt lat="48.70497" lon="2.0111">
        <ele>155</ele>
        <time>2021-05-20T07:56:12.000Z</time>
      </trkpt>
      <trkpt lat="48.70496" lon="2.01111">
        <ele>154</ele>
        <time>2021-05-20T07:56:13.000Z</time>
      </trkpt>
      <trkpt lat="48.70495" lon="2.01112">
        <ele>154</ele>
        <time>2021-05-20T07:56:14.000Z</time>
      </trkpt>
      <trkpt lat="48.70494" lon="2.01113">
        <ele>154</ele>
        <time>2021-05-20T07:56:15.000Z</time>
      </trkpt>
      <trkpt lat="48.70494" lon="2.01113">
        <ele>154</ele>
        <time>2021-05-20T07:56:16.000Z</time>
      </trkpt>
      <trkpt lat="48.70493" lon="2.01114">
        <ele>153</ele>
        <time>2021-05-20T07:56:17.000Z</time>
      </trkpt>
      <trkpt lat="48.70492" lon="2.01114">
        <ele>153</ele>
        <time>2021-05-20T07:56:18.000Z</time>
      </trkpt>
      <trkpt lat="48.70491" lon="2.01115">
        <ele>153</ele>
        <time>2021-05-20T07:56:19.000Z</time>
      </trkpt>
      <trkpt lat="48.7049" lon="2.01116">
        <ele>152</ele>
        <time>2021-05-20T07:56:20.000Z</time>
      </trkpt>
      <trkpt lat="48.70489" lon="2.01117">
        <ele>152</ele>
        <time>2021-05-20T07:56:21.000Z</time>
      </trkpt>
      <trkpt lat="48.70489" lon="2.01117">
        <ele>152</ele>
        <time>2021-05-20T07:56:22.000Z</time>
      </trkpt>
      <trkpt lat="48.70488" lon="2.01118">
        <ele>151</ele>
        <time>2021-05-20T07:56:23.000Z</time>
      </trkpt>
      <trkpt lat="48.70488" lon="2.01119">
        <ele>151</ele>
        <time>2021-05-20T07:56:24.000Z</time>
      </trkpt>
      <trkpt lat="48.70488" lon="2.0112">
        <ele>151</ele>
        <time>2021-05-20T07:56:25.000Z</time>
      </trkpt>
      <trkpt lat="48.70487" lon="2.0112">
        <ele>151</ele>
        <time>2021-05-20T07:56:26.000Z</time>
      </trkpt>
      <trkpt lat="48.70486" lon="2.01121">
        <ele>150</ele>
        <time>2021-05-20T07:56:27.000Z</time>
      </trkpt>
      <trkpt lat="48.70485" lon="2.01121">
        <ele>150</ele>
        <time>2021-05-20T07:56:28.000Z</time>
      </trkpt>
      <trkpt lat="48.70485" lon="2.01122">
        <ele>150</ele>
        <time>2021-05-20T07:56:29.000Z</time>
      </trkpt>
      <trkpt lat="48.70484" lon="2.01122">
        <ele>149</ele>
        <time>2021-05-20T07:56:30.000Z</time>
      </trkpt>
      <trkpt lat="48.70483" lon="2.01122">
        <ele>149</ele>
        <time>2021-05-20T07:56:31.000Z</time>
      </trkpt>
      <trkpt lat="48.70482" lon="2.01122">
        <ele>149</ele>
        <time>2021-05-20T07:56:32.000Z</time>
      </trkpt>
      <trkpt lat="48.70481" lon="2.01123">
        <ele>149</ele>
        <time>2021-05-20T07:56:33.000Z</time>
      </trkpt>
      <trkpt lat="48.7048" lon="2.01123">
        <ele>148</ele>
        <time>2021-05-20T07:56:34.000Z</time>
      </trkpt>
      <trkpt lat="48.70479" lon="2.01124">
        <ele>148</ele>
        <time>2021-05-20T07:56:35.000Z</time>
      </trkpt>
      <trkpt lat="48.70478" lon="2.01124">
        <ele>148</ele>
        <time>2021-05-20T07:56:36.000Z</time>
      </trkpt>
      <trkpt lat="48.70477" lon="2.01125">
        <ele>148</ele>
        <time>2021-05-20T07:56:37.000Z</time>
      </trkpt>
      <trkpt lat="48.70476" lon="2.01125">
        <ele>148</ele>
        <time>2021-05-20T07:56:38.000Z</time>
      </trkpt>
      <trkpt lat="48.70476" lon="2.01125">
        <ele>147</ele>
        <time>2021-05-20T07:56:39.000Z</time>
      </trkpt>
      <trkpt lat="48.70475" lon="2.01125">
        <ele>147</ele>
        <time>2021-05-20T07:56:40.000Z</time>
      </trkpt>
      <trkpt lat="48.70474" lon="2.01126">
        <ele>147</ele>
        <time>2021-05-20T07:56:41.000Z</time>
      </trkpt>
      <trkpt lat="48.70474" lon="2.01126">
        <ele>147</ele>
        <time>2021-05-20T07:56:42.000Z</time>
      </trkpt>
      <trkpt lat="48.70473" lon="2.01126">
        <ele>147</ele>
        <time>2021-05-20T07:56:43.000Z</time>
      </trkpt>
      <trkpt lat="48.70472" lon="2.01126">
        <ele>147</ele>
        <time>2021-05-20T07:56:44.000Z</time>
      </trkpt>
      <trkpt lat="48.70471" lon="2.01127">
        <ele>146</ele>
        <time>2021-05-20T07:56:45.000Z</time>
      </trkpt>
      <trkpt lat="48.70471" lon="2.01127">
        <ele>146</ele>
        <time>2021-05-20T07:56:46.000Z</time>
      </trkpt>
      <trkpt lat="48.7047" lon="2.01128">
        <ele>146</ele>
        <time>2021-05-20T07:56:47.000Z</time>
      </trkpt>
      <trkpt lat="48.70469" lon="2.01128">
        <ele>146</ele>
        <time>2021-05-20T07:56:48.000Z</time>
      </trkpt>
      <trkpt lat="48.70468" lon="2.01128">
        <ele>146</ele>
        <time>2021-05-20T07:56:49.000Z</time>
      </trkpt>
      <trkpt lat="48.70467" lon="2.01129">
        <ele>146</ele>
        <time>2021-05-20T07:56:50.000Z</time>
      </trkpt>
      <trkpt lat="48.70466" lon="2.01129">
        <ele>146</ele>
        <time>2021-05-20T07:56:51.000Z</time>
      </trkpt>
      <trkpt lat="48.70465" lon="2.0113">
        <ele>145</ele>
        <time>2021-05-20T07:56:52.000Z</time>
      </trkpt>
      <trkpt lat="48.70464" lon="2.0113">
        <ele>145</ele>
        <time>2021-05-20T07:56:53.000Z</time>
      </trkpt>
      <trkpt lat="48.70463" lon="2.01131">
        <ele>145</ele>
        <time>2021-05-20T07:56:54.000Z</time>
      </trkpt>
      <trkpt lat="48.70462" lon="2.01131">
        <ele>145</ele>
        <time>2021-05-20T07:56:55.000Z</time>
      </trkpt>
      <trkpt lat="48.70461" lon="2.01131">
        <ele>144</ele>
        <time>2021-05-20T07:56:56.000Z</time>
      </trkpt>
      <trkpt lat="48.7046" lon="2.01131">
        <ele>144</ele>
        <time>2021-05-20T07:56:57.000Z</time>
      </trkpt>
      <trkpt lat="48.70459" lon="2.01131">
        <ele>144</ele>
        <time>2021-05-20T07:56:58.000Z</time>
      </trkpt>
      <trkpt lat="48.70458" lon="2.01132">
        <ele>144</ele>
        <time>2021-05-20T07:56:59.000Z</time>
      </trkpt>
      <trkpt lat="48.70457" lon="2.01132">
        <ele>143</ele>
        <time>2021-05-20T07:57:00.000Z</time>
      </trkpt>
      <trkpt lat="48.70456" lon="2.01133">
        <ele>143</ele>
        <time>2021-05-20T07:57:01.000Z</time>
      </trkpt>
      <trkpt lat="48.70455" lon="2.01133">
        <ele>143</ele>
        <time>2021-05-20T07:57:02.000Z</time>
      </trkpt>
      <trkpt lat="48.70454" lon="2.01134">
        <ele>142</ele>
        <time>2021-05-20T07:57:03.000Z</time>
      </trkpt>
      <trkpt lat="48.70453" lon="2.01134">
        <ele>142</ele>
        <time>2021-05-20T07:57:04.000Z</time>
      </trkpt>
      <trkpt lat="48.70452" lon="2.01134">
        <ele>142</ele>
        <time>2021-05-20T07:57:05.000Z</time>
      </trkpt>
      <trkpt lat="48.70451" lon="2.01135">
        <ele>142</ele>
        <time>2021-05-20T07:57:06.000Z</time>
      </trkpt>
      <trkpt lat="48.7045" lon="2.01135">
        <ele>141</ele>
        <time>2021-05-20T07:57:07.000Z</time>
      </trkpt>
      <trkpt lat="48.7045" lon="2.01136">
        <ele>141</ele>
        <time>2021-05-20T07:57:08.000Z</time>
      </trkpt>
      <trkpt lat="48.70449" lon="2.01136">
        <ele>141</ele>
        <time>2021-05-20T07:57:09.000Z</time>
      </trkpt>
      <trkpt lat="48.70448" lon="2.01137">
        <ele>141</ele>
        <time>2021-05-20T07:57:10.000Z</time>
      </trkpt>
      <trkpt lat="48.70447" lon="2.01138">
        <ele>140</ele>
        <time>2021-05-20T07:57:11.000Z</time>
      </trkpt>
      <trkpt lat="48.70447" lon="2.01138">
        <ele>140</ele>
        <time>2021-05-20T07:57:12.000Z</time>
      </trkpt>
      <trkpt lat="48.70445" lon="2.0114">
        <ele>140</ele>
        <time>2021-05-20T07:57:13.000Z</time>
      </trkpt>
      <trkpt lat="48.70444" lon="2.01141">
        <ele>139</ele>
        <time>2021-05-20T07:57:14.000Z</time>
      </trkpt>
      <trkpt lat="48.70443" lon="2.01142">
        <ele>139</ele>
        <time>2021-05-20T07:57:15.000Z</time>
      </trkpt>
      <trkpt lat="48.70442" lon="2.01143">
        <ele>139</ele>
        <time>2021-05-20T07:57:16.000Z</time>
      </trkpt>
      <trkpt lat="48.70441" lon="2.01144">
        <ele>138</ele>
        <time>2021-05-20T07:57:17.000Z</time>
      </trkpt>
      <trkpt lat="48.7044" lon="2.01145">
        <ele>138</ele>
        <time>2021-05-20T07:57:18.000Z</time>
      </trkpt>
      <trkpt lat="48.70439" lon="2.01146">
        <ele>138</ele>
        <time>2021-05-20T07:57:19.000Z</time>
      </trkpt>
      <trkpt lat="48.70439" lon="2.01147">
        <ele>138</ele>
        <time>2021-05-20T07:57:20.000Z</time>
      </trkpt>
      <trkpt lat="48.70438" lon="2.01149">
        <ele>137</ele>
        <time>2021-05-20T07:57:21.000Z</time>
      </trkpt>
      <trkpt lat="48.70437" lon="2.01151">
        <ele>137</ele>
        <time>2021-05-20T07:57:22.000Z</time>
      </trkpt>
      <trkpt lat="48.70437" lon="2.01152">
        <ele>136</ele>
        <time>2021-05-20T07:57:23.000Z</time>
      </trkpt>
      <trkpt lat="48.70436" lon="2.01154">
        <ele>136</ele>
        <time>2021-05-20T07:57:24.000Z</time>
      </trkpt>
      <trkpt lat="48.70436" lon="2.01157">
        <ele>135</ele>
        <time>2021-05-20T07:57:25.000Z</time>
      </trkpt>
      <trkpt lat="48.70436" lon="2.01159">
        <ele>134</ele>
        <time>2021-05-20T07:57:26.000Z</time>
      </trkpt>
      <trkpt lat="48.70436" lon="2.01161">
        <ele>134</ele>
        <time>2021-05-20T07:57:27.000Z</time>
      </trkpt>
      <trkpt lat="48.70435" lon="2.01164">
        <ele>133</ele>
        <time>2021-05-20T07:57:28.000Z</time>
      </trkpt>
      <trkpt lat="48.70435" lon="2.01166">
        <ele>132</ele>
        <time>2021-05-20T07:57:29.000Z</time>
      </trkpt>
      <trkpt lat="48.70435" lon="2.01168">
        <ele>132</ele>
        <time>2021-05-20T07:57:30.000Z</time>
      </trkpt>
      <trkpt lat="48.70435" lon="2.01169">
        <ele>131</ele>
        <time>2021-05-20T07:57:31.000Z</time>
      </trkpt>
      <trkpt lat="48.70434" lon="2.01171">
        <ele>131</ele>
        <time>2021-05-20T07:57:32.000Z</time>
      </trkpt>
      <trkpt lat="48.70434" lon="2.01173">
        <ele>130</ele>
        <time>2021-05-20T07:57:33.000Z</time>
      </trkpt>
      <trkpt lat="48.70434" lon="2.01175">
        <ele>130</ele>
        <time>2021-05-20T07:57:34.000Z</time>
      </trkpt>
      <trkpt lat="48.70434" lon="2.01177">
        <ele>129</ele>
        <time>2021-05-20T07:57:35.000Z</time>
      </trkpt>
      <trkpt lat="48.70434" lon="2.01179">
        <ele>129</ele>
        <time>2021-05-20T07:57:36.000Z</time>
      </trkpt>
      <trkpt lat="48.70434" lon="2.01181">
        <ele>129</ele>
        <time>2021-05-20T07:57:37.000Z</time>
      </trkpt>
      <trkpt lat="48.70434" lon="2.01183">
        <ele>128</ele>
        <time>2021-05-20T07:57:38.000Z</time>
      </trkpt>
      <trkpt lat="48.70434" lon="2.01185">
        <ele>128</ele>
        <time>2021-05-20T07:57:39.000Z</time>
      </trkpt>
      <trkpt lat="48.70434" lon="2.01187">
        <ele>128</ele>
        <time>2021-05-20T07:57:40.000Z</time>
      </trkpt>
      <trkpt lat="48.70434" lon="2.01189">
        <ele>128</ele>
        <time>2021-05-20T07:57:41.000Z</time>
      </trkpt>
      <trkpt lat="48.70433" lon="2.01191">
        <ele>127</ele>
        <time>2021-05-20T07:57:42.000Z</time>
      </trkpt>
      <trkpt lat="48.70433" lon="2.01193">
        <ele>127</ele>
        <time>2021-05-20T07:57:43.000Z</time>
      </trkpt>
      <trkpt lat="48.70433" lon="2.01195">
        <ele>127</ele>
        <time>2021-05-20T07:57:44.000Z</time>
      </trkpt>
      <trkpt lat="48.70433" lon="2.01196">
        <ele>127</ele>
        <time>2021-05-20T07:57:45.000Z</time>
      </trkpt>
      <trkpt lat="48.70433" lon="2.01198">
        <ele>127</ele>
        <time>2021-05-20T07:57:46.000Z</time>
      </trkpt>
      <trkpt lat="48.70433" lon="2.012">
        <ele>126</ele>
        <time>2021-05-20T07:57:47.000Z</time>
      </trkpt>
      <trkpt lat="48.70433" lon="2.01202">
        <ele>126</ele>
        <time>2021-05-20T07:57:48.000Z</time>
      </trkpt>
      <trkpt lat="48.70432" lon="2.01204">
        <ele>126</ele>
        <time>2021-05-20T07:57:49.000Z</time>
      </trkpt>
      <trkpt lat="48.70432" lon="2.01205">
        <ele>126</ele>
        <time>2021-05-20T07:57:50.000Z</time>
      </trkpt>
      <trkpt lat="48.70432" lon="2.01207">
        <ele>126</ele>
        <time>2021-05-20T07:57:51.000Z</time>
      </trkpt>
      <trkpt lat="48.70431" lon="2.01208">
        <ele>126</ele>
        <time>2021-05-20T07:57:52.000Z</time>
      </trkpt>
      <trkpt lat="48.7043" lon="2.01209">
        <ele>125</ele>
        <time>2021-05-20T07:57:53.000Z</time>
      </trkpt>
      <trkpt lat="48.70429" lon="2.01211">
        <ele>125</ele>
        <time>2021-05-20T07:57:54.000Z</time>
      </trkpt>
      <trkpt lat="48.70429" lon="2.01212">
        <ele>125</ele>
        <time>2021-05-20T07:57:55.000Z</time>
      </trkpt>
      <trkpt lat="48.70428" lon="2.01213">
        <ele>125</ele>
        <time>2021-05-20T07:57:56.000Z</time>
      </trkpt>
      <trkpt lat="48.70427" lon="2.01215">
        <ele>125</ele>
        <time>2021-05-20T07:57:57.000Z</time>
      </trkpt>
      <trkpt lat="48.70427" lon="2.01216">
        <ele>125</ele>
        <time>2021-05-20T07:57:58.000Z</time>
      </trkpt>
      <trkpt lat="48.70426" lon="2.01217">
        <ele>125</ele>
        <time>2021-05-20T07:57:59.000Z</time>
      </trkpt>
      <trkpt lat="48.70425" lon="2.01219">
        <ele>125</ele>
        <time>2021-05-20T07:58:00.000Z</time>
      </trkpt>
      <trkpt lat="48.70424" lon="2.0122">
        <ele>125</ele>
        <time>2021-05-20T07:58:01.000Z</time>
      </trkpt>
      <trkpt lat="48.70424" lon="2.01221">
        <ele>125</ele>
        <time>2021-05-20T07:58:02.000Z</time>
      </trkpt>
      <trkpt lat="48.70423" lon="2.01222">
        <ele>125</ele>
        <time>2021-05-20T07:58:03.000Z</time>
      </trkpt>
      <trkpt lat="48.70423" lon="2.01223">
        <ele>125</ele>
        <time>2021-05-20T07:58:04.000Z</time>
      </trkpt>
      <trkpt lat="48.70422" lon="2.01223">
        <ele>125</ele>
        <time>2021-05-20T07:58:05.000Z</time>
      </trkpt>
      <trkpt lat="48.70422" lon="2.01224">
        <ele>125</ele>
        <time>2021-05-20T07:58:06.000Z</time>
      </trkpt>
      <trkpt lat="48.7042" lon="2.01228">
        <ele>124</ele>
        <time>2021-05-20T07:58:07.000Z</time>
      </trkpt>
      <trkpt lat="48.70419" lon="2.01229">
        <ele>124</ele>
        <time>2021-05-20T07:58:08.000Z</time>
      </trkpt>
      <trkpt lat="48.70419" lon="2.01231">
        <ele>124</ele>
        <time>2021-05-20T07:58:09.000Z</time>
      </trkpt>
      <trkpt lat="48.70418" lon="2.01232">
        <ele>124</ele>
        <time>2021-05-20T07:58:10.000Z</time>
      </trkpt>
      <trkpt lat="48.70418" lon="2.01233">
        <ele>123</ele>
        <time>2021-05-20T07:58:11.000Z</time>
      </trkpt>
      <trkpt lat="48.70417" lon="2.01234">
        <ele>123</ele>
        <time>2021-05-20T07:58:12.000Z</time>
      </trkpt>
      <trkpt lat="48.70417" lon="2.01236">
        <ele>123</ele>
        <time>2021-05-20T07:58:13.000Z</time>
      </trkpt>
      <trkpt lat="48.70416" lon="2.01237">
        <ele>123</ele>
        <time>2021-05-20T07:58:14.000Z</time>
      </trkpt>
      <trkpt lat="48.70416" lon="2.01238">
        <ele>123</ele>
        <time>2021-05-20T07:58:15.000Z</time>
      </trkpt>
      <trkpt lat="48.70415" lon="2.01239">
        <ele>123</ele>
        <time>2021-05-20T07:58:16.000Z</time>
      </trkpt>
      <trkpt lat="48.70415" lon="2.01241">
        <ele>123</ele>
        <time>2021-05-20T07:58:17.000Z</time>
      </trkpt>
      <trkpt lat="48.70415" lon="2.01242">
        <ele>123</ele>
        <time>2021-05-20T07:58:18.000Z</time>
      </trkpt>
      <trkpt lat="48.70414" lon="2.01244">
        <ele>123</ele>
        <time>2021-05-20T07:58:19.000Z</time>
      </trkpt>
      <trkpt lat="48.70414" lon="2.01245">
        <ele>123</ele>
        <time>2021-05-20T07:58:20.000Z</time>
      </trkpt>
      <trkpt lat="48.70414" lon="2.01246">
        <ele>123</ele>
        <time>2021-05-20T07:58:21.000Z</time>
      </trkpt>
      <trkpt lat="48.70413" lon="2.01248">
        <ele>123</ele>
        <time>2021-05-20T07:58:22.000Z</time>
      </trkpt>
      <trkpt lat="48.70413" lon="2.01249">
        <ele>123</ele>
        <time>2021-05-20T07:58:23.000Z</time>
      </trkpt>
      <trkpt lat="48.70412" lon="2.0125">
        <ele>123</ele>
        <time>2021-05-20T07:58:24.000Z</time>
      </trkpt>
      <trkpt lat="48.70412" lon="2.01251">
        <ele>123</ele>
        <time>2021-05-20T07:58:25.000Z</time>
      </trkpt>
      <trkpt lat="48.70411" lon="2.01252">
        <ele>123</ele>
        <time>2021-05-20T07:58:26.000Z</time>
      </trkpt>
      <trkpt lat="48.7041" lon="2.01253">
        <ele>123</ele>
        <time>2021-05-20T07:58:27.000Z</time>
      </trkpt>
      <trkpt lat="48.70409" lon="2.01254">
        <ele>123</ele>
        <time>2021-05-20T07:58:28.000Z</time>
      </trkpt>
      <trkpt lat="48.70409" lon="2.01254">
        <ele>123</ele>
        <time>2021-05-20T07:58:29.000Z</time>
      </trkpt>
      <trkpt lat="48.70408" lon="2.01255">
        <ele>122</ele>
        <time>2021-05-20T07:58:30.000Z</time>
      </trkpt>
      <trkpt lat="48.70407" lon="2.01255">
        <ele>122</ele>
        <time>2021-05-20T07:58:31.000Z</time>
      </trkpt>
      <trkpt lat="48.70403" lon="2.01257">
        <ele>121</ele>
        <time>2021-05-20T07:58:32.000Z</time>
      </trkpt>
      <trkpt lat="48.70402" lon="2.01258">
        <ele>121</ele>
        <time>2021-05-20T07:58:33.000Z</time>
      </trkpt>
      <trkpt lat="48.70401" lon="2.0126">
        <ele>121</ele>
        <time>2021-05-20T07:58:34.000Z</time>
      </trkpt>
      <trkpt lat="48.704" lon="2.01262">
        <ele>121</ele>
        <time>2021-05-20T07:58:35.000Z</time>
      </trkpt>
      <trkpt lat="48.704" lon="2.01263">
        <ele>120</ele>
        <time>2021-05-20T07:58:36.000Z</time>
      </trkpt>
      <trkpt lat="48.704" lon="2.01265">
        <ele>120</ele>
        <time>2021-05-20T07:58:37.000Z</time>
      </trkpt>
      <trkpt lat="48.70399" lon="2.01267">
        <ele>120</ele>
        <time>2021-05-20T07:58:38.000Z</time>
      </trkpt>
      <trkpt lat="48.70399" lon="2.01269">
        <ele>120</ele>
        <time>2021-05-20T07:58:39.000Z</time>
      </trkpt>
      <trkpt lat="48.70399" lon="2.0127">
        <ele>119</ele>
        <time>2021-05-20T07:58:40.000Z</time>
      </trkpt>
      <trkpt lat="48.70398" lon="2.01272">
        <ele>119</ele>
        <time>2021-05-20T07:58:41.000Z</time>
      </trkpt>
      <trkpt lat="48.70398" lon="2.01273">
        <ele>119</ele>
        <time>2021-05-20T07:58:42.000Z</time>
      </trkpt>
      <trkpt lat="48.70398" lon="2.01274">
        <ele>118</ele>
        <time>2021-05-20T07:58:43.000Z</time>
      </trkpt>
      <trkpt lat="48.70398" lon="2.01276">
        <ele>118</ele>
        <time>2021-05-20T07:58:44.000Z</time>
      </trkpt>
      <trkpt lat="48.70398" lon="2.01277">
        <ele>118</ele>
        <time>2021-05-20T07:58:45.000Z</time>
      </trkpt>
      <trkpt lat="48.70398" lon="2.01279">
        <ele>117</ele>
        <time>2021-05-20T07:58:46.000Z</time>
      </trkpt>
      <trkpt lat="48.70398" lon="2.0128">
        <ele>117</ele>
        <time>2021-05-20T07:58:47.000Z</time>
      </trkpt>
      <trkpt lat="48.70397" lon="2.01282">
        <ele>117</ele>
        <time>2021-05-20T07:58:48.000Z</time>
      </trkpt>
      <trkpt lat="48.70397" lon="2.01284">
        <ele>116</ele>
        <time>2021-05-20T07:58:49.000Z</time>
      </trkpt>
      <trkpt lat="48.70397" lon="2.01286">
        <ele>116</ele>
        <time>2021-05-20T07:58:50.000Z</time>
      </trkpt>
      <trkpt lat="48.70397" lon="2.01288">
        <ele>115</ele>
        <time>2021-05-20T07:58:51.000Z</time>
      </trkpt>
      <trkpt lat="48.70397" lon="2.01289">
        <ele>115</ele>
        <time>2021-05-20T07:58:52.000Z</time>
      </trkpt>
      <trkpt lat="48.70397" lon="2.01291">
        <ele>115</ele>
        <time>2021-05-20T07:58:53.000Z</time>
      </trkpt>
      <trkpt lat="48.70396" lon="2.01293">
        <ele>114</ele>
        <time>2021-05-20T07:58:54.000Z</time>
      </trkpt>
      <trkpt lat="48.70396" lon="2.01295">
        <ele>114</ele>
        <time>2021-05-20T07:58:55.000Z</time>
      </trkpt>
      <trkpt lat="48.70396" lon="2.01297">
        <ele>114</ele>
        <time>2021-05-20T07:58:56.000Z</time>
      </trkpt>
      <trkpt lat="48.70396" lon="2.01299">
        <ele>113</ele>
        <time>2021-05-20T07:58:57.000Z</time>
      </trkpt>
      <trkpt lat="48.70395" lon="2.013">
        <ele>113</ele>
        <time>2021-05-20T07:58:58.000Z</time>
      </trkpt>
      <trkpt lat="48.70395" lon="2.01302">
        <ele>113</ele>
        <time>2021-05-20T07:58:59.000Z</time>
      </trkpt>
      <trkpt lat="48.70394" lon="2.01304">
        <ele>113</ele>
        <time>2021-05-20T07:59:00.000Z</time>
      </trkpt>
      <trkpt lat="48.70394" lon="2.01307">
        <ele>112</ele>
        <time>2021-05-20T07:59:01.000Z</time>
      </trkpt>
      <trkpt lat="48.70393" lon="2.01309">
        <ele>112</ele>
        <time>2021-05-20T07:59:02.000Z</time>
      </trkpt>
      <trkpt lat="48.70392" lon="2.01311">
        <ele>112</ele>
        <time>2021-05-20T07:59:03.000Z</time>
      </trkpt>
      <trkpt lat="48.70391" lon="2.01313">
        <ele>112</ele>
        <time>2021-05-20T07:59:04.000Z</time>
      </trkpt>
      <trkpt lat="48.7039" lon="2.01314">
        <ele>112</ele>
        <time>2021-05-20T07:59:05.000Z</time>
      </trkpt>
      <trkpt lat="48.70389" lon="2.01316">
        <ele>111</ele>
        <time>2021-05-20T07:59:06.000Z</time>
      </trkpt>
      <trkpt lat="48.70389" lon="2.01318">
        <ele>111</ele>
        <time>2021-05-20T07:59:07.000Z</time>
      </trkpt>
      <trkpt lat="48.70388" lon="2.01319">
        <ele>111</ele>
        <time>2021-05-20T07:59:08.000Z</time>
      </trkpt>
      <trkpt lat="48.70387" lon="2.01321">
        <ele>111</ele>
        <time>2021-05-20T07:59:09.000Z</time>
      </trkpt>
      <trkpt lat="48.70386" lon="2.01323">
        <ele>111</ele>
        <time>2021-05-20T07:59:10.000Z</time>
      </trkpt>
      <trkpt lat="48.70385" lon="2.01324">
        <ele>111</ele>
        <time>2021-05-20T07:59:11.000Z</time>
      </trkpt>
      <trkpt lat="48.70385" lon="2.01326">
        <ele>110</ele>
        <time>2021-05-20T07:59:12.000Z</time>
      </trkpt>
      <trkpt lat="48.70384" lon="2.01328">
        <ele>110</ele>
        <time>2021-05-20T07:59:13.000Z</time>
      </trkpt>
      <trkpt lat="48.70383" lon="2.0133">
        <ele>110</ele>
        <time>2021-05-20T07:59:14.000Z</time>
      </trkpt>
      <trkpt lat="48.70382" lon="2.01332">
        <ele>110</ele>
        <time>2021-05-20T07:59:15.000Z</time>
      </trkpt>
      <trkpt lat="48.70381" lon="2.01334">
        <ele>110</ele>
        <time>2021-05-20T07:59:16.000Z</time>
      </trkpt>
      <trkpt lat="48.7038" lon="2.01335">
        <ele>110</ele>
        <time>2021-05-20T07:59:17.000Z</time>
      </trkpt>
      <trkpt lat="48.70379" lon="2.01337">
        <ele>109</ele>
        <time>2021-05-20T07:59:18.000Z</time>
      </trkpt>
      <trkpt lat="48.70379" lon="2.0134">
        <ele>109</ele>
        <time>2021-05-20T07:59:19.000Z</time>
      </trkpt>
      <trkpt lat="48.70378" lon="2.01341">
        <ele>109</ele>
        <time>2021-05-20T07:59:20.000Z</time>
      </trkpt>
      <trkpt lat="48.70377" lon="2.01343">
        <ele>109</ele>
        <time>2021-05-20T07:59:21.000Z</time>
      </trkpt>
      <trkpt lat="48.70376" lon="2.01345">
        <ele>109</ele>
        <time>2021-05-20T07:59:22.000Z</time>
      </trkpt>
      <trkpt lat="48.70375" lon="2.01346">
        <ele>109</ele>
        <time>2021-05-20T07:59:23.000Z</time>
      </trkpt>
      <trkpt lat="48.70374" lon="2.01348">
        <ele>108</ele>
        <time>2021-05-20T07:59:24.000Z</time>
      </trkpt>
      <trkpt lat="48.70373" lon="2.0135">
        <ele>108</ele>
        <time>2021-05-20T07:59:25.000Z</time>
      </trkpt>
      <trkpt lat="48.70372" lon="2.01352">
        <ele>108</ele>
        <time>2021-05-20T07:59:26.000Z</time>
      </trkpt>
      <trkpt lat="48.70371" lon="2.01354">
        <ele>108</ele>
        <time>2021-05-20T07:59:27.000Z</time>
      </trkpt>
      <trkpt lat="48.7037" lon="2.01355">
        <ele>108</ele>
        <time>2021-05-20T07:59:28.000Z</time>
      </trkpt>
      <trkpt lat="48.70369" lon="2.01356">
        <ele>108</ele>
        <time>2021-05-20T07:59:29.000Z</time>
      </trkpt>
      <trkpt lat="48.70369" lon="2.01358">
        <ele>108</ele>
        <time>2021-05-20T07:59:30.000Z</time>
      </trkpt>
      <trkpt lat="48.70368" lon="2.0136">
        <ele>108</ele>
        <time>2021-05-20T07:59:31.000Z</time>
      </trkpt>
      <trkpt lat="48.70367" lon="2.01361">
        <ele>108</ele>
        <time>2021-05-20T07:59:32.000Z</time>
      </trkpt>
      <trkpt lat="48.70366" lon="2.01363">
        <ele>108</ele>
        <time>2021-05-20T07:59:33.000Z</time>
      </trkpt>
      <trkpt lat="48.70365" lon="2.01365">
        <ele>108</ele>
        <time>2021-05-20T07:59:34.000Z</time>
      </trkpt>
      <trkpt lat="48.70364" lon="2.01367">
        <ele>108</ele>
        <time>2021-05-20T07:59:35.000Z</time>
      </trkpt>
      <trkpt lat="48.70363" lon="2.01368">
        <ele>108</ele>
        <time>2021-05-20T07:59:36.000Z</time>
      </trkpt>
      <trkpt lat="48.70362" lon="2.0137">
        <ele>108</ele>
        <time>2021-05-20T07:59:37.000Z</time>
      </trkpt>
      <trkpt lat="48.70361" lon="2.01371">
        <ele>108</ele>
        <time>2021-05-20T07:59:38.000Z</time>
      </trkpt>
      <trkpt lat="48.7036" lon="2.01373">
        <ele>108</ele>
        <time>2021-05-20T07:59:39.000Z</time>
      </trkpt>
      <trkpt lat="48.7036" lon="2.01374">
        <ele>108</ele>
        <time>2021-05-20T07:59:40.000Z</time>
      </trkpt>
      <trkpt lat="48.70359" lon="2.01376">
        <ele>108</ele>
        <time>2021-05-20T07:59:41.000Z</time>
      </trkpt>
      <trkpt lat="48.70358" lon="2.01378">
        <ele>108</ele>
        <time>2021-05-20T07:59:42.000Z</time>
      </trkpt>
      <trkpt lat="48.70357" lon="2.0138">
        <ele>108</ele>
        <time>2021-05-20T07:59:43.000Z</time>
      </trkpt>
      <trkpt lat="48.70356" lon="2.01381">
        <ele>108</ele>
        <time>2021-05-20T07:59:44.000Z</time>
      </trkpt>
      <trkpt lat="48.70355" lon="2.01383">
        <ele>108</ele>
        <time>2021-05-20T07:59:45.000Z</time>
      </trkpt>
      <trkpt lat="48.70354" lon="2.01385">
        <ele>108</ele>
        <time>2021-05-20T07:59:46.000Z</time>
      </trkpt>
      <trkpt lat="48.70354" lon="2.01387">
        <ele>108</ele>
        <time>2021-05-20T07:59:47.000Z</time>
      </trkpt>
      <trkpt lat="48.70353" lon="2.01389">
        <ele>108</ele>
        <time>2021-05-20T07:59:48.000Z</time>
      </trkpt>
      <trkpt lat="48.70353" lon="2.0139">
        <ele>108</ele>
        <time>2021-05-20T07:59:49.000Z</time>
      </trkpt>
      <trkpt lat="48.70352" lon="2.01392">
        <ele>107</ele>
        <time>2021-05-20T07:59:50.000Z</time>
      </trkpt>
      <trkpt lat="48.70351" lon="2.01394">
        <ele>107</ele>
        <time>2021-05-20T07:59:51.000Z</time>
      </trkpt>
      <trkpt lat="48.70351" lon="2.01396">
        <ele>107</ele>
        <time>2021-05-20T07:59:52.000Z</time>
      </trkpt>
      <trkpt lat="48.7035" lon="2.01397">
        <ele>107</ele>
        <time>2021-05-20T07:59:53.000Z</time>
      </trkpt>
      <trkpt lat="48.70349" lon="2.01399">
        <ele>107</ele>
        <time>2021-05-20T07:59:54.000Z</time>
      </trkpt>
      <trkpt lat="48.70349" lon="2.01401">
        <ele>107</ele>
        <time>2021-05-20T07:59:55.000Z</time>
      </trkpt>
      <trkpt lat="48.70349" lon="2.01402">
        <ele>107</ele>
        <time>2021-05-20T07:59:56.000Z</time>
      </trkpt>
      <trkpt lat="48.70348" lon="2.01404">
        <ele>107</ele>
        <time>2021-05-20T07:59:57.000Z</time>
      </trkpt>
      <trkpt lat="48.70348" lon="2.01405">
        <ele>107</ele>
        <time>2021-05-20T07:59:58.000Z</time>
      </trkpt>
      <trkpt lat="48.70348" lon="2.01407">
        <ele>107</ele>
        <time>2021-05-20T07:59:59.000Z</time>
      </trkpt>
      <trkpt lat="48.70348" lon="2.01409">
        <ele>107</ele>
        <time>2021-05-20T08:00:00.000Z</time>
      </trkpt>
      <trkpt lat="48.70347" lon="2.0141">
        <ele>107</ele>
        <time>2021-05-20T08:00:01.000Z</time>
      </trkpt>
      <trkpt lat="48.70347" lon="2.01412">
        <ele>107</ele>
        <time>2021-05-20T08:00:02.000Z</time>
      </trkpt>
      <trkpt lat="48.70347" lon="2.01413">
        <ele>107</ele>
        <time>2021-05-20T08:00:03.000Z</time>
      </trkpt>
      <trkpt lat="48.70347" lon="2.01414">
        <ele>107</ele>
        <time>2021-05-20T08:00:04.000Z</time>
      </trkpt>
      <trkpt lat="48.70347" lon="2.01414">
        <ele>106</ele>
        <time>2021-05-20T08:00:05.000Z</time>
      </trkpt>
      <trkpt lat="48.70347" lon="2.01414">
        <ele>106</ele>
        <time>2021-05-20T08:00:06.000Z</time>
      </trkpt>
      <trkpt lat="48.70347" lon="2.01414">
        <ele>106</ele>
        <time>2021-05-20T08:00:07.000Z</time>
      </trkpt>
      <trkpt lat="48.70345" lon="2.01414">
        <ele>106</ele>
        <time>2021-05-20T08:00:08.000Z</time>
      </trkpt>
      <trkpt lat="48.70344" lon="2.01414">
        <ele>106</ele>
        <time>2021-05-20T08:00:09.000Z</time>
      </trkpt>
      <trkpt lat="48.70343" lon="2.01414">
        <ele>106</ele>
        <time>2021-05-20T08:00:10.000Z</time>
      </trkpt>
      <trkpt lat="48.70343" lon="2.01414">
        <ele>106</ele>
        <time>2021-05-20T08:00:11.000Z</time>
      </trkpt>
      <trkpt lat="48.70342" lon="2.01414">
        <ele>105</ele>
        <time>2021-05-20T08:00:12.000Z</time>
      </trkpt>
      <trkpt lat="48.70341" lon="2.01413">
        <ele>105</ele>
        <time>2021-05-20T08:00:13.000Z</time>
      </trkpt>
      <trkpt lat="48.7034" lon="2.01413">
        <ele>105</ele>
        <time>2021-05-20T08:00:14.000Z</time>
      </trkpt>
      <trkpt lat="48.70339" lon="2.01412">
        <ele>105</ele>
        <time>2021-05-20T08:00:15.000Z</time>
      </trkpt>
      <trkpt lat="48.70338" lon="2.01411">
        <ele>104</ele>
        <time>2021-05-20T08:00:16.000Z</time>
      </trkpt>
      <trkpt lat="48.70338" lon="2.0141">
        <ele>104</ele>
        <time>2021-05-20T08:00:17.000Z</time>
      </trkpt>
      <trkpt lat="48.70337" lon="2.01409">
        <ele>104</ele>
        <time>2021-05-20T08:00:18.000Z</time>
      </trkpt>
      <trkpt lat="48.70337" lon="2.01409">
        <ele>104</ele>
        <time>2021-05-20T08:00:19.000Z</time>
      </trkpt>
      <trkpt lat="48.70336" lon="2.01409">
        <ele>103</ele>
        <time>2021-05-20T08:00:20.000Z</time>
      </trkpt>
      <trkpt lat="48.70335" lon="2.01409">
        <ele>103</ele>
        <time>2021-05-20T08:00:21.000Z</time>
      </trkpt>
      <trkpt lat="48.70334" lon="2.01408">
        <ele>103</ele>
        <time>2021-05-20T08:00:22.000Z</time>
      </trkpt>
      <trkpt lat="48.70334" lon="2.01408">
        <ele>103</ele>
        <time>2021-05-20T08:00:23.000Z</time>
      </trkpt>
      <trkpt lat="48.70333" lon="2.01408">
        <ele>102</ele>
        <time>2021-05-20T08:00:24.000Z</time>
      </trkpt>
      <trkpt lat="48.70333" lon="2.01407">
        <ele>102</ele>
        <time>2021-05-20T08:00:25.000Z</time>
      </trkpt>
      <trkpt lat="48.70333" lon="2.01407">
        <ele>102</ele>
        <time>2021-05-20T08:00:26.000Z</time>
      </trkpt>
      <trkpt lat="48.70332" lon="2.01406">
        <ele>102</ele>
        <time>2021-05-20T08:00:27.000Z</time>
      </trkpt>
      <trkpt lat="48.70332" lon="2.01405">
        <ele>102</ele>
        <time>2021-05-20T08:00:28.000Z</time>
      </trkpt>
      <trkpt lat="48.70331" lon="2.01404">
        <ele>101</ele>
        <time>2021-05-20T08:00:29.000Z</time>
      </trkpt>
      <trkpt lat="48.70331" lon="2.01403">
        <ele>101</ele>
        <time>2021-05-20T08:00:30.000Z</time>
      </trkpt>
      <trkpt lat="48.7033" lon="2.01402">
        <ele>101</ele>
        <time>2021-05-20T08:00:31.000Z</time>
      </trkpt>
      <trkpt lat="48.70329" lon="2.014">
        <ele>101</ele>
        <time>2021-05-20T08:00:32.000Z</time>
      </trkpt>
      <trkpt lat="48.70329" lon="2.01399">
        <ele>100</ele>
        <time>2021-05-20T08:00:33.000Z</time>
      </trkpt>
      <trkpt lat="48.70328" lon="2.01397">
        <ele>100</ele>
        <time>2021-05-20T08:00:34.000Z</time>
      </trkpt>
      <trkpt lat="48.70328" lon="2.01395">
        <ele>100</ele>
        <time>2021-05-20T08:00:35.000Z</time>
      </trkpt>
      <trkpt lat="48.70327" lon="2.01393">
        <ele>99</ele>
        <time>2021-05-20T08:00:36.000Z</time>
      </trkpt>
      <trkpt lat="48.70326" lon="2.01392">
        <ele>99</ele>
        <time>2021-05-20T08:00:37.000Z</time>
      </trkpt>
      <trkpt lat="48.70326" lon="2.0139">
        <ele>99</ele>
        <time>2021-05-20T08:00:38.000Z</time>
      </trkpt>
      <trkpt lat="48.70325" lon="2.01389">
        <ele>98</ele>
        <time>2021-05-20T08:00:39.000Z</time>
      </trkpt>
      <trkpt lat="48.70325" lon="2.01388">
        <ele>98</ele>
        <time>2021-05-20T08:00:40.000Z</time>
      </trkpt>
      <trkpt lat="48.70325" lon="2.01387">
        <ele>98</ele>
        <time>2021-05-20T08:00:41.000Z</time>
      </trkpt>
      <trkpt lat="48.70324" lon="2.01385">
        <ele>97</ele>
        <time>2021-05-20T08:00:42.000Z</time>
      </trkpt>
      <trkpt lat="48.70324" lon="2.01383">
        <ele>97</ele>
        <time>2021-05-20T08:00:43.000Z</time>
      </trkpt>
      <trkpt lat="48.70323" lon="2.01382">
        <ele>96</ele>
        <time>2021-05-20T08:00:44.000Z</time>
      </trkpt>
      <trkpt lat="48.70322" lon="2.0138">
        <ele>96</ele>
        <time>2021-05-20T08:00:45.000Z</time>
      </trkpt>
      <trkpt lat="48.70322" lon="2.01379">
        <ele>96</ele>
        <time>2021-05-20T08:00:46.000Z</time>
      </trkpt>
      <trkpt lat="48.70321" lon="2.01378">
        <ele>95</ele>
        <time>2021-05-20T08:00:47.000Z</time>
      </trkpt>
      <trkpt lat="48.7032" lon="2.01377">
        <ele>95</ele>
        <time>2021-05-20T08:00:48.000Z</time>
      </trkpt>
      <trkpt lat="48.70319" lon="2.01376">
        <ele>95</ele>
        <time>2021-05-20T08:00:49.000Z</time>
      </trkpt>
      <trkpt lat="48.70318" lon="2.01375">
        <ele>94</ele>
        <time>2021-05-20T08:00:50.000Z</time>
      </trkpt>
      <trkpt lat="48.70317" lon="2.01374">
        <ele>94</ele>
        <time>2021-05-20T08:00:51.000Z</time>
      </trkpt>
      <trkpt lat="48.70316" lon="2.01373">
        <ele>94</ele>
        <time>2021-05-20T08:00:52.000Z</time>
      </trkpt>
      <trkpt lat="48.70315" lon="2.01372">
        <ele>94</ele>
        <time>2021-05-20T08:00:53.000Z</time>
      </trkpt>
      <trkpt lat="48.70314" lon="2.01371">
        <ele>93</ele>
        <time>2021-05-20T08:00:54.000Z</time>
      </trkpt>
      <trkpt lat="48.70312" lon="2.0137">
        <ele>93</ele>
        <time>2021-05-20T08:00:55.000Z</time>
      </trkpt>
      <trkpt lat="48.70311" lon="2.01369">
        <ele>93</ele>
        <time>2021-05-20T08:00:56.000Z</time>
      </trkpt>
      <trkpt lat="48.7031" lon="2.01369">
        <ele>93</ele>
        <time>2021-05-20T08:00:57.000Z</time>
      </trkpt>
      <trkpt lat="48.70309" lon="2.01368">
        <ele>93</ele>
        <time>2021-05-20T08:00:58.000Z</time>
      </trkpt>
      <trkpt lat="48.70308" lon="2.01368">
        <ele>93</ele>
        <time>2021-05-20T08:00:59.000Z</time>
      </trkpt>
      <trkpt lat="48.70307" lon="2.01367">
        <ele>93</ele>
        <time>2021-05-20T08:01:00.000Z</time>
      </trkpt>
      <trkpt lat="48.70306" lon="2.01366">
        <ele>92</ele>
        <time>2021-05-20T08:01:01.000Z</time>
      </trkpt>
      <trkpt lat="48.70305" lon="2.01366">
        <ele>92</ele>
        <time>2021-05-20T08:01:02.000Z</time>
      </trkpt>
      <trkpt lat="48.70304" lon="2.01365">
        <ele>92</ele>
        <time>2021-05-20T08:01:03.000Z</time>
      </trkpt>
      <trkpt lat="48.70302" lon="2.01365">
        <ele>92</ele>
        <time>2021-05-20T08:01:04.000Z</time>
      </trkpt>
      <trkpt lat="48.70301" lon="2.01364">
        <ele>92</ele>
        <time>2021-05-20T08:01:05.000Z</time>
      </trkpt>
      <trkpt lat="48.703" lon="2.01364">
        <ele>92</ele>
        <time>2021-05-20T08:01:06.000Z</time>
      </trkpt>
      <trkpt lat="48.70299" lon="2.01364">
        <ele>92</ele>
        <time>2021-05-20T08:01:07.000Z</time>
      </trkpt>
      <trkpt lat="48.70298" lon="2.01363">
        <ele>92</ele>
        <time>2021-05-20T08:01:08.000Z</time>
      </trkpt>
      <trkpt lat="48.70296" lon="2.01363">
        <ele>91</ele>
        <time>2021-05-20T08:01:09.000Z</time>
      </trkpt>
      <trkpt lat="48.70295" lon="2.01362">
        <ele>91</ele>
        <time>2021-05-20T08:01:10.000Z</time>
      </trkpt>
      <trkpt lat="48.70294" lon="2.01362">
        <ele>91</ele>
        <time>2021-05-20T08:01:11.000Z</time>
      </trkpt>
      <trkpt lat="48.70293" lon="2.01361">
        <ele>91</ele>
        <time>2021-05-20T08:01:12.000Z</time>
      </trkpt>
      <trkpt lat="48.70291" lon="2.01361">
        <ele>91</ele>
        <time>2021-05-20T08:01:13.000Z</time>
      </trkpt>
      <trkpt lat="48.70291" lon="2.01361">
        <ele>91</ele>
        <time>2021-05-20T08:01:14.000Z</time>
      </trkpt>
      <trkpt lat="48.70289" lon="2.0136">
        <ele>91</ele>
        <time>2021-05-20T08:01:15.000Z</time>
      </trkpt>
      <trkpt lat="48.70288" lon="2.0136">
        <ele>91</ele>
        <time>2021-05-20T08:01:16.000Z</time>
      </trkpt>
      <trkpt lat="48.70287" lon="2.01359">
        <ele>91</ele>
        <time>2021-05-20T08:01:17.000Z</time>
      </trkpt>
      <trkpt lat="48.70286" lon="2.01359">
        <ele>91</ele>
        <time>2021-05-20T08:01:18.000Z</time>
      </trkpt>
      <trkpt lat="48.70284" lon="2.01358">
        <ele>91</ele>
        <time>2021-05-20T08:01:19.000Z</time>
      </trkpt>
      <trkpt lat="48.70282" lon="2.01358">
        <ele>91</ele>
        <time>2021-05-20T08:01:20.000Z</time>
      </trkpt>
      <trkpt lat="48.70281" lon="2.01357">
        <ele>90</ele>
        <time>2021-05-20T08:01:21.000Z</time>
      </trkpt>
      <trkpt lat="48.70279" lon="2.01357">
        <ele>90</ele>
        <time>2021-05-20T08:01:22.000Z</time>
      </trkpt>
      <trkpt lat="48.70278" lon="2.01356">
        <ele>90</ele>
        <time>2021-05-20T08:01:23.000Z</time>
      </trkpt>
      <trkpt lat="48.70276" lon="2.01355">
        <ele>90</ele>
        <time>2021-05-20T08:01:24.000Z</time>
      </trkpt>
      <trkpt lat="48.70275" lon="2.01355">
        <ele>90</ele>
        <time>2021-05-20T08:01:25.000Z</time>
      </trkpt>
      <trkpt lat="48.70273" lon="2.01355">
        <ele>90</ele>
        <time>2021-05-20T08:01:26.000Z</time>
      </trkpt>
      <trkpt lat="48.70272" lon="2.01354">
        <ele>90</ele>
        <time>2021-05-20T08:01:27.000Z</time>
      </trkpt>
      <trkpt lat="48.7027" lon="2.01354">
        <ele>90</ele>
        <time>2021-05-20T08:01:28.000Z</time>
      </trkpt>
      <trkpt lat="48.70269" lon="2.01354">
        <ele>90</ele>
        <time>2021-05-20T08:01:29.000Z</time>
      </trkpt>
      <trkpt lat="48.70269" lon="2.01354">
        <ele>90</ele>
        <time>2021-05-20T08:01:30.000Z</time>
      </trkpt>
      <trkpt lat="48.70268" lon="2.01353">
        <ele>90</ele>
        <time>2021-05-20T08:01:31.000Z</time>
      </trkpt>
      <trkpt lat="48.70267" lon="2.01353">
        <ele>90</ele>
        <time>2021-05-20T08:01:32.000Z</time>
      </trkpt>
      <trkpt lat="48.70266" lon="2.01352">
        <ele>90</ele>
        <time>2021-05-20T08:01:33.000Z</time>
      </trkpt>
      <trkpt lat="48.70265" lon="2.01352">
        <ele>90</ele>
        <time>2021-05-20T08:01:34.000Z</time>
      </trkpt>
      <trkpt lat="48.70264" lon="2.01351">
        <ele>90</ele>
        <time>2021-05-20T08:01:35.000Z</time>
      </trkpt>
      <trkpt lat="48.70263" lon="2.0135">
        <ele>90</ele>
        <time>2021-05-20T08:01:36.000Z</time>
      </trkpt>
      <trkpt lat="48.70262" lon="2.0135">
        <ele>90</ele>
        <time>2021-05-20T08:01:37.000Z</time>
      </trkpt>
      <trkpt lat="48.7026" lon="2.01349">
        <ele>90</ele>
        <time>2021-05-20T08:01:38.000Z</time>
      </trkpt>
      <trkpt lat="48.70259" lon="2.01349">
        <ele>90</ele>
        <time>2021-05-20T08:01:39.000Z</time>
      </trkpt>
      <trkpt lat="48.70258" lon="2.01349">
        <ele>90</ele>
        <time>2021-05-20T08:01:40.000Z</time>
      </trkpt>
      <trkpt lat="48.70256" lon="2.01348">
        <ele>90</ele>
        <time>2021-05-20T08:01:41.000Z</time>
      </trkpt>
      <trkpt lat="48.70255" lon="2.01348">
        <ele>90</ele>
        <time>2021-05-20T08:01:42.000Z</time>
      </trkpt>
      <trkpt lat="48.70254" lon="2.01347">
        <ele>90</ele>
        <time>2021-05-20T08:01:43.000Z</time>
      </trkpt>
      <trkpt lat="48.70252" lon="2.01347">
        <ele>90</ele>
        <time>2021-05-20T08:01:44.000Z</time>
      </trkpt>
      <trkpt lat="48.70251" lon="2.01346">
        <ele>90</ele>
        <time>2021-05-20T08:01:45.000Z</time>
      </trkpt>
      <trkpt lat="48.7025" lon="2.01346">
        <ele>90</ele>
        <time>2021-05-20T08:01:46.000Z</time>
      </trkpt>
      <trkpt lat="48.70249" lon="2.01346">
        <ele>90</ele>
        <time>2021-05-20T08:01:47.000Z</time>
      </trkpt>
      <trkpt lat="48.70247" lon="2.01345">
        <ele>90</ele>
        <time>2021-05-20T08:01:48.000Z</time>
      </trkpt>
      <trkpt lat="48.70246" lon="2.01344">
        <ele>90</ele>
        <time>2021-05-20T08:01:49.000Z</time>
      </trkpt>
      <trkpt lat="48.70245" lon="2.01344">
        <ele>90</ele>
        <time>2021-05-20T08:01:50.000Z</time>
      </trkpt>
      <trkpt lat="48.70243" lon="2.01343">
        <ele>90</ele>
        <time>2021-05-20T08:01:51.000Z</time>
      </trkpt>
      <trkpt lat="48.70242" lon="2.01342">
        <ele>90</ele>
        <time>2021-05-20T08:01:52.000Z</time>
      </trkpt>
      <trkpt lat="48.70241" lon="2.01341">
        <ele>90</ele>
        <time>2021-05-20T08:01:53.000Z</time>
      </trkpt>
      <trkpt lat="48.7024" lon="2.0134">
        <ele>90</ele>
        <time>2021-05-20T08:01:54.000Z</time>
      </trkpt>
      <trkpt lat="48.70238" lon="2.0134">
        <ele>89</ele>
        <time>2021-05-20T08:01:55.000Z</time>
      </trkpt>
      <trkpt lat="48.70237" lon="2.01339">
        <ele>89</ele>
        <time>2021-05-20T08:01:56.000Z</time>
      </trkpt>
      <trkpt lat="48.70237" lon="2.01338">
        <ele>89</ele>
        <time>2021-05-20T08:01:57.000Z</time>
      </trkpt>
      <trkpt lat="48.70235" lon="2.01337">
        <ele>89</ele>
        <time>2021-05-20T08:01:58.000Z</time>
      </trkpt>
      <trkpt lat="48.70234" lon="2.01337">
        <ele>89</ele>
        <time>2021-05-20T08:01:59.000Z</time>
      </trkpt>
      <trkpt lat="48.70233" lon="2.01336">
        <ele>89</ele>
        <time>2021-05-20T08:02:00.000Z</time>
      </trkpt>
      <trkpt lat="48.70231" lon="2.01336">
        <ele>89</ele>
        <time>2021-05-20T08:02:01.000Z</time>
      </trkpt>
      <trkpt lat="48.7023" lon="2.01335">
        <ele>89</ele>
        <time>2021-05-20T08:02:02.000Z</time>
      </trkpt>
      <trkpt lat="48.70229" lon="2.01334">
        <ele>89</ele>
        <time>2021-05-20T08:02:03.000Z</time>
      </trkpt>
      <trkpt lat="48.70228" lon="2.01332">
        <ele>89</ele>
        <time>2021-05-20T08:02:04.000Z</time>
      </trkpt>
      <trkpt lat="48.70226" lon="2.01331">
        <ele>89</ele>
        <time>2021-05-20T08:02:05.000Z</time>
      </trkpt>
      <trkpt lat="48.70225" lon="2.01331">
        <ele>89</ele>
        <time>2021-05-20T08:02:06.000Z</time>
      </trkpt>
      <trkpt lat="48.70224" lon="2.0133">
        <ele>88</ele>
        <time>2021-05-20T08:02:07.000Z</time>
      </trkpt>
      <trkpt lat="48.70223" lon="2.0133">
        <ele>88</ele>
        <time>2021-05-20T08:02:08.000Z</time>
      </trkpt>
      <trkpt lat="48.70222" lon="2.01329">
        <ele>88</ele>
        <time>2021-05-20T08:02:09.000Z</time>
      </trkpt>
      <trkpt lat="48.70221" lon="2.01329">
        <ele>88</ele>
        <time>2021-05-20T08:02:10.000Z</time>
      </trkpt>
      <trkpt lat="48.7022" lon="2.01328">
        <ele>88</ele>
        <time>2021-05-20T08:02:11.000Z</time>
      </trkpt>
      <trkpt lat="48.70219" lon="2.01327">
        <ele>88</ele>
        <time>2021-05-20T08:02:12.000Z</time>
      </trkpt>
      <trkpt lat="48.70218" lon="2.01326">
        <ele>88</ele>
        <time>2021-05-20T08:02:13.000Z</time>
      </trkpt>
      <trkpt lat="48.70216" lon="2.01325">
        <ele>88</ele>
        <time>2021-05-20T08:02:14.000Z</time>
      </trkpt>
      <trkpt lat="48.70215" lon="2.01325">
        <ele>88</ele>
        <time>2021-05-20T08:02:15.000Z</time>
      </trkpt>
      <trkpt lat="48.70214" lon="2.01324">
        <ele>87</ele>
        <time>2021-05-20T08:02:16.000Z</time>
      </trkpt>
      <trkpt lat="48.70213" lon="2.01323">
        <ele>87</ele>
        <time>2021-05-20T08:02:17.000Z</time>
      </trkpt>
      <trkpt lat="48.70212" lon="2.01322">
        <ele>87</ele>
        <time>2021-05-20T08:02:18.000Z</time>
      </trkpt>
      <trkpt lat="48.7021" lon="2.01322">
        <ele>87</ele>
        <time>2021-05-20T08:02:19.000Z</time>
      </trkpt>
      <trkpt lat="48.70209" lon="2.01321">
        <ele>87</ele>
        <time>2021-05-20T08:02:20.000Z</time>
      </trkpt>
      <trkpt lat="48.70208" lon="2.01321">
        <ele>87</ele>
        <time>2021-05-20T08:02:21.000Z</time>
      </trkpt>
      <trkpt lat="48.70206" lon="2.0132">
        <ele>87</ele>
        <time>2021-05-20T08:02:22.000Z</time>
      </trkpt>
      <trkpt lat="48.70205" lon="2.01319">
        <ele>87</ele>
        <time>2021-05-20T08:02:23.000Z</time>
      </trkpt>
      <trkpt lat="48.70203" lon="2.01319">
        <ele>87</ele>
        <time>2021-05-20T08:02:24.000Z</time>
      </trkpt>
      <trkpt lat="48.70202" lon="2.01318">
        <ele>87</ele>
        <time>2021-05-20T08:02:25.000Z</time>
      </trkpt>
      <trkpt lat="48.702" lon="2.01318">
        <ele>87</ele>
        <time>2021-05-20T08:02:26.000Z</time>
      </trkpt>
      <trkpt lat="48.70199" lon="2.01318">
        <ele>87</ele>
        <time>2021-05-20T08:02:27.000Z</time>
      </trkpt>
      <trkpt lat="48.70198" lon="2.01317">
        <ele>86</ele>
        <time>2021-05-20T08:02:28.000Z</time>
      </trkpt>
      <trkpt lat="48.70197" lon="2.01317">
        <ele>86</ele>
        <time>2021-05-20T08:02:29.000Z</time>
      </trkpt>
      <trkpt lat="48.70196" lon="2.01316">
        <ele>86</ele>
        <time>2021-05-20T08:02:30.000Z</time>
      </trkpt>
      <trkpt lat="48.70195" lon="2.01316">
        <ele>86</ele>
        <time>2021-05-20T08:02:31.000Z</time>
      </trkpt>
      <trkpt lat="48.70194" lon="2.01315">
        <ele>86</ele>
        <time>2021-05-20T08:02:32.000Z</time>
      </trkpt>
      <trkpt lat="48.70193" lon="2.01315">
        <ele>86</ele>
        <time>2021-05-20T08:02:33.000Z</time>
      </trkpt>
      <trkpt lat="48.70191" lon="2.01314">
        <ele>86</ele>
        <time>2021-05-20T08:02:34.000Z</time>
      </trkpt>
      <trkpt lat="48.7019" lon="2.01314">
        <ele>86</ele>
        <time>2021-05-20T08:02:35.000Z</time>
      </trkpt>
      <trkpt lat="48.70188" lon="2.01313">
        <ele>86</ele>
        <time>2021-05-20T08:02:36.000Z</time>
      </trkpt>
      <trkpt lat="48.70187" lon="2.01313">
        <ele>86</ele>
        <time>2021-05-20T08:02:37.000Z</time>
      </trkpt>
      <trkpt lat="48.70186" lon="2.01313">
        <ele>86</ele>
        <time>2021-05-20T08:02:38.000Z</time>
      </trkpt>
      <trkpt lat="48.70184" lon="2.01312">
        <ele>86</ele>
        <time>2021-05-20T08:02:39.000Z</time>
      </trkpt>
      <trkpt lat="48.70182" lon="2.01311">
        <ele>86</ele>
        <time>2021-05-20T08:02:40.000Z</time>
      </trkpt>
      <trkpt lat="48.70181" lon="2.0131">
        <ele>86</ele>
        <time>2021-05-20T08:02:41.000Z</time>
      </trkpt>
      <trkpt lat="48.7018" lon="2.0131">
        <ele>86</ele>
        <time>2021-05-20T08:02:42.000Z</time>
      </trkpt>
      <trkpt lat="48.70179" lon="2.01309">
        <ele>86</ele>
        <time>2021-05-20T08:02:43.000Z</time>
      </trkpt>
      <trkpt lat="48.70177" lon="2.01308">
        <ele>86</ele>
        <time>2021-05-20T08:02:44.000Z</time>
      </trkpt>
      <trkpt lat="48.70176" lon="2.01308">
        <ele>86</ele>
        <time>2021-05-20T08:02:45.000Z</time>
      </trkpt>
      <trkpt lat="48.70175" lon="2.01307">
        <ele>86</ele>
        <time>2021-05-20T08:02:46.000Z</time>
      </trkpt>
      <trkpt lat="48.70174" lon="2.01306">
        <ele>86</ele>
        <time>2021-05-20T08:02:47.000Z</time>
      </trkpt>
      <trkpt lat="48.70173" lon="2.01304">
        <ele>86</ele>
        <time>2021-05-20T08:02:48.000Z</time>
      </trkpt>
      <trkpt lat="48.70172" lon="2.01303">
        <ele>86</ele>
        <time>2021-05-20T08:02:49.000Z</time>
      </trkpt>
      <trkpt lat="48.70172" lon="2.01302">
        <ele>86</ele>
        <time>2021-05-20T08:02:50.000Z</time>
      </trkpt>
      <trkpt lat="48.70171" lon="2.01302">
        <ele>86</ele>
        <time>2021-05-20T08:02:51.000Z</time>
      </trkpt>
      <trkpt lat="48.7017" lon="2.01301">
        <ele>86</ele>
        <time>2021-05-20T08:02:52.000Z</time>
      </trkpt>
      <trkpt lat="48.70169" lon="2.01299">
        <ele>86</ele>
        <time>2021-05-20T08:02:53.000Z</time>
      </trkpt>
      <trkpt lat="48.70168" lon="2.01298">
        <ele>85</ele>
        <time>2021-05-20T08:02:54.000Z</time>
      </trkpt>
      <trkpt lat="48.70167" lon="2.01297">
        <ele>85</ele>
        <time>2021-05-20T08:02:55.000Z</time>
      </trkpt>
      <trkpt lat="48.70166" lon="2.01297">
        <ele>85</ele>
        <time>2021-05-20T08:02:56.000Z</time>
      </trkpt>
      <trkpt lat="48.70165" lon="2.01296">
        <ele>85</ele>
        <time>2021-05-20T08:02:57.000Z</time>
      </trkpt>
      <trkpt lat="48.70164" lon="2.01295">
        <ele>85</ele>
        <time>2021-05-20T08:02:58.000Z</time>
      </trkpt>
      <trkpt lat="48.70163" lon="2.01294">
        <ele>85</ele>
        <time>2021-05-20T08:02:59.000Z</time>
      </trkpt>
      <trkpt lat="48.70162" lon="2.01293">
        <ele>85</ele>
        <time>2021-05-20T08:03:00.000Z</time>
      </trkpt>
      <trkpt lat="48.70161" lon="2.01293">
        <ele>85</ele>
        <time>2021-05-20T08:03:01.000Z</time>
      </trkpt>
      <trkpt lat="48.7016" lon="2.01293">
        <ele>85</ele>
        <time>2021-05-20T08:03:02.000Z</time>
      </trkpt>
      <trkpt lat="48.70158" lon="2.01292">
        <ele>85</ele>
        <time>2021-05-20T08:03:03.000Z</time>
      </trkpt>
      <trkpt lat="48.70157" lon="2.01292">
        <ele>85</ele>
        <time>2021-05-20T08:03:04.000Z</time>
      </trkpt>
      <trkpt lat="48.70156" lon="2.01291">
        <ele>85</ele>
        <time>2021-05-20T08:03:05.000Z</time>
      </trkpt>
      <trkpt lat="48.70155" lon="2.01291">
        <ele>85</ele>
        <time>2021-05-20T08:03:06.000Z</time>
      </trkpt>
      <trkpt lat="48.70153" lon="2.0129">
        <ele>86</ele>
        <time>2021-05-20T08:03:07.000Z</time>
      </trkpt>
      <trkpt lat="48.70152" lon="2.0129">
        <ele>86</ele>
        <time>2021-05-20T08:03:08.000Z</time>
      </trkpt>
      <trkpt lat="48.70151" lon="2.0129">
        <ele>85</ele>
        <time>2021-05-20T08:03:09.000Z</time>
      </trkpt>
      <trkpt lat="48.7015" lon="2.0129">
        <ele>85</ele>
        <time>2021-05-20T08:03:10.000Z</time>
      </trkpt>
      <trkpt lat="48.70149" lon="2.01289">
        <ele>85</ele>
        <time>2021-05-20T08:03:11.000Z</time>
      </trkpt>
      <trkpt lat="48.70148" lon="2.01289">
        <ele>85</ele>
        <time>2021-05-20T08:03:12.000Z</time>
      </trkpt>
      <trkpt lat="48.70147" lon="2.01289">
        <ele>85</ele>
        <time>2021-05-20T08:03:13.000Z</time>
      </trkpt>
      <trkpt lat="48.70146" lon="2.01289">
        <ele>85</ele>
        <time>2021-05-20T08:03:14.000Z</time>
      </trkpt>
      <trkpt lat="48.70144" lon="2.0129">
        <ele>85</ele>
        <time>2021-05-20T08:03:15.000Z</time>
      </trkpt>
      <trkpt lat="48.70143" lon="2.0129">
        <ele>85</ele>
        <time>2021-05-20T08:03:16.000Z</time>
      </trkpt>
      <trkpt lat="48.70142" lon="2.01291">
        <ele>85</ele>
        <time>2021-05-20T08:03:17.000Z</time>
      </trkpt>
      <trkpt lat="48.70141" lon="2.01291">
        <ele>85</ele>
        <time>2021-05-20T08:03:18.000Z</time>
      </trkpt>
      <trkpt lat="48.70139" lon="2.01291">
        <ele>85</ele>
        <time>2021-05-20T08:03:19.000Z</time>
      </trkpt>
      <trkpt lat="48.70138" lon="2.01292">
        <ele>85</ele>
        <time>2021-05-20T08:03:20.000Z</time>
      </trkpt>
      <trkpt lat="48.70137" lon="2.01293">
        <ele>85</ele>
        <time>2021-05-20T08:03:21.000Z</time>
      </trkpt>
      <trkpt lat="48.70136" lon="2.01294">
        <ele>85</ele>
        <time>2021-05-20T08:03:22.000Z</time>
      </trkpt>
      <trkpt lat="48.70135" lon="2.01295">
        <ele>85</ele>
        <time>2021-05-20T08:03:23.000Z</time>
      </trkpt>
      <trkpt lat="48.70134" lon="2.01296">
        <ele>85</ele>
        <time>2021-05-20T08:03:24.000Z</time>
      </trkpt>
      <trkpt lat="48.70133" lon="2.01298">
        <ele>85</ele>
        <time>2021-05-20T08:03:25.000Z</time>
      </trkpt>
      <trkpt lat="48.70131" lon="2.013">
        <ele>85</ele>
        <time>2021-05-20T08:03:26.000Z</time>
      </trkpt>
      <trkpt lat="48.7013" lon="2.01301">
        <ele>85</ele>
        <time>2021-05-20T08:03:27.000Z</time>
      </trkpt>
      <trkpt lat="48.70129" lon="2.01303">
        <ele>85</ele>
        <time>2021-05-20T08:03:28.000Z</time>
      </trkpt>
      <trkpt lat="48.70128" lon="2.01304">
        <ele>85</ele>
        <time>2021-05-20T08:03:29.000Z</time>
      </trkpt>
      <trkpt lat="48.70128" lon="2.01305">
        <ele>85</ele>
        <time>2021-05-20T08:03:30.000Z</time>
      </trkpt>
      <trkpt lat="48.70127" lon="2.01306">
        <ele>85</ele>
        <time>2021-05-20T08:03:31.000Z</time>
      </trkpt>
      <trkpt lat="48.70126" lon="2.01308">
        <ele>85</ele>
        <time>2021-05-20T08:03:32.000Z</time>
      </trkpt>
      <trkpt lat="48.70125" lon="2.0131">
        <ele>85</ele>
        <time>2021-05-20T08:03:33.000Z</time>
      </trkpt>
      <trkpt lat="48.70124" lon="2.01312">
        <ele>85</ele>
        <time>2021-05-20T08:03:34.000Z</time>
      </trkpt>
      <trkpt lat="48.70123" lon="2.01313">
        <ele>85</ele>
        <time>2021-05-20T08:03:35.000Z</time>
      </trkpt>
      <trkpt lat="48.70123" lon="2.01315">
        <ele>85</ele>
        <time>2021-05-20T08:03:36.000Z</time>
      </trkpt>
      <trkpt lat="48.70122" lon="2.01316">
        <ele>85</ele>
        <time>2021-05-20T08:03:37.000Z</time>
      </trkpt>
      <trkpt lat="48.7012" lon="2.01317">
        <ele>85</ele>
        <time>2021-05-20T08:03:38.000Z</time>
      </trkpt>
      <trkpt lat="48.7012" lon="2.01319">
        <ele>85</ele>
        <time>2021-05-20T08:03:39.000Z</time>
      </trkpt>
      <trkpt lat="48.70119" lon="2.0132">
        <ele>85</ele>
        <time>2021-05-20T08:03:40.000Z</time>
      </trkpt>
      <trkpt lat="48.70118" lon="2.01322">
        <ele>85</ele>
        <time>2021-05-20T08:03:41.000Z</time>
      </trkpt>
      <trkpt lat="48.70117" lon="2.01323">
        <ele>85</ele>
        <time>2021-05-20T08:03:42.000Z</time>
      </trkpt>
      <trkpt lat="48.70117" lon="2.01324">
        <ele>85</ele>
        <time>2021-05-20T08:03:43.000Z</time>
      </trkpt>
      <trkpt lat="48.70116" lon="2.01326">
        <ele>85</ele>
        <time>2021-05-20T08:03:44.000Z</time>
      </trkpt>
      <trkpt lat="48.70115" lon="2.01327">
        <ele>85</ele>
        <time>2021-05-20T08:03:45.000Z</time>
      </trkpt>
      <trkpt lat="48.70114" lon="2.01328">
        <ele>85</ele>
        <time>2021-05-20T08:03:46.000Z</time>
      </trkpt>
      <trkpt lat="48.70113" lon="2.01329">
        <ele>85</ele>
        <time>2021-05-20T08:03:47.000Z</time>
      </trkpt>
      <trkpt lat="48.70112" lon="2.01331">
        <ele>85</ele>
        <time>2021-05-20T08:03:48.000Z</time>
      </trkpt>
      <trkpt lat="48.70111" lon="2.01332">
        <ele>85</ele>
        <time>2021-05-20T08:03:49.000Z</time>
      </trkpt>
      <trkpt lat="48.7011" lon="2.01334">
        <ele>85</ele>
        <time>2021-05-20T08:03:50.000Z</time>
      </trkpt>
      <trkpt lat="48.7011" lon="2.01335">
        <ele>85</ele>
        <time>2021-05-20T08:03:51.000Z</time>
      </trkpt>
      <trkpt lat="48.70109" lon="2.01336">
        <ele>85</ele>
        <time>2021-05-20T08:03:52.000Z</time>
      </trkpt>
      <trkpt lat="48.70108" lon="2.01337">
        <ele>85</ele>
        <time>2021-05-20T08:03:53.000Z</time>
      </trkpt>
      <trkpt lat="48.70107" lon="2.01338">
        <ele>85</ele>
        <time>2021-05-20T08:03:54.000Z</time>
      </trkpt>
      <trkpt lat="48.70106" lon="2.0134">
        <ele>85</ele>
        <time>2021-05-20T08:03:55.000Z</time>
      </trkpt>
      <trkpt lat="48.70105" lon="2.01341">
        <ele>85</ele>
        <time>2021-05-20T08:03:56.000Z</time>
      </trkpt>
      <trkpt lat="48.70104" lon="2.01342">
        <ele>85</ele>
        <time>2021-05-20T08:03:57.000Z</time>
      </trkpt>
      <trkpt lat="48.70103" lon="2.01343">
        <ele>85</ele>
        <time>2021-05-20T08:03:58.000Z</time>
      </trkpt>
      <trkpt lat="48.70102" lon="2.01344">
        <ele>85</ele>
        <time>2021-05-20T08:03:59.000Z</time>
      </trkpt>
      <trkpt lat="48.70101" lon="2.01345">
        <ele>84</ele>
        <time>2021-05-20T08:04:00.000Z</time>
      </trkpt>
      <trkpt lat="48.701" lon="2.01347">
        <ele>84</ele>
        <time>2021-05-20T08:04:01.000Z</time>
      </trkpt>
      <trkpt lat="48.70099" lon="2.01348">
        <ele>84</ele>
        <time>2021-05-20T08:04:02.000Z</time>
      </trkpt>
      <trkpt lat="48.70098" lon="2.0135">
        <ele>84</ele>
        <time>2021-05-20T08:04:03.000Z</time>
      </trkpt>
      <trkpt lat="48.70097" lon="2.01352">
        <ele>84</ele>
        <time>2021-05-20T08:04:04.000Z</time>
      </trkpt>
      <trkpt lat="48.70096" lon="2.01353">
        <ele>84</ele>
        <time>2021-05-20T08:04:05.000Z</time>
      </trkpt>
      <trkpt lat="48.70095" lon="2.01355">
        <ele>84</ele>
        <time>2021-05-20T08:04:06.000Z</time>
      </trkpt>
      <trkpt lat="48.70094" lon="2.01356">
        <ele>84</ele>
        <time>2021-05-20T08:04:07.000Z</time>
      </trkpt>
      <trkpt lat="48.70093" lon="2.01358">
        <ele>84</ele>
        <time>2021-05-20T08:04:08.000Z</time>
      </trkpt>
      <trkpt lat="48.70092" lon="2.01359">
        <ele>84</ele>
        <time>2021-05-20T08:04:09.000Z</time>
      </trkpt>
      <trkpt lat="48.70091" lon="2.01361">
        <ele>84</ele>
        <time>2021-05-20T08:04:10.000Z</time>
      </trkpt>
      <trkpt lat="48.7009" lon="2.01362">
        <ele>84</ele>
        <time>2021-05-20T08:04:11.000Z</time>
      </trkpt>
      <trkpt lat="48.70089" lon="2.01364">
        <ele>84</ele>
        <time>2021-05-20T08:04:12.000Z</time>
      </trkpt>
      <trkpt lat="48.70088" lon="2.01365">
        <ele>84</ele>
        <time>2021-05-20T08:04:13.000Z</time>
      </trkpt>
      <trkpt lat="48.70087" lon="2.01366">
        <ele>84</ele>
        <time>2021-05-20T08:04:14.000Z</time>
      </trkpt>
      <trkpt lat="48.70087" lon="2.01368">
        <ele>84</ele>
        <time>2021-05-20T08:04:15.000Z</time>
      </trkpt>
      <trkpt lat="48.70086" lon="2.01369">
        <ele>84</ele>
        <time>2021-05-20T08:04:16.000Z</time>
      </trkpt>
      <trkpt lat="48.70085" lon="2.0137">
        <ele>84</ele>
        <time>2021-05-20T08:04:17.000Z</time>
      </trkpt>
      <trkpt lat="48.70084" lon="2.01371">
        <ele>84</ele>
        <time>2021-05-20T08:04:18.000Z</time>
      </trkpt>
      <trkpt lat="48.70083" lon="2.01373">
        <ele>84</ele>
        <time>2021-05-20T08:04:19.000Z</time>
      </trkpt>
      <trkpt lat="48.70082" lon="2.01375">
        <ele>84</ele>
        <time>2021-05-20T08:04:20.000Z</time>
      </trkpt>
      <trkpt lat="48.70081" lon="2.01376">
        <ele>84</ele>
        <time>2021-05-20T08:04:21.000Z</time>
      </trkpt>
      <trkpt lat="48.70081" lon="2.01378">
        <ele>84</ele>
        <time>2021-05-20T08:04:22.000Z</time>
      </trkpt>
      <trkpt lat="48.7008" lon="2.01379">
        <ele>84</ele>
        <time>2021-05-20T08:04:23.000Z</time>
      </trkpt>
      <trkpt lat="48.70079" lon="2.0138">
        <ele>84</ele>
        <time>2021-05-20T08:04:24.000Z</time>
      </trkpt>
      <trkpt lat="48.70078" lon="2.01382">
        <ele>84</ele>
        <time>2021-05-20T08:04:25.000Z</time>
      </trkpt>
      <trkpt lat="48.70078" lon="2.01383">
        <ele>84</ele>
        <time>2021-05-20T08:04:26.000Z</time>
      </trkpt>
      <trkpt lat="48.70077" lon="2.01384">
        <ele>84</ele>
        <time>2021-05-20T08:04:27.000Z</time>
      </trkpt>
      <trkpt lat="48.70075" lon="2.01386">
        <ele>84</ele>
        <time>2021-05-20T08:04:28.000Z</time>
      </trkpt>
      <trkpt lat="48.70074" lon="2.01387">
        <ele>84</ele>
        <time>2021-05-20T08:04:29.000Z</time>
      </trkpt>
      <trkpt lat="48.70073" lon="2.01388">
        <ele>84</ele>
        <time>2021-05-20T08:04:30.000Z</time>
      </trkpt>
      <trkpt lat="48.70072" lon="2.01389">
        <ele>84</ele>
        <time>2021-05-20T08:04:31.000Z</time>
      </trkpt>
      <trkpt lat="48.70072" lon="2.0139">
        <ele>84</ele>
        <time>2021-05-20T08:04:32.000Z</time>
      </trkpt>
      <trkpt lat="48.70071" lon="2.01391">
        <ele>84</ele>
        <time>2021-05-20T08:04:33.000Z</time>
      </trkpt>
      <trkpt lat="48.7007" lon="2.01392">
        <ele>84</ele>
        <time>2021-05-20T08:04:34.000Z</time>
      </trkpt>
      <trkpt lat="48.70069" lon="2.01393">
        <ele>84</ele>
        <time>2021-05-20T08:04:35.000Z</time>
      </trkpt>
      <trkpt lat="48.70068" lon="2.01395">
        <ele>84</ele>
        <time>2021-05-20T08:04:36.000Z</time>
      </trkpt>
      <trkpt lat="48.70067" lon="2.01396">
        <ele>84</ele>
        <time>2021-05-20T08:04:37.000Z</time>
      </trkpt>
      <trkpt lat="48.70066" lon="2.01397">
        <ele>84</ele>
        <time>2021-05-20T08:04:38.000Z</time>
      </trkpt>
      <trkpt lat="48.70065" lon="2.01398">
        <ele>84</ele>
        <time>2021-05-20T08:04:39.000Z</time>
      </trkpt>
      <trkpt lat="48.70064" lon="2.014">
        <ele>84</ele>
        <time>2021-05-20T08:04:40.000Z</time>
      </trkpt>
      <trkpt lat="48.70064" lon="2.01401">
        <ele>84</ele>
        <time>2021-05-20T08:04:41.000Z</time>
      </trkpt>
      <trkpt lat="48.70063" lon="2.01402">
        <ele>84</ele>
        <time>2021-05-20T08:04:42.000Z</time>
      </trkpt>
      <trkpt lat="48.70062" lon="2.01403">
        <ele>84</ele>
        <time>2021-05-20T08:04:43.000Z</time>
      </trkpt>
      <trkpt lat="48.70061" lon="2.01405">
        <ele>84</ele>
        <time>2021-05-20T08:04:44.000Z</time>
      </trkpt>
      <trkpt lat="48.7006" lon="2.01406">
        <ele>84</ele>
        <time>2021-05-20T08:04:45.000Z</time>
      </trkpt>
      <trkpt lat="48.70059" lon="2.01408">
        <ele>84</ele>
        <time>2021-05-20T08:04:46.000Z</time>
      </trkpt>
      <trkpt lat="48.70058" lon="2.01409">
        <ele>84</ele>
        <time>2021-05-20T08:04:47.000Z</time>
      </trkpt>
      <trkpt lat="48.70057" lon="2.01411">
        <ele>84</ele>
        <time>2021-05-20T08:04:48.000Z</time>
      </trkpt>
      <trkpt lat="48.70056" lon="2.01412">
        <ele>84</ele>
        <time>2021-05-20T08:04:49.000Z</time>
      </trkpt>
      <trkpt lat="48.70056" lon="2.01413">
        <ele>85</ele>
        <time>2021-05-20T08:04:50.000Z</time>
      </trkpt>
      <trkpt lat="48.70055" lon="2.01414">
        <ele>84</ele>
        <time>2021-05-20T08:04:51.000Z</time>
      </trkpt>
      <trkpt lat="48.70054" lon="2.01416">
        <ele>84</ele>
        <time>2021-05-20T08:04:52.000Z</time>
      </trkpt>
      <trkpt lat="48.70053" lon="2.01417">
        <ele>84</ele>
        <time>2021-05-20T08:04:53.000Z</time>
      </trkpt>
      <trkpt lat="48.70052" lon="2.01419">
        <ele>84</ele>
        <time>2021-05-20T08:04:54.000Z</time>
      </trkpt>
      <trkpt lat="48.70051" lon="2.0142">
        <ele>84</ele>
        <time>2021-05-20T08:04:55.000Z</time>
      </trkpt>
      <trkpt lat="48.70051" lon="2.01422">
        <ele>84</ele>
        <time>2021-05-20T08:04:56.000Z</time>
      </trkpt>
      <trkpt lat="48.7005" lon="2.01423">
        <ele>84</ele>
        <time>2021-05-20T08:04:57.000Z</time>
      </trkpt>
      <trkpt lat="48.70049" lon="2.01424">
        <ele>84</ele>
        <time>2021-05-20T08:04:58.000Z</time>
      </trkpt>
      <trkpt lat="48.70048" lon="2.01425">
        <ele>84</ele>
        <time>2021-05-20T08:04:59.000Z</time>
      </trkpt>
      <trkpt lat="48.70047" lon="2.01426">
        <ele>84</ele>
        <time>2021-05-20T08:05:00.000Z</time>
      </trkpt>
      <trkpt lat="48.70046" lon="2.01428">
        <ele>84</ele>
        <time>2021-05-20T08:05:01.000Z</time>
      </trkpt>
      <trkpt lat="48.70045" lon="2.01429">
        <ele>84</ele>
        <time>2021-05-20T08:05:02.000Z</time>
      </trkpt>
      <trkpt lat="48.70044" lon="2.0143">
        <ele>84</ele>
        <time>2021-05-20T08:05:03.000Z</time>
      </trkpt>
      <trkpt lat="48.70043" lon="2.01432">
        <ele>84</ele>
        <time>2021-05-20T08:05:04.000Z</time>
      </trkpt>
      <trkpt lat="48.70042" lon="2.01433">
        <ele>84</ele>
        <time>2021-05-20T08:05:05.000Z</time>
      </trkpt>
      <trkpt lat="48.70041" lon="2.01435">
        <ele>84</ele>
        <time>2021-05-20T08:05:06.000Z</time>
      </trkpt>
      <trkpt lat="48.7004" lon="2.01436">
        <ele>84</ele>
        <time>2021-05-20T08:05:07.000Z</time>
      </trkpt>
      <trkpt lat="48.70039" lon="2.01437">
        <ele>84</ele>
        <time>2021-05-20T08:05:08.000Z</time>
      </trkpt>
      <trkpt lat="48.70038" lon="2.01438">
        <ele>84</ele>
        <time>2021-05-20T08:05:09.000Z</time>
      </trkpt>
      <trkpt lat="48.70038" lon="2.01439">
        <ele>84</ele>
        <time>2021-05-20T08:05:10.000Z</time>
      </trkpt>
      <trkpt lat="48.70037" lon="2.01441">
        <ele>85</ele>
        <time>2021-05-20T08:05:11.000Z</time>
      </trkpt>
      <trkpt lat="48.70037" lon="2.01442">
        <ele>85</ele>
        <time>2021-05-20T08:05:12.000Z</time>
      </trkpt>
      <trkpt lat="48.70036" lon="2.01443">
        <ele>85</ele>
        <time>2021-05-20T08:05:13.000Z</time>
      </trkpt>
      <trkpt lat="48.70036" lon="2.01444">
        <ele>85</ele>
        <time>2021-05-20T08:05:14.000Z</time>
      </trkpt>
      <trkpt lat="48.70035" lon="2.01445">
        <ele>85</ele>
        <time>2021-05-20T08:05:15.000Z</time>
      </trkpt>
      <trkpt lat="48.70035" lon="2.01447">
        <ele>85</ele>
        <time>2021-05-20T08:05:16.000Z</time>
      </trkpt>
      <trkpt lat="48.70034" lon="2.01448">
        <ele>85</ele>
        <time>2021-05-20T08:05:17.000Z</time>
      </trkpt>
      <trkpt lat="48.70034" lon="2.01449">
        <ele>84</ele>
        <time>2021-05-20T08:05:18.000Z</time>
      </trkpt>
      <trkpt lat="48.70033" lon="2.01451">
        <ele>84</ele>
        <time>2021-05-20T08:05:19.000Z</time>
      </trkpt>
      <trkpt lat="48.70033" lon="2.01452">
        <ele>84</ele>
        <time>2021-05-20T08:05:20.000Z</time>
      </trkpt>
      <trkpt lat="48.70032" lon="2.01453">
        <ele>84</ele>
        <time>2021-05-20T08:05:21.000Z</time>
      </trkpt>
      <trkpt lat="48.70031" lon="2.01455">
        <ele>84</ele>
        <time>2021-05-20T08:05:22.000Z</time>
      </trkpt>
      <trkpt lat="48.7003" lon="2.01456">
        <ele>84</ele>
        <time>2021-05-20T08:05:23.000Z</time>
      </trkpt>
      <trkpt lat="48.7003" lon="2.01457">
        <ele>84</ele>
        <time>2021-05-20T08:05:24.000Z</time>
      </trkpt>
      <trkpt lat="48.70029" lon="2.01458">
        <ele>84</ele>
        <time>2021-05-20T08:05:25.000Z</time>
      </trkpt>
      <trkpt lat="48.70029" lon="2.0146">
        <ele>84</ele>
        <time>2021-05-20T08:05:26.000Z</time>
      </trkpt>
      <trkpt lat="48.70029" lon="2.01461">
        <ele>84</ele>
        <time>2021-05-20T08:05:27.000Z</time>
      </trkpt>
      <trkpt lat="48.70028" lon="2.01463">
        <ele>84</ele>
        <time>2021-05-20T08:05:28.000Z</time>
      </trkpt>
      <trkpt lat="48.70028" lon="2.01465">
        <ele>84</ele>
        <time>2021-05-20T08:05:29.000Z</time>
      </trkpt>
      <trkpt lat="48.70027" lon="2.01467">
        <ele>84</ele>
        <time>2021-05-20T08:05:30.000Z</time>
      </trkpt>
      <trkpt lat="48.70027" lon="2.01469">
        <ele>84</ele>
        <time>2021-05-20T08:05:31.000Z</time>
      </trkpt>
      <trkpt lat="48.70027" lon="2.0147">
        <ele>84</ele>
        <time>2021-05-20T08:05:32.000Z</time>
      </trkpt>
      <trkpt lat="48.70027" lon="2.01471">
        <ele>84</ele>
        <time>2021-05-20T08:05:33.000Z</time>
      </trkpt>
      <trkpt lat="48.70026" lon="2.01473">
        <ele>85</ele>
        <time>2021-05-20T08:05:34.000Z</time>
      </trkpt>
      <trkpt lat="48.70026" lon="2.01475">
        <ele>85</ele>
        <time>2021-05-20T08:05:35.000Z</time>
      </trkpt>
      <trkpt lat="48.70026" lon="2.01477">
        <ele>85</ele>
        <time>2021-05-20T08:05:36.000Z</time>
      </trkpt>
      <trkpt lat="48.70026" lon="2.01478">
        <ele>85</ele>
        <time>2021-05-20T08:05:37.000Z</time>
      </trkpt>
      <trkpt lat="48.70026" lon="2.0148">
        <ele>85</ele>
        <time>2021-05-20T08:05:38.000Z</time>
      </trkpt>
      <trkpt lat="48.70025" lon="2.01481">
        <ele>85</ele>
        <time>2021-05-20T08:05:39.000Z</time>
      </trkpt>
      <trkpt lat="48.70025" lon="2.01483">
        <ele>85</ele>
        <time>2021-05-20T08:05:40.000Z</time>
      </trkpt>
      <trkpt lat="48.70025" lon="2.01485">
        <ele>85</ele>
        <time>2021-05-20T08:05:41.000Z</time>
      </trkpt>
      <trkpt lat="48.70024" lon="2.01487">
        <ele>85</ele>
        <time>2021-05-20T08:05:42.000Z</time>
      </trkpt>
      <trkpt lat="48.70024" lon="2.01488">
        <ele>85</ele>
        <time>2021-05-20T08:05:43.000Z</time>
      </trkpt>
      <trkpt lat="48.70024" lon="2.0149">
        <ele>85</ele>
        <time>2021-05-20T08:05:44.000Z</time>
      </trkpt>
      <trkpt lat="48.70024" lon="2.01491">
        <ele>85</ele>
        <time>2021-05-20T08:05:45.000Z</time>
      </trkpt>
      <trkpt lat="48.70024" lon="2.01493">
        <ele>85</ele>
        <time>2021-05-20T08:05:46.000Z</time>
      </trkpt>
      <trkpt lat="48.70024" lon="2.01495">
        <ele>85</ele>
        <time>2021-05-20T08:05:47.000Z</time>
      </trkpt>
      <trkpt lat="48.70024" lon="2.01497">
        <ele>85</ele>
        <time>2021-05-20T08:05:48.000Z</time>
      </trkpt>
      <trkpt lat="48.70024" lon="2.01499">
        <ele>85</ele>
        <time>2021-05-20T08:05:49.000Z</time>
      </trkpt>
      <trkpt lat="48.70024" lon="2.015">
        <ele>85</ele>
        <time>2021-05-20T08:05:50.000Z</time>
      </trkpt>
      <trkpt lat="48.70024" lon="2.01502">
        <ele>85</ele>
        <time>2021-05-20T08:05:51.000Z</time>
      </trkpt>
      <trkpt lat="48.70024" lon="2.01504">
        <ele>85</ele>
        <time>2021-05-20T08:05:52.000Z</time>
      </trkpt>
      <trkpt lat="48.70024" lon="2.01505">
        <ele>85</ele>
        <time>2021-05-20T08:05:53.000Z</time>
      </trkpt>
      <trkpt lat="48.70024" lon="2.01507">
        <ele>86</ele>
        <time>2021-05-20T08:05:54.000Z</time>
      </trkpt>
      <trkpt lat="48.70024" lon="2.01508">
        <ele>86</ele>
        <time>2021-05-20T08:05:55.000Z</time>
      </trkpt>
      <trkpt lat="48.70024" lon="2.0151">
        <ele>86</ele>
        <time>2021-05-20T08:05:56.000Z</time>
      </trkpt>
      <trkpt lat="48.70024" lon="2.01511">
        <ele>86</ele>
        <time>2021-05-20T08:05:57.000Z</time>
      </trkpt>
      <trkpt lat="48.70023" lon="2.01513">
        <ele>86</ele>
        <time>2021-05-20T08:05:58.000Z</time>
      </trkpt>
      <trkpt lat="48.70023" lon="2.01514">
        <ele>86</ele>
        <time>2021-05-20T08:05:59.000Z</time>
      </trkpt>
      <trkpt lat="48.70023" lon="2.01515">
        <ele>86</ele>
        <time>2021-05-20T08:06:00.000Z</time>
      </trkpt>
      <trkpt lat="48.70023" lon="2.01517">
        <ele>86</ele>
        <time>2021-05-20T08:06:01.000Z</time>
      </trkpt>
      <trkpt lat="48.70023" lon="2.01519">
        <ele>86</ele>
        <time>2021-05-20T08:06:02.000Z</time>
      </trkpt>
      <trkpt lat="48.70023" lon="2.0152">
        <ele>86</ele>
        <time>2021-05-20T08:06:03.000Z</time>
      </trkpt>
      <trkpt lat="48.70023" lon="2.01522">
        <ele>86</ele>
        <time>2021-05-20T08:06:04.000Z</time>
      </trkpt>
      <trkpt lat="48.70023" lon="2.01524">
        <ele>86</ele>
        <time>2021-05-20T08:06:05.000Z</time>
      </trkpt>
      <trkpt lat="48.70023" lon="2.01525">
        <ele>86</ele>
        <time>2021-05-20T08:06:06.000Z</time>
      </trkpt>
      <trkpt lat="48.70023" lon="2.01527">
        <ele>87</ele>
        <time>2021-05-20T08:06:07.000Z</time>
      </trkpt>
      <trkpt lat="48.70023" lon="2.01528">
        <ele>87</ele>
        <time>2021-05-20T08:06:08.000Z</time>
      </trkpt>
      <trkpt lat="48.70023" lon="2.0153">
        <ele>87</ele>
        <time>2021-05-20T08:06:09.000Z</time>
      </trkpt>
      <trkpt lat="48.70023" lon="2.01531">
        <ele>87</ele>
        <time>2021-05-20T08:06:10.000Z</time>
      </trkpt>
      <trkpt lat="48.70023" lon="2.01533">
        <ele>87</ele>
        <time>2021-05-20T08:06:11.000Z</time>
      </trkpt>
      <trkpt lat="48.70023" lon="2.01535">
        <ele>87</ele>
        <time>2021-05-20T08:06:12.000Z</time>
      </trkpt>
      <trkpt lat="48.70023" lon="2.01536">
        <ele>87</ele>
        <time>2021-05-20T08:06:13.000Z</time>
      </trkpt>
      <trkpt lat="48.70023" lon="2.01538">
        <ele>87</ele>
        <time>2021-05-20T08:06:14.000Z</time>
      </trkpt>
      <trkpt lat="48.70023" lon="2.0154">
        <ele>87</ele>
        <time>2021-05-20T08:06:15.000Z</time>
      </trkpt>
      <trkpt lat="48.70022" lon="2.01541">
        <ele>87</ele>
        <time>2021-05-20T08:06:16.000Z</time>
      </trkpt>
      <trkpt lat="48.70022" lon="2.01542">
        <ele>87</ele>
        <time>2021-05-20T08:06:17.000Z</time>
      </trkpt>
      <trkpt lat="48.70022" lon="2.01544">
        <ele>87</ele>
        <time>2021-05-20T08:06:18.000Z</time>
      </trkpt>
      <trkpt lat="48.70022" lon="2.01546">
        <ele>87</ele>
        <time>2021-05-20T08:06:19.000Z</time>
      </trkpt>
      <trkpt lat="48.70021" lon="2.01547">
        <ele>87</ele>
        <time>2021-05-20T08:06:20.000Z</time>
      </trkpt>
      <trkpt lat="48.70021" lon="2.01549">
        <ele>87</ele>
        <time>2021-05-20T08:06:21.000Z</time>
      </trkpt>
      <trkpt lat="48.70021" lon="2.0155">
        <ele>87</ele>
        <time>2021-05-20T08:06:22.000Z</time>
      </trkpt>
      <trkpt lat="48.70021" lon="2.01552">
        <ele>87</ele>
        <time>2021-05-20T08:06:23.000Z</time>
      </trkpt>
      <trkpt lat="48.7002" lon="2.01554">
        <ele>87</ele>
        <time>2021-05-20T08:06:24.000Z</time>
      </trkpt>
      <trkpt lat="48.7002" lon="2.01556">
        <ele>87</ele>
        <time>2021-05-20T08:06:25.000Z</time>
      </trkpt>
      <trkpt lat="48.7002" lon="2.01558">
        <ele>87</ele>
        <time>2021-05-20T08:06:26.000Z</time>
      </trkpt>
      <trkpt lat="48.7002" lon="2.0156">
        <ele>87</ele>
        <time>2021-05-20T08:06:27.000Z</time>
      </trkpt>
      <trkpt lat="48.70019" lon="2.01561">
        <ele>88</ele>
        <time>2021-05-20T08:06:28.000Z</time>
      </trkpt>
      <trkpt lat="48.70019" lon="2.01563">
        <ele>88</ele>
        <time>2021-05-20T08:06:29.000Z</time>
      </trkpt>
      <trkpt lat="48.70019" lon="2.01565">
        <ele>88</ele>
        <time>2021-05-20T08:06:30.000Z</time>
      </trkpt>
      <trkpt lat="48.70019" lon="2.01567">
        <ele>88</ele>
        <time>2021-05-20T08:06:31.000Z</time>
      </trkpt>
      <trkpt lat="48.70019" lon="2.01569">
        <ele>88</ele>
        <time>2021-05-20T08:06:32.000Z</time>
      </trkpt>
      <trkpt lat="48.70019" lon="2.0157">
        <ele>88</ele>
        <time>2021-05-20T08:06:33.000Z</time>
      </trkpt>
      <trkpt lat="48.70019" lon="2.01572">
        <ele>88</ele>
        <time>2021-05-20T08:06:34.000Z</time>
      </trkpt>
      <trkpt lat="48.70019" lon="2.01574">
        <ele>88</ele>
        <time>2021-05-20T08:06:35.000Z</time>
      </trkpt>
      <trkpt lat="48.70018" lon="2.01575">
        <ele>88</ele>
        <time>2021-05-20T08:06:36.000Z</time>
      </trkpt>
      <trkpt lat="48.70018" lon="2.01578">
        <ele>88</ele>
        <time>2021-05-20T08:06:37.000Z</time>
      </trkpt>
      <trkpt lat="48.70018" lon="2.0158">
        <ele>88</ele>
        <time>2021-05-20T08:06:38.000Z</time>
      </trkpt>
      <trkpt lat="48.70018" lon="2.01582">
        <ele>88</ele>
        <time>2021-05-20T08:06:39.000Z</time>
      </trkpt>
      <trkpt lat="48.70017" lon="2.01583">
        <ele>88</ele>
        <time>2021-05-20T08:06:40.000Z</time>
      </trkpt>
      <trkpt lat="48.70017" lon="2.01585">
        <ele>88</ele>
        <time>2021-05-20T08:06:41.000Z</time>
      </trkpt>
      <trkpt lat="48.70017" lon="2.01586">
        <ele>88</ele>
        <time>2021-05-20T08:06:42.000Z</time>
      </trkpt>
      <trkpt lat="48.70017" lon="2.01588">
        <ele>88</ele>
        <time>2021-05-20T08:06:43.000Z</time>
      </trkpt>
      <trkpt lat="48.70016" lon="2.0159">
        <ele>88</ele>
        <time>2021-05-20T08:06:44.000Z</time>
      </trkpt>
      <trkpt lat="48.70016" lon="2.01591">
        <ele>88</ele>
        <time>2021-05-20T08:06:45.000Z</time>
      </trkpt>
      <trkpt lat="48.70016" lon="2.01592">
        <ele>88</ele>
        <time>2021-05-20T08:06:46.000Z</time>
      </trkpt>
      <trkpt lat="48.70015" lon="2.01594">
        <ele>88</ele>
        <time>2021-05-20T08:06:47.000Z</time>
      </trkpt>
      <trkpt lat="48.70015" lon="2.01595">
        <ele>88</ele>
        <time>2021-05-20T08:06:48.000Z</time>
      </trkpt>
      <trkpt lat="48.70014" lon="2.01596">
        <ele>88</ele>
        <time>2021-05-20T08:06:49.000Z</time>
      </trkpt>
      <trkpt lat="48.70014" lon="2.01598">
        <ele>88</ele>
        <time>2021-05-20T08:06:50.000Z</time>
      </trkpt>
      <trkpt lat="48.70013" lon="2.01599">
        <ele>88</ele>
        <time>2021-05-20T08:06:51.000Z</time>
      </trkpt>
      <trkpt lat="48.70012" lon="2.016">
        <ele>88</ele>
        <time>2021-05-20T08:06:52.000Z</time>
      </trkpt>
      <trkpt lat="48.70011" lon="2.01601">
        <ele>88</ele>
        <time>2021-05-20T08:06:53.000Z</time>
      </trkpt>
      <trkpt lat="48.7001" lon="2.01602">
        <ele>88</ele>
        <time>2021-05-20T08:06:54.000Z</time>
      </trkpt>
      <trkpt lat="48.7001" lon="2.01603">
        <ele>88</ele>
        <time>2021-05-20T08:06:55.000Z</time>
      </trkpt>
      <trkpt lat="48.70009" lon="2.01605">
        <ele>88</ele>
        <time>2021-05-20T08:06:56.000Z</time>
      </trkpt>
      <trkpt lat="48.70008" lon="2.01606">
        <ele>89</ele>
        <time>2021-05-20T08:06:57.000Z</time>
      </trkpt>
      <trkpt lat="48.70007" lon="2.01607">
        <ele>89</ele>
        <time>2021-05-20T08:06:58.000Z</time>
      </trkpt>
      <trkpt lat="48.70007" lon="2.01608">
        <ele>89</ele>
        <time>2021-05-20T08:06:59.000Z</time>
      </trkpt>
      <trkpt lat="48.70006" lon="2.0161">
        <ele>89</ele>
        <time>2021-05-20T08:07:00.000Z</time>
      </trkpt>
      <trkpt lat="48.70005" lon="2.01611">
        <ele>89</ele>
        <time>2021-05-20T08:07:01.000Z</time>
      </trkpt>
      <trkpt lat="48.70004" lon="2.01612">
        <ele>89</ele>
        <time>2021-05-20T08:07:02.000Z</time>
      </trkpt>
      <trkpt lat="48.70003" lon="2.01613">
        <ele>89</ele>
        <time>2021-05-20T08:07:03.000Z</time>
      </trkpt>
      <trkpt lat="48.70002" lon="2.01614">
        <ele>90</ele>
        <time>2021-05-20T08:07:04.000Z</time>
      </trkpt>
      <trkpt lat="48.70001" lon="2.01615">
        <ele>90</ele>
        <time>2021-05-20T08:07:05.000Z</time>
      </trkpt>
      <trkpt lat="48.7" lon="2.01615">
        <ele>90</ele>
        <time>2021-05-20T08:07:06.000Z</time>
      </trkpt>
      <trkpt lat="48.69999" lon="2.01616">
        <ele>90</ele>
        <time>2021-05-20T08:07:07.000Z</time>
      </trkpt>
      <trkpt lat="48.69998" lon="2.01616">
        <ele>90</ele>
        <time>2021-05-20T08:07:08.000Z</time>
      </trkpt>
      <trkpt lat="48.69997" lon="2.01616">
        <ele>91</ele>
        <time>2021-05-20T08:07:09.000Z</time>
      </trkpt>
      <trkpt lat="48.69996" lon="2.01617">
        <ele>91</ele>
        <time>2021-05-20T08:07:10.000Z</time>
      </trkpt>
      <trkpt lat="48.69995" lon="2.01617">
        <ele>91</ele>
        <time>2021-05-20T08:07:11.000Z</time>
      </trkpt>
      <trkpt lat="48.69994" lon="2.01618">
        <ele>91</ele>
        <time>2021-05-20T08:07:12.000Z</time>
      </trkpt>
      <trkpt lat="48.69993" lon="2.01618">
        <ele>91</ele>
        <time>2021-05-20T08:07:13.000Z</time>
      </trkpt>
      <trkpt lat="48.69992" lon="2.01619">
        <ele>92</ele>
        <time>2021-05-20T08:07:14.000Z</time>
      </trkpt>
      <trkpt lat="48.6999" lon="2.0162">
        <ele>92</ele>
        <time>2021-05-20T08:07:15.000Z</time>
      </trkpt>
      <trkpt lat="48.69989" lon="2.01621">
        <ele>92</ele>
        <time>2021-05-20T08:07:16.000Z</time>
      </trkpt>
      <trkpt lat="48.69988" lon="2.01621">
        <ele>92</ele>
        <time>2021-05-20T08:07:17.000Z</time>
      </trkpt>
      <trkpt lat="48.69987" lon="2.01622">
        <ele>92</ele>
        <time>2021-05-20T08:07:18.000Z</time>
      </trkpt>
      <trkpt lat="48.69986" lon="2.01623">
        <ele>92</ele>
        <time>2021-05-20T08:07:19.000Z</time>
      </trkpt>
      <trkpt lat="48.69985" lon="2.01623">
        <ele>93</ele>
        <time>2021-05-20T08:07:20.000Z</time>
      </trkpt>
      <trkpt lat="48.69984" lon="2.01624">
        <ele>93</ele>
        <time>2021-05-20T08:07:21.000Z</time>
      </trkpt>
      <trkpt lat="48.69983" lon="2.01624">
        <ele>93</ele>
        <time>2021-05-20T08:07:22.000Z</time>
      </trkpt>
      <trkpt lat="48.69982" lon="2.01625">
        <ele>93</ele>
        <time>2021-05-20T08:07:23.000Z</time>
      </trkpt>
      <trkpt lat="48.69981" lon="2.01625">
        <ele>93</ele>
        <time>2021-05-20T08:07:24.000Z</time>
      </trkpt>
      <trkpt lat="48.6998" lon="2.01625">
        <ele>93</ele>
        <time>2021-05-20T08:07:25.000Z</time>
      </trkpt>
      <trkpt lat="48.69978" lon="2.01625">
        <ele>93</ele>
        <time>2021-05-20T08:07:26.000Z</time>
      </trkpt>
      <trkpt lat="48.69977" lon="2.01626">
        <ele>94</ele>
        <time>2021-05-20T08:07:27.000Z</time>
      </trkpt>
      <trkpt lat="48.69976" lon="2.01626">
        <ele>94</ele>
        <time>2021-05-20T08:07:28.000Z</time>
      </trkpt>
      <trkpt lat="48.69975" lon="2.01626">
        <ele>94</ele>
        <time>2021-05-20T08:07:29.000Z</time>
      </trkpt>
      <trkpt lat="48.69975" lon="2.01626">
        <ele>94</ele>
        <time>2021-05-20T08:07:30.000Z</time>
      </trkpt>
      <trkpt lat="48.69974" lon="2.01626">
        <ele>94</ele>
        <time>2021-05-20T08:07:31.000Z</time>
      </trkpt>
      <trkpt lat="48.69974" lon="2.01626">
        <ele>94</ele>
        <time>2021-05-20T08:07:32.000Z</time>
      </trkpt>
      <trkpt lat="48.69973" lon="2.01627">
        <ele>94</ele>
        <time>2021-05-20T08:07:33.000Z</time>
      </trkpt>
      <trkpt lat="48.69972" lon="2.01628">
        <ele>94</ele>
        <time>2021-05-20T08:07:34.000Z</time>
      </trkpt>
      <trkpt lat="48.69971" lon="2.01629">
        <ele>94</ele>
        <time>2021-05-20T08:07:35.000Z</time>
      </trkpt>
      <trkpt lat="48.69971" lon="2.01631">
        <ele>94</ele>
        <time>2021-05-20T08:07:36.000Z</time>
      </trkpt>
      <trkpt lat="48.6997" lon="2.01632">
        <ele>93</ele>
        <time>2021-05-20T08:07:37.000Z</time>
      </trkpt>
      <trkpt lat="48.69969" lon="2.01634">
        <ele>93</ele>
        <time>2021-05-20T08:07:38.000Z</time>
      </trkpt>
      <trkpt lat="48.69967" lon="2.01635">
        <ele>93</ele>
        <time>2021-05-20T08:07:39.000Z</time>
      </trkpt>
      <trkpt lat="48.69967" lon="2.01637">
        <ele>93</ele>
        <time>2021-05-20T08:07:40.000Z</time>
      </trkpt>
      <trkpt lat="48.69966" lon="2.01638">
        <ele>93</ele>
        <time>2021-05-20T08:07:41.000Z</time>
      </trkpt>
      <trkpt lat="48.69965" lon="2.01639">
        <ele>93</ele>
        <time>2021-05-20T08:07:42.000Z</time>
      </trkpt>
      <trkpt lat="48.69964" lon="2.01641">
        <ele>93</ele>
        <time>2021-05-20T08:07:43.000Z</time>
      </trkpt>
      <trkpt lat="48.69963" lon="2.01643">
        <ele>93</ele>
        <time>2021-05-20T08:07:44.000Z</time>
      </trkpt>
      <trkpt lat="48.69962" lon="2.01645">
        <ele>93</ele>
        <time>2021-05-20T08:07:45.000Z</time>
      </trkpt>
      <trkpt lat="48.69962" lon="2.01647">
        <ele>93</ele>
        <time>2021-05-20T08:07:46.000Z</time>
      </trkpt>
      <trkpt lat="48.69961" lon="2.01648">
        <ele>92</ele>
        <time>2021-05-20T08:07:47.000Z</time>
      </trkpt>
      <trkpt lat="48.6996" lon="2.0165">
        <ele>92</ele>
        <time>2021-05-20T08:07:48.000Z</time>
      </trkpt>
      <trkpt lat="48.6996" lon="2.01651">
        <ele>92</ele>
        <time>2021-05-20T08:07:49.000Z</time>
      </trkpt>
      <trkpt lat="48.69959" lon="2.01652">
        <ele>92</ele>
        <time>2021-05-20T08:07:50.000Z</time>
      </trkpt>
      <trkpt lat="48.69958" lon="2.01654">
        <ele>92</ele>
        <time>2021-05-20T08:07:51.000Z</time>
      </trkpt>
      <trkpt lat="48.69957" lon="2.01655">
        <ele>92</ele>
        <time>2021-05-20T08:07:52.000Z</time>
      </trkpt>
      <trkpt lat="48.69956" lon="2.01657">
        <ele>92</ele>
        <time>2021-05-20T08:07:53.000Z</time>
      </trkpt>
      <trkpt lat="48.69955" lon="2.01659">
        <ele>92</ele>
        <time>2021-05-20T08:07:54.000Z</time>
      </trkpt>
      <trkpt lat="48.69955" lon="2.01661">
        <ele>92</ele>
        <time>2021-05-20T08:07:55.000Z</time>
      </trkpt>
      <trkpt lat="48.69954" lon="2.01663">
        <ele>92</ele>
        <time>2021-05-20T08:07:56.000Z</time>
      </trkpt>
      <trkpt lat="48.69953" lon="2.01664">
        <ele>92</ele>
        <time>2021-05-20T08:07:57.000Z</time>
      </trkpt>
      <trkpt lat="48.69953" lon="2.01666">
        <ele>92</ele>
        <time>2021-05-20T08:07:58.000Z</time>
      </trkpt>
      <trkpt lat="48.69952" lon="2.01668">
        <ele>92</ele>
        <time>2021-05-20T08:07:59.000Z</time>
      </trkpt>
      <trkpt lat="48.69951" lon="2.01669">
        <ele>92</ele>
        <time>2021-05-20T08:08:00.000Z</time>
      </trkpt>
      <trkpt lat="48.69951" lon="2.01671">
        <ele>92</ele>
        <time>2021-05-20T08:08:01.000Z</time>
      </trkpt>
      <trkpt lat="48.6995" lon="2.01673">
        <ele>92</ele>
        <time>2021-05-20T08:08:02.000Z</time>
      </trkpt>
      <trkpt lat="48.6995" lon="2.01674">
        <ele>92</ele>
        <time>2021-05-20T08:08:03.000Z</time>
      </trkpt>
      <trkpt lat="48.69949" lon="2.01676">
        <ele>92</ele>
        <time>2021-05-20T08:08:04.000Z</time>
      </trkpt>
      <trkpt lat="48.69949" lon="2.01677">
        <ele>92</ele>
        <time>2021-05-20T08:08:05.000Z</time>
      </trkpt>
      <trkpt lat="48.69948" lon="2.01678">
        <ele>92</ele>
        <time>2021-05-20T08:08:06.000Z</time>
      </trkpt>
      <trkpt lat="48.69948" lon="2.0168">
        <ele>92</ele>
        <time>2021-05-20T08:08:07.000Z</time>
      </trkpt>
      <trkpt lat="48.69947" lon="2.01681">
        <ele>92</ele>
        <time>2021-05-20T08:08:08.000Z</time>
      </trkpt>
      <trkpt lat="48.69946" lon="2.01682">
        <ele>92</ele>
        <time>2021-05-20T08:08:09.000Z</time>
      </trkpt>
      <trkpt lat="48.69946" lon="2.01684">
        <ele>92</ele>
        <time>2021-05-20T08:08:10.000Z</time>
      </trkpt>
      <trkpt lat="48.69945" lon="2.01685">
        <ele>92</ele>
        <time>2021-05-20T08:08:11.000Z</time>
      </trkpt>
      <trkpt lat="48.69945" lon="2.01686">
        <ele>92</ele>
        <time>2021-05-20T08:08:12.000Z</time>
      </trkpt>
      <trkpt lat="48.69944" lon="2.01686">
        <ele>92</ele>
        <time>2021-05-20T08:08:13.000Z</time>
      </trkpt>
      <trkpt lat="48.69944" lon="2.01688">
        <ele>92</ele>
        <time>2021-05-20T08:08:14.000Z</time>
      </trkpt>
      <trkpt lat="48.69943" lon="2.01689">
        <ele>92</ele>
        <time>2021-05-20T08:08:15.000Z</time>
      </trkpt>
      <trkpt lat="48.69942" lon="2.01691">
        <ele>93</ele>
        <time>2021-05-20T08:08:16.000Z</time>
      </trkpt>
      <trkpt lat="48.69942" lon="2.01692">
        <ele>93</ele>
        <time>2021-05-20T08:08:17.000Z</time>
      </trkpt>
      <trkpt lat="48.69942" lon="2.01694">
        <ele>93</ele>
        <time>2021-05-20T08:08:18.000Z</time>
      </trkpt>
      <trkpt lat="48.69942" lon="2.01695">
        <ele>92</ele>
        <time>2021-05-20T08:08:19.000Z</time>
      </trkpt>
      <trkpt lat="48.69942" lon="2.01697">
        <ele>92</ele>
        <time>2021-05-20T08:08:20.000Z</time>
      </trkpt>
      <trkpt lat="48.69942" lon="2.01699">
        <ele>92</ele>
        <time>2021-05-20T08:08:21.000Z</time>
      </trkpt>
      <trkpt lat="48.69941" lon="2.01701">
        <ele>92</ele>
        <time>2021-05-20T08:08:22.000Z</time>
      </trkpt>
      <trkpt lat="48.69941" lon="2.01702">
        <ele>92</ele>
        <time>2021-05-20T08:08:23.000Z</time>
      </trkpt>
      <trkpt lat="48.69941" lon="2.01703">
        <ele>92</ele>
        <time>2021-05-20T08:08:24.000Z</time>
      </trkpt>
      <trkpt lat="48.6994" lon="2.01703">
        <ele>92</ele>
        <time>2021-05-20T08:08:25.000Z</time>
      </trkpt>
      <trkpt lat="48.6994" lon="2.01704">
        <ele>92</ele>
        <time>2021-05-20T08:08:26.000Z</time>
      </trkpt>
      <trkpt lat="48.69939" lon="2.01705">
        <ele>92</ele>
        <time>2021-05-20T08:08:27.000Z</time>
      </trkpt>
      <trkpt lat="48.69938" lon="2.01705">
        <ele>92</ele>
        <time>2021-05-20T08:08:28.000Z</time>
      </trkpt>
      <trkpt lat="48.69938" lon="2.01705">
        <ele>92</ele>
        <time>2021-05-20T08:08:29.000Z</time>
      </trkpt>
      <trkpt lat="48.69937" lon="2.01707">
        <ele>92</ele>
        <time>2021-05-20T08:08:30.000Z</time>
      </trkpt>
      <trkpt lat="48.69937" lon="2.01708">
        <ele>92</ele>
        <time>2021-05-20T08:08:31.000Z</time>
      </trkpt>
      <trkpt lat="48.69936" lon="2.01709">
        <ele>92</ele>
        <time>2021-05-20T08:08:32.000Z</time>
      </trkpt>
      <trkpt lat="48.69936" lon="2.0171">
        <ele>93</ele>
        <time>2021-05-20T08:08:33.000Z</time>
      </trkpt>
      <trkpt lat="48.69936" lon="2.01711">
        <ele>93</ele>
        <time>2021-05-20T08:08:34.000Z</time>
      </trkpt>
      <trkpt lat="48.69935" lon="2.01713">
        <ele>93</ele>
        <time>2021-05-20T08:08:35.000Z</time>
      </trkpt>
      <trkpt lat="48.69935" lon="2.01715">
        <ele>93</ele>
        <time>2021-05-20T08:08:36.000Z</time>
      </trkpt>
      <trkpt lat="48.69934" lon="2.01716">
        <ele>93</ele>
        <time>2021-05-20T08:08:37.000Z</time>
      </trkpt>
      <trkpt lat="48.69934" lon="2.01717">
        <ele>93</ele>
        <time>2021-05-20T08:08:38.000Z</time>
      </trkpt>
      <trkpt lat="48.69933" lon="2.01719">
        <ele>93</ele>
        <time>2021-05-20T08:08:39.000Z</time>
      </trkpt>
      <trkpt lat="48.69932" lon="2.0172">
        <ele>92</ele>
        <time>2021-05-20T08:08:40.000Z</time>
      </trkpt>
      <trkpt lat="48.69931" lon="2.01721">
        <ele>92</ele>
        <time>2021-05-20T08:08:41.000Z</time>
      </trkpt>
      <trkpt lat="48.69931" lon="2.01722">
        <ele>92</ele>
        <time>2021-05-20T08:08:42.000Z</time>
      </trkpt>
      <trkpt lat="48.69931" lon="2.01723">
        <ele>92</ele>
        <time>2021-05-20T08:08:43.000Z</time>
      </trkpt>
      <trkpt lat="48.6993" lon="2.01725">
        <ele>92</ele>
        <time>2021-05-20T08:08:44.000Z</time>
      </trkpt>
      <trkpt lat="48.69929" lon="2.01727">
        <ele>92</ele>
        <time>2021-05-20T08:08:45.000Z</time>
      </trkpt>
      <trkpt lat="48.69929" lon="2.01728">
        <ele>93</ele>
        <time>2021-05-20T08:08:46.000Z</time>
      </trkpt>
      <trkpt lat="48.69928" lon="2.0173">
        <ele>93</ele>
        <time>2021-05-20T08:08:47.000Z</time>
      </trkpt>
      <trkpt lat="48.69928" lon="2.01731">
        <ele>93</ele>
        <time>2021-05-20T08:08:48.000Z</time>
      </trkpt>
      <trkpt lat="48.69927" lon="2.01732">
        <ele>93</ele>
        <time>2021-05-20T08:08:49.000Z</time>
      </trkpt>
      <trkpt lat="48.69926" lon="2.01734">
        <ele>93</ele>
        <time>2021-05-20T08:08:50.000Z</time>
      </trkpt>
      <trkpt lat="48.69925" lon="2.01736">
        <ele>92</ele>
        <time>2021-05-20T08:08:51.000Z</time>
      </trkpt>
      <trkpt lat="48.69925" lon="2.01737">
        <ele>92</ele>
        <time>2021-05-20T08:08:52.000Z</time>
      </trkpt>
      <trkpt lat="48.69924" lon="2.01738">
        <ele>92</ele>
        <time>2021-05-20T08:08:53.000Z</time>
      </trkpt>
      <trkpt lat="48.69924" lon="2.01739">
        <ele>92</ele>
        <time>2021-05-20T08:08:54.000Z</time>
      </trkpt>
      <trkpt lat="48.69923" lon="2.01741">
        <ele>92</ele>
        <time>2021-05-20T08:08:55.000Z</time>
      </trkpt>
      <trkpt lat="48.69923" lon="2.01742">
        <ele>92</ele>
        <time>2021-05-20T08:08:56.000Z</time>
      </trkpt>
      <trkpt lat="48.69922" lon="2.01744">
        <ele>92</ele>
        <time>2021-05-20T08:08:57.000Z</time>
      </trkpt>
      <trkpt lat="48.69921" lon="2.01746">
        <ele>92</ele>
        <time>2021-05-20T08:08:58.000Z</time>
      </trkpt>
      <trkpt lat="48.69921" lon="2.01747">
        <ele>92</ele>
        <time>2021-05-20T08:08:59.000Z</time>
      </trkpt>
      <trkpt lat="48.6992" lon="2.01748">
        <ele>92</ele>
        <time>2021-05-20T08:09:00.000Z</time>
      </trkpt>
      <trkpt lat="48.6992" lon="2.0175">
        <ele>92</ele>
        <time>2021-05-20T08:09:01.000Z</time>
      </trkpt>
      <trkpt lat="48.69919" lon="2.01751">
        <ele>92</ele>
        <time>2021-05-20T08:09:02.000Z</time>
      </trkpt>
      <trkpt lat="48.69919" lon="2.01753">
        <ele>92</ele>
        <time>2021-05-20T08:09:03.000Z</time>
      </trkpt>
      <trkpt lat="48.69918" lon="2.01754">
        <ele>92</ele>
        <time>2021-05-20T08:09:04.000Z</time>
      </trkpt>
      <trkpt lat="48.69918" lon="2.01755">
        <ele>92</ele>
        <time>2021-05-20T08:09:05.000Z</time>
      </trkpt>
      <trkpt lat="48.69917" lon="2.01757">
        <ele>93</ele>
        <time>2021-05-20T08:09:06.000Z</time>
      </trkpt>
      <trkpt lat="48.69917" lon="2.01758">
        <ele>92</ele>
        <time>2021-05-20T08:09:07.000Z</time>
      </trkpt>
      <trkpt lat="48.69917" lon="2.0176">
        <ele>92</ele>
        <time>2021-05-20T08:09:08.000Z</time>
      </trkpt>
      <trkpt lat="48.69916" lon="2.01761">
        <ele>92</ele>
        <time>2021-05-20T08:09:09.000Z</time>
      </trkpt>
      <trkpt lat="48.69916" lon="2.01762">
        <ele>92</ele>
        <time>2021-05-20T08:09:10.000Z</time>
      </trkpt>
      <trkpt lat="48.69916" lon="2.01763">
        <ele>92</ele>
        <time>2021-05-20T08:09:11.000Z</time>
      </trkpt>
      <trkpt lat="48.69915" lon="2.01765">
        <ele>92</ele>
        <time>2021-05-20T08:09:12.000Z</time>
      </trkpt>
      <trkpt lat="48.69915" lon="2.01767">
        <ele>92</ele>
        <time>2021-05-20T08:09:13.000Z</time>
      </trkpt>
      <trkpt lat="48.69914" lon="2.01768">
        <ele>92</ele>
        <time>2021-05-20T08:09:14.000Z</time>
      </trkpt>
      <trkpt lat="48.69914" lon="2.01769">
        <ele>92</ele>
        <time>2021-05-20T08:09:15.000Z</time>
      </trkpt>
      <trkpt lat="48.69913" lon="2.0177">
        <ele>92</ele>
        <time>2021-05-20T08:09:16.000Z</time>
      </trkpt>
      <trkpt lat="48.69912" lon="2.01772">
        <ele>92</ele>
        <time>2021-05-20T08:09:17.000Z</time>
      </trkpt>
      <trkpt lat="48.69912" lon="2.01773">
        <ele>92</ele>
        <time>2021-05-20T08:09:18.000Z</time>
      </trkpt>
      <trkpt lat="48.69911" lon="2.01775">
        <ele>92</ele>
        <time>2021-05-20T08:09:19.000Z</time>
      </trkpt>
      <trkpt lat="48.69911" lon="2.01776">
        <ele>93</ele>
        <time>2021-05-20T08:09:20.000Z</time>
      </trkpt>
      <trkpt lat="48.6991" lon="2.01778">
        <ele>93</ele>
        <time>2021-05-20T08:09:21.000Z</time>
      </trkpt>
      <trkpt lat="48.69909" lon="2.01779">
        <ele>93</ele>
        <time>2021-05-20T08:09:22.000Z</time>
      </trkpt>
      <trkpt lat="48.69909" lon="2.0178">
        <ele>93</ele>
        <time>2021-05-20T08:09:23.000Z</time>
      </trkpt>
      <trkpt lat="48.69908" lon="2.01782">
        <ele>93</ele>
        <time>2021-05-20T08:09:24.000Z</time>
      </trkpt>
      <trkpt lat="48.69908" lon="2.01783">
        <ele>93</ele>
        <time>2021-05-20T08:09:25.000Z</time>
      </trkpt>
      <trkpt lat="48.69907" lon="2.01785">
        <ele>93</ele>
        <time>2021-05-20T08:09:26.000Z</time>
      </trkpt>
      <trkpt lat="48.69906" lon="2.01786">
        <ele>93</ele>
        <time>2021-05-20T08:09:27.000Z</time>
      </trkpt>
      <trkpt lat="48.69906" lon="2.01788">
        <ele>93</ele>
        <time>2021-05-20T08:09:28.000Z</time>
      </trkpt>
      <trkpt lat="48.69905" lon="2.0179">
        <ele>94</ele>
        <time>2021-05-20T08:09:29.000Z</time>
      </trkpt>
      <trkpt lat="48.69904" lon="2.01791">
        <ele>94</ele>
        <time>2021-05-20T08:09:30.000Z</time>
      </trkpt>
      <trkpt lat="48.69904" lon="2.01792">
        <ele>94</ele>
        <time>2021-05-20T08:09:31.000Z</time>
      </trkpt>
      <trkpt lat="48.69903" lon="2.01794">
        <ele>94</ele>
        <time>2021-05-20T08:09:32.000Z</time>
      </trkpt>
      <trkpt lat="48.69903" lon="2.01795">
        <ele>94</ele>
        <time>2021-05-20T08:09:33.000Z</time>
      </trkpt>
      <trkpt lat="48.69902" lon="2.01796">
        <ele>94</ele>
        <time>2021-05-20T08:09:34.000Z</time>
      </trkpt>
      <trkpt lat="48.69901" lon="2.01798">
        <ele>94</ele>
        <time>2021-05-20T08:09:35.000Z</time>
      </trkpt>
      <trkpt lat="48.69901" lon="2.018">
        <ele>94</ele>
        <time>2021-05-20T08:09:36.000Z</time>
      </trkpt>
      <trkpt lat="48.69901" lon="2.01801">
        <ele>94</ele>
        <time>2021-05-20T08:09:37.000Z</time>
      </trkpt>
      <trkpt lat="48.699" lon="2.01802">
        <ele>94</ele>
        <time>2021-05-20T08:09:38.000Z</time>
      </trkpt>
      <trkpt lat="48.699" lon="2.01803">
        <ele>94</ele>
        <time>2021-05-20T08:09:39.000Z</time>
      </trkpt>
      <trkpt lat="48.69899" lon="2.01804">
        <ele>94</ele>
        <time>2021-05-20T08:09:40.000Z</time>
      </trkpt>
      <trkpt lat="48.69899" lon="2.01805">
        <ele>94</ele>
        <time>2021-05-20T08:09:41.000Z</time>
      </trkpt>
      <trkpt lat="48.69899" lon="2.01806">
        <ele>94</ele>
        <time>2021-05-20T08:09:42.000Z</time>
      </trkpt>
      <trkpt lat="48.69898" lon="2.01807">
        <ele>94</ele>
        <time>2021-05-20T08:09:43.000Z</time>
      </trkpt>
      <trkpt lat="48.69898" lon="2.01808">
        <ele>94</ele>
        <time>2021-05-20T08:09:44.000Z</time>
      </trkpt>
      <trkpt lat="48.69897" lon="2.01809">
        <ele>94</ele>
        <time>2021-05-20T08:09:45.000Z</time>
      </trkpt>
      <trkpt lat="48.69896" lon="2.01811">
        <ele>94</ele>
        <time>2021-05-20T08:09:46.000Z</time>
      </trkpt>
      <trkpt lat="48.69895" lon="2.01812">
        <ele>94</ele>
        <time>2021-05-20T08:09:47.000Z</time>
      </trkpt>
      <trkpt lat="48.69895" lon="2.01813">
        <ele>93</ele>
        <time>2021-05-20T08:09:48.000Z</time>
      </trkpt>
      <trkpt lat="48.69894" lon="2.01814">
        <ele>93</ele>
        <time>2021-05-20T08:09:49.000Z</time>
      </trkpt>
      <trkpt lat="48.69893" lon="2.01815">
        <ele>93</ele>
        <time>2021-05-20T08:09:50.000Z</time>
      </trkpt>
      <trkpt lat="48.69893" lon="2.01817">
        <ele>94</ele>
        <time>2021-05-20T08:09:51.000Z</time>
      </trkpt>
      <trkpt lat="48.69892" lon="2.01818">
        <ele>94</ele>
        <time>2021-05-20T08:09:52.000Z</time>
      </trkpt>
      <trkpt lat="48.69891" lon="2.01819">
        <ele>94</ele>
        <time>2021-05-20T08:09:53.000Z</time>
      </trkpt>
      <trkpt lat="48.6989" lon="2.01821">
        <ele>93</ele>
        <time>2021-05-20T08:09:54.000Z</time>
      </trkpt>
      <trkpt lat="48.69889" lon="2.01822">
        <ele>93</ele>
        <time>2021-05-20T08:09:55.000Z</time>
      </trkpt>
      <trkpt lat="48.69888" lon="2.01824">
        <ele>93</ele>
        <time>2021-05-20T08:09:56.000Z</time>
      </trkpt>
      <trkpt lat="48.69887" lon="2.01826">
        <ele>94</ele>
        <time>2021-05-20T08:09:57.000Z</time>
      </trkpt>
      <trkpt lat="48.69886" lon="2.01827">
        <ele>94</ele>
        <time>2021-05-20T08:09:58.000Z</time>
      </trkpt>
      <trkpt lat="48.69885" lon="2.01828">
        <ele>94</ele>
        <time>2021-05-20T08:09:59.000Z</time>
      </trkpt>
      <trkpt lat="48.69884" lon="2.0183">
        <ele>94</ele>
        <time>2021-05-20T08:10:00.000Z</time>
      </trkpt>
      <trkpt lat="48.69883" lon="2.01831">
        <ele>93</ele>
        <time>2021-05-20T08:10:01.000Z</time>
      </trkpt>
      <trkpt lat="48.69882" lon="2.01833">
        <ele>93</ele>
        <time>2021-05-20T08:10:02.000Z</time>
      </trkpt>
      <trkpt lat="48.69881" lon="2.01834">
        <ele>93</ele>
        <time>2021-05-20T08:10:03.000Z</time>
      </trkpt>
      <trkpt lat="48.6988" lon="2.01836">
        <ele>93</ele>
        <time>2021-05-20T08:10:04.000Z</time>
      </trkpt>
      <trkpt lat="48.6988" lon="2.01837">
        <ele>93</ele>
        <time>2021-05-20T08:10:05.000Z</time>
      </trkpt>
      <trkpt lat="48.69879" lon="2.01838">
        <ele>93</ele>
        <time>2021-05-20T08:10:06.000Z</time>
      </trkpt>
      <trkpt lat="48.69878" lon="2.0184">
        <ele>93</ele>
        <time>2021-05-20T08:10:07.000Z</time>
      </trkpt>
      <trkpt lat="48.69877" lon="2.01841">
        <ele>93</ele>
        <time>2021-05-20T08:10:08.000Z</time>
      </trkpt>
      <trkpt lat="48.69877" lon="2.01843">
        <ele>93</ele>
        <time>2021-05-20T08:10:09.000Z</time>
      </trkpt>
      <trkpt lat="48.69876" lon="2.01844">
        <ele>93</ele>
        <time>2021-05-20T08:10:10.000Z</time>
      </trkpt>
      <trkpt lat="48.69876" lon="2.01845">
        <ele>93</ele>
        <time>2021-05-20T08:10:11.000Z</time>
      </trkpt>
      <trkpt lat="48.69875" lon="2.01847">
        <ele>93</ele>
        <time>2021-05-20T08:10:12.000Z</time>
      </trkpt>
      <trkpt lat="48.69874" lon="2.01849">
        <ele>93</ele>
        <time>2021-05-20T08:10:13.000Z</time>
      </trkpt>
      <trkpt lat="48.69874" lon="2.01851">
        <ele>93</ele>
        <time>2021-05-20T08:10:14.000Z</time>
      </trkpt>
      <trkpt lat="48.69873" lon="2.01852">
        <ele>93</ele>
        <time>2021-05-20T08:10:15.000Z</time>
      </trkpt>
      <trkpt lat="48.69872" lon="2.01854">
        <ele>93</ele>
        <time>2021-05-20T08:10:16.000Z</time>
      </trkpt>
      <trkpt lat="48.69872" lon="2.01855">
        <ele>93</ele>
        <time>2021-05-20T08:10:17.000Z</time>
      </trkpt>
      <trkpt lat="48.69871" lon="2.01856">
        <ele>93</ele>
        <time>2021-05-20T08:10:18.000Z</time>
      </trkpt>
      <trkpt lat="48.69871" lon="2.01858">
        <ele>93</ele>
        <time>2021-05-20T08:10:19.000Z</time>
      </trkpt>
      <trkpt lat="48.6987" lon="2.0186">
        <ele>93</ele>
        <time>2021-05-20T08:10:20.000Z</time>
      </trkpt>
      <trkpt lat="48.6987" lon="2.01861">
        <ele>93</ele>
        <time>2021-05-20T08:10:21.000Z</time>
      </trkpt>
      <trkpt lat="48.69869" lon="2.01863">
        <ele>93</ele>
        <time>2021-05-20T08:10:22.000Z</time>
      </trkpt>
      <trkpt lat="48.69869" lon="2.01864">
        <ele>93</ele>
        <time>2021-05-20T08:10:23.000Z</time>
      </trkpt>
      <trkpt lat="48.69868" lon="2.01866">
        <ele>93</ele>
        <time>2021-05-20T08:10:24.000Z</time>
      </trkpt>
      <trkpt lat="48.69868" lon="2.01867">
        <ele>93</ele>
        <time>2021-05-20T08:10:25.000Z</time>
      </trkpt>
      <trkpt lat="48.69867" lon="2.01869">
        <ele>93</ele>
        <time>2021-05-20T08:10:26.000Z</time>
      </trkpt>
      <trkpt lat="48.69867" lon="2.0187">
        <ele>93</ele>
        <time>2021-05-20T08:10:27.000Z</time>
      </trkpt>
      <trkpt lat="48.69867" lon="2.01871">
        <ele>93</ele>
        <time>2021-05-20T08:10:28.000Z</time>
      </trkpt>
      <trkpt lat="48.69866" lon="2.01872">
        <ele>93</ele>
        <time>2021-05-20T08:10:29.000Z</time>
      </trkpt>
      <trkpt lat="48.69866" lon="2.01874">
        <ele>93</ele>
        <time>2021-05-20T08:10:30.000Z</time>
      </trkpt>
      <trkpt lat="48.69865" lon="2.01876">
        <ele>93</ele>
        <time>2021-05-20T08:10:31.000Z</time>
      </trkpt>
      <trkpt lat="48.69865" lon="2.01877">
        <ele>93</ele>
        <time>2021-05-20T08:10:32.000Z</time>
      </trkpt>
      <trkpt lat="48.69864" lon="2.01878">
        <ele>93</ele>
        <time>2021-05-20T08:10:33.000Z</time>
      </trkpt>
      <trkpt lat="48.69864" lon="2.0188">
        <ele>93</ele>
        <time>2021-05-20T08:10:34.000Z</time>
      </trkpt>
      <trkpt lat="48.69864" lon="2.01881">
        <ele>93</ele>
        <time>2021-05-20T08:10:35.000Z</time>
      </trkpt>
      <trkpt lat="48.69863" lon="2.01883">
        <ele>93</ele>
        <time>2021-05-20T08:10:36.000Z</time>
      </trkpt>
      <trkpt lat="48.69863" lon="2.01884">
        <ele>93</ele>
        <time>2021-05-20T08:10:37.000Z</time>
      </trkpt>
      <trkpt lat="48.69863" lon="2.01885">
        <ele>93</ele>
        <time>2021-05-20T08:10:38.000Z</time>
      </trkpt>
      <trkpt lat="48.69862" lon="2.01887">
        <ele>93</ele>
        <time>2021-05-20T08:10:39.000Z</time>
      </trkpt>
      <trkpt lat="48.69861" lon="2.01888">
        <ele>93</ele>
        <time>2021-05-20T08:10:40.000Z</time>
      </trkpt>
      <trkpt lat="48.69861" lon="2.01889">
        <ele>93</ele>
        <time>2021-05-20T08:10:41.000Z</time>
      </trkpt>
      <trkpt lat="48.6986" lon="2.0189">
        <ele>93</ele>
        <time>2021-05-20T08:10:42.000Z</time>
      </trkpt>
      <trkpt lat="48.6986" lon="2.01891">
        <ele>93</ele>
        <time>2021-05-20T08:10:43.000Z</time>
      </trkpt>
      <trkpt lat="48.6986" lon="2.01893">
        <ele>93</ele>
        <time>2021-05-20T08:10:44.000Z</time>
      </trkpt>
      <trkpt lat="48.6986" lon="2.01894">
        <ele>93</ele>
        <time>2021-05-20T08:10:45.000Z</time>
      </trkpt>
      <trkpt lat="48.69859" lon="2.01895">
        <ele>93</ele>
        <time>2021-05-20T08:10:46.000Z</time>
      </trkpt>
      <trkpt lat="48.69859" lon="2.01897">
        <ele>93</ele>
        <time>2021-05-20T08:10:47.000Z</time>
      </trkpt>
      <trkpt lat="48.69858" lon="2.01898">
        <ele>93</ele>
        <time>2021-05-20T08:10:48.000Z</time>
      </trkpt>
      <trkpt lat="48.69858" lon="2.019">
        <ele>93</ele>
        <time>2021-05-20T08:10:49.000Z</time>
      </trkpt>
      <trkpt lat="48.69857" lon="2.01901">
        <ele>93</ele>
        <time>2021-05-20T08:10:50.000Z</time>
      </trkpt>
      <trkpt lat="48.69857" lon="2.01902">
        <ele>93</ele>
        <time>2021-05-20T08:10:51.000Z</time>
      </trkpt>
      <trkpt lat="48.69856" lon="2.01904">
        <ele>93</ele>
        <time>2021-05-20T08:10:52.000Z</time>
      </trkpt>
      <trkpt lat="48.69856" lon="2.01905">
        <ele>93</ele>
        <time>2021-05-20T08:10:53.000Z</time>
      </trkpt>
      <trkpt lat="48.69855" lon="2.01906">
        <ele>93</ele>
        <time>2021-05-20T08:10:54.000Z</time>
      </trkpt>
      <trkpt lat="48.69855" lon="2.01907">
        <ele>93</ele>
        <time>2021-05-20T08:10:55.000Z</time>
      </trkpt>
      <trkpt lat="48.69854" lon="2.01908">
        <ele>93</ele>
        <time>2021-05-20T08:10:56.000Z</time>
      </trkpt>
      <trkpt lat="48.69853" lon="2.0191">
        <ele>93</ele>
        <time>2021-05-20T08:10:57.000Z</time>
      </trkpt>
      <trkpt lat="48.69853" lon="2.01912">
        <ele>93</ele>
        <time>2021-05-20T08:10:58.000Z</time>
      </trkpt>
      <trkpt lat="48.69852" lon="2.01913">
        <ele>93</ele>
        <time>2021-05-20T08:10:59.000Z</time>
      </trkpt>
      <trkpt lat="48.69851" lon="2.01914">
        <ele>93</ele>
        <time>2021-05-20T08:11:00.000Z</time>
      </trkpt>
      <trkpt lat="48.69851" lon="2.01916">
        <ele>93</ele>
        <time>2021-05-20T08:11:01.000Z</time>
      </trkpt>
      <trkpt lat="48.6985" lon="2.01917">
        <ele>93</ele>
        <time>2021-05-20T08:11:02.000Z</time>
      </trkpt>
      <trkpt lat="48.6985" lon="2.01918">
        <ele>93</ele>
        <time>2021-05-20T08:11:03.000Z</time>
      </trkpt>
      <trkpt lat="48.69849" lon="2.0192">
        <ele>94</ele>
        <time>2021-05-20T08:11:04.000Z</time>
      </trkpt>
      <trkpt lat="48.69849" lon="2.01921">
        <ele>94</ele>
        <time>2021-05-20T08:11:05.000Z</time>
      </trkpt>
      <trkpt lat="48.69849" lon="2.01922">
        <ele>94</ele>
        <time>2021-05-20T08:11:06.000Z</time>
      </trkpt>
      <trkpt lat="48.69848" lon="2.01923">
        <ele>94</ele>
        <time>2021-05-20T08:11:07.000Z</time>
      </trkpt>
      <trkpt lat="48.69847" lon="2.01925">
        <ele>94</ele>
        <time>2021-05-20T08:11:08.000Z</time>
      </trkpt>
      <trkpt lat="48.69847" lon="2.01926">
        <ele>94</ele>
        <time>2021-05-20T08:11:09.000Z</time>
      </trkpt>
      <trkpt lat="48.69846" lon="2.01928">
        <ele>94</ele>
        <time>2021-05-20T08:11:10.000Z</time>
      </trkpt>
      <trkpt lat="48.69845" lon="2.01929">
        <ele>93</ele>
        <time>2021-05-20T08:11:11.000Z</time>
      </trkpt>
      <trkpt lat="48.69845" lon="2.01931">
        <ele>93</ele>
        <time>2021-05-20T08:11:12.000Z</time>
      </trkpt>
      <trkpt lat="48.69844" lon="2.01932">
        <ele>93</ele>
        <time>2021-05-20T08:11:13.000Z</time>
      </trkpt>
      <trkpt lat="48.69843" lon="2.01933">
        <ele>93</ele>
        <time>2021-05-20T08:11:14.000Z</time>
      </trkpt>
      <trkpt lat="48.69843" lon="2.01934">
        <ele>93</ele>
        <time>2021-05-20T08:11:15.000Z</time>
      </trkpt>
      <trkpt lat="48.69842" lon="2.01936">
        <ele>93</ele>
        <time>2021-05-20T08:11:16.000Z</time>
      </trkpt>
      <trkpt lat="48.69841" lon="2.01937">
        <ele>93</ele>
        <time>2021-05-20T08:11:17.000Z</time>
      </trkpt>
      <trkpt lat="48.69841" lon="2.01938">
        <ele>93</ele>
        <time>2021-05-20T08:11:18.000Z</time>
      </trkpt>
      <trkpt lat="48.6984" lon="2.0194">
        <ele>93</ele>
        <time>2021-05-20T08:11:19.000Z</time>
      </trkpt>
      <trkpt lat="48.69839" lon="2.01941">
        <ele>93</ele>
        <time>2021-05-20T08:11:20.000Z</time>
      </trkpt>
      <trkpt lat="48.69839" lon="2.01942">
        <ele>93</ele>
        <time>2021-05-20T08:11:21.000Z</time>
      </trkpt>
      <trkpt lat="48.69838" lon="2.01944">
        <ele>93</ele>
        <time>2021-05-20T08:11:22.000Z</time>
      </trkpt>
      <trkpt lat="48.69837" lon="2.01946">
        <ele>93</ele>
        <time>2021-05-20T08:11:23.000Z</time>
      </trkpt>
      <trkpt lat="48.69836" lon="2.01947">
        <ele>93</ele>
        <time>2021-05-20T08:11:24.000Z</time>
      </trkpt>
      <trkpt lat="48.69836" lon="2.01948">
        <ele>93</ele>
        <time>2021-05-20T08:11:25.000Z</time>
      </trkpt>
      <trkpt lat="48.69835" lon="2.0195">
        <ele>93</ele>
        <time>2021-05-20T08:11:26.000Z</time>
      </trkpt>
      <trkpt lat="48.69834" lon="2.01951">
        <ele>93</ele>
        <time>2021-05-20T08:11:27.000Z</time>
      </trkpt>
      <trkpt lat="48.69833" lon="2.01953">
        <ele>93</ele>
        <time>2021-05-20T08:11:28.000Z</time>
      </trkpt>
      <trkpt lat="48.69832" lon="2.01955">
        <ele>93</ele>
        <time>2021-05-20T08:11:29.000Z</time>
      </trkpt>
      <trkpt lat="48.69832" lon="2.01957">
        <ele>93</ele>
        <time>2021-05-20T08:11:30.000Z</time>
      </trkpt>
      <trkpt lat="48.69831" lon="2.01958">
        <ele>93</ele>
        <time>2021-05-20T08:11:31.000Z</time>
      </trkpt>
      <trkpt lat="48.6983" lon="2.0196">
        <ele>93</ele>
        <time>2021-05-20T08:11:32.000Z</time>
      </trkpt>
      <trkpt lat="48.69829" lon="2.01961">
        <ele>93</ele>
        <time>2021-05-20T08:11:33.000Z</time>
      </trkpt>
      <trkpt lat="48.69828" lon="2.01962">
        <ele>93</ele>
        <time>2021-05-20T08:11:34.000Z</time>
      </trkpt>
      <trkpt lat="48.69827" lon="2.01964">
        <ele>93</ele>
        <time>2021-05-20T08:11:35.000Z</time>
      </trkpt>
      <trkpt lat="48.69826" lon="2.01965">
        <ele>93</ele>
        <time>2021-05-20T08:11:36.000Z</time>
      </trkpt>
      <trkpt lat="48.69825" lon="2.01966">
        <ele>94</ele>
        <time>2021-05-20T08:11:37.000Z</time>
      </trkpt>
      <trkpt lat="48.69824" lon="2.01967">
        <ele>94</ele>
        <time>2021-05-20T08:11:38.000Z</time>
      </trkpt>
      <trkpt lat="48.69823" lon="2.01969">
        <ele>94</ele>
        <time>2021-05-20T08:11:39.000Z</time>
      </trkpt>
      <trkpt lat="48.69823" lon="2.0197">
        <ele>94</ele>
        <time>2021-05-20T08:11:40.000Z</time>
      </trkpt>
      <trkpt lat="48.69822" lon="2.01971">
        <ele>94</ele>
        <time>2021-05-20T08:11:41.000Z</time>
      </trkpt>
      <trkpt lat="48.69822" lon="2.01973">
        <ele>94</ele>
        <time>2021-05-20T08:11:42.000Z</time>
      </trkpt>
      <trkpt lat="48.69821" lon="2.01974">
        <ele>94</ele>
        <time>2021-05-20T08:11:43.000Z</time>
      </trkpt>
      <trkpt lat="48.69821" lon="2.01975">
        <ele>94</ele>
        <time>2021-05-20T08:11:44.000Z</time>
      </trkpt>
      <trkpt lat="48.6982" lon="2.01976">
        <ele>94</ele>
        <time>2021-05-20T08:11:45.000Z</time>
      </trkpt>
      <trkpt lat="48.69819" lon="2.01977">
        <ele>94</ele>
        <time>2021-05-20T08:11:46.000Z</time>
      </trkpt>
      <trkpt lat="48.69818" lon="2.01979">
        <ele>94</ele>
        <time>2021-05-20T08:11:47.000Z</time>
      </trkpt>
      <trkpt lat="48.69818" lon="2.0198">
        <ele>95</ele>
        <time>2021-05-20T08:11:48.000Z</time>
      </trkpt>
      <trkpt lat="48.69817" lon="2.01981">
        <ele>95</ele>
        <time>2021-05-20T08:11:49.000Z</time>
      </trkpt>
      <trkpt lat="48.69816" lon="2.01982">
        <ele>95</ele>
        <time>2021-05-20T08:11:50.000Z</time>
      </trkpt>
      <trkpt lat="48.69816" lon="2.01983">
        <ele>95</ele>
        <time>2021-05-20T08:11:51.000Z</time>
      </trkpt>
      <trkpt lat="48.69815" lon="2.01984">
        <ele>95</ele>
        <time>2021-05-20T08:11:52.000Z</time>
      </trkpt>
      <trkpt lat="48.69814" lon="2.01985">
        <ele>95</ele>
        <time>2021-05-20T08:11:53.000Z</time>
      </trkpt>
      <trkpt lat="48.69814" lon="2.01986">
        <ele>95</ele>
        <time>2021-05-20T08:11:54.000Z</time>
      </trkpt>
      <trkpt lat="48.69813" lon="2.01987">
        <ele>95</ele>
        <time>2021-05-20T08:11:55.000Z</time>
      </trkpt>
      <trkpt lat="48.69812" lon="2.01988">
        <ele>96</ele>
        <time>2021-05-20T08:11:56.000Z</time>
      </trkpt>
      <trkpt lat="48.69811" lon="2.01989">
        <ele>96</ele>
        <time>2021-05-20T08:11:57.000Z</time>
      </trkpt>
      <trkpt lat="48.6981" lon="2.0199">
        <ele>96</ele>
        <time>2021-05-20T08:11:58.000Z</time>
      </trkpt>
      <trkpt lat="48.69809" lon="2.01991">
        <ele>96</ele>
        <time>2021-05-20T08:11:59.000Z</time>
      </trkpt>
      <trkpt lat="48.69808" lon="2.01992">
        <ele>96</ele>
        <time>2021-05-20T08:12:00.000Z</time>
      </trkpt>
      <trkpt lat="48.69807" lon="2.01993">
        <ele>96</ele>
        <time>2021-05-20T08:12:01.000Z</time>
      </trkpt>
      <trkpt lat="48.69806" lon="2.01994">
        <ele>96</ele>
        <time>2021-05-20T08:12:02.000Z</time>
      </trkpt>
      <trkpt lat="48.69805" lon="2.01995">
        <ele>96</ele>
        <time>2021-05-20T08:12:03.000Z</time>
      </trkpt>
      <trkpt lat="48.69804" lon="2.01995">
        <ele>97</ele>
        <time>2021-05-20T08:12:04.000Z</time>
      </trkpt>
      <trkpt lat="48.69803" lon="2.01996">
        <ele>97</ele>
        <time>2021-05-20T08:12:05.000Z</time>
      </trkpt>
      <trkpt lat="48.69802" lon="2.01996">
        <ele>97</ele>
        <time>2021-05-20T08:12:06.000Z</time>
      </trkpt>
      <trkpt lat="48.69801" lon="2.01997">
        <ele>97</ele>
        <time>2021-05-20T08:12:07.000Z</time>
      </trkpt>
      <trkpt lat="48.698" lon="2.01998">
        <ele>97</ele>
        <time>2021-05-20T08:12:08.000Z</time>
      </trkpt>
      <trkpt lat="48.69799" lon="2.01998">
        <ele>97</ele>
        <time>2021-05-20T08:12:09.000Z</time>
      </trkpt>
      <trkpt lat="48.69799" lon="2.01999">
        <ele>97</ele>
        <time>2021-05-20T08:12:10.000Z</time>
      </trkpt>
      <trkpt lat="48.69798" lon="2.01999">
        <ele>97</ele>
        <time>2021-05-20T08:12:11.000Z</time>
      </trkpt>
      <trkpt lat="48.69797" lon="2.02">
        <ele>97</ele>
        <time>2021-05-20T08:12:12.000Z</time>
      </trkpt>
      <trkpt lat="48.69796" lon="2.02001">
        <ele>97</ele>
        <time>2021-05-20T08:12:13.000Z</time>
      </trkpt>
      <trkpt lat="48.69795" lon="2.02001">
        <ele>97</ele>
        <time>2021-05-20T08:12:14.000Z</time>
      </trkpt>
      <trkpt lat="48.69793" lon="2.02002">
        <ele>97</ele>
        <time>2021-05-20T08:12:15.000Z</time>
      </trkpt>
      <trkpt lat="48.69793" lon="2.02003">
        <ele>97</ele>
        <time>2021-05-20T08:12:16.000Z</time>
      </trkpt>
      <trkpt lat="48.69791" lon="2.02003">
        <ele>97</ele>
        <time>2021-05-20T08:12:17.000Z</time>
      </trkpt>
      <trkpt lat="48.6979" lon="2.02003">
        <ele>97</ele>
        <time>2021-05-20T08:12:18.000Z</time>
      </trkpt>
      <trkpt lat="48.69789" lon="2.02004">
        <ele>97</ele>
        <time>2021-05-20T08:12:19.000Z</time>
      </trkpt>
      <trkpt lat="48.69788" lon="2.02004">
        <ele>98</ele>
        <time>2021-05-20T08:12:20.000Z</time>
      </trkpt>
      <trkpt lat="48.69787" lon="2.02004">
        <ele>98</ele>
        <time>2021-05-20T08:12:21.000Z</time>
      </trkpt>
      <trkpt lat="48.69786" lon="2.02004">
        <ele>98</ele>
        <time>2021-05-20T08:12:22.000Z</time>
      </trkpt>
      <trkpt lat="48.69784" lon="2.02005">
        <ele>98</ele>
        <time>2021-05-20T08:12:23.000Z</time>
      </trkpt>
      <trkpt lat="48.69783" lon="2.02006">
        <ele>98</ele>
        <time>2021-05-20T08:12:24.000Z</time>
      </trkpt>
      <trkpt lat="48.69782" lon="2.02007">
        <ele>98</ele>
        <time>2021-05-20T08:12:25.000Z</time>
      </trkpt>
      <trkpt lat="48.69781" lon="2.02007">
        <ele>98</ele>
        <time>2021-05-20T08:12:26.000Z</time>
      </trkpt>
      <trkpt lat="48.6978" lon="2.02008">
        <ele>98</ele>
        <time>2021-05-20T08:12:27.000Z</time>
      </trkpt>
      <trkpt lat="48.69779" lon="2.02008">
        <ele>98</ele>
        <time>2021-05-20T08:12:28.000Z</time>
      </trkpt>
      <trkpt lat="48.69778" lon="2.02009">
        <ele>98</ele>
        <time>2021-05-20T08:12:29.000Z</time>
      </trkpt>
      <trkpt lat="48.69777" lon="2.0201">
        <ele>98</ele>
        <time>2021-05-20T08:12:30.000Z</time>
      </trkpt>
      <trkpt lat="48.69776" lon="2.02011">
        <ele>98</ele>
        <time>2021-05-20T08:12:31.000Z</time>
      </trkpt>
      <trkpt lat="48.69774" lon="2.02012">
        <ele>98</ele>
        <time>2021-05-20T08:12:32.000Z</time>
      </trkpt>
      <trkpt lat="48.69773" lon="2.02012">
        <ele>98</ele>
        <time>2021-05-20T08:12:33.000Z</time>
      </trkpt>
      <trkpt lat="48.69772" lon="2.02013">
        <ele>98</ele>
        <time>2021-05-20T08:12:34.000Z</time>
      </trkpt>
      <trkpt lat="48.6977" lon="2.02014">
        <ele>98</ele>
        <time>2021-05-20T08:12:35.000Z</time>
      </trkpt>
      <trkpt lat="48.69769" lon="2.02015">
        <ele>98</ele>
        <time>2021-05-20T08:12:36.000Z</time>
      </trkpt>
      <trkpt lat="48.69768" lon="2.02016">
        <ele>98</ele>
        <time>2021-05-20T08:12:37.000Z</time>
      </trkpt>
      <trkpt lat="48.69767" lon="2.02017">
        <ele>98</ele>
        <time>2021-05-20T08:12:38.000Z</time>
      </trkpt>
      <trkpt lat="48.69766" lon="2.02017">
        <ele>98</ele>
        <time>2021-05-20T08:12:39.000Z</time>
      </trkpt>
      <trkpt lat="48.69765" lon="2.02018">
        <ele>98</ele>
        <time>2021-05-20T08:12:40.000Z</time>
      </trkpt>
      <trkpt lat="48.69764" lon="2.02018">
        <ele>98</ele>
        <time>2021-05-20T08:12:41.000Z</time>
      </trkpt>
      <trkpt lat="48.69762" lon="2.02019">
        <ele>98</ele>
        <time>2021-05-20T08:12:42.000Z</time>
      </trkpt>
      <trkpt lat="48.69761" lon="2.0202">
        <ele>99</ele>
        <time>2021-05-20T08:12:43.000Z</time>
      </trkpt>
      <trkpt lat="48.6976" lon="2.0202">
        <ele>99</ele>
        <time>2021-05-20T08:12:44.000Z</time>
      </trkpt>
      <trkpt lat="48.69759" lon="2.02021">
        <ele>99</ele>
        <time>2021-05-20T08:12:45.000Z</time>
      </trkpt>
      <trkpt lat="48.69757" lon="2.02022">
        <ele>99</ele>
        <time>2021-05-20T08:12:46.000Z</time>
      </trkpt>
      <trkpt lat="48.69757" lon="2.02022">
        <ele>99</ele>
        <time>2021-05-20T08:12:47.000Z</time>
      </trkpt>
      <trkpt lat="48.69755" lon="2.02023">
        <ele>99</ele>
        <time>2021-05-20T08:12:48.000Z</time>
      </trkpt>
      <trkpt lat="48.69754" lon="2.02023">
        <ele>99</ele>
        <time>2021-05-20T08:12:49.000Z</time>
      </trkpt>
      <trkpt lat="48.69753" lon="2.02024">
        <ele>99</ele>
        <time>2021-05-20T08:12:50.000Z</time>
      </trkpt>
      <trkpt lat="48.69752" lon="2.02024">
        <ele>99</ele>
        <time>2021-05-20T08:12:51.000Z</time>
      </trkpt>
      <trkpt lat="48.69752" lon="2.02025">
        <ele>99</ele>
        <time>2021-05-20T08:12:52.000Z</time>
      </trkpt>
      <trkpt lat="48.69751" lon="2.02025">
        <ele>99</ele>
        <time>2021-05-20T08:12:53.000Z</time>
      </trkpt>
      <trkpt lat="48.6975" lon="2.02026">
        <ele>99</ele>
        <time>2021-05-20T08:12:54.000Z</time>
      </trkpt>
      <trkpt lat="48.6975" lon="2.02026">
        <ele>99</ele>
        <time>2021-05-20T08:12:55.000Z</time>
      </trkpt>
      <trkpt lat="48.69749" lon="2.02027">
        <ele>99</ele>
        <time>2021-05-20T08:12:56.000Z</time>
      </trkpt>
      <trkpt lat="48.69748" lon="2.02027">
        <ele>99</ele>
        <time>2021-05-20T08:12:57.000Z</time>
      </trkpt>
      <trkpt lat="48.69747" lon="2.02028">
        <ele>99</ele>
        <time>2021-05-20T08:12:58.000Z</time>
      </trkpt>
      <trkpt lat="48.69746" lon="2.02029">
        <ele>99</ele>
        <time>2021-05-20T08:12:59.000Z</time>
      </trkpt>
      <trkpt lat="48.69745" lon="2.02029">
        <ele>99</ele>
        <time>2021-05-20T08:13:00.000Z</time>
      </trkpt>
      <trkpt lat="48.69744" lon="2.02029">
        <ele>99</ele>
        <time>2021-05-20T08:13:01.000Z</time>
      </trkpt>
      <trkpt lat="48.69743" lon="2.0203">
        <ele>100</ele>
        <time>2021-05-20T08:13:02.000Z</time>
      </trkpt>
      <trkpt lat="48.69742" lon="2.0203">
        <ele>100</ele>
        <time>2021-05-20T08:13:03.000Z</time>
      </trkpt>
      <trkpt lat="48.69741" lon="2.02031">
        <ele>100</ele>
        <time>2021-05-20T08:13:04.000Z</time>
      </trkpt>
      <trkpt lat="48.6974" lon="2.02032">
        <ele>100</ele>
        <time>2021-05-20T08:13:05.000Z</time>
      </trkpt>
      <trkpt lat="48.69738" lon="2.02033">
        <ele>100</ele>
        <time>2021-05-20T08:13:06.000Z</time>
      </trkpt>
      <trkpt lat="48.69737" lon="2.02033">
        <ele>100</ele>
        <time>2021-05-20T08:13:07.000Z</time>
      </trkpt>
      <trkpt lat="48.69736" lon="2.02034">
        <ele>100</ele>
        <time>2021-05-20T08:13:08.000Z</time>
      </trkpt>
      <trkpt lat="48.69735" lon="2.02035">
        <ele>100</ele>
        <time>2021-05-20T08:13:09.000Z</time>
      </trkpt>
      <trkpt lat="48.69734" lon="2.02036">
        <ele>100</ele>
        <time>2021-05-20T08:13:10.000Z</time>
      </trkpt>
      <trkpt lat="48.69733" lon="2.02036">
        <ele>100</ele>
        <time>2021-05-20T08:13:11.000Z</time>
      </trkpt>
      <trkpt lat="48.69732" lon="2.02036">
        <ele>100</ele>
        <time>2021-05-20T08:13:12.000Z</time>
      </trkpt>
      <trkpt lat="48.69731" lon="2.02037">
        <ele>100</ele>
        <time>2021-05-20T08:13:13.000Z</time>
      </trkpt>
      <trkpt lat="48.69729" lon="2.02038">
        <ele>101</ele>
        <time>2021-05-20T08:13:14.000Z</time>
      </trkpt>
      <trkpt lat="48.69728" lon="2.02039">
        <ele>101</ele>
        <time>2021-05-20T08:13:15.000Z</time>
      </trkpt>
      <trkpt lat="48.69727" lon="2.02039">
        <ele>101</ele>
        <time>2021-05-20T08:13:16.000Z</time>
      </trkpt>
      <trkpt lat="48.69726" lon="2.0204">
        <ele>101</ele>
        <time>2021-05-20T08:13:17.000Z</time>
      </trkpt>
      <trkpt lat="48.69724" lon="2.02041">
        <ele>101</ele>
        <time>2021-05-20T08:13:18.000Z</time>
      </trkpt>
      <trkpt lat="48.69723" lon="2.02041">
        <ele>101</ele>
        <time>2021-05-20T08:13:19.000Z</time>
      </trkpt>
      <trkpt lat="48.69722" lon="2.02041">
        <ele>101</ele>
        <time>2021-05-20T08:13:20.000Z</time>
      </trkpt>
      <trkpt lat="48.69721" lon="2.02042">
        <ele>101</ele>
        <time>2021-05-20T08:13:21.000Z</time>
      </trkpt>
      <trkpt lat="48.6972" lon="2.02043">
        <ele>101</ele>
        <time>2021-05-20T08:13:22.000Z</time>
      </trkpt>
      <trkpt lat="48.69719" lon="2.02043">
        <ele>101</ele>
        <time>2021-05-20T08:13:23.000Z</time>
      </trkpt>
      <trkpt lat="48.69718" lon="2.02044">
        <ele>101</ele>
        <time>2021-05-20T08:13:24.000Z</time>
      </trkpt>
      <trkpt lat="48.69717" lon="2.02045">
        <ele>101</ele>
        <time>2021-05-20T08:13:25.000Z</time>
      </trkpt>
      <trkpt lat="48.69716" lon="2.02046">
        <ele>101</ele>
        <time>2021-05-20T08:13:26.000Z</time>
      </trkpt>
      <trkpt lat="48.69716" lon="2.02047">
        <ele>102</ele>
        <time>2021-05-20T08:13:27.000Z</time>
      </trkpt>
      <trkpt lat="48.69715" lon="2.02047">
        <ele>102</ele>
        <time>2021-05-20T08:13:28.000Z</time>
      </trkpt>
      <trkpt lat="48.69713" lon="2.02048">
        <ele>102</ele>
        <time>2021-05-20T08:13:29.000Z</time>
      </trkpt>
      <trkpt lat="48.69712" lon="2.02049">
        <ele>102</ele>
        <time>2021-05-20T08:13:30.000Z</time>
      </trkpt>
      <trkpt lat="48.69711" lon="2.0205">
        <ele>102</ele>
        <time>2021-05-20T08:13:31.000Z</time>
      </trkpt>
      <trkpt lat="48.6971" lon="2.02051">
        <ele>102</ele>
        <time>2021-05-20T08:13:32.000Z</time>
      </trkpt>
      <trkpt lat="48.69709" lon="2.02052">
        <ele>102</ele>
        <time>2021-05-20T08:13:33.000Z</time>
      </trkpt>
      <trkpt lat="48.69707" lon="2.02053">
        <ele>102</ele>
        <time>2021-05-20T08:13:34.000Z</time>
      </trkpt>
      <trkpt lat="48.69706" lon="2.02054">
        <ele>102</ele>
        <time>2021-05-20T08:13:35.000Z</time>
      </trkpt>
      <trkpt lat="48.69705" lon="2.02054">
        <ele>102</ele>
        <time>2021-05-20T08:13:36.000Z</time>
      </trkpt>
      <trkpt lat="48.69703" lon="2.02055">
        <ele>102</ele>
        <time>2021-05-20T08:13:37.000Z</time>
      </trkpt>
      <trkpt lat="48.69702" lon="2.02056">
        <ele>102</ele>
        <time>2021-05-20T08:13:38.000Z</time>
      </trkpt>
      <trkpt lat="48.69701" lon="2.02056">
        <ele>102</ele>
        <time>2021-05-20T08:13:39.000Z</time>
      </trkpt>
      <trkpt lat="48.69699" lon="2.02058">
        <ele>102</ele>
        <time>2021-05-20T08:13:40.000Z</time>
      </trkpt>
      <trkpt lat="48.69698" lon="2.02059">
        <ele>102</ele>
        <time>2021-05-20T08:13:41.000Z</time>
      </trkpt>
      <trkpt lat="48.69696" lon="2.0206">
        <ele>102</ele>
        <time>2021-05-20T08:13:42.000Z</time>
      </trkpt>
      <trkpt lat="48.69695" lon="2.02061">
        <ele>102</ele>
        <time>2021-05-20T08:13:43.000Z</time>
      </trkpt>
      <trkpt lat="48.69694" lon="2.02062">
        <ele>102</ele>
        <time>2021-05-20T08:13:44.000Z</time>
      </trkpt>
      <trkpt lat="48.69692" lon="2.02062">
        <ele>102</ele>
        <time>2021-05-20T08:13:45.000Z</time>
      </trkpt>
      <trkpt lat="48.69691" lon="2.02063">
        <ele>103</ele>
        <time>2021-05-20T08:13:46.000Z</time>
      </trkpt>
      <trkpt lat="48.6969" lon="2.02064">
        <ele>103</ele>
        <time>2021-05-20T08:13:47.000Z</time>
      </trkpt>
      <trkpt lat="48.69688" lon="2.02065">
        <ele>103</ele>
        <time>2021-05-20T08:13:48.000Z</time>
      </trkpt>
      <trkpt lat="48.69686" lon="2.02066">
        <ele>103</ele>
        <time>2021-05-20T08:13:49.000Z</time>
      </trkpt>
      <trkpt lat="48.69684" lon="2.02067">
        <ele>103</ele>
        <time>2021-05-20T08:13:50.000Z</time>
      </trkpt>
      <trkpt lat="48.69683" lon="2.02068">
        <ele>103</ele>
        <time>2021-05-20T08:13:51.000Z</time>
      </trkpt>
      <trkpt lat="48.69681" lon="2.02069">
        <ele>103</ele>
        <time>2021-05-20T08:13:52.000Z</time>
      </trkpt>
      <trkpt lat="48.6968" lon="2.0207">
        <ele>103</ele>
        <time>2021-05-20T08:13:53.000Z</time>
      </trkpt>
      <trkpt lat="48.69678" lon="2.02071">
        <ele>103</ele>
        <time>2021-05-20T08:13:54.000Z</time>
      </trkpt>
      <trkpt lat="48.69677" lon="2.02072">
        <ele>103</ele>
        <time>2021-05-20T08:13:55.000Z</time>
      </trkpt>
      <trkpt lat="48.69676" lon="2.02073">
        <ele>104</ele>
        <time>2021-05-20T08:13:56.000Z</time>
      </trkpt>
      <trkpt lat="48.69674" lon="2.02073">
        <ele>104</ele>
        <time>2021-05-20T08:13:57.000Z</time>
      </trkpt>
      <trkpt lat="48.69673" lon="2.02074">
        <ele>104</ele>
        <time>2021-05-20T08:13:58.000Z</time>
      </trkpt>
      <trkpt lat="48.69671" lon="2.02075">
        <ele>104</ele>
        <time>2021-05-20T08:13:59.000Z</time>
      </trkpt>
      <trkpt lat="48.6967" lon="2.02076">
        <ele>104</ele>
        <time>2021-05-20T08:14:00.000Z</time>
      </trkpt>
      <trkpt lat="48.69669" lon="2.02077">
        <ele>104</ele>
        <time>2021-05-20T08:14:01.000Z</time>
      </trkpt>
      <trkpt lat="48.69668" lon="2.02078">
        <ele>104</ele>
        <time>2021-05-20T08:14:02.000Z</time>
      </trkpt>
      <trkpt lat="48.69667" lon="2.02079">
        <ele>104</ele>
        <time>2021-05-20T08:14:03.000Z</time>
      </trkpt>
      <trkpt lat="48.69665" lon="2.0208">
        <ele>104</ele>
        <time>2021-05-20T08:14:04.000Z</time>
      </trkpt>
      <trkpt lat="48.69664" lon="2.02081">
        <ele>104</ele>
        <time>2021-05-20T08:14:05.000Z</time>
      </trkpt>
      <trkpt lat="48.69664" lon="2.02082">
        <ele>104</ele>
        <time>2021-05-20T08:14:06.000Z</time>
      </trkpt>
      <trkpt lat="48.69663" lon="2.02084">
        <ele>104</ele>
        <time>2021-05-20T08:14:07.000Z</time>
      </trkpt>
      <trkpt lat="48.69663" lon="2.02084">
        <ele>104</ele>
        <time>2021-05-20T08:14:08.000Z</time>
      </trkpt>
      <trkpt lat="48.69663" lon="2.02085">
        <ele>104</ele>
        <time>2021-05-20T08:14:09.000Z</time>
      </trkpt>
      <trkpt lat="48.69662" lon="2.02085">
        <ele>104</ele>
        <time>2021-05-20T08:14:10.000Z</time>
      </trkpt>
      <trkpt lat="48.69662" lon="2.02086">
        <ele>104</ele>
        <time>2021-05-20T08:14:11.000Z</time>
      </trkpt>
      <trkpt lat="48.69661" lon="2.02089">
        <ele>105</ele>
        <time>2021-05-20T08:14:12.000Z</time>
      </trkpt>
      <trkpt lat="48.6966" lon="2.0209">
        <ele>105</ele>
        <time>2021-05-20T08:14:13.000Z</time>
      </trkpt>
      <trkpt lat="48.69659" lon="2.02091">
        <ele>105</ele>
        <time>2021-05-20T08:14:14.000Z</time>
      </trkpt>
      <trkpt lat="48.69658" lon="2.02092">
        <ele>105</ele>
        <time>2021-05-20T08:14:15.000Z</time>
      </trkpt>
      <trkpt lat="48.69657" lon="2.02093">
        <ele>105</ele>
        <time>2021-05-20T08:14:16.000Z</time>
      </trkpt>
      <trkpt lat="48.69656" lon="2.02093">
        <ele>105</ele>
        <time>2021-05-20T08:14:17.000Z</time>
      </trkpt>
      <trkpt lat="48.69655" lon="2.02093">
        <ele>105</ele>
        <time>2021-05-20T08:14:18.000Z</time>
      </trkpt>
      <trkpt lat="48.69654" lon="2.02092">
        <ele>104</ele>
        <time>2021-05-20T08:14:19.000Z</time>
      </trkpt>
      <trkpt lat="48.69653" lon="2.02092">
        <ele>104</ele>
        <time>2021-05-20T08:14:20.000Z</time>
      </trkpt>
      <trkpt lat="48.69652" lon="2.02091">
        <ele>104</ele>
        <time>2021-05-20T08:14:21.000Z</time>
      </trkpt>
      <trkpt lat="48.69652" lon="2.02091">
        <ele>104</ele>
        <time>2021-05-20T08:14:22.000Z</time>
      </trkpt>
      <trkpt lat="48.69651" lon="2.0209">
        <ele>104</ele>
        <time>2021-05-20T08:14:23.000Z</time>
      </trkpt>
      <trkpt lat="48.69651" lon="2.0209">
        <ele>104</ele>
        <time>2021-05-20T08:14:24.000Z</time>
      </trkpt>
      <trkpt lat="48.6965" lon="2.0209">
        <ele>104</ele>
        <time>2021-05-20T08:14:25.000Z</time>
      </trkpt>
      <trkpt lat="48.69649" lon="2.0209">
        <ele>103</ele>
        <time>2021-05-20T08:14:26.000Z</time>
      </trkpt>
      <trkpt lat="48.69648" lon="2.0209">
        <ele>103</ele>
        <time>2021-05-20T08:14:27.000Z</time>
      </trkpt>
      <trkpt lat="48.69647" lon="2.0209">
        <ele>103</ele>
        <time>2021-05-20T08:14:28.000Z</time>
      </trkpt>
      <trkpt lat="48.69646" lon="2.0209">
        <ele>103</ele>
        <time>2021-05-20T08:14:29.000Z</time>
      </trkpt>
      <trkpt lat="48.69645" lon="2.02091">
        <ele>103</ele>
        <time>2021-05-20T08:14:30.000Z</time>
      </trkpt>
      <trkpt lat="48.69644" lon="2.02091">
        <ele>103</ele>
        <time>2021-05-20T08:14:31.000Z</time>
      </trkpt>
      <trkpt lat="48.69644" lon="2.02091">
        <ele>103</ele>
        <time>2021-05-20T08:14:32.000Z</time>
      </trkpt>
      <trkpt lat="48.69643" lon="2.02091">
        <ele>103</ele>
        <time>2021-05-20T08:14:33.000Z</time>
      </trkpt>
      <trkpt lat="48.69643" lon="2.02092">
        <ele>102</ele>
        <time>2021-05-20T08:14:34.000Z</time>
      </trkpt>
      <trkpt lat="48.69642" lon="2.02092">
        <ele>102</ele>
        <time>2021-05-20T08:14:35.000Z</time>
      </trkpt>
      <trkpt lat="48.69642" lon="2.02093">
        <ele>102</ele>
        <time>2021-05-20T08:14:36.000Z</time>
      </trkpt>
      <trkpt lat="48.69641" lon="2.02093">
        <ele>102</ele>
        <time>2021-05-20T08:14:37.000Z</time>
      </trkpt>
      <trkpt lat="48.6964" lon="2.02094">
        <ele>102</ele>
        <time>2021-05-20T08:14:38.000Z</time>
      </trkpt>
      <trkpt lat="48.69639" lon="2.02095">
        <ele>102</ele>
        <time>2021-05-20T08:14:39.000Z</time>
      </trkpt>
      <trkpt lat="48.69638" lon="2.02096">
        <ele>102</ele>
        <time>2021-05-20T08:14:40.000Z</time>
      </trkpt>
      <trkpt lat="48.69637" lon="2.02098">
        <ele>102</ele>
        <time>2021-05-20T08:14:41.000Z</time>
      </trkpt>
      <trkpt lat="48.69636" lon="2.02099">
        <ele>101</ele>
        <time>2021-05-20T08:14:42.000Z</time>
      </trkpt>
      <trkpt lat="48.69635" lon="2.021">
        <ele>101</ele>
        <time>2021-05-20T08:14:43.000Z</time>
      </trkpt>
      <trkpt lat="48.69634" lon="2.02101">
        <ele>101</ele>
        <time>2021-05-20T08:14:44.000Z</time>
      </trkpt>
      <trkpt lat="48.69634" lon="2.02102">
        <ele>101</ele>
        <time>2021-05-20T08:14:45.000Z</time>
      </trkpt>
      <trkpt lat="48.69633" lon="2.02103">
        <ele>101</ele>
        <time>2021-05-20T08:14:46.000Z</time>
      </trkpt>
      <trkpt lat="48.69632" lon="2.02104">
        <ele>101</ele>
        <time>2021-05-20T08:14:47.000Z</time>
      </trkpt>
      <trkpt lat="48.69631" lon="2.02105">
        <ele>101</ele>
        <time>2021-05-20T08:14:48.000Z</time>
      </trkpt>
      <trkpt lat="48.6963" lon="2.02107">
        <ele>101</ele>
        <time>2021-05-20T08:14:49.000Z</time>
      </trkpt>
      <trkpt lat="48.69629" lon="2.02108">
        <ele>100</ele>
        <time>2021-05-20T08:14:50.000Z</time>
      </trkpt>
      <trkpt lat="48.69628" lon="2.0211">
        <ele>100</ele>
        <time>2021-05-20T08:14:51.000Z</time>
      </trkpt>
      <trkpt lat="48.69626" lon="2.02112">
        <ele>100</ele>
        <time>2021-05-20T08:14:52.000Z</time>
      </trkpt>
      <trkpt lat="48.69625" lon="2.02113">
        <ele>100</ele>
        <time>2021-05-20T08:14:53.000Z</time>
      </trkpt>
      <trkpt lat="48.69624" lon="2.02115">
        <ele>100</ele>
        <time>2021-05-20T08:14:54.000Z</time>
      </trkpt>
      <trkpt lat="48.69623" lon="2.02116">
        <ele>99</ele>
        <time>2021-05-20T08:14:55.000Z</time>
      </trkpt>
      <trkpt lat="48.69622" lon="2.02118">
        <ele>99</ele>
        <time>2021-05-20T08:14:56.000Z</time>
      </trkpt>
      <trkpt lat="48.6962" lon="2.02119">
        <ele>99</ele>
        <time>2021-05-20T08:14:57.000Z</time>
      </trkpt>
      <trkpt lat="48.69619" lon="2.02121">
        <ele>99</ele>
        <time>2021-05-20T08:14:58.000Z</time>
      </trkpt>
      <trkpt lat="48.69619" lon="2.02123">
        <ele>98</ele>
        <time>2021-05-20T08:14:59.000Z</time>
      </trkpt>
      <trkpt lat="48.69618" lon="2.02124">
        <ele>98</ele>
        <time>2021-05-20T08:15:00.000Z</time>
      </trkpt>
      <trkpt lat="48.69617" lon="2.02126">
        <ele>98</ele>
        <time>2021-05-20T08:15:01.000Z</time>
      </trkpt>
      <trkpt lat="48.69616" lon="2.02127">
        <ele>97</ele>
        <time>2021-05-20T08:15:02.000Z</time>
      </trkpt>
      <trkpt lat="48.69615" lon="2.02128">
        <ele>97</ele>
        <time>2021-05-20T08:15:03.000Z</time>
      </trkpt>
      <trkpt lat="48.69614" lon="2.0213">
        <ele>97</ele>
        <time>2021-05-20T08:15:04.000Z</time>
      </trkpt>
      <trkpt lat="48.69613" lon="2.02132">
        <ele>96</ele>
        <time>2021-05-20T08:15:05.000Z</time>
      </trkpt>
      <trkpt lat="48.69613" lon="2.02134">
        <ele>96</ele>
        <time>2021-05-20T08:15:06.000Z</time>
      </trkpt>
      <trkpt lat="48.69612" lon="2.02135">
        <ele>96</ele>
        <time>2021-05-20T08:15:07.000Z</time>
      </trkpt>
      <trkpt lat="48.69611" lon="2.02137">
        <ele>96</ele>
        <time>2021-05-20T08:15:08.000Z</time>
      </trkpt>
      <trkpt lat="48.6961" lon="2.02139">
        <ele>96</ele>
        <time>2021-05-20T08:15:09.000Z</time>
      </trkpt>
      <trkpt lat="48.69609" lon="2.0214">
        <ele>95</ele>
        <time>2021-05-20T08:15:10.000Z</time>
      </trkpt>
      <trkpt lat="48.69608" lon="2.02142">
        <ele>95</ele>
        <time>2021-05-20T08:15:11.000Z</time>
      </trkpt>
      <trkpt lat="48.69607" lon="2.02144">
        <ele>95</ele>
        <time>2021-05-20T08:15:12.000Z</time>
      </trkpt>
      <trkpt lat="48.69606" lon="2.02145">
        <ele>95</ele>
        <time>2021-05-20T08:15:13.000Z</time>
      </trkpt>
      <trkpt lat="48.69605" lon="2.02147">
        <ele>95</ele>
        <time>2021-05-20T08:15:14.000Z</time>
      </trkpt>
      <trkpt lat="48.69605" lon="2.02149">
        <ele>94</ele>
        <time>2021-05-20T08:15:15.000Z</time>
      </trkpt>
      <trkpt lat="48.69604" lon="2.0215">
        <ele>94</ele>
        <time>2021-05-20T08:15:16.000Z</time>
      </trkpt>
      <trkpt lat="48.69603" lon="2.02152">
        <ele>94</ele>
        <time>2021-05-20T08:15:17.000Z</time>
      </trkpt>
      <trkpt lat="48.69602" lon="2.02153">
        <ele>94</ele>
        <time>2021-05-20T08:15:18.000Z</time>
      </trkpt>
      <trkpt lat="48.69601" lon="2.02155">
        <ele>94</ele>
        <time>2021-05-20T08:15:19.000Z</time>
      </trkpt>
      <trkpt lat="48.696" lon="2.02157">
        <ele>93</ele>
        <time>2021-05-20T08:15:20.000Z</time>
      </trkpt>
      <trkpt lat="48.69599" lon="2.02159">
        <ele>93</ele>
        <time>2021-05-20T08:15:21.000Z</time>
      </trkpt>
      <trkpt lat="48.69598" lon="2.02161">
        <ele>93</ele>
        <time>2021-05-20T08:15:22.000Z</time>
      </trkpt>
      <trkpt lat="48.69597" lon="2.02162">
        <ele>93</ele>
        <time>2021-05-20T08:15:23.000Z</time>
      </trkpt>
      <trkpt lat="48.69596" lon="2.02164">
        <ele>93</ele>
        <time>2021-05-20T08:15:24.000Z</time>
      </trkpt>
      <trkpt lat="48.69596" lon="2.02166">
        <ele>93</ele>
        <time>2021-05-20T08:15:25.000Z</time>
      </trkpt>
      <trkpt lat="48.69595" lon="2.02168">
        <ele>93</ele>
        <time>2021-05-20T08:15:26.000Z</time>
      </trkpt>
      <trkpt lat="48.69594" lon="2.0217">
        <ele>92</ele>
        <time>2021-05-20T08:15:27.000Z</time>
      </trkpt>
      <trkpt lat="48.69593" lon="2.02171">
        <ele>92</ele>
        <time>2021-05-20T08:15:28.000Z</time>
      </trkpt>
      <trkpt lat="48.69593" lon="2.02173">
        <ele>92</ele>
        <time>2021-05-20T08:15:29.000Z</time>
      </trkpt>
      <trkpt lat="48.69592" lon="2.02174">
        <ele>92</ele>
        <time>2021-05-20T08:15:30.000Z</time>
      </trkpt>
      <trkpt lat="48.69591" lon="2.02176">
        <ele>92</ele>
        <time>2021-05-20T08:15:31.000Z</time>
      </trkpt>
      <trkpt lat="48.69591" lon="2.02178">
        <ele>92</ele>
        <time>2021-05-20T08:15:32.000Z</time>
      </trkpt>
      <trkpt lat="48.6959" lon="2.02179">
        <ele>92</ele>
        <time>2021-05-20T08:15:33.000Z</time>
      </trkpt>
      <trkpt lat="48.69589" lon="2.02181">
        <ele>91</ele>
        <time>2021-05-20T08:15:34.000Z</time>
      </trkpt>
      <trkpt lat="48.69589" lon="2.02182">
        <ele>91</ele>
        <time>2021-05-20T08:15:35.000Z</time>
      </trkpt>
      <trkpt lat="48.69588" lon="2.02184">
        <ele>91</ele>
        <time>2021-05-20T08:15:36.000Z</time>
      </trkpt>
      <trkpt lat="48.69587" lon="2.02186">
        <ele>91</ele>
        <time>2021-05-20T08:15:37.000Z</time>
      </trkpt>
      <trkpt lat="48.69586" lon="2.02188">
        <ele>91</ele>
        <time>2021-05-20T08:15:38.000Z</time>
      </trkpt>
      <trkpt lat="48.69586" lon="2.0219">
        <ele>91</ele>
        <time>2021-05-20T08:15:39.000Z</time>
      </trkpt>
      <trkpt lat="48.69585" lon="2.02191">
        <ele>90</ele>
        <time>2021-05-20T08:15:40.000Z</time>
      </trkpt>
      <trkpt lat="48.69585" lon="2.02193">
        <ele>90</ele>
        <time>2021-05-20T08:15:41.000Z</time>
      </trkpt>
      <trkpt lat="48.69584" lon="2.02195">
        <ele>90</ele>
        <time>2021-05-20T08:15:42.000Z</time>
      </trkpt>
      <trkpt lat="48.69584" lon="2.02197">
        <ele>90</ele>
        <time>2021-05-20T08:15:43.000Z</time>
      </trkpt>
      <trkpt lat="48.69583" lon="2.02199">
        <ele>90</ele>
        <time>2021-05-20T08:15:44.000Z</time>
      </trkpt>
      <trkpt lat="48.69583" lon="2.022">
        <ele>90</ele>
        <time>2021-05-20T08:15:45.000Z</time>
      </trkpt>
      <trkpt lat="48.69582" lon="2.02202">
        <ele>90</ele>
        <time>2021-05-20T08:15:46.000Z</time>
      </trkpt>
      <trkpt lat="48.69581" lon="2.02204">
        <ele>90</ele>
        <time>2021-05-20T08:15:47.000Z</time>
      </trkpt>
      <trkpt lat="48.69581" lon="2.02206">
        <ele>90</ele>
        <time>2021-05-20T08:15:48.000Z</time>
      </trkpt>
      <trkpt lat="48.6958" lon="2.02209">
        <ele>90</ele>
        <time>2021-05-20T08:15:49.000Z</time>
      </trkpt>
      <trkpt lat="48.69579" lon="2.02211">
        <ele>90</ele>
        <time>2021-05-20T08:15:50.000Z</time>
      </trkpt>
      <trkpt lat="48.69579" lon="2.02213">
        <ele>90</ele>
        <time>2021-05-20T08:15:51.000Z</time>
      </trkpt>
      <trkpt lat="48.69579" lon="2.02214">
        <ele>90</ele>
        <time>2021-05-20T08:15:52.000Z</time>
      </trkpt>
      <trkpt lat="48.69579" lon="2.02216">
        <ele>90</ele>
        <time>2021-05-20T08:15:53.000Z</time>
      </trkpt>
      <trkpt lat="48.69578" lon="2.02218">
        <ele>90</ele>
        <time>2021-05-20T08:15:54.000Z</time>
      </trkpt>
      <trkpt lat="48.69578" lon="2.02219">
        <ele>90</ele>
        <time>2021-05-20T08:15:55.000Z</time>
      </trkpt>
      <trkpt lat="48.69578" lon="2.02221">
        <ele>90</ele>
        <time>2021-05-20T08:15:56.000Z</time>
      </trkpt>
      <trkpt lat="48.69578" lon="2.02223">
        <ele>90</ele>
        <time>2021-05-20T08:15:57.000Z</time>
      </trkpt>
      <trkpt lat="48.69578" lon="2.02225">
        <ele>90</ele>
        <time>2021-05-20T08:15:58.000Z</time>
      </trkpt>
      <trkpt lat="48.69577" lon="2.02227">
        <ele>90</ele>
        <time>2021-05-20T08:15:59.000Z</time>
      </trkpt>
      <trkpt lat="48.69577" lon="2.02229">
        <ele>90</ele>
        <time>2021-05-20T08:16:00.000Z</time>
      </trkpt>
      <trkpt lat="48.69576" lon="2.02231">
        <ele>90</ele>
        <time>2021-05-20T08:16:01.000Z</time>
      </trkpt>
      <trkpt lat="48.69576" lon="2.02233">
        <ele>90</ele>
        <time>2021-05-20T08:16:02.000Z</time>
      </trkpt>
      <trkpt lat="48.69575" lon="2.02235">
        <ele>90</ele>
        <time>2021-05-20T08:16:03.000Z</time>
      </trkpt>
      <trkpt lat="48.69575" lon="2.02237">
        <ele>90</ele>
        <time>2021-05-20T08:16:04.000Z</time>
      </trkpt>
      <trkpt lat="48.69574" lon="2.02238">
        <ele>90</ele>
        <time>2021-05-20T08:16:05.000Z</time>
      </trkpt>
      <trkpt lat="48.69574" lon="2.0224">
        <ele>90</ele>
        <time>2021-05-20T08:16:06.000Z</time>
      </trkpt>
      <trkpt lat="48.69574" lon="2.02241">
        <ele>90</ele>
        <time>2021-05-20T08:16:07.000Z</time>
      </trkpt>
      <trkpt lat="48.69573" lon="2.02243">
        <ele>90</ele>
        <time>2021-05-20T08:16:08.000Z</time>
      </trkpt>
      <trkpt lat="48.69573" lon="2.02245">
        <ele>90</ele>
        <time>2021-05-20T08:16:09.000Z</time>
      </trkpt>
      <trkpt lat="48.69573" lon="2.02247">
        <ele>90</ele>
        <time>2021-05-20T08:16:10.000Z</time>
      </trkpt>
      <trkpt lat="48.69573" lon="2.02248">
        <ele>90</ele>
        <time>2021-05-20T08:16:11.000Z</time>
      </trkpt>
      <trkpt lat="48.69573" lon="2.0225">
        <ele>90</ele>
        <time>2021-05-20T08:16:12.000Z</time>
      </trkpt>
      <trkpt lat="48.69573" lon="2.02252">
        <ele>90</ele>
        <time>2021-05-20T08:16:13.000Z</time>
      </trkpt>
      <trkpt lat="48.69573" lon="2.02253">
        <ele>90</ele>
        <time>2021-05-20T08:16:14.000Z</time>
      </trkpt>
      <trkpt lat="48.69572" lon="2.02255">
        <ele>90</ele>
        <time>2021-05-20T08:16:15.000Z</time>
      </trkpt>
      <trkpt lat="48.69572" lon="2.02257">
        <ele>90</ele>
        <time>2021-05-20T08:16:16.000Z</time>
      </trkpt>
      <trkpt lat="48.69572" lon="2.02259">
        <ele>90</ele>
        <time>2021-05-20T08:16:17.000Z</time>
      </trkpt>
      <trkpt lat="48.69571" lon="2.02261">
        <ele>90</ele>
        <time>2021-05-20T08:16:18.000Z</time>
      </trkpt>
      <trkpt lat="48.69571" lon="2.02264">
        <ele>90</ele>
        <time>2021-05-20T08:16:19.000Z</time>
      </trkpt>
      <trkpt lat="48.69571" lon="2.02265">
        <ele>90</ele>
        <time>2021-05-20T08:16:20.000Z</time>
      </trkpt>
      <trkpt lat="48.6957" lon="2.02267">
        <ele>90</ele>
        <time>2021-05-20T08:16:21.000Z</time>
      </trkpt>
      <trkpt lat="48.6957" lon="2.02269">
        <ele>90</ele>
        <time>2021-05-20T08:16:22.000Z</time>
      </trkpt>
      <trkpt lat="48.69569" lon="2.02271">
        <ele>90</ele>
        <time>2021-05-20T08:16:23.000Z</time>
      </trkpt>
      <trkpt lat="48.69569" lon="2.02273">
        <ele>89</ele>
        <time>2021-05-20T08:16:24.000Z</time>
      </trkpt>
      <trkpt lat="48.69568" lon="2.02274">
        <ele>89</ele>
        <time>2021-05-20T08:16:25.000Z</time>
      </trkpt>
      <trkpt lat="48.69568" lon="2.02276">
        <ele>89</ele>
        <time>2021-05-20T08:16:26.000Z</time>
      </trkpt>
      <trkpt lat="48.69568" lon="2.02278">
        <ele>89</ele>
        <time>2021-05-20T08:16:27.000Z</time>
      </trkpt>
      <trkpt lat="48.69568" lon="2.0228">
        <ele>89</ele>
        <time>2021-05-20T08:16:28.000Z</time>
      </trkpt>
      <trkpt lat="48.69567" lon="2.02282">
        <ele>89</ele>
        <time>2021-05-20T08:16:29.000Z</time>
      </trkpt>
      <trkpt lat="48.69567" lon="2.02284">
        <ele>89</ele>
        <time>2021-05-20T08:16:30.000Z</time>
      </trkpt>
      <trkpt lat="48.69566" lon="2.02286">
        <ele>90</ele>
        <time>2021-05-20T08:16:31.000Z</time>
      </trkpt>
      <trkpt lat="48.69566" lon="2.02287">
        <ele>90</ele>
        <time>2021-05-20T08:16:32.000Z</time>
      </trkpt>
      <trkpt lat="48.69565" lon="2.02288">
        <ele>90</ele>
        <time>2021-05-20T08:16:33.000Z</time>
      </trkpt>
      <trkpt lat="48.69565" lon="2.0229">
        <ele>90</ele>
        <time>2021-05-20T08:16:34.000Z</time>
      </trkpt>
      <trkpt lat="48.69564" lon="2.02292">
        <ele>90</ele>
        <time>2021-05-20T08:16:35.000Z</time>
      </trkpt>
      <trkpt lat="48.69564" lon="2.02294">
        <ele>90</ele>
        <time>2021-05-20T08:16:36.000Z</time>
      </trkpt>
      <trkpt lat="48.69563" lon="2.02296">
        <ele>90</ele>
        <time>2021-05-20T08:16:37.000Z</time>
      </trkpt>
      <trkpt lat="48.69563" lon="2.02298">
        <ele>90</ele>
        <time>2021-05-20T08:16:38.000Z</time>
      </trkpt>
      <trkpt lat="48.69562" lon="2.023">
        <ele>90</ele>
        <time>2021-05-20T08:16:39.000Z</time>
      </trkpt>
      <trkpt lat="48.69562" lon="2.02301">
        <ele>90</ele>
        <time>2021-05-20T08:16:40.000Z</time>
      </trkpt>
      <trkpt lat="48.69561" lon="2.02303">
        <ele>90</ele>
        <time>2021-05-20T08:16:41.000Z</time>
      </trkpt>
      <trkpt lat="48.69561" lon="2.02304">
        <ele>90</ele>
        <time>2021-05-20T08:16:42.000Z</time>
      </trkpt>
      <trkpt lat="48.6956" lon="2.02306">
        <ele>90</ele>
        <time>2021-05-20T08:16:43.000Z</time>
      </trkpt>
      <trkpt lat="48.69559" lon="2.02308">
        <ele>90</ele>
        <time>2021-05-20T08:16:44.000Z</time>
      </trkpt>
      <trkpt lat="48.69559" lon="2.02309">
        <ele>90</ele>
        <time>2021-05-20T08:16:45.000Z</time>
      </trkpt>
      <trkpt lat="48.69558" lon="2.02311">
        <ele>90</ele>
        <time>2021-05-20T08:16:46.000Z</time>
      </trkpt>
      <trkpt lat="48.69557" lon="2.02313">
        <ele>90</ele>
        <time>2021-05-20T08:16:47.000Z</time>
      </trkpt>
      <trkpt lat="48.69557" lon="2.02314">
        <ele>90</ele>
        <time>2021-05-20T08:16:48.000Z</time>
      </trkpt>
      <trkpt lat="48.69556" lon="2.02316">
        <ele>90</ele>
        <time>2021-05-20T08:16:49.000Z</time>
      </trkpt>
      <trkpt lat="48.69556" lon="2.02317">
        <ele>90</ele>
        <time>2021-05-20T08:16:50.000Z</time>
      </trkpt>
      <trkpt lat="48.69555" lon="2.02319">
        <ele>90</ele>
        <time>2021-05-20T08:16:51.000Z</time>
      </trkpt>
      <trkpt lat="48.69554" lon="2.02321">
        <ele>90</ele>
        <time>2021-05-20T08:16:52.000Z</time>
      </trkpt>
      <trkpt lat="48.69553" lon="2.02322">
        <ele>90</ele>
        <time>2021-05-20T08:16:53.000Z</time>
      </trkpt>
      <trkpt lat="48.69552" lon="2.02323">
        <ele>90</ele>
        <time>2021-05-20T08:16:54.000Z</time>
      </trkpt>
      <trkpt lat="48.69551" lon="2.02325">
        <ele>90</ele>
        <time>2021-05-20T08:16:55.000Z</time>
      </trkpt>
      <trkpt lat="48.69551" lon="2.02326">
        <ele>90</ele>
        <time>2021-05-20T08:16:56.000Z</time>
      </trkpt>
      <trkpt lat="48.6955" lon="2.02327">
        <ele>90</ele>
        <time>2021-05-20T08:16:57.000Z</time>
      </trkpt>
      <trkpt lat="48.69549" lon="2.02328">
        <ele>90</ele>
        <time>2021-05-20T08:16:58.000Z</time>
      </trkpt>
      <trkpt lat="48.69549" lon="2.02329">
        <ele>90</ele>
        <time>2021-05-20T08:16:59.000Z</time>
      </trkpt>
      <trkpt lat="48.69548" lon="2.0233">
        <ele>90</ele>
        <time>2021-05-20T08:17:00.000Z</time>
      </trkpt>
      <trkpt lat="48.69547" lon="2.02331">
        <ele>90</ele>
        <time>2021-05-20T08:17:01.000Z</time>
      </trkpt>
      <trkpt lat="48.69546" lon="2.02332">
        <ele>90</ele>
        <time>2021-05-20T08:17:02.000Z</time>
      </trkpt>
      <trkpt lat="48.69545" lon="2.02334">
        <ele>90</ele>
        <time>2021-05-20T08:17:03.000Z</time>
      </trkpt>
      <trkpt lat="48.69544" lon="2.02335">
        <ele>90</ele>
        <time>2021-05-20T08:17:04.000Z</time>
      </trkpt>
      <trkpt lat="48.69544" lon="2.02336">
        <ele>90</ele>
        <time>2021-05-20T08:17:05.000Z</time>
      </trkpt>
      <trkpt lat="48.69543" lon="2.02337">
        <ele>90</ele>
        <time>2021-05-20T08:17:06.000Z</time>
      </trkpt>
      <trkpt lat="48.69542" lon="2.02338">
        <ele>90</ele>
        <time>2021-05-20T08:17:07.000Z</time>
      </trkpt>
      <trkpt lat="48.69541" lon="2.02339">
        <ele>90</ele>
        <time>2021-05-20T08:17:08.000Z</time>
      </trkpt>
      <trkpt lat="48.6954" lon="2.02341">
        <ele>90</ele>
        <time>2021-05-20T08:17:09.000Z</time>
      </trkpt>
      <trkpt lat="48.6954" lon="2.02342">
        <ele>90</ele>
        <time>2021-05-20T08:17:10.000Z</time>
      </trkpt>
      <trkpt lat="48.69539" lon="2.02343">
        <ele>90</ele>
        <time>2021-05-20T08:17:11.000Z</time>
      </trkpt>
      <trkpt lat="48.69538" lon="2.02344">
        <ele>90</ele>
        <time>2021-05-20T08:17:12.000Z</time>
      </trkpt>
      <trkpt lat="48.69538" lon="2.02345">
        <ele>91</ele>
        <time>2021-05-20T08:17:13.000Z</time>
      </trkpt>
      <trkpt lat="48.69537" lon="2.02346">
        <ele>91</ele>
        <time>2021-05-20T08:17:14.000Z</time>
      </trkpt>
      <trkpt lat="48.69537" lon="2.02347">
        <ele>91</ele>
        <time>2021-05-20T08:17:15.000Z</time>
      </trkpt>
      <trkpt lat="48.69536" lon="2.02348">
        <ele>91</ele>
        <time>2021-05-20T08:17:16.000Z</time>
      </trkpt>
      <trkpt lat="48.69536" lon="2.02349">
        <ele>91</ele>
        <time>2021-05-20T08:17:17.000Z</time>
      </trkpt>
      <trkpt lat="48.69535" lon="2.0235">
        <ele>91</ele>
        <time>2021-05-20T08:17:18.000Z</time>
      </trkpt>
      <trkpt lat="48.69535" lon="2.02351">
        <ele>91</ele>
        <time>2021-05-20T08:17:19.000Z</time>
      </trkpt>
      <trkpt lat="48.69534" lon="2.02352">
        <ele>91</ele>
        <time>2021-05-20T08:17:20.000Z</time>
      </trkpt>
      <trkpt lat="48.69533" lon="2.02354">
        <ele>91</ele>
        <time>2021-05-20T08:17:21.000Z</time>
      </trkpt>
      <trkpt lat="48.69533" lon="2.02355">
        <ele>91</ele>
        <time>2021-05-20T08:17:22.000Z</time>
      </trkpt>
      <trkpt lat="48.69532" lon="2.02356">
        <ele>91</ele>
        <time>2021-05-20T08:17:23.000Z</time>
      </trkpt>
      <trkpt lat="48.69531" lon="2.02357">
        <ele>91</ele>
        <time>2021-05-20T08:17:24.000Z</time>
      </trkpt>
      <trkpt lat="48.6953" lon="2.02359">
        <ele>91</ele>
        <time>2021-05-20T08:17:25.000Z</time>
      </trkpt>
      <trkpt lat="48.69529" lon="2.0236">
        <ele>91</ele>
        <time>2021-05-20T08:17:26.000Z</time>
      </trkpt>
      <trkpt lat="48.69529" lon="2.02362">
        <ele>91</ele>
        <time>2021-05-20T08:17:27.000Z</time>
      </trkpt>
      <trkpt lat="48.69528" lon="2.02363">
        <ele>92</ele>
        <time>2021-05-20T08:17:28.000Z</time>
      </trkpt>
      <trkpt lat="48.69527" lon="2.02364">
        <ele>92</ele>
        <time>2021-05-20T08:17:29.000Z</time>
      </trkpt>
      <trkpt lat="48.69527" lon="2.02366">
        <ele>92</ele>
        <time>2021-05-20T08:17:30.000Z</time>
      </trkpt>
      <trkpt lat="48.69526" lon="2.02368">
        <ele>92</ele>
        <time>2021-05-20T08:17:31.000Z</time>
      </trkpt>
      <trkpt lat="48.69525" lon="2.02369">
        <ele>92</ele>
        <time>2021-05-20T08:17:32.000Z</time>
      </trkpt>
      <trkpt lat="48.69525" lon="2.0237">
        <ele>93</ele>
        <time>2021-05-20T08:17:33.000Z</time>
      </trkpt>
      <trkpt lat="48.69524" lon="2.02372">
        <ele>93</ele>
        <time>2021-05-20T08:17:34.000Z</time>
      </trkpt>
      <trkpt lat="48.69523" lon="2.02373">
        <ele>93</ele>
        <time>2021-05-20T08:17:35.000Z</time>
      </trkpt>
      <trkpt lat="48.69523" lon="2.02375">
        <ele>93</ele>
        <time>2021-05-20T08:17:36.000Z</time>
      </trkpt>
      <trkpt lat="48.69522" lon="2.02376">
        <ele>93</ele>
        <time>2021-05-20T08:17:37.000Z</time>
      </trkpt>
      <trkpt lat="48.69522" lon="2.02378">
        <ele>93</ele>
        <time>2021-05-20T08:17:38.000Z</time>
      </trkpt>
      <trkpt lat="48.69521" lon="2.02379">
        <ele>93</ele>
        <time>2021-05-20T08:17:39.000Z</time>
      </trkpt>
      <trkpt lat="48.69521" lon="2.02381">
        <ele>93</ele>
        <time>2021-05-20T08:17:40.000Z</time>
      </trkpt>
      <trkpt lat="48.6952" lon="2.02383">
        <ele>93</ele>
        <time>2021-05-20T08:17:41.000Z</time>
      </trkpt>
      <trkpt lat="48.6952" lon="2.02384">
        <ele>93</ele>
        <time>2021-05-20T08:17:42.000Z</time>
      </trkpt>
      <trkpt lat="48.69519" lon="2.02386">
        <ele>93</ele>
        <time>2021-05-20T08:17:43.000Z</time>
      </trkpt>
      <trkpt lat="48.69519" lon="2.02387">
        <ele>93</ele>
        <time>2021-05-20T08:17:44.000Z</time>
      </trkpt>
      <trkpt lat="48.69519" lon="2.02389">
        <ele>93</ele>
        <time>2021-05-20T08:17:45.000Z</time>
      </trkpt>
      <trkpt lat="48.69518" lon="2.0239">
        <ele>93</ele>
        <time>2021-05-20T08:17:46.000Z</time>
      </trkpt>
      <trkpt lat="48.69518" lon="2.02392">
        <ele>93</ele>
        <time>2021-05-20T08:17:47.000Z</time>
      </trkpt>
      <trkpt lat="48.69517" lon="2.02394">
        <ele>93</ele>
        <time>2021-05-20T08:17:48.000Z</time>
      </trkpt>
      <trkpt lat="48.69516" lon="2.02395">
        <ele>93</ele>
        <time>2021-05-20T08:17:49.000Z</time>
      </trkpt>
      <trkpt lat="48.69516" lon="2.02396">
        <ele>93</ele>
        <time>2021-05-20T08:17:50.000Z</time>
      </trkpt>
      <trkpt lat="48.69516" lon="2.02398">
        <ele>93</ele>
        <time>2021-05-20T08:17:51.000Z</time>
      </trkpt>
      <trkpt lat="48.69515" lon="2.024">
        <ele>93</ele>
        <time>2021-05-20T08:17:52.000Z</time>
      </trkpt>
      <trkpt lat="48.69515" lon="2.02402">
        <ele>93</ele>
        <time>2021-05-20T08:17:53.000Z</time>
      </trkpt>
      <trkpt lat="48.69514" lon="2.02403">
        <ele>93</ele>
        <time>2021-05-20T08:17:54.000Z</time>
      </trkpt>
      <trkpt lat="48.69514" lon="2.02404">
        <ele>93</ele>
        <time>2021-05-20T08:17:55.000Z</time>
      </trkpt>
      <trkpt lat="48.69513" lon="2.02406">
        <ele>94</ele>
        <time>2021-05-20T08:17:56.000Z</time>
      </trkpt>
      <trkpt lat="48.69513" lon="2.02408">
        <ele>94</ele>
        <time>2021-05-20T08:17:57.000Z</time>
      </trkpt>
      <trkpt lat="48.69512" lon="2.02409">
        <ele>93</ele>
        <time>2021-05-20T08:17:58.000Z</time>
      </trkpt>
      <trkpt lat="48.69511" lon="2.02411">
        <ele>93</ele>
        <time>2021-05-20T08:17:59.000Z</time>
      </trkpt>
      <trkpt lat="48.69511" lon="2.02412">
        <ele>93</ele>
        <time>2021-05-20T08:18:00.000Z</time>
      </trkpt>
      <trkpt lat="48.6951" lon="2.02413">
        <ele>93</ele>
        <time>2021-05-20T08:18:01.000Z</time>
      </trkpt>
      <trkpt lat="48.6951" lon="2.02415">
        <ele>93</ele>
        <time>2021-05-20T08:18:02.000Z</time>
      </trkpt>
      <trkpt lat="48.69509" lon="2.02417">
        <ele>93</ele>
        <time>2021-05-20T08:18:03.000Z</time>
      </trkpt>
      <trkpt lat="48.69509" lon="2.02418">
        <ele>93</ele>
        <time>2021-05-20T08:18:04.000Z</time>
      </trkpt>
      <trkpt lat="48.69508" lon="2.02419">
        <ele>94</ele>
        <time>2021-05-20T08:18:05.000Z</time>
      </trkpt>
      <trkpt lat="48.69508" lon="2.02421">
        <ele>94</ele>
        <time>2021-05-20T08:18:06.000Z</time>
      </trkpt>
      <trkpt lat="48.69507" lon="2.02423">
        <ele>94</ele>
        <time>2021-05-20T08:18:07.000Z</time>
      </trkpt>
      <trkpt lat="48.69506" lon="2.02424">
        <ele>94</ele>
        <time>2021-05-20T08:18:08.000Z</time>
      </trkpt>
      <trkpt lat="48.69506" lon="2.02425">
        <ele>94</ele>
        <time>2021-05-20T08:18:09.000Z</time>
      </trkpt>
      <trkpt lat="48.69505" lon="2.02426">
        <ele>93</ele>
        <time>2021-05-20T08:18:10.000Z</time>
      </trkpt>
      <trkpt lat="48.69505" lon="2.02427">
        <ele>93</ele>
        <time>2021-05-20T08:18:11.000Z</time>
      </trkpt>
      <trkpt lat="48.69504" lon="2.02429">
        <ele>93</ele>
        <time>2021-05-20T08:18:12.000Z</time>
      </trkpt>
      <trkpt lat="48.69504" lon="2.02431">
        <ele>93</ele>
        <time>2021-05-20T08:18:13.000Z</time>
      </trkpt>
      <trkpt lat="48.69503" lon="2.02432">
        <ele>93</ele>
        <time>2021-05-20T08:18:14.000Z</time>
      </trkpt>
      <trkpt lat="48.69503" lon="2.02433">
        <ele>94</ele>
        <time>2021-05-20T08:18:15.000Z</time>
      </trkpt>
      <trkpt lat="48.69502" lon="2.02434">
        <ele>94</ele>
        <time>2021-05-20T08:18:16.000Z</time>
      </trkpt>
      <trkpt lat="48.69502" lon="2.02436">
        <ele>94</ele>
        <time>2021-05-20T08:18:17.000Z</time>
      </trkpt>
      <trkpt lat="48.69501" lon="2.02438">
        <ele>94</ele>
        <time>2021-05-20T08:18:18.000Z</time>
      </trkpt>
      <trkpt lat="48.695" lon="2.02439">
        <ele>94</ele>
        <time>2021-05-20T08:18:19.000Z</time>
      </trkpt>
      <trkpt lat="48.695" lon="2.0244">
        <ele>94</ele>
        <time>2021-05-20T08:18:20.000Z</time>
      </trkpt>
      <trkpt lat="48.695" lon="2.02442">
        <ele>94</ele>
        <time>2021-05-20T08:18:21.000Z</time>
      </trkpt>
      <trkpt lat="48.69499" lon="2.02443">
        <ele>94</ele>
        <time>2021-05-20T08:18:22.000Z</time>
      </trkpt>
      <trkpt lat="48.69499" lon="2.02445">
        <ele>94</ele>
        <time>2021-05-20T08:18:23.000Z</time>
      </trkpt>
      <trkpt lat="48.69498" lon="2.02446">
        <ele>94</ele>
        <time>2021-05-20T08:18:24.000Z</time>
      </trkpt>
      <trkpt lat="48.69498" lon="2.02447">
        <ele>94</ele>
        <time>2021-05-20T08:18:25.000Z</time>
      </trkpt>
      <trkpt lat="48.69498" lon="2.02448">
        <ele>94</ele>
        <time>2021-05-20T08:18:26.000Z</time>
      </trkpt>
      <trkpt lat="48.69497" lon="2.0245">
        <ele>94</ele>
        <time>2021-05-20T08:18:27.000Z</time>
      </trkpt>
      <trkpt lat="48.69496" lon="2.02451">
        <ele>94</ele>
        <time>2021-05-20T08:18:28.000Z</time>
      </trkpt>
      <trkpt lat="48.69496" lon="2.02452">
        <ele>95</ele>
        <time>2021-05-20T08:18:29.000Z</time>
      </trkpt>
      <trkpt lat="48.69495" lon="2.02453">
        <ele>95</ele>
        <time>2021-05-20T08:18:30.000Z</time>
      </trkpt>
      <trkpt lat="48.69495" lon="2.02455">
        <ele>95</ele>
        <time>2021-05-20T08:18:31.000Z</time>
      </trkpt>
      <trkpt lat="48.69494" lon="2.02456">
        <ele>95</ele>
        <time>2021-05-20T08:18:32.000Z</time>
      </trkpt>
      <trkpt lat="48.69494" lon="2.02457">
        <ele>95</ele>
        <time>2021-05-20T08:18:33.000Z</time>
      </trkpt>
      <trkpt lat="48.69494" lon="2.02458">
        <ele>95</ele>
        <time>2021-05-20T08:18:34.000Z</time>
      </trkpt>
      <trkpt lat="48.69493" lon="2.02459">
        <ele>95</ele>
        <time>2021-05-20T08:18:35.000Z</time>
      </trkpt>
      <trkpt lat="48.69493" lon="2.02461">
        <ele>95</ele>
        <time>2021-05-20T08:18:36.000Z</time>
      </trkpt>
      <trkpt lat="48.69492" lon="2.02462">
        <ele>95</ele>
        <time>2021-05-20T08:18:37.000Z</time>
      </trkpt>
      <trkpt lat="48.69492" lon="2.02463">
        <ele>95</ele>
        <time>2021-05-20T08:18:38.000Z</time>
      </trkpt>
      <trkpt lat="48.69491" lon="2.02464">
        <ele>95</ele>
        <time>2021-05-20T08:18:39.000Z</time>
      </trkpt>
      <trkpt lat="48.6949" lon="2.02465">
        <ele>95</ele>
        <time>2021-05-20T08:18:40.000Z</time>
      </trkpt>
      <trkpt lat="48.6949" lon="2.02467">
        <ele>95</ele>
        <time>2021-05-20T08:18:41.000Z</time>
      </trkpt>
      <trkpt lat="48.69489" lon="2.02467">
        <ele>95</ele>
        <time>2021-05-20T08:18:42.000Z</time>
      </trkpt>
      <trkpt lat="48.69489" lon="2.02469">
        <ele>95</ele>
        <time>2021-05-20T08:18:43.000Z</time>
      </trkpt>
      <trkpt lat="48.69488" lon="2.0247">
        <ele>96</ele>
        <time>2021-05-20T08:18:44.000Z</time>
      </trkpt>
      <trkpt lat="48.69488" lon="2.02472">
        <ele>96</ele>
        <time>2021-05-20T08:18:45.000Z</time>
      </trkpt>
      <trkpt lat="48.69487" lon="2.02473">
        <ele>96</ele>
        <time>2021-05-20T08:18:46.000Z</time>
      </trkpt>
      <trkpt lat="48.69487" lon="2.02474">
        <ele>96</ele>
        <time>2021-05-20T08:18:47.000Z</time>
      </trkpt>
      <trkpt lat="48.69486" lon="2.02475">
        <ele>97</ele>
        <time>2021-05-20T08:18:48.000Z</time>
      </trkpt>
      <trkpt lat="48.69485" lon="2.02477">
        <ele>97</ele>
        <time>2021-05-20T08:18:49.000Z</time>
      </trkpt>
      <trkpt lat="48.69485" lon="2.02478">
        <ele>97</ele>
        <time>2021-05-20T08:18:50.000Z</time>
      </trkpt>
      <trkpt lat="48.69484" lon="2.02479">
        <ele>97</ele>
        <time>2021-05-20T08:18:51.000Z</time>
      </trkpt>
      <trkpt lat="48.69484" lon="2.0248">
        <ele>97</ele>
        <time>2021-05-20T08:18:52.000Z</time>
      </trkpt>
      <trkpt lat="48.69483" lon="2.02481">
        <ele>98</ele>
        <time>2021-05-20T08:18:53.000Z</time>
      </trkpt>
      <trkpt lat="48.69483" lon="2.02482">
        <ele>98</ele>
        <time>2021-05-20T08:18:54.000Z</time>
      </trkpt>
      <trkpt lat="48.69482" lon="2.02483">
        <ele>98</ele>
        <time>2021-05-20T08:18:55.000Z</time>
      </trkpt>
      <trkpt lat="48.69482" lon="2.02484">
        <ele>98</ele>
        <time>2021-05-20T08:18:56.000Z</time>
      </trkpt>
      <trkpt lat="48.69481" lon="2.02486">
        <ele>98</ele>
        <time>2021-05-20T08:18:57.000Z</time>
      </trkpt>
      <trkpt lat="48.6948" lon="2.02487">
        <ele>98</ele>
        <time>2021-05-20T08:18:58.000Z</time>
      </trkpt>
      <trkpt lat="48.6948" lon="2.02488">
        <ele>98</ele>
        <time>2021-05-20T08:18:59.000Z</time>
      </trkpt>
      <trkpt lat="48.6948" lon="2.0249">
        <ele>99</ele>
        <time>2021-05-20T08:19:00.000Z</time>
      </trkpt>
      <trkpt lat="48.69479" lon="2.02491">
        <ele>99</ele>
        <time>2021-05-20T08:19:01.000Z</time>
      </trkpt>
      <trkpt lat="48.69479" lon="2.02493">
        <ele>99</ele>
        <time>2021-05-20T08:19:02.000Z</time>
      </trkpt>
      <trkpt lat="48.69478" lon="2.02494">
        <ele>99</ele>
        <time>2021-05-20T08:19:03.000Z</time>
      </trkpt>
      <trkpt lat="48.69478" lon="2.02495">
        <ele>99</ele>
        <time>2021-05-20T08:19:04.000Z</time>
      </trkpt>
      <trkpt lat="48.69478" lon="2.02497">
        <ele>100</ele>
        <time>2021-05-20T08:19:05.000Z</time>
      </trkpt>
      <trkpt lat="48.69477" lon="2.02498">
        <ele>100</ele>
        <time>2021-05-20T08:19:06.000Z</time>
      </trkpt>
      <trkpt lat="48.69477" lon="2.02499">
        <ele>100</ele>
        <time>2021-05-20T08:19:07.000Z</time>
      </trkpt>
      <trkpt lat="48.69477" lon="2.025">
        <ele>100</ele>
        <time>2021-05-20T08:19:08.000Z</time>
      </trkpt>
      <trkpt lat="48.69476" lon="2.02501">
        <ele>100</ele>
        <time>2021-05-20T08:19:09.000Z</time>
      </trkpt>
      <trkpt lat="48.69476" lon="2.02503">
        <ele>101</ele>
        <time>2021-05-20T08:19:10.000Z</time>
      </trkpt>
      <trkpt lat="48.69475" lon="2.02504">
        <ele>101</ele>
        <time>2021-05-20T08:19:11.000Z</time>
      </trkpt>
      <trkpt lat="48.69475" lon="2.02505">
        <ele>101</ele>
        <time>2021-05-20T08:19:12.000Z</time>
      </trkpt>
      <trkpt lat="48.69474" lon="2.02506">
        <ele>101</ele>
        <time>2021-05-20T08:19:13.000Z</time>
      </trkpt>
      <trkpt lat="48.69474" lon="2.02508">
        <ele>101</ele>
        <time>2021-05-20T08:19:14.000Z</time>
      </trkpt>
      <trkpt lat="48.69473" lon="2.02509">
        <ele>101</ele>
        <time>2021-05-20T08:19:15.000Z</time>
      </trkpt>
      <trkpt lat="48.69472" lon="2.0251">
        <ele>101</ele>
        <time>2021-05-20T08:19:16.000Z</time>
      </trkpt>
      <trkpt lat="48.69471" lon="2.02511">
        <ele>101</ele>
        <time>2021-05-20T08:19:17.000Z</time>
      </trkpt>
      <trkpt lat="48.6947" lon="2.02512">
        <ele>101</ele>
        <time>2021-05-20T08:19:18.000Z</time>
      </trkpt>
      <trkpt lat="48.6947" lon="2.02513">
        <ele>101</ele>
        <time>2021-05-20T08:19:19.000Z</time>
      </trkpt>
      <trkpt lat="48.69469" lon="2.02515">
        <ele>102</ele>
        <time>2021-05-20T08:19:20.000Z</time>
      </trkpt>
      <trkpt lat="48.69469" lon="2.02516">
        <ele>102</ele>
        <time>2021-05-20T08:19:21.000Z</time>
      </trkpt>
      <trkpt lat="48.69469" lon="2.02517">
        <ele>102</ele>
        <time>2021-05-20T08:19:22.000Z</time>
      </trkpt>
      <trkpt lat="48.69468" lon="2.02518">
        <ele>102</ele>
        <time>2021-05-20T08:19:23.000Z</time>
      </trkpt>
      <trkpt lat="48.69467" lon="2.02519">
        <ele>102</ele>
        <time>2021-05-20T08:19:24.000Z</time>
      </trkpt>
      <trkpt lat="48.69467" lon="2.0252">
        <ele>102</ele>
        <time>2021-05-20T08:19:25.000Z</time>
      </trkpt>
      <trkpt lat="48.69466" lon="2.0252">
        <ele>102</ele>
        <time>2021-05-20T08:19:26.000Z</time>
      </trkpt>
      <trkpt lat="48.69465" lon="2.02521">
        <ele>102</ele>
        <time>2021-05-20T08:19:27.000Z</time>
      </trkpt>
      <trkpt lat="48.69464" lon="2.02523">
        <ele>102</ele>
        <time>2021-05-20T08:19:28.000Z</time>
      </trkpt>
      <trkpt lat="48.69463" lon="2.02523">
        <ele>102</ele>
        <time>2021-05-20T08:19:29.000Z</time>
      </trkpt>
      <trkpt lat="48.69463" lon="2.02524">
        <ele>102</ele>
        <time>2021-05-20T08:19:30.000Z</time>
      </trkpt>
      <trkpt lat="48.69462" lon="2.02525">
        <ele>102</ele>
        <time>2021-05-20T08:19:31.000Z</time>
      </trkpt>
      <trkpt lat="48.69462" lon="2.02526">
        <ele>102</ele>
        <time>2021-05-20T08:19:32.000Z</time>
      </trkpt>
      <trkpt lat="48.69461" lon="2.02526">
        <ele>103</ele>
        <time>2021-05-20T08:19:33.000Z</time>
      </trkpt>
      <trkpt lat="48.6946" lon="2.02527">
        <ele>103</ele>
        <time>2021-05-20T08:19:34.000Z</time>
      </trkpt>
      <trkpt lat="48.69459" lon="2.02528">
        <ele>103</ele>
        <time>2021-05-20T08:19:35.000Z</time>
      </trkpt>
      <trkpt lat="48.69459" lon="2.02529">
        <ele>103</ele>
        <time>2021-05-20T08:19:36.000Z</time>
      </trkpt>
      <trkpt lat="48.69458" lon="2.02529">
        <ele>103</ele>
        <time>2021-05-20T08:19:37.000Z</time>
      </trkpt>
      <trkpt lat="48.69457" lon="2.0253">
        <ele>103</ele>
        <time>2021-05-20T08:19:38.000Z</time>
      </trkpt>
      <trkpt lat="48.69457" lon="2.02531">
        <ele>103</ele>
        <time>2021-05-20T08:19:39.000Z</time>
      </trkpt>
      <trkpt lat="48.69456" lon="2.02532">
        <ele>103</ele>
        <time>2021-05-20T08:19:40.000Z</time>
      </trkpt>
      <trkpt lat="48.69456" lon="2.02533">
        <ele>103</ele>
        <time>2021-05-20T08:19:41.000Z</time>
      </trkpt>
      <trkpt lat="48.69455" lon="2.02533">
        <ele>103</ele>
        <time>2021-05-20T08:19:42.000Z</time>
      </trkpt>
      <trkpt lat="48.69454" lon="2.02534">
        <ele>103</ele>
        <time>2021-05-20T08:19:43.000Z</time>
      </trkpt>
      <trkpt lat="48.69454" lon="2.02534">
        <ele>103</ele>
        <time>2021-05-20T08:19:44.000Z</time>
      </trkpt>
      <trkpt lat="48.69453" lon="2.02535">
        <ele>103</ele>
        <time>2021-05-20T08:19:45.000Z</time>
      </trkpt>
      <trkpt lat="48.69452" lon="2.02536">
        <ele>103</ele>
        <time>2021-05-20T08:19:46.000Z</time>
      </trkpt>
      <trkpt lat="48.69451" lon="2.02537">
        <ele>103</ele>
        <time>2021-05-20T08:19:47.000Z</time>
      </trkpt>
      <trkpt lat="48.69451" lon="2.02537">
        <ele>103</ele>
        <time>2021-05-20T08:19:48.000Z</time>
      </trkpt>
      <trkpt lat="48.6945" lon="2.02538">
        <ele>104</ele>
        <time>2021-05-20T08:19:49.000Z</time>
      </trkpt>
      <trkpt lat="48.69449" lon="2.02539">
        <ele>104</ele>
        <time>2021-05-20T08:19:50.000Z</time>
      </trkpt>
      <trkpt lat="48.69448" lon="2.0254">
        <ele>104</ele>
        <time>2021-05-20T08:19:51.000Z</time>
      </trkpt>
      <trkpt lat="48.69447" lon="2.0254">
        <ele>104</ele>
        <time>2021-05-20T08:19:52.000Z</time>
      </trkpt>
      <trkpt lat="48.69447" lon="2.02541">
        <ele>104</ele>
        <time>2021-05-20T08:19:53.000Z</time>
      </trkpt>
      <trkpt lat="48.69446" lon="2.02541">
        <ele>104</ele>
        <time>2021-05-20T08:19:54.000Z</time>
      </trkpt>
      <trkpt lat="48.69445" lon="2.02542">
        <ele>104</ele>
        <time>2021-05-20T08:19:55.000Z</time>
      </trkpt>
      <trkpt lat="48.69444" lon="2.02543">
        <ele>104</ele>
        <time>2021-05-20T08:19:56.000Z</time>
      </trkpt>
      <trkpt lat="48.69443" lon="2.02543">
        <ele>104</ele>
        <time>2021-05-20T08:19:57.000Z</time>
      </trkpt>
      <trkpt lat="48.69442" lon="2.02544">
        <ele>105</ele>
        <time>2021-05-20T08:19:58.000Z</time>
      </trkpt>
      <trkpt lat="48.69441" lon="2.02545">
        <ele>105</ele>
        <time>2021-05-20T08:19:59.000Z</time>
      </trkpt>
      <trkpt lat="48.6944" lon="2.02545">
        <ele>105</ele>
        <time>2021-05-20T08:20:00.000Z</time>
      </trkpt>
      <trkpt lat="48.69439" lon="2.02546">
        <ele>105</ele>
        <time>2021-05-20T08:20:01.000Z</time>
      </trkpt>
      <trkpt lat="48.69438" lon="2.02547">
        <ele>105</ele>
        <time>2021-05-20T08:20:02.000Z</time>
      </trkpt>
      <trkpt lat="48.69438" lon="2.02548">
        <ele>105</ele>
        <time>2021-05-20T08:20:03.000Z</time>
      </trkpt>
      <trkpt lat="48.69437" lon="2.02548">
        <ele>106</ele>
        <time>2021-05-20T08:20:04.000Z</time>
      </trkpt>
      <trkpt lat="48.69436" lon="2.02549">
        <ele>106</ele>
        <time>2021-05-20T08:20:05.000Z</time>
      </trkpt>
      <trkpt lat="48.69435" lon="2.0255">
        <ele>106</ele>
        <time>2021-05-20T08:20:06.000Z</time>
      </trkpt>
      <trkpt lat="48.69434" lon="2.0255">
        <ele>106</ele>
        <time>2021-05-20T08:20:07.000Z</time>
      </trkpt>
      <trkpt lat="48.69434" lon="2.02551">
        <ele>106</ele>
        <time>2021-05-20T08:20:08.000Z</time>
      </trkpt>
      <trkpt lat="48.69433" lon="2.02552">
        <ele>106</ele>
        <time>2021-05-20T08:20:09.000Z</time>
      </trkpt>
      <trkpt lat="48.69432" lon="2.02553">
        <ele>107</ele>
        <time>2021-05-20T08:20:10.000Z</time>
      </trkpt>
      <trkpt lat="48.69431" lon="2.02553">
        <ele>107</ele>
        <time>2021-05-20T08:20:11.000Z</time>
      </trkpt>
      <trkpt lat="48.6943" lon="2.02554">
        <ele>107</ele>
        <time>2021-05-20T08:20:12.000Z</time>
      </trkpt>
      <trkpt lat="48.6943" lon="2.02554">
        <ele>107</ele>
        <time>2021-05-20T08:20:13.000Z</time>
      </trkpt>
      <trkpt lat="48.69429" lon="2.02555">
        <ele>107</ele>
        <time>2021-05-20T08:20:14.000Z</time>
      </trkpt>
      <trkpt lat="48.69428" lon="2.02556">
        <ele>107</ele>
        <time>2021-05-20T08:20:15.000Z</time>
      </trkpt>
      <trkpt lat="48.69427" lon="2.02556">
        <ele>107</ele>
        <time>2021-05-20T08:20:16.000Z</time>
      </trkpt>
      <trkpt lat="48.69426" lon="2.02557">
        <ele>107</ele>
        <time>2021-05-20T08:20:17.000Z</time>
      </trkpt>
      <trkpt lat="48.69425" lon="2.02558">
        <ele>107</ele>
        <time>2021-05-20T08:20:18.000Z</time>
      </trkpt>
      <trkpt lat="48.69425" lon="2.02558">
        <ele>108</ele>
        <time>2021-05-20T08:20:19.000Z</time>
      </trkpt>
      <trkpt lat="48.69424" lon="2.02559">
        <ele>108</ele>
        <time>2021-05-20T08:20:20.000Z</time>
      </trkpt>
      <trkpt lat="48.69424" lon="2.02559">
        <ele>108</ele>
        <time>2021-05-20T08:20:21.000Z</time>
      </trkpt>
      <trkpt lat="48.69423" lon="2.0256">
        <ele>108</ele>
        <time>2021-05-20T08:20:22.000Z</time>
      </trkpt>
      <trkpt lat="48.69422" lon="2.0256">
        <ele>108</ele>
        <time>2021-05-20T08:20:23.000Z</time>
      </trkpt>
      <trkpt lat="48.69422" lon="2.02561">
        <ele>108</ele>
        <time>2021-05-20T08:20:24.000Z</time>
      </trkpt>
      <trkpt lat="48.69421" lon="2.02562">
        <ele>108</ele>
        <time>2021-05-20T08:20:25.000Z</time>
      </trkpt>
      <trkpt lat="48.69421" lon="2.02562">
        <ele>108</ele>
        <time>2021-05-20T08:20:26.000Z</time>
      </trkpt>
      <trkpt lat="48.6942" lon="2.02563">
        <ele>108</ele>
        <time>2021-05-20T08:20:27.000Z</time>
      </trkpt>
      <trkpt lat="48.69419" lon="2.02563">
        <ele>108</ele>
        <time>2021-05-20T08:20:28.000Z</time>
      </trkpt>
      <trkpt lat="48.69419" lon="2.02564">
        <ele>108</ele>
        <time>2021-05-20T08:20:29.000Z</time>
      </trkpt>
      <trkpt lat="48.69418" lon="2.02564">
        <ele>109</ele>
        <time>2021-05-20T08:20:30.000Z</time>
      </trkpt>
      <trkpt lat="48.69418" lon="2.02565">
        <ele>109</ele>
        <time>2021-05-20T08:20:31.000Z</time>
      </trkpt>
      <trkpt lat="48.69416" lon="2.02566">
        <ele>109</ele>
        <time>2021-05-20T08:20:32.000Z</time>
      </trkpt>
      <trkpt lat="48.69416" lon="2.02566">
        <ele>109</ele>
        <time>2021-05-20T08:20:33.000Z</time>
      </trkpt>
      <trkpt lat="48.69416" lon="2.02566">
        <ele>109</ele>
        <time>2021-05-20T08:20:34.000Z</time>
      </trkpt>
      <trkpt lat="48.69415" lon="2.02566">
        <ele>109</ele>
        <time>2021-05-20T08:20:35.000Z</time>
      </trkpt>
      <trkpt lat="48.69413" lon="2.02569">
        <ele>109</ele>
        <time>2021-05-20T08:20:36.000Z</time>
      </trkpt>
      <trkpt lat="48.69413" lon="2.0257">
        <ele>109</ele>
        <time>2021-05-20T08:20:37.000Z</time>
      </trkpt>
      <trkpt lat="48.69411" lon="2.02571">
        <ele>110</ele>
        <time>2021-05-20T08:20:38.000Z</time>
      </trkpt>
      <trkpt lat="48.6941" lon="2.02573">
        <ele>110</ele>
        <time>2021-05-20T08:20:39.000Z</time>
      </trkpt>
      <trkpt lat="48.6941" lon="2.02575">
        <ele>110</ele>
        <time>2021-05-20T08:20:40.000Z</time>
      </trkpt>
      <trkpt lat="48.69409" lon="2.02577">
        <ele>110</ele>
        <time>2021-05-20T08:20:41.000Z</time>
      </trkpt>
      <trkpt lat="48.69409" lon="2.02578">
        <ele>110</ele>
        <time>2021-05-20T08:20:42.000Z</time>
      </trkpt>
      <trkpt lat="48.69409" lon="2.0258">
        <ele>110</ele>
        <time>2021-05-20T08:20:43.000Z</time>
      </trkpt>
      <trkpt lat="48.69408" lon="2.02582">
        <ele>110</ele>
        <time>2021-05-20T08:20:44.000Z</time>
      </trkpt>
      <trkpt lat="48.69408" lon="2.02583">
        <ele>110</ele>
        <time>2021-05-20T08:20:45.000Z</time>
      </trkpt>
      <trkpt lat="48.69408" lon="2.02584">
        <ele>110</ele>
        <time>2021-05-20T08:20:46.000Z</time>
      </trkpt>
      <trkpt lat="48.69407" lon="2.02585">
        <ele>110</ele>
        <time>2021-05-20T08:20:47.000Z</time>
      </trkpt>
      <trkpt lat="48.69406" lon="2.02586">
        <ele>110</ele>
        <time>2021-05-20T08:20:48.000Z</time>
      </trkpt>
      <trkpt lat="48.69406" lon="2.02587">
        <ele>111</ele>
        <time>2021-05-20T08:20:49.000Z</time>
      </trkpt>
      <trkpt lat="48.69405" lon="2.02588">
        <ele>111</ele>
        <time>2021-05-20T08:20:50.000Z</time>
      </trkpt>
      <trkpt lat="48.69404" lon="2.02588">
        <ele>111</ele>
        <time>2021-05-20T08:20:51.000Z</time>
      </trkpt>
      <trkpt lat="48.69403" lon="2.02589">
        <ele>111</ele>
        <time>2021-05-20T08:20:52.000Z</time>
      </trkpt>
      <trkpt lat="48.69402" lon="2.0259">
        <ele>111</ele>
        <time>2021-05-20T08:20:53.000Z</time>
      </trkpt>
      <trkpt lat="48.69402" lon="2.0259">
        <ele>111</ele>
        <time>2021-05-20T08:20:54.000Z</time>
      </trkpt>
      <trkpt lat="48.69402" lon="2.0259">
        <ele>111</ele>
        <time>2021-05-20T08:20:55.000Z</time>
      </trkpt>
      <trkpt lat="48.69401" lon="2.0259">
        <ele>111</ele>
        <time>2021-05-20T08:20:56.000Z</time>
      </trkpt>
      <trkpt lat="48.69401" lon="2.02591">
        <ele>111</ele>
        <time>2021-05-20T08:20:57.000Z</time>
      </trkpt>
      <trkpt lat="48.694" lon="2.02592">
        <ele>111</ele>
        <time>2021-05-20T08:20:58.000Z</time>
      </trkpt>
      <trkpt lat="48.69399" lon="2.02592">
        <ele>111</ele>
        <time>2021-05-20T08:20:59.000Z</time>
      </trkpt>
      <trkpt lat="48.69398" lon="2.02593">
        <ele>111</ele>
        <time>2021-05-20T08:21:00.000Z</time>
      </trkpt>
      <trkpt lat="48.69397" lon="2.02593">
        <ele>111</ele>
        <time>2021-05-20T08:21:01.000Z</time>
      </trkpt>
      <trkpt lat="48.69396" lon="2.02594">
        <ele>111</ele>
        <time>2021-05-20T08:21:02.000Z</time>
      </trkpt>
      <trkpt lat="48.69394" lon="2.02594">
        <ele>112</ele>
        <time>2021-05-20T08:21:03.000Z</time>
      </trkpt>
      <trkpt lat="48.69393" lon="2.02594">
        <ele>112</ele>
        <time>2021-05-20T08:21:04.000Z</time>
      </trkpt>
      <trkpt lat="48.69391" lon="2.02594">
        <ele>112</ele>
        <time>2021-05-20T08:21:05.000Z</time>
      </trkpt>
      <trkpt lat="48.6939" lon="2.02595">
        <ele>112</ele>
        <time>2021-05-20T08:21:06.000Z</time>
      </trkpt>
      <trkpt lat="48.69389" lon="2.02595">
        <ele>112</ele>
        <time>2021-05-20T08:21:07.000Z</time>
      </trkpt>
      <trkpt lat="48.69388" lon="2.02595">
        <ele>112</ele>
        <time>2021-05-20T08:21:08.000Z</time>
      </trkpt>
      <trkpt lat="48.69387" lon="2.02595">
        <ele>113</ele>
        <time>2021-05-20T08:21:09.000Z</time>
      </trkpt>
      <trkpt lat="48.69387" lon="2.02595">
        <ele>113</ele>
        <time>2021-05-20T08:21:10.000Z</time>
      </trkpt>
      <trkpt lat="48.69386" lon="2.02595">
        <ele>113</ele>
        <time>2021-05-20T08:21:11.000Z</time>
      </trkpt>
      <trkpt lat="48.69386" lon="2.02595">
        <ele>113</ele>
        <time>2021-05-20T08:21:12.000Z</time>
      </trkpt>
      <trkpt lat="48.69386" lon="2.02595">
        <ele>113</ele>
        <time>2021-05-20T08:21:13.000Z</time>
      </trkpt>
      <trkpt lat="48.69385" lon="2.02595">
        <ele>113</ele>
        <time>2021-05-20T08:21:14.000Z</time>
      </trkpt>
      <trkpt lat="48.69385" lon="2.02595">
        <ele>113</ele>
        <time>2021-05-20T08:21:15.000Z</time>
      </trkpt>
      <trkpt lat="48.69385" lon="2.02595">
        <ele>113</ele>
        <time>2021-05-20T08:21:16.000Z</time>
      </trkpt>
      <trkpt lat="48.69383" lon="2.02595">
        <ele>114</ele>
        <time>2021-05-20T08:21:17.000Z</time>
      </trkpt>
      <trkpt lat="48.69382" lon="2.02595">
        <ele>114</ele>
        <time>2021-05-20T08:21:18.000Z</time>
      </trkpt>
      <trkpt lat="48.69381" lon="2.02595">
        <ele>114</ele>
        <time>2021-05-20T08:21:19.000Z</time>
      </trkpt>
      <trkpt lat="48.6938" lon="2.02595">
        <ele>114</ele>
        <time>2021-05-20T08:21:20.000Z</time>
      </trkpt>
      <trkpt lat="48.69379" lon="2.02595">
        <ele>114</ele>
        <time>2021-05-20T08:21:21.000Z</time>
      </trkpt>
      <trkpt lat="48.69377" lon="2.02595">
        <ele>114</ele>
        <time>2021-05-20T08:21:22.000Z</time>
      </trkpt>
      <trkpt lat="48.69376" lon="2.02595">
        <ele>114</ele>
        <time>2021-05-20T08:21:23.000Z</time>
      </trkpt>
      <trkpt lat="48.69376" lon="2.02595">
        <ele>114</ele>
        <time>2021-05-20T08:21:24.000Z</time>
      </trkpt>
      <trkpt lat="48.69375" lon="2.02595">
        <ele>114</ele>
        <time>2021-05-20T08:21:25.000Z</time>
      </trkpt>
      <trkpt lat="48.69374" lon="2.02595">
        <ele>114</ele>
        <time>2021-05-20T08:21:26.000Z</time>
      </trkpt>
      <trkpt lat="48.69374" lon="2.02595">
        <ele>114</ele>
        <time>2021-05-20T08:21:27.000Z</time>
      </trkpt>
      <trkpt lat="48.69373" lon="2.02595">
        <ele>114</ele>
        <time>2021-05-20T08:21:28.000Z</time>
      </trkpt>
      <trkpt lat="48.69373" lon="2.02594">
        <ele>114</ele>
        <time>2021-05-20T08:21:29.000Z</time>
      </trkpt>
      <trkpt lat="48.6937" lon="2.02595">
        <ele>114</ele>
        <time>2021-05-20T08:21:30.000Z</time>
      </trkpt>
      <trkpt lat="48.6937" lon="2.02595">
        <ele>114</ele>
        <time>2021-05-20T08:21:31.000Z</time>
      </trkpt>
      <trkpt lat="48.69369" lon="2.02595">
        <ele>114</ele>
        <time>2021-05-20T08:21:32.000Z</time>
      </trkpt>
      <trkpt lat="48.69368" lon="2.02595">
        <ele>114</ele>
        <time>2021-05-20T08:21:33.000Z</time>
      </trkpt>
      <trkpt lat="48.69367" lon="2.02595">
        <ele>114</ele>
        <time>2021-05-20T08:21:34.000Z</time>
      </trkpt>
      <trkpt lat="48.69367" lon="2.02595">
        <ele>114</ele>
        <time>2021-05-20T08:21:35.000Z</time>
      </trkpt>
      <trkpt lat="48.69366" lon="2.02595">
        <ele>114</ele>
        <time>2021-05-20T08:21:36.000Z</time>
      </trkpt>
      <trkpt lat="48.69365" lon="2.02595">
        <ele>114</ele>
        <time>2021-05-20T08:21:37.000Z</time>
      </trkpt>
      <trkpt lat="48.69364" lon="2.02595">
        <ele>114</ele>
        <time>2021-05-20T08:21:38.000Z</time>
      </trkpt>
      <trkpt lat="48.69363" lon="2.02595">
        <ele>114</ele>
        <time>2021-05-20T08:21:39.000Z</time>
      </trkpt>
      <trkpt lat="48.69362" lon="2.02595">
        <ele>114</ele>
        <time>2021-05-20T08:21:40.000Z</time>
      </trkpt>
      <trkpt lat="48.69361" lon="2.02595">
        <ele>114</ele>
        <time>2021-05-20T08:21:41.000Z</time>
      </trkpt>
      <trkpt lat="48.6936" lon="2.02595">
        <ele>114</ele>
        <time>2021-05-20T08:21:42.000Z</time>
      </trkpt>
      <trkpt lat="48.69359" lon="2.02595">
        <ele>114</ele>
        <time>2021-05-20T08:21:43.000Z</time>
      </trkpt>
      <trkpt lat="48.69358" lon="2.02595">
        <ele>114</ele>
        <time>2021-05-20T08:21:44.000Z</time>
      </trkpt>
      <trkpt lat="48.69357" lon="2.02595">
        <ele>115</ele>
        <time>2021-05-20T08:21:45.000Z</time>
      </trkpt>
      <trkpt lat="48.69356" lon="2.02595">
        <ele>115</ele>
        <time>2021-05-20T08:21:46.000Z</time>
      </trkpt>
      <trkpt lat="48.69354" lon="2.02595">
        <ele>115</ele>
        <time>2021-05-20T08:21:47.000Z</time>
      </trkpt>
      <trkpt lat="48.69353" lon="2.02596">
        <ele>115</ele>
        <time>2021-05-20T08:21:48.000Z</time>
      </trkpt>
      <trkpt lat="48.69352" lon="2.02596">
        <ele>115</ele>
        <time>2021-05-20T08:21:49.000Z</time>
      </trkpt>
      <trkpt lat="48.69351" lon="2.02596">
        <ele>115</ele>
        <time>2021-05-20T08:21:50.000Z</time>
      </trkpt>
      <trkpt lat="48.6935" lon="2.02597">
        <ele>115</ele>
        <time>2021-05-20T08:21:51.000Z</time>
      </trkpt>
      <trkpt lat="48.69349" lon="2.02597">
        <ele>115</ele>
        <time>2021-05-20T08:21:52.000Z</time>
      </trkpt>
      <trkpt lat="48.69347" lon="2.02597">
        <ele>116</ele>
        <time>2021-05-20T08:21:53.000Z</time>
      </trkpt>
      <trkpt lat="48.69346" lon="2.02597">
        <ele>116</ele>
        <time>2021-05-20T08:21:54.000Z</time>
      </trkpt>
      <trkpt lat="48.69345" lon="2.02597">
        <ele>116</ele>
        <time>2021-05-20T08:21:55.000Z</time>
      </trkpt>
      <trkpt lat="48.69344" lon="2.02597">
        <ele>116</ele>
        <time>2021-05-20T08:21:56.000Z</time>
      </trkpt>
      <trkpt lat="48.69343" lon="2.02597">
        <ele>116</ele>
        <time>2021-05-20T08:21:57.000Z</time>
      </trkpt>
      <trkpt lat="48.69342" lon="2.02598">
        <ele>117</ele>
        <time>2021-05-20T08:21:58.000Z</time>
      </trkpt>
      <trkpt lat="48.69341" lon="2.02598">
        <ele>117</ele>
        <time>2021-05-20T08:21:59.000Z</time>
      </trkpt>
      <trkpt lat="48.6934" lon="2.02598">
        <ele>117</ele>
        <time>2021-05-20T08:22:00.000Z</time>
      </trkpt>
      <trkpt lat="48.69339" lon="2.02598">
        <ele>117</ele>
        <time>2021-05-20T08:22:01.000Z</time>
      </trkpt>
      <trkpt lat="48.69339" lon="2.02598">
        <ele>118</ele>
        <time>2021-05-20T08:22:02.000Z</time>
      </trkpt>
      <trkpt lat="48.69338" lon="2.02598">
        <ele>118</ele>
        <time>2021-05-20T08:22:03.000Z</time>
      </trkpt>
      <trkpt lat="48.69337" lon="2.02598">
        <ele>118</ele>
        <time>2021-05-20T08:22:04.000Z</time>
      </trkpt>
      <trkpt lat="48.69336" lon="2.02598">
        <ele>118</ele>
        <time>2021-05-20T08:22:05.000Z</time>
      </trkpt>
      <trkpt lat="48.69335" lon="2.02598">
        <ele>118</ele>
        <time>2021-05-20T08:22:06.000Z</time>
      </trkpt>
      <trkpt lat="48.69334" lon="2.02598">
        <ele>119</ele>
        <time>2021-05-20T08:22:07.000Z</time>
      </trkpt>
      <trkpt lat="48.69334" lon="2.02598">
        <ele>119</ele>
        <time>2021-05-20T08:22:08.000Z</time>
      </trkpt>
      <trkpt lat="48.69333" lon="2.02598">
        <ele>119</ele>
        <time>2021-05-20T08:22:09.000Z</time>
      </trkpt>
      <trkpt lat="48.69332" lon="2.02598">
        <ele>119</ele>
        <time>2021-05-20T08:22:10.000Z</time>
      </trkpt>
      <trkpt lat="48.69331" lon="2.02598">
        <ele>119</ele>
        <time>2021-05-20T08:22:11.000Z</time>
      </trkpt>
      <trkpt lat="48.6933" lon="2.02598">
        <ele>119</ele>
        <time>2021-05-20T08:22:12.000Z</time>
      </trkpt>
      <trkpt lat="48.69329" lon="2.02599">
        <ele>120</ele>
        <time>2021-05-20T08:22:13.000Z</time>
      </trkpt>
      <trkpt lat="48.69327" lon="2.02599">
        <ele>120</ele>
        <time>2021-05-20T08:22:14.000Z</time>
      </trkpt>
      <trkpt lat="48.69326" lon="2.02599">
        <ele>120</ele>
        <time>2021-05-20T08:22:15.000Z</time>
      </trkpt>
      <trkpt lat="48.69324" lon="2.02599">
        <ele>120</ele>
        <time>2021-05-20T08:22:16.000Z</time>
      </trkpt>
      <trkpt lat="48.69323" lon="2.02599">
        <ele>120</ele>
        <time>2021-05-20T08:22:17.000Z</time>
      </trkpt>
      <trkpt lat="48.69322" lon="2.02599">
        <ele>121</ele>
        <time>2021-05-20T08:22:18.000Z</time>
      </trkpt>
      <trkpt lat="48.69321" lon="2.02599">
        <ele>121</ele>
        <time>2021-05-20T08:22:19.000Z</time>
      </trkpt>
      <trkpt lat="48.6932" lon="2.02599">
        <ele>121</ele>
        <time>2021-05-20T08:22:20.000Z</time>
      </trkpt>
      <trkpt lat="48.69319" lon="2.02599">
        <ele>121</ele>
        <time>2021-05-20T08:22:21.000Z</time>
      </trkpt>
      <trkpt lat="48.69318" lon="2.02599">
        <ele>121</ele>
        <time>2021-05-20T08:22:22.000Z</time>
      </trkpt>
      <trkpt lat="48.69316" lon="2.02599">
        <ele>121</ele>
        <time>2021-05-20T08:22:23.000Z</time>
      </trkpt>
      <trkpt lat="48.69315" lon="2.02598">
        <ele>122</ele>
        <time>2021-05-20T08:22:24.000Z</time>
      </trkpt>
      <trkpt lat="48.69314" lon="2.02598">
        <ele>122</ele>
        <time>2021-05-20T08:22:25.000Z</time>
      </trkpt>
      <trkpt lat="48.69313" lon="2.02597">
        <ele>122</ele>
        <time>2021-05-20T08:22:26.000Z</time>
      </trkpt>
      <trkpt lat="48.69312" lon="2.02597">
        <ele>122</ele>
        <time>2021-05-20T08:22:27.000Z</time>
      </trkpt>
      <trkpt lat="48.69311" lon="2.02596">
        <ele>122</ele>
        <time>2021-05-20T08:22:28.000Z</time>
      </trkpt>
      <trkpt lat="48.6931" lon="2.02596">
        <ele>122</ele>
        <time>2021-05-20T08:22:29.000Z</time>
      </trkpt>
      <trkpt lat="48.69308" lon="2.02595">
        <ele>122</ele>
        <time>2021-05-20T08:22:30.000Z</time>
      </trkpt>
      <trkpt lat="48.69307" lon="2.02595">
        <ele>123</ele>
        <time>2021-05-20T08:22:31.000Z</time>
      </trkpt>
      <trkpt lat="48.69306" lon="2.02595">
        <ele>123</ele>
        <time>2021-05-20T08:22:32.000Z</time>
      </trkpt>
      <trkpt lat="48.69304" lon="2.02595">
        <ele>123</ele>
        <time>2021-05-20T08:22:33.000Z</time>
      </trkpt>
      <trkpt lat="48.69303" lon="2.02595">
        <ele>123</ele>
        <time>2021-05-20T08:22:34.000Z</time>
      </trkpt>
      <trkpt lat="48.69302" lon="2.02595">
        <ele>123</ele>
        <time>2021-05-20T08:22:35.000Z</time>
      </trkpt>
      <trkpt lat="48.69301" lon="2.02596">
        <ele>124</ele>
        <time>2021-05-20T08:22:36.000Z</time>
      </trkpt>
      <trkpt lat="48.693" lon="2.02596">
        <ele>124</ele>
        <time>2021-05-20T08:22:37.000Z</time>
      </trkpt>
      <trkpt lat="48.69299" lon="2.02596">
        <ele>124</ele>
        <time>2021-05-20T08:22:38.000Z</time>
      </trkpt>
      <trkpt lat="48.69298" lon="2.02596">
        <ele>124</ele>
        <time>2021-05-20T08:22:39.000Z</time>
      </trkpt>
      <trkpt lat="48.69297" lon="2.02596">
        <ele>125</ele>
        <time>2021-05-20T08:22:40.000Z</time>
      </trkpt>
      <trkpt lat="48.69296" lon="2.02596">
        <ele>125</ele>
        <time>2021-05-20T08:22:41.000Z</time>
      </trkpt>
      <trkpt lat="48.69295" lon="2.02597">
        <ele>125</ele>
        <time>2021-05-20T08:22:42.000Z</time>
      </trkpt>
      <trkpt lat="48.69294" lon="2.02597">
        <ele>126</ele>
        <time>2021-05-20T08:22:43.000Z</time>
      </trkpt>
      <trkpt lat="48.69294" lon="2.02597">
        <ele>126</ele>
        <time>2021-05-20T08:22:44.000Z</time>
      </trkpt>
      <trkpt lat="48.69293" lon="2.02596">
        <ele>126</ele>
        <time>2021-05-20T08:22:45.000Z</time>
      </trkpt>
      <trkpt lat="48.69292" lon="2.02596">
        <ele>126</ele>
        <time>2021-05-20T08:22:46.000Z</time>
      </trkpt>
      <trkpt lat="48.69291" lon="2.02597">
        <ele>127</ele>
        <time>2021-05-20T08:22:47.000Z</time>
      </trkpt>
      <trkpt lat="48.6929" lon="2.02597">
        <ele>127</ele>
        <time>2021-05-20T08:22:48.000Z</time>
      </trkpt>
      <trkpt lat="48.69289" lon="2.02597">
        <ele>127</ele>
        <time>2021-05-20T08:22:49.000Z</time>
      </trkpt>
      <trkpt lat="48.69288" lon="2.02597">
        <ele>127</ele>
        <time>2021-05-20T08:22:50.000Z</time>
      </trkpt>
      <trkpt lat="48.69287" lon="2.02598">
        <ele>127</ele>
        <time>2021-05-20T08:22:51.000Z</time>
      </trkpt>
      <trkpt lat="48.69286" lon="2.02598">
        <ele>128</ele>
        <time>2021-05-20T08:22:52.000Z</time>
      </trkpt>
      <trkpt lat="48.69285" lon="2.02599">
        <ele>128</ele>
        <time>2021-05-20T08:22:53.000Z</time>
      </trkpt>
      <trkpt lat="48.69284" lon="2.02599">
        <ele>128</ele>
        <time>2021-05-20T08:22:54.000Z</time>
      </trkpt>
      <trkpt lat="48.69283" lon="2.02599">
        <ele>128</ele>
        <time>2021-05-20T08:22:55.000Z</time>
      </trkpt>
      <trkpt lat="48.69282" lon="2.026">
        <ele>129</ele>
        <time>2021-05-20T08:22:56.000Z</time>
      </trkpt>
      <trkpt lat="48.69281" lon="2.026">
        <ele>129</ele>
        <time>2021-05-20T08:22:57.000Z</time>
      </trkpt>
      <trkpt lat="48.69281" lon="2.026">
        <ele>129</ele>
        <time>2021-05-20T08:22:58.000Z</time>
      </trkpt>
      <trkpt lat="48.6928" lon="2.02601">
        <ele>130</ele>
        <time>2021-05-20T08:22:59.000Z</time>
      </trkpt>
      <trkpt lat="48.69279" lon="2.02601">
        <ele>130</ele>
        <time>2021-05-20T08:23:00.000Z</time>
      </trkpt>
      <trkpt lat="48.69278" lon="2.02601">
        <ele>131</ele>
        <time>2021-05-20T08:23:01.000Z</time>
      </trkpt>
      <trkpt lat="48.69278" lon="2.02602">
        <ele>131</ele>
        <time>2021-05-20T08:23:02.000Z</time>
      </trkpt>
      <trkpt lat="48.69277" lon="2.02602">
        <ele>132</ele>
        <time>2021-05-20T08:23:03.000Z</time>
      </trkpt>
      <trkpt lat="48.69276" lon="2.02603">
        <ele>132</ele>
        <time>2021-05-20T08:23:04.000Z</time>
      </trkpt>
      <trkpt lat="48.69276" lon="2.02603">
        <ele>133</ele>
        <time>2021-05-20T08:23:05.000Z</time>
      </trkpt>
      <trkpt lat="48.69275" lon="2.02603">
        <ele>133</ele>
        <time>2021-05-20T08:23:06.000Z</time>
      </trkpt>
      <trkpt lat="48.69274" lon="2.02604">
        <ele>134</ele>
        <time>2021-05-20T08:23:07.000Z</time>
      </trkpt>
      <trkpt lat="48.69274" lon="2.02605">
        <ele>134</ele>
        <time>2021-05-20T08:23:08.000Z</time>
      </trkpt>
      <trkpt lat="48.69273" lon="2.02605">
        <ele>135</ele>
        <time>2021-05-20T08:23:09.000Z</time>
      </trkpt>
      <trkpt lat="48.69272" lon="2.02606">
        <ele>135</ele>
        <time>2021-05-20T08:23:10.000Z</time>
      </trkpt>
      <trkpt lat="48.69271" lon="2.02606">
        <ele>135</ele>
        <time>2021-05-20T08:23:11.000Z</time>
      </trkpt>
      <trkpt lat="48.6927" lon="2.02607">
        <ele>136</ele>
        <time>2021-05-20T08:23:12.000Z</time>
      </trkpt>
      <trkpt lat="48.6927" lon="2.02608">
        <ele>136</ele>
        <time>2021-05-20T08:23:13.000Z</time>
      </trkpt>
      <trkpt lat="48.69269" lon="2.02608">
        <ele>136</ele>
        <time>2021-05-20T08:23:14.000Z</time>
      </trkpt>
      <trkpt lat="48.69268" lon="2.02608">
        <ele>137</ele>
        <time>2021-05-20T08:23:15.000Z</time>
      </trkpt>
      <trkpt lat="48.69267" lon="2.02609">
        <ele>137</ele>
        <time>2021-05-20T08:23:16.000Z</time>
      </trkpt>
      <trkpt lat="48.69266" lon="2.02609">
        <ele>137</ele>
        <time>2021-05-20T08:23:17.000Z</time>
      </trkpt>
      <trkpt lat="48.69266" lon="2.02609">
        <ele>137</ele>
        <time>2021-05-20T08:23:18.000Z</time>
      </trkpt>
      <trkpt lat="48.69265" lon="2.0261">
        <ele>138</ele>
        <time>2021-05-20T08:23:19.000Z</time>
      </trkpt>
      <trkpt lat="48.69264" lon="2.0261">
        <ele>138</ele>
        <time>2021-05-20T08:23:20.000Z</time>
      </trkpt>
      <trkpt lat="48.69264" lon="2.0261">
        <ele>138</ele>
        <time>2021-05-20T08:23:21.000Z</time>
      </trkpt>
      <trkpt lat="48.69263" lon="2.02611">
        <ele>139</ele>
        <time>2021-05-20T08:23:22.000Z</time>
      </trkpt>
      <trkpt lat="48.69262" lon="2.02611">
        <ele>139</ele>
        <time>2021-05-20T08:23:23.000Z</time>
      </trkpt>
      <trkpt lat="48.69262" lon="2.02612">
        <ele>139</ele>
        <time>2021-05-20T08:23:24.000Z</time>
      </trkpt>
      <trkpt lat="48.69261" lon="2.02613">
        <ele>139</ele>
        <time>2021-05-20T08:23:25.000Z</time>
      </trkpt>
      <trkpt lat="48.6926" lon="2.02613">
        <ele>140</ele>
        <time>2021-05-20T08:23:26.000Z</time>
      </trkpt>
      <trkpt lat="48.6926" lon="2.02614">
        <ele>140</ele>
        <time>2021-05-20T08:23:27.000Z</time>
      </trkpt>
      <trkpt lat="48.69259" lon="2.02615">
        <ele>140</ele>
        <time>2021-05-20T08:23:28.000Z</time>
      </trkpt>
      <trkpt lat="48.69259" lon="2.02616">
        <ele>141</ele>
        <time>2021-05-20T08:23:29.000Z</time>
      </trkpt>
      <trkpt lat="48.69258" lon="2.02616">
        <ele>141</ele>
        <time>2021-05-20T08:23:30.000Z</time>
      </trkpt>
      <trkpt lat="48.69257" lon="2.02617">
        <ele>141</ele>
        <time>2021-05-20T08:23:31.000Z</time>
      </trkpt>
      <trkpt lat="48.69256" lon="2.02617">
        <ele>141</ele>
        <time>2021-05-20T08:23:32.000Z</time>
      </trkpt>
      <trkpt lat="48.69255" lon="2.02618">
        <ele>141</ele>
        <time>2021-05-20T08:23:33.000Z</time>
      </trkpt>
      <trkpt lat="48.69255" lon="2.02618">
        <ele>142</ele>
        <time>2021-05-20T08:23:34.000Z</time>
      </trkpt>
      <trkpt lat="48.69254" lon="2.02619">
        <ele>142</ele>
        <time>2021-05-20T08:23:35.000Z</time>
      </trkpt>
      <trkpt lat="48.69254" lon="2.0262">
        <ele>142</ele>
        <time>2021-05-20T08:23:36.000Z</time>
      </trkpt>
      <trkpt lat="48.69253" lon="2.0262">
        <ele>143</ele>
        <time>2021-05-20T08:23:37.000Z</time>
      </trkpt>
      <trkpt lat="48.69253" lon="2.02621">
        <ele>143</ele>
        <time>2021-05-20T08:23:38.000Z</time>
      </trkpt>
      <trkpt lat="48.69252" lon="2.02621">
        <ele>143</ele>
        <time>2021-05-20T08:23:39.000Z</time>
      </trkpt>
      <trkpt lat="48.69252" lon="2.02622">
        <ele>143</ele>
        <time>2021-05-20T08:23:40.000Z</time>
      </trkpt>
      <trkpt lat="48.69252" lon="2.02622">
        <ele>144</ele>
        <time>2021-05-20T08:23:41.000Z</time>
      </trkpt>
      <trkpt lat="48.6925" lon="2.02624">
        <ele>144</ele>
        <time>2021-05-20T08:23:42.000Z</time>
      </trkpt>
      <trkpt lat="48.69249" lon="2.02625">
        <ele>145</ele>
        <time>2021-05-20T08:23:43.000Z</time>
      </trkpt>
      <trkpt lat="48.69248" lon="2.02626">
        <ele>145</ele>
        <time>2021-05-20T08:23:44.000Z</time>
      </trkpt>
      <trkpt lat="48.69248" lon="2.02626">
        <ele>145</ele>
        <time>2021-05-20T08:23:45.000Z</time>
      </trkpt>
      <trkpt lat="48.69247" lon="2.02627">
        <ele>145</ele>
        <time>2021-05-20T08:23:46.000Z</time>
      </trkpt>
      <trkpt lat="48.69246" lon="2.02628">
        <ele>145</ele>
        <time>2021-05-20T08:23:47.000Z</time>
      </trkpt>
      <trkpt lat="48.69245" lon="2.02629">
        <ele>145</ele>
        <time>2021-05-20T08:23:48.000Z</time>
      </trkpt>
      <trkpt lat="48.69244" lon="2.0263">
        <ele>145</ele>
        <time>2021-05-20T08:23:49.000Z</time>
      </trkpt>
      <trkpt lat="48.69243" lon="2.0263">
        <ele>146</ele>
        <time>2021-05-20T08:23:50.000Z</time>
      </trkpt>
      <trkpt lat="48.69242" lon="2.02631">
        <ele>146</ele>
        <time>2021-05-20T08:23:51.000Z</time>
      </trkpt>
      <trkpt lat="48.69241" lon="2.02632">
        <ele>146</ele>
        <time>2021-05-20T08:23:52.000Z</time>
      </trkpt>
      <trkpt lat="48.6924" lon="2.02632">
        <ele>146</ele>
        <time>2021-05-20T08:23:53.000Z</time>
      </trkpt>
      <trkpt lat="48.6924" lon="2.02632">
        <ele>146</ele>
        <time>2021-05-20T08:23:54.000Z</time>
      </trkpt>
      <trkpt lat="48.69239" lon="2.02633">
        <ele>146</ele>
        <time>2021-05-20T08:23:55.000Z</time>
      </trkpt>
      <trkpt lat="48.69238" lon="2.02633">
        <ele>146</ele>
        <time>2021-05-20T08:23:56.000Z</time>
      </trkpt>
      <trkpt lat="48.69237" lon="2.02634">
        <ele>146</ele>
        <time>2021-05-20T08:23:57.000Z</time>
      </trkpt>
      <trkpt lat="48.69236" lon="2.02635">
        <ele>146</ele>
        <time>2021-05-20T08:23:58.000Z</time>
      </trkpt>
      <trkpt lat="48.69235" lon="2.02635">
        <ele>146</ele>
        <time>2021-05-20T08:23:59.000Z</time>
      </trkpt>
      <trkpt lat="48.69234" lon="2.02636">
        <ele>146</ele>
        <time>2021-05-20T08:24:00.000Z</time>
      </trkpt>
      <trkpt lat="48.69233" lon="2.02636">
        <ele>147</ele>
        <time>2021-05-20T08:24:01.000Z</time>
      </trkpt>
      <trkpt lat="48.69233" lon="2.02637">
        <ele>147</ele>
        <time>2021-05-20T08:24:02.000Z</time>
      </trkpt>
      <trkpt lat="48.69232" lon="2.02637">
        <ele>147</ele>
        <time>2021-05-20T08:24:03.000Z</time>
      </trkpt>
      <trkpt lat="48.69231" lon="2.02638">
        <ele>147</ele>
        <time>2021-05-20T08:24:04.000Z</time>
      </trkpt>
      <trkpt lat="48.6923" lon="2.02638">
        <ele>147</ele>
        <time>2021-05-20T08:24:05.000Z</time>
      </trkpt>
      <trkpt lat="48.69229" lon="2.02639">
        <ele>147</ele>
        <time>2021-05-20T08:24:06.000Z</time>
      </trkpt>
      <trkpt lat="48.69228" lon="2.0264">
        <ele>147</ele>
        <time>2021-05-20T08:24:07.000Z</time>
      </trkpt>
      <trkpt lat="48.69227" lon="2.0264">
        <ele>147</ele>
        <time>2021-05-20T08:24:08.000Z</time>
      </trkpt>
      <trkpt lat="48.69226" lon="2.02641">
        <ele>147</ele>
        <time>2021-05-20T08:24:09.000Z</time>
      </trkpt>
      <trkpt lat="48.69225" lon="2.02641">
        <ele>147</ele>
        <time>2021-05-20T08:24:10.000Z</time>
      </trkpt>
      <trkpt lat="48.69225" lon="2.02642">
        <ele>147</ele>
        <time>2021-05-20T08:24:11.000Z</time>
      </trkpt>
      <trkpt lat="48.69224" lon="2.02642">
        <ele>147</ele>
        <time>2021-05-20T08:24:12.000Z</time>
      </trkpt>
      <trkpt lat="48.69223" lon="2.02642">
        <ele>147</ele>
        <time>2021-05-20T08:24:13.000Z</time>
      </trkpt>
      <trkpt lat="48.69222" lon="2.02642">
        <ele>147</ele>
        <time>2021-05-20T08:24:14.000Z</time>
      </trkpt>
      <trkpt lat="48.69221" lon="2.02643">
        <ele>147</ele>
        <time>2021-05-20T08:24:15.000Z</time>
      </trkpt>
      <trkpt lat="48.69221" lon="2.02643">
        <ele>147</ele>
        <time>2021-05-20T08:24:16.000Z</time>
      </trkpt>
      <trkpt lat="48.6922" lon="2.02644">
        <ele>147</ele>
        <time>2021-05-20T08:24:17.000Z</time>
      </trkpt>
      <trkpt lat="48.69219" lon="2.02645">
        <ele>147</ele>
        <time>2021-05-20T08:24:18.000Z</time>
      </trkpt>
      <trkpt lat="48.69218" lon="2.02645">
        <ele>147</ele>
        <time>2021-05-20T08:24:19.000Z</time>
      </trkpt>
      <trkpt lat="48.69217" lon="2.02646">
        <ele>147</ele>
        <time>2021-05-20T08:24:20.000Z</time>
      </trkpt>
      <trkpt lat="48.69216" lon="2.02647">
        <ele>147</ele>
        <time>2021-05-20T08:24:21.000Z</time>
      </trkpt>
      <trkpt lat="48.69215" lon="2.02647">
        <ele>147</ele>
        <time>2021-05-20T08:24:22.000Z</time>
      </trkpt>
      <trkpt lat="48.69215" lon="2.02647">
        <ele>147</ele>
        <time>2021-05-20T08:24:23.000Z</time>
      </trkpt>
      <trkpt lat="48.69214" lon="2.02647">
        <ele>147</ele>
        <time>2021-05-20T08:24:24.000Z</time>
      </trkpt>
      <trkpt lat="48.69213" lon="2.02647">
        <ele>148</ele>
        <time>2021-05-20T08:24:25.000Z</time>
      </trkpt>
      <trkpt lat="48.69212" lon="2.02648">
        <ele>148</ele>
        <time>2021-05-20T08:24:26.000Z</time>
      </trkpt>
      <trkpt lat="48.69211" lon="2.02648">
        <ele>148</ele>
        <time>2021-05-20T08:24:27.000Z</time>
      </trkpt>
      <trkpt lat="48.6921" lon="2.02648">
        <ele>148</ele>
        <time>2021-05-20T08:24:28.000Z</time>
      </trkpt>
      <trkpt lat="48.69209" lon="2.02648">
        <ele>148</ele>
        <time>2021-05-20T08:24:29.000Z</time>
      </trkpt>
      <trkpt lat="48.69208" lon="2.02649">
        <ele>148</ele>
        <time>2021-05-20T08:24:30.000Z</time>
      </trkpt>
      <trkpt lat="48.69207" lon="2.02649">
        <ele>148</ele>
        <time>2021-05-20T08:24:31.000Z</time>
      </trkpt>
      <trkpt lat="48.69206" lon="2.0265">
        <ele>148</ele>
        <time>2021-05-20T08:24:32.000Z</time>
      </trkpt>
      <trkpt lat="48.69206" lon="2.0265">
        <ele>148</ele>
        <time>2021-05-20T08:24:33.000Z</time>
      </trkpt>
      <trkpt lat="48.69205" lon="2.0265">
        <ele>148</ele>
        <time>2021-05-20T08:24:34.000Z</time>
      </trkpt>
      <trkpt lat="48.69204" lon="2.0265">
        <ele>149</ele>
        <time>2021-05-20T08:24:35.000Z</time>
      </trkpt>
      <trkpt lat="48.69203" lon="2.0265">
        <ele>149</ele>
        <time>2021-05-20T08:24:36.000Z</time>
      </trkpt>
      <trkpt lat="48.69202" lon="2.02651">
        <ele>149</ele>
        <time>2021-05-20T08:24:37.000Z</time>
      </trkpt>
      <trkpt lat="48.69201" lon="2.02651">
        <ele>149</ele>
        <time>2021-05-20T08:24:38.000Z</time>
      </trkpt>
      <trkpt lat="48.692" lon="2.02651">
        <ele>149</ele>
        <time>2021-05-20T08:24:39.000Z</time>
      </trkpt>
      <trkpt lat="48.69199" lon="2.02651">
        <ele>150</ele>
        <time>2021-05-20T08:24:40.000Z</time>
      </trkpt>
      <trkpt lat="48.69198" lon="2.02652">
        <ele>150</ele>
        <time>2021-05-20T08:24:41.000Z</time>
      </trkpt>
      <trkpt lat="48.69197" lon="2.02651">
        <ele>150</ele>
        <time>2021-05-20T08:24:42.000Z</time>
      </trkpt>
      <trkpt lat="48.69196" lon="2.02652">
        <ele>150</ele>
        <time>2021-05-20T08:24:43.000Z</time>
      </trkpt>
      <trkpt lat="48.69195" lon="2.02652">
        <ele>150</ele>
        <time>2021-05-20T08:24:44.000Z</time>
      </trkpt>
      <trkpt lat="48.69194" lon="2.02652">
        <ele>150</ele>
        <time>2021-05-20T08:24:45.000Z</time>
      </trkpt>
      <trkpt lat="48.69192" lon="2.02652">
        <ele>150</ele>
        <time>2021-05-20T08:24:46.000Z</time>
      </trkpt>
      <trkpt lat="48.69191" lon="2.02652">
        <ele>151</ele>
        <time>2021-05-20T08:24:47.000Z</time>
      </trkpt>
      <trkpt lat="48.6919" lon="2.02652">
        <ele>151</ele>
        <time>2021-05-20T08:24:48.000Z</time>
      </trkpt>
      <trkpt lat="48.69188" lon="2.02653">
        <ele>151</ele>
        <time>2021-05-20T08:24:49.000Z</time>
      </trkpt>
      <trkpt lat="48.69187" lon="2.02653">
        <ele>151</ele>
        <time>2021-05-20T08:24:50.000Z</time>
      </trkpt>
      <trkpt lat="48.69186" lon="2.02654">
        <ele>151</ele>
        <time>2021-05-20T08:24:51.000Z</time>
      </trkpt>
      <trkpt lat="48.69186" lon="2.02654">
        <ele>151</ele>
        <time>2021-05-20T08:24:52.000Z</time>
      </trkpt>
      <trkpt lat="48.69184" lon="2.02654">
        <ele>151</ele>
        <time>2021-05-20T08:24:53.000Z</time>
      </trkpt>
      <trkpt lat="48.69184" lon="2.02654">
        <ele>152</ele>
        <time>2021-05-20T08:24:54.000Z</time>
      </trkpt>
      <trkpt lat="48.69182" lon="2.02654">
        <ele>152</ele>
        <time>2021-05-20T08:24:55.000Z</time>
      </trkpt>
      <trkpt lat="48.69181" lon="2.02654">
        <ele>152</ele>
        <time>2021-05-20T08:24:56.000Z</time>
      </trkpt>
      <trkpt lat="48.6918" lon="2.02654">
        <ele>152</ele>
        <time>2021-05-20T08:24:57.000Z</time>
      </trkpt>
      <trkpt lat="48.69179" lon="2.02654">
        <ele>152</ele>
        <time>2021-05-20T08:24:58.000Z</time>
      </trkpt>
      <trkpt lat="48.69178" lon="2.02654">
        <ele>152</ele>
        <time>2021-05-20T08:24:59.000Z</time>
      </trkpt>
      <trkpt lat="48.69177" lon="2.02655">
        <ele>152</ele>
        <time>2021-05-20T08:25:00.000Z</time>
      </trkpt>
      <trkpt lat="48.69176" lon="2.02655">
        <ele>153</ele>
        <time>2021-05-20T08:25:01.000Z</time>
      </trkpt>
      <trkpt lat="48.69175" lon="2.02655">
        <ele>153</ele>
        <time>2021-05-20T08:25:02.000Z</time>
      </trkpt>
      <trkpt lat="48.69174" lon="2.02655">
        <ele>153</ele>
        <time>2021-05-20T08:25:03.000Z</time>
      </trkpt>
      <trkpt lat="48.69173" lon="2.02656">
        <ele>153</ele>
        <time>2021-05-20T08:25:04.000Z</time>
      </trkpt>
      <trkpt lat="48.69172" lon="2.02656">
        <ele>153</ele>
        <time>2021-05-20T08:25:05.000Z</time>
      </trkpt>
      <trkpt lat="48.69171" lon="2.02656">
        <ele>153</ele>
        <time>2021-05-20T08:25:06.000Z</time>
      </trkpt>
      <trkpt lat="48.6917" lon="2.02656">
        <ele>153</ele>
        <time>2021-05-20T08:25:07.000Z</time>
      </trkpt>
      <trkpt lat="48.69169" lon="2.02657">
        <ele>153</ele>
        <time>2021-05-20T08:25:08.000Z</time>
      </trkpt>
      <trkpt lat="48.69167" lon="2.02657">
        <ele>153</ele>
        <time>2021-05-20T08:25:09.000Z</time>
      </trkpt>
      <trkpt lat="48.69166" lon="2.02656">
        <ele>153</ele>
        <time>2021-05-20T08:25:10.000Z</time>
      </trkpt>
      <trkpt lat="48.69164" lon="2.02656">
        <ele>153</ele>
        <time>2021-05-20T08:25:11.000Z</time>
      </trkpt>
      <trkpt lat="48.69163" lon="2.02656">
        <ele>154</ele>
        <time>2021-05-20T08:25:12.000Z</time>
      </trkpt>
      <trkpt lat="48.69162" lon="2.02656">
        <ele>154</ele>
        <time>2021-05-20T08:25:13.000Z</time>
      </trkpt>
      <trkpt lat="48.6916" lon="2.02656">
        <ele>154</ele>
        <time>2021-05-20T08:25:14.000Z</time>
      </trkpt>
      <trkpt lat="48.69159" lon="2.02657">
        <ele>154</ele>
        <time>2021-05-20T08:25:15.000Z</time>
      </trkpt>
      <trkpt lat="48.69158" lon="2.02657">
        <ele>154</ele>
        <time>2021-05-20T08:25:16.000Z</time>
      </trkpt>
      <trkpt lat="48.69157" lon="2.02657">
        <ele>155</ele>
        <time>2021-05-20T08:25:17.000Z</time>
      </trkpt>
      <trkpt lat="48.69156" lon="2.02657">
        <ele>155</ele>
        <time>2021-05-20T08:25:18.000Z</time>
      </trkpt>
      <trkpt lat="48.69156" lon="2.02657">
        <ele>155</ele>
        <time>2021-05-20T08:25:19.000Z</time>
      </trkpt>
      <trkpt lat="48.69155" lon="2.02657">
        <ele>156</ele>
        <time>2021-05-20T08:25:20.000Z</time>
      </trkpt>
      <trkpt lat="48.69154" lon="2.02657">
        <ele>156</ele>
        <time>2021-05-20T08:25:21.000Z</time>
      </trkpt>
      <trkpt lat="48.69154" lon="2.02657">
        <ele>156</ele>
        <time>2021-05-20T08:25:22.000Z</time>
      </trkpt>
      <trkpt lat="48.69153" lon="2.02657">
        <ele>156</ele>
        <time>2021-05-20T08:25:23.000Z</time>
      </trkpt>
      <trkpt lat="48.69152" lon="2.02657">
        <ele>156</ele>
        <time>2021-05-20T08:25:24.000Z</time>
      </trkpt>
      <trkpt lat="48.69152" lon="2.02657">
        <ele>156</ele>
        <time>2021-05-20T08:25:25.000Z</time>
      </trkpt>
      <trkpt lat="48.69151" lon="2.02657">
        <ele>156</ele>
        <time>2021-05-20T08:25:26.000Z</time>
      </trkpt>
      <trkpt lat="48.6915" lon="2.02657">
        <ele>156</ele>
        <time>2021-05-20T08:25:27.000Z</time>
      </trkpt>
      <trkpt lat="48.6915" lon="2.02658">
        <ele>156</ele>
        <time>2021-05-20T08:25:28.000Z</time>
      </trkpt>
      <trkpt lat="48.69149" lon="2.02658">
        <ele>156</ele>
        <time>2021-05-20T08:25:29.000Z</time>
      </trkpt>
      <trkpt lat="48.69148" lon="2.02659">
        <ele>156</ele>
        <time>2021-05-20T08:25:30.000Z</time>
      </trkpt>
      <trkpt lat="48.69148" lon="2.02659">
        <ele>156</ele>
        <time>2021-05-20T08:25:31.000Z</time>
      </trkpt>
      <trkpt lat="48.69147" lon="2.02659">
        <ele>156</ele>
        <time>2021-05-20T08:25:32.000Z</time>
      </trkpt>
      <trkpt lat="48.69146" lon="2.02659">
        <ele>156</ele>
        <time>2021-05-20T08:25:33.000Z</time>
      </trkpt>
      <trkpt lat="48.69146" lon="2.02659">
        <ele>156</ele>
        <time>2021-05-20T08:25:34.000Z</time>
      </trkpt>
      <trkpt lat="48.69145" lon="2.0266">
        <ele>156</ele>
        <time>2021-05-20T08:25:35.000Z</time>
      </trkpt>
      <trkpt lat="48.69144" lon="2.0266">
        <ele>156</ele>
        <time>2021-05-20T08:25:36.000Z</time>
      </trkpt>
      <trkpt lat="48.69143" lon="2.0266">
        <ele>156</ele>
        <time>2021-05-20T08:25:37.000Z</time>
      </trkpt>
      <trkpt lat="48.69143" lon="2.02661">
        <ele>156</ele>
        <time>2021-05-20T08:25:38.000Z</time>
      </trkpt>
      <trkpt lat="48.69141" lon="2.02661">
        <ele>156</ele>
        <time>2021-05-20T08:25:39.000Z</time>
      </trkpt>
      <trkpt lat="48.6914" lon="2.02662">
        <ele>156</ele>
        <time>2021-05-20T08:25:40.000Z</time>
      </trkpt>
      <trkpt lat="48.69139" lon="2.02662">
        <ele>156</ele>
        <time>2021-05-20T08:25:41.000Z</time>
      </trkpt>
      <trkpt lat="48.69138" lon="2.02662">
        <ele>156</ele>
        <time>2021-05-20T08:25:42.000Z</time>
      </trkpt>
      <trkpt lat="48.69137" lon="2.02663">
        <ele>156</ele>
        <time>2021-05-20T08:25:43.000Z</time>
      </trkpt>
      <trkpt lat="48.69136" lon="2.02664">
        <ele>156</ele>
        <time>2021-05-20T08:25:44.000Z</time>
      </trkpt>
      <trkpt lat="48.69135" lon="2.02664">
        <ele>156</ele>
        <time>2021-05-20T08:25:45.000Z</time>
      </trkpt>
      <trkpt lat="48.69134" lon="2.02664">
        <ele>156</ele>
        <time>2021-05-20T08:25:46.000Z</time>
      </trkpt>
      <trkpt lat="48.69134" lon="2.02665">
        <ele>156</ele>
        <time>2021-05-20T08:25:47.000Z</time>
      </trkpt>
      <trkpt lat="48.69132" lon="2.02665">
        <ele>156</ele>
        <time>2021-05-20T08:25:48.000Z</time>
      </trkpt>
      <trkpt lat="48.69131" lon="2.02666">
        <ele>156</ele>
        <time>2021-05-20T08:25:49.000Z</time>
      </trkpt>
      <trkpt lat="48.6913" lon="2.02666">
        <ele>156</ele>
        <time>2021-05-20T08:25:50.000Z</time>
      </trkpt>
      <trkpt lat="48.69129" lon="2.02666">
        <ele>156</ele>
        <time>2021-05-20T08:25:51.000Z</time>
      </trkpt>
      <trkpt lat="48.69128" lon="2.02667">
        <ele>157</ele>
        <time>2021-05-20T08:25:52.000Z</time>
      </trkpt>
      <trkpt lat="48.69126" lon="2.02667">
        <ele>157</ele>
        <time>2021-05-20T08:25:53.000Z</time>
      </trkpt>
      <trkpt lat="48.69124" lon="2.02667">
        <ele>157</ele>
        <time>2021-05-20T08:25:54.000Z</time>
      </trkpt>
      <trkpt lat="48.69123" lon="2.02668">
        <ele>157</ele>
        <time>2021-05-20T08:25:55.000Z</time>
      </trkpt>
      <trkpt lat="48.69122" lon="2.02668">
        <ele>158</ele>
        <time>2021-05-20T08:25:56.000Z</time>
      </trkpt>
      <trkpt lat="48.69121" lon="2.02669">
        <ele>158</ele>
        <time>2021-05-20T08:25:57.000Z</time>
      </trkpt>
      <trkpt lat="48.6912" lon="2.0267">
        <ele>158</ele>
        <time>2021-05-20T08:25:58.000Z</time>
      </trkpt>
      <trkpt lat="48.69119" lon="2.0267">
        <ele>158</ele>
        <time>2021-05-20T08:25:59.000Z</time>
      </trkpt>
      <trkpt lat="48.69118" lon="2.02671">
        <ele>158</ele>
        <time>2021-05-20T08:26:00.000Z</time>
      </trkpt>
      <trkpt lat="48.69118" lon="2.02671">
        <ele>158</ele>
        <time>2021-05-20T08:26:01.000Z</time>
      </trkpt>
      <trkpt lat="48.69117" lon="2.02671">
        <ele>159</ele>
        <time>2021-05-20T08:26:02.000Z</time>
      </trkpt>
      <trkpt lat="48.69115" lon="2.02671">
        <ele>159</ele>
        <time>2021-05-20T08:26:03.000Z</time>
      </trkpt>
      <trkpt lat="48.69115" lon="2.02671">
        <ele>159</ele>
        <time>2021-05-20T08:26:04.000Z</time>
      </trkpt>
      <trkpt lat="48.69115" lon="2.02672">
        <ele>159</ele>
        <time>2021-05-20T08:26:05.000Z</time>
      </trkpt>
      <trkpt lat="48.69114" lon="2.02672">
        <ele>159</ele>
        <time>2021-05-20T08:26:06.000Z</time>
      </trkpt>
      <trkpt lat="48.69113" lon="2.02673">
        <ele>159</ele>
        <time>2021-05-20T08:26:07.000Z</time>
      </trkpt>
      <trkpt lat="48.69112" lon="2.02673">
        <ele>159</ele>
        <time>2021-05-20T08:26:08.000Z</time>
      </trkpt>
      <trkpt lat="48.69112" lon="2.02674">
        <ele>160</ele>
        <time>2021-05-20T08:26:09.000Z</time>
      </trkpt>
      <trkpt lat="48.69111" lon="2.02675">
        <ele>160</ele>
        <time>2021-05-20T08:26:10.000Z</time>
      </trkpt>
      <trkpt lat="48.69109" lon="2.02676">
        <ele>160</ele>
        <time>2021-05-20T08:26:11.000Z</time>
      </trkpt>
      <trkpt lat="48.69108" lon="2.02677">
        <ele>160</ele>
        <time>2021-05-20T08:26:12.000Z</time>
      </trkpt>
      <trkpt lat="48.69107" lon="2.02677">
        <ele>160</ele>
        <time>2021-05-20T08:26:13.000Z</time>
      </trkpt>
      <trkpt lat="48.69106" lon="2.02678">
        <ele>160</ele>
        <time>2021-05-20T08:26:14.000Z</time>
      </trkpt>
      <trkpt lat="48.69105" lon="2.02678">
        <ele>160</ele>
        <time>2021-05-20T08:26:15.000Z</time>
      </trkpt>
      <trkpt lat="48.69104" lon="2.02679">
        <ele>160</ele>
        <time>2021-05-20T08:26:16.000Z</time>
      </trkpt>
      <trkpt lat="48.69103" lon="2.02679">
        <ele>160</ele>
        <time>2021-05-20T08:26:17.000Z</time>
      </trkpt>
      <trkpt lat="48.69102" lon="2.0268">
        <ele>160</ele>
        <time>2021-05-20T08:26:18.000Z</time>
      </trkpt>
      <trkpt lat="48.69102" lon="2.0268">
        <ele>160</ele>
        <time>2021-05-20T08:26:19.000Z</time>
      </trkpt>
      <trkpt lat="48.69101" lon="2.02681">
        <ele>160</ele>
        <time>2021-05-20T08:26:20.000Z</time>
      </trkpt>
      <trkpt lat="48.691" lon="2.02682">
        <ele>160</ele>
        <time>2021-05-20T08:26:21.000Z</time>
      </trkpt>
      <trkpt lat="48.69099" lon="2.02683">
        <ele>160</ele>
        <time>2021-05-20T08:26:22.000Z</time>
      </trkpt>
      <trkpt lat="48.69097" lon="2.02683">
        <ele>160</ele>
        <time>2021-05-20T08:26:23.000Z</time>
      </trkpt>
      <trkpt lat="48.69096" lon="2.02684">
        <ele>160</ele>
        <time>2021-05-20T08:26:24.000Z</time>
      </trkpt>
      <trkpt lat="48.69095" lon="2.02684">
        <ele>160</ele>
        <time>2021-05-20T08:26:25.000Z</time>
      </trkpt>
      <trkpt lat="48.69095" lon="2.02684">
        <ele>160</ele>
        <time>2021-05-20T08:26:26.000Z</time>
      </trkpt>
      <trkpt lat="48.69094" lon="2.02684">
        <ele>160</ele>
        <time>2021-05-20T08:26:27.000Z</time>
      </trkpt>
      <trkpt lat="48.69093" lon="2.02685">
        <ele>161</ele>
        <time>2021-05-20T08:26:28.000Z</time>
      </trkpt>
      <trkpt lat="48.69092" lon="2.02685">
        <ele>161</ele>
        <time>2021-05-20T08:26:29.000Z</time>
      </trkpt>
      <trkpt lat="48.69092" lon="2.02686">
        <ele>161</ele>
        <time>2021-05-20T08:26:30.000Z</time>
      </trkpt>
      <trkpt lat="48.69091" lon="2.02687">
        <ele>161</ele>
        <time>2021-05-20T08:26:31.000Z</time>
      </trkpt>
      <trkpt lat="48.6909" lon="2.02689">
        <ele>161</ele>
        <time>2021-05-20T08:26:32.000Z</time>
      </trkpt>
      <trkpt lat="48.69089" lon="2.0269">
        <ele>161</ele>
        <time>2021-05-20T08:26:33.000Z</time>
      </trkpt>
      <trkpt lat="48.69089" lon="2.0269">
        <ele>161</ele>
        <time>2021-05-20T08:26:34.000Z</time>
      </trkpt>
      <trkpt lat="48.69088" lon="2.02691">
        <ele>161</ele>
        <time>2021-05-20T08:26:35.000Z</time>
      </trkpt>
      <trkpt lat="48.69087" lon="2.02692">
        <ele>161</ele>
        <time>2021-05-20T08:26:36.000Z</time>
      </trkpt>
      <trkpt lat="48.69086" lon="2.02693">
        <ele>161</ele>
        <time>2021-05-20T08:26:37.000Z</time>
      </trkpt>
      <trkpt lat="48.69086" lon="2.02694">
        <ele>161</ele>
        <time>2021-05-20T08:26:38.000Z</time>
      </trkpt>
      <trkpt lat="48.69085" lon="2.02695">
        <ele>161</ele>
        <time>2021-05-20T08:26:39.000Z</time>
      </trkpt>
      <trkpt lat="48.69085" lon="2.02695">
        <ele>161</ele>
        <time>2021-05-20T08:26:40.000Z</time>
      </trkpt>
      <trkpt lat="48.69085" lon="2.02696">
        <ele>161</ele>
        <time>2021-05-20T08:26:41.000Z</time>
      </trkpt>
      <trkpt lat="48.69084" lon="2.02697">
        <ele>161</ele>
        <time>2021-05-20T08:26:42.000Z</time>
      </trkpt>
      <trkpt lat="48.69084" lon="2.02697">
        <ele>162</ele>
        <time>2021-05-20T08:26:43.000Z</time>
      </trkpt>
      <trkpt lat="48.69083" lon="2.02698">
        <ele>162</ele>
        <time>2021-05-20T08:26:44.000Z</time>
      </trkpt>
      <trkpt lat="48.69082" lon="2.02699">
        <ele>162</ele>
        <time>2021-05-20T08:26:45.000Z</time>
      </trkpt>
      <trkpt lat="48.69081" lon="2.02699">
        <ele>162</ele>
        <time>2021-05-20T08:26:46.000Z</time>
      </trkpt>
      <trkpt lat="48.6908" lon="2.027">
        <ele>162</ele>
        <time>2021-05-20T08:26:47.000Z</time>
      </trkpt>
      <trkpt lat="48.69079" lon="2.02701">
        <ele>162</ele>
        <time>2021-05-20T08:26:48.000Z</time>
      </trkpt>
      <trkpt lat="48.69078" lon="2.02702">
        <ele>162</ele>
        <time>2021-05-20T08:26:49.000Z</time>
      </trkpt>
      <trkpt lat="48.69078" lon="2.02702">
        <ele>162</ele>
        <time>2021-05-20T08:26:50.000Z</time>
      </trkpt>
      <trkpt lat="48.69077" lon="2.02703">
        <ele>162</ele>
        <time>2021-05-20T08:26:51.000Z</time>
      </trkpt>
      <trkpt lat="48.69077" lon="2.02704">
        <ele>162</ele>
        <time>2021-05-20T08:26:52.000Z</time>
      </trkpt>
      <trkpt lat="48.69076" lon="2.02705">
        <ele>162</ele>
        <time>2021-05-20T08:26:53.000Z</time>
      </trkpt>
      <trkpt lat="48.69075" lon="2.02705">
        <ele>162</ele>
        <time>2021-05-20T08:26:54.000Z</time>
      </trkpt>
      <trkpt lat="48.69074" lon="2.02706">
        <ele>162</ele>
        <time>2021-05-20T08:26:55.000Z</time>
      </trkpt>
      <trkpt lat="48.69074" lon="2.02707">
        <ele>162</ele>
        <time>2021-05-20T08:26:56.000Z</time>
      </trkpt>
      <trkpt lat="48.69073" lon="2.02708">
        <ele>162</ele>
        <time>2021-05-20T08:26:57.000Z</time>
      </trkpt>
      <trkpt lat="48.69073" lon="2.02708">
        <ele>162</ele>
        <time>2021-05-20T08:26:58.000Z</time>
      </trkpt>
      <trkpt lat="48.69073" lon="2.02709">
        <ele>162</ele>
        <time>2021-05-20T08:26:59.000Z</time>
      </trkpt>
      <trkpt lat="48.69072" lon="2.02709">
        <ele>162</ele>
        <time>2021-05-20T08:27:00.000Z</time>
      </trkpt>
      <trkpt lat="48.69071" lon="2.0271">
        <ele>162</ele>
        <time>2021-05-20T08:27:01.000Z</time>
      </trkpt>
      <trkpt lat="48.69071" lon="2.02711">
        <ele>162</ele>
        <time>2021-05-20T08:27:02.000Z</time>
      </trkpt>
      <trkpt lat="48.6907" lon="2.02712">
        <ele>163</ele>
        <time>2021-05-20T08:27:03.000Z</time>
      </trkpt>
      <trkpt lat="48.69069" lon="2.02713">
        <ele>163</ele>
        <time>2021-05-20T08:27:04.000Z</time>
      </trkpt>
      <trkpt lat="48.69069" lon="2.02714">
        <ele>163</ele>
        <time>2021-05-20T08:27:05.000Z</time>
      </trkpt>
      <trkpt lat="48.69068" lon="2.02715">
        <ele>163</ele>
        <time>2021-05-20T08:27:06.000Z</time>
      </trkpt>
      <trkpt lat="48.69068" lon="2.02715">
        <ele>163</ele>
        <time>2021-05-20T08:27:07.000Z</time>
      </trkpt>
      <trkpt lat="48.69067" lon="2.02717">
        <ele>163</ele>
        <time>2021-05-20T08:27:08.000Z</time>
      </trkpt>
      <trkpt lat="48.69066" lon="2.02718">
        <ele>163</ele>
        <time>2021-05-20T08:27:09.000Z</time>
      </trkpt>
      <trkpt lat="48.69066" lon="2.02719">
        <ele>163</ele>
        <time>2021-05-20T08:27:10.000Z</time>
      </trkpt>
      <trkpt lat="48.69064" lon="2.0272">
        <ele>163</ele>
        <time>2021-05-20T08:27:11.000Z</time>
      </trkpt>
      <trkpt lat="48.69063" lon="2.02721">
        <ele>164</ele>
        <time>2021-05-20T08:27:12.000Z</time>
      </trkpt>
      <trkpt lat="48.69062" lon="2.02723">
        <ele>164</ele>
        <time>2021-05-20T08:27:13.000Z</time>
      </trkpt>
      <trkpt lat="48.69061" lon="2.02724">
        <ele>164</ele>
        <time>2021-05-20T08:27:14.000Z</time>
      </trkpt>
      <trkpt lat="48.6906" lon="2.02725">
        <ele>164</ele>
        <time>2021-05-20T08:27:15.000Z</time>
      </trkpt>
      <trkpt lat="48.69059" lon="2.02727">
        <ele>164</ele>
        <time>2021-05-20T08:27:16.000Z</time>
      </trkpt>
      <trkpt lat="48.69058" lon="2.02728">
        <ele>164</ele>
        <time>2021-05-20T08:27:17.000Z</time>
      </trkpt>
      <trkpt lat="48.69057" lon="2.02728">
        <ele>164</ele>
        <time>2021-05-20T08:27:18.000Z</time>
      </trkpt>
      <trkpt lat="48.69056" lon="2.02729">
        <ele>164</ele>
        <time>2021-05-20T08:27:19.000Z</time>
      </trkpt>
      <trkpt lat="48.69055" lon="2.0273">
        <ele>164</ele>
        <time>2021-05-20T08:27:20.000Z</time>
      </trkpt>
      <trkpt lat="48.69055" lon="2.02731">
        <ele>164</ele>
        <time>2021-05-20T08:27:21.000Z</time>
      </trkpt>
      <trkpt lat="48.69054" lon="2.02732">
        <ele>164</ele>
        <time>2021-05-20T08:27:22.000Z</time>
      </trkpt>
      <trkpt lat="48.69053" lon="2.02733">
        <ele>164</ele>
        <time>2021-05-20T08:27:23.000Z</time>
      </trkpt>
      <trkpt lat="48.69051" lon="2.02734">
        <ele>164</ele>
        <time>2021-05-20T08:27:24.000Z</time>
      </trkpt>
      <trkpt lat="48.6905" lon="2.02735">
        <ele>164</ele>
        <time>2021-05-20T08:27:25.000Z</time>
      </trkpt>
      <trkpt lat="48.69049" lon="2.02736">
        <ele>164</ele>
        <time>2021-05-20T08:27:26.000Z</time>
      </trkpt>
      <trkpt lat="48.69048" lon="2.02737">
        <ele>164</ele>
        <time>2021-05-20T08:27:27.000Z</time>
      </trkpt>
      <trkpt lat="48.69047" lon="2.02738">
        <ele>164</ele>
        <time>2021-05-20T08:27:28.000Z</time>
      </trkpt>
      <trkpt lat="48.69046" lon="2.02739">
        <ele>165</ele>
        <time>2021-05-20T08:27:29.000Z</time>
      </trkpt>
      <trkpt lat="48.69045" lon="2.0274">
        <ele>165</ele>
        <time>2021-05-20T08:27:30.000Z</time>
      </trkpt>
      <trkpt lat="48.69044" lon="2.02741">
        <ele>165</ele>
        <time>2021-05-20T08:27:31.000Z</time>
      </trkpt>
      <trkpt lat="48.69043" lon="2.02742">
        <ele>165</ele>
        <time>2021-05-20T08:27:32.000Z</time>
      </trkpt>
      <trkpt lat="48.69042" lon="2.02743">
        <ele>165</ele>
        <time>2021-05-20T08:27:33.000Z</time>
      </trkpt>
      <trkpt lat="48.69041" lon="2.02744">
        <ele>165</ele>
        <time>2021-05-20T08:27:34.000Z</time>
      </trkpt>
      <trkpt lat="48.6904" lon="2.02744">
        <ele>164</ele>
        <time>2021-05-20T08:27:35.000Z</time>
      </trkpt>
      <trkpt lat="48.69039" lon="2.02745">
        <ele>164</ele>
        <time>2021-05-20T08:27:36.000Z</time>
      </trkpt>
      <trkpt lat="48.69038" lon="2.02746">
        <ele>164</ele>
        <time>2021-05-20T08:27:37.000Z</time>
      </trkpt>
      <trkpt lat="48.69037" lon="2.02747">
        <ele>164</ele>
        <time>2021-05-20T08:27:38.000Z</time>
      </trkpt>
      <trkpt lat="48.69036" lon="2.02748">
        <ele>164</ele>
        <time>2021-05-20T08:27:39.000Z</time>
      </trkpt>
      <trkpt lat="48.69035" lon="2.02749">
        <ele>164</ele>
        <time>2021-05-20T08:27:40.000Z</time>
      </trkpt>
      <trkpt lat="48.69035" lon="2.02749">
        <ele>164</ele>
        <time>2021-05-20T08:27:41.000Z</time>
      </trkpt>
      <trkpt lat="48.69034" lon="2.02749">
        <ele>164</ele>
        <time>2021-05-20T08:27:42.000Z</time>
      </trkpt>
      <trkpt lat="48.69034" lon="2.02749">
        <ele>164</ele>
        <time>2021-05-20T08:27:43.000Z</time>
      </trkpt>
      <trkpt lat="48.69033" lon="2.0275">
        <ele>164</ele>
        <time>2021-05-20T08:27:44.000Z</time>
      </trkpt>
      <trkpt lat="48.69032" lon="2.0275">
        <ele>164</ele>
        <time>2021-05-20T08:27:45.000Z</time>
      </trkpt>
      <trkpt lat="48.69032" lon="2.02751">
        <ele>164</ele>
        <time>2021-05-20T08:27:46.000Z</time>
      </trkpt>
      <trkpt lat="48.69029" lon="2.02752">
        <ele>164</ele>
        <time>2021-05-20T08:27:47.000Z</time>
      </trkpt>
      <trkpt lat="48.69029" lon="2.02752">
        <ele>164</ele>
        <time>2021-05-20T08:27:48.000Z</time>
      </trkpt>
      <trkpt lat="48.69028" lon="2.02752">
        <ele>163</ele>
        <time>2021-05-20T08:27:49.000Z</time>
      </trkpt>
      <trkpt lat="48.69028" lon="2.02752">
        <ele>163</ele>
        <time>2021-05-20T08:27:50.000Z</time>
      </trkpt>
      <trkpt lat="48.69027" lon="2.02752">
        <ele>163</ele>
        <time>2021-05-20T08:27:51.000Z</time>
      </trkpt>
      <trkpt lat="48.69026" lon="2.0275">
        <ele>164</ele>
        <time>2021-05-20T08:27:52.000Z</time>
      </trkpt>
      <trkpt lat="48.69026" lon="2.02749">
        <ele>164</ele>
        <time>2021-05-20T08:27:53.000Z</time>
      </trkpt>
      <trkpt lat="48.69026" lon="2.02749">
        <ele>164</ele>
        <time>2021-05-20T08:27:54.000Z</time>
      </trkpt>
      <trkpt lat="48.69023" lon="2.02748">
        <ele>164</ele>
        <time>2021-05-20T08:27:55.000Z</time>
      </trkpt>
      <trkpt lat="48.69022" lon="2.02748">
        <ele>164</ele>
        <time>2021-05-20T08:27:56.000Z</time>
      </trkpt>
      <trkpt lat="48.69022" lon="2.02747">
        <ele>164</ele>
        <time>2021-05-20T08:27:57.000Z</time>
      </trkpt>
      <trkpt lat="48.69021" lon="2.02746">
        <ele>164</ele>
        <time>2021-05-20T08:27:58.000Z</time>
      </trkpt>
      <trkpt lat="48.6902" lon="2.02744">
        <ele>164</ele>
        <time>2021-05-20T08:27:59.000Z</time>
      </trkpt>
      <trkpt lat="48.69019" lon="2.02743">
        <ele>164</ele>
        <time>2021-05-20T08:28:00.000Z</time>
      </trkpt>
      <trkpt lat="48.69018" lon="2.02742">
        <ele>164</ele>
        <time>2021-05-20T08:28:01.000Z</time>
      </trkpt>
      <trkpt lat="48.69017" lon="2.0274">
        <ele>164</ele>
        <time>2021-05-20T08:28:02.000Z</time>
      </trkpt>
      <trkpt lat="48.69016" lon="2.02739">
        <ele>163</ele>
        <time>2021-05-20T08:28:03.000Z</time>
      </trkpt>
      <trkpt lat="48.69016" lon="2.02738">
        <ele>163</ele>
        <time>2021-05-20T08:28:04.000Z</time>
      </trkpt>
      <trkpt lat="48.69015" lon="2.02736">
        <ele>163</ele>
        <time>2021-05-20T08:28:05.000Z</time>
      </trkpt>
      <trkpt lat="48.69014" lon="2.02734">
        <ele>163</ele>
        <time>2021-05-20T08:28:06.000Z</time>
      </trkpt>
      <trkpt lat="48.69013" lon="2.02733">
        <ele>163</ele>
        <time>2021-05-20T08:28:07.000Z</time>
      </trkpt>
      <trkpt lat="48.69012" lon="2.02731">
        <ele>163</ele>
        <time>2021-05-20T08:28:08.000Z</time>
      </trkpt>
      <trkpt lat="48.69012" lon="2.0273">
        <ele>163</ele>
        <time>2021-05-20T08:28:09.000Z</time>
      </trkpt>
      <trkpt lat="48.69011" lon="2.02728">
        <ele>163</ele>
        <time>2021-05-20T08:28:10.000Z</time>
      </trkpt>
      <trkpt lat="48.6901" lon="2.02727">
        <ele>163</ele>
        <time>2021-05-20T08:28:11.000Z</time>
      </trkpt>
      <trkpt lat="48.6901" lon="2.02725">
        <ele>163</ele>
        <time>2021-05-20T08:28:12.000Z</time>
      </trkpt>
      <trkpt lat="48.69009" lon="2.02723">
        <ele>163</ele>
        <time>2021-05-20T08:28:13.000Z</time>
      </trkpt>
      <trkpt lat="48.69009" lon="2.02721">
        <ele>163</ele>
        <time>2021-05-20T08:28:14.000Z</time>
      </trkpt>
      <trkpt lat="48.69008" lon="2.02718">
        <ele>162</ele>
        <time>2021-05-20T08:28:15.000Z</time>
      </trkpt>
      <trkpt lat="48.69007" lon="2.02716">
        <ele>162</ele>
        <time>2021-05-20T08:28:16.000Z</time>
      </trkpt>
      <trkpt lat="48.69007" lon="2.02713">
        <ele>162</ele>
        <time>2021-05-20T08:28:17.000Z</time>
      </trkpt>
      <trkpt lat="48.69006" lon="2.02711">
        <ele>162</ele>
        <time>2021-05-20T08:28:18.000Z</time>
      </trkpt>
      <trkpt lat="48.69005" lon="2.02708">
        <ele>162</ele>
        <time>2021-05-20T08:28:19.000Z</time>
      </trkpt>
      <trkpt lat="48.69005" lon="2.02706">
        <ele>161</ele>
        <time>2021-05-20T08:28:20.000Z</time>
      </trkpt>
      <trkpt lat="48.69004" lon="2.02703">
        <ele>161</ele>
        <time>2021-05-20T08:28:21.000Z</time>
      </trkpt>
      <trkpt lat="48.69004" lon="2.02701">
        <ele>161</ele>
        <time>2021-05-20T08:28:22.000Z</time>
      </trkpt>
      <trkpt lat="48.69004" lon="2.02699">
        <ele>161</ele>
        <time>2021-05-20T08:28:23.000Z</time>
      </trkpt>
      <trkpt lat="48.69004" lon="2.02698">
        <ele>161</ele>
        <time>2021-05-20T08:28:24.000Z</time>
      </trkpt>
      <trkpt lat="48.69004" lon="2.02697">
        <ele>161</ele>
        <time>2021-05-20T08:28:25.000Z</time>
      </trkpt>
      <trkpt lat="48.69004" lon="2.02696">
        <ele>161</ele>
        <time>2021-05-20T08:28:26.000Z</time>
      </trkpt>
      <trkpt lat="48.69004" lon="2.02695">
        <ele>161</ele>
        <time>2021-05-20T08:28:27.000Z</time>
      </trkpt>
      <trkpt lat="48.69004" lon="2.02695">
        <ele>161</ele>
        <time>2021-05-20T08:28:28.000Z</time>
      </trkpt>
      <trkpt lat="48.69004" lon="2.02695">
        <ele>161</ele>
        <time>2021-05-20T08:28:29.000Z</time>
      </trkpt>
      <trkpt lat="48.69003" lon="2.02693">
        <ele>160</ele>
        <time>2021-05-20T08:28:30.000Z</time>
      </trkpt>
      <trkpt lat="48.69003" lon="2.02694">
        <ele>160</ele>
        <time>2021-05-20T08:28:31.000Z</time>
      </trkpt>
      <trkpt lat="48.69003" lon="2.02696">
        <ele>161</ele>
        <time>2021-05-20T08:28:32.000Z</time>
      </trkpt>
      <trkpt lat="48.69003" lon="2.02698">
        <ele>161</ele>
        <time>2021-05-20T08:28:33.000Z</time>
      </trkpt>
      <trkpt lat="48.69004" lon="2.027">
        <ele>161</ele>
        <time>2021-05-20T08:28:34.000Z</time>
      </trkpt>
      <trkpt lat="48.69004" lon="2.02702">
        <ele>161</ele>
        <time>2021-05-20T08:28:35.000Z</time>
      </trkpt>
      <trkpt lat="48.69005" lon="2.02703">
        <ele>161</ele>
        <time>2021-05-20T08:28:36.000Z</time>
      </trkpt>
      <trkpt lat="48.69005" lon="2.02705">
        <ele>161</ele>
        <time>2021-05-20T08:28:37.000Z</time>
      </trkpt>
      <trkpt lat="48.69006" lon="2.02706">
        <ele>161</ele>
        <time>2021-05-20T08:28:38.000Z</time>
      </trkpt>
      <trkpt lat="48.69006" lon="2.02707">
        <ele>161</ele>
        <time>2021-05-20T08:28:39.000Z</time>
      </trkpt>
      <trkpt lat="48.69007" lon="2.02709">
        <ele>161</ele>
        <time>2021-05-20T08:28:40.000Z</time>
      </trkpt>
      <trkpt lat="48.69007" lon="2.0271">
        <ele>161</ele>
        <time>2021-05-20T08:28:41.000Z</time>
      </trkpt>
      <trkpt lat="48.69008" lon="2.02712">
        <ele>161</ele>
        <time>2021-05-20T08:28:42.000Z</time>
      </trkpt>
      <trkpt lat="48.69008" lon="2.02713">
        <ele>161</ele>
        <time>2021-05-20T08:28:43.000Z</time>
      </trkpt>
      <trkpt lat="48.69009" lon="2.02715">
        <ele>161</ele>
        <time>2021-05-20T08:28:44.000Z</time>
      </trkpt>
      <trkpt lat="48.69009" lon="2.02717">
        <ele>161</ele>
        <time>2021-05-20T08:28:45.000Z</time>
      </trkpt>
      <trkpt lat="48.6901" lon="2.02718">
        <ele>161</ele>
        <time>2021-05-20T08:28:46.000Z</time>
      </trkpt>
      <trkpt lat="48.6901" lon="2.0272">
        <ele>161</ele>
        <time>2021-05-20T08:28:47.000Z</time>
      </trkpt>
      <trkpt lat="48.69011" lon="2.02722">
        <ele>161</ele>
        <time>2021-05-20T08:28:48.000Z</time>
      </trkpt>
      <trkpt lat="48.69011" lon="2.02724">
        <ele>161</ele>
        <time>2021-05-20T08:28:49.000Z</time>
      </trkpt>
      <trkpt lat="48.69012" lon="2.02725">
        <ele>161</ele>
        <time>2021-05-20T08:28:50.000Z</time>
      </trkpt>
      <trkpt lat="48.69013" lon="2.02727">
        <ele>161</ele>
        <time>2021-05-20T08:28:51.000Z</time>
      </trkpt>
      <trkpt lat="48.69013" lon="2.02728">
        <ele>161</ele>
        <time>2021-05-20T08:28:52.000Z</time>
      </trkpt>
      <trkpt lat="48.69014" lon="2.0273">
        <ele>161</ele>
        <time>2021-05-20T08:28:53.000Z</time>
      </trkpt>
      <trkpt lat="48.69015" lon="2.02732">
        <ele>161</ele>
        <time>2021-05-20T08:28:54.000Z</time>
      </trkpt>
      <trkpt lat="48.69015" lon="2.02734">
        <ele>161</ele>
        <time>2021-05-20T08:28:55.000Z</time>
      </trkpt>
      <trkpt lat="48.69016" lon="2.02736">
        <ele>161</ele>
        <time>2021-05-20T08:28:56.000Z</time>
      </trkpt>
      <trkpt lat="48.69016" lon="2.02737">
        <ele>161</ele>
        <time>2021-05-20T08:28:57.000Z</time>
      </trkpt>
      <trkpt lat="48.69017" lon="2.02739">
        <ele>161</ele>
        <time>2021-05-20T08:28:58.000Z</time>
      </trkpt>
      <trkpt lat="48.69017" lon="2.02741">
        <ele>161</ele>
        <time>2021-05-20T08:28:59.000Z</time>
      </trkpt>
      <trkpt lat="48.69018" lon="2.02742">
        <ele>161</ele>
        <time>2021-05-20T08:29:00.000Z</time>
      </trkpt>
      <trkpt lat="48.69019" lon="2.02744">
        <ele>161</ele>
        <time>2021-05-20T08:29:01.000Z</time>
      </trkpt>
      <trkpt lat="48.69019" lon="2.02746">
        <ele>161</ele>
        <time>2021-05-20T08:29:02.000Z</time>
      </trkpt>
      <trkpt lat="48.6902" lon="2.02747">
        <ele>161</ele>
        <time>2021-05-20T08:29:03.000Z</time>
      </trkpt>
      <trkpt lat="48.6902" lon="2.02747">
        <ele>161</ele>
        <time>2021-05-20T08:29:04.000Z</time>
      </trkpt>
      <trkpt lat="48.6902" lon="2.02748">
        <ele>161</ele>
        <time>2021-05-20T08:29:05.000Z</time>
      </trkpt>
      <trkpt lat="48.69021" lon="2.02748">
        <ele>161</ele>
        <time>2021-05-20T08:29:06.000Z</time>
      </trkpt>
      <trkpt lat="48.6902" lon="2.02735">
        <ele>165</ele>
        <time>2021-05-20T08:29:07.000Z</time>
      </trkpt>
      <trkpt lat="48.6902" lon="2.02735">
        <ele>165</ele>
        <time>2021-05-20T08:29:08.000Z</time>
      </trkpt>
      <trkpt lat="48.69013" lon="2.02737">
        <ele>160</ele>
        <time>2021-05-20T08:29:09.000Z</time>
      </trkpt>
      <trkpt lat="48.69013" lon="2.02737">
        <ele>160</ele>
        <time>2021-05-20T08:29:10.000Z</time>
      </trkpt>
      <trkpt lat="48.69013" lon="2.02738">
        <ele>160</ele>
        <time>2021-05-20T08:29:11.000Z</time>
      </trkpt>
      <trkpt lat="48.69014" lon="2.02738">
        <ele>160</ele>
        <time>2021-05-20T08:29:12.000Z</time>
      </trkpt>
      <trkpt lat="48.69017" lon="2.02742">
        <ele>160</ele>
        <time>2021-05-20T08:29:13.000Z</time>
      </trkpt>
      <trkpt lat="48.69017" lon="2.02743">
        <ele>160</ele>
        <time>2021-05-20T08:29:14.000Z</time>
      </trkpt>
      <trkpt lat="48.69019" lon="2.02754">
        <ele>159</ele>
        <time>2021-05-20T08:29:15.000Z</time>
      </trkpt>
      <trkpt lat="48.69019" lon="2.02755">
        <ele>159</ele>
        <time>2021-05-20T08:29:16.000Z</time>
      </trkpt>
      <trkpt lat="48.69019" lon="2.02755">
        <ele>159</ele>
        <time>2021-05-20T08:29:17.000Z</time>
      </trkpt>
      <trkpt lat="48.69018" lon="2.02756">
        <ele>159</ele>
        <time>2021-05-20T08:29:18.000Z</time>
      </trkpt>
      <trkpt lat="48.69018" lon="2.02757">
        <ele>159</ele>
        <time>2021-05-20T08:29:19.000Z</time>
      </trkpt>
      <trkpt lat="48.69017" lon="2.02757">
        <ele>159</ele>
        <time>2021-05-20T08:29:20.000Z</time>
      </trkpt>
      <trkpt lat="48.69017" lon="2.02757">
        <ele>159</ele>
        <time>2021-05-20T08:29:21.000Z</time>
      </trkpt>
      <trkpt lat="48.69016" lon="2.02758">
        <ele>159</ele>
        <time>2021-05-20T08:29:22.000Z</time>
      </trkpt>
      <trkpt lat="48.69016" lon="2.02758">
        <ele>159</ele>
        <time>2021-05-20T08:29:23.000Z</time>
      </trkpt>
      <trkpt lat="48.69015" lon="2.02758">
        <ele>159</ele>
        <time>2021-05-20T08:29:24.000Z</time>
      </trkpt>
      <trkpt lat="48.69014" lon="2.02759">
        <ele>159</ele>
        <time>2021-05-20T08:29:25.000Z</time>
      </trkpt>
      <trkpt lat="48.69014" lon="2.0276">
        <ele>159</ele>
        <time>2021-05-20T08:29:26.000Z</time>
      </trkpt>
      <trkpt lat="48.69013" lon="2.02761">
        <ele>159</ele>
        <time>2021-05-20T08:29:27.000Z</time>
      </trkpt>
      <trkpt lat="48.69012" lon="2.02761">
        <ele>159</ele>
        <time>2021-05-20T08:29:28.000Z</time>
      </trkpt>
      <trkpt lat="48.69012" lon="2.02762">
        <ele>159</ele>
        <time>2021-05-20T08:29:29.000Z</time>
      </trkpt>
      <trkpt lat="48.69012" lon="2.02762">
        <ele>159</ele>
        <time>2021-05-20T08:29:30.000Z</time>
      </trkpt>
      <trkpt lat="48.69011" lon="2.02762">
        <ele>159</ele>
        <time>2021-05-20T08:29:31.000Z</time>
      </trkpt>
      <trkpt lat="48.69011" lon="2.02763">
        <ele>159</ele>
        <time>2021-05-20T08:29:32.000Z</time>
      </trkpt>
      <trkpt lat="48.6901" lon="2.02763">
        <ele>159</ele>
        <time>2021-05-20T08:29:33.000Z</time>
      </trkpt>
      <trkpt lat="48.69009" lon="2.02764">
        <ele>159</ele>
        <time>2021-05-20T08:29:34.000Z</time>
      </trkpt>
      <trkpt lat="48.69008" lon="2.02764">
        <ele>159</ele>
        <time>2021-05-20T08:29:35.000Z</time>
      </trkpt>
      <trkpt lat="48.69007" lon="2.02765">
        <ele>159</ele>
        <time>2021-05-20T08:29:36.000Z</time>
      </trkpt>
      <trkpt lat="48.69007" lon="2.02766">
        <ele>159</ele>
        <time>2021-05-20T08:29:37.000Z</time>
      </trkpt>
      <trkpt lat="48.69006" lon="2.02766">
        <ele>159</ele>
        <time>2021-05-20T08:29:38.000Z</time>
      </trkpt>
      <trkpt lat="48.69005" lon="2.02767">
        <ele>159</ele>
        <time>2021-05-20T08:29:39.000Z</time>
      </trkpt>
      <trkpt lat="48.69004" lon="2.02768">
        <ele>159</ele>
        <time>2021-05-20T08:29:40.000Z</time>
      </trkpt>
      <trkpt lat="48.69004" lon="2.02768">
        <ele>159</ele>
        <time>2021-05-20T08:29:41.000Z</time>
      </trkpt>
      <trkpt lat="48.69003" lon="2.02768">
        <ele>159</ele>
        <time>2021-05-20T08:29:42.000Z</time>
      </trkpt>
      <trkpt lat="48.69002" lon="2.02769">
        <ele>159</ele>
        <time>2021-05-20T08:29:43.000Z</time>
      </trkpt>
      <trkpt lat="48.69002" lon="2.02769">
        <ele>159</ele>
        <time>2021-05-20T08:29:44.000Z</time>
      </trkpt>
      <trkpt lat="48.69001" lon="2.02769">
        <ele>159</ele>
        <time>2021-05-20T08:29:45.000Z</time>
      </trkpt>
      <trkpt lat="48.69" lon="2.0277">
        <ele>159</ele>
        <time>2021-05-20T08:29:46.000Z</time>
      </trkpt>
      <trkpt lat="48.68999" lon="2.02771">
        <ele>159</ele>
        <time>2021-05-20T08:29:47.000Z</time>
      </trkpt>
      <trkpt lat="48.68998" lon="2.02771">
        <ele>159</ele>
        <time>2021-05-20T08:29:48.000Z</time>
      </trkpt>
      <trkpt lat="48.68997" lon="2.02772">
        <ele>159</ele>
        <time>2021-05-20T08:29:49.000Z</time>
      </trkpt>
      <trkpt lat="48.68996" lon="2.02772">
        <ele>159</ele>
        <time>2021-05-20T08:29:50.000Z</time>
      </trkpt>
      <trkpt lat="48.68995" lon="2.02773">
        <ele>159</ele>
        <time>2021-05-20T08:29:51.000Z</time>
      </trkpt>
      <trkpt lat="48.68994" lon="2.02774">
        <ele>159</ele>
        <time>2021-05-20T08:29:52.000Z</time>
      </trkpt>
      <trkpt lat="48.68993" lon="2.02775">
        <ele>159</ele>
        <time>2021-05-20T08:29:53.000Z</time>
      </trkpt>
      <trkpt lat="48.68993" lon="2.02775">
        <ele>159</ele>
        <time>2021-05-20T08:29:54.000Z</time>
      </trkpt>
      <trkpt lat="48.68992" lon="2.02776">
        <ele>159</ele>
        <time>2021-05-20T08:29:55.000Z</time>
      </trkpt>
      <trkpt lat="48.68991" lon="2.02776">
        <ele>159</ele>
        <time>2021-05-20T08:29:56.000Z</time>
      </trkpt>
      <trkpt lat="48.6899" lon="2.02777">
        <ele>159</ele>
        <time>2021-05-20T08:29:57.000Z</time>
      </trkpt>
      <trkpt lat="48.68989" lon="2.02778">
        <ele>159</ele>
        <time>2021-05-20T08:29:58.000Z</time>
      </trkpt>
      <trkpt lat="48.68988" lon="2.02778">
        <ele>159</ele>
        <time>2021-05-20T08:29:59.000Z</time>
      </trkpt>
      <trkpt lat="48.68987" lon="2.02779">
        <ele>159</ele>
        <time>2021-05-20T08:30:00.000Z</time>
      </trkpt>
      <trkpt lat="48.68986" lon="2.02779">
        <ele>159</ele>
        <time>2021-05-20T08:30:01.000Z</time>
      </trkpt>
      <trkpt lat="48.68985" lon="2.0278">
        <ele>159</ele>
        <time>2021-05-20T08:30:02.000Z</time>
      </trkpt>
      <trkpt lat="48.68983" lon="2.0278">
        <ele>159</ele>
        <time>2021-05-20T08:30:03.000Z</time>
      </trkpt>
      <trkpt lat="48.68982" lon="2.02781">
        <ele>160</ele>
        <time>2021-05-20T08:30:04.000Z</time>
      </trkpt>
      <trkpt lat="48.68981" lon="2.02782">
        <ele>160</ele>
        <time>2021-05-20T08:30:05.000Z</time>
      </trkpt>
      <trkpt lat="48.6898" lon="2.02782">
        <ele>160</ele>
        <time>2021-05-20T08:30:06.000Z</time>
      </trkpt>
      <trkpt lat="48.68979" lon="2.02782">
        <ele>160</ele>
        <time>2021-05-20T08:30:07.000Z</time>
      </trkpt>
      <trkpt lat="48.68977" lon="2.02783">
        <ele>160</ele>
        <time>2021-05-20T08:30:08.000Z</time>
      </trkpt>
      <trkpt lat="48.68976" lon="2.02783">
        <ele>160</ele>
        <time>2021-05-20T08:30:09.000Z</time>
      </trkpt>
      <trkpt lat="48.68975" lon="2.02784">
        <ele>160</ele>
        <time>2021-05-20T08:30:10.000Z</time>
      </trkpt>
      <trkpt lat="48.68974" lon="2.02784">
        <ele>160</ele>
        <time>2021-05-20T08:30:11.000Z</time>
      </trkpt>
      <trkpt lat="48.68974" lon="2.02784">
        <ele>161</ele>
        <time>2021-05-20T08:30:12.000Z</time>
      </trkpt>
      <trkpt lat="48.68973" lon="2.02784">
        <ele>161</ele>
        <time>2021-05-20T08:30:13.000Z</time>
      </trkpt>
      <trkpt lat="48.68971" lon="2.02785">
        <ele>161</ele>
        <time>2021-05-20T08:30:14.000Z</time>
      </trkpt>
      <trkpt lat="48.6897" lon="2.02785">
        <ele>161</ele>
        <time>2021-05-20T08:30:15.000Z</time>
      </trkpt>
      <trkpt lat="48.68969" lon="2.02786">
        <ele>161</ele>
        <time>2021-05-20T08:30:16.000Z</time>
      </trkpt>
      <trkpt lat="48.68968" lon="2.02786">
        <ele>161</ele>
        <time>2021-05-20T08:30:17.000Z</time>
      </trkpt>
      <trkpt lat="48.68967" lon="2.02786">
        <ele>162</ele>
        <time>2021-05-20T08:30:18.000Z</time>
      </trkpt>
      <trkpt lat="48.68966" lon="2.02787">
        <ele>162</ele>
        <time>2021-05-20T08:30:19.000Z</time>
      </trkpt>
      <trkpt lat="48.68965" lon="2.02787">
        <ele>162</ele>
        <time>2021-05-20T08:30:20.000Z</time>
      </trkpt>
      <trkpt lat="48.68964" lon="2.02788">
        <ele>162</ele>
        <time>2021-05-20T08:30:21.000Z</time>
      </trkpt>
      <trkpt lat="48.68963" lon="2.02788">
        <ele>163</ele>
        <time>2021-05-20T08:30:22.000Z</time>
      </trkpt>
      <trkpt lat="48.68962" lon="2.02788">
        <ele>163</ele>
        <time>2021-05-20T08:30:23.000Z</time>
      </trkpt>
      <trkpt lat="48.68961" lon="2.02788">
        <ele>163</ele>
        <time>2021-05-20T08:30:24.000Z</time>
      </trkpt>
      <trkpt lat="48.6896" lon="2.02788">
        <ele>163</ele>
        <time>2021-05-20T08:30:25.000Z</time>
      </trkpt>
      <trkpt lat="48.6896" lon="2.02789">
        <ele>163</ele>
        <time>2021-05-20T08:30:26.000Z</time>
      </trkpt>
      <trkpt lat="48.68959" lon="2.02789">
        <ele>163</ele>
        <time>2021-05-20T08:30:27.000Z</time>
      </trkpt>
      <trkpt lat="48.68959" lon="2.02789">
        <ele>163</ele>
        <time>2021-05-20T08:30:28.000Z</time>
      </trkpt>
      <trkpt lat="48.68958" lon="2.02789">
        <ele>164</ele>
        <time>2021-05-20T08:30:29.000Z</time>
      </trkpt>
      <trkpt lat="48.68956" lon="2.02789">
        <ele>164</ele>
        <time>2021-05-20T08:30:30.000Z</time>
      </trkpt>
      <trkpt lat="48.68956" lon="2.02789">
        <ele>164</ele>
        <time>2021-05-20T08:30:31.000Z</time>
      </trkpt>
      <trkpt lat="48.68955" lon="2.0279">
        <ele>165</ele>
        <time>2021-05-20T08:30:32.000Z</time>
      </trkpt>
      <trkpt lat="48.68954" lon="2.0279">
        <ele>165</ele>
        <time>2021-05-20T08:30:33.000Z</time>
      </trkpt>
      <trkpt lat="48.68953" lon="2.02791">
        <ele>165</ele>
        <time>2021-05-20T08:30:34.000Z</time>
      </trkpt>
      <trkpt lat="48.68952" lon="2.02791">
        <ele>165</ele>
        <time>2021-05-20T08:30:35.000Z</time>
      </trkpt>
      <trkpt lat="48.68951" lon="2.02792">
        <ele>165</ele>
        <time>2021-05-20T08:30:36.000Z</time>
      </trkpt>
      <trkpt lat="48.6895" lon="2.02792">
        <ele>165</ele>
        <time>2021-05-20T08:30:37.000Z</time>
      </trkpt>
      <trkpt lat="48.68949" lon="2.02792">
        <ele>165</ele>
        <time>2021-05-20T08:30:38.000Z</time>
      </trkpt>
      <trkpt lat="48.68948" lon="2.02792">
        <ele>165</ele>
        <time>2021-05-20T08:30:39.000Z</time>
      </trkpt>
      <trkpt lat="48.68947" lon="2.02793">
        <ele>166</ele>
        <time>2021-05-20T08:30:40.000Z</time>
      </trkpt>
      <trkpt lat="48.68947" lon="2.02793">
        <ele>166</ele>
        <time>2021-05-20T08:30:41.000Z</time>
      </trkpt>
      <trkpt lat="48.68946" lon="2.02793">
        <ele>166</ele>
        <time>2021-05-20T08:30:42.000Z</time>
      </trkpt>
      <trkpt lat="48.68945" lon="2.02793">
        <ele>166</ele>
        <time>2021-05-20T08:30:43.000Z</time>
      </trkpt>
      <trkpt lat="48.68944" lon="2.02794">
        <ele>166</ele>
        <time>2021-05-20T08:30:44.000Z</time>
      </trkpt>
      <trkpt lat="48.68943" lon="2.02794">
        <ele>166</ele>
        <time>2021-05-20T08:30:45.000Z</time>
      </trkpt>
      <trkpt lat="48.68942" lon="2.02794">
        <ele>166</ele>
        <time>2021-05-20T08:30:46.000Z</time>
      </trkpt>
      <trkpt lat="48.68941" lon="2.02795">
        <ele>166</ele>
        <time>2021-05-20T08:30:47.000Z</time>
      </trkpt>
      <trkpt lat="48.68939" lon="2.02796">
        <ele>167</ele>
        <time>2021-05-20T08:30:48.000Z</time>
      </trkpt>
      <trkpt lat="48.68938" lon="2.02796">
        <ele>167</ele>
        <time>2021-05-20T08:30:49.000Z</time>
      </trkpt>
      <trkpt lat="48.68937" lon="2.02796">
        <ele>167</ele>
        <time>2021-05-20T08:30:50.000Z</time>
      </trkpt>
      <trkpt lat="48.68936" lon="2.02796">
        <ele>167</ele>
        <time>2021-05-20T08:30:51.000Z</time>
      </trkpt>
      <trkpt lat="48.68934" lon="2.02797">
        <ele>167</ele>
        <time>2021-05-20T08:30:52.000Z</time>
      </trkpt>
      <trkpt lat="48.68933" lon="2.02797">
        <ele>167</ele>
        <time>2021-05-20T08:30:53.000Z</time>
      </trkpt>
      <trkpt lat="48.68932" lon="2.02797">
        <ele>168</ele>
        <time>2021-05-20T08:30:54.000Z</time>
      </trkpt>
      <trkpt lat="48.68931" lon="2.02798">
        <ele>168</ele>
        <time>2021-05-20T08:30:55.000Z</time>
      </trkpt>
      <trkpt lat="48.68929" lon="2.02797">
        <ele>168</ele>
        <time>2021-05-20T08:30:56.000Z</time>
      </trkpt>
      <trkpt lat="48.68928" lon="2.02797">
        <ele>168</ele>
        <time>2021-05-20T08:30:57.000Z</time>
      </trkpt>
      <trkpt lat="48.68927" lon="2.02797">
        <ele>168</ele>
        <time>2021-05-20T08:30:58.000Z</time>
      </trkpt>
      <trkpt lat="48.68925" lon="2.02797">
        <ele>169</ele>
        <time>2021-05-20T08:30:59.000Z</time>
      </trkpt>
      <trkpt lat="48.68924" lon="2.02797">
        <ele>169</ele>
        <time>2021-05-20T08:31:00.000Z</time>
      </trkpt>
      <trkpt lat="48.68923" lon="2.02796">
        <ele>169</ele>
        <time>2021-05-20T08:31:01.000Z</time>
      </trkpt>
      <trkpt lat="48.68922" lon="2.02796">
        <ele>169</ele>
        <time>2021-05-20T08:31:02.000Z</time>
      </trkpt>
      <trkpt lat="48.6892" lon="2.02796">
        <ele>169</ele>
        <time>2021-05-20T08:31:03.000Z</time>
      </trkpt>
      <trkpt lat="48.68919" lon="2.02796">
        <ele>169</ele>
        <time>2021-05-20T08:31:04.000Z</time>
      </trkpt>
      <trkpt lat="48.68918" lon="2.02796">
        <ele>169</ele>
        <time>2021-05-20T08:31:05.000Z</time>
      </trkpt>
      <trkpt lat="48.68916" lon="2.02795">
        <ele>169</ele>
        <time>2021-05-20T08:31:06.000Z</time>
      </trkpt>
      <trkpt lat="48.68915" lon="2.02796">
        <ele>169</ele>
        <time>2021-05-20T08:31:07.000Z</time>
      </trkpt>
      <trkpt lat="48.68913" lon="2.02796">
        <ele>169</ele>
        <time>2021-05-20T08:31:08.000Z</time>
      </trkpt>
      <trkpt lat="48.68911" lon="2.02796">
        <ele>169</ele>
        <time>2021-05-20T08:31:09.000Z</time>
      </trkpt>
      <trkpt lat="48.6891" lon="2.02796">
        <ele>169</ele>
        <time>2021-05-20T08:31:10.000Z</time>
      </trkpt>
      <trkpt lat="48.68908" lon="2.02795">
        <ele>169</ele>
        <time>2021-05-20T08:31:11.000Z</time>
      </trkpt>
      <trkpt lat="48.68907" lon="2.02795">
        <ele>170</ele>
        <time>2021-05-20T08:31:12.000Z</time>
      </trkpt>
      <trkpt lat="48.68906" lon="2.02794">
        <ele>170</ele>
        <time>2021-05-20T08:31:13.000Z</time>
      </trkpt>
      <trkpt lat="48.68905" lon="2.02795">
        <ele>170</ele>
        <time>2021-05-20T08:31:14.000Z</time>
      </trkpt>
      <trkpt lat="48.68903" lon="2.02795">
        <ele>170</ele>
        <time>2021-05-20T08:31:15.000Z</time>
      </trkpt>
      <trkpt lat="48.68902" lon="2.02795">
        <ele>170</ele>
        <time>2021-05-20T08:31:16.000Z</time>
      </trkpt>
      <trkpt lat="48.68901" lon="2.02795">
        <ele>170</ele>
        <time>2021-05-20T08:31:17.000Z</time>
      </trkpt>
      <trkpt lat="48.689" lon="2.02795">
        <ele>170</ele>
        <time>2021-05-20T08:31:18.000Z</time>
      </trkpt>
      <trkpt lat="48.68899" lon="2.02794">
        <ele>170</ele>
        <time>2021-05-20T08:31:19.000Z</time>
      </trkpt>
      <trkpt lat="48.68898" lon="2.02794">
        <ele>170</ele>
        <time>2021-05-20T08:31:20.000Z</time>
      </trkpt>
      <trkpt lat="48.68897" lon="2.02793">
        <ele>170</ele>
        <time>2021-05-20T08:31:21.000Z</time>
      </trkpt>
      <trkpt lat="48.68896" lon="2.02793">
        <ele>170</ele>
        <time>2021-05-20T08:31:22.000Z</time>
      </trkpt>
      <trkpt lat="48.68895" lon="2.02792">
        <ele>170</ele>
        <time>2021-05-20T08:31:23.000Z</time>
      </trkpt>
      <trkpt lat="48.68894" lon="2.02791">
        <ele>170</ele>
        <time>2021-05-20T08:31:24.000Z</time>
      </trkpt>
      <trkpt lat="48.68893" lon="2.0279">
        <ele>170</ele>
        <time>2021-05-20T08:31:25.000Z</time>
      </trkpt>
      <trkpt lat="48.68892" lon="2.0279">
        <ele>170</ele>
        <time>2021-05-20T08:31:26.000Z</time>
      </trkpt>
      <trkpt lat="48.68891" lon="2.0279">
        <ele>170</ele>
        <time>2021-05-20T08:31:27.000Z</time>
      </trkpt>
      <trkpt lat="48.6889" lon="2.0279">
        <ele>170</ele>
        <time>2021-05-20T08:31:28.000Z</time>
      </trkpt>
      <trkpt lat="48.68889" lon="2.0279">
        <ele>170</ele>
        <time>2021-05-20T08:31:29.000Z</time>
      </trkpt>
      <trkpt lat="48.68888" lon="2.0279">
        <ele>170</ele>
        <time>2021-05-20T08:31:30.000Z</time>
      </trkpt>
      <trkpt lat="48.68887" lon="2.0279">
        <ele>170</ele>
        <time>2021-05-20T08:31:31.000Z</time>
      </trkpt>
      <trkpt lat="48.68886" lon="2.0279">
        <ele>170</ele>
        <time>2021-05-20T08:31:32.000Z</time>
      </trkpt>
      <trkpt lat="48.68885" lon="2.0279">
        <ele>170</ele>
        <time>2021-05-20T08:31:33.000Z</time>
      </trkpt>
      <trkpt lat="48.68884" lon="2.0279">
        <ele>170</ele>
        <time>2021-05-20T08:31:34.000Z</time>
      </trkpt>
      <trkpt lat="48.68883" lon="2.0279">
        <ele>171</ele>
        <time>2021-05-20T08:31:35.000Z</time>
      </trkpt>
      <trkpt lat="48.68882" lon="2.0279">
        <ele>171</ele>
        <time>2021-05-20T08:31:36.000Z</time>
      </trkpt>
      <trkpt lat="48.68881" lon="2.02791">
        <ele>171</ele>
        <time>2021-05-20T08:31:37.000Z</time>
      </trkpt>
      <trkpt lat="48.6888" lon="2.02791">
        <ele>171</ele>
        <time>2021-05-20T08:31:38.000Z</time>
      </trkpt>
      <trkpt lat="48.68879" lon="2.02791">
        <ele>171</ele>
        <time>2021-05-20T08:31:39.000Z</time>
      </trkpt>
      <trkpt lat="48.68878" lon="2.02791">
        <ele>172</ele>
        <time>2021-05-20T08:31:40.000Z</time>
      </trkpt>
      <trkpt lat="48.68877" lon="2.02791">
        <ele>172</ele>
        <time>2021-05-20T08:31:41.000Z</time>
      </trkpt>
      <trkpt lat="48.68876" lon="2.02792">
        <ele>172</ele>
        <time>2021-05-20T08:31:42.000Z</time>
      </trkpt>
      <trkpt lat="48.68875" lon="2.02792">
        <ele>172</ele>
        <time>2021-05-20T08:31:43.000Z</time>
      </trkpt>
      <trkpt lat="48.68873" lon="2.02792">
        <ele>172</ele>
        <time>2021-05-20T08:31:44.000Z</time>
      </trkpt>
      <trkpt lat="48.68872" lon="2.02793">
        <ele>172</ele>
        <time>2021-05-20T08:31:45.000Z</time>
      </trkpt>
      <trkpt lat="48.68871" lon="2.02793">
        <ele>172</ele>
        <time>2021-05-20T08:31:46.000Z</time>
      </trkpt>
      <trkpt lat="48.6887" lon="2.02794">
        <ele>173</ele>
        <time>2021-05-20T08:31:47.000Z</time>
      </trkpt>
      <trkpt lat="48.68869" lon="2.02794">
        <ele>173</ele>
        <time>2021-05-20T08:31:48.000Z</time>
      </trkpt>
      <trkpt lat="48.68868" lon="2.02794">
        <ele>173</ele>
        <time>2021-05-20T08:31:49.000Z</time>
      </trkpt>
      <trkpt lat="48.68866" lon="2.02795">
        <ele>173</ele>
        <time>2021-05-20T08:31:50.000Z</time>
      </trkpt>
      <trkpt lat="48.68865" lon="2.02795">
        <ele>173</ele>
        <time>2021-05-20T08:31:51.000Z</time>
      </trkpt>
      <trkpt lat="48.68864" lon="2.02796">
        <ele>173</ele>
        <time>2021-05-20T08:31:52.000Z</time>
      </trkpt>
      <trkpt lat="48.68863" lon="2.02796">
        <ele>174</ele>
        <time>2021-05-20T08:31:53.000Z</time>
      </trkpt>
      <trkpt lat="48.68862" lon="2.02796">
        <ele>174</ele>
        <time>2021-05-20T08:31:54.000Z</time>
      </trkpt>
      <trkpt lat="48.68861" lon="2.02796">
        <ele>174</ele>
        <time>2021-05-20T08:31:55.000Z</time>
      </trkpt>
      <trkpt lat="48.6886" lon="2.02797">
        <ele>174</ele>
        <time>2021-05-20T08:31:56.000Z</time>
      </trkpt>
      <trkpt lat="48.68859" lon="2.02797">
        <ele>174</ele>
        <time>2021-05-20T08:31:57.000Z</time>
      </trkpt>
      <trkpt lat="48.68858" lon="2.02798">
        <ele>174</ele>
        <time>2021-05-20T08:31:58.000Z</time>
      </trkpt>
      <trkpt lat="48.68857" lon="2.02798">
        <ele>174</ele>
        <time>2021-05-20T08:31:59.000Z</time>
      </trkpt>
      <trkpt lat="48.68856" lon="2.02799">
        <ele>174</ele>
        <time>2021-05-20T08:32:00.000Z</time>
      </trkpt>
      <trkpt lat="48.68855" lon="2.028">
        <ele>174</ele>
        <time>2021-05-20T08:32:01.000Z</time>
      </trkpt>
      <trkpt lat="48.68854" lon="2.02801">
        <ele>175</ele>
        <time>2021-05-20T08:32:02.000Z</time>
      </trkpt>
      <trkpt lat="48.68853" lon="2.02802">
        <ele>175</ele>
        <time>2021-05-20T08:32:03.000Z</time>
      </trkpt>
      <trkpt lat="48.68852" lon="2.02803">
        <ele>175</ele>
        <time>2021-05-20T08:32:04.000Z</time>
      </trkpt>
      <trkpt lat="48.68851" lon="2.02804">
        <ele>175</ele>
        <time>2021-05-20T08:32:05.000Z</time>
      </trkpt>
      <trkpt lat="48.6885" lon="2.02805">
        <ele>175</ele>
        <time>2021-05-20T08:32:06.000Z</time>
      </trkpt>
      <trkpt lat="48.68849" lon="2.02806">
        <ele>175</ele>
        <time>2021-05-20T08:32:07.000Z</time>
      </trkpt>
      <trkpt lat="48.68848" lon="2.02807">
        <ele>175</ele>
        <time>2021-05-20T08:32:08.000Z</time>
      </trkpt>
      <trkpt lat="48.68847" lon="2.02807">
        <ele>175</ele>
        <time>2021-05-20T08:32:09.000Z</time>
      </trkpt>
      <trkpt lat="48.68846" lon="2.02808">
        <ele>175</ele>
        <time>2021-05-20T08:32:10.000Z</time>
      </trkpt>
      <trkpt lat="48.68845" lon="2.02809">
        <ele>175</ele>
        <time>2021-05-20T08:32:11.000Z</time>
      </trkpt>
      <trkpt lat="48.68845" lon="2.0281">
        <ele>174</ele>
        <time>2021-05-20T08:32:12.000Z</time>
      </trkpt>
      <trkpt lat="48.68844" lon="2.02811">
        <ele>174</ele>
        <time>2021-05-20T08:32:13.000Z</time>
      </trkpt>
      <trkpt lat="48.68843" lon="2.02812">
        <ele>174</ele>
        <time>2021-05-20T08:32:14.000Z</time>
      </trkpt>
      <trkpt lat="48.68842" lon="2.02813">
        <ele>174</ele>
        <time>2021-05-20T08:32:15.000Z</time>
      </trkpt>
      <trkpt lat="48.68841" lon="2.02813">
        <ele>174</ele>
        <time>2021-05-20T08:32:16.000Z</time>
      </trkpt>
      <trkpt lat="48.6884" lon="2.02814">
        <ele>174</ele>
        <time>2021-05-20T08:32:17.000Z</time>
      </trkpt>
      <trkpt lat="48.6884" lon="2.02815">
        <ele>174</ele>
        <time>2021-05-20T08:32:18.000Z</time>
      </trkpt>
      <trkpt lat="48.68839" lon="2.02815">
        <ele>174</ele>
        <time>2021-05-20T08:32:19.000Z</time>
      </trkpt>
      <trkpt lat="48.68837" lon="2.02816">
        <ele>174</ele>
        <time>2021-05-20T08:32:20.000Z</time>
      </trkpt>
      <trkpt lat="48.68836" lon="2.02817">
        <ele>174</ele>
        <time>2021-05-20T08:32:21.000Z</time>
      </trkpt>
      <trkpt lat="48.68835" lon="2.02818">
        <ele>174</ele>
        <time>2021-05-20T08:32:22.000Z</time>
      </trkpt>
      <trkpt lat="48.68834" lon="2.0282">
        <ele>174</ele>
        <time>2021-05-20T08:32:23.000Z</time>
      </trkpt>
      <trkpt lat="48.68833" lon="2.02821">
        <ele>174</ele>
        <time>2021-05-20T08:32:24.000Z</time>
      </trkpt>
      <trkpt lat="48.68832" lon="2.02822">
        <ele>174</ele>
        <time>2021-05-20T08:32:25.000Z</time>
      </trkpt>
      <trkpt lat="48.68831" lon="2.02823">
        <ele>174</ele>
        <time>2021-05-20T08:32:26.000Z</time>
      </trkpt>
      <trkpt lat="48.6883" lon="2.02824">
        <ele>174</ele>
        <time>2021-05-20T08:32:27.000Z</time>
      </trkpt>
      <trkpt lat="48.68828" lon="2.02825">
        <ele>174</ele>
        <time>2021-05-20T08:32:28.000Z</time>
      </trkpt>
      <trkpt lat="48.68827" lon="2.02826">
        <ele>174</ele>
        <time>2021-05-20T08:32:29.000Z</time>
      </trkpt>
      <trkpt lat="48.68826" lon="2.02827">
        <ele>174</ele>
        <time>2021-05-20T08:32:30.000Z</time>
      </trkpt>
      <trkpt lat="48.68825" lon="2.02828">
        <ele>174</ele>
        <time>2021-05-20T08:32:31.000Z</time>
      </trkpt>
      <trkpt lat="48.68823" lon="2.02829">
        <ele>174</ele>
        <time>2021-05-20T08:32:32.000Z</time>
      </trkpt>
      <trkpt lat="48.68822" lon="2.0283">
        <ele>174</ele>
        <time>2021-05-20T08:32:33.000Z</time>
      </trkpt>
      <trkpt lat="48.6882" lon="2.0283">
        <ele>175</ele>
        <time>2021-05-20T08:32:34.000Z</time>
      </trkpt>
      <trkpt lat="48.68819" lon="2.02832">
        <ele>175</ele>
        <time>2021-05-20T08:32:35.000Z</time>
      </trkpt>
      <trkpt lat="48.68818" lon="2.02833">
        <ele>175</ele>
        <time>2021-05-20T08:32:36.000Z</time>
      </trkpt>
      <trkpt lat="48.68817" lon="2.02834">
        <ele>175</ele>
        <time>2021-05-20T08:32:37.000Z</time>
      </trkpt>
      <trkpt lat="48.68815" lon="2.02835">
        <ele>175</ele>
        <time>2021-05-20T08:32:38.000Z</time>
      </trkpt>
      <trkpt lat="48.68814" lon="2.02836">
        <ele>175</ele>
        <time>2021-05-20T08:32:39.000Z</time>
      </trkpt>
      <trkpt lat="48.68813" lon="2.02837">
        <ele>175</ele>
        <time>2021-05-20T08:32:40.000Z</time>
      </trkpt>
      <trkpt lat="48.68812" lon="2.02838">
        <ele>175</ele>
        <time>2021-05-20T08:32:41.000Z</time>
      </trkpt>
      <trkpt lat="48.68811" lon="2.02839">
        <ele>175</ele>
        <time>2021-05-20T08:32:42.000Z</time>
      </trkpt>
      <trkpt lat="48.6881" lon="2.0284">
        <ele>175</ele>
        <time>2021-05-20T08:32:43.000Z</time>
      </trkpt>
      <trkpt lat="48.68808" lon="2.02841">
        <ele>175</ele>
        <time>2021-05-20T08:32:44.000Z</time>
      </trkpt>
      <trkpt lat="48.68807" lon="2.02842">
        <ele>175</ele>
        <time>2021-05-20T08:32:45.000Z</time>
      </trkpt>
      <trkpt lat="48.68806" lon="2.02843">
        <ele>175</ele>
        <time>2021-05-20T08:32:46.000Z</time>
      </trkpt>
      <trkpt lat="48.68805" lon="2.02844">
        <ele>175</ele>
        <time>2021-05-20T08:32:47.000Z</time>
      </trkpt>
      <trkpt lat="48.68803" lon="2.02846">
        <ele>175</ele>
        <time>2021-05-20T08:32:48.000Z</time>
      </trkpt>
      <trkpt lat="48.68802" lon="2.02846">
        <ele>175</ele>
        <time>2021-05-20T08:32:49.000Z</time>
      </trkpt>
      <trkpt lat="48.68801" lon="2.02847">
        <ele>175</ele>
        <time>2021-05-20T08:32:50.000Z</time>
      </trkpt>
      <trkpt lat="48.68799" lon="2.02848">
        <ele>175</ele>
        <time>2021-05-20T08:32:51.000Z</time>
      </trkpt>
      <trkpt lat="48.68798" lon="2.02849">
        <ele>175</ele>
        <time>2021-05-20T08:32:52.000Z</time>
      </trkpt>
      <trkpt lat="48.68797" lon="2.0285">
        <ele>176</ele>
        <time>2021-05-20T08:32:53.000Z</time>
      </trkpt>
      <trkpt lat="48.68796" lon="2.02851">
        <ele>176</ele>
        <time>2021-05-20T08:32:54.000Z</time>
      </trkpt>
      <trkpt lat="48.68795" lon="2.02852">
        <ele>176</ele>
        <time>2021-05-20T08:32:55.000Z</time>
      </trkpt>
      <trkpt lat="48.68793" lon="2.02852">
        <ele>176</ele>
        <time>2021-05-20T08:32:56.000Z</time>
      </trkpt>
      <trkpt lat="48.68792" lon="2.02853">
        <ele>176</ele>
        <time>2021-05-20T08:32:57.000Z</time>
      </trkpt>
      <trkpt lat="48.68791" lon="2.02854">
        <ele>176</ele>
        <time>2021-05-20T08:32:58.000Z</time>
      </trkpt>
      <trkpt lat="48.68789" lon="2.02854">
        <ele>176</ele>
        <time>2021-05-20T08:32:59.000Z</time>
      </trkpt>
      <trkpt lat="48.68788" lon="2.02855">
        <ele>176</ele>
        <time>2021-05-20T08:33:00.000Z</time>
      </trkpt>
      <trkpt lat="48.68787" lon="2.02856">
        <ele>176</ele>
        <time>2021-05-20T08:33:01.000Z</time>
      </trkpt>
      <trkpt lat="48.68786" lon="2.02856">
        <ele>176</ele>
        <time>2021-05-20T08:33:02.000Z</time>
      </trkpt>
      <trkpt lat="48.68785" lon="2.02857">
        <ele>176</ele>
        <time>2021-05-20T08:33:03.000Z</time>
      </trkpt>
      <trkpt lat="48.68784" lon="2.02857">
        <ele>176</ele>
        <time>2021-05-20T08:33:04.000Z</time>
      </trkpt>
      <trkpt lat="48.68782" lon="2.02858">
        <ele>176</ele>
        <time>2021-05-20T08:33:05.000Z</time>
      </trkpt>
      <trkpt lat="48.68781" lon="2.02859">
        <ele>176</ele>
        <time>2021-05-20T08:33:06.000Z</time>
      </trkpt>
      <trkpt lat="48.6878" lon="2.0286">
        <ele>176</ele>
        <time>2021-05-20T08:33:07.000Z</time>
      </trkpt>
      <trkpt lat="48.68778" lon="2.0286">
        <ele>176</ele>
        <time>2021-05-20T08:33:08.000Z</time>
      </trkpt>
      <trkpt lat="48.68776" lon="2.02861">
        <ele>175</ele>
        <time>2021-05-20T08:33:09.000Z</time>
      </trkpt>
      <trkpt lat="48.68775" lon="2.02862">
        <ele>175</ele>
        <time>2021-05-20T08:33:10.000Z</time>
      </trkpt>
      <trkpt lat="48.68774" lon="2.02863">
        <ele>175</ele>
        <time>2021-05-20T08:33:11.000Z</time>
      </trkpt>
      <trkpt lat="48.68772" lon="2.02863">
        <ele>175</ele>
        <time>2021-05-20T08:33:12.000Z</time>
      </trkpt>
      <trkpt lat="48.68771" lon="2.02864">
        <ele>175</ele>
        <time>2021-05-20T08:33:13.000Z</time>
      </trkpt>
      <trkpt lat="48.6877" lon="2.02865">
        <ele>175</ele>
        <time>2021-05-20T08:33:14.000Z</time>
      </trkpt>
      <trkpt lat="48.68769" lon="2.02866">
        <ele>176</ele>
        <time>2021-05-20T08:33:15.000Z</time>
      </trkpt>
      <trkpt lat="48.68768" lon="2.02867">
        <ele>176</ele>
        <time>2021-05-20T08:33:16.000Z</time>
      </trkpt>
      <trkpt lat="48.68767" lon="2.02868">
        <ele>176</ele>
        <time>2021-05-20T08:33:17.000Z</time>
      </trkpt>
      <trkpt lat="48.68766" lon="2.02868">
        <ele>176</ele>
        <time>2021-05-20T08:33:18.000Z</time>
      </trkpt>
      <trkpt lat="48.68765" lon="2.02869">
        <ele>176</ele>
        <time>2021-05-20T08:33:19.000Z</time>
      </trkpt>
      <trkpt lat="48.68765" lon="2.02869">
        <ele>176</ele>
        <time>2021-05-20T08:33:20.000Z</time>
      </trkpt>
      <trkpt lat="48.68764" lon="2.0287">
        <ele>176</ele>
        <time>2021-05-20T08:33:21.000Z</time>
      </trkpt>
      <trkpt lat="48.68763" lon="2.0287">
        <ele>176</ele>
        <time>2021-05-20T08:33:22.000Z</time>
      </trkpt>
      <trkpt lat="48.68762" lon="2.0287">
        <ele>176</ele>
        <time>2021-05-20T08:33:23.000Z</time>
      </trkpt>
      <trkpt lat="48.68761" lon="2.02871">
        <ele>176</ele>
        <time>2021-05-20T08:33:24.000Z</time>
      </trkpt>
      <trkpt lat="48.6876" lon="2.02871">
        <ele>176</ele>
        <time>2021-05-20T08:33:25.000Z</time>
      </trkpt>
      <trkpt lat="48.68759" lon="2.02871">
        <ele>175</ele>
        <time>2021-05-20T08:33:26.000Z</time>
      </trkpt>
      <trkpt lat="48.68759" lon="2.02871">
        <ele>175</ele>
        <time>2021-05-20T08:33:27.000Z</time>
      </trkpt>
      <trkpt lat="48.68758" lon="2.02872">
        <ele>175</ele>
        <time>2021-05-20T08:33:28.000Z</time>
      </trkpt>
      <trkpt lat="48.68756" lon="2.02873">
        <ele>175</ele>
        <time>2021-05-20T08:33:29.000Z</time>
      </trkpt>
      <trkpt lat="48.68755" lon="2.02873">
        <ele>175</ele>
        <time>2021-05-20T08:33:30.000Z</time>
      </trkpt>
      <trkpt lat="48.68754" lon="2.02874">
        <ele>175</ele>
        <time>2021-05-20T08:33:31.000Z</time>
      </trkpt>
      <trkpt lat="48.68752" lon="2.02874">
        <ele>175</ele>
        <time>2021-05-20T08:33:32.000Z</time>
      </trkpt>
      <trkpt lat="48.68751" lon="2.02874">
        <ele>175</ele>
        <time>2021-05-20T08:33:33.000Z</time>
      </trkpt>
      <trkpt lat="48.6875" lon="2.02875">
        <ele>175</ele>
        <time>2021-05-20T08:33:34.000Z</time>
      </trkpt>
      <trkpt lat="48.68749" lon="2.02875">
        <ele>175</ele>
        <time>2021-05-20T08:33:35.000Z</time>
      </trkpt>
      <trkpt lat="48.68748" lon="2.02876">
        <ele>175</ele>
        <time>2021-05-20T08:33:36.000Z</time>
      </trkpt>
      <trkpt lat="48.68746" lon="2.02876">
        <ele>175</ele>
        <time>2021-05-20T08:33:37.000Z</time>
      </trkpt>
      <trkpt lat="48.68745" lon="2.02877">
        <ele>175</ele>
        <time>2021-05-20T08:33:38.000Z</time>
      </trkpt>
      <trkpt lat="48.68743" lon="2.02877">
        <ele>175</ele>
        <time>2021-05-20T08:33:39.000Z</time>
      </trkpt>
      <trkpt lat="48.68742" lon="2.02878">
        <ele>175</ele>
        <time>2021-05-20T08:33:40.000Z</time>
      </trkpt>
      <trkpt lat="48.68741" lon="2.02878">
        <ele>175</ele>
        <time>2021-05-20T08:33:41.000Z</time>
      </trkpt>
      <trkpt lat="48.68739" lon="2.02878">
        <ele>175</ele>
        <time>2021-05-20T08:33:42.000Z</time>
      </trkpt>
      <trkpt lat="48.68737" lon="2.02879">
        <ele>176</ele>
        <time>2021-05-20T08:33:43.000Z</time>
      </trkpt>
      <trkpt lat="48.68736" lon="2.02879">
        <ele>176</ele>
        <time>2021-05-20T08:33:44.000Z</time>
      </trkpt>
      <trkpt lat="48.68734" lon="2.02879">
        <ele>176</ele>
        <time>2021-05-20T08:33:45.000Z</time>
      </trkpt>
      <trkpt lat="48.68732" lon="2.0288">
        <ele>176</ele>
        <time>2021-05-20T08:33:46.000Z</time>
      </trkpt>
      <trkpt lat="48.6873" lon="2.0288">
        <ele>176</ele>
        <time>2021-05-20T08:33:47.000Z</time>
      </trkpt>
      <trkpt lat="48.68728" lon="2.0288">
        <ele>176</ele>
        <time>2021-05-20T08:33:48.000Z</time>
      </trkpt>
      <trkpt lat="48.68727" lon="2.02881">
        <ele>176</ele>
        <time>2021-05-20T08:33:49.000Z</time>
      </trkpt>
      <trkpt lat="48.68726" lon="2.02881">
        <ele>176</ele>
        <time>2021-05-20T08:33:50.000Z</time>
      </trkpt>
      <trkpt lat="48.68724" lon="2.02881">
        <ele>176</ele>
        <time>2021-05-20T08:33:51.000Z</time>
      </trkpt>
      <trkpt lat="48.68723" lon="2.02882">
        <ele>177</ele>
        <time>2021-05-20T08:33:52.000Z</time>
      </trkpt>
      <trkpt lat="48.68721" lon="2.02882">
        <ele>177</ele>
        <time>2021-05-20T08:33:53.000Z</time>
      </trkpt>
      <trkpt lat="48.6872" lon="2.02882">
        <ele>177</ele>
        <time>2021-05-20T08:33:54.000Z</time>
      </trkpt>
      <trkpt lat="48.68719" lon="2.02882">
        <ele>177</ele>
        <time>2021-05-20T08:33:55.000Z</time>
      </trkpt>
      <trkpt lat="48.68717" lon="2.02883">
        <ele>177</ele>
        <time>2021-05-20T08:33:56.000Z</time>
      </trkpt>
      <trkpt lat="48.68716" lon="2.02883">
        <ele>177</ele>
        <time>2021-05-20T08:33:57.000Z</time>
      </trkpt>
      <trkpt lat="48.68715" lon="2.02883">
        <ele>177</ele>
        <time>2021-05-20T08:33:58.000Z</time>
      </trkpt>
      <trkpt lat="48.68713" lon="2.02882">
        <ele>177</ele>
        <time>2021-05-20T08:33:59.000Z</time>
      </trkpt>
      <trkpt lat="48.68712" lon="2.02882">
        <ele>177</ele>
        <time>2021-05-20T08:34:00.000Z</time>
      </trkpt>
      <trkpt lat="48.68711" lon="2.02882">
        <ele>177</ele>
        <time>2021-05-20T08:34:01.000Z</time>
      </trkpt>
      <trkpt lat="48.68709" lon="2.02882">
        <ele>177</ele>
        <time>2021-05-20T08:34:02.000Z</time>
      </trkpt>
      <trkpt lat="48.68708" lon="2.02882">
        <ele>177</ele>
        <time>2021-05-20T08:34:03.000Z</time>
      </trkpt>
      <trkpt lat="48.68707" lon="2.02882">
        <ele>177</ele>
        <time>2021-05-20T08:34:04.000Z</time>
      </trkpt>
      <trkpt lat="48.68706" lon="2.02882">
        <ele>177</ele>
        <time>2021-05-20T08:34:05.000Z</time>
      </trkpt>
      <trkpt lat="48.68705" lon="2.02883">
        <ele>177</ele>
        <time>2021-05-20T08:34:06.000Z</time>
      </trkpt>
      <trkpt lat="48.68703" lon="2.02883">
        <ele>177</ele>
        <time>2021-05-20T08:34:07.000Z</time>
      </trkpt>
      <trkpt lat="48.68702" lon="2.02883">
        <ele>177</ele>
        <time>2021-05-20T08:34:08.000Z</time>
      </trkpt>
      <trkpt lat="48.68701" lon="2.02883">
        <ele>177</ele>
        <time>2021-05-20T08:34:09.000Z</time>
      </trkpt>
      <trkpt lat="48.68699" lon="2.02883">
        <ele>177</ele>
        <time>2021-05-20T08:34:10.000Z</time>
      </trkpt>
      <trkpt lat="48.68698" lon="2.02883">
        <ele>177</ele>
        <time>2021-05-20T08:34:11.000Z</time>
      </trkpt>
      <trkpt lat="48.68697" lon="2.02883">
        <ele>177</ele>
        <time>2021-05-20T08:34:12.000Z</time>
      </trkpt>
      <trkpt lat="48.68696" lon="2.02882">
        <ele>177</ele>
        <time>2021-05-20T08:34:13.000Z</time>
      </trkpt>
      <trkpt lat="48.68695" lon="2.02882">
        <ele>177</ele>
        <time>2021-05-20T08:34:14.000Z</time>
      </trkpt>
      <trkpt lat="48.68694" lon="2.02882">
        <ele>177</ele>
        <time>2021-05-20T08:34:15.000Z</time>
      </trkpt>
      <trkpt lat="48.68693" lon="2.02882">
        <ele>176</ele>
        <time>2021-05-20T08:34:16.000Z</time>
      </trkpt>
      <trkpt lat="48.68692" lon="2.02882">
        <ele>176</ele>
        <time>2021-05-20T08:34:17.000Z</time>
      </trkpt>
      <trkpt lat="48.68691" lon="2.02881">
        <ele>176</ele>
        <time>2021-05-20T08:34:18.000Z</time>
      </trkpt>
      <trkpt lat="48.6869" lon="2.02881">
        <ele>176</ele>
        <time>2021-05-20T08:34:19.000Z</time>
      </trkpt>
      <trkpt lat="48.68689" lon="2.0288">
        <ele>176</ele>
        <time>2021-05-20T08:34:20.000Z</time>
      </trkpt>
      <trkpt lat="48.68688" lon="2.0288">
        <ele>176</ele>
        <time>2021-05-20T08:34:21.000Z</time>
      </trkpt>
      <trkpt lat="48.68687" lon="2.0288">
        <ele>175</ele>
        <time>2021-05-20T08:34:22.000Z</time>
      </trkpt>
      <trkpt lat="48.68686" lon="2.0288">
        <ele>175</ele>
        <time>2021-05-20T08:34:23.000Z</time>
      </trkpt>
      <trkpt lat="48.68685" lon="2.0288">
        <ele>175</ele>
        <time>2021-05-20T08:34:24.000Z</time>
      </trkpt>
      <trkpt lat="48.68684" lon="2.0288">
        <ele>175</ele>
        <time>2021-05-20T08:34:25.000Z</time>
      </trkpt>
      <trkpt lat="48.68683" lon="2.0288">
        <ele>175</ele>
        <time>2021-05-20T08:34:26.000Z</time>
      </trkpt>
      <trkpt lat="48.68682" lon="2.02879">
        <ele>175</ele>
        <time>2021-05-20T08:34:27.000Z</time>
      </trkpt>
      <trkpt lat="48.68681" lon="2.02879">
        <ele>175</ele>
        <time>2021-05-20T08:34:28.000Z</time>
      </trkpt>
      <trkpt lat="48.6868" lon="2.02879">
        <ele>175</ele>
        <time>2021-05-20T08:34:29.000Z</time>
      </trkpt>
      <trkpt lat="48.68679" lon="2.02879">
        <ele>175</ele>
        <time>2021-05-20T08:34:30.000Z</time>
      </trkpt>
      <trkpt lat="48.68678" lon="2.02879">
        <ele>174</ele>
        <time>2021-05-20T08:34:31.000Z</time>
      </trkpt>
      <trkpt lat="48.68677" lon="2.02879">
        <ele>174</ele>
        <time>2021-05-20T08:34:32.000Z</time>
      </trkpt>
      <trkpt lat="48.68676" lon="2.02879">
        <ele>174</ele>
        <time>2021-05-20T08:34:33.000Z</time>
      </trkpt>
      <trkpt lat="48.68675" lon="2.02878">
        <ele>174</ele>
        <time>2021-05-20T08:34:34.000Z</time>
      </trkpt>
      <trkpt lat="48.68674" lon="2.02878">
        <ele>174</ele>
        <time>2021-05-20T08:34:35.000Z</time>
      </trkpt>
      <trkpt lat="48.68673" lon="2.02878">
        <ele>174</ele>
        <time>2021-05-20T08:34:36.000Z</time>
      </trkpt>
      <trkpt lat="48.68671" lon="2.02878">
        <ele>174</ele>
        <time>2021-05-20T08:34:37.000Z</time>
      </trkpt>
      <trkpt lat="48.6867" lon="2.02878">
        <ele>174</ele>
        <time>2021-05-20T08:34:38.000Z</time>
      </trkpt>
      <trkpt lat="48.68668" lon="2.02878">
        <ele>174</ele>
        <time>2021-05-20T08:34:39.000Z</time>
      </trkpt>
      <trkpt lat="48.68667" lon="2.02878">
        <ele>174</ele>
        <time>2021-05-20T08:34:40.000Z</time>
      </trkpt>
      <trkpt lat="48.68665" lon="2.02878">
        <ele>174</ele>
        <time>2021-05-20T08:34:41.000Z</time>
      </trkpt>
      <trkpt lat="48.68664" lon="2.02878">
        <ele>174</ele>
        <time>2021-05-20T08:34:42.000Z</time>
      </trkpt>
      <trkpt lat="48.68663" lon="2.02878">
        <ele>174</ele>
        <time>2021-05-20T08:34:43.000Z</time>
      </trkpt>
      <trkpt lat="48.68662" lon="2.02878">
        <ele>174</ele>
        <time>2021-05-20T08:34:44.000Z</time>
      </trkpt>
      <trkpt lat="48.6866" lon="2.02877">
        <ele>174</ele>
        <time>2021-05-20T08:34:45.000Z</time>
      </trkpt>
      <trkpt lat="48.68659" lon="2.02877">
        <ele>174</ele>
        <time>2021-05-20T08:34:46.000Z</time>
      </trkpt>
      <trkpt lat="48.68657" lon="2.02877">
        <ele>174</ele>
        <time>2021-05-20T08:34:47.000Z</time>
      </trkpt>
      <trkpt lat="48.68656" lon="2.02877">
        <ele>174</ele>
        <time>2021-05-20T08:34:48.000Z</time>
      </trkpt>
      <trkpt lat="48.68654" lon="2.02878">
        <ele>174</ele>
        <time>2021-05-20T08:34:49.000Z</time>
      </trkpt>
      <trkpt lat="48.68653" lon="2.02878">
        <ele>174</ele>
        <time>2021-05-20T08:34:50.000Z</time>
      </trkpt>
      <trkpt lat="48.68652" lon="2.02878">
        <ele>174</ele>
        <time>2021-05-20T08:34:51.000Z</time>
      </trkpt>
      <trkpt lat="48.6865" lon="2.02877">
        <ele>174</ele>
        <time>2021-05-20T08:34:52.000Z</time>
      </trkpt>
      <trkpt lat="48.68649" lon="2.02877">
        <ele>174</ele>
        <time>2021-05-20T08:34:53.000Z</time>
      </trkpt>
      <trkpt lat="48.68647" lon="2.02877">
        <ele>174</ele>
        <time>2021-05-20T08:34:54.000Z</time>
      </trkpt>
      <trkpt lat="48.68646" lon="2.02877">
        <ele>174</ele>
        <time>2021-05-20T08:34:55.000Z</time>
      </trkpt>
      <trkpt lat="48.68644" lon="2.02877">
        <ele>174</ele>
        <time>2021-05-20T08:34:56.000Z</time>
      </trkpt>
      <trkpt lat="48.68643" lon="2.02876">
        <ele>174</ele>
        <time>2021-05-20T08:34:57.000Z</time>
      </trkpt>
      <trkpt lat="48.68642" lon="2.02876">
        <ele>174</ele>
        <time>2021-05-20T08:34:58.000Z</time>
      </trkpt>
      <trkpt lat="48.68641" lon="2.02876">
        <ele>174</ele>
        <time>2021-05-20T08:34:59.000Z</time>
      </trkpt>
      <trkpt lat="48.68639" lon="2.02876">
        <ele>174</ele>
        <time>2021-05-20T08:35:00.000Z</time>
      </trkpt>
      <trkpt lat="48.68638" lon="2.02876">
        <ele>174</ele>
        <time>2021-05-20T08:35:01.000Z</time>
      </trkpt>
      <trkpt lat="48.68636" lon="2.02876">
        <ele>174</ele>
        <time>2021-05-20T08:35:02.000Z</time>
      </trkpt>
      <trkpt lat="48.68635" lon="2.02876">
        <ele>174</ele>
        <time>2021-05-20T08:35:03.000Z</time>
      </trkpt>
      <trkpt lat="48.68634" lon="2.02876">
        <ele>174</ele>
        <time>2021-05-20T08:35:04.000Z</time>
      </trkpt>
      <trkpt lat="48.68633" lon="2.02876">
        <ele>174</ele>
        <time>2021-05-20T08:35:05.000Z</time>
      </trkpt>
      <trkpt lat="48.68632" lon="2.02876">
        <ele>174</ele>
        <time>2021-05-20T08:35:06.000Z</time>
      </trkpt>
      <trkpt lat="48.68631" lon="2.02876">
        <ele>174</ele>
        <time>2021-05-20T08:35:07.000Z</time>
      </trkpt>
      <trkpt lat="48.6863" lon="2.02875">
        <ele>174</ele>
        <time>2021-05-20T08:35:08.000Z</time>
      </trkpt>
      <trkpt lat="48.68629" lon="2.02875">
        <ele>174</ele>
        <time>2021-05-20T08:35:09.000Z</time>
      </trkpt>
      <trkpt lat="48.68629" lon="2.02875">
        <ele>174</ele>
        <time>2021-05-20T08:35:10.000Z</time>
      </trkpt>
      <trkpt lat="48.68628" lon="2.02875">
        <ele>175</ele>
        <time>2021-05-20T08:35:11.000Z</time>
      </trkpt>
      <trkpt lat="48.68627" lon="2.02875">
        <ele>175</ele>
        <time>2021-05-20T08:35:12.000Z</time>
      </trkpt>
      <trkpt lat="48.68626" lon="2.02874">
        <ele>175</ele>
        <time>2021-05-20T08:35:13.000Z</time>
      </trkpt>
      <trkpt lat="48.68625" lon="2.02874">
        <ele>175</ele>
        <time>2021-05-20T08:35:14.000Z</time>
      </trkpt>
      <trkpt lat="48.68625" lon="2.02874">
        <ele>175</ele>
        <time>2021-05-20T08:35:15.000Z</time>
      </trkpt>
      <trkpt lat="48.68624" lon="2.02874">
        <ele>175</ele>
        <time>2021-05-20T08:35:16.000Z</time>
      </trkpt>
      <trkpt lat="48.68623" lon="2.02874">
        <ele>175</ele>
        <time>2021-05-20T08:35:17.000Z</time>
      </trkpt>
      <trkpt lat="48.68623" lon="2.02874">
        <ele>175</ele>
        <time>2021-05-20T08:35:18.000Z</time>
      </trkpt>
      <trkpt lat="48.68622" lon="2.02875">
        <ele>175</ele>
        <time>2021-05-20T08:35:19.000Z</time>
      </trkpt>
      <trkpt lat="48.68621" lon="2.02875">
        <ele>175</ele>
        <time>2021-05-20T08:35:20.000Z</time>
      </trkpt>
      <trkpt lat="48.6862" lon="2.02875">
        <ele>175</ele>
        <time>2021-05-20T08:35:21.000Z</time>
      </trkpt>
      <trkpt lat="48.68619" lon="2.02875">
        <ele>175</ele>
        <time>2021-05-20T08:35:22.000Z</time>
      </trkpt>
      <trkpt lat="48.68618" lon="2.02876">
        <ele>176</ele>
        <time>2021-05-20T08:35:23.000Z</time>
      </trkpt>
      <trkpt lat="48.68617" lon="2.02876">
        <ele>176</ele>
        <time>2021-05-20T08:35:24.000Z</time>
      </trkpt>
      <trkpt lat="48.68616" lon="2.02876">
        <ele>176</ele>
        <time>2021-05-20T08:35:25.000Z</time>
      </trkpt>
      <trkpt lat="48.68615" lon="2.02876">
        <ele>176</ele>
        <time>2021-05-20T08:35:26.000Z</time>
      </trkpt>
      <trkpt lat="48.68614" lon="2.02877">
        <ele>176</ele>
        <time>2021-05-20T08:35:27.000Z</time>
      </trkpt>
      <trkpt lat="48.68613" lon="2.02877">
        <ele>176</ele>
        <time>2021-05-20T08:35:28.000Z</time>
      </trkpt>
      <trkpt lat="48.68612" lon="2.02877">
        <ele>176</ele>
        <time>2021-05-20T08:35:29.000Z</time>
      </trkpt>
      <trkpt lat="48.68611" lon="2.02878">
        <ele>176</ele>
        <time>2021-05-20T08:35:30.000Z</time>
      </trkpt>
      <trkpt lat="48.68609" lon="2.02878">
        <ele>176</ele>
        <time>2021-05-20T08:35:31.000Z</time>
      </trkpt>
      <trkpt lat="48.68608" lon="2.02878">
        <ele>176</ele>
        <time>2021-05-20T08:35:32.000Z</time>
      </trkpt>
      <trkpt lat="48.68607" lon="2.02879">
        <ele>176</ele>
        <time>2021-05-20T08:35:33.000Z</time>
      </trkpt>
      <trkpt lat="48.68606" lon="2.0288">
        <ele>176</ele>
        <time>2021-05-20T08:35:34.000Z</time>
      </trkpt>
      <trkpt lat="48.68605" lon="2.0288">
        <ele>176</ele>
        <time>2021-05-20T08:35:35.000Z</time>
      </trkpt>
      <trkpt lat="48.68604" lon="2.02881">
        <ele>177</ele>
        <time>2021-05-20T08:35:36.000Z</time>
      </trkpt>
      <trkpt lat="48.68603" lon="2.02881">
        <ele>177</ele>
        <time>2021-05-20T08:35:37.000Z</time>
      </trkpt>
      <trkpt lat="48.68602" lon="2.02882">
        <ele>177</ele>
        <time>2021-05-20T08:35:38.000Z</time>
      </trkpt>
      <trkpt lat="48.68601" lon="2.02882">
        <ele>177</ele>
        <time>2021-05-20T08:35:39.000Z</time>
      </trkpt>
      <trkpt lat="48.686" lon="2.02882">
        <ele>177</ele>
        <time>2021-05-20T08:35:40.000Z</time>
      </trkpt>
      <trkpt lat="48.686" lon="2.02882">
        <ele>177</ele>
        <time>2021-05-20T08:35:41.000Z</time>
      </trkpt>
      <trkpt lat="48.68599" lon="2.02883">
        <ele>177</ele>
        <time>2021-05-20T08:35:42.000Z</time>
      </trkpt>
      <trkpt lat="48.68598" lon="2.02884">
        <ele>177</ele>
        <time>2021-05-20T08:35:43.000Z</time>
      </trkpt>
      <trkpt lat="48.68596" lon="2.02884">
        <ele>177</ele>
        <time>2021-05-20T08:35:44.000Z</time>
      </trkpt>
      <trkpt lat="48.68595" lon="2.02885">
        <ele>177</ele>
        <time>2021-05-20T08:35:45.000Z</time>
      </trkpt>
      <trkpt lat="48.68594" lon="2.02886">
        <ele>177</ele>
        <time>2021-05-20T08:35:46.000Z</time>
      </trkpt>
      <trkpt lat="48.68592" lon="2.02886">
        <ele>177</ele>
        <time>2021-05-20T08:35:47.000Z</time>
      </trkpt>
      <trkpt lat="48.68591" lon="2.02886">
        <ele>177</ele>
        <time>2021-05-20T08:35:48.000Z</time>
      </trkpt>
      <trkpt lat="48.6859" lon="2.02886">
        <ele>177</ele>
        <time>2021-05-20T08:35:49.000Z</time>
      </trkpt>
      <trkpt lat="48.68589" lon="2.02887">
        <ele>177</ele>
        <time>2021-05-20T08:35:50.000Z</time>
      </trkpt>
      <trkpt lat="48.68588" lon="2.02887">
        <ele>177</ele>
        <time>2021-05-20T08:35:51.000Z</time>
      </trkpt>
      <trkpt lat="48.68586" lon="2.02887">
        <ele>177</ele>
        <time>2021-05-20T08:35:52.000Z</time>
      </trkpt>
      <trkpt lat="48.68585" lon="2.02887">
        <ele>177</ele>
        <time>2021-05-20T08:35:53.000Z</time>
      </trkpt>
      <trkpt lat="48.68584" lon="2.02887">
        <ele>177</ele>
        <time>2021-05-20T08:35:54.000Z</time>
      </trkpt>
      <trkpt lat="48.68583" lon="2.02888">
        <ele>177</ele>
        <time>2021-05-20T08:35:55.000Z</time>
      </trkpt>
      <trkpt lat="48.68582" lon="2.02888">
        <ele>177</ele>
        <time>2021-05-20T08:35:56.000Z</time>
      </trkpt>
      <trkpt lat="48.6858" lon="2.02888">
        <ele>177</ele>
        <time>2021-05-20T08:35:57.000Z</time>
      </trkpt>
      <trkpt lat="48.68579" lon="2.02888">
        <ele>177</ele>
        <time>2021-05-20T08:35:58.000Z</time>
      </trkpt>
      <trkpt lat="48.68577" lon="2.02889">
        <ele>178</ele>
        <time>2021-05-20T08:35:59.000Z</time>
      </trkpt>
      <trkpt lat="48.68576" lon="2.0289">
        <ele>178</ele>
        <time>2021-05-20T08:36:00.000Z</time>
      </trkpt>
      <trkpt lat="48.68574" lon="2.0289">
        <ele>178</ele>
        <time>2021-05-20T08:36:01.000Z</time>
      </trkpt>
      <trkpt lat="48.68573" lon="2.0289">
        <ele>178</ele>
        <time>2021-05-20T08:36:02.000Z</time>
      </trkpt>
      <trkpt lat="48.68572" lon="2.02891">
        <ele>178</ele>
        <time>2021-05-20T08:36:03.000Z</time>
      </trkpt>
      <trkpt lat="48.6857" lon="2.02891">
        <ele>178</ele>
        <time>2021-05-20T08:36:04.000Z</time>
      </trkpt>
      <trkpt lat="48.68569" lon="2.02891">
        <ele>178</ele>
        <time>2021-05-20T08:36:05.000Z</time>
      </trkpt>
      <trkpt lat="48.68567" lon="2.02892">
        <ele>178</ele>
        <time>2021-05-20T08:36:06.000Z</time>
      </trkpt>
      <trkpt lat="48.68566" lon="2.02892">
        <ele>179</ele>
        <time>2021-05-20T08:36:07.000Z</time>
      </trkpt>
      <trkpt lat="48.68564" lon="2.02892">
        <ele>179</ele>
        <time>2021-05-20T08:36:08.000Z</time>
      </trkpt>
      <trkpt lat="48.68563" lon="2.02893">
        <ele>179</ele>
        <time>2021-05-20T08:36:09.000Z</time>
      </trkpt>
      <trkpt lat="48.68562" lon="2.02893">
        <ele>179</ele>
        <time>2021-05-20T08:36:10.000Z</time>
      </trkpt>
      <trkpt lat="48.68561" lon="2.02893">
        <ele>179</ele>
        <time>2021-05-20T08:36:11.000Z</time>
      </trkpt>
      <trkpt lat="48.6856" lon="2.02892">
        <ele>179</ele>
        <time>2021-05-20T08:36:12.000Z</time>
      </trkpt>
      <trkpt lat="48.68559" lon="2.02892">
        <ele>179</ele>
        <time>2021-05-20T08:36:13.000Z</time>
      </trkpt>
      <trkpt lat="48.68557" lon="2.02892">
        <ele>179</ele>
        <time>2021-05-20T08:36:14.000Z</time>
      </trkpt>
      <trkpt lat="48.68556" lon="2.02892">
        <ele>179</ele>
        <time>2021-05-20T08:36:15.000Z</time>
      </trkpt>
      <trkpt lat="48.68554" lon="2.02893">
        <ele>179</ele>
        <time>2021-05-20T08:36:16.000Z</time>
      </trkpt>
      <trkpt lat="48.68553" lon="2.02894">
        <ele>179</ele>
        <time>2021-05-20T08:36:17.000Z</time>
      </trkpt>
      <trkpt lat="48.68552" lon="2.02894">
        <ele>180</ele>
        <time>2021-05-20T08:36:18.000Z</time>
      </trkpt>
      <trkpt lat="48.6855" lon="2.02894">
        <ele>180</ele>
        <time>2021-05-20T08:36:19.000Z</time>
      </trkpt>
      <trkpt lat="48.68549" lon="2.02894">
        <ele>180</ele>
        <time>2021-05-20T08:36:20.000Z</time>
      </trkpt>
      <trkpt lat="48.68548" lon="2.02894">
        <ele>180</ele>
        <time>2021-05-20T08:36:21.000Z</time>
      </trkpt>
      <trkpt lat="48.68547" lon="2.02895">
        <ele>180</ele>
        <time>2021-05-20T08:36:22.000Z</time>
      </trkpt>
      <trkpt lat="48.68547" lon="2.02895">
        <ele>180</ele>
        <time>2021-05-20T08:36:23.000Z</time>
      </trkpt>
      <trkpt lat="48.68546" lon="2.02895">
        <ele>180</ele>
        <time>2021-05-20T08:36:24.000Z</time>
      </trkpt>
      <trkpt lat="48.68545" lon="2.02895">
        <ele>180</ele>
        <time>2021-05-20T08:36:25.000Z</time>
      </trkpt>
      <trkpt lat="48.68543" lon="2.02895">
        <ele>180</ele>
        <time>2021-05-20T08:36:26.000Z</time>
      </trkpt>
      <trkpt lat="48.68542" lon="2.02895">
        <ele>180</ele>
        <time>2021-05-20T08:36:27.000Z</time>
      </trkpt>
      <trkpt lat="48.68541" lon="2.02894">
        <ele>180</ele>
        <time>2021-05-20T08:36:28.000Z</time>
      </trkpt>
      <trkpt lat="48.6854" lon="2.02894">
        <ele>180</ele>
        <time>2021-05-20T08:36:29.000Z</time>
      </trkpt>
      <trkpt lat="48.68539" lon="2.02895">
        <ele>180</ele>
        <time>2021-05-20T08:36:30.000Z</time>
      </trkpt>
      <trkpt lat="48.68538" lon="2.02895">
        <ele>181</ele>
        <time>2021-05-20T08:36:31.000Z</time>
      </trkpt>
      <trkpt lat="48.68537" lon="2.02895">
        <ele>181</ele>
        <time>2021-05-20T08:36:32.000Z</time>
      </trkpt>
      <trkpt lat="48.68536" lon="2.02896">
        <ele>181</ele>
        <time>2021-05-20T08:36:33.000Z</time>
      </trkpt>
      <trkpt lat="48.68534" lon="2.02896">
        <ele>180</ele>
        <time>2021-05-20T08:36:34.000Z</time>
      </trkpt>
      <trkpt lat="48.68533" lon="2.02896">
        <ele>180</ele>
        <time>2021-05-20T08:36:35.000Z</time>
      </trkpt>
      <trkpt lat="48.68532" lon="2.02896">
        <ele>180</ele>
        <time>2021-05-20T08:36:36.000Z</time>
      </trkpt>
      <trkpt lat="48.6853" lon="2.02896">
        <ele>180</ele>
        <time>2021-05-20T08:36:37.000Z</time>
      </trkpt>
      <trkpt lat="48.68529" lon="2.02897">
        <ele>180</ele>
        <time>2021-05-20T08:36:38.000Z</time>
      </trkpt>
      <trkpt lat="48.68528" lon="2.02897">
        <ele>180</ele>
        <time>2021-05-20T08:36:39.000Z</time>
      </trkpt>
      <trkpt lat="48.68527" lon="2.02897">
        <ele>180</ele>
        <time>2021-05-20T08:36:40.000Z</time>
      </trkpt>
      <trkpt lat="48.68526" lon="2.02897">
        <ele>180</ele>
        <time>2021-05-20T08:36:41.000Z</time>
      </trkpt>
      <trkpt lat="48.68526" lon="2.02897">
        <ele>180</ele>
        <time>2021-05-20T08:36:42.000Z</time>
      </trkpt>
      <trkpt lat="48.68524" lon="2.02897">
        <ele>180</ele>
        <time>2021-05-20T08:36:43.000Z</time>
      </trkpt>
      <trkpt lat="48.68523" lon="2.02897">
        <ele>180</ele>
        <time>2021-05-20T08:36:44.000Z</time>
      </trkpt>
      <trkpt lat="48.68522" lon="2.02897">
        <ele>180</ele>
        <time>2021-05-20T08:36:45.000Z</time>
      </trkpt>
      <trkpt lat="48.68521" lon="2.02898">
        <ele>180</ele>
        <time>2021-05-20T08:36:46.000Z</time>
      </trkpt>
      <trkpt lat="48.6852" lon="2.02898">
        <ele>180</ele>
        <time>2021-05-20T08:36:47.000Z</time>
      </trkpt>
      <trkpt lat="48.68519" lon="2.02898">
        <ele>180</ele>
        <time>2021-05-20T08:36:48.000Z</time>
      </trkpt>
      <trkpt lat="48.68517" lon="2.02898">
        <ele>181</ele>
        <time>2021-05-20T08:36:49.000Z</time>
      </trkpt>
      <trkpt lat="48.68515" lon="2.02899">
        <ele>181</ele>
        <time>2021-05-20T08:36:50.000Z</time>
      </trkpt>
      <trkpt lat="48.68514" lon="2.02899">
        <ele>181</ele>
        <time>2021-05-20T08:36:51.000Z</time>
      </trkpt>
      <trkpt lat="48.68512" lon="2.02899">
        <ele>181</ele>
        <time>2021-05-20T08:36:52.000Z</time>
      </trkpt>
      <trkpt lat="48.6851" lon="2.02899">
        <ele>181</ele>
        <time>2021-05-20T08:36:53.000Z</time>
      </trkpt>
      <trkpt lat="48.68509" lon="2.02899">
        <ele>181</ele>
        <time>2021-05-20T08:36:54.000Z</time>
      </trkpt>
      <trkpt lat="48.68508" lon="2.02899">
        <ele>181</ele>
        <time>2021-05-20T08:36:55.000Z</time>
      </trkpt>
      <trkpt lat="48.68506" lon="2.02899">
        <ele>181</ele>
        <time>2021-05-20T08:36:56.000Z</time>
      </trkpt>
      <trkpt lat="48.68504" lon="2.02899">
        <ele>180</ele>
        <time>2021-05-20T08:36:57.000Z</time>
      </trkpt>
      <trkpt lat="48.68502" lon="2.02899">
        <ele>180</ele>
        <time>2021-05-20T08:36:58.000Z</time>
      </trkpt>
      <trkpt lat="48.68501" lon="2.02899">
        <ele>180</ele>
        <time>2021-05-20T08:36:59.000Z</time>
      </trkpt>
      <trkpt lat="48.685" lon="2.02899">
        <ele>180</ele>
        <time>2021-05-20T08:37:05.002Z</time>
      </trkpt>
      <trkpt lat="48.68498" lon="2.02899">
        <ele>180</ele>
        <time>2021-05-20T08:37:06.002Z</time>
      </trkpt>
      <trkpt lat="48.68497" lon="2.02899">
        <ele>180</ele>
        <time>2021-05-20T08:37:07.002Z</time>
      </trkpt>
      <trkpt lat="48.68495" lon="2.02899">
        <ele>180</ele>
        <time>2021-05-20T08:37:08.002Z</time>
      </trkpt>
      <trkpt lat="48.68494" lon="2.02899">
        <ele>180</ele>
        <time>2021-05-20T08:37:09.002Z</time>
      </trkpt>
      <trkpt lat="48.68492" lon="2.02899">
        <ele>180</ele>
        <time>2021-05-20T08:37:10.002Z</time>
      </trkpt>
      <trkpt lat="48.6849" lon="2.029">
        <ele>180</ele>
        <time>2021-05-20T08:37:11.002Z</time>
      </trkpt>
      <trkpt lat="48.68489" lon="2.029">
        <ele>180</ele>
        <time>2021-05-20T08:37:12.002Z</time>
      </trkpt>
      <trkpt lat="48.68488" lon="2.02901">
        <ele>180</ele>
        <time>2021-05-20T08:37:13.002Z</time>
      </trkpt>
      <trkpt lat="48.68487" lon="2.02901">
        <ele>180</ele>
        <time>2021-05-20T08:37:14.002Z</time>
      </trkpt>
      <trkpt lat="48.68486" lon="2.02901">
        <ele>180</ele>
        <time>2021-05-20T08:37:15.002Z</time>
      </trkpt>
      <trkpt lat="48.68484" lon="2.02901">
        <ele>180</ele>
        <time>2021-05-20T08:37:16.002Z</time>
      </trkpt>
      <trkpt lat="48.68483" lon="2.02901">
        <ele>180</ele>
        <time>2021-05-20T08:37:17.002Z</time>
      </trkpt>
      <trkpt lat="48.68482" lon="2.02901">
        <ele>180</ele>
        <time>2021-05-20T08:37:18.002Z</time>
      </trkpt>
      <trkpt lat="48.6848" lon="2.02901">
        <ele>180</ele>
        <time>2021-05-20T08:37:19.002Z</time>
      </trkpt>
      <trkpt lat="48.68479" lon="2.02902">
        <ele>180</ele>
        <time>2021-05-20T08:37:20.002Z</time>
      </trkpt>
      <trkpt lat="48.68478" lon="2.02903">
        <ele>180</ele>
        <time>2021-05-20T08:37:21.002Z</time>
      </trkpt>
      <trkpt lat="48.68477" lon="2.02903">
        <ele>180</ele>
        <time>2021-05-20T08:37:22.002Z</time>
      </trkpt>
      <trkpt lat="48.68476" lon="2.02903">
        <ele>180</ele>
        <time>2021-05-20T08:37:23.002Z</time>
      </trkpt>
      <trkpt lat="48.68475" lon="2.02904">
        <ele>180</ele>
        <time>2021-05-20T08:37:24.002Z</time>
      </trkpt>
      <trkpt lat="48.68474" lon="2.02904">
        <ele>180</ele>
        <time>2021-05-20T08:37:25.002Z</time>
      </trkpt>
      <trkpt lat="48.68473" lon="2.02904">
        <ele>180</ele>
        <time>2021-05-20T08:37:26.002Z</time>
      </trkpt>
      <trkpt lat="48.68472" lon="2.02905">
        <ele>180</ele>
        <time>2021-05-20T08:37:27.002Z</time>
      </trkpt>
      <trkpt lat="48.68471" lon="2.02905">
        <ele>180</ele>
        <time>2021-05-20T08:37:28.002Z</time>
      </trkpt>
      <trkpt lat="48.6847" lon="2.02905">
        <ele>180</ele>
        <time>2021-05-20T08:37:29.002Z</time>
      </trkpt>
      <trkpt lat="48.6847" lon="2.02906">
        <ele>180</ele>
        <time>2021-05-20T08:37:30.002Z</time>
      </trkpt>
      <trkpt lat="48.68469" lon="2.02906">
        <ele>180</ele>
        <time>2021-05-20T08:37:31.002Z</time>
      </trkpt>
      <trkpt lat="48.68468" lon="2.02906">
        <ele>180</ele>
        <time>2021-05-20T08:37:32.002Z</time>
      </trkpt>
      <trkpt lat="48.68467" lon="2.02907">
        <ele>180</ele>
        <time>2021-05-20T08:37:33.002Z</time>
      </trkpt>
      <trkpt lat="48.68466" lon="2.02907">
        <ele>180</ele>
        <time>2021-05-20T08:37:34.002Z</time>
      </trkpt>
      <trkpt lat="48.68465" lon="2.02907">
        <ele>180</ele>
        <time>2021-05-20T08:37:35.002Z</time>
      </trkpt>
      <trkpt lat="48.68464" lon="2.02907">
        <ele>180</ele>
        <time>2021-05-20T08:37:36.002Z</time>
      </trkpt>
      <trkpt lat="48.68463" lon="2.02908">
        <ele>180</ele>
        <time>2021-05-20T08:37:37.002Z</time>
      </trkpt>
      <trkpt lat="48.68461" lon="2.02908">
        <ele>180</ele>
        <time>2021-05-20T08:37:38.002Z</time>
      </trkpt>
      <trkpt lat="48.6846" lon="2.02908">
        <ele>180</ele>
        <time>2021-05-20T08:37:39.002Z</time>
      </trkpt>
      <trkpt lat="48.68458" lon="2.02909">
        <ele>180</ele>
        <time>2021-05-20T08:37:40.002Z</time>
      </trkpt>
      <trkpt lat="48.68457" lon="2.02909">
        <ele>180</ele>
        <time>2021-05-20T08:37:41.002Z</time>
      </trkpt>
      <trkpt lat="48.68455" lon="2.0291">
        <ele>180</ele>
        <time>2021-05-20T08:37:42.002Z</time>
      </trkpt>
      <trkpt lat="48.68454" lon="2.0291">
        <ele>180</ele>
        <time>2021-05-20T08:37:43.002Z</time>
      </trkpt>
      <trkpt lat="48.68452" lon="2.02911">
        <ele>180</ele>
        <time>2021-05-20T08:37:44.002Z</time>
      </trkpt>
      <trkpt lat="48.68451" lon="2.02911">
        <ele>180</ele>
        <time>2021-05-20T08:37:45.002Z</time>
      </trkpt>
      <trkpt lat="48.6845" lon="2.02911">
        <ele>180</ele>
        <time>2021-05-20T08:37:46.002Z</time>
      </trkpt>
      <trkpt lat="48.68449" lon="2.02911">
        <ele>180</ele>
        <time>2021-05-20T08:37:47.002Z</time>
      </trkpt>
      <trkpt lat="48.68448" lon="2.02911">
        <ele>180</ele>
        <time>2021-05-20T08:37:48.002Z</time>
      </trkpt>
      <trkpt lat="48.68446" lon="2.02911">
        <ele>180</ele>
        <time>2021-05-20T08:37:49.002Z</time>
      </trkpt>
      <trkpt lat="48.68445" lon="2.02911">
        <ele>180</ele>
        <time>2021-05-20T08:37:50.002Z</time>
      </trkpt>
      <trkpt lat="48.68445" lon="2.02911">
        <ele>180</ele>
        <time>2021-05-20T08:37:51.002Z</time>
      </trkpt>
      <trkpt lat="48.68444" lon="2.02911">
        <ele>180</ele>
        <time>2021-05-20T08:37:52.002Z</time>
      </trkpt>
      <trkpt lat="48.68443" lon="2.02912">
        <ele>180</ele>
        <time>2021-05-20T08:37:53.002Z</time>
      </trkpt>
      <trkpt lat="48.68441" lon="2.02911">
        <ele>180</ele>
        <time>2021-05-20T08:37:54.002Z</time>
      </trkpt>
      <trkpt lat="48.6844" lon="2.02911">
        <ele>180</ele>
        <time>2021-05-20T08:37:55.002Z</time>
      </trkpt>
      <trkpt lat="48.68439" lon="2.02911">
        <ele>179</ele>
        <time>2021-05-20T08:37:56.002Z</time>
      </trkpt>
      <trkpt lat="48.68438" lon="2.02911">
        <ele>179</ele>
        <time>2021-05-20T08:37:57.002Z</time>
      </trkpt>
      <trkpt lat="48.68436" lon="2.02911">
        <ele>179</ele>
        <time>2021-05-20T08:37:58.002Z</time>
      </trkpt>
      <trkpt lat="48.68435" lon="2.02911">
        <ele>179</ele>
        <time>2021-05-20T08:37:59.002Z</time>
      </trkpt>
      <trkpt lat="48.68433" lon="2.02912">
        <ele>179</ele>
        <time>2021-05-20T08:38:00.002Z</time>
      </trkpt>
      <trkpt lat="48.68432" lon="2.02912">
        <ele>179</ele>
        <time>2021-05-20T08:38:01.002Z</time>
      </trkpt>
      <trkpt lat="48.6843" lon="2.02912">
        <ele>179</ele>
        <time>2021-05-20T08:38:02.002Z</time>
      </trkpt>
      <trkpt lat="48.68429" lon="2.02912">
        <ele>179</ele>
        <time>2021-05-20T08:38:03.002Z</time>
      </trkpt>
      <trkpt lat="48.68428" lon="2.02913">
        <ele>180</ele>
        <time>2021-05-20T08:38:04.002Z</time>
      </trkpt>
      <trkpt lat="48.68426" lon="2.02913">
        <ele>180</ele>
        <time>2021-05-20T08:38:05.002Z</time>
      </trkpt>
      <trkpt lat="48.68424" lon="2.02913">
        <ele>180</ele>
        <time>2021-05-20T08:38:06.002Z</time>
      </trkpt>
      <trkpt lat="48.68423" lon="2.02913">
        <ele>180</ele>
        <time>2021-05-20T08:38:07.002Z</time>
      </trkpt>
      <trkpt lat="48.68421" lon="2.02913">
        <ele>180</ele>
        <time>2021-05-20T08:38:08.002Z</time>
      </trkpt>
      <trkpt lat="48.6842" lon="2.02913">
        <ele>180</ele>
        <time>2021-05-20T08:38:09.002Z</time>
      </trkpt>
      <trkpt lat="48.68418" lon="2.02913">
        <ele>179</ele>
        <time>2021-05-20T08:38:10.002Z</time>
      </trkpt>
      <trkpt lat="48.68417" lon="2.02913">
        <ele>179</ele>
        <time>2021-05-20T08:38:11.002Z</time>
      </trkpt>
      <trkpt lat="48.68415" lon="2.02912">
        <ele>179</ele>
        <time>2021-05-20T08:38:12.002Z</time>
      </trkpt>
      <trkpt lat="48.68414" lon="2.02912">
        <ele>179</ele>
        <time>2021-05-20T08:38:13.002Z</time>
      </trkpt>
      <trkpt lat="48.68413" lon="2.02913">
        <ele>179</ele>
        <time>2021-05-20T08:38:14.002Z</time>
      </trkpt>
      <trkpt lat="48.68411" lon="2.02913">
        <ele>179</ele>
        <time>2021-05-20T08:38:15.002Z</time>
      </trkpt>
      <trkpt lat="48.6841" lon="2.02913">
        <ele>179</ele>
        <time>2021-05-20T08:38:16.002Z</time>
      </trkpt>
      <trkpt lat="48.68409" lon="2.02913">
        <ele>179</ele>
        <time>2021-05-20T08:38:17.002Z</time>
      </trkpt>
      <trkpt lat="48.68408" lon="2.02913">
        <ele>179</ele>
        <time>2021-05-20T08:38:18.002Z</time>
      </trkpt>
      <trkpt lat="48.68407" lon="2.02913">
        <ele>179</ele>
        <time>2021-05-20T08:38:19.002Z</time>
      </trkpt>
      <trkpt lat="48.68405" lon="2.02913">
        <ele>179</ele>
        <time>2021-05-20T08:38:20.002Z</time>
      </trkpt>
      <trkpt lat="48.68404" lon="2.02913">
        <ele>179</ele>
        <time>2021-05-20T08:38:21.002Z</time>
      </trkpt>
      <trkpt lat="48.68402" lon="2.02913">
        <ele>179</ele>
        <time>2021-05-20T08:38:22.002Z</time>
      </trkpt>
      <trkpt lat="48.68401" lon="2.02914">
        <ele>179</ele>
        <time>2021-05-20T08:38:23.002Z</time>
      </trkpt>
      <trkpt lat="48.68399" lon="2.02914">
        <ele>179</ele>
        <time>2021-05-20T08:38:24.002Z</time>
      </trkpt>
      <trkpt lat="48.68398" lon="2.02914">
        <ele>179</ele>
        <time>2021-05-20T08:38:25.002Z</time>
      </trkpt>
      <trkpt lat="48.68397" lon="2.02914">
        <ele>179</ele>
        <time>2021-05-20T08:38:26.002Z</time>
      </trkpt>
      <trkpt lat="48.68396" lon="2.02914">
        <ele>179</ele>
        <time>2021-05-20T08:38:27.002Z</time>
      </trkpt>
      <trkpt lat="48.68395" lon="2.02914">
        <ele>179</ele>
        <time>2021-05-20T08:38:28.002Z</time>
      </trkpt>
      <trkpt lat="48.68394" lon="2.02915">
        <ele>179</ele>
        <time>2021-05-20T08:38:29.002Z</time>
      </trkpt>
      <trkpt lat="48.68392" lon="2.02915">
        <ele>179</ele>
        <time>2021-05-20T08:38:30.002Z</time>
      </trkpt>
      <trkpt lat="48.68391" lon="2.02916">
        <ele>179</ele>
        <time>2021-05-20T08:38:31.002Z</time>
      </trkpt>
      <trkpt lat="48.68389" lon="2.02917">
        <ele>178</ele>
        <time>2021-05-20T08:38:32.002Z</time>
      </trkpt>
      <trkpt lat="48.68388" lon="2.02917">
        <ele>178</ele>
        <time>2021-05-20T08:38:33.002Z</time>
      </trkpt>
      <trkpt lat="48.68387" lon="2.02918">
        <ele>178</ele>
        <time>2021-05-20T08:38:34.002Z</time>
      </trkpt>
      <trkpt lat="48.68386" lon="2.02918">
        <ele>178</ele>
        <time>2021-05-20T08:38:35.002Z</time>
      </trkpt>
      <trkpt lat="48.68384" lon="2.02918">
        <ele>178</ele>
        <time>2021-05-20T08:38:36.002Z</time>
      </trkpt>
      <trkpt lat="48.68383" lon="2.02919">
        <ele>178</ele>
        <time>2021-05-20T08:38:37.002Z</time>
      </trkpt>
      <trkpt lat="48.68382" lon="2.0292">
        <ele>178</ele>
        <time>2021-05-20T08:38:38.002Z</time>
      </trkpt>
      <trkpt lat="48.6838" lon="2.0292">
        <ele>178</ele>
        <time>2021-05-20T08:38:39.002Z</time>
      </trkpt>
      <trkpt lat="48.68379" lon="2.02921">
        <ele>178</ele>
        <time>2021-05-20T08:38:40.002Z</time>
      </trkpt>
      <trkpt lat="48.68378" lon="2.02922">
        <ele>178</ele>
        <time>2021-05-20T08:38:41.002Z</time>
      </trkpt>
      <trkpt lat="48.68377" lon="2.02923">
        <ele>177</ele>
        <time>2021-05-20T08:38:42.002Z</time>
      </trkpt>
      <trkpt lat="48.68376" lon="2.02923">
        <ele>177</ele>
        <time>2021-05-20T08:38:43.002Z</time>
      </trkpt>
      <trkpt lat="48.68375" lon="2.02924">
        <ele>177</ele>
        <time>2021-05-20T08:38:44.002Z</time>
      </trkpt>
      <trkpt lat="48.68374" lon="2.02925">
        <ele>177</ele>
        <time>2021-05-20T08:38:45.002Z</time>
      </trkpt>
      <trkpt lat="48.68372" lon="2.02926">
        <ele>177</ele>
        <time>2021-05-20T08:38:46.002Z</time>
      </trkpt>
      <trkpt lat="48.68371" lon="2.02927">
        <ele>177</ele>
        <time>2021-05-20T08:38:47.002Z</time>
      </trkpt>
      <trkpt lat="48.68369" lon="2.02928">
        <ele>177</ele>
        <time>2021-05-20T08:38:48.002Z</time>
      </trkpt>
      <trkpt lat="48.68368" lon="2.02929">
        <ele>177</ele>
        <time>2021-05-20T08:38:49.002Z</time>
      </trkpt>
      <trkpt lat="48.68367" lon="2.0293">
        <ele>177</ele>
        <time>2021-05-20T08:38:50.002Z</time>
      </trkpt>
      <trkpt lat="48.68366" lon="2.02931">
        <ele>177</ele>
        <time>2021-05-20T08:38:51.002Z</time>
      </trkpt>
      <trkpt lat="48.68364" lon="2.02931">
        <ele>177</ele>
        <time>2021-05-20T08:38:52.002Z</time>
      </trkpt>
      <trkpt lat="48.68363" lon="2.02932">
        <ele>177</ele>
        <time>2021-05-20T08:38:53.002Z</time>
      </trkpt>
      <trkpt lat="48.68361" lon="2.02933">
        <ele>177</ele>
        <time>2021-05-20T08:38:54.002Z</time>
      </trkpt>
      <trkpt lat="48.6836" lon="2.02933">
        <ele>178</ele>
        <time>2021-05-20T08:38:55.002Z</time>
      </trkpt>
      <trkpt lat="48.68359" lon="2.02934">
        <ele>178</ele>
        <time>2021-05-20T08:38:56.002Z</time>
      </trkpt>
      <trkpt lat="48.68357" lon="2.02935">
        <ele>177</ele>
        <time>2021-05-20T08:38:57.002Z</time>
      </trkpt>
      <trkpt lat="48.68356" lon="2.02936">
        <ele>177</ele>
        <time>2021-05-20T08:38:58.002Z</time>
      </trkpt>
      <trkpt lat="48.68355" lon="2.02937">
        <ele>177</ele>
        <time>2021-05-20T08:38:59.002Z</time>
      </trkpt>
      <trkpt lat="48.68353" lon="2.02938">
        <ele>177</ele>
        <time>2021-05-20T08:39:00.002Z</time>
      </trkpt>
      <trkpt lat="48.68352" lon="2.02938">
        <ele>177</ele>
        <time>2021-05-20T08:39:01.002Z</time>
      </trkpt>
      <trkpt lat="48.68351" lon="2.02939">
        <ele>177</ele>
        <time>2021-05-20T08:39:02.002Z</time>
      </trkpt>
      <trkpt lat="48.6835" lon="2.02939">
        <ele>177</ele>
        <time>2021-05-20T08:39:03.002Z</time>
      </trkpt>
      <trkpt lat="48.68349" lon="2.0294">
        <ele>178</ele>
        <time>2021-05-20T08:39:04.002Z</time>
      </trkpt>
      <trkpt lat="48.68347" lon="2.0294">
        <ele>177</ele>
        <time>2021-05-20T08:39:05.002Z</time>
      </trkpt>
      <trkpt lat="48.68346" lon="2.02941">
        <ele>177</ele>
        <time>2021-05-20T08:39:06.002Z</time>
      </trkpt>
      <trkpt lat="48.68345" lon="2.02941">
        <ele>177</ele>
        <time>2021-05-20T08:39:07.002Z</time>
      </trkpt>
      <trkpt lat="48.68344" lon="2.02942">
        <ele>177</ele>
        <time>2021-05-20T08:39:08.002Z</time>
      </trkpt>
      <trkpt lat="48.68342" lon="2.02942">
        <ele>177</ele>
        <time>2021-05-20T08:39:09.002Z</time>
      </trkpt>
      <trkpt lat="48.68341" lon="2.02943">
        <ele>177</ele>
        <time>2021-05-20T08:39:10.002Z</time>
      </trkpt>
      <trkpt lat="48.6834" lon="2.02944">
        <ele>177</ele>
        <time>2021-05-20T08:39:11.002Z</time>
      </trkpt>
      <trkpt lat="48.68338" lon="2.02944">
        <ele>177</ele>
        <time>2021-05-20T08:39:12.002Z</time>
      </trkpt>
      <trkpt lat="48.68337" lon="2.02944">
        <ele>177</ele>
        <time>2021-05-20T08:39:13.002Z</time>
      </trkpt>
      <trkpt lat="48.68335" lon="2.02945">
        <ele>177</ele>
        <time>2021-05-20T08:39:14.002Z</time>
      </trkpt>
      <trkpt lat="48.68334" lon="2.02945">
        <ele>177</ele>
        <time>2021-05-20T08:39:15.002Z</time>
      </trkpt>
      <trkpt lat="48.68332" lon="2.02946">
        <ele>177</ele>
        <time>2021-05-20T08:39:16.002Z</time>
      </trkpt>
      <trkpt lat="48.68331" lon="2.02946">
        <ele>177</ele>
        <time>2021-05-20T08:39:17.002Z</time>
      </trkpt>
      <trkpt lat="48.68329" lon="2.02947">
        <ele>177</ele>
        <time>2021-05-20T08:39:18.002Z</time>
      </trkpt>
      <trkpt lat="48.68327" lon="2.02947">
        <ele>177</ele>
        <time>2021-05-20T08:39:19.002Z</time>
      </trkpt>
      <trkpt lat="48.68326" lon="2.02948">
        <ele>177</ele>
        <time>2021-05-20T08:39:20.002Z</time>
      </trkpt>
      <trkpt lat="48.68324" lon="2.02949">
        <ele>178</ele>
        <time>2021-05-20T08:39:21.002Z</time>
      </trkpt>
      <trkpt lat="48.68322" lon="2.02949">
        <ele>178</ele>
        <time>2021-05-20T08:39:22.002Z</time>
      </trkpt>
      <trkpt lat="48.68321" lon="2.02949">
        <ele>178</ele>
        <time>2021-05-20T08:39:23.002Z</time>
      </trkpt>
      <trkpt lat="48.68319" lon="2.0295">
        <ele>178</ele>
        <time>2021-05-20T08:39:24.002Z</time>
      </trkpt>
      <trkpt lat="48.68317" lon="2.0295">
        <ele>178</ele>
        <time>2021-05-20T08:39:25.002Z</time>
      </trkpt>
      <trkpt lat="48.68316" lon="2.02951">
        <ele>178</ele>
        <time>2021-05-20T08:39:26.002Z</time>
      </trkpt>
      <trkpt lat="48.68315" lon="2.02951">
        <ele>178</ele>
        <time>2021-05-20T08:39:27.002Z</time>
      </trkpt>
      <trkpt lat="48.68314" lon="2.02952">
        <ele>178</ele>
        <time>2021-05-20T08:39:28.002Z</time>
      </trkpt>
      <trkpt lat="48.68313" lon="2.02952">
        <ele>178</ele>
        <time>2021-05-20T08:39:29.002Z</time>
      </trkpt>
      <trkpt lat="48.68312" lon="2.02953">
        <ele>178</ele>
        <time>2021-05-20T08:39:30.002Z</time>
      </trkpt>
      <trkpt lat="48.68311" lon="2.02953">
        <ele>178</ele>
        <time>2021-05-20T08:39:31.002Z</time>
      </trkpt>
      <trkpt lat="48.68311" lon="2.02953">
        <ele>178</ele>
        <time>2021-05-20T08:39:32.002Z</time>
      </trkpt>
      <trkpt lat="48.6831" lon="2.02953">
        <ele>178</ele>
        <time>2021-05-20T08:39:33.002Z</time>
      </trkpt>
      <trkpt lat="48.68309" lon="2.02953">
        <ele>178</ele>
        <time>2021-05-20T08:39:34.002Z</time>
      </trkpt>
      <trkpt lat="48.68308" lon="2.02954">
        <ele>178</ele>
        <time>2021-05-20T08:39:35.002Z</time>
      </trkpt>
      <trkpt lat="48.68306" lon="2.02954">
        <ele>179</ele>
        <time>2021-05-20T08:39:36.002Z</time>
      </trkpt>
      <trkpt lat="48.68305" lon="2.02955">
        <ele>179</ele>
        <time>2021-05-20T08:39:37.002Z</time>
      </trkpt>
      <trkpt lat="48.68304" lon="2.02956">
        <ele>179</ele>
        <time>2021-05-20T08:39:38.002Z</time>
      </trkpt>
      <trkpt lat="48.68303" lon="2.02956">
        <ele>179</ele>
        <time>2021-05-20T08:39:39.002Z</time>
      </trkpt>
      <trkpt lat="48.68301" lon="2.02956">
        <ele>178</ele>
        <time>2021-05-20T08:39:40.002Z</time>
      </trkpt>
      <trkpt lat="48.683" lon="2.02956">
        <ele>178</ele>
        <time>2021-05-20T08:39:41.002Z</time>
      </trkpt>
      <trkpt lat="48.68299" lon="2.02956">
        <ele>178</ele>
        <time>2021-05-20T08:39:42.002Z</time>
      </trkpt>
      <trkpt lat="48.68298" lon="2.02956">
        <ele>178</ele>
        <time>2021-05-20T08:39:43.002Z</time>
      </trkpt>
      <trkpt lat="48.68297" lon="2.02957">
        <ele>178</ele>
        <time>2021-05-20T08:39:44.002Z</time>
      </trkpt>
      <trkpt lat="48.68295" lon="2.02957">
        <ele>178</ele>
        <time>2021-05-20T08:39:45.002Z</time>
      </trkpt>
      <trkpt lat="48.68294" lon="2.02957">
        <ele>178</ele>
        <time>2021-05-20T08:39:46.002Z</time>
      </trkpt>
      <trkpt lat="48.68294" lon="2.02957">
        <ele>177</ele>
        <time>2021-05-20T08:39:47.002Z</time>
      </trkpt>
      <trkpt lat="48.68293" lon="2.02957">
        <ele>177</ele>
        <time>2021-05-20T08:39:48.002Z</time>
      </trkpt>
      <trkpt lat="48.68293" lon="2.02957">
        <ele>177</ele>
        <time>2021-05-20T08:39:49.002Z</time>
      </trkpt>
      <trkpt lat="48.68294" lon="2.02956">
        <ele>176</ele>
        <time>2021-05-20T08:39:50.002Z</time>
      </trkpt>
      <trkpt lat="48.68295" lon="2.02956">
        <ele>176</ele>
        <time>2021-05-20T08:39:51.002Z</time>
      </trkpt>
      <trkpt lat="48.68295" lon="2.02956">
        <ele>176</ele>
        <time>2021-05-20T08:39:52.002Z</time>
      </trkpt>
      <trkpt lat="48.68295" lon="2.02957">
        <ele>176</ele>
        <time>2021-05-20T08:39:53.002Z</time>
      </trkpt>
      <trkpt lat="48.68295" lon="2.02957">
        <ele>176</ele>
        <time>2021-05-20T08:39:54.002Z</time>
      </trkpt>
      <trkpt lat="48.68296" lon="2.02957">
        <ele>175</ele>
        <time>2021-05-20T08:39:55.002Z</time>
      </trkpt>
      <trkpt lat="48.68296" lon="2.02957">
        <ele>175</ele>
        <time>2021-05-20T08:39:56.002Z</time>
      </trkpt>
      <trkpt lat="48.68296" lon="2.02957">
        <ele>175</ele>
        <time>2021-05-20T08:39:57.002Z</time>
      </trkpt>
      <trkpt lat="48.68296" lon="2.0296">
        <ele>175</ele>
        <time>2021-05-20T08:39:58.002Z</time>
      </trkpt>
      <trkpt lat="48.68296" lon="2.02962">
        <ele>175</ele>
        <time>2021-05-20T08:39:59.002Z</time>
      </trkpt>
      <trkpt lat="48.68296" lon="2.02964">
        <ele>175</ele>
        <time>2021-05-20T08:40:00.002Z</time>
      </trkpt>
      <trkpt lat="48.68296" lon="2.02965">
        <ele>175</ele>
        <time>2021-05-20T08:40:01.002Z</time>
      </trkpt>
      <trkpt lat="48.68296" lon="2.02967">
        <ele>175</ele>
        <time>2021-05-20T08:40:02.002Z</time>
      </trkpt>
      <trkpt lat="48.68296" lon="2.02968">
        <ele>175</ele>
        <time>2021-05-20T08:40:03.002Z</time>
      </trkpt>
      <trkpt lat="48.68295" lon="2.02969">
        <ele>175</ele>
        <time>2021-05-20T08:40:04.002Z</time>
      </trkpt>
      <trkpt lat="48.68295" lon="2.02971">
        <ele>175</ele>
        <time>2021-05-20T08:40:05.002Z</time>
      </trkpt>
      <trkpt lat="48.68294" lon="2.02972">
        <ele>175</ele>
        <time>2021-05-20T08:40:06.002Z</time>
      </trkpt>
      <trkpt lat="48.68294" lon="2.02974">
        <ele>175</ele>
        <time>2021-05-20T08:40:10.005Z</time>
      </trkpt>
      <trkpt lat="48.68294" lon="2.02975">
        <ele>175</ele>
        <time>2021-05-20T08:40:11.005Z</time>
      </trkpt>
      <trkpt lat="48.68294" lon="2.02976">
        <ele>174</ele>
        <time>2021-05-20T08:40:12.005Z</time>
      </trkpt>
      <trkpt lat="48.68293" lon="2.02977">
        <ele>174</ele>
        <time>2021-05-20T08:40:13.005Z</time>
      </trkpt>
      <trkpt lat="48.68293" lon="2.02979">
        <ele>174</ele>
        <time>2021-05-20T08:40:14.005Z</time>
      </trkpt>
      <trkpt lat="48.68293" lon="2.0298">
        <ele>174</ele>
        <time>2021-05-20T08:40:15.005Z</time>
      </trkpt>
      <trkpt lat="48.68292" lon="2.02981">
        <ele>174</ele>
        <time>2021-05-20T08:40:16.005Z</time>
      </trkpt>
      <trkpt lat="48.68292" lon="2.02983">
        <ele>174</ele>
        <time>2021-05-20T08:40:17.005Z</time>
      </trkpt>
      <trkpt lat="48.68291" lon="2.02984">
        <ele>174</ele>
        <time>2021-05-20T08:40:18.005Z</time>
      </trkpt>
      <trkpt lat="48.6829" lon="2.02985">
        <ele>174</ele>
        <time>2021-05-20T08:40:19.005Z</time>
      </trkpt>
      <trkpt lat="48.6829" lon="2.02987">
        <ele>174</ele>
        <time>2021-05-20T08:40:20.005Z</time>
      </trkpt>
      <trkpt lat="48.68289" lon="2.02989">
        <ele>174</ele>
        <time>2021-05-20T08:40:21.005Z</time>
      </trkpt>
      <trkpt lat="48.68289" lon="2.0299">
        <ele>174</ele>
        <time>2021-05-20T08:40:22.005Z</time>
      </trkpt>
      <trkpt lat="48.68289" lon="2.02992">
        <ele>175</ele>
        <time>2021-05-20T08:40:23.005Z</time>
      </trkpt>
      <trkpt lat="48.68288" lon="2.02994">
        <ele>175</ele>
        <time>2021-05-20T08:40:24.005Z</time>
      </trkpt>
      <trkpt lat="48.68288" lon="2.02996">
        <ele>175</ele>
        <time>2021-05-20T08:40:25.005Z</time>
      </trkpt>
      <trkpt lat="48.68287" lon="2.02997">
        <ele>175</ele>
        <time>2021-05-20T08:40:26.005Z</time>
      </trkpt>
      <trkpt lat="48.68287" lon="2.02999">
        <ele>175</ele>
        <time>2021-05-20T08:40:27.005Z</time>
      </trkpt>
      <trkpt lat="48.68287" lon="2.03">
        <ele>176</ele>
        <time>2021-05-20T08:40:30.277Z</time>
      </trkpt>
      <trkpt lat="48.68287" lon="2.03002">
        <ele>176</ele>
        <time>2021-05-20T08:40:31.277Z</time>
      </trkpt>
      <trkpt lat="48.68287" lon="2.03003">
        <ele>176</ele>
        <time>2021-05-20T08:40:32.277Z</time>
      </trkpt>
      <trkpt lat="48.68287" lon="2.03004">
        <ele>176</ele>
        <time>2021-05-20T08:40:33.277Z</time>
      </trkpt>
      <trkpt lat="48.68286" lon="2.03006">
        <ele>176</ele>
        <time>2021-05-20T08:40:34.277Z</time>
      </trkpt>
      <trkpt lat="48.68286" lon="2.03007">
        <ele>177</ele>
        <time>2021-05-20T08:40:35.277Z</time>
      </trkpt>
      <trkpt lat="48.68285" lon="2.03009">
        <ele>177</ele>
        <time>2021-05-20T08:40:36.277Z</time>
      </trkpt>
      <trkpt lat="48.68285" lon="2.03011">
        <ele>177</ele>
        <time>2021-05-20T08:40:37.277Z</time>
      </trkpt>
      <trkpt lat="48.68284" lon="2.03012">
        <ele>177</ele>
        <time>2021-05-20T08:40:38.277Z</time>
      </trkpt>
      <trkpt lat="48.68284" lon="2.03013">
        <ele>177</ele>
        <time>2021-05-20T08:40:39.277Z</time>
      </trkpt>
      <trkpt lat="48.68283" lon="2.03015">
        <ele>177</ele>
        <time>2021-05-20T08:40:40.277Z</time>
      </trkpt>
      <trkpt lat="48.68282" lon="2.03016">
        <ele>177</ele>
        <time>2021-05-20T08:40:43.548Z</time>
      </trkpt>
      <trkpt lat="48.68281" lon="2.03018">
        <ele>177</ele>
        <time>2021-05-20T08:40:44.548Z</time>
      </trkpt>
      <trkpt lat="48.6828" lon="2.0302">
        <ele>177</ele>
        <time>2021-05-20T08:40:45.548Z</time>
      </trkpt>
      <trkpt lat="48.68279" lon="2.03022">
        <ele>177</ele>
        <time>2021-05-20T08:40:46.548Z</time>
      </trkpt>
      <trkpt lat="48.68279" lon="2.03023">
        <ele>177</ele>
        <time>2021-05-20T08:40:47.548Z</time>
      </trkpt>
      <trkpt lat="48.68278" lon="2.03025">
        <ele>177</ele>
        <time>2021-05-20T08:40:48.548Z</time>
      </trkpt>
      <trkpt lat="48.68277" lon="2.03027">
        <ele>177</ele>
        <time>2021-05-20T08:41:11.549Z</time>
      </trkpt>
      <trkpt lat="48.68276" lon="2.0303">
        <ele>177</ele>
        <time>2021-05-20T08:41:12.549Z</time>
      </trkpt>
      <trkpt lat="48.68276" lon="2.03031">
        <ele>178</ele>
        <time>2021-05-20T08:41:13.549Z</time>
      </trkpt>
      <trkpt lat="48.68275" lon="2.03033">
        <ele>178</ele>
        <time>2021-05-20T08:41:14.549Z</time>
      </trkpt>
      <trkpt lat="48.68274" lon="2.03035">
        <ele>178</ele>
        <time>2021-05-20T08:41:15.549Z</time>
      </trkpt>
      <trkpt lat="48.68273" lon="2.03037">
        <ele>178</ele>
        <time>2021-05-20T08:41:16.549Z</time>
      </trkpt>
      <trkpt lat="48.68272" lon="2.03039">
        <ele>178</ele>
        <time>2021-05-20T08:41:17.549Z</time>
      </trkpt>
      <trkpt lat="48.68272" lon="2.03041">
        <ele>178</ele>
        <time>2021-05-20T08:41:18.549Z</time>
      </trkpt>
      <trkpt lat="48.68271" lon="2.03042">
        <ele>178</ele>
        <time>2021-05-20T08:41:19.549Z</time>
      </trkpt>
      <trkpt lat="48.6827" lon="2.03044">
        <ele>178</ele>
        <time>2021-05-20T08:41:20.549Z</time>
      </trkpt>
      <trkpt lat="48.68269" lon="2.03045">
        <ele>178</ele>
        <time>2021-05-20T08:41:21.549Z</time>
      </trkpt>
      <trkpt lat="48.68269" lon="2.03046">
        <ele>178</ele>
        <time>2021-05-20T08:41:22.549Z</time>
      </trkpt>
      <trkpt lat="48.68268" lon="2.03048">
        <ele>179</ele>
        <time>2021-05-20T08:41:23.549Z</time>
      </trkpt>
      <trkpt lat="48.68268" lon="2.03049">
        <ele>179</ele>
        <time>2021-05-20T08:41:24.549Z</time>
      </trkpt>
      <trkpt lat="48.68267" lon="2.03051">
        <ele>179</ele>
        <time>2021-05-20T08:41:25.549Z</time>
      </trkpt>
      <trkpt lat="48.68267" lon="2.03053">
        <ele>179</ele>
        <time>2021-05-20T08:41:26.549Z</time>
      </trkpt>
      <trkpt lat="48.68266" lon="2.03054">
        <ele>179</ele>
        <time>2021-05-20T08:41:27.549Z</time>
      </trkpt>
      <trkpt lat="48.68266" lon="2.03055">
        <ele>179</ele>
        <time>2021-05-20T08:41:28.549Z</time>
      </trkpt>
      <trkpt lat="48.68265" lon="2.03057">
        <ele>179</ele>
        <time>2021-05-20T08:41:44.550Z</time>
      </trkpt>
      <trkpt lat="48.68264" lon="2.03058">
        <ele>179</ele>
        <time>2021-05-20T08:41:45.550Z</time>
      </trkpt>
      <trkpt lat="48.68264" lon="2.0306">
        <ele>179</ele>
        <time>2021-05-20T08:41:49.175Z</time>
      </trkpt>
      <trkpt lat="48.68263" lon="2.03062">
        <ele>179</ele>
        <time>2021-05-20T08:41:50.175Z</time>
      </trkpt>
      <trkpt lat="48.68262" lon="2.03063">
        <ele>179</ele>
        <time>2021-05-20T08:41:51.175Z</time>
      </trkpt>
      <trkpt lat="48.68262" lon="2.03065">
        <ele>179</ele>
        <time>2021-05-20T08:41:52.175Z</time>
      </trkpt>
      <trkpt lat="48.68261" lon="2.03066">
        <ele>178</ele>
        <time>2021-05-20T08:41:53.175Z</time>
      </trkpt>
      <trkpt lat="48.6826" lon="2.03068">
        <ele>178</ele>
        <time>2021-05-20T08:41:54.175Z</time>
      </trkpt>
      <trkpt lat="48.6826" lon="2.0307">
        <ele>178</ele>
        <time>2021-05-20T08:41:55.175Z</time>
      </trkpt>
      <trkpt lat="48.68259" lon="2.03072">
        <ele>178</ele>
        <time>2021-05-20T08:41:59.175Z</time>
      </trkpt>
      <trkpt lat="48.68258" lon="2.03074">
        <ele>178</ele>
        <time>2021-05-20T08:42:00.175Z</time>
      </trkpt>
      <trkpt lat="48.68257" lon="2.03075">
        <ele>178</ele>
        <time>2021-05-20T08:42:01.175Z</time>
      </trkpt>
      <trkpt lat="48.68256" lon="2.03077">
        <ele>178</ele>
        <time>2021-05-20T08:42:02.175Z</time>
      </trkpt>
      <trkpt lat="48.68256" lon="2.03078">
        <ele>178</ele>
        <time>2021-05-20T08:42:07.178Z</time>
      </trkpt>
      <trkpt lat="48.68255" lon="2.0308">
        <ele>178</ele>
        <time>2021-05-20T08:42:08.178Z</time>
      </trkpt>
      <trkpt lat="48.68254" lon="2.03082">
        <ele>178</ele>
        <time>2021-05-20T08:42:09.178Z</time>
      </trkpt>
      <trkpt lat="48.68254" lon="2.03083">
        <ele>179</ele>
        <time>2021-05-20T08:42:10.178Z</time>
      </trkpt>
      <trkpt lat="48.68253" lon="2.03084">
        <ele>179</ele>
        <time>2021-05-20T08:42:11.178Z</time>
      </trkpt>
      <trkpt lat="48.68253" lon="2.03086">
        <ele>179</ele>
        <time>2021-05-20T08:42:12.178Z</time>
      </trkpt>
      <trkpt lat="48.68252" lon="2.03087">
        <ele>179</ele>
        <time>2021-05-20T08:42:13.178Z</time>
      </trkpt>
      <trkpt lat="48.68252" lon="2.03088">
        <ele>178</ele>
        <time>2021-05-20T08:42:14.178Z</time>
      </trkpt>
      <trkpt lat="48.68251" lon="2.0309">
        <ele>178</ele>
        <time>2021-05-20T08:42:15.178Z</time>
      </trkpt>
      <trkpt lat="48.6825" lon="2.03091">
        <ele>178</ele>
        <time>2021-05-20T08:42:16.178Z</time>
      </trkpt>
      <trkpt lat="48.6825" lon="2.03093">
        <ele>178</ele>
        <time>2021-05-20T08:42:17.178Z</time>
      </trkpt>
      <trkpt lat="48.68249" lon="2.03095">
        <ele>178</ele>
        <time>2021-05-20T08:42:18.178Z</time>
      </trkpt>
      <trkpt lat="48.68248" lon="2.03097">
        <ele>178</ele>
        <time>2021-05-20T08:42:19.178Z</time>
      </trkpt>
      <trkpt lat="48.68248" lon="2.03099">
        <ele>178</ele>
        <time>2021-05-20T08:42:20.178Z</time>
      </trkpt>
      <trkpt lat="48.68247" lon="2.031">
        <ele>178</ele>
        <time>2021-05-20T08:42:21.178Z</time>
      </trkpt>
      <trkpt lat="48.68246" lon="2.03102">
        <ele>178</ele>
        <time>2021-05-20T08:42:22.178Z</time>
      </trkpt>
      <trkpt lat="48.68245" lon="2.03103">
        <ele>177</ele>
        <time>2021-05-20T08:42:23.178Z</time>
      </trkpt>
      <trkpt lat="48.68244" lon="2.03105">
        <ele>177</ele>
        <time>2021-05-20T08:42:24.178Z</time>
      </trkpt>
      <trkpt lat="48.68243" lon="2.03107">
        <ele>177</ele>
        <time>2021-05-20T08:42:25.178Z</time>
      </trkpt>
      <trkpt lat="48.68242" lon="2.03109">
        <ele>177</ele>
        <time>2021-05-20T08:42:26.178Z</time>
      </trkpt>
      <trkpt lat="48.68242" lon="2.0311">
        <ele>177</ele>
        <time>2021-05-20T08:42:27.178Z</time>
      </trkpt>
      <trkpt lat="48.68241" lon="2.03112">
        <ele>177</ele>
        <time>2021-05-20T08:42:28.178Z</time>
      </trkpt>
      <trkpt lat="48.6824" lon="2.03113">
        <ele>176</ele>
        <time>2021-05-20T08:42:29.178Z</time>
      </trkpt>
      <trkpt lat="48.6824" lon="2.03114">
        <ele>176</ele>
        <time>2021-05-20T08:42:30.178Z</time>
      </trkpt>
      <trkpt lat="48.68239" lon="2.03116">
        <ele>176</ele>
        <time>2021-05-20T08:42:31.178Z</time>
      </trkpt>
      <trkpt lat="48.68238" lon="2.03118">
        <ele>176</ele>
        <time>2021-05-20T08:42:32.178Z</time>
      </trkpt>
      <trkpt lat="48.68238" lon="2.0312">
        <ele>176</ele>
        <time>2021-05-20T08:42:33.178Z</time>
      </trkpt>
      <trkpt lat="48.68237" lon="2.03121">
        <ele>176</ele>
        <time>2021-05-20T08:42:34.178Z</time>
      </trkpt>
      <trkpt lat="48.68236" lon="2.03123">
        <ele>175</ele>
        <time>2021-05-20T08:42:35.178Z</time>
      </trkpt>
      <trkpt lat="48.68236" lon="2.03125">
        <ele>175</ele>
        <time>2021-05-20T08:42:36.178Z</time>
      </trkpt>
      <trkpt lat="48.68236" lon="2.03126">
        <ele>175</ele>
        <time>2021-05-20T08:42:37.178Z</time>
      </trkpt>
      <trkpt lat="48.68235" lon="2.03128">
        <ele>175</ele>
        <time>2021-05-20T08:42:38.178Z</time>
      </trkpt>
      <trkpt lat="48.68235" lon="2.0313">
        <ele>175</ele>
        <time>2021-05-20T08:42:41.449Z</time>
      </trkpt>
      <trkpt lat="48.68234" lon="2.03131">
        <ele>175</ele>
        <time>2021-05-20T08:42:42.449Z</time>
      </trkpt>
      <trkpt lat="48.68234" lon="2.03133">
        <ele>175</ele>
        <time>2021-05-20T08:42:43.449Z</time>
      </trkpt>
      <trkpt lat="48.68233" lon="2.03135">
        <ele>175</ele>
        <time>2021-05-20T08:42:44.449Z</time>
      </trkpt>
      <trkpt lat="48.68233" lon="2.03136">
        <ele>175</ele>
        <time>2021-05-20T08:42:45.449Z</time>
      </trkpt>
      <trkpt lat="48.68233" lon="2.03137">
        <ele>175</ele>
        <time>2021-05-20T08:42:46.449Z</time>
      </trkpt>
      <trkpt lat="48.68233" lon="2.03139">
        <ele>174</ele>
        <time>2021-05-20T08:42:47.449Z</time>
      </trkpt>
      <trkpt lat="48.68233" lon="2.0314">
        <ele>174</ele>
        <time>2021-05-20T08:42:48.449Z</time>
      </trkpt>
      <trkpt lat="48.68232" lon="2.03142">
        <ele>174</ele>
        <time>2021-05-20T08:42:49.449Z</time>
      </trkpt>
      <trkpt lat="48.68232" lon="2.03143">
        <ele>174</ele>
        <time>2021-05-20T08:42:50.449Z</time>
      </trkpt>
      <trkpt lat="48.68231" lon="2.03144">
        <ele>174</ele>
        <time>2021-05-20T08:42:51.449Z</time>
      </trkpt>
      <trkpt lat="48.68231" lon="2.03146">
        <ele>174</ele>
        <time>2021-05-20T08:42:52.449Z</time>
      </trkpt>
      <trkpt lat="48.68231" lon="2.03147">
        <ele>174</ele>
        <time>2021-05-20T08:42:53.449Z</time>
      </trkpt>
      <trkpt lat="48.6823" lon="2.03149">
        <ele>174</ele>
        <time>2021-05-20T08:42:54.449Z</time>
      </trkpt>
      <trkpt lat="48.6823" lon="2.03151">
        <ele>173</ele>
        <time>2021-05-20T08:42:55.449Z</time>
      </trkpt>
      <trkpt lat="48.68229" lon="2.03153">
        <ele>173</ele>
        <time>2021-05-20T08:42:56.449Z</time>
      </trkpt>
      <trkpt lat="48.68229" lon="2.03154">
        <ele>173</ele>
        <time>2021-05-20T08:42:57.449Z</time>
      </trkpt>
      <trkpt lat="48.68229" lon="2.03156">
        <ele>173</ele>
        <time>2021-05-20T08:42:58.449Z</time>
      </trkpt>
      <trkpt lat="48.68228" lon="2.03158">
        <ele>173</ele>
        <time>2021-05-20T08:42:59.449Z</time>
      </trkpt>
      <trkpt lat="48.68228" lon="2.0316">
        <ele>173</ele>
        <time>2021-05-20T08:43:00.449Z</time>
      </trkpt>
      <trkpt lat="48.68228" lon="2.03162">
        <ele>172</ele>
        <time>2021-05-20T08:43:01.449Z</time>
      </trkpt>
      <trkpt lat="48.68227" lon="2.03163">
        <ele>172</ele>
        <time>2021-05-20T08:43:02.449Z</time>
      </trkpt>
      <trkpt lat="48.68227" lon="2.03165">
        <ele>172</ele>
        <time>2021-05-20T08:43:03.449Z</time>
      </trkpt>
      <trkpt lat="48.68227" lon="2.03167">
        <ele>172</ele>
        <time>2021-05-20T08:43:04.449Z</time>
      </trkpt>
      <trkpt lat="48.68226" lon="2.03168">
        <ele>172</ele>
        <time>2021-05-20T08:43:05.449Z</time>
      </trkpt>
      <trkpt lat="48.68226" lon="2.0317">
        <ele>172</ele>
        <time>2021-05-20T08:43:06.449Z</time>
      </trkpt>
      <trkpt lat="48.68226" lon="2.03172">
        <ele>172</ele>
        <time>2021-05-20T08:43:07.449Z</time>
      </trkpt>
      <trkpt lat="48.68225" lon="2.03174">
        <ele>172</ele>
        <time>2021-05-20T08:43:08.449Z</time>
      </trkpt>
      <trkpt lat="48.68225" lon="2.03176">
        <ele>172</ele>
        <time>2021-05-20T08:43:09.449Z</time>
      </trkpt>
      <trkpt lat="48.68225" lon="2.03178">
        <ele>172</ele>
        <time>2021-05-20T08:43:10.449Z</time>
      </trkpt>
      <trkpt lat="48.68224" lon="2.03179">
        <ele>171</ele>
        <time>2021-05-20T08:43:11.449Z</time>
      </trkpt>
      <trkpt lat="48.68224" lon="2.03181">
        <ele>171</ele>
        <time>2021-05-20T08:43:12.449Z</time>
      </trkpt>
      <trkpt lat="48.68223" lon="2.03184">
        <ele>171</ele>
        <time>2021-05-20T08:43:13.449Z</time>
      </trkpt>
      <trkpt lat="48.68223" lon="2.03186">
        <ele>171</ele>
        <time>2021-05-20T08:43:14.449Z</time>
      </trkpt>
      <trkpt lat="48.68222" lon="2.03189">
        <ele>171</ele>
        <time>2021-05-20T08:43:15.449Z</time>
      </trkpt>
      <trkpt lat="48.68222" lon="2.03191">
        <ele>171</ele>
        <time>2021-05-20T08:43:16.449Z</time>
      </trkpt>
      <trkpt lat="48.68221" lon="2.03194">
        <ele>171</ele>
        <time>2021-05-20T08:43:17.449Z</time>
      </trkpt>
      <trkpt lat="48.68221" lon="2.03197">
        <ele>171</ele>
        <time>2021-05-20T08:43:18.449Z</time>
      </trkpt>
      <trkpt lat="48.6822" lon="2.03199">
        <ele>171</ele>
        <time>2021-05-20T08:43:19.449Z</time>
      </trkpt>
      <trkpt lat="48.6822" lon="2.03201">
        <ele>171</ele>
        <time>2021-05-20T08:43:20.449Z</time>
      </trkpt>
      <trkpt lat="48.6822" lon="2.03202">
        <ele>171</ele>
        <time>2021-05-20T08:43:21.449Z</time>
      </trkpt>
      <trkpt lat="48.68219" lon="2.03204">
        <ele>171</ele>
        <time>2021-05-20T08:43:34.461Z</time>
      </trkpt>
      <trkpt lat="48.68219" lon="2.03206">
        <ele>171</ele>
        <time>2021-05-20T08:43:35.461Z</time>
      </trkpt>
      <trkpt lat="48.68219" lon="2.03207">
        <ele>171</ele>
        <time>2021-05-20T08:43:36.461Z</time>
      </trkpt>
      <trkpt lat="48.68219" lon="2.03209">
        <ele>171</ele>
        <time>2021-05-20T08:43:48.473Z</time>
      </trkpt>
      <trkpt lat="48.68218" lon="2.0321">
        <ele>171</ele>
        <time>2021-05-20T08:43:49.473Z</time>
      </trkpt>
      <trkpt lat="48.68218" lon="2.03212">
        <ele>171</ele>
        <time>2021-05-20T08:43:50.473Z</time>
      </trkpt>
      <trkpt lat="48.68217" lon="2.03214">
        <ele>171</ele>
        <time>2021-05-20T08:44:01.487Z</time>
      </trkpt>
      <trkpt lat="48.68217" lon="2.03216">
        <ele>171</ele>
        <time>2021-05-20T08:44:02.487Z</time>
      </trkpt>
      <trkpt lat="48.68217" lon="2.03217">
        <ele>171</ele>
        <time>2021-05-20T08:44:05.759Z</time>
      </trkpt>
      <trkpt lat="48.68216" lon="2.03219">
        <ele>171</ele>
        <time>2021-05-20T08:44:06.759Z</time>
      </trkpt>
      <trkpt lat="48.68216" lon="2.03221">
        <ele>171</ele>
        <time>2021-05-20T08:44:07.759Z</time>
      </trkpt>
      <trkpt lat="48.68216" lon="2.03222">
        <ele>171</ele>
        <time>2021-05-20T08:44:08.759Z</time>
      </trkpt>
      <trkpt lat="48.68216" lon="2.03223">
        <ele>171</ele>
        <time>2021-05-20T08:44:09.759Z</time>
      </trkpt>
      <trkpt lat="48.68215" lon="2.03225">
        <ele>172</ele>
        <time>2021-05-20T08:44:10.759Z</time>
      </trkpt>
      <trkpt lat="48.68215" lon="2.03227">
        <ele>172</ele>
        <time>2021-05-20T08:44:11.759Z</time>
      </trkpt>
      <trkpt lat="48.68214" lon="2.03229">
        <ele>172</ele>
        <time>2021-05-20T08:44:12.759Z</time>
      </trkpt>
      <trkpt lat="48.68213" lon="2.03231">
        <ele>172</ele>
        <time>2021-05-20T08:44:13.759Z</time>
      </trkpt>
      <trkpt lat="48.68212" lon="2.03234">
        <ele>172</ele>
        <time>2021-05-20T08:44:14.759Z</time>
      </trkpt>
      <trkpt lat="48.68211" lon="2.03236">
        <ele>172</ele>
        <time>2021-05-20T08:44:15.759Z</time>
      </trkpt>
      <trkpt lat="48.68209" lon="2.03238">
        <ele>172</ele>
        <time>2021-05-20T08:44:16.759Z</time>
      </trkpt>
      <trkpt lat="48.68208" lon="2.0324">
        <ele>172</ele>
        <time>2021-05-20T08:44:17.759Z</time>
      </trkpt>
      <trkpt lat="48.68207" lon="2.03242">
        <ele>172</ele>
        <time>2021-05-20T08:44:18.759Z</time>
      </trkpt>
      <trkpt lat="48.68206" lon="2.03244">
        <ele>172</ele>
        <time>2021-05-20T08:44:19.759Z</time>
      </trkpt>
      <trkpt lat="48.68205" lon="2.03245">
        <ele>173</ele>
        <time>2021-05-20T08:44:20.759Z</time>
      </trkpt>
      <trkpt lat="48.68204" lon="2.03247">
        <ele>173</ele>
        <time>2021-05-20T08:44:21.759Z</time>
      </trkpt>
      <trkpt lat="48.68203" lon="2.03248">
        <ele>173</ele>
        <time>2021-05-20T08:44:22.759Z</time>
      </trkpt>
      <trkpt lat="48.68202" lon="2.0325">
        <ele>173</ele>
        <time>2021-05-20T08:44:23.759Z</time>
      </trkpt>
      <trkpt lat="48.68201" lon="2.03252">
        <ele>173</ele>
        <time>2021-05-20T08:44:24.759Z</time>
      </trkpt>
      <trkpt lat="48.68199" lon="2.03253">
        <ele>173</ele>
        <time>2021-05-20T08:44:25.759Z</time>
      </trkpt>
      <trkpt lat="48.68198" lon="2.03255">
        <ele>173</ele>
        <time>2021-05-20T08:44:26.759Z</time>
      </trkpt>
      <trkpt lat="48.68197" lon="2.03257">
        <ele>173</ele>
        <time>2021-05-20T08:44:27.759Z</time>
      </trkpt>
      <trkpt lat="48.68195" lon="2.03259">
        <ele>173</ele>
        <time>2021-05-20T08:44:28.759Z</time>
      </trkpt>
      <trkpt lat="48.68194" lon="2.0326">
        <ele>174</ele>
        <time>2021-05-20T08:44:29.759Z</time>
      </trkpt>
      <trkpt lat="48.68193" lon="2.03261">
        <ele>174</ele>
        <time>2021-05-20T08:44:30.759Z</time>
      </trkpt>
      <trkpt lat="48.68192" lon="2.03263">
        <ele>174</ele>
        <time>2021-05-20T08:44:31.759Z</time>
      </trkpt>
      <trkpt lat="48.68191" lon="2.03264">
        <ele>174</ele>
        <time>2021-05-20T08:44:32.759Z</time>
      </trkpt>
      <trkpt lat="48.6819" lon="2.03265">
        <ele>174</ele>
        <time>2021-05-20T08:44:33.759Z</time>
      </trkpt>
      <trkpt lat="48.68189" lon="2.03266">
        <ele>174</ele>
        <time>2021-05-20T08:44:34.759Z</time>
      </trkpt>
      <trkpt lat="48.68188" lon="2.03266">
        <ele>174</ele>
        <time>2021-05-20T08:44:35.759Z</time>
      </trkpt>
      <trkpt lat="48.68187" lon="2.03267">
        <ele>174</ele>
        <time>2021-05-20T08:44:36.759Z</time>
      </trkpt>
      <trkpt lat="48.68185" lon="2.03269">
        <ele>174</ele>
        <time>2021-05-20T08:44:37.759Z</time>
      </trkpt>
      <trkpt lat="48.68184" lon="2.0327">
        <ele>174</ele>
        <time>2021-05-20T08:44:38.759Z</time>
      </trkpt>
      <trkpt lat="48.68183" lon="2.0327">
        <ele>174</ele>
        <time>2021-05-20T08:44:39.759Z</time>
      </trkpt>
      <trkpt lat="48.68181" lon="2.03271">
        <ele>174</ele>
        <time>2021-05-20T08:44:40.759Z</time>
      </trkpt>
      <trkpt lat="48.6818" lon="2.03272">
        <ele>174</ele>
        <time>2021-05-20T08:44:41.759Z</time>
      </trkpt>
      <trkpt lat="48.68179" lon="2.03273">
        <ele>174</ele>
        <time>2021-05-20T08:44:42.759Z</time>
      </trkpt>
      <trkpt lat="48.68178" lon="2.03274">
        <ele>174</ele>
        <time>2021-05-20T08:44:43.759Z</time>
      </trkpt>
      <trkpt lat="48.68177" lon="2.03275">
        <ele>174</ele>
        <time>2021-05-20T08:44:44.759Z</time>
      </trkpt>
      <trkpt lat="48.68177" lon="2.03276">
        <ele>174</ele>
        <time>2021-05-20T08:44:45.759Z</time>
      </trkpt>
      <trkpt lat="48.68175" lon="2.03276">
        <ele>174</ele>
        <time>2021-05-20T08:44:46.759Z</time>
      </trkpt>
      <trkpt lat="48.68174" lon="2.03277">
        <ele>174</ele>
        <time>2021-05-20T08:44:47.759Z</time>
      </trkpt>
      <trkpt lat="48.68173" lon="2.03278">
        <ele>174</ele>
        <time>2021-05-20T08:44:48.759Z</time>
      </trkpt>
      <trkpt lat="48.68172" lon="2.03279">
        <ele>174</ele>
        <time>2021-05-20T08:44:49.759Z</time>
      </trkpt>
      <trkpt lat="48.68171" lon="2.0328">
        <ele>174</ele>
        <time>2021-05-20T08:44:50.759Z</time>
      </trkpt>
      <trkpt lat="48.68169" lon="2.0328">
        <ele>174</ele>
        <time>2021-05-20T08:44:51.759Z</time>
      </trkpt>
      <trkpt lat="48.68168" lon="2.03281">
        <ele>174</ele>
        <time>2021-05-20T08:44:52.759Z</time>
      </trkpt>
      <trkpt lat="48.68167" lon="2.03281">
        <ele>174</ele>
        <time>2021-05-20T08:44:53.759Z</time>
      </trkpt>
      <trkpt lat="48.68166" lon="2.03282">
        <ele>174</ele>
        <time>2021-05-20T08:44:54.759Z</time>
      </trkpt>
      <trkpt lat="48.68164" lon="2.03283">
        <ele>174</ele>
        <time>2021-05-20T08:44:55.759Z</time>
      </trkpt>
      <trkpt lat="48.68163" lon="2.03284">
        <ele>174</ele>
        <time>2021-05-20T08:44:56.759Z</time>
      </trkpt>
      <trkpt lat="48.68162" lon="2.03285">
        <ele>174</ele>
        <time>2021-05-20T08:44:57.759Z</time>
      </trkpt>
      <trkpt lat="48.68161" lon="2.03286">
        <ele>174</ele>
        <time>2021-05-20T08:44:58.759Z</time>
      </trkpt>
      <trkpt lat="48.6816" lon="2.03286">
        <ele>174</ele>
        <time>2021-05-20T08:44:59.759Z</time>
      </trkpt>
      <trkpt lat="48.68159" lon="2.03287">
        <ele>173</ele>
        <time>2021-05-20T08:45:00.759Z</time>
      </trkpt>
      <trkpt lat="48.68158" lon="2.03288">
        <ele>173</ele>
        <time>2021-05-20T08:45:01.759Z</time>
      </trkpt>
      <trkpt lat="48.68157" lon="2.03288">
        <ele>173</ele>
        <time>2021-05-20T08:45:02.759Z</time>
      </trkpt>
      <trkpt lat="48.68155" lon="2.03289">
        <ele>173</ele>
        <time>2021-05-20T08:45:03.759Z</time>
      </trkpt>
      <trkpt lat="48.68154" lon="2.0329">
        <ele>173</ele>
        <time>2021-05-20T08:45:04.759Z</time>
      </trkpt>
      <trkpt lat="48.68153" lon="2.0329">
        <ele>173</ele>
        <time>2021-05-20T08:45:05.759Z</time>
      </trkpt>
      <trkpt lat="48.68151" lon="2.03291">
        <ele>173</ele>
        <time>2021-05-20T08:45:06.759Z</time>
      </trkpt>
      <trkpt lat="48.6815" lon="2.03291">
        <ele>173</ele>
        <time>2021-05-20T08:45:07.759Z</time>
      </trkpt>
      <trkpt lat="48.68148" lon="2.03292">
        <ele>172</ele>
        <time>2021-05-20T08:45:08.759Z</time>
      </trkpt>
      <trkpt lat="48.68147" lon="2.03292">
        <ele>172</ele>
        <time>2021-05-20T08:45:09.759Z</time>
      </trkpt>
      <trkpt lat="48.68146" lon="2.03293">
        <ele>172</ele>
        <time>2021-05-20T08:45:10.759Z</time>
      </trkpt>
      <trkpt lat="48.68145" lon="2.03293">
        <ele>172</ele>
        <time>2021-05-20T08:45:11.759Z</time>
      </trkpt>
      <trkpt lat="48.68144" lon="2.03293">
        <ele>172</ele>
        <time>2021-05-20T08:45:12.759Z</time>
      </trkpt>
      <trkpt lat="48.68143" lon="2.03294">
        <ele>172</ele>
        <time>2021-05-20T08:45:13.759Z</time>
      </trkpt>
      <trkpt lat="48.68141" lon="2.03294">
        <ele>172</ele>
        <time>2021-05-20T08:45:14.759Z</time>
      </trkpt>
      <trkpt lat="48.6814" lon="2.03295">
        <ele>172</ele>
        <time>2021-05-20T08:45:15.759Z</time>
      </trkpt>
      <trkpt lat="48.68138" lon="2.03296">
        <ele>172</ele>
        <time>2021-05-20T08:45:16.759Z</time>
      </trkpt>
      <trkpt lat="48.68137" lon="2.03297">
        <ele>171</ele>
        <time>2021-05-20T08:45:17.759Z</time>
      </trkpt>
      <trkpt lat="48.68135" lon="2.03297">
        <ele>171</ele>
        <time>2021-05-20T08:45:18.759Z</time>
      </trkpt>
      <trkpt lat="48.68134" lon="2.03298">
        <ele>171</ele>
        <time>2021-05-20T08:45:19.759Z</time>
      </trkpt>
      <trkpt lat="48.68132" lon="2.03299">
        <ele>171</ele>
        <time>2021-05-20T08:45:20.759Z</time>
      </trkpt>
      <trkpt lat="48.68131" lon="2.03299">
        <ele>171</ele>
        <time>2021-05-20T08:45:21.759Z</time>
      </trkpt>
      <trkpt lat="48.6813" lon="2.03299">
        <ele>171</ele>
        <time>2021-05-20T08:45:22.759Z</time>
      </trkpt>
      <trkpt lat="48.68129" lon="2.03299">
        <ele>171</ele>
        <time>2021-05-20T08:45:23.759Z</time>
      </trkpt>
      <trkpt lat="48.68127" lon="2.033">
        <ele>171</ele>
        <time>2021-05-20T08:45:24.759Z</time>
      </trkpt>
      <trkpt lat="48.68126" lon="2.033">
        <ele>170</ele>
        <time>2021-05-20T08:45:25.759Z</time>
      </trkpt>
      <trkpt lat="48.68124" lon="2.033">
        <ele>170</ele>
        <time>2021-05-20T08:45:26.759Z</time>
      </trkpt>
      <trkpt lat="48.68123" lon="2.03301">
        <ele>170</ele>
        <time>2021-05-20T08:45:27.759Z</time>
      </trkpt>
      <trkpt lat="48.68121" lon="2.03301">
        <ele>170</ele>
        <time>2021-05-20T08:45:28.759Z</time>
      </trkpt>
      <trkpt lat="48.6812" lon="2.03302">
        <ele>170</ele>
        <time>2021-05-20T08:45:29.759Z</time>
      </trkpt>
      <trkpt lat="48.68118" lon="2.03302">
        <ele>170</ele>
        <time>2021-05-20T08:45:30.759Z</time>
      </trkpt>
      <trkpt lat="48.68117" lon="2.03303">
        <ele>170</ele>
        <time>2021-05-20T08:45:31.759Z</time>
      </trkpt>
      <trkpt lat="48.68115" lon="2.03303">
        <ele>170</ele>
        <time>2021-05-20T08:45:32.759Z</time>
      </trkpt>
      <trkpt lat="48.68114" lon="2.03304">
        <ele>169</ele>
        <time>2021-05-20T08:45:33.759Z</time>
      </trkpt>
      <trkpt lat="48.68112" lon="2.03304">
        <ele>169</ele>
        <time>2021-05-20T08:45:34.759Z</time>
      </trkpt>
      <trkpt lat="48.68111" lon="2.03305">
        <ele>169</ele>
        <time>2021-05-20T08:45:35.759Z</time>
      </trkpt>
      <trkpt lat="48.6811" lon="2.03305">
        <ele>169</ele>
        <time>2021-05-20T08:45:36.759Z</time>
      </trkpt>
      <trkpt lat="48.68108" lon="2.03306">
        <ele>169</ele>
        <time>2021-05-20T08:45:37.759Z</time>
      </trkpt>
      <trkpt lat="48.68107" lon="2.03307">
        <ele>169</ele>
        <time>2021-05-20T08:45:38.759Z</time>
      </trkpt>
      <trkpt lat="48.68106" lon="2.03307">
        <ele>169</ele>
        <time>2021-05-20T08:45:39.759Z</time>
      </trkpt>
      <trkpt lat="48.68104" lon="2.03308">
        <ele>169</ele>
        <time>2021-05-20T08:45:40.759Z</time>
      </trkpt>
      <trkpt lat="48.68103" lon="2.03308">
        <ele>169</ele>
        <time>2021-05-20T08:45:41.759Z</time>
      </trkpt>
      <trkpt lat="48.68101" lon="2.03309">
        <ele>168</ele>
        <time>2021-05-20T08:45:42.759Z</time>
      </trkpt>
      <trkpt lat="48.681" lon="2.0331">
        <ele>168</ele>
        <time>2021-05-20T08:45:43.759Z</time>
      </trkpt>
      <trkpt lat="48.68099" lon="2.0331">
        <ele>168</ele>
        <time>2021-05-20T08:45:44.759Z</time>
      </trkpt>
      <trkpt lat="48.68098" lon="2.03311">
        <ele>168</ele>
        <time>2021-05-20T08:45:45.759Z</time>
      </trkpt>
      <trkpt lat="48.68097" lon="2.03312">
        <ele>168</ele>
        <time>2021-05-20T08:45:46.759Z</time>
      </trkpt>
      <trkpt lat="48.68096" lon="2.03312">
        <ele>168</ele>
        <time>2021-05-20T08:45:47.759Z</time>
      </trkpt>
      <trkpt lat="48.68095" lon="2.03313">
        <ele>168</ele>
        <time>2021-05-20T08:45:48.759Z</time>
      </trkpt>
      <trkpt lat="48.68093" lon="2.03314">
        <ele>168</ele>
        <time>2021-05-20T08:45:49.759Z</time>
      </trkpt>
      <trkpt lat="48.68092" lon="2.03315">
        <ele>168</ele>
        <time>2021-05-20T08:45:50.759Z</time>
      </trkpt>
      <trkpt lat="48.68091" lon="2.03316">
        <ele>168</ele>
        <time>2021-05-20T08:45:51.759Z</time>
      </trkpt>
      <trkpt lat="48.6809" lon="2.03317">
        <ele>169</ele>
        <time>2021-05-20T08:45:52.759Z</time>
      </trkpt>
      <trkpt lat="48.68088" lon="2.03318">
        <ele>169</ele>
        <time>2021-05-20T08:45:53.759Z</time>
      </trkpt>
      <trkpt lat="48.68087" lon="2.03318">
        <ele>169</ele>
        <time>2021-05-20T08:45:54.759Z</time>
      </trkpt>
      <trkpt lat="48.68085" lon="2.03319">
        <ele>169</ele>
        <time>2021-05-20T08:45:55.759Z</time>
      </trkpt>
      <trkpt lat="48.68084" lon="2.0332">
        <ele>169</ele>
        <time>2021-05-20T08:45:56.759Z</time>
      </trkpt>
      <trkpt lat="48.68083" lon="2.0332">
        <ele>169</ele>
        <time>2021-05-20T08:45:57.759Z</time>
      </trkpt>
      <trkpt lat="48.68081" lon="2.03321">
        <ele>169</ele>
        <time>2021-05-20T08:45:58.759Z</time>
      </trkpt>
      <trkpt lat="48.6808" lon="2.03321">
        <ele>168</ele>
        <time>2021-05-20T08:45:59.759Z</time>
      </trkpt>
      <trkpt lat="48.68078" lon="2.03321">
        <ele>168</ele>
        <time>2021-05-20T08:46:00.759Z</time>
      </trkpt>
      <trkpt lat="48.68077" lon="2.03322">
        <ele>168</ele>
        <time>2021-05-20T08:46:01.759Z</time>
      </trkpt>
      <trkpt lat="48.68076" lon="2.03323">
        <ele>168</ele>
        <time>2021-05-20T08:46:02.759Z</time>
      </trkpt>
      <trkpt lat="48.68074" lon="2.03323">
        <ele>168</ele>
        <time>2021-05-20T08:46:03.759Z</time>
      </trkpt>
      <trkpt lat="48.68073" lon="2.03324">
        <ele>168</ele>
        <time>2021-05-20T08:46:04.759Z</time>
      </trkpt>
      <trkpt lat="48.68072" lon="2.03324">
        <ele>168</ele>
        <time>2021-05-20T08:46:05.759Z</time>
      </trkpt>
      <trkpt lat="48.68071" lon="2.03325">
        <ele>168</ele>
        <time>2021-05-20T08:46:06.759Z</time>
      </trkpt>
      <trkpt lat="48.6807" lon="2.03325">
        <ele>168</ele>
        <time>2021-05-20T08:46:07.759Z</time>
      </trkpt>
      <trkpt lat="48.68068" lon="2.03326">
        <ele>168</ele>
        <time>2021-05-20T08:46:08.759Z</time>
      </trkpt>
      <trkpt lat="48.68067" lon="2.03326">
        <ele>168</ele>
        <time>2021-05-20T08:46:09.759Z</time>
      </trkpt>
      <trkpt lat="48.68066" lon="2.03327">
        <ele>168</ele>
        <time>2021-05-20T08:46:10.759Z</time>
      </trkpt>
      <trkpt lat="48.68065" lon="2.03328">
        <ele>168</ele>
        <time>2021-05-20T08:46:11.759Z</time>
      </trkpt>
      <trkpt lat="48.68063" lon="2.03329">
        <ele>168</ele>
        <time>2021-05-20T08:46:12.759Z</time>
      </trkpt>
      <trkpt lat="48.68062" lon="2.03329">
        <ele>168</ele>
        <time>2021-05-20T08:46:13.759Z</time>
      </trkpt>
      <trkpt lat="48.68061" lon="2.0333">
        <ele>168</ele>
        <time>2021-05-20T08:46:14.759Z</time>
      </trkpt>
      <trkpt lat="48.6806" lon="2.03331">
        <ele>168</ele>
        <time>2021-05-20T08:46:15.759Z</time>
      </trkpt>
      <trkpt lat="48.68059" lon="2.03332">
        <ele>168</ele>
        <time>2021-05-20T08:46:16.759Z</time>
      </trkpt>
      <trkpt lat="48.68057" lon="2.03332">
        <ele>168</ele>
        <time>2021-05-20T08:46:17.759Z</time>
      </trkpt>
      <trkpt lat="48.68056" lon="2.03333">
        <ele>168</ele>
        <time>2021-05-20T08:46:18.759Z</time>
      </trkpt>
      <trkpt lat="48.68055" lon="2.03334">
        <ele>168</ele>
        <time>2021-05-20T08:46:19.759Z</time>
      </trkpt>
      <trkpt lat="48.68053" lon="2.03335">
        <ele>168</ele>
        <time>2021-05-20T08:46:20.759Z</time>
      </trkpt>
      <trkpt lat="48.68052" lon="2.03335">
        <ele>168</ele>
        <time>2021-05-20T08:46:21.759Z</time>
      </trkpt>
      <trkpt lat="48.68051" lon="2.03336">
        <ele>168</ele>
        <time>2021-05-20T08:46:22.759Z</time>
      </trkpt>
      <trkpt lat="48.6805" lon="2.03337">
        <ele>168</ele>
        <time>2021-05-20T08:46:23.759Z</time>
      </trkpt>
      <trkpt lat="48.68049" lon="2.03337">
        <ele>168</ele>
        <time>2021-05-20T08:46:24.759Z</time>
      </trkpt>
      <trkpt lat="48.68048" lon="2.03338">
        <ele>168</ele>
        <time>2021-05-20T08:46:25.759Z</time>
      </trkpt>
      <trkpt lat="48.68046" lon="2.03339">
        <ele>168</ele>
        <time>2021-05-20T08:46:26.759Z</time>
      </trkpt>
      <trkpt lat="48.68045" lon="2.03339">
        <ele>168</ele>
        <time>2021-05-20T08:46:27.759Z</time>
      </trkpt>
      <trkpt lat="48.68044" lon="2.0334">
        <ele>168</ele>
        <time>2021-05-20T08:46:28.759Z</time>
      </trkpt>
      <trkpt lat="48.68042" lon="2.03341">
        <ele>168</ele>
        <time>2021-05-20T08:46:29.759Z</time>
      </trkpt>
      <trkpt lat="48.68041" lon="2.03342">
        <ele>168</ele>
        <time>2021-05-20T08:46:30.759Z</time>
      </trkpt>
      <trkpt lat="48.6804" lon="2.03343">
        <ele>168</ele>
        <time>2021-05-20T08:46:31.759Z</time>
      </trkpt>
      <trkpt lat="48.68039" lon="2.03344">
        <ele>168</ele>
        <time>2021-05-20T08:46:32.759Z</time>
      </trkpt>
      <trkpt lat="48.68038" lon="2.03344">
        <ele>168</ele>
        <time>2021-05-20T08:46:33.759Z</time>
      </trkpt>
      <trkpt lat="48.68037" lon="2.03345">
        <ele>168</ele>
        <time>2021-05-20T08:46:34.759Z</time>
      </trkpt>
      <trkpt lat="48.68036" lon="2.03345">
        <ele>168</ele>
        <time>2021-05-20T08:46:44.759Z</time>
      </trkpt>
      <trkpt lat="48.68035" lon="2.03346">
        <ele>168</ele>
        <time>2021-05-20T08:46:45.759Z</time>
      </trkpt>
      <trkpt lat="48.68034" lon="2.03347">
        <ele>168</ele>
        <time>2021-05-20T08:46:46.759Z</time>
      </trkpt>
      <trkpt lat="48.68032" lon="2.03347">
        <ele>168</ele>
        <time>2021-05-20T08:46:47.759Z</time>
      </trkpt>
      <trkpt lat="48.68031" lon="2.03348">
        <ele>168</ele>
        <time>2021-05-20T08:46:48.759Z</time>
      </trkpt>
      <trkpt lat="48.6803" lon="2.03348">
        <ele>168</ele>
        <time>2021-05-20T08:46:49.759Z</time>
      </trkpt>
      <trkpt lat="48.68028" lon="2.03349">
        <ele>167</ele>
        <time>2021-05-20T08:46:50.759Z</time>
      </trkpt>
      <trkpt lat="48.68027" lon="2.0335">
        <ele>167</ele>
        <time>2021-05-20T08:46:51.759Z</time>
      </trkpt>
      <trkpt lat="48.68026" lon="2.03351">
        <ele>167</ele>
        <time>2021-05-20T08:46:52.759Z</time>
      </trkpt>
      <trkpt lat="48.68025" lon="2.03351">
        <ele>167</ele>
        <time>2021-05-20T08:46:53.759Z</time>
      </trkpt>
      <trkpt lat="48.68023" lon="2.03352">
        <ele>167</ele>
        <time>2021-05-20T08:46:54.759Z</time>
      </trkpt>
      <trkpt lat="48.68022" lon="2.03353">
        <ele>167</ele>
        <time>2021-05-20T08:46:55.759Z</time>
      </trkpt>
      <trkpt lat="48.68021" lon="2.03353">
        <ele>167</ele>
        <time>2021-05-20T08:46:56.759Z</time>
      </trkpt>
      <trkpt lat="48.6802" lon="2.03354">
        <ele>167</ele>
        <time>2021-05-20T08:46:57.759Z</time>
      </trkpt>
      <trkpt lat="48.68018" lon="2.03355">
        <ele>167</ele>
        <time>2021-05-20T08:46:58.759Z</time>
      </trkpt>
      <trkpt lat="48.68017" lon="2.03356">
        <ele>167</ele>
        <time>2021-05-20T08:46:59.759Z</time>
      </trkpt>
      <trkpt lat="48.68016" lon="2.03356">
        <ele>167</ele>
        <time>2021-05-20T08:47:00.759Z</time>
      </trkpt>
      <trkpt lat="48.68015" lon="2.03357">
        <ele>167</ele>
        <time>2021-05-20T08:47:01.759Z</time>
      </trkpt>
      <trkpt lat="48.68014" lon="2.03357">
        <ele>167</ele>
        <time>2021-05-20T08:47:02.759Z</time>
      </trkpt>
      <trkpt lat="48.68013" lon="2.03358">
        <ele>167</ele>
        <time>2021-05-20T08:47:03.759Z</time>
      </trkpt>
      <trkpt lat="48.68011" lon="2.03358">
        <ele>167</ele>
        <time>2021-05-20T08:47:04.759Z</time>
      </trkpt>
      <trkpt lat="48.6801" lon="2.03359">
        <ele>167</ele>
        <time>2021-05-20T08:47:05.759Z</time>
      </trkpt>
      <trkpt lat="48.68009" lon="2.0336">
        <ele>167</ele>
        <time>2021-05-20T08:47:06.759Z</time>
      </trkpt>
      <trkpt lat="48.68008" lon="2.03361">
        <ele>167</ele>
        <time>2021-05-20T08:47:10.031Z</time>
      </trkpt>
      <trkpt lat="48.68008" lon="2.03362">
        <ele>167</ele>
        <time>2021-05-20T08:47:11.031Z</time>
      </trkpt>
      <trkpt lat="48.68007" lon="2.03363">
        <ele>167</ele>
        <time>2021-05-20T08:47:12.031Z</time>
      </trkpt>
      <trkpt lat="48.68005" lon="2.03364">
        <ele>167</ele>
        <time>2021-05-20T08:47:13.031Z</time>
      </trkpt>
      <trkpt lat="48.68005" lon="2.03365">
        <ele>167</ele>
        <time>2021-05-20T08:47:14.031Z</time>
      </trkpt>
      <trkpt lat="48.68005" lon="2.03365">
        <ele>167</ele>
        <time>2021-05-20T08:47:15.031Z</time>
      </trkpt>
      <trkpt lat="48.68005" lon="2.03365">
        <ele>167</ele>
        <time>2021-05-20T08:47:16.031Z</time>
      </trkpt>
      <trkpt lat="48.68005" lon="2.03365">
        <ele>167</ele>
        <time>2021-05-20T08:47:17.031Z</time>
      </trkpt>
      <trkpt lat="48.68005" lon="2.03365">
        <ele>167</ele>
        <time>2021-05-20T08:47:18.031Z</time>
      </trkpt>
      <trkpt lat="48.68003" lon="2.03365">
        <ele>167</ele>
        <time>2021-05-20T08:47:19.031Z</time>
      </trkpt>
      <trkpt lat="48.68003" lon="2.03366">
        <ele>166</ele>
        <time>2021-05-20T08:47:20.031Z</time>
      </trkpt>
      <trkpt lat="48.68002" lon="2.03367">
        <ele>166</ele>
        <time>2021-05-20T08:47:21.031Z</time>
      </trkpt>
      <trkpt lat="48.68001" lon="2.03368">
        <ele>166</ele>
        <time>2021-05-20T08:47:22.031Z</time>
      </trkpt>
      <trkpt lat="48.68" lon="2.03369">
        <ele>166</ele>
        <time>2021-05-20T08:47:23.031Z</time>
      </trkpt>
      <trkpt lat="48.67999" lon="2.0337">
        <ele>166</ele>
        <time>2021-05-20T08:47:24.031Z</time>
      </trkpt>
      <trkpt lat="48.67998" lon="2.03371">
        <ele>166</ele>
        <time>2021-05-20T08:47:25.031Z</time>
      </trkpt>
      <trkpt lat="48.67997" lon="2.03372">
        <ele>166</ele>
        <time>2021-05-20T08:47:26.031Z</time>
      </trkpt>
      <trkpt lat="48.67996" lon="2.03372">
        <ele>166</ele>
        <time>2021-05-20T08:47:27.031Z</time>
      </trkpt>
      <trkpt lat="48.67994" lon="2.03373">
        <ele>166</ele>
        <time>2021-05-20T08:47:28.031Z</time>
      </trkpt>
      <trkpt lat="48.67993" lon="2.03374">
        <ele>166</ele>
        <time>2021-05-20T08:47:29.031Z</time>
      </trkpt>
      <trkpt lat="48.67992" lon="2.03374">
        <ele>166</ele>
        <time>2021-05-20T08:47:30.031Z</time>
      </trkpt>
      <trkpt lat="48.67991" lon="2.03374">
        <ele>166</ele>
        <time>2021-05-20T08:47:31.031Z</time>
      </trkpt>
      <trkpt lat="48.6799" lon="2.03375">
        <ele>166</ele>
        <time>2021-05-20T08:47:32.031Z</time>
      </trkpt>
      <trkpt lat="48.67989" lon="2.03375">
        <ele>166</ele>
        <time>2021-05-20T08:47:33.031Z</time>
      </trkpt>
      <trkpt lat="48.67988" lon="2.03376">
        <ele>166</ele>
        <time>2021-05-20T08:47:34.031Z</time>
      </trkpt>
      <trkpt lat="48.67986" lon="2.03376">
        <ele>166</ele>
        <time>2021-05-20T08:47:35.031Z</time>
      </trkpt>
      <trkpt lat="48.67985" lon="2.03377">
        <ele>166</ele>
        <time>2021-05-20T08:47:36.031Z</time>
      </trkpt>
      <trkpt lat="48.67984" lon="2.03378">
        <ele>166</ele>
        <time>2021-05-20T08:47:37.031Z</time>
      </trkpt>
      <trkpt lat="48.67984" lon="2.03378">
        <ele>166</ele>
        <time>2021-05-20T08:47:38.031Z</time>
      </trkpt>
      <trkpt lat="48.67984" lon="2.03378">
        <ele>166</ele>
        <time>2021-05-20T08:47:39.031Z</time>
      </trkpt>
      <trkpt lat="48.67983" lon="2.03379">
        <ele>166</ele>
        <time>2021-05-20T08:47:40.031Z</time>
      </trkpt>
      <trkpt lat="48.67982" lon="2.03379">
        <ele>166</ele>
        <time>2021-05-20T08:47:41.031Z</time>
      </trkpt>
      <trkpt lat="48.6798" lon="2.03379">
        <ele>166</ele>
        <time>2021-05-20T08:47:42.031Z</time>
      </trkpt>
      <trkpt lat="48.67979" lon="2.0338">
        <ele>166</ele>
        <time>2021-05-20T08:47:43.031Z</time>
      </trkpt>
      <trkpt lat="48.67978" lon="2.03381">
        <ele>166</ele>
        <time>2021-05-20T08:47:44.031Z</time>
      </trkpt>
      <trkpt lat="48.67976" lon="2.03382">
        <ele>166</ele>
        <time>2021-05-20T08:47:45.031Z</time>
      </trkpt>
      <trkpt lat="48.67975" lon="2.03382">
        <ele>166</ele>
        <time>2021-05-20T08:47:46.031Z</time>
      </trkpt>
      <trkpt lat="48.67974" lon="2.03383">
        <ele>166</ele>
        <time>2021-05-20T08:47:47.031Z</time>
      </trkpt>
      <trkpt lat="48.67973" lon="2.03383">
        <ele>166</ele>
        <time>2021-05-20T08:47:48.031Z</time>
      </trkpt>
      <trkpt lat="48.67972" lon="2.03384">
        <ele>166</ele>
        <time>2021-05-20T08:47:49.031Z</time>
      </trkpt>
      <trkpt lat="48.67971" lon="2.03385">
        <ele>166</ele>
        <time>2021-05-20T08:47:50.031Z</time>
      </trkpt>
      <trkpt lat="48.67969" lon="2.03386">
        <ele>166</ele>
        <time>2021-05-20T08:47:51.031Z</time>
      </trkpt>
      <trkpt lat="48.67968" lon="2.03387">
        <ele>167</ele>
        <time>2021-05-20T08:47:52.031Z</time>
      </trkpt>
      <trkpt lat="48.67966" lon="2.03388">
        <ele>167</ele>
        <time>2021-05-20T08:47:53.031Z</time>
      </trkpt>
      <trkpt lat="48.67965" lon="2.03389">
        <ele>167</ele>
        <time>2021-05-20T08:47:54.031Z</time>
      </trkpt>
      <trkpt lat="48.67963" lon="2.0339">
        <ele>167</ele>
        <time>2021-05-20T08:47:55.031Z</time>
      </trkpt>
      <trkpt lat="48.67962" lon="2.0339">
        <ele>167</ele>
        <time>2021-05-20T08:47:56.031Z</time>
      </trkpt>
      <trkpt lat="48.67961" lon="2.03391">
        <ele>167</ele>
        <time>2021-05-20T08:47:57.031Z</time>
      </trkpt>
      <trkpt lat="48.6796" lon="2.03391">
        <ele>167</ele>
        <time>2021-05-20T08:48:00.288Z</time>
      </trkpt>
      <trkpt lat="48.67959" lon="2.03392">
        <ele>167</ele>
        <time>2021-05-20T08:48:01.288Z</time>
      </trkpt>
      <trkpt lat="48.67957" lon="2.03392">
        <ele>167</ele>
        <time>2021-05-20T08:48:02.288Z</time>
      </trkpt>
      <trkpt lat="48.67956" lon="2.03393">
        <ele>167</ele>
        <time>2021-05-20T08:48:03.288Z</time>
      </trkpt>
      <trkpt lat="48.67955" lon="2.03394">
        <ele>167</ele>
        <time>2021-05-20T08:48:04.288Z</time>
      </trkpt>
      <trkpt lat="48.67953" lon="2.03394">
        <ele>167</ele>
        <time>2021-05-20T08:48:05.288Z</time>
      </trkpt>
      <trkpt lat="48.67952" lon="2.03395">
        <ele>167</ele>
        <time>2021-05-20T08:48:06.288Z</time>
      </trkpt>
      <trkpt lat="48.6795" lon="2.03395">
        <ele>167</ele>
        <time>2021-05-20T08:48:07.288Z</time>
      </trkpt>
      <trkpt lat="48.67949" lon="2.03396">
        <ele>167</ele>
        <time>2021-05-20T08:48:08.288Z</time>
      </trkpt>
      <trkpt lat="48.67947" lon="2.03396">
        <ele>167</ele>
        <time>2021-05-20T08:51:34.286Z</time>
      </trkpt>
      <trkpt lat="48.67946" lon="2.03397">
        <ele>167</ele>
        <time>2021-05-20T08:51:35.286Z</time>
      </trkpt>
      <trkpt lat="48.67945" lon="2.03397">
        <ele>167</ele>
        <time>2021-05-20T08:51:36.286Z</time>
      </trkpt>
      <trkpt lat="48.67944" lon="2.03397">
        <ele>167</ele>
        <time>2021-05-20T08:51:37.286Z</time>
      </trkpt>
      <trkpt lat="48.67942" lon="2.03398">
        <ele>167</ele>
        <time>2021-05-20T08:51:38.286Z</time>
      </trkpt>
      <trkpt lat="48.67941" lon="2.03398">
        <ele>167</ele>
        <time>2021-05-20T08:51:39.286Z</time>
      </trkpt>
      <trkpt lat="48.67939" lon="2.03398">
        <ele>167</ele>
        <time>2021-05-20T08:51:40.286Z</time>
      </trkpt>
      <trkpt lat="48.67938" lon="2.03398">
        <ele>167</ele>
        <time>2021-05-20T08:51:41.286Z</time>
      </trkpt>
      <trkpt lat="48.67937" lon="2.03398">
        <ele>167</ele>
        <time>2021-05-20T08:51:42.286Z</time>
      </trkpt>
      <trkpt lat="48.67935" lon="2.03398">
        <ele>167</ele>
        <time>2021-05-20T08:51:43.286Z</time>
      </trkpt>
      <trkpt lat="48.67934" lon="2.03399">
        <ele>167</ele>
        <time>2021-05-20T08:51:44.286Z</time>
      </trkpt>
      <trkpt lat="48.67933" lon="2.03399">
        <ele>167</ele>
        <time>2021-05-20T08:51:51.289Z</time>
      </trkpt>
      <trkpt lat="48.67931" lon="2.03399">
        <ele>167</ele>
        <time>2021-05-20T08:51:52.289Z</time>
      </trkpt>
      <trkpt lat="48.6793" lon="2.03399">
        <ele>167</ele>
        <time>2021-05-20T08:51:53.289Z</time>
      </trkpt>
      <trkpt lat="48.67929" lon="2.03399">
        <ele>167</ele>
        <time>2021-05-20T08:51:54.289Z</time>
      </trkpt>
      <trkpt lat="48.67927" lon="2.03399">
        <ele>167</ele>
        <time>2021-05-20T08:51:55.289Z</time>
      </trkpt>
      <trkpt lat="48.67926" lon="2.03399">
        <ele>167</ele>
        <time>2021-05-20T08:51:56.289Z</time>
      </trkpt>
      <trkpt lat="48.67924" lon="2.03399">
        <ele>167</ele>
        <time>2021-05-20T08:51:57.289Z</time>
      </trkpt>
      <trkpt lat="48.67923" lon="2.03399">
        <ele>167</ele>
        <time>2021-05-20T08:51:58.289Z</time>
      </trkpt>
      <trkpt lat="48.67922" lon="2.03399">
        <ele>167</ele>
        <time>2021-05-20T08:51:59.289Z</time>
      </trkpt>
      <trkpt lat="48.67921" lon="2.03399">
        <ele>167</ele>
        <time>2021-05-20T08:52:00.289Z</time>
      </trkpt>
      <trkpt lat="48.67919" lon="2.03399">
        <ele>167</ele>
        <time>2021-05-20T08:52:01.289Z</time>
      </trkpt>
      <trkpt lat="48.67918" lon="2.03399">
        <ele>167</ele>
        <time>2021-05-20T08:52:02.289Z</time>
      </trkpt>
      <trkpt lat="48.67917" lon="2.03399">
        <ele>167</ele>
        <time>2021-05-20T08:52:03.289Z</time>
      </trkpt>
      <trkpt lat="48.67915" lon="2.03398">
        <ele>166</ele>
        <time>2021-05-20T08:52:04.289Z</time>
      </trkpt>
      <trkpt lat="48.67914" lon="2.03398">
        <ele>166</ele>
        <time>2021-05-20T08:52:05.289Z</time>
      </trkpt>
      <trkpt lat="48.67913" lon="2.03398">
        <ele>166</ele>
        <time>2021-05-20T08:52:06.289Z</time>
      </trkpt>
      <trkpt lat="48.67911" lon="2.03398">
        <ele>166</ele>
        <time>2021-05-20T08:52:07.289Z</time>
      </trkpt>
      <trkpt lat="48.6791" lon="2.03398">
        <ele>166</ele>
        <time>2021-05-20T08:52:08.289Z</time>
      </trkpt>
      <trkpt lat="48.67909" lon="2.03398">
        <ele>166</ele>
        <time>2021-05-20T08:52:09.289Z</time>
      </trkpt>
      <trkpt lat="48.67908" lon="2.03397">
        <ele>166</ele>
        <time>2021-05-20T08:52:10.289Z</time>
      </trkpt>
      <trkpt lat="48.67907" lon="2.03397">
        <ele>166</ele>
        <time>2021-05-20T08:52:11.289Z</time>
      </trkpt>
      <trkpt lat="48.67906" lon="2.03397">
        <ele>166</ele>
        <time>2021-05-20T08:52:12.289Z</time>
      </trkpt>
      <trkpt lat="48.67904" lon="2.03397">
        <ele>166</ele>
        <time>2021-05-20T08:52:13.289Z</time>
      </trkpt>
      <trkpt lat="48.67903" lon="2.03397">
        <ele>166</ele>
        <time>2021-05-20T08:52:14.289Z</time>
      </trkpt>
      <trkpt lat="48.67902" lon="2.03396">
        <ele>166</ele>
        <time>2021-05-20T08:52:15.289Z</time>
      </trkpt>
      <trkpt lat="48.679" lon="2.03396">
        <ele>166</ele>
        <time>2021-05-20T08:52:16.289Z</time>
      </trkpt>
      <trkpt lat="48.67899" lon="2.03396">
        <ele>166</ele>
        <time>2021-05-20T08:52:17.289Z</time>
      </trkpt>
      <trkpt lat="48.67898" lon="2.03396">
        <ele>167</ele>
        <time>2021-05-20T08:52:18.289Z</time>
      </trkpt>
      <trkpt lat="48.67897" lon="2.03396">
        <ele>167</ele>
        <time>2021-05-20T08:52:19.289Z</time>
      </trkpt>
      <trkpt lat="48.67897" lon="2.03396">
        <ele>167</ele>
        <time>2021-05-20T08:52:20.289Z</time>
      </trkpt>
      <trkpt lat="48.67897" lon="2.03396">
        <ele>167</ele>
        <time>2021-05-20T08:52:21.289Z</time>
      </trkpt>
      <trkpt lat="48.67896" lon="2.03396">
        <ele>167</ele>
        <time>2021-05-20T08:52:22.289Z</time>
      </trkpt>
      <trkpt lat="48.67895" lon="2.03396">
        <ele>167</ele>
        <time>2021-05-20T08:52:23.289Z</time>
      </trkpt>
      <trkpt lat="48.67894" lon="2.03396">
        <ele>167</ele>
        <time>2021-05-20T08:52:24.289Z</time>
      </trkpt>
      <trkpt lat="48.67892" lon="2.03395">
        <ele>167</ele>
        <time>2021-05-20T08:52:25.289Z</time>
      </trkpt>
      <trkpt lat="48.67891" lon="2.03395">
        <ele>167</ele>
        <time>2021-05-20T08:52:26.289Z</time>
      </trkpt>
      <trkpt lat="48.6789" lon="2.03395">
        <ele>167</ele>
        <time>2021-05-20T08:52:27.289Z</time>
      </trkpt>
      <trkpt lat="48.67888" lon="2.03395">
        <ele>167</ele>
        <time>2021-05-20T08:52:28.289Z</time>
      </trkpt>
      <trkpt lat="48.67887" lon="2.03394">
        <ele>167</ele>
        <time>2021-05-20T08:52:29.289Z</time>
      </trkpt>
      <trkpt lat="48.67886" lon="2.03394">
        <ele>167</ele>
        <time>2021-05-20T08:52:30.289Z</time>
      </trkpt>
      <trkpt lat="48.67884" lon="2.03394">
        <ele>167</ele>
        <time>2021-05-20T08:52:31.289Z</time>
      </trkpt>
      <trkpt lat="48.67883" lon="2.03394">
        <ele>167</ele>
        <time>2021-05-20T08:52:32.289Z</time>
      </trkpt>
      <trkpt lat="48.67882" lon="2.03394">
        <ele>167</ele>
        <time>2021-05-20T08:52:33.289Z</time>
      </trkpt>
      <trkpt lat="48.6788" lon="2.03394">
        <ele>167</ele>
        <time>2021-05-20T08:52:34.289Z</time>
      </trkpt>
      <trkpt lat="48.67879" lon="2.03394">
        <ele>167</ele>
        <time>2021-05-20T08:52:35.289Z</time>
      </trkpt>
      <trkpt lat="48.67877" lon="2.03394">
        <ele>167</ele>
        <time>2021-05-20T08:52:36.289Z</time>
      </trkpt>
      <trkpt lat="48.67876" lon="2.03394">
        <ele>167</ele>
        <time>2021-05-20T08:52:37.289Z</time>
      </trkpt>
      <trkpt lat="48.67875" lon="2.03394">
        <ele>167</ele>
        <time>2021-05-20T08:52:38.289Z</time>
      </trkpt>
      <trkpt lat="48.67874" lon="2.03394">
        <ele>167</ele>
        <time>2021-05-20T08:52:39.289Z</time>
      </trkpt>
      <trkpt lat="48.67872" lon="2.03394">
        <ele>167</ele>
        <time>2021-05-20T08:52:40.289Z</time>
      </trkpt>
      <trkpt lat="48.67871" lon="2.03393">
        <ele>167</ele>
        <time>2021-05-20T08:52:41.289Z</time>
      </trkpt>
      <trkpt lat="48.67869" lon="2.03393">
        <ele>167</ele>
        <time>2021-05-20T08:52:42.289Z</time>
      </trkpt>
      <trkpt lat="48.67868" lon="2.03393">
        <ele>167</ele>
        <time>2021-05-20T08:52:43.289Z</time>
      </trkpt>
      <trkpt lat="48.67866" lon="2.03393">
        <ele>167</ele>
        <time>2021-05-20T08:52:44.289Z</time>
      </trkpt>
      <trkpt lat="48.67865" lon="2.03393">
        <ele>167</ele>
        <time>2021-05-20T08:52:45.289Z</time>
      </trkpt>
      <trkpt lat="48.67864" lon="2.03393">
        <ele>167</ele>
        <time>2021-05-20T08:52:46.289Z</time>
      </trkpt>
      <trkpt lat="48.67863" lon="2.03393">
        <ele>167</ele>
        <time>2021-05-20T08:52:47.289Z</time>
      </trkpt>
      <trkpt lat="48.67861" lon="2.03393">
        <ele>167</ele>
        <time>2021-05-20T08:52:48.289Z</time>
      </trkpt>
      <trkpt lat="48.6786" lon="2.03393">
        <ele>167</ele>
        <time>2021-05-20T08:52:49.289Z</time>
      </trkpt>
      <trkpt lat="48.67858" lon="2.03393">
        <ele>167</ele>
        <time>2021-05-20T08:52:50.289Z</time>
      </trkpt>
      <trkpt lat="48.67857" lon="2.03393">
        <ele>167</ele>
        <time>2021-05-20T08:52:51.289Z</time>
      </trkpt>
      <trkpt lat="48.67856" lon="2.03393">
        <ele>167</ele>
        <time>2021-05-20T08:52:52.289Z</time>
      </trkpt>
      <trkpt lat="48.67854" lon="2.03393">
        <ele>167</ele>
        <time>2021-05-20T08:52:53.289Z</time>
      </trkpt>
      <trkpt lat="48.67853" lon="2.03393">
        <ele>167</ele>
        <time>2021-05-20T08:52:54.289Z</time>
      </trkpt>
      <trkpt lat="48.67852" lon="2.03393">
        <ele>167</ele>
        <time>2021-05-20T08:52:55.289Z</time>
      </trkpt>
      <trkpt lat="48.67851" lon="2.03392">
        <ele>167</ele>
        <time>2021-05-20T08:52:56.289Z</time>
      </trkpt>
      <trkpt lat="48.67849" lon="2.03392">
        <ele>167</ele>
        <time>2021-05-20T08:52:57.289Z</time>
      </trkpt>
      <trkpt lat="48.67848" lon="2.03392">
        <ele>167</ele>
        <time>2021-05-20T08:52:58.289Z</time>
      </trkpt>
      <trkpt lat="48.67847" lon="2.03392">
        <ele>168</ele>
        <time>2021-05-20T08:52:59.289Z</time>
      </trkpt>
      <trkpt lat="48.67845" lon="2.03392">
        <ele>168</ele>
        <time>2021-05-20T08:53:00.289Z</time>
      </trkpt>
      <trkpt lat="48.67844" lon="2.03392">
        <ele>168</ele>
        <time>2021-05-20T08:53:01.289Z</time>
      </trkpt>
      <trkpt lat="48.67842" lon="2.03392">
        <ele>168</ele>
        <time>2021-05-20T08:53:02.289Z</time>
      </trkpt>
      <trkpt lat="48.67841" lon="2.03392">
        <ele>168</ele>
        <time>2021-05-20T08:53:03.289Z</time>
      </trkpt>
      <trkpt lat="48.6784" lon="2.03392">
        <ele>168</ele>
        <time>2021-05-20T08:53:04.289Z</time>
      </trkpt>
      <trkpt lat="48.67839" lon="2.03392">
        <ele>168</ele>
        <time>2021-05-20T08:53:05.289Z</time>
      </trkpt>
      <trkpt lat="48.67837" lon="2.03391">
        <ele>168</ele>
        <time>2021-05-20T08:53:06.289Z</time>
      </trkpt>
      <trkpt lat="48.67836" lon="2.03391">
        <ele>168</ele>
        <time>2021-05-20T08:53:07.289Z</time>
      </trkpt>
      <trkpt lat="48.67834" lon="2.03391">
        <ele>168</ele>
        <time>2021-05-20T08:53:08.289Z</time>
      </trkpt>
      <trkpt lat="48.67832" lon="2.03391">
        <ele>168</ele>
        <time>2021-05-20T08:53:09.289Z</time>
      </trkpt>
      <trkpt lat="48.67831" lon="2.03391">
        <ele>168</ele>
        <time>2021-05-20T08:53:10.289Z</time>
      </trkpt>
      <trkpt lat="48.67831" lon="2.03391">
        <ele>168</ele>
        <time>2021-05-20T08:53:11.289Z</time>
      </trkpt>
      <trkpt lat="48.6783" lon="2.0339">
        <ele>168</ele>
        <time>2021-05-20T08:53:12.289Z</time>
      </trkpt>
      <trkpt lat="48.6783" lon="2.0339">
        <ele>168</ele>
        <time>2021-05-20T08:53:13.289Z</time>
      </trkpt>
      <trkpt lat="48.67829" lon="2.03389">
        <ele>168</ele>
        <time>2021-05-20T08:53:14.289Z</time>
      </trkpt>
      <trkpt lat="48.67827" lon="2.03389">
        <ele>168</ele>
        <time>2021-05-20T08:53:15.289Z</time>
      </trkpt>
      <trkpt lat="48.67826" lon="2.03389">
        <ele>167</ele>
        <time>2021-05-20T08:53:16.289Z</time>
      </trkpt>
      <trkpt lat="48.67825" lon="2.03389">
        <ele>167</ele>
        <time>2021-05-20T08:53:17.289Z</time>
      </trkpt>
      <trkpt lat="48.67824" lon="2.03389">
        <ele>167</ele>
        <time>2021-05-20T08:53:18.289Z</time>
      </trkpt>
      <trkpt lat="48.67822" lon="2.03389">
        <ele>167</ele>
        <time>2021-05-20T08:53:19.289Z</time>
      </trkpt>
      <trkpt lat="48.67821" lon="2.03388">
        <ele>168</ele>
        <time>2021-05-20T08:53:20.289Z</time>
      </trkpt>
      <trkpt lat="48.6782" lon="2.03388">
        <ele>168</ele>
        <time>2021-05-20T08:53:21.289Z</time>
      </trkpt>
      <trkpt lat="48.67819" lon="2.03388">
        <ele>168</ele>
        <time>2021-05-20T08:53:22.289Z</time>
      </trkpt>
      <trkpt lat="48.67817" lon="2.03388">
        <ele>167</ele>
        <time>2021-05-20T08:53:23.289Z</time>
      </trkpt>
      <trkpt lat="48.67816" lon="2.03388">
        <ele>167</ele>
        <time>2021-05-20T08:53:24.289Z</time>
      </trkpt>
      <trkpt lat="48.67815" lon="2.03387">
        <ele>167</ele>
        <time>2021-05-20T08:53:25.289Z</time>
      </trkpt>
      <trkpt lat="48.67813" lon="2.03387">
        <ele>167</ele>
        <time>2021-05-20T08:53:26.289Z</time>
      </trkpt>
      <trkpt lat="48.67812" lon="2.03387">
        <ele>167</ele>
        <time>2021-05-20T08:53:27.289Z</time>
      </trkpt>
      <trkpt lat="48.6781" lon="2.03387">
        <ele>167</ele>
        <time>2021-05-20T08:53:28.289Z</time>
      </trkpt>
      <trkpt lat="48.67809" lon="2.03387">
        <ele>167</ele>
        <time>2021-05-20T08:53:29.289Z</time>
      </trkpt>
      <trkpt lat="48.67807" lon="2.03387">
        <ele>167</ele>
        <time>2021-05-20T08:53:30.289Z</time>
      </trkpt>
      <trkpt lat="48.67806" lon="2.03387">
        <ele>167</ele>
        <time>2021-05-20T08:53:31.289Z</time>
      </trkpt>
      <trkpt lat="48.67805" lon="2.03387">
        <ele>167</ele>
        <time>2021-05-20T08:53:32.289Z</time>
      </trkpt>
      <trkpt lat="48.67803" lon="2.03387">
        <ele>167</ele>
        <time>2021-05-20T08:53:33.289Z</time>
      </trkpt>
      <trkpt lat="48.67802" lon="2.03387">
        <ele>167</ele>
        <time>2021-05-20T08:53:34.289Z</time>
      </trkpt>
      <trkpt lat="48.67801" lon="2.03387">
        <ele>167</ele>
        <time>2021-05-20T08:53:35.289Z</time>
      </trkpt>
      <trkpt lat="48.67799" lon="2.03386">
        <ele>167</ele>
        <time>2021-05-20T08:53:36.289Z</time>
      </trkpt>
      <trkpt lat="48.67798" lon="2.03386">
        <ele>167</ele>
        <time>2021-05-20T08:53:37.289Z</time>
      </trkpt>
      <trkpt lat="48.67796" lon="2.03386">
        <ele>167</ele>
        <time>2021-05-20T08:53:38.289Z</time>
      </trkpt>
      <trkpt lat="48.67795" lon="2.03386">
        <ele>167</ele>
        <time>2021-05-20T08:53:39.289Z</time>
      </trkpt>
      <trkpt lat="48.67793" lon="2.03386">
        <ele>167</ele>
        <time>2021-05-20T08:53:40.289Z</time>
      </trkpt>
      <trkpt lat="48.67792" lon="2.03385">
        <ele>167</ele>
        <time>2021-05-20T08:53:41.289Z</time>
      </trkpt>
      <trkpt lat="48.67791" lon="2.03385">
        <ele>167</ele>
        <time>2021-05-20T08:53:42.289Z</time>
      </trkpt>
      <trkpt lat="48.6779" lon="2.03385">
        <ele>167</ele>
        <time>2021-05-20T08:53:43.289Z</time>
      </trkpt>
      <trkpt lat="48.67788" lon="2.03385">
        <ele>167</ele>
        <time>2021-05-20T08:53:44.289Z</time>
      </trkpt>
      <trkpt lat="48.67787" lon="2.03385">
        <ele>167</ele>
        <time>2021-05-20T08:53:45.289Z</time>
      </trkpt>
      <trkpt lat="48.67786" lon="2.03384">
        <ele>167</ele>
        <time>2021-05-20T08:53:46.289Z</time>
      </trkpt>
      <trkpt lat="48.67785" lon="2.03384">
        <ele>167</ele>
        <time>2021-05-20T08:53:47.289Z</time>
      </trkpt>
      <trkpt lat="48.67783" lon="2.03384">
        <ele>166</ele>
        <time>2021-05-20T08:53:48.289Z</time>
      </trkpt>
      <trkpt lat="48.67782" lon="2.03384">
        <ele>166</ele>
        <time>2021-05-20T08:53:49.289Z</time>
      </trkpt>
      <trkpt lat="48.6778" lon="2.03384">
        <ele>166</ele>
        <time>2021-05-20T08:53:50.289Z</time>
      </trkpt>
      <trkpt lat="48.67779" lon="2.03384">
        <ele>166</ele>
        <time>2021-05-20T08:53:51.289Z</time>
      </trkpt>
      <trkpt lat="48.67778" lon="2.03384">
        <ele>166</ele>
        <time>2021-05-20T08:53:52.289Z</time>
      </trkpt>
      <trkpt lat="48.67777" lon="2.03384">
        <ele>166</ele>
        <time>2021-05-20T08:53:53.289Z</time>
      </trkpt>
      <trkpt lat="48.67776" lon="2.03383">
        <ele>166</ele>
        <time>2021-05-20T08:53:54.289Z</time>
      </trkpt>
      <trkpt lat="48.67775" lon="2.03383">
        <ele>166</ele>
        <time>2021-05-20T08:53:55.289Z</time>
      </trkpt>
      <trkpt lat="48.67773" lon="2.03383">
        <ele>166</ele>
        <time>2021-05-20T08:53:56.289Z</time>
      </trkpt>
      <trkpt lat="48.67772" lon="2.03382">
        <ele>166</ele>
        <time>2021-05-20T08:53:57.289Z</time>
      </trkpt>
      <trkpt lat="48.6777" lon="2.03382">
        <ele>166</ele>
        <time>2021-05-20T08:53:58.289Z</time>
      </trkpt>
      <trkpt lat="48.67769" lon="2.03382">
        <ele>166</ele>
        <time>2021-05-20T08:53:59.289Z</time>
      </trkpt>
      <trkpt lat="48.67768" lon="2.03382">
        <ele>166</ele>
        <time>2021-05-20T08:54:00.289Z</time>
      </trkpt>
      <trkpt lat="48.67767" lon="2.03382">
        <ele>166</ele>
        <time>2021-05-20T08:54:01.289Z</time>
      </trkpt>
      <trkpt lat="48.67765" lon="2.03382">
        <ele>166</ele>
        <time>2021-05-20T08:54:02.289Z</time>
      </trkpt>
      <trkpt lat="48.67764" lon="2.03382">
        <ele>167</ele>
        <time>2021-05-20T08:54:03.289Z</time>
      </trkpt>
      <trkpt lat="48.67763" lon="2.03382">
        <ele>167</ele>
        <time>2021-05-20T08:54:04.289Z</time>
      </trkpt>
      <trkpt lat="48.67762" lon="2.03381">
        <ele>167</ele>
        <time>2021-05-20T08:54:05.289Z</time>
      </trkpt>
      <trkpt lat="48.6776" lon="2.03381">
        <ele>167</ele>
        <time>2021-05-20T08:54:06.289Z</time>
      </trkpt>
      <trkpt lat="48.67759" lon="2.03381">
        <ele>167</ele>
        <time>2021-05-20T08:54:07.289Z</time>
      </trkpt>
      <trkpt lat="48.67758" lon="2.03381">
        <ele>167</ele>
        <time>2021-05-20T08:54:08.289Z</time>
      </trkpt>
      <trkpt lat="48.67757" lon="2.0338">
        <ele>167</ele>
        <time>2021-05-20T08:54:09.289Z</time>
      </trkpt>
      <trkpt lat="48.67756" lon="2.0338">
        <ele>167</ele>
        <time>2021-05-20T08:54:10.289Z</time>
      </trkpt>
      <trkpt lat="48.67754" lon="2.0338">
        <ele>167</ele>
        <time>2021-05-20T08:54:11.289Z</time>
      </trkpt>
      <trkpt lat="48.67753" lon="2.0338">
        <ele>167</ele>
        <time>2021-05-20T08:54:12.289Z</time>
      </trkpt>
      <trkpt lat="48.67752" lon="2.0338">
        <ele>167</ele>
        <time>2021-05-20T08:54:13.289Z</time>
      </trkpt>
      <trkpt lat="48.6775" lon="2.0338">
        <ele>167</ele>
        <time>2021-05-20T08:54:14.289Z</time>
      </trkpt>
      <trkpt lat="48.67749" lon="2.03379">
        <ele>167</ele>
        <time>2021-05-20T08:54:15.289Z</time>
      </trkpt>
      <trkpt lat="48.67747" lon="2.03379">
        <ele>167</ele>
        <time>2021-05-20T08:54:16.289Z</time>
      </trkpt>
      <trkpt lat="48.67746" lon="2.03379">
        <ele>167</ele>
        <time>2021-05-20T08:54:17.289Z</time>
      </trkpt>
      <trkpt lat="48.67745" lon="2.03378">
        <ele>167</ele>
        <time>2021-05-20T08:54:18.289Z</time>
      </trkpt>
      <trkpt lat="48.67743" lon="2.03378">
        <ele>167</ele>
        <time>2021-05-20T08:54:19.289Z</time>
      </trkpt>
      <trkpt lat="48.67742" lon="2.03378">
        <ele>167</ele>
        <time>2021-05-20T08:54:20.289Z</time>
      </trkpt>
      <trkpt lat="48.67741" lon="2.03378">
        <ele>167</ele>
        <time>2021-05-20T08:54:21.289Z</time>
      </trkpt>
      <trkpt lat="48.67739" lon="2.03378">
        <ele>167</ele>
        <time>2021-05-20T08:54:22.289Z</time>
      </trkpt>
      <trkpt lat="48.67738" lon="2.03378">
        <ele>167</ele>
        <time>2021-05-20T08:54:23.289Z</time>
      </trkpt>
      <trkpt lat="48.67737" lon="2.03378">
        <ele>167</ele>
        <time>2021-05-20T08:54:24.289Z</time>
      </trkpt>
      <trkpt lat="48.67735" lon="2.03377">
        <ele>167</ele>
        <time>2021-05-20T08:54:25.289Z</time>
      </trkpt>
      <trkpt lat="48.67734" lon="2.03377">
        <ele>167</ele>
        <time>2021-05-20T08:54:26.289Z</time>
      </trkpt>
      <trkpt lat="48.67733" lon="2.03377">
        <ele>168</ele>
        <time>2021-05-20T08:54:27.289Z</time>
      </trkpt>
      <trkpt lat="48.67731" lon="2.03377">
        <ele>168</ele>
        <time>2021-05-20T08:54:28.289Z</time>
      </trkpt>
      <trkpt lat="48.6773" lon="2.03377">
        <ele>168</ele>
        <time>2021-05-20T08:54:29.289Z</time>
      </trkpt>
      <trkpt lat="48.67729" lon="2.03377">
        <ele>168</ele>
        <time>2021-05-20T08:54:30.289Z</time>
      </trkpt>
      <trkpt lat="48.67728" lon="2.03376">
        <ele>168</ele>
        <time>2021-05-20T08:54:31.289Z</time>
      </trkpt>
      <trkpt lat="48.67726" lon="2.03376">
        <ele>168</ele>
        <time>2021-05-20T08:54:32.289Z</time>
      </trkpt>
      <trkpt lat="48.67725" lon="2.03376">
        <ele>168</ele>
        <time>2021-05-20T08:54:33.289Z</time>
      </trkpt>
      <trkpt lat="48.67724" lon="2.03376">
        <ele>168</ele>
        <time>2021-05-20T08:54:34.289Z</time>
      </trkpt>
      <trkpt lat="48.67723" lon="2.03376">
        <ele>168</ele>
        <time>2021-05-20T08:54:35.289Z</time>
      </trkpt>
      <trkpt lat="48.67721" lon="2.03376">
        <ele>168</ele>
        <time>2021-05-20T08:54:36.289Z</time>
      </trkpt>
      <trkpt lat="48.6772" lon="2.03376">
        <ele>168</ele>
        <time>2021-05-20T08:54:37.289Z</time>
      </trkpt>
      <trkpt lat="48.67719" lon="2.03376">
        <ele>168</ele>
        <time>2021-05-20T08:54:38.289Z</time>
      </trkpt>
      <trkpt lat="48.67718" lon="2.03376">
        <ele>168</ele>
        <time>2021-05-20T08:54:39.289Z</time>
      </trkpt>
      <trkpt lat="48.67716" lon="2.03375">
        <ele>168</ele>
        <time>2021-05-20T08:54:40.289Z</time>
      </trkpt>
      <trkpt lat="48.67715" lon="2.03375">
        <ele>168</ele>
        <time>2021-05-20T08:54:41.289Z</time>
      </trkpt>
      <trkpt lat="48.67714" lon="2.03375">
        <ele>168</ele>
        <time>2021-05-20T08:54:42.289Z</time>
      </trkpt>
      <trkpt lat="48.67712" lon="2.03375">
        <ele>168</ele>
        <time>2021-05-20T08:54:43.289Z</time>
      </trkpt>
      <trkpt lat="48.67711" lon="2.03374">
        <ele>168</ele>
        <time>2021-05-20T08:54:44.289Z</time>
      </trkpt>
      <trkpt lat="48.6771" lon="2.03374">
        <ele>168</ele>
        <time>2021-05-20T08:54:45.289Z</time>
      </trkpt>
      <trkpt lat="48.67709" lon="2.03374">
        <ele>168</ele>
        <time>2021-05-20T08:54:46.289Z</time>
      </trkpt>
      <trkpt lat="48.67707" lon="2.03374">
        <ele>168</ele>
        <time>2021-05-20T08:54:47.289Z</time>
      </trkpt>
      <trkpt lat="48.67706" lon="2.03374">
        <ele>168</ele>
        <time>2021-05-20T08:54:48.289Z</time>
      </trkpt>
      <trkpt lat="48.67705" lon="2.03373">
        <ele>168</ele>
        <time>2021-05-20T08:54:49.289Z</time>
      </trkpt>
      <trkpt lat="48.67703" lon="2.03373">
        <ele>168</ele>
        <time>2021-05-20T08:54:50.289Z</time>
      </trkpt>
      <trkpt lat="48.67702" lon="2.03373">
        <ele>168</ele>
        <time>2021-05-20T08:54:51.289Z</time>
      </trkpt>
      <trkpt lat="48.67701" lon="2.03373">
        <ele>168</ele>
        <time>2021-05-20T08:54:52.289Z</time>
      </trkpt>
      <trkpt lat="48.677" lon="2.03373">
        <ele>169</ele>
        <time>2021-05-20T08:54:53.289Z</time>
      </trkpt>
      <trkpt lat="48.67698" lon="2.03372">
        <ele>169</ele>
        <time>2021-05-20T08:54:54.289Z</time>
      </trkpt>
      <trkpt lat="48.67697" lon="2.03372">
        <ele>169</ele>
        <time>2021-05-20T08:54:55.289Z</time>
      </trkpt>
      <trkpt lat="48.67696" lon="2.03372">
        <ele>169</ele>
        <time>2021-05-20T08:54:56.289Z</time>
      </trkpt>
      <trkpt lat="48.67694" lon="2.03372">
        <ele>169</ele>
        <time>2021-05-20T08:54:57.289Z</time>
      </trkpt>
      <trkpt lat="48.67693" lon="2.03371">
        <ele>169</ele>
        <time>2021-05-20T08:54:58.289Z</time>
      </trkpt>
      <trkpt lat="48.67692" lon="2.03371">
        <ele>169</ele>
        <time>2021-05-20T08:54:59.289Z</time>
      </trkpt>
      <trkpt lat="48.67691" lon="2.03371">
        <ele>169</ele>
        <time>2021-05-20T08:55:00.289Z</time>
      </trkpt>
      <trkpt lat="48.67689" lon="2.03371">
        <ele>169</ele>
        <time>2021-05-20T08:55:01.289Z</time>
      </trkpt>
      <trkpt lat="48.67688" lon="2.03371">
        <ele>169</ele>
        <time>2021-05-20T08:55:02.289Z</time>
      </trkpt>
      <trkpt lat="48.67687" lon="2.03371">
        <ele>169</ele>
        <time>2021-05-20T08:55:03.289Z</time>
      </trkpt>
      <trkpt lat="48.67686" lon="2.03371">
        <ele>169</ele>
        <time>2021-05-20T08:55:04.289Z</time>
      </trkpt>
      <trkpt lat="48.67684" lon="2.0337">
        <ele>169</ele>
        <time>2021-05-20T08:55:05.289Z</time>
      </trkpt>
      <trkpt lat="48.67683" lon="2.0337">
        <ele>169</ele>
        <time>2021-05-20T08:55:06.289Z</time>
      </trkpt>
      <trkpt lat="48.67682" lon="2.0337">
        <ele>169</ele>
        <time>2021-05-20T08:55:07.289Z</time>
      </trkpt>
      <trkpt lat="48.6768" lon="2.0337">
        <ele>169</ele>
        <time>2021-05-20T08:55:08.289Z</time>
      </trkpt>
      <trkpt lat="48.67679" lon="2.0337">
        <ele>169</ele>
        <time>2021-05-20T08:55:09.289Z</time>
      </trkpt>
      <trkpt lat="48.67678" lon="2.0337">
        <ele>169</ele>
        <time>2021-05-20T08:55:10.289Z</time>
      </trkpt>
      <trkpt lat="48.67677" lon="2.0337">
        <ele>169</ele>
        <time>2021-05-20T08:55:11.289Z</time>
      </trkpt>
      <trkpt lat="48.67676" lon="2.0337">
        <ele>169</ele>
        <time>2021-05-20T08:55:12.289Z</time>
      </trkpt>
      <trkpt lat="48.67674" lon="2.0337">
        <ele>169</ele>
        <time>2021-05-20T08:55:13.289Z</time>
      </trkpt>
      <trkpt lat="48.67673" lon="2.0337">
        <ele>169</ele>
        <time>2021-05-20T08:55:14.289Z</time>
      </trkpt>
      <trkpt lat="48.67672" lon="2.03369">
        <ele>169</ele>
        <time>2021-05-20T08:55:15.289Z</time>
      </trkpt>
      <trkpt lat="48.6767" lon="2.03369">
        <ele>169</ele>
        <time>2021-05-20T08:55:16.289Z</time>
      </trkpt>
      <trkpt lat="48.67669" lon="2.03369">
        <ele>169</ele>
        <time>2021-05-20T08:55:17.289Z</time>
      </trkpt>
      <trkpt lat="48.67668" lon="2.03369">
        <ele>169</ele>
        <time>2021-05-20T08:55:18.289Z</time>
      </trkpt>
      <trkpt lat="48.67667" lon="2.03368">
        <ele>169</ele>
        <time>2021-05-20T08:55:19.289Z</time>
      </trkpt>
      <trkpt lat="48.67665" lon="2.03368">
        <ele>169</ele>
        <time>2021-05-20T08:55:20.289Z</time>
      </trkpt>
      <trkpt lat="48.67664" lon="2.03368">
        <ele>169</ele>
        <time>2021-05-20T08:55:21.289Z</time>
      </trkpt>
      <trkpt lat="48.67663" lon="2.03368">
        <ele>169</ele>
        <time>2021-05-20T08:55:22.289Z</time>
      </trkpt>
      <trkpt lat="48.67662" lon="2.03367">
        <ele>169</ele>
        <time>2021-05-20T08:55:23.289Z</time>
      </trkpt>
      <trkpt lat="48.6766" lon="2.03367">
        <ele>169</ele>
        <time>2021-05-20T08:55:24.289Z</time>
      </trkpt>
      <trkpt lat="48.67659" lon="2.03367">
        <ele>169</ele>
        <time>2021-05-20T08:55:25.289Z</time>
      </trkpt>
      <trkpt lat="48.67658" lon="2.03367">
        <ele>170</ele>
        <time>2021-05-20T08:55:26.289Z</time>
      </trkpt>
      <trkpt lat="48.67657" lon="2.03367">
        <ele>170</ele>
        <time>2021-05-20T08:55:27.289Z</time>
      </trkpt>
      <trkpt lat="48.67655" lon="2.03366">
        <ele>170</ele>
        <time>2021-05-20T08:55:28.289Z</time>
      </trkpt>
      <trkpt lat="48.67654" lon="2.03366">
        <ele>170</ele>
        <time>2021-05-20T08:55:29.289Z</time>
      </trkpt>
      <trkpt lat="48.67653" lon="2.03366">
        <ele>169</ele>
        <time>2021-05-20T08:55:30.289Z</time>
      </trkpt>
      <trkpt lat="48.67651" lon="2.03366">
        <ele>169</ele>
        <time>2021-05-20T08:55:31.289Z</time>
      </trkpt>
      <trkpt lat="48.6765" lon="2.03366">
        <ele>169</ele>
        <time>2021-05-20T08:55:32.289Z</time>
      </trkpt>
      <trkpt lat="48.67649" lon="2.03365">
        <ele>169</ele>
        <time>2021-05-20T08:55:33.289Z</time>
      </trkpt>
      <trkpt lat="48.67648" lon="2.03365">
        <ele>169</ele>
        <time>2021-05-20T08:55:34.289Z</time>
      </trkpt>
      <trkpt lat="48.67647" lon="2.03365">
        <ele>169</ele>
        <time>2021-05-20T08:55:35.289Z</time>
      </trkpt>
      <trkpt lat="48.67645" lon="2.03365">
        <ele>169</ele>
        <time>2021-05-20T08:55:36.289Z</time>
      </trkpt>
      <trkpt lat="48.67644" lon="2.03365">
        <ele>169</ele>
        <time>2021-05-20T08:55:37.289Z</time>
      </trkpt>
      <trkpt lat="48.67643" lon="2.03365">
        <ele>169</ele>
        <time>2021-05-20T08:55:38.289Z</time>
      </trkpt>
      <trkpt lat="48.67641" lon="2.03364">
        <ele>169</ele>
        <time>2021-05-20T08:55:39.289Z</time>
      </trkpt>
      <trkpt lat="48.6764" lon="2.03364">
        <ele>169</ele>
        <time>2021-05-20T08:55:40.289Z</time>
      </trkpt>
      <trkpt lat="48.67639" lon="2.03364">
        <ele>170</ele>
        <time>2021-05-20T08:55:41.289Z</time>
      </trkpt>
      <trkpt lat="48.67637" lon="2.03364">
        <ele>170</ele>
        <time>2021-05-20T08:55:42.289Z</time>
      </trkpt>
      <trkpt lat="48.67636" lon="2.03364">
        <ele>170</ele>
        <time>2021-05-20T08:55:43.289Z</time>
      </trkpt>
      <trkpt lat="48.67635" lon="2.03364">
        <ele>169</ele>
        <time>2021-05-20T08:55:44.289Z</time>
      </trkpt>
      <trkpt lat="48.67633" lon="2.03364">
        <ele>170</ele>
        <time>2021-05-20T08:55:45.289Z</time>
      </trkpt>
      <trkpt lat="48.67632" lon="2.03364">
        <ele>170</ele>
        <time>2021-05-20T08:55:46.289Z</time>
      </trkpt>
      <trkpt lat="48.67631" lon="2.03363">
        <ele>170</ele>
        <time>2021-05-20T08:55:47.289Z</time>
      </trkpt>
      <trkpt lat="48.67629" lon="2.03363">
        <ele>170</ele>
        <time>2021-05-20T08:55:48.289Z</time>
      </trkpt>
      <trkpt lat="48.67628" lon="2.03363">
        <ele>170</ele>
        <time>2021-05-20T08:55:49.289Z</time>
      </trkpt>
      <trkpt lat="48.67627" lon="2.03363">
        <ele>170</ele>
        <time>2021-05-20T08:55:50.289Z</time>
      </trkpt>
      <trkpt lat="48.67625" lon="2.03362">
        <ele>170</ele>
        <time>2021-05-20T08:55:51.289Z</time>
      </trkpt>
      <trkpt lat="48.67624" lon="2.03362">
        <ele>170</ele>
        <time>2021-05-20T08:55:52.289Z</time>
      </trkpt>
      <trkpt lat="48.67623" lon="2.03362">
        <ele>170</ele>
        <time>2021-05-20T08:55:53.289Z</time>
      </trkpt>
      <trkpt lat="48.67621" lon="2.03362">
        <ele>170</ele>
        <time>2021-05-20T08:55:54.289Z</time>
      </trkpt>
      <trkpt lat="48.6762" lon="2.03361">
        <ele>170</ele>
        <time>2021-05-20T08:55:55.289Z</time>
      </trkpt>
      <trkpt lat="48.67619" lon="2.03361">
        <ele>170</ele>
        <time>2021-05-20T08:55:56.289Z</time>
      </trkpt>
      <trkpt lat="48.67617" lon="2.03361">
        <ele>170</ele>
        <time>2021-05-20T08:55:57.289Z</time>
      </trkpt>
      <trkpt lat="48.67616" lon="2.03361">
        <ele>170</ele>
        <time>2021-05-20T08:55:58.289Z</time>
      </trkpt>
      <trkpt lat="48.67614" lon="2.03361">
        <ele>170</ele>
        <time>2021-05-20T08:55:59.289Z</time>
      </trkpt>
      <trkpt lat="48.67613" lon="2.03361">
        <ele>170</ele>
        <time>2021-05-20T08:56:00.289Z</time>
      </trkpt>
      <trkpt lat="48.67612" lon="2.0336">
        <ele>170</ele>
        <time>2021-05-20T08:56:01.289Z</time>
      </trkpt>
      <trkpt lat="48.6761" lon="2.0336">
        <ele>170</ele>
        <time>2021-05-20T08:56:02.289Z</time>
      </trkpt>
      <trkpt lat="48.67609" lon="2.0336">
        <ele>170</ele>
        <time>2021-05-20T08:56:03.289Z</time>
      </trkpt>
      <trkpt lat="48.67608" lon="2.0336">
        <ele>170</ele>
        <time>2021-05-20T08:56:04.289Z</time>
      </trkpt>
      <trkpt lat="48.67607" lon="2.0336">
        <ele>170</ele>
        <time>2021-05-20T08:56:05.289Z</time>
      </trkpt>
      <trkpt lat="48.67605" lon="2.0336">
        <ele>170</ele>
        <time>2021-05-20T08:56:06.289Z</time>
      </trkpt>
      <trkpt lat="48.67604" lon="2.0336">
        <ele>170</ele>
        <time>2021-05-20T08:56:07.289Z</time>
      </trkpt>
      <trkpt lat="48.67603" lon="2.03359">
        <ele>170</ele>
        <time>2021-05-20T08:56:08.289Z</time>
      </trkpt>
      <trkpt lat="48.67601" lon="2.03359">
        <ele>170</ele>
        <time>2021-05-20T08:56:09.289Z</time>
      </trkpt>
      <trkpt lat="48.676" lon="2.03359">
        <ele>170</ele>
        <time>2021-05-20T08:56:10.289Z</time>
      </trkpt>
      <trkpt lat="48.67599" lon="2.03359">
        <ele>170</ele>
        <time>2021-05-20T08:56:11.289Z</time>
      </trkpt>
      <trkpt lat="48.67597" lon="2.03359">
        <ele>170</ele>
        <time>2021-05-20T08:56:12.289Z</time>
      </trkpt>
      <trkpt lat="48.67596" lon="2.03359">
        <ele>170</ele>
        <time>2021-05-20T08:56:13.289Z</time>
      </trkpt>
      <trkpt lat="48.67595" lon="2.03359">
        <ele>170</ele>
        <time>2021-05-20T08:56:14.289Z</time>
      </trkpt>
      <trkpt lat="48.67593" lon="2.03358">
        <ele>170</ele>
        <time>2021-05-20T08:56:15.289Z</time>
      </trkpt>
      <trkpt lat="48.67592" lon="2.03358">
        <ele>171</ele>
        <time>2021-05-20T08:56:16.289Z</time>
      </trkpt>
      <trkpt lat="48.67591" lon="2.03358">
        <ele>171</ele>
        <time>2021-05-20T08:56:17.289Z</time>
      </trkpt>
      <trkpt lat="48.6759" lon="2.03358">
        <ele>171</ele>
        <time>2021-05-20T08:56:18.289Z</time>
      </trkpt>
      <trkpt lat="48.67589" lon="2.03358">
        <ele>171</ele>
        <time>2021-05-20T08:56:19.289Z</time>
      </trkpt>
      <trkpt lat="48.67587" lon="2.03358">
        <ele>171</ele>
        <time>2021-05-20T08:56:20.289Z</time>
      </trkpt>
      <trkpt lat="48.67586" lon="2.03358">
        <ele>171</ele>
        <time>2021-05-20T08:56:21.289Z</time>
      </trkpt>
      <trkpt lat="48.67585" lon="2.03358">
        <ele>171</ele>
        <time>2021-05-20T08:56:22.289Z</time>
      </trkpt>
      <trkpt lat="48.67584" lon="2.03358">
        <ele>171</ele>
        <time>2021-05-20T08:56:23.289Z</time>
      </trkpt>
      <trkpt lat="48.67582" lon="2.03357">
        <ele>171</ele>
        <time>2021-05-20T08:56:24.289Z</time>
      </trkpt>
      <trkpt lat="48.67581" lon="2.03357">
        <ele>171</ele>
        <time>2021-05-20T08:56:25.289Z</time>
      </trkpt>
      <trkpt lat="48.6758" lon="2.03357">
        <ele>171</ele>
        <time>2021-05-20T08:56:26.289Z</time>
      </trkpt>
      <trkpt lat="48.67579" lon="2.03357">
        <ele>171</ele>
        <time>2021-05-20T08:56:27.289Z</time>
      </trkpt>
      <trkpt lat="48.67577" lon="2.03356">
        <ele>172</ele>
        <time>2021-05-20T08:56:28.289Z</time>
      </trkpt>
      <trkpt lat="48.67576" lon="2.03357">
        <ele>172</ele>
        <time>2021-05-20T08:56:29.289Z</time>
      </trkpt>
      <trkpt lat="48.67575" lon="2.03356">
        <ele>172</ele>
        <time>2021-05-20T08:56:30.289Z</time>
      </trkpt>
      <trkpt lat="48.67574" lon="2.03356">
        <ele>172</ele>
        <time>2021-05-20T08:56:31.289Z</time>
      </trkpt>
      <trkpt lat="48.67572" lon="2.03356">
        <ele>172</ele>
        <time>2021-05-20T08:56:32.289Z</time>
      </trkpt>
      <trkpt lat="48.67571" lon="2.03356">
        <ele>172</ele>
        <time>2021-05-20T08:56:33.289Z</time>
      </trkpt>
      <trkpt lat="48.6757" lon="2.03356">
        <ele>172</ele>
        <time>2021-05-20T08:56:34.289Z</time>
      </trkpt>
      <trkpt lat="48.67569" lon="2.03356">
        <ele>172</ele>
        <time>2021-05-20T08:56:35.289Z</time>
      </trkpt>
      <trkpt lat="48.67567" lon="2.03356">
        <ele>172</ele>
        <time>2021-05-20T08:56:36.289Z</time>
      </trkpt>
      <trkpt lat="48.67566" lon="2.03356">
        <ele>172</ele>
        <time>2021-05-20T08:56:37.289Z</time>
      </trkpt>
      <trkpt lat="48.67565" lon="2.03356">
        <ele>172</ele>
        <time>2021-05-20T08:56:38.289Z</time>
      </trkpt>
      <trkpt lat="48.67563" lon="2.03356">
        <ele>172</ele>
        <time>2021-05-20T08:56:39.289Z</time>
      </trkpt>
      <trkpt lat="48.67562" lon="2.03356">
        <ele>172</ele>
        <time>2021-05-20T08:56:40.289Z</time>
      </trkpt>
      <trkpt lat="48.67561" lon="2.03356">
        <ele>172</ele>
        <time>2021-05-20T08:56:41.289Z</time>
      </trkpt>
      <trkpt lat="48.6756" lon="2.03356">
        <ele>172</ele>
        <time>2021-05-20T08:56:42.289Z</time>
      </trkpt>
      <trkpt lat="48.67558" lon="2.03356">
        <ele>173</ele>
        <time>2021-05-20T08:56:43.289Z</time>
      </trkpt>
      <trkpt lat="48.67557" lon="2.03356">
        <ele>173</ele>
        <time>2021-05-20T08:56:44.289Z</time>
      </trkpt>
      <trkpt lat="48.67556" lon="2.03356">
        <ele>173</ele>
        <time>2021-05-20T08:56:45.289Z</time>
      </trkpt>
      <trkpt lat="48.67554" lon="2.03355">
        <ele>173</ele>
        <time>2021-05-20T08:56:46.289Z</time>
      </trkpt>
      <trkpt lat="48.67553" lon="2.03355">
        <ele>173</ele>
        <time>2021-05-20T08:56:47.289Z</time>
      </trkpt>
      <trkpt lat="48.67551" lon="2.03355">
        <ele>173</ele>
        <time>2021-05-20T08:56:48.289Z</time>
      </trkpt>
      <trkpt lat="48.6755" lon="2.03355">
        <ele>173</ele>
        <time>2021-05-20T08:56:49.289Z</time>
      </trkpt>
      <trkpt lat="48.67549" lon="2.03354">
        <ele>173</ele>
        <time>2021-05-20T08:56:50.289Z</time>
      </trkpt>
      <trkpt lat="48.67547" lon="2.03354">
        <ele>173</ele>
        <time>2021-05-20T08:56:51.289Z</time>
      </trkpt>
      <trkpt lat="48.67546" lon="2.03354">
        <ele>173</ele>
        <time>2021-05-20T08:56:52.289Z</time>
      </trkpt>
      <trkpt lat="48.67545" lon="2.03354">
        <ele>173</ele>
        <time>2021-05-20T08:56:53.289Z</time>
      </trkpt>
      <trkpt lat="48.67544" lon="2.03354">
        <ele>173</ele>
        <time>2021-05-20T08:56:54.289Z</time>
      </trkpt>
      <trkpt lat="48.67542" lon="2.03354">
        <ele>173</ele>
        <time>2021-05-20T08:56:55.289Z</time>
      </trkpt>
      <trkpt lat="48.67541" lon="2.03354">
        <ele>173</ele>
        <time>2021-05-20T08:56:56.289Z</time>
      </trkpt>
      <trkpt lat="48.6754" lon="2.03353">
        <ele>173</ele>
        <time>2021-05-20T08:56:57.289Z</time>
      </trkpt>
      <trkpt lat="48.67539" lon="2.03353">
        <ele>173</ele>
        <time>2021-05-20T08:56:58.289Z</time>
      </trkpt>
      <trkpt lat="48.67537" lon="2.03353">
        <ele>173</ele>
        <time>2021-05-20T08:56:59.289Z</time>
      </trkpt>
      <trkpt lat="48.67536" lon="2.03353">
        <ele>173</ele>
        <time>2021-05-20T08:57:00.289Z</time>
      </trkpt>
      <trkpt lat="48.67535" lon="2.03353">
        <ele>173</ele>
        <time>2021-05-20T08:57:01.289Z</time>
      </trkpt>
      <trkpt lat="48.67534" lon="2.03353">
        <ele>173</ele>
        <time>2021-05-20T08:57:02.289Z</time>
      </trkpt>
      <trkpt lat="48.67533" lon="2.03353">
        <ele>173</ele>
        <time>2021-05-20T08:57:03.289Z</time>
      </trkpt>
      <trkpt lat="48.67531" lon="2.03353">
        <ele>173</ele>
        <time>2021-05-20T08:57:04.289Z</time>
      </trkpt>
      <trkpt lat="48.6753" lon="2.03353">
        <ele>173</ele>
        <time>2021-05-20T08:57:05.289Z</time>
      </trkpt>
      <trkpt lat="48.67529" lon="2.03352">
        <ele>173</ele>
        <time>2021-05-20T08:57:06.289Z</time>
      </trkpt>
      <trkpt lat="48.67527" lon="2.03352">
        <ele>173</ele>
        <time>2021-05-20T08:57:07.289Z</time>
      </trkpt>
      <trkpt lat="48.67526" lon="2.03353">
        <ele>173</ele>
        <time>2021-05-20T08:57:08.289Z</time>
      </trkpt>
      <trkpt lat="48.67525" lon="2.03352">
        <ele>173</ele>
        <time>2021-05-20T08:57:09.289Z</time>
      </trkpt>
      <trkpt lat="48.67524" lon="2.03352">
        <ele>173</ele>
        <time>2021-05-20T08:57:10.289Z</time>
      </trkpt>
      <trkpt lat="48.67522" lon="2.03352">
        <ele>173</ele>
        <time>2021-05-20T08:57:11.289Z</time>
      </trkpt>
      <trkpt lat="48.67521" lon="2.03352">
        <ele>173</ele>
        <time>2021-05-20T08:57:12.289Z</time>
      </trkpt>
      <trkpt lat="48.6752" lon="2.03353">
        <ele>173</ele>
        <time>2021-05-20T08:57:13.289Z</time>
      </trkpt>
      <trkpt lat="48.67518" lon="2.03353">
        <ele>173</ele>
        <time>2021-05-20T08:57:14.289Z</time>
      </trkpt>
      <trkpt lat="48.67517" lon="2.03353">
        <ele>173</ele>
        <time>2021-05-20T08:57:15.289Z</time>
      </trkpt>
      <trkpt lat="48.67516" lon="2.03353">
        <ele>173</ele>
        <time>2021-05-20T08:57:16.289Z</time>
      </trkpt>
      <trkpt lat="48.67514" lon="2.03352">
        <ele>173</ele>
        <time>2021-05-20T08:57:17.289Z</time>
      </trkpt>
      <trkpt lat="48.67513" lon="2.03352">
        <ele>173</ele>
        <time>2021-05-20T08:57:18.289Z</time>
      </trkpt>
      <trkpt lat="48.67512" lon="2.03352">
        <ele>173</ele>
        <time>2021-05-20T08:57:19.289Z</time>
      </trkpt>
      <trkpt lat="48.67511" lon="2.03352">
        <ele>173</ele>
        <time>2021-05-20T08:57:20.289Z</time>
      </trkpt>
      <trkpt lat="48.67509" lon="2.03353">
        <ele>173</ele>
        <time>2021-05-20T08:57:21.289Z</time>
      </trkpt>
      <trkpt lat="48.67508" lon="2.03353">
        <ele>173</ele>
        <time>2021-05-20T08:57:22.289Z</time>
      </trkpt>
      <trkpt lat="48.67506" lon="2.03353">
        <ele>173</ele>
        <time>2021-05-20T08:57:23.289Z</time>
      </trkpt>
      <trkpt lat="48.67505" lon="2.03353">
        <ele>173</ele>
        <time>2021-05-20T08:57:24.289Z</time>
      </trkpt>
      <trkpt lat="48.67504" lon="2.03353">
        <ele>173</ele>
        <time>2021-05-20T08:57:25.289Z</time>
      </trkpt>
      <trkpt lat="48.67502" lon="2.03353">
        <ele>173</ele>
        <time>2021-05-20T08:57:26.289Z</time>
      </trkpt>
      <trkpt lat="48.67501" lon="2.03353">
        <ele>173</ele>
        <time>2021-05-20T08:57:27.289Z</time>
      </trkpt>
      <trkpt lat="48.675" lon="2.03353">
        <ele>173</ele>
        <time>2021-05-20T08:57:28.289Z</time>
      </trkpt>
      <trkpt lat="48.67498" lon="2.03354">
        <ele>173</ele>
        <time>2021-05-20T08:57:29.289Z</time>
      </trkpt>
      <trkpt lat="48.67497" lon="2.03354">
        <ele>173</ele>
        <time>2021-05-20T08:57:30.289Z</time>
      </trkpt>
      <trkpt lat="48.67496" lon="2.03354">
        <ele>173</ele>
        <time>2021-05-20T08:57:31.289Z</time>
      </trkpt>
      <trkpt lat="48.67495" lon="2.03353">
        <ele>172</ele>
        <time>2021-05-20T08:57:32.289Z</time>
      </trkpt>
      <trkpt lat="48.67493" lon="2.03354">
        <ele>172</ele>
        <time>2021-05-20T08:57:33.289Z</time>
      </trkpt>
      <trkpt lat="48.67492" lon="2.03354">
        <ele>172</ele>
        <time>2021-05-20T08:57:34.289Z</time>
      </trkpt>
      <trkpt lat="48.6749" lon="2.03353">
        <ele>172</ele>
        <time>2021-05-20T08:57:35.289Z</time>
      </trkpt>
      <trkpt lat="48.67489" lon="2.03353">
        <ele>172</ele>
        <time>2021-05-20T08:57:36.289Z</time>
      </trkpt>
      <trkpt lat="48.67488" lon="2.03354">
        <ele>172</ele>
        <time>2021-05-20T08:57:37.289Z</time>
      </trkpt>
      <trkpt lat="48.67486" lon="2.03354">
        <ele>172</ele>
        <time>2021-05-20T08:57:38.289Z</time>
      </trkpt>
      <trkpt lat="48.67485" lon="2.03354">
        <ele>172</ele>
        <time>2021-05-20T08:57:39.289Z</time>
      </trkpt>
      <trkpt lat="48.67484" lon="2.03354">
        <ele>172</ele>
        <time>2021-05-20T08:57:40.289Z</time>
      </trkpt>
      <trkpt lat="48.67482" lon="2.03354">
        <ele>173</ele>
        <time>2021-05-20T08:57:41.289Z</time>
      </trkpt>
      <trkpt lat="48.67481" lon="2.03355">
        <ele>173</ele>
        <time>2021-05-20T08:57:42.289Z</time>
      </trkpt>
      <trkpt lat="48.6748" lon="2.03355">
        <ele>173</ele>
        <time>2021-05-20T08:57:43.289Z</time>
      </trkpt>
      <trkpt lat="48.67479" lon="2.03355">
        <ele>173</ele>
        <time>2021-05-20T08:57:44.289Z</time>
      </trkpt>
      <trkpt lat="48.67478" lon="2.03355">
        <ele>172</ele>
        <time>2021-05-20T08:57:45.289Z</time>
      </trkpt>
      <trkpt lat="48.67476" lon="2.03355">
        <ele>172</ele>
        <time>2021-05-20T08:57:46.289Z</time>
      </trkpt>
      <trkpt lat="48.67475" lon="2.03355">
        <ele>172</ele>
        <time>2021-05-20T08:57:47.289Z</time>
      </trkpt>
      <trkpt lat="48.67474" lon="2.03355">
        <ele>172</ele>
        <time>2021-05-20T08:57:48.289Z</time>
      </trkpt>
      <trkpt lat="48.67472" lon="2.03355">
        <ele>172</ele>
        <time>2021-05-20T08:57:49.289Z</time>
      </trkpt>
      <trkpt lat="48.67471" lon="2.03355">
        <ele>172</ele>
        <time>2021-05-20T08:57:50.289Z</time>
      </trkpt>
      <trkpt lat="48.6747" lon="2.03355">
        <ele>172</ele>
        <time>2021-05-20T08:57:51.289Z</time>
      </trkpt>
      <trkpt lat="48.67468" lon="2.03355">
        <ele>172</ele>
        <time>2021-05-20T08:57:52.289Z</time>
      </trkpt>
      <trkpt lat="48.67467" lon="2.03355">
        <ele>172</ele>
        <time>2021-05-20T08:57:53.289Z</time>
      </trkpt>
      <trkpt lat="48.67466" lon="2.03355">
        <ele>172</ele>
        <time>2021-05-20T08:57:54.289Z</time>
      </trkpt>
      <trkpt lat="48.67465" lon="2.03355">
        <ele>172</ele>
        <time>2021-05-20T08:57:55.289Z</time>
      </trkpt>
      <trkpt lat="48.67464" lon="2.03355">
        <ele>172</ele>
        <time>2021-05-20T08:57:56.289Z</time>
      </trkpt>
      <trkpt lat="48.67463" lon="2.03355">
        <ele>172</ele>
        <time>2021-05-20T08:57:57.289Z</time>
      </trkpt>
      <trkpt lat="48.67461" lon="2.03355">
        <ele>172</ele>
        <time>2021-05-20T08:57:58.289Z</time>
      </trkpt>
      <trkpt lat="48.6746" lon="2.03355">
        <ele>172</ele>
        <time>2021-05-20T08:57:59.289Z</time>
      </trkpt>
      <trkpt lat="48.67458" lon="2.03355">
        <ele>172</ele>
        <time>2021-05-20T08:58:00.289Z</time>
      </trkpt>
      <trkpt lat="48.67457" lon="2.03355">
        <ele>172</ele>
        <time>2021-05-20T08:58:01.289Z</time>
      </trkpt>
      <trkpt lat="48.67457" lon="2.03355">
        <ele>172</ele>
        <time>2021-05-20T08:58:02.289Z</time>
      </trkpt>
      <trkpt lat="48.67456" lon="2.03355">
        <ele>172</ele>
        <time>2021-05-20T08:58:03.289Z</time>
      </trkpt>
      <trkpt lat="48.67456" lon="2.03355">
        <ele>172</ele>
        <time>2021-05-20T08:58:04.289Z</time>
      </trkpt>
      <trkpt lat="48.67454" lon="2.03355">
        <ele>172</ele>
        <time>2021-05-20T08:58:05.289Z</time>
      </trkpt>
      <trkpt lat="48.67453" lon="2.03355">
        <ele>172</ele>
        <time>2021-05-20T08:58:06.289Z</time>
      </trkpt>
      <trkpt lat="48.67452" lon="2.03355">
        <ele>172</ele>
        <time>2021-05-20T08:58:07.289Z</time>
      </trkpt>
      <trkpt lat="48.67452" lon="2.03355">
        <ele>172</ele>
        <time>2021-05-20T08:58:08.289Z</time>
      </trkpt>
      <trkpt lat="48.67452" lon="2.03355">
        <ele>172</ele>
        <time>2021-05-20T08:58:09.289Z</time>
      </trkpt>
      <trkpt lat="48.67451" lon="2.03355">
        <ele>172</ele>
        <time>2021-05-20T08:58:10.289Z</time>
      </trkpt>
      <trkpt lat="48.6745" lon="2.03354">
        <ele>172</ele>
        <time>2021-05-20T08:58:11.289Z</time>
      </trkpt>
      <trkpt lat="48.67449" lon="2.03354">
        <ele>172</ele>
        <time>2021-05-20T08:58:12.289Z</time>
      </trkpt>
      <trkpt lat="48.67447" lon="2.03354">
        <ele>172</ele>
        <time>2021-05-20T08:58:13.289Z</time>
      </trkpt>
      <trkpt lat="48.67446" lon="2.03354">
        <ele>172</ele>
        <time>2021-05-20T08:58:14.289Z</time>
      </trkpt>
      <trkpt lat="48.67444" lon="2.03354">
        <ele>172</ele>
        <time>2021-05-20T08:58:15.289Z</time>
      </trkpt>
      <trkpt lat="48.67443" lon="2.03354">
        <ele>172</ele>
        <time>2021-05-20T08:58:16.289Z</time>
      </trkpt>
      <trkpt lat="48.67441" lon="2.03354">
        <ele>172</ele>
        <time>2021-05-20T08:58:17.289Z</time>
      </trkpt>
      <trkpt lat="48.67439" lon="2.03354">
        <ele>172</ele>
        <time>2021-05-20T08:58:18.289Z</time>
      </trkpt>
      <trkpt lat="48.67438" lon="2.03354">
        <ele>172</ele>
        <time>2021-05-20T08:58:19.289Z</time>
      </trkpt>
      <trkpt lat="48.67436" lon="2.03354">
        <ele>172</ele>
        <time>2021-05-20T08:58:20.289Z</time>
      </trkpt>
      <trkpt lat="48.67435" lon="2.03354">
        <ele>172</ele>
        <time>2021-05-20T08:58:21.289Z</time>
      </trkpt>
      <trkpt lat="48.67433" lon="2.03354">
        <ele>172</ele>
        <time>2021-05-20T08:58:22.289Z</time>
      </trkpt>
      <trkpt lat="48.67432" lon="2.03354">
        <ele>172</ele>
        <time>2021-05-20T08:58:23.289Z</time>
      </trkpt>
      <trkpt lat="48.6743" lon="2.03354">
        <ele>172</ele>
        <time>2021-05-20T08:58:24.289Z</time>
      </trkpt>
      <trkpt lat="48.67429" lon="2.03354">
        <ele>172</ele>
        <time>2021-05-20T08:58:25.289Z</time>
      </trkpt>
      <trkpt lat="48.67427" lon="2.03354">
        <ele>172</ele>
        <time>2021-05-20T08:58:26.289Z</time>
      </trkpt>
      <trkpt lat="48.67426" lon="2.03354">
        <ele>172</ele>
        <time>2021-05-20T08:58:27.289Z</time>
      </trkpt>
      <trkpt lat="48.67424" lon="2.03354">
        <ele>172</ele>
        <time>2021-05-20T08:58:28.289Z</time>
      </trkpt>
      <trkpt lat="48.67422" lon="2.03353">
        <ele>172</ele>
        <time>2021-05-20T08:58:29.289Z</time>
      </trkpt>
      <trkpt lat="48.67421" lon="2.03353">
        <ele>172</ele>
        <time>2021-05-20T08:58:30.289Z</time>
      </trkpt>
      <trkpt lat="48.67419" lon="2.03353">
        <ele>172</ele>
        <time>2021-05-20T08:58:31.289Z</time>
      </trkpt>
      <trkpt lat="48.67418" lon="2.03353">
        <ele>172</ele>
        <time>2021-05-20T08:58:32.289Z</time>
      </trkpt>
      <trkpt lat="48.67417" lon="2.03353">
        <ele>172</ele>
        <time>2021-05-20T08:58:33.289Z</time>
      </trkpt>
      <trkpt lat="48.67415" lon="2.03353">
        <ele>172</ele>
        <time>2021-05-20T08:58:34.289Z</time>
      </trkpt>
      <trkpt lat="48.67414" lon="2.03353">
        <ele>172</ele>
        <time>2021-05-20T08:58:35.289Z</time>
      </trkpt>
      <trkpt lat="48.67412" lon="2.03353">
        <ele>172</ele>
        <time>2021-05-20T08:58:36.289Z</time>
      </trkpt>
      <trkpt lat="48.67411" lon="2.03353">
        <ele>172</ele>
        <time>2021-05-20T08:58:37.289Z</time>
      </trkpt>
      <trkpt lat="48.67409" lon="2.03353">
        <ele>172</ele>
        <time>2021-05-20T08:58:38.289Z</time>
      </trkpt>
      <trkpt lat="48.67408" lon="2.03353">
        <ele>172</ele>
        <time>2021-05-20T08:58:39.289Z</time>
      </trkpt>
      <trkpt lat="48.67406" lon="2.03353">
        <ele>172</ele>
        <time>2021-05-20T08:58:40.289Z</time>
      </trkpt>
      <trkpt lat="48.67405" lon="2.03354">
        <ele>172</ele>
        <time>2021-05-20T08:58:41.289Z</time>
      </trkpt>
      <trkpt lat="48.67403" lon="2.03354">
        <ele>172</ele>
        <time>2021-05-20T08:58:42.289Z</time>
      </trkpt>
      <trkpt lat="48.67402" lon="2.03355">
        <ele>172</ele>
        <time>2021-05-20T08:58:43.289Z</time>
      </trkpt>
      <trkpt lat="48.67402" lon="2.03356">
        <ele>172</ele>
        <time>2021-05-20T08:58:44.289Z</time>
      </trkpt>
      <trkpt lat="48.67401" lon="2.03358">
        <ele>172</ele>
        <time>2021-05-20T08:58:45.289Z</time>
      </trkpt>
      <trkpt lat="48.674" lon="2.03359">
        <ele>172</ele>
        <time>2021-05-20T08:58:46.289Z</time>
      </trkpt>
      <trkpt lat="48.674" lon="2.03359">
        <ele>172</ele>
        <time>2021-05-20T08:58:47.289Z</time>
      </trkpt>
      <trkpt lat="48.674" lon="2.03359">
        <ele>172</ele>
        <time>2021-05-20T08:58:48.289Z</time>
      </trkpt>
      <trkpt lat="48.674" lon="2.03359">
        <ele>172</ele>
        <time>2021-05-20T08:58:49.289Z</time>
      </trkpt>
      <trkpt lat="48.67399" lon="2.03359">
        <ele>172</ele>
        <time>2021-05-20T08:58:50.289Z</time>
      </trkpt>
      <trkpt lat="48.67399" lon="2.03359">
        <ele>172</ele>
        <time>2021-05-20T08:58:51.289Z</time>
      </trkpt>
      <trkpt lat="48.67398" lon="2.0336">
        <ele>172</ele>
        <time>2021-05-20T08:58:52.289Z</time>
      </trkpt>
      <trkpt lat="48.67398" lon="2.03361">
        <ele>172</ele>
        <time>2021-05-20T08:58:53.289Z</time>
      </trkpt>
      <trkpt lat="48.67398" lon="2.03362">
        <ele>172</ele>
        <time>2021-05-20T08:58:54.289Z</time>
      </trkpt>
      <trkpt lat="48.67397" lon="2.03364">
        <ele>172</ele>
        <time>2021-05-20T08:58:55.289Z</time>
      </trkpt>
      <trkpt lat="48.67397" lon="2.03365">
        <ele>172</ele>
        <time>2021-05-20T08:58:56.289Z</time>
      </trkpt>
      <trkpt lat="48.67397" lon="2.03366">
        <ele>172</ele>
        <time>2021-05-20T08:58:57.289Z</time>
      </trkpt>
      <trkpt lat="48.67397" lon="2.03368">
        <ele>172</ele>
        <time>2021-05-20T08:58:58.289Z</time>
      </trkpt>
      <trkpt lat="48.67396" lon="2.03369">
        <ele>172</ele>
        <time>2021-05-20T08:58:59.289Z</time>
      </trkpt>
      <trkpt lat="48.67396" lon="2.03371">
        <ele>172</ele>
        <time>2021-05-20T08:59:00.289Z</time>
      </trkpt>
      <trkpt lat="48.67396" lon="2.03372">
        <ele>172</ele>
        <time>2021-05-20T08:59:01.289Z</time>
      </trkpt>
      <trkpt lat="48.67396" lon="2.03374">
        <ele>172</ele>
        <time>2021-05-20T08:59:02.289Z</time>
      </trkpt>
      <trkpt lat="48.67396" lon="2.03376">
        <ele>172</ele>
        <time>2021-05-20T08:59:03.289Z</time>
      </trkpt>
      <trkpt lat="48.67395" lon="2.03378">
        <ele>172</ele>
        <time>2021-05-20T08:59:04.289Z</time>
      </trkpt>
      <trkpt lat="48.67395" lon="2.0338">
        <ele>172</ele>
        <time>2021-05-20T08:59:05.289Z</time>
      </trkpt>
      <trkpt lat="48.67395" lon="2.03382">
        <ele>172</ele>
        <time>2021-05-20T08:59:06.289Z</time>
      </trkpt>
      <trkpt lat="48.67395" lon="2.03384">
        <ele>172</ele>
        <time>2021-05-20T08:59:07.289Z</time>
      </trkpt>
      <trkpt lat="48.67394" lon="2.03386">
        <ele>172</ele>
        <time>2021-05-20T08:59:08.289Z</time>
      </trkpt>
      <trkpt lat="48.67394" lon="2.03387">
        <ele>172</ele>
        <time>2021-05-20T08:59:09.289Z</time>
      </trkpt>
      <trkpt lat="48.67394" lon="2.03389">
        <ele>172</ele>
        <time>2021-05-20T08:59:10.289Z</time>
      </trkpt>
      <trkpt lat="48.67394" lon="2.03391">
        <ele>172</ele>
        <time>2021-05-20T08:59:11.289Z</time>
      </trkpt>
      <trkpt lat="48.67394" lon="2.03393">
        <ele>172</ele>
        <time>2021-05-20T08:59:12.289Z</time>
      </trkpt>
      <trkpt lat="48.67393" lon="2.03395">
        <ele>172</ele>
        <time>2021-05-20T08:59:13.289Z</time>
      </trkpt>
      <trkpt lat="48.67393" lon="2.03397">
        <ele>172</ele>
        <time>2021-05-20T08:59:14.289Z</time>
      </trkpt>
      <trkpt lat="48.67393" lon="2.03399">
        <ele>172</ele>
        <time>2021-05-20T08:59:15.289Z</time>
      </trkpt>
      <trkpt lat="48.67393" lon="2.03401">
        <ele>172</ele>
        <time>2021-05-20T08:59:16.289Z</time>
      </trkpt>
      <trkpt lat="48.67393" lon="2.03403">
        <ele>172</ele>
        <time>2021-05-20T08:59:17.289Z</time>
      </trkpt>
      <trkpt lat="48.67392" lon="2.03405">
        <ele>172</ele>
        <time>2021-05-20T08:59:18.289Z</time>
      </trkpt>
      <trkpt lat="48.67392" lon="2.03407">
        <ele>172</ele>
        <time>2021-05-20T08:59:19.289Z</time>
      </trkpt>
      <trkpt lat="48.67392" lon="2.03409">
        <ele>172</ele>
        <time>2021-05-20T08:59:20.289Z</time>
      </trkpt>
      <trkpt lat="48.67392" lon="2.03411">
        <ele>172</ele>
        <time>2021-05-20T08:59:21.289Z</time>
      </trkpt>
      <trkpt lat="48.67392" lon="2.03413">
        <ele>172</ele>
        <time>2021-05-20T08:59:22.289Z</time>
      </trkpt>
      <trkpt lat="48.67391" lon="2.03414">
        <ele>172</ele>
        <time>2021-05-20T08:59:23.289Z</time>
      </trkpt>
      <trkpt lat="48.67391" lon="2.03416">
        <ele>172</ele>
        <time>2021-05-20T08:59:24.289Z</time>
      </trkpt>
      <trkpt lat="48.67391" lon="2.03418">
        <ele>172</ele>
        <time>2021-05-20T08:59:25.289Z</time>
      </trkpt>
      <trkpt lat="48.67391" lon="2.0342">
        <ele>172</ele>
        <time>2021-05-20T08:59:26.289Z</time>
      </trkpt>
      <trkpt lat="48.6739" lon="2.03422">
        <ele>172</ele>
        <time>2021-05-20T08:59:27.289Z</time>
      </trkpt>
      <trkpt lat="48.6739" lon="2.03424">
        <ele>171</ele>
        <time>2021-05-20T08:59:28.289Z</time>
      </trkpt>
      <trkpt lat="48.6739" lon="2.03426">
        <ele>171</ele>
        <time>2021-05-20T08:59:29.289Z</time>
      </trkpt>
      <trkpt lat="48.6739" lon="2.03427">
        <ele>171</ele>
        <time>2021-05-20T08:59:30.289Z</time>
      </trkpt>
      <trkpt lat="48.6739" lon="2.03429">
        <ele>171</ele>
        <time>2021-05-20T08:59:31.289Z</time>
      </trkpt>
      <trkpt lat="48.67389" lon="2.03431">
        <ele>171</ele>
        <time>2021-05-20T08:59:32.289Z</time>
      </trkpt>
      <trkpt lat="48.67389" lon="2.03433">
        <ele>171</ele>
        <time>2021-05-20T08:59:33.289Z</time>
      </trkpt>
      <trkpt lat="48.67389" lon="2.03435">
        <ele>171</ele>
        <time>2021-05-20T08:59:34.289Z</time>
      </trkpt>
      <trkpt lat="48.67389" lon="2.03437">
        <ele>171</ele>
        <time>2021-05-20T08:59:35.289Z</time>
      </trkpt>
      <trkpt lat="48.67388" lon="2.03439">
        <ele>171</ele>
        <time>2021-05-20T08:59:36.289Z</time>
      </trkpt>
      <trkpt lat="48.67388" lon="2.03439">
        <ele>171</ele>
        <time>2021-05-20T08:59:37.289Z</time>
      </trkpt>
      <trkpt lat="48.67388" lon="2.0344">
        <ele>171</ele>
        <time>2021-05-20T08:59:38.289Z</time>
      </trkpt>
      <trkpt lat="48.67388" lon="2.0344">
        <ele>171</ele>
        <time>2021-05-20T08:59:39.289Z</time>
      </trkpt>
      <trkpt lat="48.67388" lon="2.0344">
        <ele>171</ele>
        <time>2021-05-20T08:59:40.289Z</time>
      </trkpt>
      <trkpt lat="48.67389" lon="2.03441">
        <ele>171</ele>
        <time>2021-05-20T08:59:41.289Z</time>
      </trkpt>
      <trkpt lat="48.67389" lon="2.03442">
        <ele>171</ele>
        <time>2021-05-20T08:59:42.289Z</time>
      </trkpt>
      <trkpt lat="48.67388" lon="2.03444">
        <ele>171</ele>
        <time>2021-05-20T08:59:43.289Z</time>
      </trkpt>
      <trkpt lat="48.67388" lon="2.03446">
        <ele>171</ele>
        <time>2021-05-20T08:59:44.289Z</time>
      </trkpt>
      <trkpt lat="48.67388" lon="2.03448">
        <ele>171</ele>
        <time>2021-05-20T08:59:45.289Z</time>
      </trkpt>
      <trkpt lat="48.67388" lon="2.0345">
        <ele>171</ele>
        <time>2021-05-20T08:59:46.289Z</time>
      </trkpt>
      <trkpt lat="48.67388" lon="2.03452">
        <ele>171</ele>
        <time>2021-05-20T08:59:47.289Z</time>
      </trkpt>
      <trkpt lat="48.67388" lon="2.03454">
        <ele>171</ele>
        <time>2021-05-20T08:59:48.289Z</time>
      </trkpt>
      <trkpt lat="48.67388" lon="2.03456">
        <ele>171</ele>
        <time>2021-05-20T08:59:49.289Z</time>
      </trkpt>
      <trkpt lat="48.67387" lon="2.03458">
        <ele>171</ele>
        <time>2021-05-20T08:59:50.289Z</time>
      </trkpt>
      <trkpt lat="48.67387" lon="2.0346">
        <ele>171</ele>
        <time>2021-05-20T08:59:51.289Z</time>
      </trkpt>
      <trkpt lat="48.67387" lon="2.03462">
        <ele>171</ele>
        <time>2021-05-20T08:59:52.289Z</time>
      </trkpt>
      <trkpt lat="48.67387" lon="2.03464">
        <ele>171</ele>
        <time>2021-05-20T08:59:53.289Z</time>
      </trkpt>
      <trkpt lat="48.67386" lon="2.03466">
        <ele>171</ele>
        <time>2021-05-20T08:59:54.289Z</time>
      </trkpt>
      <trkpt lat="48.67386" lon="2.03468">
        <ele>171</ele>
        <time>2021-05-20T08:59:55.289Z</time>
      </trkpt>
      <trkpt lat="48.67386" lon="2.0347">
        <ele>171</ele>
        <time>2021-05-20T08:59:56.289Z</time>
      </trkpt>
      <trkpt lat="48.67386" lon="2.03472">
        <ele>171</ele>
        <time>2021-05-20T08:59:57.289Z</time>
      </trkpt>
      <trkpt lat="48.67386" lon="2.03474">
        <ele>171</ele>
        <time>2021-05-20T08:59:58.289Z</time>
      </trkpt>
      <trkpt lat="48.67385" lon="2.03476">
        <ele>171</ele>
        <time>2021-05-20T08:59:59.289Z</time>
      </trkpt>
      <trkpt lat="48.67385" lon="2.03478">
        <ele>171</ele>
        <time>2021-05-20T09:00:00.289Z</time>
      </trkpt>
      <trkpt lat="48.67385" lon="2.0348">
        <ele>171</ele>
        <time>2021-05-20T09:00:01.289Z</time>
      </trkpt>
      <trkpt lat="48.67384" lon="2.03482">
        <ele>171</ele>
        <time>2021-05-20T09:00:02.289Z</time>
      </trkpt>
      <trkpt lat="48.67384" lon="2.03484">
        <ele>171</ele>
        <time>2021-05-20T09:00:03.289Z</time>
      </trkpt>
      <trkpt lat="48.67384" lon="2.03486">
        <ele>171</ele>
        <time>2021-05-20T09:00:04.289Z</time>
      </trkpt>
      <trkpt lat="48.67384" lon="2.03488">
        <ele>171</ele>
        <time>2021-05-20T09:00:05.289Z</time>
      </trkpt>
      <trkpt lat="48.67384" lon="2.0349">
        <ele>171</ele>
        <time>2021-05-20T09:00:09.292Z</time>
      </trkpt>
      <trkpt lat="48.67384" lon="2.03492">
        <ele>171</ele>
        <time>2021-05-20T09:00:10.292Z</time>
      </trkpt>
      <trkpt lat="48.67384" lon="2.03494">
        <ele>171</ele>
        <time>2021-05-20T09:00:11.292Z</time>
      </trkpt>
      <trkpt lat="48.67384" lon="2.03496">
        <ele>171</ele>
        <time>2021-05-20T09:00:12.292Z</time>
      </trkpt>
      <trkpt lat="48.67383" lon="2.03498">
        <ele>171</ele>
        <time>2021-05-20T09:00:13.292Z</time>
      </trkpt>
      <trkpt lat="48.67383" lon="2.035">
        <ele>171</ele>
        <time>2021-05-20T09:00:14.292Z</time>
      </trkpt>
      <trkpt lat="48.67383" lon="2.03502">
        <ele>171</ele>
        <time>2021-05-20T09:00:15.292Z</time>
      </trkpt>
      <trkpt lat="48.67383" lon="2.03504">
        <ele>171</ele>
        <time>2021-05-20T09:00:16.292Z</time>
      </trkpt>
      <trkpt lat="48.67383" lon="2.03506">
        <ele>171</ele>
        <time>2021-05-20T09:00:17.292Z</time>
      </trkpt>
      <trkpt lat="48.67382" lon="2.03508">
        <ele>171</ele>
        <time>2021-05-20T09:00:18.292Z</time>
      </trkpt>
      <trkpt lat="48.67382" lon="2.0351">
        <ele>171</ele>
        <time>2021-05-20T09:00:19.292Z</time>
      </trkpt>
      <trkpt lat="48.67382" lon="2.03512">
        <ele>171</ele>
        <time>2021-05-20T09:00:20.292Z</time>
      </trkpt>
      <trkpt lat="48.67382" lon="2.03514">
        <ele>171</ele>
        <time>2021-05-20T09:00:21.292Z</time>
      </trkpt>
      <trkpt lat="48.67381" lon="2.03516">
        <ele>171</ele>
        <time>2021-05-20T09:00:22.292Z</time>
      </trkpt>
      <trkpt lat="48.67381" lon="2.03518">
        <ele>171</ele>
        <time>2021-05-20T09:00:23.292Z</time>
      </trkpt>
      <trkpt lat="48.67381" lon="2.0352">
        <ele>171</ele>
        <time>2021-05-20T09:00:24.292Z</time>
      </trkpt>
      <trkpt lat="48.67381" lon="2.03522">
        <ele>171</ele>
        <time>2021-05-20T09:00:25.292Z</time>
      </trkpt>
      <trkpt lat="48.67381" lon="2.03524">
        <ele>171</ele>
        <time>2021-05-20T09:00:26.292Z</time>
      </trkpt>
      <trkpt lat="48.6738" lon="2.03526">
        <ele>171</ele>
        <time>2021-05-20T09:00:27.292Z</time>
      </trkpt>
      <trkpt lat="48.6738" lon="2.03528">
        <ele>170</ele>
        <time>2021-05-20T09:00:28.292Z</time>
      </trkpt>
      <trkpt lat="48.6738" lon="2.0353">
        <ele>171</ele>
        <time>2021-05-20T09:00:29.292Z</time>
      </trkpt>
      <trkpt lat="48.67379" lon="2.03532">
        <ele>171</ele>
        <time>2021-05-20T09:00:30.292Z</time>
      </trkpt>
      <trkpt lat="48.67379" lon="2.03534">
        <ele>171</ele>
        <time>2021-05-20T09:00:31.292Z</time>
      </trkpt>
      <trkpt lat="48.67379" lon="2.03536">
        <ele>171</ele>
        <time>2021-05-20T09:00:32.292Z</time>
      </trkpt>
      <trkpt lat="48.67379" lon="2.03538">
        <ele>171</ele>
        <time>2021-05-20T09:00:33.292Z</time>
      </trkpt>
      <trkpt lat="48.67379" lon="2.0354">
        <ele>171</ele>
        <time>2021-05-20T09:00:34.292Z</time>
      </trkpt>
      <trkpt lat="48.67379" lon="2.03542">
        <ele>171</ele>
        <time>2021-05-20T09:00:35.292Z</time>
      </trkpt>
      <trkpt lat="48.67378" lon="2.03544">
        <ele>171</ele>
        <time>2021-05-20T09:00:36.292Z</time>
      </trkpt>
      <trkpt lat="48.67378" lon="2.03546">
        <ele>171</ele>
        <time>2021-05-20T09:00:37.292Z</time>
      </trkpt>
      <trkpt lat="48.67378" lon="2.03548">
        <ele>171</ele>
        <time>2021-05-20T09:00:38.292Z</time>
      </trkpt>
      <trkpt lat="48.67378" lon="2.0355">
        <ele>171</ele>
        <time>2021-05-20T09:00:39.292Z</time>
      </trkpt>
      <trkpt lat="48.67378" lon="2.03551">
        <ele>171</ele>
        <time>2021-05-20T09:00:40.292Z</time>
      </trkpt>
      <trkpt lat="48.67377" lon="2.03553">
        <ele>171</ele>
        <time>2021-05-20T09:00:41.292Z</time>
      </trkpt>
      <trkpt lat="48.67377" lon="2.03555">
        <ele>171</ele>
        <time>2021-05-20T09:00:42.292Z</time>
      </trkpt>
      <trkpt lat="48.67377" lon="2.03557">
        <ele>171</ele>
        <time>2021-05-20T09:00:43.292Z</time>
      </trkpt>
      <trkpt lat="48.67377" lon="2.03559">
        <ele>171</ele>
        <time>2021-05-20T09:00:44.292Z</time>
      </trkpt>
      <trkpt lat="48.67377" lon="2.03561">
        <ele>171</ele>
        <time>2021-05-20T09:00:45.292Z</time>
      </trkpt>
      <trkpt lat="48.67377" lon="2.03563">
        <ele>171</ele>
        <time>2021-05-20T09:00:46.292Z</time>
      </trkpt>
      <trkpt lat="48.67377" lon="2.03565">
        <ele>171</ele>
        <time>2021-05-20T09:00:47.292Z</time>
      </trkpt>
      <trkpt lat="48.67377" lon="2.03567">
        <ele>171</ele>
        <time>2021-05-20T09:00:48.292Z</time>
      </trkpt>
      <trkpt lat="48.67376" lon="2.03569">
        <ele>171</ele>
        <time>2021-05-20T09:00:49.292Z</time>
      </trkpt>
      <trkpt lat="48.67376" lon="2.03571">
        <ele>171</ele>
        <time>2021-05-20T09:00:50.292Z</time>
      </trkpt>
      <trkpt lat="48.67376" lon="2.03572">
        <ele>171</ele>
        <time>2021-05-20T09:00:51.292Z</time>
      </trkpt>
      <trkpt lat="48.67376" lon="2.03575">
        <ele>171</ele>
        <time>2021-05-20T09:00:52.292Z</time>
      </trkpt>
      <trkpt lat="48.67375" lon="2.03576">
        <ele>171</ele>
        <time>2021-05-20T09:00:53.292Z</time>
      </trkpt>
      <trkpt lat="48.67375" lon="2.03578">
        <ele>170</ele>
        <time>2021-05-20T09:00:54.292Z</time>
      </trkpt>
      <trkpt lat="48.67375" lon="2.0358">
        <ele>170</ele>
        <time>2021-05-20T09:00:55.292Z</time>
      </trkpt>
      <trkpt lat="48.67375" lon="2.03582">
        <ele>170</ele>
        <time>2021-05-20T09:00:56.292Z</time>
      </trkpt>
      <trkpt lat="48.67374" lon="2.03584">
        <ele>170</ele>
        <time>2021-05-20T09:00:57.292Z</time>
      </trkpt>
      <trkpt lat="48.67374" lon="2.03586">
        <ele>170</ele>
        <time>2021-05-20T09:00:58.292Z</time>
      </trkpt>
      <trkpt lat="48.67374" lon="2.03588">
        <ele>170</ele>
        <time>2021-05-20T09:00:59.292Z</time>
      </trkpt>
      <trkpt lat="48.67374" lon="2.0359">
        <ele>170</ele>
        <time>2021-05-20T09:01:00.292Z</time>
      </trkpt>
      <trkpt lat="48.67374" lon="2.03592">
        <ele>170</ele>
        <time>2021-05-20T09:01:01.292Z</time>
      </trkpt>
      <trkpt lat="48.67374" lon="2.03594">
        <ele>170</ele>
        <time>2021-05-20T09:01:02.292Z</time>
      </trkpt>
      <trkpt lat="48.67374" lon="2.03595">
        <ele>170</ele>
        <time>2021-05-20T09:01:03.292Z</time>
      </trkpt>
      <trkpt lat="48.67373" lon="2.03597">
        <ele>170</ele>
        <time>2021-05-20T09:01:04.292Z</time>
      </trkpt>
      <trkpt lat="48.67373" lon="2.03599">
        <ele>170</ele>
        <time>2021-05-20T09:01:05.292Z</time>
      </trkpt>
      <trkpt lat="48.67373" lon="2.03601">
        <ele>170</ele>
        <time>2021-05-20T09:01:06.292Z</time>
      </trkpt>
      <trkpt lat="48.67373" lon="2.03603">
        <ele>170</ele>
        <time>2021-05-20T09:01:07.292Z</time>
      </trkpt>
      <trkpt lat="48.67373" lon="2.03605">
        <ele>170</ele>
        <time>2021-05-20T09:01:08.292Z</time>
      </trkpt>
      <trkpt lat="48.67373" lon="2.03606">
        <ele>170</ele>
        <time>2021-05-20T09:01:09.292Z</time>
      </trkpt>
      <trkpt lat="48.67373" lon="2.03608">
        <ele>170</ele>
        <time>2021-05-20T09:01:10.292Z</time>
      </trkpt>
      <trkpt lat="48.67373" lon="2.0361">
        <ele>170</ele>
        <time>2021-05-20T09:01:11.292Z</time>
      </trkpt>
      <trkpt lat="48.67372" lon="2.03612">
        <ele>170</ele>
        <time>2021-05-20T09:01:12.292Z</time>
      </trkpt>
      <trkpt lat="48.67372" lon="2.03614">
        <ele>170</ele>
        <time>2021-05-20T09:01:13.292Z</time>
      </trkpt>
      <trkpt lat="48.67372" lon="2.03616">
        <ele>170</ele>
        <time>2021-05-20T09:01:14.292Z</time>
      </trkpt>
      <trkpt lat="48.67372" lon="2.03618">
        <ele>171</ele>
        <time>2021-05-20T09:01:15.292Z</time>
      </trkpt>
      <trkpt lat="48.67372" lon="2.0362">
        <ele>171</ele>
        <time>2021-05-20T09:01:16.292Z</time>
      </trkpt>
      <trkpt lat="48.67372" lon="2.03622">
        <ele>171</ele>
        <time>2021-05-20T09:01:17.292Z</time>
      </trkpt>
      <trkpt lat="48.67372" lon="2.03624">
        <ele>171</ele>
        <time>2021-05-20T09:01:18.292Z</time>
      </trkpt>
      <trkpt lat="48.67371" lon="2.03626">
        <ele>171</ele>
        <time>2021-05-20T09:01:19.292Z</time>
      </trkpt>
      <trkpt lat="48.67371" lon="2.03628">
        <ele>171</ele>
        <time>2021-05-20T09:01:20.292Z</time>
      </trkpt>
      <trkpt lat="48.67371" lon="2.03629">
        <ele>171</ele>
        <time>2021-05-20T09:01:21.292Z</time>
      </trkpt>
      <trkpt lat="48.67371" lon="2.03631">
        <ele>171</ele>
        <time>2021-05-20T09:01:22.292Z</time>
      </trkpt>
      <trkpt lat="48.67371" lon="2.03633">
        <ele>171</ele>
        <time>2021-05-20T09:01:23.292Z</time>
      </trkpt>
      <trkpt lat="48.6737" lon="2.03635">
        <ele>171</ele>
        <time>2021-05-20T09:01:24.292Z</time>
      </trkpt>
      <trkpt lat="48.6737" lon="2.03637">
        <ele>171</ele>
        <time>2021-05-20T09:01:25.292Z</time>
      </trkpt>
      <trkpt lat="48.6737" lon="2.03639">
        <ele>171</ele>
        <time>2021-05-20T09:01:26.292Z</time>
      </trkpt>
      <trkpt lat="48.6737" lon="2.03641">
        <ele>171</ele>
        <time>2021-05-20T09:01:27.292Z</time>
      </trkpt>
      <trkpt lat="48.6737" lon="2.03643">
        <ele>171</ele>
        <time>2021-05-20T09:01:28.292Z</time>
      </trkpt>
      <trkpt lat="48.67369" lon="2.03645">
        <ele>171</ele>
        <time>2021-05-20T09:01:29.292Z</time>
      </trkpt>
      <trkpt lat="48.67369" lon="2.03646">
        <ele>171</ele>
        <time>2021-05-20T09:01:30.292Z</time>
      </trkpt>
      <trkpt lat="48.67369" lon="2.03648">
        <ele>171</ele>
        <time>2021-05-20T09:01:31.292Z</time>
      </trkpt>
      <trkpt lat="48.67369" lon="2.0365">
        <ele>171</ele>
        <time>2021-05-20T09:01:32.292Z</time>
      </trkpt>
      <trkpt lat="48.67369" lon="2.03652">
        <ele>171</ele>
        <time>2021-05-20T09:01:33.292Z</time>
      </trkpt>
      <trkpt lat="48.67369" lon="2.03654">
        <ele>171</ele>
        <time>2021-05-20T09:01:34.292Z</time>
      </trkpt>
      <trkpt lat="48.67369" lon="2.03656">
        <ele>171</ele>
        <time>2021-05-20T09:01:35.292Z</time>
      </trkpt>
      <trkpt lat="48.67369" lon="2.03658">
        <ele>171</ele>
        <time>2021-05-20T09:01:36.292Z</time>
      </trkpt>
      <trkpt lat="48.67368" lon="2.0366">
        <ele>171</ele>
        <time>2021-05-20T09:01:37.292Z</time>
      </trkpt>
      <trkpt lat="48.67368" lon="2.03662">
        <ele>170</ele>
        <time>2021-05-20T09:01:38.292Z</time>
      </trkpt>
      <trkpt lat="48.67368" lon="2.03664">
        <ele>170</ele>
        <time>2021-05-20T09:01:39.292Z</time>
      </trkpt>
      <trkpt lat="48.67368" lon="2.03666">
        <ele>170</ele>
        <time>2021-05-20T09:01:40.292Z</time>
      </trkpt>
      <trkpt lat="48.67368" lon="2.03668">
        <ele>170</ele>
        <time>2021-05-20T09:01:41.292Z</time>
      </trkpt>
      <trkpt lat="48.67367" lon="2.0367">
        <ele>170</ele>
        <time>2021-05-20T09:01:42.292Z</time>
      </trkpt>
      <trkpt lat="48.67367" lon="2.03672">
        <ele>170</ele>
        <time>2021-05-20T09:01:43.292Z</time>
      </trkpt>
      <trkpt lat="48.67367" lon="2.03673">
        <ele>170</ele>
        <time>2021-05-20T09:01:44.292Z</time>
      </trkpt>
      <trkpt lat="48.67367" lon="2.03675">
        <ele>170</ele>
        <time>2021-05-20T09:01:45.292Z</time>
      </trkpt>
      <trkpt lat="48.67367" lon="2.03677">
        <ele>170</ele>
        <time>2021-05-20T09:01:46.292Z</time>
      </trkpt>
      <trkpt lat="48.67367" lon="2.03679">
        <ele>170</ele>
        <time>2021-05-20T09:01:47.292Z</time>
      </trkpt>
      <trkpt lat="48.67367" lon="2.03681">
        <ele>170</ele>
        <time>2021-05-20T09:01:48.292Z</time>
      </trkpt>
      <trkpt lat="48.67367" lon="2.03683">
        <ele>170</ele>
        <time>2021-05-20T09:01:49.292Z</time>
      </trkpt>
      <trkpt lat="48.67366" lon="2.03685">
        <ele>170</ele>
        <time>2021-05-20T09:01:50.292Z</time>
      </trkpt>
      <trkpt lat="48.67366" lon="2.03687">
        <ele>170</ele>
        <time>2021-05-20T09:01:51.292Z</time>
      </trkpt>
      <trkpt lat="48.67366" lon="2.03689">
        <ele>170</ele>
        <time>2021-05-20T09:01:52.292Z</time>
      </trkpt>
      <trkpt lat="48.67366" lon="2.03691">
        <ele>170</ele>
        <time>2021-05-20T09:01:53.292Z</time>
      </trkpt>
      <trkpt lat="48.67366" lon="2.03693">
        <ele>170</ele>
        <time>2021-05-20T09:01:54.292Z</time>
      </trkpt>
      <trkpt lat="48.67366" lon="2.03695">
        <ele>170</ele>
        <time>2021-05-20T09:01:55.292Z</time>
      </trkpt>
      <trkpt lat="48.67365" lon="2.03696">
        <ele>170</ele>
        <time>2021-05-20T09:01:56.292Z</time>
      </trkpt>
      <trkpt lat="48.67365" lon="2.03698">
        <ele>170</ele>
        <time>2021-05-20T09:01:57.292Z</time>
      </trkpt>
      <trkpt lat="48.67365" lon="2.037">
        <ele>170</ele>
        <time>2021-05-20T09:01:58.292Z</time>
      </trkpt>
      <trkpt lat="48.67365" lon="2.03702">
        <ele>170</ele>
        <time>2021-05-20T09:01:59.292Z</time>
      </trkpt>
      <trkpt lat="48.67365" lon="2.03704">
        <ele>170</ele>
        <time>2021-05-20T09:02:00.292Z</time>
      </trkpt>
      <trkpt lat="48.67364" lon="2.03706">
        <ele>170</ele>
        <time>2021-05-20T09:02:01.292Z</time>
      </trkpt>
      <trkpt lat="48.67364" lon="2.03708">
        <ele>170</ele>
        <time>2021-05-20T09:02:02.292Z</time>
      </trkpt>
      <trkpt lat="48.67364" lon="2.0371">
        <ele>170</ele>
        <time>2021-05-20T09:02:03.292Z</time>
      </trkpt>
      <trkpt lat="48.67364" lon="2.03712">
        <ele>170</ele>
        <time>2021-05-20T09:02:04.292Z</time>
      </trkpt>
      <trkpt lat="48.67364" lon="2.03714">
        <ele>170</ele>
        <time>2021-05-20T09:02:05.292Z</time>
      </trkpt>
      <trkpt lat="48.67363" lon="2.03716">
        <ele>170</ele>
        <time>2021-05-20T09:02:06.292Z</time>
      </trkpt>
      <trkpt lat="48.67363" lon="2.03718">
        <ele>170</ele>
        <time>2021-05-20T09:02:07.292Z</time>
      </trkpt>
      <trkpt lat="48.67363" lon="2.0372">
        <ele>170</ele>
        <time>2021-05-20T09:02:08.292Z</time>
      </trkpt>
      <trkpt lat="48.67363" lon="2.03722">
        <ele>170</ele>
        <time>2021-05-20T09:02:09.292Z</time>
      </trkpt>
      <trkpt lat="48.67363" lon="2.03724">
        <ele>170</ele>
        <time>2021-05-20T09:02:10.292Z</time>
      </trkpt>
      <trkpt lat="48.67362" lon="2.03726">
        <ele>170</ele>
        <time>2021-05-20T09:02:11.292Z</time>
      </trkpt>
      <trkpt lat="48.67362" lon="2.03728">
        <ele>170</ele>
        <time>2021-05-20T09:02:12.292Z</time>
      </trkpt>
      <trkpt lat="48.67362" lon="2.0373">
        <ele>170</ele>
        <time>2021-05-20T09:02:13.292Z</time>
      </trkpt>
      <trkpt lat="48.67362" lon="2.03732">
        <ele>170</ele>
        <time>2021-05-20T09:02:14.292Z</time>
      </trkpt>
      <trkpt lat="48.67362" lon="2.03734">
        <ele>170</ele>
        <time>2021-05-20T09:02:15.292Z</time>
      </trkpt>
      <trkpt lat="48.67362" lon="2.03736">
        <ele>170</ele>
        <time>2021-05-20T09:02:16.292Z</time>
      </trkpt>
      <trkpt lat="48.67362" lon="2.03738">
        <ele>170</ele>
        <time>2021-05-20T09:02:17.292Z</time>
      </trkpt>
      <trkpt lat="48.67361" lon="2.0374">
        <ele>170</ele>
        <time>2021-05-20T09:02:18.292Z</time>
      </trkpt>
      <trkpt lat="48.67361" lon="2.03741">
        <ele>170</ele>
        <time>2021-05-20T09:02:19.292Z</time>
      </trkpt>
      <trkpt lat="48.67361" lon="2.03743">
        <ele>170</ele>
        <time>2021-05-20T09:02:20.292Z</time>
      </trkpt>
      <trkpt lat="48.67361" lon="2.03745">
        <ele>170</ele>
        <time>2021-05-20T09:02:21.292Z</time>
      </trkpt>
      <trkpt lat="48.67361" lon="2.03747">
        <ele>170</ele>
        <time>2021-05-20T09:02:22.292Z</time>
      </trkpt>
      <trkpt lat="48.67361" lon="2.03749">
        <ele>170</ele>
        <time>2021-05-20T09:02:23.292Z</time>
      </trkpt>
      <trkpt lat="48.67361" lon="2.03751">
        <ele>170</ele>
        <time>2021-05-20T09:02:24.292Z</time>
      </trkpt>
      <trkpt lat="48.6736" lon="2.03753">
        <ele>170</ele>
        <time>2021-05-20T09:02:25.292Z</time>
      </trkpt>
      <trkpt lat="48.6736" lon="2.03755">
        <ele>170</ele>
        <time>2021-05-20T09:02:26.292Z</time>
      </trkpt>
      <trkpt lat="48.6736" lon="2.03757">
        <ele>170</ele>
        <time>2021-05-20T09:02:27.292Z</time>
      </trkpt>
      <trkpt lat="48.6736" lon="2.03759">
        <ele>170</ele>
        <time>2021-05-20T09:02:28.292Z</time>
      </trkpt>
      <trkpt lat="48.6736" lon="2.03761">
        <ele>170</ele>
        <time>2021-05-20T09:02:29.292Z</time>
      </trkpt>
      <trkpt lat="48.6736" lon="2.03762">
        <ele>170</ele>
        <time>2021-05-20T09:02:30.292Z</time>
      </trkpt>
      <trkpt lat="48.6736" lon="2.03764">
        <ele>170</ele>
        <time>2021-05-20T09:02:31.292Z</time>
      </trkpt>
      <trkpt lat="48.67359" lon="2.03766">
        <ele>170</ele>
        <time>2021-05-20T09:02:32.292Z</time>
      </trkpt>
      <trkpt lat="48.67359" lon="2.03768">
        <ele>170</ele>
        <time>2021-05-20T09:02:33.292Z</time>
      </trkpt>
      <trkpt lat="48.67359" lon="2.0377">
        <ele>170</ele>
        <time>2021-05-20T09:02:34.292Z</time>
      </trkpt>
      <trkpt lat="48.67359" lon="2.03772">
        <ele>170</ele>
        <time>2021-05-20T09:02:35.292Z</time>
      </trkpt>
      <trkpt lat="48.67359" lon="2.03774">
        <ele>170</ele>
        <time>2021-05-20T09:02:36.292Z</time>
      </trkpt>
      <trkpt lat="48.67358" lon="2.03776">
        <ele>170</ele>
        <time>2021-05-20T09:02:37.292Z</time>
      </trkpt>
      <trkpt lat="48.67358" lon="2.03778">
        <ele>170</ele>
        <time>2021-05-20T09:02:38.292Z</time>
      </trkpt>
      <trkpt lat="48.67358" lon="2.0378">
        <ele>170</ele>
        <time>2021-05-20T09:02:39.292Z</time>
      </trkpt>
      <trkpt lat="48.67358" lon="2.03782">
        <ele>170</ele>
        <time>2021-05-20T09:02:40.292Z</time>
      </trkpt>
      <trkpt lat="48.67358" lon="2.03783">
        <ele>170</ele>
        <time>2021-05-20T09:02:41.292Z</time>
      </trkpt>
      <trkpt lat="48.67357" lon="2.03785">
        <ele>170</ele>
        <time>2021-05-20T09:02:42.292Z</time>
      </trkpt>
      <trkpt lat="48.67357" lon="2.03787">
        <ele>170</ele>
        <time>2021-05-20T09:02:43.292Z</time>
      </trkpt>
      <trkpt lat="48.67357" lon="2.03789">
        <ele>170</ele>
        <time>2021-05-20T09:02:44.292Z</time>
      </trkpt>
      <trkpt lat="48.67357" lon="2.03791">
        <ele>170</ele>
        <time>2021-05-20T09:02:45.292Z</time>
      </trkpt>
      <trkpt lat="48.67357" lon="2.03793">
        <ele>170</ele>
        <time>2021-05-20T09:02:48.564Z</time>
      </trkpt>
      <trkpt lat="48.67357" lon="2.03795">
        <ele>170</ele>
        <time>2021-05-20T09:02:49.564Z</time>
      </trkpt>
      <trkpt lat="48.67357" lon="2.03797">
        <ele>170</ele>
        <time>2021-05-20T09:02:50.564Z</time>
      </trkpt>
      <trkpt lat="48.67356" lon="2.03799">
        <ele>170</ele>
        <time>2021-05-20T09:02:51.564Z</time>
      </trkpt>
      <trkpt lat="48.67356" lon="2.03801">
        <ele>170</ele>
        <time>2021-05-20T09:02:52.564Z</time>
      </trkpt>
      <trkpt lat="48.67356" lon="2.03803">
        <ele>170</ele>
        <time>2021-05-20T09:02:53.564Z</time>
      </trkpt>
      <trkpt lat="48.67356" lon="2.03804">
        <ele>170</ele>
        <time>2021-05-20T09:02:54.564Z</time>
      </trkpt>
      <trkpt lat="48.67356" lon="2.03806">
        <ele>170</ele>
        <time>2021-05-20T09:02:55.564Z</time>
      </trkpt>
      <trkpt lat="48.67355" lon="2.03808">
        <ele>170</ele>
        <time>2021-05-20T09:02:56.564Z</time>
      </trkpt>
      <trkpt lat="48.67355" lon="2.0381">
        <ele>170</ele>
        <time>2021-05-20T09:02:57.564Z</time>
      </trkpt>
      <trkpt lat="48.67355" lon="2.03812">
        <ele>170</ele>
        <time>2021-05-20T09:02:58.564Z</time>
      </trkpt>
      <trkpt lat="48.67355" lon="2.03814">
        <ele>169</ele>
        <time>2021-05-20T09:02:59.564Z</time>
      </trkpt>
      <trkpt lat="48.67355" lon="2.03816">
        <ele>169</ele>
        <time>2021-05-20T09:03:00.564Z</time>
      </trkpt>
      <trkpt lat="48.67354" lon="2.03818">
        <ele>169</ele>
        <time>2021-05-20T09:03:01.564Z</time>
      </trkpt>
      <trkpt lat="48.67354" lon="2.0382">
        <ele>169</ele>
        <time>2021-05-20T09:03:02.564Z</time>
      </trkpt>
      <trkpt lat="48.67354" lon="2.03822">
        <ele>169</ele>
        <time>2021-05-20T09:03:03.564Z</time>
      </trkpt>
      <trkpt lat="48.67354" lon="2.03824">
        <ele>170</ele>
        <time>2021-05-20T09:03:04.564Z</time>
      </trkpt>
      <trkpt lat="48.67354" lon="2.03826">
        <ele>170</ele>
        <time>2021-05-20T09:03:05.564Z</time>
      </trkpt>
      <trkpt lat="48.67353" lon="2.03828">
        <ele>170</ele>
        <time>2021-05-20T09:03:06.564Z</time>
      </trkpt>
      <trkpt lat="48.67353" lon="2.0383">
        <ele>170</ele>
        <time>2021-05-20T09:03:07.564Z</time>
      </trkpt>
      <trkpt lat="48.67353" lon="2.03832">
        <ele>170</ele>
        <time>2021-05-20T09:03:08.564Z</time>
      </trkpt>
      <trkpt lat="48.67353" lon="2.03834">
        <ele>170</ele>
        <time>2021-05-20T09:03:09.564Z</time>
      </trkpt>
      <trkpt lat="48.67353" lon="2.03835">
        <ele>170</ele>
        <time>2021-05-20T09:03:10.564Z</time>
      </trkpt>
      <trkpt lat="48.67352" lon="2.03837">
        <ele>170</ele>
        <time>2021-05-20T09:03:11.564Z</time>
      </trkpt>
      <trkpt lat="48.67352" lon="2.03839">
        <ele>170</ele>
        <time>2021-05-20T09:03:12.564Z</time>
      </trkpt>
      <trkpt lat="48.67352" lon="2.03841">
        <ele>170</ele>
        <time>2021-05-20T09:03:13.564Z</time>
      </trkpt>
      <trkpt lat="48.67352" lon="2.03843">
        <ele>170</ele>
        <time>2021-05-20T09:03:14.564Z</time>
      </trkpt>
      <trkpt lat="48.67351" lon="2.03845">
        <ele>170</ele>
        <time>2021-05-20T09:03:15.564Z</time>
      </trkpt>
      <trkpt lat="48.67351" lon="2.03847">
        <ele>170</ele>
        <time>2021-05-20T09:03:16.564Z</time>
      </trkpt>
      <trkpt lat="48.67351" lon="2.03849">
        <ele>170</ele>
        <time>2021-05-20T09:03:17.564Z</time>
      </trkpt>
      <trkpt lat="48.67351" lon="2.03851">
        <ele>170</ele>
        <time>2021-05-20T09:03:18.564Z</time>
      </trkpt>
      <trkpt lat="48.67351" lon="2.03853">
        <ele>170</ele>
        <time>2021-05-20T09:03:19.564Z</time>
      </trkpt>
      <trkpt lat="48.6735" lon="2.03855">
        <ele>170</ele>
        <time>2021-05-20T09:03:20.564Z</time>
      </trkpt>
      <trkpt lat="48.6735" lon="2.03857">
        <ele>170</ele>
        <time>2021-05-20T09:03:21.564Z</time>
      </trkpt>
      <trkpt lat="48.6735" lon="2.03859">
        <ele>170</ele>
        <time>2021-05-20T09:03:22.564Z</time>
      </trkpt>
      <trkpt lat="48.6735" lon="2.0386">
        <ele>170</ele>
        <time>2021-05-20T09:03:23.564Z</time>
      </trkpt>
      <trkpt lat="48.6735" lon="2.03862">
        <ele>170</ele>
        <time>2021-05-20T09:03:24.564Z</time>
      </trkpt>
      <trkpt lat="48.67349" lon="2.03864">
        <ele>170</ele>
        <time>2021-05-20T09:03:25.564Z</time>
      </trkpt>
      <trkpt lat="48.67349" lon="2.03866">
        <ele>170</ele>
        <time>2021-05-20T09:03:26.564Z</time>
      </trkpt>
      <trkpt lat="48.67349" lon="2.03868">
        <ele>170</ele>
        <time>2021-05-20T09:03:27.564Z</time>
      </trkpt>
      <trkpt lat="48.67349" lon="2.0387">
        <ele>170</ele>
        <time>2021-05-20T09:03:28.564Z</time>
      </trkpt>
      <trkpt lat="48.67349" lon="2.03871">
        <ele>171</ele>
        <time>2021-05-20T09:03:29.564Z</time>
      </trkpt>
      <trkpt lat="48.67349" lon="2.03872">
        <ele>171</ele>
        <time>2021-05-20T09:03:30.564Z</time>
      </trkpt>
      <trkpt lat="48.67348" lon="2.03874">
        <ele>171</ele>
        <time>2021-05-20T09:03:31.564Z</time>
      </trkpt>
      <trkpt lat="48.67348" lon="2.03874">
        <ele>171</ele>
        <time>2021-05-20T09:03:32.564Z</time>
      </trkpt>
      <trkpt lat="48.67348" lon="2.03875">
        <ele>171</ele>
        <time>2021-05-20T09:03:33.564Z</time>
      </trkpt>
      <trkpt lat="48.67348" lon="2.03877">
        <ele>171</ele>
        <time>2021-05-20T09:03:34.564Z</time>
      </trkpt>
      <trkpt lat="48.67347" lon="2.03879">
        <ele>171</ele>
        <time>2021-05-20T09:03:35.564Z</time>
      </trkpt>
      <trkpt lat="48.67347" lon="2.03881">
        <ele>171</ele>
        <time>2021-05-20T09:03:36.564Z</time>
      </trkpt>
      <trkpt lat="48.67346" lon="2.03884">
        <ele>171</ele>
        <time>2021-05-20T09:03:37.564Z</time>
      </trkpt>
      <trkpt lat="48.67346" lon="2.03886">
        <ele>171</ele>
        <time>2021-05-20T09:03:38.564Z</time>
      </trkpt>
      <trkpt lat="48.67346" lon="2.03888">
        <ele>171</ele>
        <time>2021-05-20T09:03:39.564Z</time>
      </trkpt>
      <trkpt lat="48.67346" lon="2.0389">
        <ele>171</ele>
        <time>2021-05-20T09:03:40.564Z</time>
      </trkpt>
      <trkpt lat="48.67345" lon="2.03892">
        <ele>171</ele>
        <time>2021-05-20T09:03:41.564Z</time>
      </trkpt>
      <trkpt lat="48.67345" lon="2.03894">
        <ele>171</ele>
        <time>2021-05-20T09:03:42.564Z</time>
      </trkpt>
      <trkpt lat="48.67345" lon="2.03896">
        <ele>171</ele>
        <time>2021-05-20T09:03:43.564Z</time>
      </trkpt>
      <trkpt lat="48.67345" lon="2.03898">
        <ele>171</ele>
        <time>2021-05-20T09:03:44.564Z</time>
      </trkpt>
      <trkpt lat="48.67345" lon="2.039">
        <ele>171</ele>
        <time>2021-05-20T09:03:45.564Z</time>
      </trkpt>
      <trkpt lat="48.67344" lon="2.03902">
        <ele>171</ele>
        <time>2021-05-20T09:03:46.564Z</time>
      </trkpt>
      <trkpt lat="48.67344" lon="2.03904">
        <ele>171</ele>
        <time>2021-05-20T09:03:47.564Z</time>
      </trkpt>
      <trkpt lat="48.67344" lon="2.03907">
        <ele>171</ele>
        <time>2021-05-20T09:03:48.564Z</time>
      </trkpt>
      <trkpt lat="48.67344" lon="2.03909">
        <ele>171</ele>
        <time>2021-05-20T09:03:49.564Z</time>
      </trkpt>
      <trkpt lat="48.67343" lon="2.0391">
        <ele>171</ele>
        <time>2021-05-20T09:03:50.564Z</time>
      </trkpt>
      <trkpt lat="48.67343" lon="2.03912">
        <ele>171</ele>
        <time>2021-05-20T09:03:51.564Z</time>
      </trkpt>
      <trkpt lat="48.67343" lon="2.03914">
        <ele>171</ele>
        <time>2021-05-20T09:03:52.564Z</time>
      </trkpt>
      <trkpt lat="48.67343" lon="2.03916">
        <ele>171</ele>
        <time>2021-05-20T09:03:53.564Z</time>
      </trkpt>
      <trkpt lat="48.67343" lon="2.03918">
        <ele>171</ele>
        <time>2021-05-20T09:03:54.564Z</time>
      </trkpt>
      <trkpt lat="48.67343" lon="2.0392">
        <ele>171</ele>
        <time>2021-05-20T09:03:55.564Z</time>
      </trkpt>
      <trkpt lat="48.67342" lon="2.03921">
        <ele>171</ele>
        <time>2021-05-20T09:03:56.564Z</time>
      </trkpt>
      <trkpt lat="48.67342" lon="2.03923">
        <ele>171</ele>
        <time>2021-05-20T09:03:57.564Z</time>
      </trkpt>
      <trkpt lat="48.67342" lon="2.03925">
        <ele>171</ele>
        <time>2021-05-20T09:03:58.564Z</time>
      </trkpt>
      <trkpt lat="48.67342" lon="2.03926">
        <ele>171</ele>
        <time>2021-05-20T09:03:59.564Z</time>
      </trkpt>
      <trkpt lat="48.67342" lon="2.03928">
        <ele>171</ele>
        <time>2021-05-20T09:04:00.564Z</time>
      </trkpt>
      <trkpt lat="48.67342" lon="2.03929">
        <ele>171</ele>
        <time>2021-05-20T09:04:01.564Z</time>
      </trkpt>
      <trkpt lat="48.67341" lon="2.03931">
        <ele>171</ele>
        <time>2021-05-20T09:04:02.564Z</time>
      </trkpt>
      <trkpt lat="48.67341" lon="2.03933">
        <ele>171</ele>
        <time>2021-05-20T09:04:03.564Z</time>
      </trkpt>
      <trkpt lat="48.67341" lon="2.03935">
        <ele>171</ele>
        <time>2021-05-20T09:04:04.564Z</time>
      </trkpt>
      <trkpt lat="48.67341" lon="2.03936">
        <ele>171</ele>
        <time>2021-05-20T09:04:05.564Z</time>
      </trkpt>
      <trkpt lat="48.67341" lon="2.03938">
        <ele>171</ele>
        <time>2021-05-20T09:04:06.564Z</time>
      </trkpt>
      <trkpt lat="48.67341" lon="2.03939">
        <ele>171</ele>
        <time>2021-05-20T09:04:07.564Z</time>
      </trkpt>
      <trkpt lat="48.67341" lon="2.0394">
        <ele>171</ele>
        <time>2021-05-20T09:04:08.564Z</time>
      </trkpt>
      <trkpt lat="48.6734" lon="2.03941">
        <ele>171</ele>
        <time>2021-05-20T09:04:09.564Z</time>
      </trkpt>
      <trkpt lat="48.6734" lon="2.03943">
        <ele>171</ele>
        <time>2021-05-20T09:04:10.564Z</time>
      </trkpt>
      <trkpt lat="48.6734" lon="2.03944">
        <ele>171</ele>
        <time>2021-05-20T09:04:11.564Z</time>
      </trkpt>
      <trkpt lat="48.6734" lon="2.03946">
        <ele>171</ele>
        <time>2021-05-20T09:04:12.564Z</time>
      </trkpt>
      <trkpt lat="48.6734" lon="2.03948">
        <ele>171</ele>
        <time>2021-05-20T09:04:13.564Z</time>
      </trkpt>
      <trkpt lat="48.6734" lon="2.03949">
        <ele>170</ele>
        <time>2021-05-20T09:04:14.564Z</time>
      </trkpt>
      <trkpt lat="48.67339" lon="2.03951">
        <ele>170</ele>
        <time>2021-05-20T09:04:15.564Z</time>
      </trkpt>
      <trkpt lat="48.67339" lon="2.03952">
        <ele>170</ele>
        <time>2021-05-20T09:04:16.564Z</time>
      </trkpt>
      <trkpt lat="48.67339" lon="2.03954">
        <ele>170</ele>
        <time>2021-05-20T09:04:17.564Z</time>
      </trkpt>
      <trkpt lat="48.67339" lon="2.03956">
        <ele>170</ele>
        <time>2021-05-20T09:04:18.564Z</time>
      </trkpt>
      <trkpt lat="48.67339" lon="2.03958">
        <ele>170</ele>
        <time>2021-05-20T09:04:19.564Z</time>
      </trkpt>
      <trkpt lat="48.67338" lon="2.0396">
        <ele>170</ele>
        <time>2021-05-20T09:04:20.564Z</time>
      </trkpt>
      <trkpt lat="48.67338" lon="2.03962">
        <ele>170</ele>
        <time>2021-05-20T09:04:21.564Z</time>
      </trkpt>
      <trkpt lat="48.67338" lon="2.03964">
        <ele>170</ele>
        <time>2021-05-20T09:04:22.564Z</time>
      </trkpt>
      <trkpt lat="48.67338" lon="2.03966">
        <ele>170</ele>
        <time>2021-05-20T09:04:23.564Z</time>
      </trkpt>
      <trkpt lat="48.67338" lon="2.03968">
        <ele>170</ele>
        <time>2021-05-20T09:04:24.564Z</time>
      </trkpt>
      <trkpt lat="48.67337" lon="2.0397">
        <ele>170</ele>
        <time>2021-05-20T09:04:25.564Z</time>
      </trkpt>
      <trkpt lat="48.67337" lon="2.03972">
        <ele>170</ele>
        <time>2021-05-20T09:04:26.564Z</time>
      </trkpt>
      <trkpt lat="48.67337" lon="2.03974">
        <ele>170</ele>
        <time>2021-05-20T09:04:27.564Z</time>
      </trkpt>
      <trkpt lat="48.67337" lon="2.03975">
        <ele>170</ele>
        <time>2021-05-20T09:04:28.564Z</time>
      </trkpt>
      <trkpt lat="48.67337" lon="2.03977">
        <ele>170</ele>
        <time>2021-05-20T09:04:29.564Z</time>
      </trkpt>
      <trkpt lat="48.67336" lon="2.03979">
        <ele>170</ele>
        <time>2021-05-20T09:04:30.564Z</time>
      </trkpt>
      <trkpt lat="48.67336" lon="2.03981">
        <ele>170</ele>
        <time>2021-05-20T09:04:31.564Z</time>
      </trkpt>
      <trkpt lat="48.67336" lon="2.03983">
        <ele>170</ele>
        <time>2021-05-20T09:04:32.564Z</time>
      </trkpt>
      <trkpt lat="48.67336" lon="2.03985">
        <ele>170</ele>
        <time>2021-05-20T09:04:33.564Z</time>
      </trkpt>
      <trkpt lat="48.67336" lon="2.03987">
        <ele>170</ele>
        <time>2021-05-20T09:04:34.564Z</time>
      </trkpt>
      <trkpt lat="48.67336" lon="2.03989">
        <ele>170</ele>
        <time>2021-05-20T09:04:35.564Z</time>
      </trkpt>
      <trkpt lat="48.67336" lon="2.03991">
        <ele>170</ele>
        <time>2021-05-20T09:04:36.564Z</time>
      </trkpt>
      <trkpt lat="48.67336" lon="2.03993">
        <ele>170</ele>
        <time>2021-05-20T09:04:37.564Z</time>
      </trkpt>
      <trkpt lat="48.67336" lon="2.03995">
        <ele>170</ele>
        <time>2021-05-20T09:04:38.564Z</time>
      </trkpt>
      <trkpt lat="48.67336" lon="2.03997">
        <ele>170</ele>
        <time>2021-05-20T09:04:39.564Z</time>
      </trkpt>
      <trkpt lat="48.67335" lon="2.03999">
        <ele>170</ele>
        <time>2021-05-20T09:04:40.564Z</time>
      </trkpt>
      <trkpt lat="48.67335" lon="2.04001">
        <ele>170</ele>
        <time>2021-05-20T09:04:41.564Z</time>
      </trkpt>
      <trkpt lat="48.67335" lon="2.04003">
        <ele>170</ele>
        <time>2021-05-20T09:04:42.564Z</time>
      </trkpt>
      <trkpt lat="48.67335" lon="2.04005">
        <ele>170</ele>
        <time>2021-05-20T09:04:43.564Z</time>
      </trkpt>
      <trkpt lat="48.67335" lon="2.04008">
        <ele>170</ele>
        <time>2021-05-20T09:04:44.564Z</time>
      </trkpt>
      <trkpt lat="48.67335" lon="2.04009">
        <ele>170</ele>
        <time>2021-05-20T09:04:45.564Z</time>
      </trkpt>
      <trkpt lat="48.67334" lon="2.04012">
        <ele>170</ele>
        <time>2021-05-20T09:04:46.564Z</time>
      </trkpt>
      <trkpt lat="48.67334" lon="2.04014">
        <ele>170</ele>
        <time>2021-05-20T09:04:47.564Z</time>
      </trkpt>
      <trkpt lat="48.67334" lon="2.04016">
        <ele>170</ele>
        <time>2021-05-20T09:04:48.564Z</time>
      </trkpt>
      <trkpt lat="48.67334" lon="2.04018">
        <ele>170</ele>
        <time>2021-05-20T09:04:49.564Z</time>
      </trkpt>
      <trkpt lat="48.67334" lon="2.0402">
        <ele>170</ele>
        <time>2021-05-20T09:04:50.564Z</time>
      </trkpt>
      <trkpt lat="48.67334" lon="2.04022">
        <ele>170</ele>
        <time>2021-05-20T09:04:51.564Z</time>
      </trkpt>
      <trkpt lat="48.67334" lon="2.04024">
        <ele>170</ele>
        <time>2021-05-20T09:04:52.564Z</time>
      </trkpt>
      <trkpt lat="48.67333" lon="2.04026">
        <ele>170</ele>
        <time>2021-05-20T09:04:53.564Z</time>
      </trkpt>
      <trkpt lat="48.67333" lon="2.04028">
        <ele>170</ele>
        <time>2021-05-20T09:04:54.564Z</time>
      </trkpt>
      <trkpt lat="48.67333" lon="2.0403">
        <ele>170</ele>
        <time>2021-05-20T09:04:55.564Z</time>
      </trkpt>
      <trkpt lat="48.67333" lon="2.04032">
        <ele>170</ele>
        <time>2021-05-20T09:04:56.564Z</time>
      </trkpt>
      <trkpt lat="48.67333" lon="2.04034">
        <ele>170</ele>
        <time>2021-05-20T09:04:57.564Z</time>
      </trkpt>
      <trkpt lat="48.67332" lon="2.04036">
        <ele>170</ele>
        <time>2021-05-20T09:04:58.564Z</time>
      </trkpt>
      <trkpt lat="48.67332" lon="2.04038">
        <ele>170</ele>
        <time>2021-05-20T09:04:59.564Z</time>
      </trkpt>
      <trkpt lat="48.67332" lon="2.0404">
        <ele>170</ele>
        <time>2021-05-20T09:05:00.564Z</time>
      </trkpt>
      <trkpt lat="48.67332" lon="2.04042">
        <ele>170</ele>
        <time>2021-05-20T09:05:01.564Z</time>
      </trkpt>
      <trkpt lat="48.67332" lon="2.04044">
        <ele>170</ele>
        <time>2021-05-20T09:05:02.564Z</time>
      </trkpt>
      <trkpt lat="48.67332" lon="2.04046">
        <ele>170</ele>
        <time>2021-05-20T09:05:03.564Z</time>
      </trkpt>
      <trkpt lat="48.67331" lon="2.04048">
        <ele>170</ele>
        <time>2021-05-20T09:05:04.564Z</time>
      </trkpt>
      <trkpt lat="48.67331" lon="2.0405">
        <ele>170</ele>
        <time>2021-05-20T09:05:05.564Z</time>
      </trkpt>
      <trkpt lat="48.67331" lon="2.04052">
        <ele>170</ele>
        <time>2021-05-20T09:05:06.564Z</time>
      </trkpt>
      <trkpt lat="48.67331" lon="2.04054">
        <ele>170</ele>
        <time>2021-05-20T09:05:07.564Z</time>
      </trkpt>
      <trkpt lat="48.6733" lon="2.04056">
        <ele>170</ele>
        <time>2021-05-20T09:05:08.564Z</time>
      </trkpt>
      <trkpt lat="48.6733" lon="2.04058">
        <ele>170</ele>
        <time>2021-05-20T09:05:09.564Z</time>
      </trkpt>
      <trkpt lat="48.6733" lon="2.0406">
        <ele>170</ele>
        <time>2021-05-20T09:05:10.564Z</time>
      </trkpt>
      <trkpt lat="48.6733" lon="2.04062">
        <ele>170</ele>
        <time>2021-05-20T09:05:11.564Z</time>
      </trkpt>
      <trkpt lat="48.6733" lon="2.04064">
        <ele>171</ele>
        <time>2021-05-20T09:05:12.564Z</time>
      </trkpt>
      <trkpt lat="48.6733" lon="2.04066">
        <ele>171</ele>
        <time>2021-05-20T09:05:13.564Z</time>
      </trkpt>
      <trkpt lat="48.6733" lon="2.04068">
        <ele>171</ele>
        <time>2021-05-20T09:05:14.564Z</time>
      </trkpt>
      <trkpt lat="48.6733" lon="2.0407">
        <ele>171</ele>
        <time>2021-05-20T09:05:15.564Z</time>
      </trkpt>
      <trkpt lat="48.6733" lon="2.04072">
        <ele>171</ele>
        <time>2021-05-20T09:05:16.564Z</time>
      </trkpt>
      <trkpt lat="48.67329" lon="2.04074">
        <ele>171</ele>
        <time>2021-05-20T09:05:17.564Z</time>
      </trkpt>
      <trkpt lat="48.67329" lon="2.04076">
        <ele>171</ele>
        <time>2021-05-20T09:05:18.564Z</time>
      </trkpt>
      <trkpt lat="48.67329" lon="2.04078">
        <ele>171</ele>
        <time>2021-05-20T09:05:19.564Z</time>
      </trkpt>
      <trkpt lat="48.67329" lon="2.0408">
        <ele>171</ele>
        <time>2021-05-20T09:05:20.564Z</time>
      </trkpt>
      <trkpt lat="48.67329" lon="2.04082">
        <ele>171</ele>
        <time>2021-05-20T09:05:21.564Z</time>
      </trkpt>
      <trkpt lat="48.67328" lon="2.04084">
        <ele>171</ele>
        <time>2021-05-20T09:05:22.564Z</time>
      </trkpt>
      <trkpt lat="48.67328" lon="2.04086">
        <ele>171</ele>
        <time>2021-05-20T09:05:23.564Z</time>
      </trkpt>
      <trkpt lat="48.67328" lon="2.04088">
        <ele>171</ele>
        <time>2021-05-20T09:05:24.564Z</time>
      </trkpt>
      <trkpt lat="48.67328" lon="2.0409">
        <ele>171</ele>
        <time>2021-05-20T09:05:25.564Z</time>
      </trkpt>
      <trkpt lat="48.67328" lon="2.04092">
        <ele>171</ele>
        <time>2021-05-20T09:05:26.564Z</time>
      </trkpt>
      <trkpt lat="48.67327" lon="2.04094">
        <ele>171</ele>
        <time>2021-05-20T09:05:27.564Z</time>
      </trkpt>
      <trkpt lat="48.67327" lon="2.04096">
        <ele>171</ele>
        <time>2021-05-20T09:05:28.564Z</time>
      </trkpt>
      <trkpt lat="48.67327" lon="2.04098">
        <ele>171</ele>
        <time>2021-05-20T09:05:29.564Z</time>
      </trkpt>
      <trkpt lat="48.67327" lon="2.041">
        <ele>171</ele>
        <time>2021-05-20T09:05:30.564Z</time>
      </trkpt>
      <trkpt lat="48.67327" lon="2.04101">
        <ele>171</ele>
        <time>2021-05-20T09:05:31.564Z</time>
      </trkpt>
      <trkpt lat="48.67327" lon="2.04103">
        <ele>171</ele>
        <time>2021-05-20T09:05:32.564Z</time>
      </trkpt>
      <trkpt lat="48.67327" lon="2.04105">
        <ele>171</ele>
        <time>2021-05-20T09:05:33.564Z</time>
      </trkpt>
      <trkpt lat="48.67327" lon="2.04107">
        <ele>171</ele>
        <time>2021-05-20T09:05:34.564Z</time>
      </trkpt>
      <trkpt lat="48.67326" lon="2.04109">
        <ele>171</ele>
        <time>2021-05-20T09:05:35.564Z</time>
      </trkpt>
      <trkpt lat="48.67326" lon="2.04111">
        <ele>171</ele>
        <time>2021-05-20T09:05:36.564Z</time>
      </trkpt>
      <trkpt lat="48.67326" lon="2.04113">
        <ele>171</ele>
        <time>2021-05-20T09:05:37.564Z</time>
      </trkpt>
      <trkpt lat="48.67326" lon="2.04115">
        <ele>172</ele>
        <time>2021-05-20T09:05:38.564Z</time>
      </trkpt>
      <trkpt lat="48.67326" lon="2.04117">
        <ele>172</ele>
        <time>2021-05-20T09:05:39.564Z</time>
      </trkpt>
      <trkpt lat="48.67326" lon="2.0412">
        <ele>172</ele>
        <time>2021-05-20T09:05:40.564Z</time>
      </trkpt>
      <trkpt lat="48.67326" lon="2.04121">
        <ele>172</ele>
        <time>2021-05-20T09:05:41.564Z</time>
      </trkpt>
      <trkpt lat="48.67325" lon="2.04123">
        <ele>172</ele>
        <time>2021-05-20T09:05:42.564Z</time>
      </trkpt>
      <trkpt lat="48.67325" lon="2.04125">
        <ele>172</ele>
        <time>2021-05-20T09:05:43.564Z</time>
      </trkpt>
      <trkpt lat="48.67325" lon="2.04127">
        <ele>172</ele>
        <time>2021-05-20T09:05:44.564Z</time>
      </trkpt>
      <trkpt lat="48.67325" lon="2.04129">
        <ele>172</ele>
        <time>2021-05-20T09:05:45.564Z</time>
      </trkpt>
      <trkpt lat="48.67325" lon="2.04131">
        <ele>172</ele>
        <time>2021-05-20T09:05:46.564Z</time>
      </trkpt>
      <trkpt lat="48.67325" lon="2.04133">
        <ele>172</ele>
        <time>2021-05-20T09:05:47.564Z</time>
      </trkpt>
      <trkpt lat="48.67324" lon="2.04134">
        <ele>172</ele>
        <time>2021-05-20T09:05:48.564Z</time>
      </trkpt>
      <trkpt lat="48.67324" lon="2.04136">
        <ele>172</ele>
        <time>2021-05-20T09:05:49.564Z</time>
      </trkpt>
      <trkpt lat="48.67324" lon="2.04138">
        <ele>172</ele>
        <time>2021-05-20T09:05:50.564Z</time>
      </trkpt>
      <trkpt lat="48.67324" lon="2.0414">
        <ele>172</ele>
        <time>2021-05-20T09:05:51.564Z</time>
      </trkpt>
      <trkpt lat="48.67323" lon="2.04142">
        <ele>172</ele>
        <time>2021-05-20T09:05:52.564Z</time>
      </trkpt>
      <trkpt lat="48.67323" lon="2.04143">
        <ele>172</ele>
        <time>2021-05-20T09:05:53.564Z</time>
      </trkpt>
      <trkpt lat="48.67323" lon="2.04145">
        <ele>172</ele>
        <time>2021-05-20T09:05:54.564Z</time>
      </trkpt>
      <trkpt lat="48.67323" lon="2.04147">
        <ele>172</ele>
        <time>2021-05-20T09:05:55.564Z</time>
      </trkpt>
      <trkpt lat="48.67323" lon="2.04149">
        <ele>172</ele>
        <time>2021-05-20T09:05:56.564Z</time>
      </trkpt>
      <trkpt lat="48.67322" lon="2.04151">
        <ele>172</ele>
        <time>2021-05-20T09:05:57.564Z</time>
      </trkpt>
      <trkpt lat="48.67322" lon="2.04153">
        <ele>172</ele>
        <time>2021-05-20T09:05:58.564Z</time>
      </trkpt>
      <trkpt lat="48.67322" lon="2.04155">
        <ele>172</ele>
        <time>2021-05-20T09:05:59.564Z</time>
      </trkpt>
      <trkpt lat="48.67322" lon="2.04157">
        <ele>172</ele>
        <time>2021-05-20T09:06:00.564Z</time>
      </trkpt>
      <trkpt lat="48.67322" lon="2.04158">
        <ele>172</ele>
        <time>2021-05-20T09:06:01.564Z</time>
      </trkpt>
      <trkpt lat="48.67322" lon="2.0416">
        <ele>172</ele>
        <time>2021-05-20T09:06:02.564Z</time>
      </trkpt>
      <trkpt lat="48.67322" lon="2.04162">
        <ele>172</ele>
        <time>2021-05-20T09:06:03.564Z</time>
      </trkpt>
      <trkpt lat="48.67321" lon="2.04164">
        <ele>172</ele>
        <time>2021-05-20T09:06:04.564Z</time>
      </trkpt>
      <trkpt lat="48.67321" lon="2.04166">
        <ele>172</ele>
        <time>2021-05-20T09:06:05.564Z</time>
      </trkpt>
      <trkpt lat="48.67321" lon="2.04168">
        <ele>172</ele>
        <time>2021-05-20T09:06:06.564Z</time>
      </trkpt>
      <trkpt lat="48.67321" lon="2.0417">
        <ele>172</ele>
        <time>2021-05-20T09:06:07.564Z</time>
      </trkpt>
      <trkpt lat="48.67321" lon="2.04172">
        <ele>172</ele>
        <time>2021-05-20T09:06:08.564Z</time>
      </trkpt>
      <trkpt lat="48.6732" lon="2.04174">
        <ele>172</ele>
        <time>2021-05-20T09:06:09.564Z</time>
      </trkpt>
      <trkpt lat="48.6732" lon="2.04176">
        <ele>172</ele>
        <time>2021-05-20T09:06:10.564Z</time>
      </trkpt>
      <trkpt lat="48.6732" lon="2.04178">
        <ele>172</ele>
        <time>2021-05-20T09:06:11.564Z</time>
      </trkpt>
      <trkpt lat="48.6732" lon="2.0418">
        <ele>172</ele>
        <time>2021-05-20T09:06:12.564Z</time>
      </trkpt>
      <trkpt lat="48.6732" lon="2.04182">
        <ele>172</ele>
        <time>2021-05-20T09:06:13.564Z</time>
      </trkpt>
      <trkpt lat="48.67319" lon="2.04184">
        <ele>172</ele>
        <time>2021-05-20T09:06:14.564Z</time>
      </trkpt>
      <trkpt lat="48.67319" lon="2.04186">
        <ele>172</ele>
        <time>2021-05-20T09:06:15.564Z</time>
      </trkpt>
      <trkpt lat="48.67319" lon="2.04188">
        <ele>171</ele>
        <time>2021-05-20T09:06:16.564Z</time>
      </trkpt>
      <trkpt lat="48.67319" lon="2.0419">
        <ele>171</ele>
        <time>2021-05-20T09:06:17.564Z</time>
      </trkpt>
      <trkpt lat="48.67319" lon="2.04191">
        <ele>171</ele>
        <time>2021-05-20T09:06:18.564Z</time>
      </trkpt>
      <trkpt lat="48.67318" lon="2.04193">
        <ele>171</ele>
        <time>2021-05-20T09:06:19.564Z</time>
      </trkpt>
      <trkpt lat="48.67318" lon="2.04195">
        <ele>171</ele>
        <time>2021-05-20T09:06:20.564Z</time>
      </trkpt>
      <trkpt lat="48.67318" lon="2.04197">
        <ele>171</ele>
        <time>2021-05-20T09:06:21.564Z</time>
      </trkpt>
      <trkpt lat="48.67318" lon="2.04199">
        <ele>171</ele>
        <time>2021-05-20T09:06:22.564Z</time>
      </trkpt>
      <trkpt lat="48.67318" lon="2.04201">
        <ele>171</ele>
        <time>2021-05-20T09:06:23.564Z</time>
      </trkpt>
      <trkpt lat="48.67318" lon="2.04203">
        <ele>171</ele>
        <time>2021-05-20T09:06:24.564Z</time>
      </trkpt>
      <trkpt lat="48.67317" lon="2.04205">
        <ele>171</ele>
        <time>2021-05-20T09:06:25.564Z</time>
      </trkpt>
      <trkpt lat="48.67317" lon="2.04207">
        <ele>171</ele>
        <time>2021-05-20T09:06:26.564Z</time>
      </trkpt>
      <trkpt lat="48.67317" lon="2.04209">
        <ele>171</ele>
        <time>2021-05-20T09:06:27.564Z</time>
      </trkpt>
      <trkpt lat="48.67317" lon="2.04211">
        <ele>171</ele>
        <time>2021-05-20T09:06:28.564Z</time>
      </trkpt>
      <trkpt lat="48.67317" lon="2.04213">
        <ele>171</ele>
        <time>2021-05-20T09:06:29.564Z</time>
      </trkpt>
      <trkpt lat="48.67317" lon="2.04215">
        <ele>171</ele>
        <time>2021-05-20T09:06:30.564Z</time>
      </trkpt>
      <trkpt lat="48.67316" lon="2.04217">
        <ele>171</ele>
        <time>2021-05-20T09:06:31.564Z</time>
      </trkpt>
      <trkpt lat="48.67316" lon="2.04219">
        <ele>171</ele>
        <time>2021-05-20T09:06:32.564Z</time>
      </trkpt>
      <trkpt lat="48.67316" lon="2.04221">
        <ele>171</ele>
        <time>2021-05-20T09:06:33.564Z</time>
      </trkpt>
      <trkpt lat="48.67316" lon="2.04223">
        <ele>171</ele>
        <time>2021-05-20T09:06:34.564Z</time>
      </trkpt>
      <trkpt lat="48.67316" lon="2.04225">
        <ele>171</ele>
        <time>2021-05-20T09:06:35.564Z</time>
      </trkpt>
      <trkpt lat="48.67315" lon="2.04227">
        <ele>171</ele>
        <time>2021-05-20T09:06:36.564Z</time>
      </trkpt>
      <trkpt lat="48.67315" lon="2.04228">
        <ele>171</ele>
        <time>2021-05-20T09:06:37.564Z</time>
      </trkpt>
      <trkpt lat="48.67315" lon="2.0423">
        <ele>171</ele>
        <time>2021-05-20T09:06:38.564Z</time>
      </trkpt>
      <trkpt lat="48.67315" lon="2.04233">
        <ele>171</ele>
        <time>2021-05-20T09:06:39.564Z</time>
      </trkpt>
      <trkpt lat="48.67315" lon="2.04235">
        <ele>171</ele>
        <time>2021-05-20T09:06:40.564Z</time>
      </trkpt>
      <trkpt lat="48.67314" lon="2.04237">
        <ele>171</ele>
        <time>2021-05-20T09:06:41.564Z</time>
      </trkpt>
      <trkpt lat="48.67314" lon="2.04238">
        <ele>171</ele>
        <time>2021-05-20T09:06:42.564Z</time>
      </trkpt>
      <trkpt lat="48.67314" lon="2.0424">
        <ele>171</ele>
        <time>2021-05-20T09:06:43.564Z</time>
      </trkpt>
      <trkpt lat="48.67314" lon="2.04242">
        <ele>171</ele>
        <time>2021-05-20T09:06:44.564Z</time>
      </trkpt>
      <trkpt lat="48.67314" lon="2.04244">
        <ele>171</ele>
        <time>2021-05-20T09:06:45.564Z</time>
      </trkpt>
      <trkpt lat="48.67314" lon="2.04246">
        <ele>171</ele>
        <time>2021-05-20T09:06:46.564Z</time>
      </trkpt>
      <trkpt lat="48.67314" lon="2.04248">
        <ele>171</ele>
        <time>2021-05-20T09:06:47.564Z</time>
      </trkpt>
      <trkpt lat="48.67313" lon="2.0425">
        <ele>170</ele>
        <time>2021-05-20T09:06:48.564Z</time>
      </trkpt>
      <trkpt lat="48.67313" lon="2.04252">
        <ele>170</ele>
        <time>2021-05-20T09:06:49.564Z</time>
      </trkpt>
      <trkpt lat="48.67313" lon="2.04254">
        <ele>170</ele>
        <time>2021-05-20T09:06:50.564Z</time>
      </trkpt>
      <trkpt lat="48.67313" lon="2.04256">
        <ele>170</ele>
        <time>2021-05-20T09:06:51.564Z</time>
      </trkpt>
      <trkpt lat="48.67312" lon="2.04257">
        <ele>170</ele>
        <time>2021-05-20T09:06:52.564Z</time>
      </trkpt>
      <trkpt lat="48.67312" lon="2.04259">
        <ele>170</ele>
        <time>2021-05-20T09:06:53.564Z</time>
      </trkpt>
      <trkpt lat="48.67312" lon="2.04261">
        <ele>170</ele>
        <time>2021-05-20T09:06:54.564Z</time>
      </trkpt>
      <trkpt lat="48.67312" lon="2.04263">
        <ele>170</ele>
        <time>2021-05-20T09:06:55.564Z</time>
      </trkpt>
      <trkpt lat="48.67312" lon="2.04265">
        <ele>170</ele>
        <time>2021-05-20T09:06:56.564Z</time>
      </trkpt>
      <trkpt lat="48.67312" lon="2.04267">
        <ele>170</ele>
        <time>2021-05-20T09:06:57.564Z</time>
      </trkpt>
      <trkpt lat="48.67312" lon="2.04269">
        <ele>170</ele>
        <time>2021-05-20T09:06:58.564Z</time>
      </trkpt>
      <trkpt lat="48.67311" lon="2.04271">
        <ele>170</ele>
        <time>2021-05-20T09:06:59.564Z</time>
      </trkpt>
      <trkpt lat="48.67311" lon="2.04273">
        <ele>170</ele>
        <time>2021-05-20T09:07:00.564Z</time>
      </trkpt>
      <trkpt lat="48.67311" lon="2.04275">
        <ele>171</ele>
        <time>2021-05-20T09:07:01.564Z</time>
      </trkpt>
      <trkpt lat="48.67311" lon="2.04277">
        <ele>171</ele>
        <time>2021-05-20T09:07:02.564Z</time>
      </trkpt>
      <trkpt lat="48.67311" lon="2.04279">
        <ele>171</ele>
        <time>2021-05-20T09:07:03.564Z</time>
      </trkpt>
      <trkpt lat="48.6731" lon="2.04281">
        <ele>171</ele>
        <time>2021-05-20T09:07:04.564Z</time>
      </trkpt>
      <trkpt lat="48.6731" lon="2.04283">
        <ele>171</ele>
        <time>2021-05-20T09:07:05.564Z</time>
      </trkpt>
      <trkpt lat="48.6731" lon="2.04285">
        <ele>171</ele>
        <time>2021-05-20T09:07:06.564Z</time>
      </trkpt>
      <trkpt lat="48.6731" lon="2.04287">
        <ele>171</ele>
        <time>2021-05-20T09:07:07.564Z</time>
      </trkpt>
      <trkpt lat="48.6731" lon="2.04289">
        <ele>171</ele>
        <time>2021-05-20T09:07:08.564Z</time>
      </trkpt>
      <trkpt lat="48.67309" lon="2.04291">
        <ele>171</ele>
        <time>2021-05-20T09:07:09.564Z</time>
      </trkpt>
      <trkpt lat="48.67309" lon="2.04293">
        <ele>171</ele>
        <time>2021-05-20T09:07:10.564Z</time>
      </trkpt>
      <trkpt lat="48.67309" lon="2.04294">
        <ele>171</ele>
        <time>2021-05-20T09:07:11.564Z</time>
      </trkpt>
      <trkpt lat="48.67309" lon="2.04296">
        <ele>171</ele>
        <time>2021-05-20T09:07:12.564Z</time>
      </trkpt>
      <trkpt lat="48.67309" lon="2.04298">
        <ele>171</ele>
        <time>2021-05-20T09:07:13.564Z</time>
      </trkpt>
      <trkpt lat="48.67309" lon="2.043">
        <ele>171</ele>
        <time>2021-05-20T09:07:14.564Z</time>
      </trkpt>
      <trkpt lat="48.67309" lon="2.04302">
        <ele>171</ele>
        <time>2021-05-20T09:07:15.564Z</time>
      </trkpt>
      <trkpt lat="48.67308" lon="2.04304">
        <ele>171</ele>
        <time>2021-05-20T09:07:16.564Z</time>
      </trkpt>
      <trkpt lat="48.67308" lon="2.04306">
        <ele>171</ele>
        <time>2021-05-20T09:07:17.564Z</time>
      </trkpt>
      <trkpt lat="48.67308" lon="2.04308">
        <ele>171</ele>
        <time>2021-05-20T09:07:18.564Z</time>
      </trkpt>
      <trkpt lat="48.67308" lon="2.0431">
        <ele>171</ele>
        <time>2021-05-20T09:07:19.564Z</time>
      </trkpt>
      <trkpt lat="48.67308" lon="2.04312">
        <ele>171</ele>
        <time>2021-05-20T09:07:20.564Z</time>
      </trkpt>
      <trkpt lat="48.67308" lon="2.04314">
        <ele>171</ele>
        <time>2021-05-20T09:07:21.564Z</time>
      </trkpt>
      <trkpt lat="48.67308" lon="2.04316">
        <ele>171</ele>
        <time>2021-05-20T09:07:22.564Z</time>
      </trkpt>
      <trkpt lat="48.67308" lon="2.04318">
        <ele>171</ele>
        <time>2021-05-20T09:07:23.564Z</time>
      </trkpt>
      <trkpt lat="48.67308" lon="2.0432">
        <ele>171</ele>
        <time>2021-05-20T09:07:24.564Z</time>
      </trkpt>
      <trkpt lat="48.67307" lon="2.04322">
        <ele>171</ele>
        <time>2021-05-20T09:07:25.564Z</time>
      </trkpt>
      <trkpt lat="48.67307" lon="2.04323">
        <ele>171</ele>
        <time>2021-05-20T09:07:26.564Z</time>
      </trkpt>
      <trkpt lat="48.67307" lon="2.04326">
        <ele>171</ele>
        <time>2021-05-20T09:07:27.564Z</time>
      </trkpt>
      <trkpt lat="48.67307" lon="2.04328">
        <ele>171</ele>
        <time>2021-05-20T09:07:28.564Z</time>
      </trkpt>
      <trkpt lat="48.67307" lon="2.0433">
        <ele>171</ele>
        <time>2021-05-20T09:07:29.564Z</time>
      </trkpt>
      <trkpt lat="48.67307" lon="2.04332">
        <ele>171</ele>
        <time>2021-05-20T09:07:30.564Z</time>
      </trkpt>
      <trkpt lat="48.67306" lon="2.04333">
        <ele>171</ele>
        <time>2021-05-20T09:07:31.564Z</time>
      </trkpt>
      <trkpt lat="48.67306" lon="2.04335">
        <ele>171</ele>
        <time>2021-05-20T09:07:32.564Z</time>
      </trkpt>
      <trkpt lat="48.67306" lon="2.04337">
        <ele>171</ele>
        <time>2021-05-20T09:07:33.564Z</time>
      </trkpt>
      <trkpt lat="48.67306" lon="2.04339">
        <ele>171</ele>
        <time>2021-05-20T09:07:34.564Z</time>
      </trkpt>
      <trkpt lat="48.67306" lon="2.04341">
        <ele>171</ele>
        <time>2021-05-20T09:07:35.564Z</time>
      </trkpt>
      <trkpt lat="48.67306" lon="2.04343">
        <ele>171</ele>
        <time>2021-05-20T09:07:36.564Z</time>
      </trkpt>
      <trkpt lat="48.67306" lon="2.04345">
        <ele>171</ele>
        <time>2021-05-20T09:07:37.564Z</time>
      </trkpt>
      <trkpt lat="48.67306" lon="2.04347">
        <ele>171</ele>
        <time>2021-05-20T09:07:38.564Z</time>
      </trkpt>
      <trkpt lat="48.67305" lon="2.04349">
        <ele>171</ele>
        <time>2021-05-20T09:07:39.564Z</time>
      </trkpt>
      <trkpt lat="48.67305" lon="2.04351">
        <ele>171</ele>
        <time>2021-05-20T09:07:40.564Z</time>
      </trkpt>
      <trkpt lat="48.67305" lon="2.04353">
        <ele>171</ele>
        <time>2021-05-20T09:07:41.564Z</time>
      </trkpt>
      <trkpt lat="48.67304" lon="2.04354">
        <ele>171</ele>
        <time>2021-05-20T09:07:42.564Z</time>
      </trkpt>
      <trkpt lat="48.67304" lon="2.04356">
        <ele>172</ele>
        <time>2021-05-20T09:07:43.564Z</time>
      </trkpt>
      <trkpt lat="48.67304" lon="2.04358">
        <ele>172</ele>
        <time>2021-05-20T09:07:44.564Z</time>
      </trkpt>
      <trkpt lat="48.67304" lon="2.0436">
        <ele>172</ele>
        <time>2021-05-20T09:07:45.564Z</time>
      </trkpt>
      <trkpt lat="48.67304" lon="2.04362">
        <ele>172</ele>
        <time>2021-05-20T09:07:46.564Z</time>
      </trkpt>
      <trkpt lat="48.67304" lon="2.04364">
        <ele>172</ele>
        <time>2021-05-20T09:07:47.564Z</time>
      </trkpt>
      <trkpt lat="48.67303" lon="2.04366">
        <ele>172</ele>
        <time>2021-05-20T09:07:48.564Z</time>
      </trkpt>
      <trkpt lat="48.67303" lon="2.04368">
        <ele>172</ele>
        <time>2021-05-20T09:07:49.564Z</time>
      </trkpt>
      <trkpt lat="48.67303" lon="2.0437">
        <ele>172</ele>
        <time>2021-05-20T09:07:50.564Z</time>
      </trkpt>
      <trkpt lat="48.67303" lon="2.04372">
        <ele>172</ele>
        <time>2021-05-20T09:07:51.564Z</time>
      </trkpt>
      <trkpt lat="48.67303" lon="2.04373">
        <ele>172</ele>
        <time>2021-05-20T09:07:52.564Z</time>
      </trkpt>
      <trkpt lat="48.67303" lon="2.04375">
        <ele>172</ele>
        <time>2021-05-20T09:07:53.564Z</time>
      </trkpt>
      <trkpt lat="48.67303" lon="2.04377">
        <ele>172</ele>
        <time>2021-05-20T09:07:54.564Z</time>
      </trkpt>
      <trkpt lat="48.67302" lon="2.04379">
        <ele>172</ele>
        <time>2021-05-20T09:07:55.564Z</time>
      </trkpt>
      <trkpt lat="48.67302" lon="2.04381">
        <ele>172</ele>
        <time>2021-05-20T09:07:56.564Z</time>
      </trkpt>
      <trkpt lat="48.67302" lon="2.04383">
        <ele>172</ele>
        <time>2021-05-20T09:07:57.564Z</time>
      </trkpt>
      <trkpt lat="48.67302" lon="2.04385">
        <ele>172</ele>
        <time>2021-05-20T09:07:58.564Z</time>
      </trkpt>
      <trkpt lat="48.67302" lon="2.04387">
        <ele>172</ele>
        <time>2021-05-20T09:07:59.564Z</time>
      </trkpt>
      <trkpt lat="48.67301" lon="2.04389">
        <ele>172</ele>
        <time>2021-05-20T09:08:00.564Z</time>
      </trkpt>
      <trkpt lat="48.67301" lon="2.04391">
        <ele>173</ele>
        <time>2021-05-20T09:08:01.564Z</time>
      </trkpt>
      <trkpt lat="48.67301" lon="2.04393">
        <ele>173</ele>
        <time>2021-05-20T09:08:05.572Z</time>
      </trkpt>
      <trkpt lat="48.67301" lon="2.04395">
        <ele>173</ele>
        <time>2021-05-20T09:08:06.572Z</time>
      </trkpt>
      <trkpt lat="48.67301" lon="2.04397">
        <ele>173</ele>
        <time>2021-05-20T09:08:07.572Z</time>
      </trkpt>
      <trkpt lat="48.67301" lon="2.04399">
        <ele>173</ele>
        <time>2021-05-20T09:08:08.572Z</time>
      </trkpt>
      <trkpt lat="48.673" lon="2.04401">
        <ele>173</ele>
        <time>2021-05-20T09:08:09.572Z</time>
      </trkpt>
      <trkpt lat="48.673" lon="2.04403">
        <ele>173</ele>
        <time>2021-05-20T09:08:10.572Z</time>
      </trkpt>
      <trkpt lat="48.673" lon="2.04405">
        <ele>173</ele>
        <time>2021-05-20T09:08:11.572Z</time>
      </trkpt>
      <trkpt lat="48.673" lon="2.04407">
        <ele>173</ele>
        <time>2021-05-20T09:08:12.572Z</time>
      </trkpt>
      <trkpt lat="48.673" lon="2.04409">
        <ele>173</ele>
        <time>2021-05-20T09:08:13.572Z</time>
      </trkpt>
      <trkpt lat="48.67299" lon="2.04411">
        <ele>173</ele>
        <time>2021-05-20T09:08:14.572Z</time>
      </trkpt>
      <trkpt lat="48.67299" lon="2.04413">
        <ele>173</ele>
        <time>2021-05-20T09:08:15.572Z</time>
      </trkpt>
      <trkpt lat="48.67299" lon="2.04415">
        <ele>173</ele>
        <time>2021-05-20T09:08:16.572Z</time>
      </trkpt>
      <trkpt lat="48.67299" lon="2.04417">
        <ele>173</ele>
        <time>2021-05-20T09:08:17.572Z</time>
      </trkpt>
      <trkpt lat="48.67298" lon="2.04419">
        <ele>173</ele>
        <time>2021-05-20T09:08:18.572Z</time>
      </trkpt>
      <trkpt lat="48.67298" lon="2.04421">
        <ele>173</ele>
        <time>2021-05-20T09:08:19.572Z</time>
      </trkpt>
      <trkpt lat="48.67298" lon="2.04423">
        <ele>173</ele>
        <time>2021-05-20T09:08:20.572Z</time>
      </trkpt>
      <trkpt lat="48.67298" lon="2.04425">
        <ele>173</ele>
        <time>2021-05-20T09:08:21.572Z</time>
      </trkpt>
      <trkpt lat="48.67298" lon="2.04427">
        <ele>173</ele>
        <time>2021-05-20T09:08:22.572Z</time>
      </trkpt>
      <trkpt lat="48.67297" lon="2.04429">
        <ele>173</ele>
        <time>2021-05-20T09:08:23.572Z</time>
      </trkpt>
      <trkpt lat="48.67297" lon="2.04431">
        <ele>173</ele>
        <time>2021-05-20T09:08:24.572Z</time>
      </trkpt>
      <trkpt lat="48.67297" lon="2.04433">
        <ele>174</ele>
        <time>2021-05-20T09:08:25.572Z</time>
      </trkpt>
      <trkpt lat="48.67297" lon="2.04434">
        <ele>174</ele>
        <time>2021-05-20T09:08:26.572Z</time>
      </trkpt>
      <trkpt lat="48.67297" lon="2.04436">
        <ele>174</ele>
        <time>2021-05-20T09:08:27.572Z</time>
      </trkpt>
      <trkpt lat="48.67296" lon="2.04438">
        <ele>174</ele>
        <time>2021-05-20T09:08:28.572Z</time>
      </trkpt>
      <trkpt lat="48.67296" lon="2.0444">
        <ele>174</ele>
        <time>2021-05-20T09:08:29.572Z</time>
      </trkpt>
      <trkpt lat="48.67296" lon="2.04442">
        <ele>174</ele>
        <time>2021-05-20T09:08:30.572Z</time>
      </trkpt>
      <trkpt lat="48.67296" lon="2.04444">
        <ele>174</ele>
        <time>2021-05-20T09:08:31.572Z</time>
      </trkpt>
      <trkpt lat="48.67296" lon="2.04446">
        <ele>174</ele>
        <time>2021-05-20T09:08:32.572Z</time>
      </trkpt>
      <trkpt lat="48.67296" lon="2.04448">
        <ele>174</ele>
        <time>2021-05-20T09:08:33.572Z</time>
      </trkpt>
      <trkpt lat="48.67296" lon="2.0445">
        <ele>174</ele>
        <time>2021-05-20T09:08:34.572Z</time>
      </trkpt>
      <trkpt lat="48.67296" lon="2.04451">
        <ele>174</ele>
        <time>2021-05-20T09:08:35.572Z</time>
      </trkpt>
      <trkpt lat="48.67295" lon="2.04453">
        <ele>174</ele>
        <time>2021-05-20T09:08:36.572Z</time>
      </trkpt>
      <trkpt lat="48.67295" lon="2.04455">
        <ele>174</ele>
        <time>2021-05-20T09:08:37.572Z</time>
      </trkpt>
      <trkpt lat="48.67295" lon="2.04457">
        <ele>174</ele>
        <time>2021-05-20T09:08:38.572Z</time>
      </trkpt>
      <trkpt lat="48.67295" lon="2.04459">
        <ele>174</ele>
        <time>2021-05-20T09:08:39.572Z</time>
      </trkpt>
      <trkpt lat="48.67294" lon="2.04462">
        <ele>173</ele>
        <time>2021-05-20T09:08:40.572Z</time>
      </trkpt>
      <trkpt lat="48.67294" lon="2.04464">
        <ele>173</ele>
        <time>2021-05-20T09:08:41.572Z</time>
      </trkpt>
      <trkpt lat="48.67294" lon="2.04465">
        <ele>173</ele>
        <time>2021-05-20T09:08:42.572Z</time>
      </trkpt>
      <trkpt lat="48.67294" lon="2.04467">
        <ele>173</ele>
        <time>2021-05-20T09:08:43.572Z</time>
      </trkpt>
      <trkpt lat="48.67294" lon="2.04469">
        <ele>173</ele>
        <time>2021-05-20T09:08:44.572Z</time>
      </trkpt>
      <trkpt lat="48.67294" lon="2.0447">
        <ele>173</ele>
        <time>2021-05-20T09:08:45.572Z</time>
      </trkpt>
      <trkpt lat="48.67294" lon="2.04472">
        <ele>173</ele>
        <time>2021-05-20T09:08:46.572Z</time>
      </trkpt>
      <trkpt lat="48.67294" lon="2.04474">
        <ele>173</ele>
        <time>2021-05-20T09:08:47.572Z</time>
      </trkpt>
      <trkpt lat="48.67294" lon="2.04476">
        <ele>173</ele>
        <time>2021-05-20T09:08:48.572Z</time>
      </trkpt>
      <trkpt lat="48.67294" lon="2.04478">
        <ele>173</ele>
        <time>2021-05-20T09:08:49.572Z</time>
      </trkpt>
      <trkpt lat="48.67294" lon="2.0448">
        <ele>173</ele>
        <time>2021-05-20T09:08:50.572Z</time>
      </trkpt>
      <trkpt lat="48.67294" lon="2.04482">
        <ele>173</ele>
        <time>2021-05-20T09:08:51.572Z</time>
      </trkpt>
      <trkpt lat="48.67294" lon="2.04484">
        <ele>173</ele>
        <time>2021-05-20T09:08:52.572Z</time>
      </trkpt>
      <trkpt lat="48.67294" lon="2.04486">
        <ele>173</ele>
        <time>2021-05-20T09:08:53.572Z</time>
      </trkpt>
      <trkpt lat="48.67294" lon="2.04487">
        <ele>173</ele>
        <time>2021-05-20T09:08:54.572Z</time>
      </trkpt>
      <trkpt lat="48.67294" lon="2.04488">
        <ele>173</ele>
        <time>2021-05-20T09:08:55.572Z</time>
      </trkpt>
      <trkpt lat="48.67294" lon="2.0449">
        <ele>173</ele>
        <time>2021-05-20T09:08:56.572Z</time>
      </trkpt>
      <trkpt lat="48.67294" lon="2.04491">
        <ele>173</ele>
        <time>2021-05-20T09:08:57.572Z</time>
      </trkpt>
      <trkpt lat="48.67294" lon="2.04493">
        <ele>173</ele>
        <time>2021-05-20T09:08:58.572Z</time>
      </trkpt>
      <trkpt lat="48.67294" lon="2.04495">
        <ele>174</ele>
        <time>2021-05-20T09:08:59.572Z</time>
      </trkpt>
      <trkpt lat="48.67294" lon="2.04497">
        <ele>174</ele>
        <time>2021-05-20T09:09:00.572Z</time>
      </trkpt>
      <trkpt lat="48.67294" lon="2.04499">
        <ele>174</ele>
        <time>2021-05-20T09:09:01.572Z</time>
      </trkpt>
      <trkpt lat="48.67294" lon="2.04501">
        <ele>174</ele>
        <time>2021-05-20T09:09:02.572Z</time>
      </trkpt>
      <trkpt lat="48.67293" lon="2.04503">
        <ele>173</ele>
        <time>2021-05-20T09:09:03.572Z</time>
      </trkpt>
      <trkpt lat="48.67293" lon="2.04505">
        <ele>173</ele>
        <time>2021-05-20T09:09:04.572Z</time>
      </trkpt>
      <trkpt lat="48.67293" lon="2.04507">
        <ele>173</ele>
        <time>2021-05-20T09:09:05.572Z</time>
      </trkpt>
      <trkpt lat="48.67292" lon="2.04509">
        <ele>173</ele>
        <time>2021-05-20T09:09:06.572Z</time>
      </trkpt>
      <trkpt lat="48.67292" lon="2.04511">
        <ele>173</ele>
        <time>2021-05-20T09:09:07.572Z</time>
      </trkpt>
      <trkpt lat="48.67292" lon="2.04513">
        <ele>173</ele>
        <time>2021-05-20T09:09:08.572Z</time>
      </trkpt>
      <trkpt lat="48.67291" lon="2.04515">
        <ele>173</ele>
        <time>2021-05-20T09:09:09.572Z</time>
      </trkpt>
      <trkpt lat="48.67291" lon="2.04518">
        <ele>172</ele>
        <time>2021-05-20T09:09:10.572Z</time>
      </trkpt>
      <trkpt lat="48.67291" lon="2.04519">
        <ele>172</ele>
        <time>2021-05-20T09:09:11.572Z</time>
      </trkpt>
      <trkpt lat="48.6729" lon="2.04521">
        <ele>172</ele>
        <time>2021-05-20T09:09:12.572Z</time>
      </trkpt>
      <trkpt lat="48.6729" lon="2.04522">
        <ele>172</ele>
        <time>2021-05-20T09:09:13.572Z</time>
      </trkpt>
      <trkpt lat="48.6729" lon="2.04523">
        <ele>172</ele>
        <time>2021-05-20T09:09:14.572Z</time>
      </trkpt>
      <trkpt lat="48.6729" lon="2.04524">
        <ele>172</ele>
        <time>2021-05-20T09:09:15.572Z</time>
      </trkpt>
      <trkpt lat="48.6729" lon="2.04525">
        <ele>172</ele>
        <time>2021-05-20T09:09:16.572Z</time>
      </trkpt>
      <trkpt lat="48.6729" lon="2.04526">
        <ele>172</ele>
        <time>2021-05-20T09:09:17.572Z</time>
      </trkpt>
      <trkpt lat="48.6729" lon="2.04527">
        <ele>172</ele>
        <time>2021-05-20T09:09:18.572Z</time>
      </trkpt>
      <trkpt lat="48.67291" lon="2.04528">
        <ele>172</ele>
        <time>2021-05-20T09:09:19.572Z</time>
      </trkpt>
      <trkpt lat="48.67291" lon="2.04529">
        <ele>172</ele>
        <time>2021-05-20T09:09:20.572Z</time>
      </trkpt>
      <trkpt lat="48.67292" lon="2.04529">
        <ele>172</ele>
        <time>2021-05-20T09:09:21.572Z</time>
      </trkpt>
      <trkpt lat="48.67293" lon="2.0453">
        <ele>172</ele>
        <time>2021-05-20T09:09:22.572Z</time>
      </trkpt>
      <trkpt lat="48.67294" lon="2.04531">
        <ele>172</ele>
        <time>2021-05-20T09:09:23.572Z</time>
      </trkpt>
      <trkpt lat="48.67295" lon="2.04532">
        <ele>172</ele>
        <time>2021-05-20T09:09:24.572Z</time>
      </trkpt>
      <trkpt lat="48.67296" lon="2.04533">
        <ele>172</ele>
        <time>2021-05-20T09:09:25.572Z</time>
      </trkpt>
      <trkpt lat="48.67297" lon="2.04534">
        <ele>172</ele>
        <time>2021-05-20T09:09:26.572Z</time>
      </trkpt>
      <trkpt lat="48.67299" lon="2.04534">
        <ele>172</ele>
        <time>2021-05-20T09:09:27.572Z</time>
      </trkpt>
      <trkpt lat="48.673" lon="2.04534">
        <ele>172</ele>
        <time>2021-05-20T09:09:28.572Z</time>
      </trkpt>
      <trkpt lat="48.67301" lon="2.04535">
        <ele>172</ele>
        <time>2021-05-20T09:09:29.572Z</time>
      </trkpt>
      <trkpt lat="48.67302" lon="2.04535">
        <ele>172</ele>
        <time>2021-05-20T09:09:30.572Z</time>
      </trkpt>
      <trkpt lat="48.67303" lon="2.04536">
        <ele>172</ele>
        <time>2021-05-20T09:09:31.572Z</time>
      </trkpt>
      <trkpt lat="48.67305" lon="2.04536">
        <ele>172</ele>
        <time>2021-05-20T09:09:32.572Z</time>
      </trkpt>
      <trkpt lat="48.67306" lon="2.04537">
        <ele>172</ele>
        <time>2021-05-20T09:09:33.572Z</time>
      </trkpt>
      <trkpt lat="48.67307" lon="2.04537">
        <ele>172</ele>
        <time>2021-05-20T09:09:34.572Z</time>
      </trkpt>
      <trkpt lat="48.67308" lon="2.04538">
        <ele>172</ele>
        <time>2021-05-20T09:09:35.572Z</time>
      </trkpt>
      <trkpt lat="48.6731" lon="2.04538">
        <ele>172</ele>
        <time>2021-05-20T09:09:36.572Z</time>
      </trkpt>
      <trkpt lat="48.67311" lon="2.04539">
        <ele>172</ele>
        <time>2021-05-20T09:09:37.572Z</time>
      </trkpt>
      <trkpt lat="48.67312" lon="2.04539">
        <ele>172</ele>
        <time>2021-05-20T09:09:38.572Z</time>
      </trkpt>
      <trkpt lat="48.67314" lon="2.04539">
        <ele>172</ele>
        <time>2021-05-20T09:09:39.572Z</time>
      </trkpt>
      <trkpt lat="48.67315" lon="2.0454">
        <ele>172</ele>
        <time>2021-05-20T09:09:40.572Z</time>
      </trkpt>
      <trkpt lat="48.67317" lon="2.0454">
        <ele>172</ele>
        <time>2021-05-20T09:09:41.572Z</time>
      </trkpt>
      <trkpt lat="48.67318" lon="2.0454">
        <ele>172</ele>
        <time>2021-05-20T09:09:42.572Z</time>
      </trkpt>
      <trkpt lat="48.67319" lon="2.04541">
        <ele>172</ele>
        <time>2021-05-20T09:09:43.572Z</time>
      </trkpt>
      <trkpt lat="48.6732" lon="2.04541">
        <ele>172</ele>
        <time>2021-05-20T09:09:44.572Z</time>
      </trkpt>
      <trkpt lat="48.67322" lon="2.04542">
        <ele>172</ele>
        <time>2021-05-20T09:09:45.572Z</time>
      </trkpt>
      <trkpt lat="48.67323" lon="2.04542">
        <ele>172</ele>
        <time>2021-05-20T09:09:46.572Z</time>
      </trkpt>
      <trkpt lat="48.67324" lon="2.04543">
        <ele>172</ele>
        <time>2021-05-20T09:09:47.572Z</time>
      </trkpt>
      <trkpt lat="48.67326" lon="2.04543">
        <ele>172</ele>
        <time>2021-05-20T09:09:48.572Z</time>
      </trkpt>
      <trkpt lat="48.67327" lon="2.04544">
        <ele>172</ele>
        <time>2021-05-20T09:09:49.572Z</time>
      </trkpt>
      <trkpt lat="48.67328" lon="2.04544">
        <ele>172</ele>
        <time>2021-05-20T09:09:50.572Z</time>
      </trkpt>
      <trkpt lat="48.67329" lon="2.04545">
        <ele>172</ele>
        <time>2021-05-20T09:09:51.572Z</time>
      </trkpt>
      <trkpt lat="48.67331" lon="2.04545">
        <ele>172</ele>
        <time>2021-05-20T09:09:52.572Z</time>
      </trkpt>
      <trkpt lat="48.67332" lon="2.04545">
        <ele>172</ele>
        <time>2021-05-20T09:09:53.572Z</time>
      </trkpt>
      <trkpt lat="48.67333" lon="2.04546">
        <ele>172</ele>
        <time>2021-05-20T09:09:54.572Z</time>
      </trkpt>
      <trkpt lat="48.67335" lon="2.04546">
        <ele>172</ele>
        <time>2021-05-20T09:09:55.572Z</time>
      </trkpt>
      <trkpt lat="48.67336" lon="2.04546">
        <ele>172</ele>
        <time>2021-05-20T09:09:56.572Z</time>
      </trkpt>
      <trkpt lat="48.67337" lon="2.04547">
        <ele>172</ele>
        <time>2021-05-20T09:09:57.572Z</time>
      </trkpt>
      <trkpt lat="48.67338" lon="2.04548">
        <ele>172</ele>
        <time>2021-05-20T09:09:58.572Z</time>
      </trkpt>
      <trkpt lat="48.6734" lon="2.04548">
        <ele>172</ele>
        <time>2021-05-20T09:09:59.572Z</time>
      </trkpt>
      <trkpt lat="48.67341" lon="2.04548">
        <ele>172</ele>
        <time>2021-05-20T09:10:00.572Z</time>
      </trkpt>
      <trkpt lat="48.67342" lon="2.04549">
        <ele>172</ele>
        <time>2021-05-20T09:10:01.572Z</time>
      </trkpt>
      <trkpt lat="48.67344" lon="2.04549">
        <ele>172</ele>
        <time>2021-05-20T09:10:02.572Z</time>
      </trkpt>
      <trkpt lat="48.67345" lon="2.04549">
        <ele>172</ele>
        <time>2021-05-20T09:10:03.572Z</time>
      </trkpt>
      <trkpt lat="48.67346" lon="2.0455">
        <ele>172</ele>
        <time>2021-05-20T09:10:04.572Z</time>
      </trkpt>
      <trkpt lat="48.67348" lon="2.0455">
        <ele>172</ele>
        <time>2021-05-20T09:10:05.572Z</time>
      </trkpt>
      <trkpt lat="48.67349" lon="2.0455">
        <ele>172</ele>
        <time>2021-05-20T09:10:06.572Z</time>
      </trkpt>
      <trkpt lat="48.6735" lon="2.04551">
        <ele>172</ele>
        <time>2021-05-20T09:10:07.572Z</time>
      </trkpt>
      <trkpt lat="48.67352" lon="2.04551">
        <ele>172</ele>
        <time>2021-05-20T09:10:08.572Z</time>
      </trkpt>
      <trkpt lat="48.67353" lon="2.04551">
        <ele>172</ele>
        <time>2021-05-20T09:10:09.572Z</time>
      </trkpt>
      <trkpt lat="48.67354" lon="2.04552">
        <ele>172</ele>
        <time>2021-05-20T09:10:10.572Z</time>
      </trkpt>
      <trkpt lat="48.67355" lon="2.04552">
        <ele>172</ele>
        <time>2021-05-20T09:10:11.572Z</time>
      </trkpt>
      <trkpt lat="48.67356" lon="2.04552">
        <ele>172</ele>
        <time>2021-05-20T09:10:12.572Z</time>
      </trkpt>
      <trkpt lat="48.67358" lon="2.04552">
        <ele>172</ele>
        <time>2021-05-20T09:10:13.572Z</time>
      </trkpt>
      <trkpt lat="48.67359" lon="2.04553">
        <ele>172</ele>
        <time>2021-05-20T09:10:14.572Z</time>
      </trkpt>
      <trkpt lat="48.6736" lon="2.04553">
        <ele>172</ele>
        <time>2021-05-20T09:10:15.572Z</time>
      </trkpt>
      <trkpt lat="48.6736" lon="2.04553">
        <ele>172</ele>
        <time>2021-05-20T09:10:16.572Z</time>
      </trkpt>
      <trkpt lat="48.67361" lon="2.04553">
        <ele>172</ele>
        <time>2021-05-20T09:10:17.572Z</time>
      </trkpt>
      <trkpt lat="48.67362" lon="2.04554">
        <ele>172</ele>
        <time>2021-05-20T09:10:18.572Z</time>
      </trkpt>
      <trkpt lat="48.67363" lon="2.04554">
        <ele>172</ele>
        <time>2021-05-20T09:10:19.572Z</time>
      </trkpt>
      <trkpt lat="48.67364" lon="2.04554">
        <ele>172</ele>
        <time>2021-05-20T09:10:20.572Z</time>
      </trkpt>
      <trkpt lat="48.67365" lon="2.04555">
        <ele>172</ele>
        <time>2021-05-20T09:10:21.572Z</time>
      </trkpt>
      <trkpt lat="48.67366" lon="2.04555">
        <ele>172</ele>
        <time>2021-05-20T09:10:22.572Z</time>
      </trkpt>
      <trkpt lat="48.67368" lon="2.04555">
        <ele>172</ele>
        <time>2021-05-20T09:10:23.572Z</time>
      </trkpt>
      <trkpt lat="48.67369" lon="2.04556">
        <ele>172</ele>
        <time>2021-05-20T09:10:24.572Z</time>
      </trkpt>
      <trkpt lat="48.67371" lon="2.04556">
        <ele>173</ele>
        <time>2021-05-20T09:10:25.572Z</time>
      </trkpt>
      <trkpt lat="48.67372" lon="2.04557">
        <ele>173</ele>
        <time>2021-05-20T09:10:26.572Z</time>
      </trkpt>
      <trkpt lat="48.67374" lon="2.04557">
        <ele>173</ele>
        <time>2021-05-20T09:10:27.572Z</time>
      </trkpt>
      <trkpt lat="48.67376" lon="2.04557">
        <ele>173</ele>
        <time>2021-05-20T09:10:28.572Z</time>
      </trkpt>
      <trkpt lat="48.67377" lon="2.04558">
        <ele>173</ele>
        <time>2021-05-20T09:10:29.572Z</time>
      </trkpt>
      <trkpt lat="48.67378" lon="2.04558">
        <ele>173</ele>
        <time>2021-05-20T09:10:30.572Z</time>
      </trkpt>
      <trkpt lat="48.6738" lon="2.04558">
        <ele>173</ele>
        <time>2021-05-20T09:10:31.572Z</time>
      </trkpt>
      <trkpt lat="48.67381" lon="2.04559">
        <ele>173</ele>
        <time>2021-05-20T09:10:32.572Z</time>
      </trkpt>
      <trkpt lat="48.67382" lon="2.04559">
        <ele>173</ele>
        <time>2021-05-20T09:10:33.572Z</time>
      </trkpt>
      <trkpt lat="48.67384" lon="2.0456">
        <ele>173</ele>
        <time>2021-05-20T09:10:34.572Z</time>
      </trkpt>
      <trkpt lat="48.67386" lon="2.04561">
        <ele>173</ele>
        <time>2021-05-20T09:10:35.572Z</time>
      </trkpt>
      <trkpt lat="48.67387" lon="2.04561">
        <ele>173</ele>
        <time>2021-05-20T09:10:36.572Z</time>
      </trkpt>
      <trkpt lat="48.67389" lon="2.04562">
        <ele>173</ele>
        <time>2021-05-20T09:10:37.572Z</time>
      </trkpt>
      <trkpt lat="48.6739" lon="2.04562">
        <ele>173</ele>
        <time>2021-05-20T09:10:38.572Z</time>
      </trkpt>
      <trkpt lat="48.67391" lon="2.04563">
        <ele>173</ele>
        <time>2021-05-20T09:10:39.572Z</time>
      </trkpt>
      <trkpt lat="48.67393" lon="2.04563">
        <ele>172</ele>
        <time>2021-05-20T09:10:40.572Z</time>
      </trkpt>
      <trkpt lat="48.67394" lon="2.04564">
        <ele>172</ele>
        <time>2021-05-20T09:10:41.572Z</time>
      </trkpt>
      <trkpt lat="48.67395" lon="2.04564">
        <ele>172</ele>
        <time>2021-05-20T09:10:42.572Z</time>
      </trkpt>
      <trkpt lat="48.67396" lon="2.04565">
        <ele>172</ele>
        <time>2021-05-20T09:10:43.572Z</time>
      </trkpt>
      <trkpt lat="48.67398" lon="2.04565">
        <ele>172</ele>
        <time>2021-05-20T09:10:44.572Z</time>
      </trkpt>
      <trkpt lat="48.67399" lon="2.04565">
        <ele>172</ele>
        <time>2021-05-20T09:10:45.572Z</time>
      </trkpt>
      <trkpt lat="48.674" lon="2.04565">
        <ele>172</ele>
        <time>2021-05-20T09:10:46.572Z</time>
      </trkpt>
      <trkpt lat="48.67401" lon="2.04566">
        <ele>172</ele>
        <time>2021-05-20T09:10:47.572Z</time>
      </trkpt>
      <trkpt lat="48.67403" lon="2.04566">
        <ele>172</ele>
        <time>2021-05-20T09:10:48.572Z</time>
      </trkpt>
      <trkpt lat="48.67404" lon="2.04567">
        <ele>172</ele>
        <time>2021-05-20T09:10:49.572Z</time>
      </trkpt>
      <trkpt lat="48.67405" lon="2.04568">
        <ele>172</ele>
        <time>2021-05-20T09:10:50.572Z</time>
      </trkpt>
      <trkpt lat="48.67407" lon="2.04568">
        <ele>172</ele>
        <time>2021-05-20T09:10:51.572Z</time>
      </trkpt>
      <trkpt lat="48.67408" lon="2.04568">
        <ele>172</ele>
        <time>2021-05-20T09:10:52.572Z</time>
      </trkpt>
      <trkpt lat="48.67409" lon="2.04569">
        <ele>171</ele>
        <time>2021-05-20T09:10:53.572Z</time>
      </trkpt>
      <trkpt lat="48.67411" lon="2.04569">
        <ele>171</ele>
        <time>2021-05-20T09:10:54.572Z</time>
      </trkpt>
      <trkpt lat="48.67412" lon="2.0457">
        <ele>171</ele>
        <time>2021-05-20T09:10:55.572Z</time>
      </trkpt>
      <trkpt lat="48.67413" lon="2.0457">
        <ele>171</ele>
        <time>2021-05-20T09:10:56.572Z</time>
      </trkpt>
      <trkpt lat="48.67414" lon="2.04571">
        <ele>171</ele>
        <time>2021-05-20T09:10:57.572Z</time>
      </trkpt>
      <trkpt lat="48.67414" lon="2.04571">
        <ele>171</ele>
        <time>2021-05-20T09:10:58.572Z</time>
      </trkpt>
      <trkpt lat="48.67414" lon="2.04572">
        <ele>171</ele>
        <time>2021-05-20T09:10:59.572Z</time>
      </trkpt>
      <trkpt lat="48.67414" lon="2.04572">
        <ele>171</ele>
        <time>2021-05-20T09:11:00.572Z</time>
      </trkpt>
      <trkpt lat="48.67414" lon="2.04572">
        <ele>171</ele>
        <time>2021-05-20T09:11:01.572Z</time>
      </trkpt>
      <trkpt lat="48.67415" lon="2.04571">
        <ele>171</ele>
        <time>2021-05-20T09:11:02.572Z</time>
      </trkpt>
      <trkpt lat="48.67415" lon="2.04571">
        <ele>171</ele>
        <time>2021-05-20T09:11:03.572Z</time>
      </trkpt>
      <trkpt lat="48.67417" lon="2.04571">
        <ele>171</ele>
        <time>2021-05-20T09:11:04.572Z</time>
      </trkpt>
      <trkpt lat="48.67418" lon="2.04571">
        <ele>171</ele>
        <time>2021-05-20T09:11:05.572Z</time>
      </trkpt>
      <trkpt lat="48.67419" lon="2.04572">
        <ele>171</ele>
        <time>2021-05-20T09:11:06.572Z</time>
      </trkpt>
      <trkpt lat="48.6742" lon="2.04572">
        <ele>170</ele>
        <time>2021-05-20T09:11:07.572Z</time>
      </trkpt>
      <trkpt lat="48.67421" lon="2.04572">
        <ele>170</ele>
        <time>2021-05-20T09:11:08.572Z</time>
      </trkpt>
      <trkpt lat="48.67423" lon="2.04572">
        <ele>170</ele>
        <time>2021-05-20T09:11:09.572Z</time>
      </trkpt>
      <trkpt lat="48.67424" lon="2.04573">
        <ele>170</ele>
        <time>2021-05-20T09:11:10.572Z</time>
      </trkpt>
      <trkpt lat="48.67425" lon="2.04573">
        <ele>170</ele>
        <time>2021-05-20T09:11:11.572Z</time>
      </trkpt>
      <trkpt lat="48.67427" lon="2.04573">
        <ele>170</ele>
        <time>2021-05-20T09:11:12.572Z</time>
      </trkpt>
      <trkpt lat="48.67428" lon="2.04574">
        <ele>170</ele>
        <time>2021-05-20T09:11:13.572Z</time>
      </trkpt>
      <trkpt lat="48.6743" lon="2.04574">
        <ele>170</ele>
        <time>2021-05-20T09:11:14.572Z</time>
      </trkpt>
      <trkpt lat="48.67431" lon="2.04575">
        <ele>170</ele>
        <time>2021-05-20T09:11:15.572Z</time>
      </trkpt>
      <trkpt lat="48.67432" lon="2.04575">
        <ele>170</ele>
        <time>2021-05-20T09:11:16.572Z</time>
      </trkpt>
      <trkpt lat="48.67433" lon="2.04576">
        <ele>170</ele>
        <time>2021-05-20T09:11:17.572Z</time>
      </trkpt>
      <trkpt lat="48.67435" lon="2.04576">
        <ele>170</ele>
        <time>2021-05-20T09:11:18.572Z</time>
      </trkpt>
      <trkpt lat="48.67436" lon="2.04576">
        <ele>170</ele>
        <time>2021-05-20T09:11:19.572Z</time>
      </trkpt>
      <trkpt lat="48.67437" lon="2.04577">
        <ele>170</ele>
        <time>2021-05-20T09:11:20.572Z</time>
      </trkpt>
      <trkpt lat="48.67438" lon="2.04577">
        <ele>170</ele>
        <time>2021-05-20T09:11:21.572Z</time>
      </trkpt>
      <trkpt lat="48.67439" lon="2.04578">
        <ele>170</ele>
        <time>2021-05-20T09:11:22.572Z</time>
      </trkpt>
      <trkpt lat="48.67441" lon="2.04578">
        <ele>170</ele>
        <time>2021-05-20T09:11:23.572Z</time>
      </trkpt>
      <trkpt lat="48.67442" lon="2.04579">
        <ele>170</ele>
        <time>2021-05-20T09:11:24.572Z</time>
      </trkpt>
      <trkpt lat="48.67443" lon="2.04579">
        <ele>170</ele>
        <time>2021-05-20T09:11:25.572Z</time>
      </trkpt>
      <trkpt lat="48.67444" lon="2.0458">
        <ele>170</ele>
        <time>2021-05-20T09:11:26.572Z</time>
      </trkpt>
      <trkpt lat="48.67445" lon="2.0458">
        <ele>170</ele>
        <time>2021-05-20T09:11:27.572Z</time>
      </trkpt>
      <trkpt lat="48.67447" lon="2.0458">
        <ele>170</ele>
        <time>2021-05-20T09:11:28.572Z</time>
      </trkpt>
      <trkpt lat="48.67448" lon="2.0458">
        <ele>170</ele>
        <time>2021-05-20T09:11:29.572Z</time>
      </trkpt>
      <trkpt lat="48.67449" lon="2.04581">
        <ele>170</ele>
        <time>2021-05-20T09:11:30.572Z</time>
      </trkpt>
      <trkpt lat="48.6745" lon="2.04582">
        <ele>170</ele>
        <time>2021-05-20T09:11:31.572Z</time>
      </trkpt>
      <trkpt lat="48.67451" lon="2.04582">
        <ele>170</ele>
        <time>2021-05-20T09:11:32.572Z</time>
      </trkpt>
      <trkpt lat="48.67452" lon="2.04582">
        <ele>170</ele>
        <time>2021-05-20T09:11:33.572Z</time>
      </trkpt>
      <trkpt lat="48.67453" lon="2.04583">
        <ele>170</ele>
        <time>2021-05-20T09:11:34.572Z</time>
      </trkpt>
      <trkpt lat="48.67455" lon="2.04583">
        <ele>170</ele>
        <time>2021-05-20T09:11:35.572Z</time>
      </trkpt>
      <trkpt lat="48.67456" lon="2.04584">
        <ele>169</ele>
        <time>2021-05-20T09:11:36.572Z</time>
      </trkpt>
      <trkpt lat="48.67457" lon="2.04584">
        <ele>169</ele>
        <time>2021-05-20T09:11:37.572Z</time>
      </trkpt>
      <trkpt lat="48.67459" lon="2.04585">
        <ele>170</ele>
        <time>2021-05-20T09:11:38.572Z</time>
      </trkpt>
      <trkpt lat="48.6746" lon="2.04585">
        <ele>169</ele>
        <time>2021-05-20T09:11:39.572Z</time>
      </trkpt>
      <trkpt lat="48.67462" lon="2.04585">
        <ele>169</ele>
        <time>2021-05-20T09:11:40.572Z</time>
      </trkpt>
      <trkpt lat="48.67463" lon="2.04586">
        <ele>169</ele>
        <time>2021-05-20T09:11:41.572Z</time>
      </trkpt>
      <trkpt lat="48.67464" lon="2.04586">
        <ele>170</ele>
        <time>2021-05-20T09:11:42.572Z</time>
      </trkpt>
      <trkpt lat="48.67465" lon="2.04586">
        <ele>170</ele>
        <time>2021-05-20T09:11:43.572Z</time>
      </trkpt>
      <trkpt lat="48.67466" lon="2.04587">
        <ele>170</ele>
        <time>2021-05-20T09:11:44.572Z</time>
      </trkpt>
      <trkpt lat="48.67468" lon="2.04587">
        <ele>170</ele>
        <time>2021-05-20T09:11:45.572Z</time>
      </trkpt>
      <trkpt lat="48.67469" lon="2.04587">
        <ele>170</ele>
        <time>2021-05-20T09:11:46.572Z</time>
      </trkpt>
      <trkpt lat="48.6747" lon="2.04588">
        <ele>170</ele>
        <time>2021-05-20T09:11:47.572Z</time>
      </trkpt>
      <trkpt lat="48.67472" lon="2.04588">
        <ele>170</ele>
        <time>2021-05-20T09:11:48.572Z</time>
      </trkpt>
      <trkpt lat="48.67473" lon="2.04589">
        <ele>170</ele>
        <time>2021-05-20T09:11:49.572Z</time>
      </trkpt>
      <trkpt lat="48.67474" lon="2.04589">
        <ele>170</ele>
        <time>2021-05-20T09:11:50.572Z</time>
      </trkpt>
      <trkpt lat="48.67476" lon="2.0459">
        <ele>170</ele>
        <time>2021-05-20T09:11:51.572Z</time>
      </trkpt>
      <trkpt lat="48.67477" lon="2.0459">
        <ele>170</ele>
        <time>2021-05-20T09:11:52.572Z</time>
      </trkpt>
      <trkpt lat="48.67479" lon="2.04591">
        <ele>170</ele>
        <time>2021-05-20T09:11:53.572Z</time>
      </trkpt>
      <trkpt lat="48.6748" lon="2.04592">
        <ele>170</ele>
        <time>2021-05-20T09:11:54.572Z</time>
      </trkpt>
      <trkpt lat="48.67482" lon="2.04592">
        <ele>169</ele>
        <time>2021-05-20T09:11:55.572Z</time>
      </trkpt>
      <trkpt lat="48.67483" lon="2.04593">
        <ele>169</ele>
        <time>2021-05-20T09:11:56.572Z</time>
      </trkpt>
      <trkpt lat="48.67484" lon="2.04593">
        <ele>169</ele>
        <time>2021-05-20T09:11:57.572Z</time>
      </trkpt>
      <trkpt lat="48.67486" lon="2.04593">
        <ele>169</ele>
        <time>2021-05-20T09:11:58.572Z</time>
      </trkpt>
      <trkpt lat="48.67487" lon="2.04594">
        <ele>169</ele>
        <time>2021-05-20T09:11:59.572Z</time>
      </trkpt>
      <trkpt lat="48.67488" lon="2.04595">
        <ele>169</ele>
        <time>2021-05-20T09:12:00.572Z</time>
      </trkpt>
      <trkpt lat="48.67489" lon="2.04595">
        <ele>169</ele>
        <time>2021-05-20T09:12:01.572Z</time>
      </trkpt>
      <trkpt lat="48.67491" lon="2.04596">
        <ele>169</ele>
        <time>2021-05-20T09:12:02.572Z</time>
      </trkpt>
      <trkpt lat="48.67492" lon="2.04596">
        <ele>169</ele>
        <time>2021-05-20T09:12:03.572Z</time>
      </trkpt>
      <trkpt lat="48.67493" lon="2.04596">
        <ele>169</ele>
        <time>2021-05-20T09:12:04.572Z</time>
      </trkpt>
      <trkpt lat="48.67494" lon="2.04597">
        <ele>169</ele>
        <time>2021-05-20T09:12:05.572Z</time>
      </trkpt>
      <trkpt lat="48.67496" lon="2.04597">
        <ele>169</ele>
        <time>2021-05-20T09:12:06.572Z</time>
      </trkpt>
      <trkpt lat="48.67497" lon="2.04598">
        <ele>169</ele>
        <time>2021-05-20T09:12:07.572Z</time>
      </trkpt>
      <trkpt lat="48.67498" lon="2.04598">
        <ele>169</ele>
        <time>2021-05-20T09:12:08.572Z</time>
      </trkpt>
      <trkpt lat="48.675" lon="2.04599">
        <ele>169</ele>
        <time>2021-05-20T09:12:09.572Z</time>
      </trkpt>
      <trkpt lat="48.67501" lon="2.04599">
        <ele>169</ele>
        <time>2021-05-20T09:12:10.572Z</time>
      </trkpt>
      <trkpt lat="48.67502" lon="2.04599">
        <ele>169</ele>
        <time>2021-05-20T09:12:11.572Z</time>
      </trkpt>
      <trkpt lat="48.67503" lon="2.046">
        <ele>169</ele>
        <time>2021-05-20T09:12:12.572Z</time>
      </trkpt>
      <trkpt lat="48.67505" lon="2.046">
        <ele>169</ele>
        <time>2021-05-20T09:12:13.572Z</time>
      </trkpt>
      <trkpt lat="48.67506" lon="2.046">
        <ele>169</ele>
        <time>2021-05-20T09:12:14.572Z</time>
      </trkpt>
      <trkpt lat="48.67507" lon="2.04601">
        <ele>169</ele>
        <time>2021-05-20T09:12:15.572Z</time>
      </trkpt>
      <trkpt lat="48.67508" lon="2.04601">
        <ele>169</ele>
        <time>2021-05-20T09:12:16.572Z</time>
      </trkpt>
      <trkpt lat="48.6751" lon="2.04601">
        <ele>169</ele>
        <time>2021-05-20T09:12:17.572Z</time>
      </trkpt>
      <trkpt lat="48.67511" lon="2.04602">
        <ele>169</ele>
        <time>2021-05-20T09:12:18.572Z</time>
      </trkpt>
      <trkpt lat="48.67512" lon="2.04602">
        <ele>169</ele>
        <time>2021-05-20T09:12:19.572Z</time>
      </trkpt>
      <trkpt lat="48.67514" lon="2.04603">
        <ele>168</ele>
        <time>2021-05-20T09:12:20.572Z</time>
      </trkpt>
      <trkpt lat="48.67515" lon="2.04603">
        <ele>168</ele>
        <time>2021-05-20T09:12:21.572Z</time>
      </trkpt>
      <trkpt lat="48.67516" lon="2.04604">
        <ele>168</ele>
        <time>2021-05-20T09:12:22.572Z</time>
      </trkpt>
      <trkpt lat="48.67517" lon="2.04604">
        <ele>168</ele>
        <time>2021-05-20T09:12:23.572Z</time>
      </trkpt>
      <trkpt lat="48.67518" lon="2.04605">
        <ele>168</ele>
        <time>2021-05-20T09:12:24.572Z</time>
      </trkpt>
      <trkpt lat="48.6752" lon="2.04605">
        <ele>168</ele>
        <time>2021-05-20T09:12:25.572Z</time>
      </trkpt>
      <trkpt lat="48.67521" lon="2.04606">
        <ele>168</ele>
        <time>2021-05-20T09:12:26.572Z</time>
      </trkpt>
      <trkpt lat="48.67523" lon="2.04606">
        <ele>168</ele>
        <time>2021-05-20T09:12:27.572Z</time>
      </trkpt>
      <trkpt lat="48.67524" lon="2.04606">
        <ele>168</ele>
        <time>2021-05-20T09:12:28.572Z</time>
      </trkpt>
      <trkpt lat="48.67526" lon="2.04607">
        <ele>168</ele>
        <time>2021-05-20T09:12:29.572Z</time>
      </trkpt>
      <trkpt lat="48.67527" lon="2.04608">
        <ele>168</ele>
        <time>2021-05-20T09:12:30.572Z</time>
      </trkpt>
      <trkpt lat="48.67528" lon="2.04608">
        <ele>168</ele>
        <time>2021-05-20T09:12:31.572Z</time>
      </trkpt>
      <trkpt lat="48.6753" lon="2.04608">
        <ele>167</ele>
        <time>2021-05-20T09:12:32.572Z</time>
      </trkpt>
      <trkpt lat="48.67531" lon="2.04609">
        <ele>167</ele>
        <time>2021-05-20T09:12:33.572Z</time>
      </trkpt>
      <trkpt lat="48.67532" lon="2.04609">
        <ele>167</ele>
        <time>2021-05-20T09:12:34.572Z</time>
      </trkpt>
      <trkpt lat="48.67533" lon="2.04609">
        <ele>167</ele>
        <time>2021-05-20T09:12:35.572Z</time>
      </trkpt>
      <trkpt lat="48.67534" lon="2.04609">
        <ele>167</ele>
        <time>2021-05-20T09:12:36.572Z</time>
      </trkpt>
      <trkpt lat="48.67536" lon="2.0461">
        <ele>167</ele>
        <time>2021-05-20T09:12:37.572Z</time>
      </trkpt>
      <trkpt lat="48.67537" lon="2.0461">
        <ele>167</ele>
        <time>2021-05-20T09:12:38.572Z</time>
      </trkpt>
      <trkpt lat="48.67539" lon="2.04611">
        <ele>167</ele>
        <time>2021-05-20T09:12:39.572Z</time>
      </trkpt>
      <trkpt lat="48.6754" lon="2.04611">
        <ele>167</ele>
        <time>2021-05-20T09:12:40.572Z</time>
      </trkpt>
      <trkpt lat="48.67541" lon="2.04611">
        <ele>167</ele>
        <time>2021-05-20T09:12:41.572Z</time>
      </trkpt>
      <trkpt lat="48.67543" lon="2.04612">
        <ele>167</ele>
        <time>2021-05-20T09:12:42.572Z</time>
      </trkpt>
      <trkpt lat="48.67544" lon="2.04612">
        <ele>167</ele>
        <time>2021-05-20T09:12:43.572Z</time>
      </trkpt>
      <trkpt lat="48.67546" lon="2.04613">
        <ele>167</ele>
        <time>2021-05-20T09:12:44.572Z</time>
      </trkpt>
      <trkpt lat="48.67547" lon="2.04613">
        <ele>167</ele>
        <time>2021-05-20T09:12:45.572Z</time>
      </trkpt>
      <trkpt lat="48.67548" lon="2.04613">
        <ele>167</ele>
        <time>2021-05-20T09:12:46.572Z</time>
      </trkpt>
      <trkpt lat="48.67549" lon="2.04614">
        <ele>167</ele>
        <time>2021-05-20T09:12:47.572Z</time>
      </trkpt>
      <trkpt lat="48.6755" lon="2.04614">
        <ele>167</ele>
        <time>2021-05-20T09:12:48.572Z</time>
      </trkpt>
      <trkpt lat="48.67552" lon="2.04614">
        <ele>167</ele>
        <time>2021-05-20T09:12:49.572Z</time>
      </trkpt>
      <trkpt lat="48.67553" lon="2.04614">
        <ele>167</ele>
        <time>2021-05-20T09:12:50.572Z</time>
      </trkpt>
      <trkpt lat="48.67554" lon="2.04615">
        <ele>167</ele>
        <time>2021-05-20T09:12:51.572Z</time>
      </trkpt>
      <trkpt lat="48.67556" lon="2.04615">
        <ele>167</ele>
        <time>2021-05-20T09:12:52.572Z</time>
      </trkpt>
      <trkpt lat="48.67557" lon="2.04616">
        <ele>167</ele>
        <time>2021-05-20T09:12:53.572Z</time>
      </trkpt>
      <trkpt lat="48.67558" lon="2.04616">
        <ele>167</ele>
        <time>2021-05-20T09:12:54.572Z</time>
      </trkpt>
      <trkpt lat="48.67559" lon="2.04616">
        <ele>167</ele>
        <time>2021-05-20T09:12:55.572Z</time>
      </trkpt>
      <trkpt lat="48.67561" lon="2.04616">
        <ele>167</ele>
        <time>2021-05-20T09:12:56.572Z</time>
      </trkpt>
      <trkpt lat="48.67562" lon="2.04617">
        <ele>167</ele>
        <time>2021-05-20T09:12:57.572Z</time>
      </trkpt>
      <trkpt lat="48.67563" lon="2.04617">
        <ele>167</ele>
        <time>2021-05-20T09:12:58.572Z</time>
      </trkpt>
      <trkpt lat="48.67564" lon="2.04617">
        <ele>167</ele>
        <time>2021-05-20T09:12:59.572Z</time>
      </trkpt>
      <trkpt lat="48.67566" lon="2.04618">
        <ele>167</ele>
        <time>2021-05-20T09:13:00.572Z</time>
      </trkpt>
      <trkpt lat="48.67567" lon="2.04618">
        <ele>167</ele>
        <time>2021-05-20T09:13:01.572Z</time>
      </trkpt>
      <trkpt lat="48.67569" lon="2.04619">
        <ele>167</ele>
        <time>2021-05-20T09:13:02.572Z</time>
      </trkpt>
      <trkpt lat="48.6757" lon="2.04619">
        <ele>167</ele>
        <time>2021-05-20T09:13:03.572Z</time>
      </trkpt>
      <trkpt lat="48.67572" lon="2.0462">
        <ele>167</ele>
        <time>2021-05-20T09:13:04.572Z</time>
      </trkpt>
      <trkpt lat="48.67573" lon="2.0462">
        <ele>167</ele>
        <time>2021-05-20T09:13:05.572Z</time>
      </trkpt>
      <trkpt lat="48.67574" lon="2.04621">
        <ele>167</ele>
        <time>2021-05-20T09:13:06.572Z</time>
      </trkpt>
      <trkpt lat="48.67575" lon="2.04621">
        <ele>167</ele>
        <time>2021-05-20T09:13:07.572Z</time>
      </trkpt>
      <trkpt lat="48.67577" lon="2.04621">
        <ele>167</ele>
        <time>2021-05-20T09:13:08.572Z</time>
      </trkpt>
      <trkpt lat="48.67578" lon="2.04622">
        <ele>167</ele>
        <time>2021-05-20T09:13:09.572Z</time>
      </trkpt>
      <trkpt lat="48.67579" lon="2.04622">
        <ele>167</ele>
        <time>2021-05-20T09:13:10.572Z</time>
      </trkpt>
      <trkpt lat="48.6758" lon="2.04623">
        <ele>167</ele>
        <time>2021-05-20T09:13:11.572Z</time>
      </trkpt>
      <trkpt lat="48.67582" lon="2.04623">
        <ele>167</ele>
        <time>2021-05-20T09:13:12.572Z</time>
      </trkpt>
      <trkpt lat="48.67583" lon="2.04624">
        <ele>167</ele>
        <time>2021-05-20T09:13:13.572Z</time>
      </trkpt>
      <trkpt lat="48.67584" lon="2.04624">
        <ele>167</ele>
        <time>2021-05-20T09:13:14.572Z</time>
      </trkpt>
      <trkpt lat="48.67585" lon="2.04625">
        <ele>166</ele>
        <time>2021-05-20T09:13:15.572Z</time>
      </trkpt>
      <trkpt lat="48.67587" lon="2.04625">
        <ele>166</ele>
        <time>2021-05-20T09:13:16.572Z</time>
      </trkpt>
      <trkpt lat="48.67588" lon="2.04625">
        <ele>166</ele>
        <time>2021-05-20T09:13:17.572Z</time>
      </trkpt>
      <trkpt lat="48.67589" lon="2.04626">
        <ele>166</ele>
        <time>2021-05-20T09:13:18.572Z</time>
      </trkpt>
      <trkpt lat="48.67591" lon="2.04626">
        <ele>166</ele>
        <time>2021-05-20T09:13:19.572Z</time>
      </trkpt>
      <trkpt lat="48.67592" lon="2.04626">
        <ele>166</ele>
        <time>2021-05-20T09:13:20.572Z</time>
      </trkpt>
      <trkpt lat="48.67593" lon="2.04627">
        <ele>166</ele>
        <time>2021-05-20T09:13:21.572Z</time>
      </trkpt>
      <trkpt lat="48.67594" lon="2.04627">
        <ele>166</ele>
        <time>2021-05-20T09:13:22.572Z</time>
      </trkpt>
      <trkpt lat="48.67596" lon="2.04628">
        <ele>166</ele>
        <time>2021-05-20T09:13:23.572Z</time>
      </trkpt>
      <trkpt lat="48.67597" lon="2.04629">
        <ele>166</ele>
        <time>2021-05-20T09:13:24.572Z</time>
      </trkpt>
      <trkpt lat="48.67599" lon="2.04629">
        <ele>166</ele>
        <time>2021-05-20T09:13:25.572Z</time>
      </trkpt>
      <trkpt lat="48.676" lon="2.0463">
        <ele>166</ele>
        <time>2021-05-20T09:13:26.572Z</time>
      </trkpt>
      <trkpt lat="48.67602" lon="2.0463">
        <ele>166</ele>
        <time>2021-05-20T09:13:27.572Z</time>
      </trkpt>
      <trkpt lat="48.67603" lon="2.04631">
        <ele>166</ele>
        <time>2021-05-20T09:13:28.572Z</time>
      </trkpt>
      <trkpt lat="48.67604" lon="2.04632">
        <ele>166</ele>
        <time>2021-05-20T09:13:29.572Z</time>
      </trkpt>
      <trkpt lat="48.67606" lon="2.04632">
        <ele>166</ele>
        <time>2021-05-20T09:13:30.572Z</time>
      </trkpt>
      <trkpt lat="48.67607" lon="2.04632">
        <ele>166</ele>
        <time>2021-05-20T09:13:31.572Z</time>
      </trkpt>
      <trkpt lat="48.67608" lon="2.04633">
        <ele>166</ele>
        <time>2021-05-20T09:13:32.572Z</time>
      </trkpt>
      <trkpt lat="48.67609" lon="2.04633">
        <ele>166</ele>
        <time>2021-05-20T09:13:33.572Z</time>
      </trkpt>
      <trkpt lat="48.67611" lon="2.04634">
        <ele>166</ele>
        <time>2021-05-20T09:13:34.572Z</time>
      </trkpt>
      <trkpt lat="48.67612" lon="2.04635">
        <ele>165</ele>
        <time>2021-05-20T09:13:35.572Z</time>
      </trkpt>
      <trkpt lat="48.67613" lon="2.04636">
        <ele>165</ele>
        <time>2021-05-20T09:13:36.572Z</time>
      </trkpt>
      <trkpt lat="48.67615" lon="2.04636">
        <ele>165</ele>
        <time>2021-05-20T09:13:37.572Z</time>
      </trkpt>
      <trkpt lat="48.67616" lon="2.04637">
        <ele>165</ele>
        <time>2021-05-20T09:13:38.572Z</time>
      </trkpt>
      <trkpt lat="48.67617" lon="2.04638">
        <ele>165</ele>
        <time>2021-05-20T09:13:39.572Z</time>
      </trkpt>
      <trkpt lat="48.67619" lon="2.04639">
        <ele>165</ele>
        <time>2021-05-20T09:13:40.572Z</time>
      </trkpt>
      <trkpt lat="48.6762" lon="2.04639">
        <ele>165</ele>
        <time>2021-05-20T09:13:41.572Z</time>
      </trkpt>
      <trkpt lat="48.67621" lon="2.0464">
        <ele>165</ele>
        <time>2021-05-20T09:13:42.572Z</time>
      </trkpt>
      <trkpt lat="48.67622" lon="2.04641">
        <ele>165</ele>
        <time>2021-05-20T09:13:43.572Z</time>
      </trkpt>
      <trkpt lat="48.67624" lon="2.04642">
        <ele>165</ele>
        <time>2021-05-20T09:13:44.572Z</time>
      </trkpt>
      <trkpt lat="48.67625" lon="2.04643">
        <ele>165</ele>
        <time>2021-05-20T09:13:45.572Z</time>
      </trkpt>
      <trkpt lat="48.67626" lon="2.04643">
        <ele>165</ele>
        <time>2021-05-20T09:13:46.572Z</time>
      </trkpt>
      <trkpt lat="48.67627" lon="2.04644">
        <ele>165</ele>
        <time>2021-05-20T09:13:47.572Z</time>
      </trkpt>
      <trkpt lat="48.67628" lon="2.04645">
        <ele>164</ele>
        <time>2021-05-20T09:13:48.572Z</time>
      </trkpt>
      <trkpt lat="48.67629" lon="2.04646">
        <ele>164</ele>
        <time>2021-05-20T09:13:49.572Z</time>
      </trkpt>
      <trkpt lat="48.6763" lon="2.04647">
        <ele>164</ele>
        <time>2021-05-20T09:13:50.572Z</time>
      </trkpt>
      <trkpt lat="48.67631" lon="2.04647">
        <ele>164</ele>
        <time>2021-05-20T09:13:51.572Z</time>
      </trkpt>
      <trkpt lat="48.67631" lon="2.04648">
        <ele>164</ele>
        <time>2021-05-20T09:13:52.572Z</time>
      </trkpt>
      <trkpt lat="48.67632" lon="2.04649">
        <ele>164</ele>
        <time>2021-05-20T09:13:53.572Z</time>
      </trkpt>
      <trkpt lat="48.67633" lon="2.0465">
        <ele>164</ele>
        <time>2021-05-20T09:13:54.572Z</time>
      </trkpt>
      <trkpt lat="48.67634" lon="2.0465">
        <ele>164</ele>
        <time>2021-05-20T09:13:55.572Z</time>
      </trkpt>
      <trkpt lat="48.67634" lon="2.04651">
        <ele>164</ele>
        <time>2021-05-20T09:13:56.572Z</time>
      </trkpt>
      <trkpt lat="48.67634" lon="2.04652">
        <ele>164</ele>
        <time>2021-05-20T09:13:57.572Z</time>
      </trkpt>
      <trkpt lat="48.67634" lon="2.04652">
        <ele>164</ele>
        <time>2021-05-20T09:13:58.572Z</time>
      </trkpt>
      <trkpt lat="48.67634" lon="2.04653">
        <ele>164</ele>
        <time>2021-05-20T09:13:59.572Z</time>
      </trkpt>
      <trkpt lat="48.67634" lon="2.04653">
        <ele>164</ele>
        <time>2021-05-20T09:14:00.572Z</time>
      </trkpt>
      <trkpt lat="48.67634" lon="2.04653">
        <ele>164</ele>
        <time>2021-05-20T09:14:01.572Z</time>
      </trkpt>
      <trkpt lat="48.67635" lon="2.04651">
        <ele>164</ele>
        <time>2021-05-20T09:14:02.572Z</time>
      </trkpt>
      <trkpt lat="48.67635" lon="2.04651">
        <ele>163</ele>
        <time>2021-05-20T09:14:03.572Z</time>
      </trkpt>
      <trkpt lat="48.67636" lon="2.0465">
        <ele>163</ele>
        <time>2021-05-20T09:14:04.572Z</time>
      </trkpt>
      <trkpt lat="48.67636" lon="2.0465">
        <ele>163</ele>
        <time>2021-05-20T09:14:05.572Z</time>
      </trkpt>
      <trkpt lat="48.67636" lon="2.04649">
        <ele>163</ele>
        <time>2021-05-20T09:14:06.572Z</time>
      </trkpt>
      <trkpt lat="48.67636" lon="2.04649">
        <ele>164</ele>
        <time>2021-05-20T09:14:07.572Z</time>
      </trkpt>
      <trkpt lat="48.67636" lon="2.0465">
        <ele>163</ele>
        <time>2021-05-20T09:14:08.572Z</time>
      </trkpt>
      <trkpt lat="48.67636" lon="2.0465">
        <ele>163</ele>
        <time>2021-05-20T09:14:09.572Z</time>
      </trkpt>
      <trkpt lat="48.67636" lon="2.0465">
        <ele>163</ele>
        <time>2021-05-20T09:14:10.572Z</time>
      </trkpt>
      <trkpt lat="48.67637" lon="2.0465">
        <ele>163</ele>
        <time>2021-05-20T09:14:11.572Z</time>
      </trkpt>
      <trkpt lat="48.67637" lon="2.0465">
        <ele>163</ele>
        <time>2021-05-20T09:14:12.572Z</time>
      </trkpt>
      <trkpt lat="48.67637" lon="2.04649">
        <ele>163</ele>
        <time>2021-05-20T09:14:13.572Z</time>
      </trkpt>
      <trkpt lat="48.67637" lon="2.0465">
        <ele>163</ele>
        <time>2021-05-20T09:14:14.572Z</time>
      </trkpt>
      <trkpt lat="48.67638" lon="2.04651">
        <ele>163</ele>
        <time>2021-05-20T09:14:15.572Z</time>
      </trkpt>
      <trkpt lat="48.67638" lon="2.04653">
        <ele>163</ele>
        <time>2021-05-20T09:14:16.572Z</time>
      </trkpt>
      <trkpt lat="48.67639" lon="2.04654">
        <ele>163</ele>
        <time>2021-05-20T09:14:17.572Z</time>
      </trkpt>
      <trkpt lat="48.6764" lon="2.04656">
        <ele>163</ele>
        <time>2021-05-20T09:14:18.572Z</time>
      </trkpt>
      <trkpt lat="48.6764" lon="2.04657">
        <ele>163</ele>
        <time>2021-05-20T09:14:19.572Z</time>
      </trkpt>
      <trkpt lat="48.67641" lon="2.04659">
        <ele>163</ele>
        <time>2021-05-20T09:14:20.572Z</time>
      </trkpt>
      <trkpt lat="48.67642" lon="2.04661">
        <ele>163</ele>
        <time>2021-05-20T09:14:21.572Z</time>
      </trkpt>
      <trkpt lat="48.67642" lon="2.04663">
        <ele>163</ele>
        <time>2021-05-20T09:14:22.572Z</time>
      </trkpt>
      <trkpt lat="48.67642" lon="2.04665">
        <ele>163</ele>
        <time>2021-05-20T09:14:23.572Z</time>
      </trkpt>
      <trkpt lat="48.67643" lon="2.04667">
        <ele>163</ele>
        <time>2021-05-20T09:14:24.572Z</time>
      </trkpt>
      <trkpt lat="48.67643" lon="2.04669">
        <ele>163</ele>
        <time>2021-05-20T09:14:25.572Z</time>
      </trkpt>
      <trkpt lat="48.67644" lon="2.04671">
        <ele>163</ele>
        <time>2021-05-20T09:14:26.572Z</time>
      </trkpt>
      <trkpt lat="48.67644" lon="2.04673">
        <ele>162</ele>
        <time>2021-05-20T09:14:27.572Z</time>
      </trkpt>
      <trkpt lat="48.67645" lon="2.04674">
        <ele>162</ele>
        <time>2021-05-20T09:14:28.572Z</time>
      </trkpt>
      <trkpt lat="48.67645" lon="2.04676">
        <ele>162</ele>
        <time>2021-05-20T09:14:29.572Z</time>
      </trkpt>
      <trkpt lat="48.67645" lon="2.04678">
        <ele>162</ele>
        <time>2021-05-20T09:14:30.572Z</time>
      </trkpt>
      <trkpt lat="48.67645" lon="2.0468">
        <ele>162</ele>
        <time>2021-05-20T09:14:31.572Z</time>
      </trkpt>
      <trkpt lat="48.67645" lon="2.04682">
        <ele>162</ele>
        <time>2021-05-20T09:14:32.572Z</time>
      </trkpt>
      <trkpt lat="48.67645" lon="2.04684">
        <ele>162</ele>
        <time>2021-05-20T09:14:33.572Z</time>
      </trkpt>
      <trkpt lat="48.67644" lon="2.04687">
        <ele>162</ele>
        <time>2021-05-20T09:14:34.572Z</time>
      </trkpt>
      <trkpt lat="48.67644" lon="2.04689">
        <ele>162</ele>
        <time>2021-05-20T09:14:35.572Z</time>
      </trkpt>
      <trkpt lat="48.67644" lon="2.04692">
        <ele>162</ele>
        <time>2021-05-20T09:14:36.572Z</time>
      </trkpt>
      <trkpt lat="48.67644" lon="2.04694">
        <ele>162</ele>
        <time>2021-05-20T09:14:37.572Z</time>
      </trkpt>
      <trkpt lat="48.67644" lon="2.04696">
        <ele>162</ele>
        <time>2021-05-20T09:14:38.572Z</time>
      </trkpt>
      <trkpt lat="48.67644" lon="2.04698">
        <ele>162</ele>
        <time>2021-05-20T09:14:39.572Z</time>
      </trkpt>
      <trkpt lat="48.67644" lon="2.047">
        <ele>162</ele>
        <time>2021-05-20T09:14:40.572Z</time>
      </trkpt>
      <trkpt lat="48.67644" lon="2.04702">
        <ele>162</ele>
        <time>2021-05-20T09:14:41.572Z</time>
      </trkpt>
      <trkpt lat="48.67644" lon="2.04704">
        <ele>162</ele>
        <time>2021-05-20T09:14:42.572Z</time>
      </trkpt>
      <trkpt lat="48.67644" lon="2.04706">
        <ele>162</ele>
        <time>2021-05-20T09:14:43.572Z</time>
      </trkpt>
      <trkpt lat="48.67645" lon="2.04708">
        <ele>162</ele>
        <time>2021-05-20T09:14:44.572Z</time>
      </trkpt>
      <trkpt lat="48.67645" lon="2.0471">
        <ele>162</ele>
        <time>2021-05-20T09:14:45.572Z</time>
      </trkpt>
      <trkpt lat="48.67645" lon="2.04712">
        <ele>162</ele>
        <time>2021-05-20T09:14:46.572Z</time>
      </trkpt>
      <trkpt lat="48.67645" lon="2.04714">
        <ele>162</ele>
        <time>2021-05-20T09:14:47.572Z</time>
      </trkpt>
      <trkpt lat="48.67645" lon="2.04716">
        <ele>162</ele>
        <time>2021-05-20T09:14:48.572Z</time>
      </trkpt>
      <trkpt lat="48.67645" lon="2.04718">
        <ele>162</ele>
        <time>2021-05-20T09:14:49.572Z</time>
      </trkpt>
      <trkpt lat="48.67645" lon="2.0472">
        <ele>162</ele>
        <time>2021-05-20T09:14:50.572Z</time>
      </trkpt>
      <trkpt lat="48.67646" lon="2.04722">
        <ele>162</ele>
        <time>2021-05-20T09:14:51.572Z</time>
      </trkpt>
      <trkpt lat="48.67646" lon="2.04724">
        <ele>162</ele>
        <time>2021-05-20T09:14:52.572Z</time>
      </trkpt>
      <trkpt lat="48.67646" lon="2.04726">
        <ele>162</ele>
        <time>2021-05-20T09:14:53.572Z</time>
      </trkpt>
      <trkpt lat="48.67646" lon="2.04727">
        <ele>162</ele>
        <time>2021-05-20T09:14:54.572Z</time>
      </trkpt>
      <trkpt lat="48.67647" lon="2.04729">
        <ele>162</ele>
        <time>2021-05-20T09:14:55.572Z</time>
      </trkpt>
      <trkpt lat="48.67647" lon="2.04731">
        <ele>162</ele>
        <time>2021-05-20T09:14:56.572Z</time>
      </trkpt>
      <trkpt lat="48.67647" lon="2.04733">
        <ele>162</ele>
        <time>2021-05-20T09:14:57.572Z</time>
      </trkpt>
      <trkpt lat="48.67647" lon="2.04735">
        <ele>162</ele>
        <time>2021-05-20T09:14:58.572Z</time>
      </trkpt>
      <trkpt lat="48.67647" lon="2.04737">
        <ele>162</ele>
        <time>2021-05-20T09:14:59.572Z</time>
      </trkpt>
      <trkpt lat="48.67648" lon="2.04739">
        <ele>162</ele>
        <time>2021-05-20T09:15:00.572Z</time>
      </trkpt>
      <trkpt lat="48.67648" lon="2.04741">
        <ele>162</ele>
        <time>2021-05-20T09:15:01.572Z</time>
      </trkpt>
      <trkpt lat="48.67648" lon="2.04743">
        <ele>162</ele>
        <time>2021-05-20T09:15:02.572Z</time>
      </trkpt>
      <trkpt lat="48.67648" lon="2.04744">
        <ele>162</ele>
        <time>2021-05-20T09:15:03.572Z</time>
      </trkpt>
      <trkpt lat="48.67649" lon="2.04746">
        <ele>162</ele>
        <time>2021-05-20T09:15:04.572Z</time>
      </trkpt>
      <trkpt lat="48.67649" lon="2.04748">
        <ele>162</ele>
        <time>2021-05-20T09:15:05.572Z</time>
      </trkpt>
      <trkpt lat="48.67649" lon="2.0475">
        <ele>162</ele>
        <time>2021-05-20T09:15:06.572Z</time>
      </trkpt>
      <trkpt lat="48.6765" lon="2.04752">
        <ele>162</ele>
        <time>2021-05-20T09:15:07.572Z</time>
      </trkpt>
      <trkpt lat="48.6765" lon="2.04754">
        <ele>162</ele>
        <time>2021-05-20T09:15:08.572Z</time>
      </trkpt>
      <trkpt lat="48.67651" lon="2.04756">
        <ele>162</ele>
        <time>2021-05-20T09:15:09.572Z</time>
      </trkpt>
      <trkpt lat="48.67652" lon="2.04757">
        <ele>162</ele>
        <time>2021-05-20T09:15:10.572Z</time>
      </trkpt>
      <trkpt lat="48.67652" lon="2.04759">
        <ele>162</ele>
        <time>2021-05-20T09:15:11.572Z</time>
      </trkpt>
      <trkpt lat="48.67653" lon="2.04761">
        <ele>162</ele>
        <time>2021-05-20T09:15:12.572Z</time>
      </trkpt>
      <trkpt lat="48.67653" lon="2.04762">
        <ele>162</ele>
        <time>2021-05-20T09:15:13.572Z</time>
      </trkpt>
      <trkpt lat="48.67654" lon="2.04764">
        <ele>162</ele>
        <time>2021-05-20T09:15:14.572Z</time>
      </trkpt>
      <trkpt lat="48.67654" lon="2.04766">
        <ele>162</ele>
        <time>2021-05-20T09:15:15.572Z</time>
      </trkpt>
      <trkpt lat="48.67655" lon="2.04768">
        <ele>162</ele>
        <time>2021-05-20T09:15:16.572Z</time>
      </trkpt>
      <trkpt lat="48.67656" lon="2.04769">
        <ele>162</ele>
        <time>2021-05-20T09:15:17.572Z</time>
      </trkpt>
      <trkpt lat="48.67656" lon="2.04771">
        <ele>162</ele>
        <time>2021-05-20T09:15:18.572Z</time>
      </trkpt>
      <trkpt lat="48.67657" lon="2.04773">
        <ele>162</ele>
        <time>2021-05-20T09:15:19.572Z</time>
      </trkpt>
      <trkpt lat="48.67658" lon="2.04775">
        <ele>162</ele>
        <time>2021-05-20T09:15:20.572Z</time>
      </trkpt>
      <trkpt lat="48.67658" lon="2.04777">
        <ele>162</ele>
        <time>2021-05-20T09:15:21.572Z</time>
      </trkpt>
      <trkpt lat="48.67659" lon="2.04778">
        <ele>162</ele>
        <time>2021-05-20T09:15:22.572Z</time>
      </trkpt>
      <trkpt lat="48.6766" lon="2.04779">
        <ele>162</ele>
        <time>2021-05-20T09:15:23.572Z</time>
      </trkpt>
      <trkpt lat="48.6766" lon="2.0478">
        <ele>162</ele>
        <time>2021-05-20T09:15:24.572Z</time>
      </trkpt>
      <trkpt lat="48.67661" lon="2.04782">
        <ele>162</ele>
        <time>2021-05-20T09:15:25.572Z</time>
      </trkpt>
      <trkpt lat="48.67661" lon="2.04783">
        <ele>162</ele>
        <time>2021-05-20T09:15:26.572Z</time>
      </trkpt>
      <trkpt lat="48.67662" lon="2.04785">
        <ele>162</ele>
        <time>2021-05-20T09:15:27.572Z</time>
      </trkpt>
      <trkpt lat="48.67662" lon="2.04787">
        <ele>162</ele>
        <time>2021-05-20T09:15:28.572Z</time>
      </trkpt>
      <trkpt lat="48.67663" lon="2.04788">
        <ele>162</ele>
        <time>2021-05-20T09:15:29.572Z</time>
      </trkpt>
      <trkpt lat="48.67664" lon="2.04789">
        <ele>162</ele>
        <time>2021-05-20T09:15:30.572Z</time>
      </trkpt>
      <trkpt lat="48.67664" lon="2.04791">
        <ele>162</ele>
        <time>2021-05-20T09:15:31.572Z</time>
      </trkpt>
      <trkpt lat="48.67665" lon="2.04792">
        <ele>162</ele>
        <time>2021-05-20T09:15:32.572Z</time>
      </trkpt>
      <trkpt lat="48.67665" lon="2.04793">
        <ele>162</ele>
        <time>2021-05-20T09:15:33.572Z</time>
      </trkpt>
      <trkpt lat="48.67666" lon="2.04794">
        <ele>162</ele>
        <time>2021-05-20T09:15:34.572Z</time>
      </trkpt>
      <trkpt lat="48.67667" lon="2.04796">
        <ele>162</ele>
        <time>2021-05-20T09:15:35.572Z</time>
      </trkpt>
      <trkpt lat="48.67667" lon="2.04798">
        <ele>162</ele>
        <time>2021-05-20T09:15:36.572Z</time>
      </trkpt>
      <trkpt lat="48.67668" lon="2.04799">
        <ele>162</ele>
        <time>2021-05-20T09:15:37.572Z</time>
      </trkpt>
      <trkpt lat="48.67669" lon="2.04801">
        <ele>162</ele>
        <time>2021-05-20T09:15:38.572Z</time>
      </trkpt>
      <trkpt lat="48.67669" lon="2.04802">
        <ele>162</ele>
        <time>2021-05-20T09:15:39.572Z</time>
      </trkpt>
      <trkpt lat="48.6767" lon="2.04804">
        <ele>162</ele>
        <time>2021-05-20T09:15:40.572Z</time>
      </trkpt>
      <trkpt lat="48.67671" lon="2.04805">
        <ele>162</ele>
        <time>2021-05-20T09:15:41.572Z</time>
      </trkpt>
      <trkpt lat="48.67671" lon="2.04807">
        <ele>162</ele>
        <time>2021-05-20T09:15:42.572Z</time>
      </trkpt>
      <trkpt lat="48.67672" lon="2.04809">
        <ele>162</ele>
        <time>2021-05-20T09:15:43.572Z</time>
      </trkpt>
      <trkpt lat="48.67673" lon="2.0481">
        <ele>163</ele>
        <time>2021-05-20T09:15:44.572Z</time>
      </trkpt>
      <trkpt lat="48.67673" lon="2.04812">
        <ele>163</ele>
        <time>2021-05-20T09:15:45.572Z</time>
      </trkpt>
      <trkpt lat="48.67673" lon="2.04812">
        <ele>163</ele>
        <time>2021-05-20T09:15:46.572Z</time>
      </trkpt>
      <trkpt lat="48.67673" lon="2.04812">
        <ele>163</ele>
        <time>2021-05-20T09:15:47.572Z</time>
      </trkpt>
      <trkpt lat="48.67673" lon="2.04812">
        <ele>163</ele>
        <time>2021-05-20T09:15:48.572Z</time>
      </trkpt>
      <trkpt lat="48.67673" lon="2.04812">
        <ele>163</ele>
        <time>2021-05-20T09:15:49.572Z</time>
      </trkpt>
      <trkpt lat="48.67673" lon="2.04813">
        <ele>163</ele>
        <time>2021-05-20T09:15:50.572Z</time>
      </trkpt>
      <trkpt lat="48.67674" lon="2.04815">
        <ele>163</ele>
        <time>2021-05-20T09:15:51.572Z</time>
      </trkpt>
      <trkpt lat="48.67674" lon="2.04816">
        <ele>163</ele>
        <time>2021-05-20T09:15:52.572Z</time>
      </trkpt>
      <trkpt lat="48.67674" lon="2.04818">
        <ele>163</ele>
        <time>2021-05-20T09:15:53.572Z</time>
      </trkpt>
      <trkpt lat="48.67675" lon="2.04819">
        <ele>162</ele>
        <time>2021-05-20T09:15:54.572Z</time>
      </trkpt>
      <trkpt lat="48.67675" lon="2.04821">
        <ele>162</ele>
        <time>2021-05-20T09:15:55.572Z</time>
      </trkpt>
      <trkpt lat="48.67675" lon="2.04823">
        <ele>162</ele>
        <time>2021-05-20T09:15:56.572Z</time>
      </trkpt>
      <trkpt lat="48.67676" lon="2.04824">
        <ele>162</ele>
        <time>2021-05-20T09:15:57.572Z</time>
      </trkpt>
      <trkpt lat="48.67676" lon="2.04826">
        <ele>162</ele>
        <time>2021-05-20T09:15:58.572Z</time>
      </trkpt>
      <trkpt lat="48.67677" lon="2.04828">
        <ele>162</ele>
        <time>2021-05-20T09:15:59.572Z</time>
      </trkpt>
      <trkpt lat="48.67677" lon="2.04829">
        <ele>162</ele>
        <time>2021-05-20T09:16:00.572Z</time>
      </trkpt>
      <trkpt lat="48.67677" lon="2.04831">
        <ele>162</ele>
        <time>2021-05-20T09:16:01.572Z</time>
      </trkpt>
      <trkpt lat="48.67677" lon="2.04832">
        <ele>162</ele>
        <time>2021-05-20T09:16:02.572Z</time>
      </trkpt>
      <trkpt lat="48.67677" lon="2.04834">
        <ele>162</ele>
        <time>2021-05-20T09:16:03.572Z</time>
      </trkpt>
      <trkpt lat="48.67677" lon="2.04835">
        <ele>162</ele>
        <time>2021-05-20T09:16:04.572Z</time>
      </trkpt>
      <trkpt lat="48.67677" lon="2.04835">
        <ele>161</ele>
        <time>2021-05-20T09:16:05.572Z</time>
      </trkpt>
      <trkpt lat="48.67677" lon="2.04835">
        <ele>161</ele>
        <time>2021-05-20T09:16:06.572Z</time>
      </trkpt>
      <trkpt lat="48.67677" lon="2.04836">
        <ele>161</ele>
        <time>2021-05-20T09:16:07.572Z</time>
      </trkpt>
      <trkpt lat="48.67677" lon="2.04837">
        <ele>161</ele>
        <time>2021-05-20T09:16:08.572Z</time>
      </trkpt>
      <trkpt lat="48.67677" lon="2.04838">
        <ele>161</ele>
        <time>2021-05-20T09:16:09.572Z</time>
      </trkpt>
      <trkpt lat="48.67677" lon="2.04839">
        <ele>161</ele>
        <time>2021-05-20T09:16:10.572Z</time>
      </trkpt>
      <trkpt lat="48.67677" lon="2.0484">
        <ele>161</ele>
        <time>2021-05-20T09:16:11.572Z</time>
      </trkpt>
      <trkpt lat="48.67677" lon="2.04841">
        <ele>161</ele>
        <time>2021-05-20T09:16:12.572Z</time>
      </trkpt>
      <trkpt lat="48.67677" lon="2.04842">
        <ele>160</ele>
        <time>2021-05-20T09:16:13.572Z</time>
      </trkpt>
      <trkpt lat="48.67677" lon="2.04842">
        <ele>160</ele>
        <time>2021-05-20T09:16:14.572Z</time>
      </trkpt>
      <trkpt lat="48.67677" lon="2.04844">
        <ele>160</ele>
        <time>2021-05-20T09:16:15.572Z</time>
      </trkpt>
      <trkpt lat="48.67677" lon="2.04845">
        <ele>160</ele>
        <time>2021-05-20T09:16:16.572Z</time>
      </trkpt>
      <trkpt lat="48.67677" lon="2.04846">
        <ele>160</ele>
        <time>2021-05-20T09:16:17.572Z</time>
      </trkpt>
      <trkpt lat="48.67677" lon="2.04847">
        <ele>160</ele>
        <time>2021-05-20T09:16:18.572Z</time>
      </trkpt>
      <trkpt lat="48.67678" lon="2.04849">
        <ele>160</ele>
        <time>2021-05-20T09:16:19.572Z</time>
      </trkpt>
      <trkpt lat="48.67678" lon="2.0485">
        <ele>160</ele>
        <time>2021-05-20T09:16:20.572Z</time>
      </trkpt>
      <trkpt lat="48.67678" lon="2.04852">
        <ele>160</ele>
        <time>2021-05-20T09:16:21.572Z</time>
      </trkpt>
      <trkpt lat="48.67678" lon="2.04853">
        <ele>160</ele>
        <time>2021-05-20T09:16:22.572Z</time>
      </trkpt>
      <trkpt lat="48.67678" lon="2.04854">
        <ele>160</ele>
        <time>2021-05-20T09:16:23.572Z</time>
      </trkpt>
      <trkpt lat="48.67678" lon="2.04855">
        <ele>160</ele>
        <time>2021-05-20T09:16:24.572Z</time>
      </trkpt>
      <trkpt lat="48.67678" lon="2.04856">
        <ele>160</ele>
        <time>2021-05-20T09:16:25.572Z</time>
      </trkpt>
      <trkpt lat="48.67678" lon="2.04858">
        <ele>159</ele>
        <time>2021-05-20T09:16:26.572Z</time>
      </trkpt>
      <trkpt lat="48.67678" lon="2.04859">
        <ele>159</ele>
        <time>2021-05-20T09:16:27.572Z</time>
      </trkpt>
      <trkpt lat="48.67679" lon="2.0486">
        <ele>159</ele>
        <time>2021-05-20T09:16:28.572Z</time>
      </trkpt>
      <trkpt lat="48.67679" lon="2.04861">
        <ele>159</ele>
        <time>2021-05-20T09:16:29.572Z</time>
      </trkpt>
      <trkpt lat="48.67679" lon="2.04862">
        <ele>159</ele>
        <time>2021-05-20T09:16:30.572Z</time>
      </trkpt>
      <trkpt lat="48.6768" lon="2.04864">
        <ele>158</ele>
        <time>2021-05-20T09:16:31.572Z</time>
      </trkpt>
      <trkpt lat="48.6768" lon="2.04865">
        <ele>158</ele>
        <time>2021-05-20T09:16:32.572Z</time>
      </trkpt>
      <trkpt lat="48.67681" lon="2.04867">
        <ele>158</ele>
        <time>2021-05-20T09:16:33.572Z</time>
      </trkpt>
      <trkpt lat="48.67681" lon="2.04868">
        <ele>158</ele>
        <time>2021-05-20T09:16:34.572Z</time>
      </trkpt>
      <trkpt lat="48.67681" lon="2.0487">
        <ele>158</ele>
        <time>2021-05-20T09:16:35.572Z</time>
      </trkpt>
      <trkpt lat="48.67682" lon="2.04871">
        <ele>158</ele>
        <time>2021-05-20T09:16:36.572Z</time>
      </trkpt>
      <trkpt lat="48.67682" lon="2.04872">
        <ele>158</ele>
        <time>2021-05-20T09:16:37.572Z</time>
      </trkpt>
      <trkpt lat="48.67682" lon="2.04873">
        <ele>158</ele>
        <time>2021-05-20T09:16:38.572Z</time>
      </trkpt>
      <trkpt lat="48.67683" lon="2.04875">
        <ele>158</ele>
        <time>2021-05-20T09:16:39.572Z</time>
      </trkpt>
      <trkpt lat="48.67683" lon="2.04876">
        <ele>158</ele>
        <time>2021-05-20T09:16:40.572Z</time>
      </trkpt>
      <trkpt lat="48.67684" lon="2.04878">
        <ele>158</ele>
        <time>2021-05-20T09:16:41.572Z</time>
      </trkpt>
      <trkpt lat="48.67684" lon="2.04879">
        <ele>158</ele>
        <time>2021-05-20T09:16:42.572Z</time>
      </trkpt>
      <trkpt lat="48.67684" lon="2.04881">
        <ele>158</ele>
        <time>2021-05-20T09:16:43.572Z</time>
      </trkpt>
      <trkpt lat="48.67685" lon="2.04882">
        <ele>158</ele>
        <time>2021-05-20T09:16:44.572Z</time>
      </trkpt>
      <trkpt lat="48.67685" lon="2.04883">
        <ele>158</ele>
        <time>2021-05-20T09:16:45.572Z</time>
      </trkpt>
      <trkpt lat="48.67686" lon="2.04885">
        <ele>158</ele>
        <time>2021-05-20T09:16:46.572Z</time>
      </trkpt>
      <trkpt lat="48.67686" lon="2.04886">
        <ele>158</ele>
        <time>2021-05-20T09:16:47.572Z</time>
      </trkpt>
      <trkpt lat="48.67687" lon="2.04887">
        <ele>158</ele>
        <time>2021-05-20T09:16:48.572Z</time>
      </trkpt>
      <trkpt lat="48.67688" lon="2.04888">
        <ele>158</ele>
        <time>2021-05-20T09:16:49.572Z</time>
      </trkpt>
      <trkpt lat="48.67689" lon="2.0489">
        <ele>158</ele>
        <time>2021-05-20T09:16:50.572Z</time>
      </trkpt>
      <trkpt lat="48.67689" lon="2.04891">
        <ele>158</ele>
        <time>2021-05-20T09:16:51.572Z</time>
      </trkpt>
      <trkpt lat="48.6769" lon="2.04893">
        <ele>158</ele>
        <time>2021-05-20T09:16:52.572Z</time>
      </trkpt>
      <trkpt lat="48.6769" lon="2.04895">
        <ele>158</ele>
        <time>2021-05-20T09:16:53.572Z</time>
      </trkpt>
      <trkpt lat="48.67691" lon="2.04897">
        <ele>158</ele>
        <time>2021-05-20T09:16:54.572Z</time>
      </trkpt>
      <trkpt lat="48.67692" lon="2.04898">
        <ele>158</ele>
        <time>2021-05-20T09:16:55.572Z</time>
      </trkpt>
      <trkpt lat="48.67692" lon="2.049">
        <ele>158</ele>
        <time>2021-05-20T09:16:56.572Z</time>
      </trkpt>
      <trkpt lat="48.67693" lon="2.04901">
        <ele>158</ele>
        <time>2021-05-20T09:16:57.572Z</time>
      </trkpt>
      <trkpt lat="48.67693" lon="2.04903">
        <ele>158</ele>
        <time>2021-05-20T09:16:58.572Z</time>
      </trkpt>
      <trkpt lat="48.67694" lon="2.04904">
        <ele>158</ele>
        <time>2021-05-20T09:16:59.572Z</time>
      </trkpt>
      <trkpt lat="48.67695" lon="2.04906">
        <ele>157</ele>
        <time>2021-05-20T09:17:00.572Z</time>
      </trkpt>
      <trkpt lat="48.67695" lon="2.04907">
        <ele>157</ele>
        <time>2021-05-20T09:17:01.572Z</time>
      </trkpt>
      <trkpt lat="48.67696" lon="2.04909">
        <ele>157</ele>
        <time>2021-05-20T09:17:02.572Z</time>
      </trkpt>
      <trkpt lat="48.67697" lon="2.0491">
        <ele>157</ele>
        <time>2021-05-20T09:17:03.572Z</time>
      </trkpt>
      <trkpt lat="48.67697" lon="2.04912">
        <ele>157</ele>
        <time>2021-05-20T09:17:04.572Z</time>
      </trkpt>
      <trkpt lat="48.67698" lon="2.04913">
        <ele>157</ele>
        <time>2021-05-20T09:17:05.572Z</time>
      </trkpt>
      <trkpt lat="48.67698" lon="2.04915">
        <ele>157</ele>
        <time>2021-05-20T09:17:06.572Z</time>
      </trkpt>
      <trkpt lat="48.67698" lon="2.04917">
        <ele>156</ele>
        <time>2021-05-20T09:17:07.572Z</time>
      </trkpt>
      <trkpt lat="48.67698" lon="2.04918">
        <ele>156</ele>
        <time>2021-05-20T09:17:08.572Z</time>
      </trkpt>
      <trkpt lat="48.67698" lon="2.0492">
        <ele>156</ele>
        <time>2021-05-20T09:17:09.572Z</time>
      </trkpt>
      <trkpt lat="48.67699" lon="2.04921">
        <ele>156</ele>
        <time>2021-05-20T09:17:10.572Z</time>
      </trkpt>
      <trkpt lat="48.67699" lon="2.04923">
        <ele>156</ele>
        <time>2021-05-20T09:17:11.572Z</time>
      </trkpt>
      <trkpt lat="48.67699" lon="2.04924">
        <ele>156</ele>
        <time>2021-05-20T09:17:12.572Z</time>
      </trkpt>
      <trkpt lat="48.67699" lon="2.04925">
        <ele>156</ele>
        <time>2021-05-20T09:17:13.572Z</time>
      </trkpt>
      <trkpt lat="48.67699" lon="2.04927">
        <ele>156</ele>
        <time>2021-05-20T09:17:14.572Z</time>
      </trkpt>
      <trkpt lat="48.67699" lon="2.04928">
        <ele>156</ele>
        <time>2021-05-20T09:17:15.572Z</time>
      </trkpt>
      <trkpt lat="48.677" lon="2.0493">
        <ele>156</ele>
        <time>2021-05-20T09:17:16.572Z</time>
      </trkpt>
      <trkpt lat="48.677" lon="2.04932">
        <ele>156</ele>
        <time>2021-05-20T09:17:17.572Z</time>
      </trkpt>
      <trkpt lat="48.677" lon="2.04933">
        <ele>156</ele>
        <time>2021-05-20T09:17:18.572Z</time>
      </trkpt>
      <trkpt lat="48.677" lon="2.04935">
        <ele>156</ele>
        <time>2021-05-20T09:17:19.572Z</time>
      </trkpt>
      <trkpt lat="48.677" lon="2.04936">
        <ele>156</ele>
        <time>2021-05-20T09:17:20.572Z</time>
      </trkpt>
      <trkpt lat="48.677" lon="2.04938">
        <ele>156</ele>
        <time>2021-05-20T09:17:21.572Z</time>
      </trkpt>
      <trkpt lat="48.677" lon="2.0494">
        <ele>156</ele>
        <time>2021-05-20T09:17:22.572Z</time>
      </trkpt>
      <trkpt lat="48.67699" lon="2.04941">
        <ele>156</ele>
        <time>2021-05-20T09:17:23.572Z</time>
      </trkpt>
      <trkpt lat="48.67699" lon="2.04943">
        <ele>156</ele>
        <time>2021-05-20T09:17:24.572Z</time>
      </trkpt>
      <trkpt lat="48.67699" lon="2.04945">
        <ele>156</ele>
        <time>2021-05-20T09:17:25.572Z</time>
      </trkpt>
      <trkpt lat="48.67699" lon="2.04947">
        <ele>156</ele>
        <time>2021-05-20T09:17:26.572Z</time>
      </trkpt>
      <trkpt lat="48.67699" lon="2.04949">
        <ele>156</ele>
        <time>2021-05-20T09:17:27.572Z</time>
      </trkpt>
      <trkpt lat="48.67698" lon="2.04951">
        <ele>156</ele>
        <time>2021-05-20T09:17:28.572Z</time>
      </trkpt>
      <trkpt lat="48.67699" lon="2.04953">
        <ele>156</ele>
        <time>2021-05-20T09:17:29.572Z</time>
      </trkpt>
      <trkpt lat="48.67699" lon="2.04955">
        <ele>156</ele>
        <time>2021-05-20T09:17:30.572Z</time>
      </trkpt>
      <trkpt lat="48.67699" lon="2.04956">
        <ele>156</ele>
        <time>2021-05-20T09:17:31.572Z</time>
      </trkpt>
      <trkpt lat="48.67699" lon="2.04958">
        <ele>156</ele>
        <time>2021-05-20T09:17:32.572Z</time>
      </trkpt>
      <trkpt lat="48.67699" lon="2.04959">
        <ele>156</ele>
        <time>2021-05-20T09:17:33.572Z</time>
      </trkpt>
      <trkpt lat="48.67699" lon="2.04961">
        <ele>156</ele>
        <time>2021-05-20T09:17:34.572Z</time>
      </trkpt>
      <trkpt lat="48.67699" lon="2.04963">
        <ele>156</ele>
        <time>2021-05-20T09:17:35.572Z</time>
      </trkpt>
      <trkpt lat="48.67699" lon="2.04964">
        <ele>156</ele>
        <time>2021-05-20T09:17:36.572Z</time>
      </trkpt>
      <trkpt lat="48.67699" lon="2.04967">
        <ele>155</ele>
        <time>2021-05-20T09:17:37.572Z</time>
      </trkpt>
      <trkpt lat="48.67698" lon="2.04969">
        <ele>155</ele>
        <time>2021-05-20T09:17:38.572Z</time>
      </trkpt>
      <trkpt lat="48.67698" lon="2.0497">
        <ele>155</ele>
        <time>2021-05-20T09:17:39.572Z</time>
      </trkpt>
      <trkpt lat="48.67698" lon="2.04972">
        <ele>155</ele>
        <time>2021-05-20T09:17:40.572Z</time>
      </trkpt>
      <trkpt lat="48.67697" lon="2.04974">
        <ele>155</ele>
        <time>2021-05-20T09:17:41.572Z</time>
      </trkpt>
      <trkpt lat="48.67697" lon="2.04976">
        <ele>155</ele>
        <time>2021-05-20T09:17:42.572Z</time>
      </trkpt>
      <trkpt lat="48.67697" lon="2.04978">
        <ele>154</ele>
        <time>2021-05-20T09:17:43.572Z</time>
      </trkpt>
      <trkpt lat="48.67697" lon="2.0498">
        <ele>154</ele>
        <time>2021-05-20T09:17:44.572Z</time>
      </trkpt>
      <trkpt lat="48.67697" lon="2.04981">
        <ele>154</ele>
        <time>2021-05-20T09:17:45.572Z</time>
      </trkpt>
      <trkpt lat="48.67696" lon="2.04983">
        <ele>154</ele>
        <time>2021-05-20T09:17:46.572Z</time>
      </trkpt>
      <trkpt lat="48.67697" lon="2.04984">
        <ele>154</ele>
        <time>2021-05-20T09:17:47.572Z</time>
      </trkpt>
      <trkpt lat="48.67696" lon="2.04986">
        <ele>154</ele>
        <time>2021-05-20T09:17:48.572Z</time>
      </trkpt>
      <trkpt lat="48.67696" lon="2.04987">
        <ele>154</ele>
        <time>2021-05-20T09:17:49.572Z</time>
      </trkpt>
      <trkpt lat="48.67696" lon="2.04989">
        <ele>154</ele>
        <time>2021-05-20T09:17:50.572Z</time>
      </trkpt>
      <trkpt lat="48.67696" lon="2.0499">
        <ele>154</ele>
        <time>2021-05-20T09:17:51.572Z</time>
      </trkpt>
      <trkpt lat="48.67696" lon="2.04991">
        <ele>154</ele>
        <time>2021-05-20T09:17:52.572Z</time>
      </trkpt>
      <trkpt lat="48.67696" lon="2.04993">
        <ele>154</ele>
        <time>2021-05-20T09:17:53.572Z</time>
      </trkpt>
      <trkpt lat="48.67695" lon="2.04995">
        <ele>154</ele>
        <time>2021-05-20T09:17:54.572Z</time>
      </trkpt>
      <trkpt lat="48.67695" lon="2.04997">
        <ele>154</ele>
        <time>2021-05-20T09:17:55.572Z</time>
      </trkpt>
      <trkpt lat="48.67694" lon="2.04999">
        <ele>154</ele>
        <time>2021-05-20T09:17:56.572Z</time>
      </trkpt>
      <trkpt lat="48.67694" lon="2.05001">
        <ele>154</ele>
        <time>2021-05-20T09:17:57.572Z</time>
      </trkpt>
      <trkpt lat="48.67694" lon="2.05003">
        <ele>154</ele>
        <time>2021-05-20T09:17:58.572Z</time>
      </trkpt>
      <trkpt lat="48.67694" lon="2.05005">
        <ele>153</ele>
        <time>2021-05-20T09:17:59.572Z</time>
      </trkpt>
      <trkpt lat="48.67693" lon="2.05007">
        <ele>153</ele>
        <time>2021-05-20T09:18:00.572Z</time>
      </trkpt>
      <trkpt lat="48.67693" lon="2.05009">
        <ele>153</ele>
        <time>2021-05-20T09:18:01.572Z</time>
      </trkpt>
      <trkpt lat="48.67693" lon="2.05011">
        <ele>153</ele>
        <time>2021-05-20T09:18:02.572Z</time>
      </trkpt>
      <trkpt lat="48.67693" lon="2.05013">
        <ele>153</ele>
        <time>2021-05-20T09:18:03.572Z</time>
      </trkpt>
      <trkpt lat="48.67692" lon="2.05015">
        <ele>153</ele>
        <time>2021-05-20T09:18:04.572Z</time>
      </trkpt>
      <trkpt lat="48.67692" lon="2.05018">
        <ele>152</ele>
        <time>2021-05-20T09:18:05.572Z</time>
      </trkpt>
      <trkpt lat="48.67692" lon="2.0502">
        <ele>152</ele>
        <time>2021-05-20T09:18:06.572Z</time>
      </trkpt>
      <trkpt lat="48.67692" lon="2.05022">
        <ele>152</ele>
        <time>2021-05-20T09:18:07.572Z</time>
      </trkpt>
      <trkpt lat="48.67691" lon="2.05024">
        <ele>152</ele>
        <time>2021-05-20T09:18:08.572Z</time>
      </trkpt>
      <trkpt lat="48.67691" lon="2.05025">
        <ele>152</ele>
        <time>2021-05-20T09:18:09.572Z</time>
      </trkpt>
      <trkpt lat="48.67691" lon="2.05027">
        <ele>152</ele>
        <time>2021-05-20T09:18:10.572Z</time>
      </trkpt>
      <trkpt lat="48.67691" lon="2.05029">
        <ele>152</ele>
        <time>2021-05-20T09:18:11.572Z</time>
      </trkpt>
      <trkpt lat="48.6769" lon="2.05031">
        <ele>152</ele>
        <time>2021-05-20T09:18:12.572Z</time>
      </trkpt>
      <trkpt lat="48.6769" lon="2.05033">
        <ele>152</ele>
        <time>2021-05-20T09:18:13.572Z</time>
      </trkpt>
      <trkpt lat="48.6769" lon="2.05035">
        <ele>151</ele>
        <time>2021-05-20T09:18:14.572Z</time>
      </trkpt>
      <trkpt lat="48.6769" lon="2.05036">
        <ele>151</ele>
        <time>2021-05-20T09:18:15.572Z</time>
      </trkpt>
      <trkpt lat="48.6769" lon="2.05038">
        <ele>151</ele>
        <time>2021-05-20T09:18:16.572Z</time>
      </trkpt>
      <trkpt lat="48.6769" lon="2.0504">
        <ele>151</ele>
        <time>2021-05-20T09:18:17.572Z</time>
      </trkpt>
      <trkpt lat="48.67689" lon="2.05042">
        <ele>151</ele>
        <time>2021-05-20T09:18:18.572Z</time>
      </trkpt>
      <trkpt lat="48.67689" lon="2.05043">
        <ele>151</ele>
        <time>2021-05-20T09:18:19.572Z</time>
      </trkpt>
      <trkpt lat="48.67689" lon="2.05045">
        <ele>151</ele>
        <time>2021-05-20T09:18:20.572Z</time>
      </trkpt>
      <trkpt lat="48.67689" lon="2.05047">
        <ele>151</ele>
        <time>2021-05-20T09:18:21.572Z</time>
      </trkpt>
      <trkpt lat="48.67689" lon="2.05049">
        <ele>151</ele>
        <time>2021-05-20T09:18:22.572Z</time>
      </trkpt>
      <trkpt lat="48.67689" lon="2.05051">
        <ele>151</ele>
        <time>2021-05-20T09:18:23.572Z</time>
      </trkpt>
      <trkpt lat="48.67689" lon="2.05053">
        <ele>151</ele>
        <time>2021-05-20T09:18:24.572Z</time>
      </trkpt>
      <trkpt lat="48.67689" lon="2.05055">
        <ele>151</ele>
        <time>2021-05-20T09:18:25.572Z</time>
      </trkpt>
      <trkpt lat="48.6769" lon="2.05057">
        <ele>151</ele>
        <time>2021-05-20T09:18:26.572Z</time>
      </trkpt>
      <trkpt lat="48.6769" lon="2.05059">
        <ele>151</ele>
        <time>2021-05-20T09:18:27.572Z</time>
      </trkpt>
      <trkpt lat="48.6769" lon="2.05061">
        <ele>151</ele>
        <time>2021-05-20T09:18:28.572Z</time>
      </trkpt>
      <trkpt lat="48.6769" lon="2.05063">
        <ele>150</ele>
        <time>2021-05-20T09:18:29.572Z</time>
      </trkpt>
      <trkpt lat="48.6769" lon="2.05065">
        <ele>150</ele>
        <time>2021-05-20T09:18:30.572Z</time>
      </trkpt>
      <trkpt lat="48.6769" lon="2.05066">
        <ele>150</ele>
        <time>2021-05-20T09:18:31.572Z</time>
      </trkpt>
      <trkpt lat="48.6769" lon="2.05068">
        <ele>150</ele>
        <time>2021-05-20T09:18:32.572Z</time>
      </trkpt>
      <trkpt lat="48.6769" lon="2.0507">
        <ele>150</ele>
        <time>2021-05-20T09:18:33.572Z</time>
      </trkpt>
      <trkpt lat="48.6769" lon="2.05071">
        <ele>150</ele>
        <time>2021-05-20T09:18:34.572Z</time>
      </trkpt>
      <trkpt lat="48.6769" lon="2.05073">
        <ele>150</ele>
        <time>2021-05-20T09:18:35.572Z</time>
      </trkpt>
      <trkpt lat="48.6769" lon="2.05075">
        <ele>150</ele>
        <time>2021-05-20T09:18:36.572Z</time>
      </trkpt>
      <trkpt lat="48.67689" lon="2.05077">
        <ele>150</ele>
        <time>2021-05-20T09:18:37.572Z</time>
      </trkpt>
      <trkpt lat="48.67689" lon="2.05079">
        <ele>150</ele>
        <time>2021-05-20T09:18:38.572Z</time>
      </trkpt>
      <trkpt lat="48.67688" lon="2.05081">
        <ele>150</ele>
        <time>2021-05-20T09:18:39.572Z</time>
      </trkpt>
      <trkpt lat="48.67688" lon="2.05083">
        <ele>150</ele>
        <time>2021-05-20T09:18:40.572Z</time>
      </trkpt>
      <trkpt lat="48.67688" lon="2.05085">
        <ele>150</ele>
        <time>2021-05-20T09:18:41.572Z</time>
      </trkpt>
      <trkpt lat="48.67687" lon="2.05086">
        <ele>150</ele>
        <time>2021-05-20T09:18:42.572Z</time>
      </trkpt>
      <trkpt lat="48.67687" lon="2.05088">
        <ele>150</ele>
        <time>2021-05-20T09:18:43.572Z</time>
      </trkpt>
      <trkpt lat="48.67687" lon="2.0509">
        <ele>150</ele>
        <time>2021-05-20T09:18:44.572Z</time>
      </trkpt>
      <trkpt lat="48.67687" lon="2.05092">
        <ele>150</ele>
        <time>2021-05-20T09:18:45.572Z</time>
      </trkpt>
      <trkpt lat="48.67687" lon="2.05094">
        <ele>150</ele>
        <time>2021-05-20T09:18:46.572Z</time>
      </trkpt>
      <trkpt lat="48.67688" lon="2.05096">
        <ele>149</ele>
        <time>2021-05-20T09:18:47.572Z</time>
      </trkpt>
      <trkpt lat="48.67687" lon="2.05098">
        <ele>149</ele>
        <time>2021-05-20T09:18:48.572Z</time>
      </trkpt>
      <trkpt lat="48.67687" lon="2.05101">
        <ele>149</ele>
        <time>2021-05-20T09:18:49.572Z</time>
      </trkpt>
      <trkpt lat="48.67687" lon="2.05103">
        <ele>149</ele>
        <time>2021-05-20T09:18:50.572Z</time>
      </trkpt>
      <trkpt lat="48.67687" lon="2.05105">
        <ele>149</ele>
        <time>2021-05-20T09:18:51.572Z</time>
      </trkpt>
      <trkpt lat="48.67687" lon="2.05106">
        <ele>149</ele>
        <time>2021-05-20T09:18:52.572Z</time>
      </trkpt>
      <trkpt lat="48.67687" lon="2.05108">
        <ele>149</ele>
        <time>2021-05-20T09:18:53.572Z</time>
      </trkpt>
      <trkpt lat="48.67687" lon="2.0511">
        <ele>149</ele>
        <time>2021-05-20T09:18:54.572Z</time>
      </trkpt>
      <trkpt lat="48.67687" lon="2.05112">
        <ele>149</ele>
        <time>2021-05-20T09:18:55.572Z</time>
      </trkpt>
      <trkpt lat="48.67687" lon="2.05114">
        <ele>149</ele>
        <time>2021-05-20T09:18:56.572Z</time>
      </trkpt>
      <trkpt lat="48.67687" lon="2.05116">
        <ele>149</ele>
        <time>2021-05-20T09:18:57.572Z</time>
      </trkpt>
      <trkpt lat="48.67687" lon="2.05117">
        <ele>148</ele>
        <time>2021-05-20T09:18:58.572Z</time>
      </trkpt>
      <trkpt lat="48.67687" lon="2.05119">
        <ele>148</ele>
        <time>2021-05-20T09:18:59.572Z</time>
      </trkpt>
      <trkpt lat="48.67687" lon="2.05121">
        <ele>148</ele>
        <time>2021-05-20T09:19:00.572Z</time>
      </trkpt>
      <trkpt lat="48.67687" lon="2.05122">
        <ele>148</ele>
        <time>2021-05-20T09:19:01.572Z</time>
      </trkpt>
      <trkpt lat="48.67688" lon="2.05124">
        <ele>148</ele>
        <time>2021-05-20T09:19:02.572Z</time>
      </trkpt>
      <trkpt lat="48.67688" lon="2.05125">
        <ele>148</ele>
        <time>2021-05-20T09:19:03.572Z</time>
      </trkpt>
      <trkpt lat="48.67688" lon="2.05126">
        <ele>148</ele>
        <time>2021-05-20T09:19:04.572Z</time>
      </trkpt>
      <trkpt lat="48.67688" lon="2.05127">
        <ele>148</ele>
        <time>2021-05-20T09:19:05.572Z</time>
      </trkpt>
      <trkpt lat="48.67688" lon="2.05129">
        <ele>148</ele>
        <time>2021-05-20T09:19:06.572Z</time>
      </trkpt>
      <trkpt lat="48.67689" lon="2.0513">
        <ele>148</ele>
        <time>2021-05-20T09:19:07.572Z</time>
      </trkpt>
      <trkpt lat="48.67689" lon="2.05131">
        <ele>149</ele>
        <time>2021-05-20T09:19:08.572Z</time>
      </trkpt>
      <trkpt lat="48.67689" lon="2.05132">
        <ele>149</ele>
        <time>2021-05-20T09:19:09.572Z</time>
      </trkpt>
      <trkpt lat="48.67689" lon="2.05133">
        <ele>149</ele>
        <time>2021-05-20T09:19:10.572Z</time>
      </trkpt>
      <trkpt lat="48.67689" lon="2.05134">
        <ele>149</ele>
        <time>2021-05-20T09:19:11.572Z</time>
      </trkpt>
      <trkpt lat="48.6769" lon="2.05135">
        <ele>149</ele>
        <time>2021-05-20T09:19:12.572Z</time>
      </trkpt>
      <trkpt lat="48.67693" lon="2.05138">
        <ele>149</ele>
        <time>2021-05-20T09:19:13.572Z</time>
      </trkpt>
      <trkpt lat="48.67693" lon="2.05139">
        <ele>149</ele>
        <time>2021-05-20T09:19:14.572Z</time>
      </trkpt>
      <trkpt lat="48.67694" lon="2.0514">
        <ele>149</ele>
        <time>2021-05-20T09:19:15.572Z</time>
      </trkpt>
      <trkpt lat="48.67695" lon="2.05141">
        <ele>149</ele>
        <time>2021-05-20T09:19:16.572Z</time>
      </trkpt>
      <trkpt lat="48.67695" lon="2.05142">
        <ele>149</ele>
        <time>2021-05-20T09:19:17.572Z</time>
      </trkpt>
      <trkpt lat="48.67696" lon="2.05143">
        <ele>149</ele>
        <time>2021-05-20T09:19:18.572Z</time>
      </trkpt>
      <trkpt lat="48.67696" lon="2.05144">
        <ele>149</ele>
        <time>2021-05-20T09:19:19.572Z</time>
      </trkpt>
      <trkpt lat="48.67697" lon="2.05144">
        <ele>149</ele>
        <time>2021-05-20T09:19:20.572Z</time>
      </trkpt>
      <trkpt lat="48.67698" lon="2.05145">
        <ele>150</ele>
        <time>2021-05-20T09:19:21.572Z</time>
      </trkpt>
      <trkpt lat="48.67698" lon="2.05146">
        <ele>150</ele>
        <time>2021-05-20T09:19:22.572Z</time>
      </trkpt>
      <trkpt lat="48.67698" lon="2.05148">
        <ele>150</ele>
        <time>2021-05-20T09:19:23.572Z</time>
      </trkpt>
      <trkpt lat="48.67699" lon="2.05149">
        <ele>150</ele>
        <time>2021-05-20T09:19:24.572Z</time>
      </trkpt>
      <trkpt lat="48.67699" lon="2.05151">
        <ele>150</ele>
        <time>2021-05-20T09:19:25.572Z</time>
      </trkpt>
      <trkpt lat="48.67699" lon="2.05152">
        <ele>150</ele>
        <time>2021-05-20T09:19:26.572Z</time>
      </trkpt>
      <trkpt lat="48.67699" lon="2.05154">
        <ele>150</ele>
        <time>2021-05-20T09:19:27.572Z</time>
      </trkpt>
      <trkpt lat="48.67699" lon="2.05155">
        <ele>150</ele>
        <time>2021-05-20T09:19:28.572Z</time>
      </trkpt>
      <trkpt lat="48.677" lon="2.05157">
        <ele>150</ele>
        <time>2021-05-20T09:19:29.572Z</time>
      </trkpt>
      <trkpt lat="48.677" lon="2.05158">
        <ele>149</ele>
        <time>2021-05-20T09:19:30.572Z</time>
      </trkpt>
      <trkpt lat="48.677" lon="2.0516">
        <ele>149</ele>
        <time>2021-05-20T09:19:31.572Z</time>
      </trkpt>
      <trkpt lat="48.67701" lon="2.05161">
        <ele>149</ele>
        <time>2021-05-20T09:19:32.572Z</time>
      </trkpt>
      <trkpt lat="48.67701" lon="2.05163">
        <ele>149</ele>
        <time>2021-05-20T09:19:33.572Z</time>
      </trkpt>
      <trkpt lat="48.67701" lon="2.05164">
        <ele>148</ele>
        <time>2021-05-20T09:19:34.572Z</time>
      </trkpt>
      <trkpt lat="48.67701" lon="2.05166">
        <ele>148</ele>
        <time>2021-05-20T09:19:35.572Z</time>
      </trkpt>
      <trkpt lat="48.67702" lon="2.05167">
        <ele>148</ele>
        <time>2021-05-20T09:19:36.572Z</time>
      </trkpt>
      <trkpt lat="48.67702" lon="2.05168">
        <ele>148</ele>
        <time>2021-05-20T09:19:37.572Z</time>
      </trkpt>
      <trkpt lat="48.67703" lon="2.0517">
        <ele>147</ele>
        <time>2021-05-20T09:19:38.572Z</time>
      </trkpt>
      <trkpt lat="48.67704" lon="2.05171">
        <ele>147</ele>
        <time>2021-05-20T09:19:39.572Z</time>
      </trkpt>
      <trkpt lat="48.67705" lon="2.05173">
        <ele>147</ele>
        <time>2021-05-20T09:19:40.572Z</time>
      </trkpt>
      <trkpt lat="48.67706" lon="2.05174">
        <ele>147</ele>
        <time>2021-05-20T09:19:41.572Z</time>
      </trkpt>
      <trkpt lat="48.67707" lon="2.05176">
        <ele>146</ele>
        <time>2021-05-20T09:19:42.572Z</time>
      </trkpt>
      <trkpt lat="48.67708" lon="2.05177">
        <ele>146</ele>
        <time>2021-05-20T09:19:43.572Z</time>
      </trkpt>
      <trkpt lat="48.67709" lon="2.05178">
        <ele>146</ele>
        <time>2021-05-20T09:19:44.572Z</time>
      </trkpt>
      <trkpt lat="48.67709" lon="2.05179">
        <ele>146</ele>
        <time>2021-05-20T09:19:45.572Z</time>
      </trkpt>
      <trkpt lat="48.6771" lon="2.0518">
        <ele>146</ele>
        <time>2021-05-20T09:19:46.572Z</time>
      </trkpt>
      <trkpt lat="48.67711" lon="2.05181">
        <ele>146</ele>
        <time>2021-05-20T09:19:47.572Z</time>
      </trkpt>
      <trkpt lat="48.67712" lon="2.05182">
        <ele>146</ele>
        <time>2021-05-20T09:19:48.572Z</time>
      </trkpt>
      <trkpt lat="48.67712" lon="2.05183">
        <ele>146</ele>
        <time>2021-05-20T09:19:49.572Z</time>
      </trkpt>
      <trkpt lat="48.67712" lon="2.05184">
        <ele>146</ele>
        <time>2021-05-20T09:19:50.572Z</time>
      </trkpt>
      <trkpt lat="48.67713" lon="2.05185">
        <ele>146</ele>
        <time>2021-05-20T09:19:51.572Z</time>
      </trkpt>
      <trkpt lat="48.67714" lon="2.05186">
        <ele>146</ele>
        <time>2021-05-20T09:19:52.572Z</time>
      </trkpt>
      <trkpt lat="48.67715" lon="2.05188">
        <ele>146</ele>
        <time>2021-05-20T09:19:53.572Z</time>
      </trkpt>
      <trkpt lat="48.67715" lon="2.05189">
        <ele>146</ele>
        <time>2021-05-20T09:19:54.572Z</time>
      </trkpt>
      <trkpt lat="48.67715" lon="2.0519">
        <ele>146</ele>
        <time>2021-05-20T09:19:55.572Z</time>
      </trkpt>
      <trkpt lat="48.67715" lon="2.05191">
        <ele>146</ele>
        <time>2021-05-20T09:19:56.572Z</time>
      </trkpt>
      <trkpt lat="48.67715" lon="2.05192">
        <ele>146</ele>
        <time>2021-05-20T09:19:57.572Z</time>
      </trkpt>
      <trkpt lat="48.67715" lon="2.05193">
        <ele>146</ele>
        <time>2021-05-20T09:19:58.572Z</time>
      </trkpt>
      <trkpt lat="48.67714" lon="2.05194">
        <ele>146</ele>
        <time>2021-05-20T09:19:59.572Z</time>
      </trkpt>
      <trkpt lat="48.67714" lon="2.05195">
        <ele>146</ele>
        <time>2021-05-20T09:20:00.572Z</time>
      </trkpt>
      <trkpt lat="48.67714" lon="2.05196">
        <ele>146</ele>
        <time>2021-05-20T09:20:01.572Z</time>
      </trkpt>
      <trkpt lat="48.67714" lon="2.05197">
        <ele>146</ele>
        <time>2021-05-20T09:20:02.572Z</time>
      </trkpt>
      <trkpt lat="48.67714" lon="2.05198">
        <ele>146</ele>
        <time>2021-05-20T09:20:03.572Z</time>
      </trkpt>
      <trkpt lat="48.67714" lon="2.05198">
        <ele>147</ele>
        <time>2021-05-20T09:20:04.572Z</time>
      </trkpt>
      <trkpt lat="48.67714" lon="2.05205">
        <ele>149</ele>
        <time>2021-05-20T09:20:05.572Z</time>
      </trkpt>
      <trkpt lat="48.67714" lon="2.05206">
        <ele>149</ele>
        <time>2021-05-20T09:20:06.572Z</time>
      </trkpt>
      <trkpt lat="48.67714" lon="2.05207">
        <ele>149</ele>
        <time>2021-05-20T09:20:07.572Z</time>
      </trkpt>
      <trkpt lat="48.67714" lon="2.05208">
        <ele>149</ele>
        <time>2021-05-20T09:20:08.572Z</time>
      </trkpt>
      <trkpt lat="48.67714" lon="2.05209">
        <ele>149</ele>
        <time>2021-05-20T09:20:09.572Z</time>
      </trkpt>
      <trkpt lat="48.67714" lon="2.0521">
        <ele>149</ele>
        <time>2021-05-20T09:20:10.572Z</time>
      </trkpt>
      <trkpt lat="48.67714" lon="2.05211">
        <ele>149</ele>
        <time>2021-05-20T09:20:11.572Z</time>
      </trkpt>
      <trkpt lat="48.67714" lon="2.05212">
        <ele>149</ele>
        <time>2021-05-20T09:20:12.572Z</time>
      </trkpt>
      <trkpt lat="48.67715" lon="2.05213">
        <ele>149</ele>
        <time>2021-05-20T09:20:13.572Z</time>
      </trkpt>
      <trkpt lat="48.67714" lon="2.05214">
        <ele>149</ele>
        <time>2021-05-20T09:20:14.572Z</time>
      </trkpt>
      <trkpt lat="48.67714" lon="2.05215">
        <ele>149</ele>
        <time>2021-05-20T09:20:15.572Z</time>
      </trkpt>
      <trkpt lat="48.67714" lon="2.05216">
        <ele>149</ele>
        <time>2021-05-20T09:20:16.572Z</time>
      </trkpt>
      <trkpt lat="48.67714" lon="2.05217">
        <ele>149</ele>
        <time>2021-05-20T09:20:17.572Z</time>
      </trkpt>
      <trkpt lat="48.67714" lon="2.05217">
        <ele>149</ele>
        <time>2021-05-20T09:20:18.572Z</time>
      </trkpt>
      <trkpt lat="48.67716" lon="2.05219">
        <ele>150</ele>
        <time>2021-05-20T09:20:19.572Z</time>
      </trkpt>
      <trkpt lat="48.67717" lon="2.05219">
        <ele>150</ele>
        <time>2021-05-20T09:20:20.572Z</time>
      </trkpt>
      <trkpt lat="48.67717" lon="2.05219">
        <ele>150</ele>
        <time>2021-05-20T09:20:21.572Z</time>
      </trkpt>
      <trkpt lat="48.67718" lon="2.05219">
        <ele>150</ele>
        <time>2021-05-20T09:20:22.572Z</time>
      </trkpt>
      <trkpt lat="48.67719" lon="2.05219">
        <ele>150</ele>
        <time>2021-05-20T09:20:23.572Z</time>
      </trkpt>
      <trkpt lat="48.6772" lon="2.0522">
        <ele>150</ele>
        <time>2021-05-20T09:20:24.572Z</time>
      </trkpt>
      <trkpt lat="48.67721" lon="2.0522">
        <ele>150</ele>
        <time>2021-05-20T09:20:25.572Z</time>
      </trkpt>
      <trkpt lat="48.67722" lon="2.0522">
        <ele>150</ele>
        <time>2021-05-20T09:20:26.572Z</time>
      </trkpt>
      <trkpt lat="48.67723" lon="2.0522">
        <ele>150</ele>
        <time>2021-05-20T09:20:27.572Z</time>
      </trkpt>
      <trkpt lat="48.67724" lon="2.05221">
        <ele>151</ele>
        <time>2021-05-20T09:20:28.572Z</time>
      </trkpt>
      <trkpt lat="48.67725" lon="2.05221">
        <ele>151</ele>
        <time>2021-05-20T09:20:29.572Z</time>
      </trkpt>
      <trkpt lat="48.67726" lon="2.05222">
        <ele>151</ele>
        <time>2021-05-20T09:20:30.572Z</time>
      </trkpt>
      <trkpt lat="48.67727" lon="2.05222">
        <ele>151</ele>
        <time>2021-05-20T09:20:31.572Z</time>
      </trkpt>
      <trkpt lat="48.67728" lon="2.05222">
        <ele>151</ele>
        <time>2021-05-20T09:20:32.572Z</time>
      </trkpt>
      <trkpt lat="48.67729" lon="2.05222">
        <ele>151</ele>
        <time>2021-05-20T09:20:33.572Z</time>
      </trkpt>
      <trkpt lat="48.6773" lon="2.05223">
        <ele>151</ele>
        <time>2021-05-20T09:20:34.572Z</time>
      </trkpt>
      <trkpt lat="48.67731" lon="2.05223">
        <ele>152</ele>
        <time>2021-05-20T09:20:35.572Z</time>
      </trkpt>
      <trkpt lat="48.67732" lon="2.05223">
        <ele>152</ele>
        <time>2021-05-20T09:20:36.572Z</time>
      </trkpt>
      <trkpt lat="48.67733" lon="2.05223">
        <ele>152</ele>
        <time>2021-05-20T09:20:37.572Z</time>
      </trkpt>
      <trkpt lat="48.67735" lon="2.05224">
        <ele>152</ele>
        <time>2021-05-20T09:20:38.572Z</time>
      </trkpt>
      <trkpt lat="48.67736" lon="2.05224">
        <ele>151</ele>
        <time>2021-05-20T09:20:39.572Z</time>
      </trkpt>
      <trkpt lat="48.67738" lon="2.05224">
        <ele>151</ele>
        <time>2021-05-20T09:20:40.572Z</time>
      </trkpt>
      <trkpt lat="48.67739" lon="2.05225">
        <ele>151</ele>
        <time>2021-05-20T09:20:41.572Z</time>
      </trkpt>
      <trkpt lat="48.6774" lon="2.05225">
        <ele>151</ele>
        <time>2021-05-20T09:20:42.572Z</time>
      </trkpt>
      <trkpt lat="48.67742" lon="2.05225">
        <ele>151</ele>
        <time>2021-05-20T09:20:43.572Z</time>
      </trkpt>
      <trkpt lat="48.67743" lon="2.05225">
        <ele>151</ele>
        <time>2021-05-20T09:20:44.572Z</time>
      </trkpt>
      <trkpt lat="48.67744" lon="2.05226">
        <ele>151</ele>
        <time>2021-05-20T09:20:45.572Z</time>
      </trkpt>
      <trkpt lat="48.67745" lon="2.05226">
        <ele>151</ele>
        <time>2021-05-20T09:20:46.572Z</time>
      </trkpt>
      <trkpt lat="48.67746" lon="2.05226">
        <ele>151</ele>
        <time>2021-05-20T09:20:47.572Z</time>
      </trkpt>
      <trkpt lat="48.67747" lon="2.05227">
        <ele>151</ele>
        <time>2021-05-20T09:20:48.572Z</time>
      </trkpt>
      <trkpt lat="48.67748" lon="2.05228">
        <ele>151</ele>
        <time>2021-05-20T09:20:49.572Z</time>
      </trkpt>
      <trkpt lat="48.67749" lon="2.05228">
        <ele>151</ele>
        <time>2021-05-20T09:20:50.572Z</time>
      </trkpt>
      <trkpt lat="48.6775" lon="2.05228">
        <ele>151</ele>
        <time>2021-05-20T09:20:51.572Z</time>
      </trkpt>
      <trkpt lat="48.6775" lon="2.05228">
        <ele>152</ele>
        <time>2021-05-20T09:20:52.572Z</time>
      </trkpt>
      <trkpt lat="48.67751" lon="2.05228">
        <ele>152</ele>
        <time>2021-05-20T09:20:53.572Z</time>
      </trkpt>
      <trkpt lat="48.67752" lon="2.05228">
        <ele>152</ele>
        <time>2021-05-20T09:20:54.572Z</time>
      </trkpt>
      <trkpt lat="48.67754" lon="2.05229">
        <ele>152</ele>
        <time>2021-05-20T09:20:55.572Z</time>
      </trkpt>
      <trkpt lat="48.67755" lon="2.05229">
        <ele>152</ele>
        <time>2021-05-20T09:20:56.572Z</time>
      </trkpt>
      <trkpt lat="48.67756" lon="2.0523">
        <ele>152</ele>
        <time>2021-05-20T09:20:57.572Z</time>
      </trkpt>
      <trkpt lat="48.67757" lon="2.05231">
        <ele>151</ele>
        <time>2021-05-20T09:20:58.572Z</time>
      </trkpt>
      <trkpt lat="48.67758" lon="2.05231">
        <ele>151</ele>
        <time>2021-05-20T09:20:59.572Z</time>
      </trkpt>
      <trkpt lat="48.6776" lon="2.05232">
        <ele>151</ele>
        <time>2021-05-20T09:21:00.572Z</time>
      </trkpt>
      <trkpt lat="48.67761" lon="2.05233">
        <ele>151</ele>
        <time>2021-05-20T09:21:01.572Z</time>
      </trkpt>
      <trkpt lat="48.67762" lon="2.05233">
        <ele>151</ele>
        <time>2021-05-20T09:21:02.572Z</time>
      </trkpt>
      <trkpt lat="48.67764" lon="2.05234">
        <ele>151</ele>
        <time>2021-05-20T09:21:03.572Z</time>
      </trkpt>
      <trkpt lat="48.67765" lon="2.05234">
        <ele>151</ele>
        <time>2021-05-20T09:21:04.572Z</time>
      </trkpt>
      <trkpt lat="48.67767" lon="2.05235">
        <ele>151</ele>
        <time>2021-05-20T09:21:05.572Z</time>
      </trkpt>
      <trkpt lat="48.67768" lon="2.05235">
        <ele>151</ele>
        <time>2021-05-20T09:21:06.572Z</time>
      </trkpt>
      <trkpt lat="48.6777" lon="2.05236">
        <ele>151</ele>
        <time>2021-05-20T09:21:07.572Z</time>
      </trkpt>
      <trkpt lat="48.67771" lon="2.05236">
        <ele>151</ele>
        <time>2021-05-20T09:21:08.572Z</time>
      </trkpt>
      <trkpt lat="48.67772" lon="2.05237">
        <ele>151</ele>
        <time>2021-05-20T09:21:09.572Z</time>
      </trkpt>
      <trkpt lat="48.67774" lon="2.05238">
        <ele>151</ele>
        <time>2021-05-20T09:21:10.572Z</time>
      </trkpt>
      <trkpt lat="48.67776" lon="2.05238">
        <ele>151</ele>
        <time>2021-05-20T09:21:11.572Z</time>
      </trkpt>
      <trkpt lat="48.67777" lon="2.05239">
        <ele>151</ele>
        <time>2021-05-20T09:21:12.572Z</time>
      </trkpt>
      <trkpt lat="48.67778" lon="2.0524">
        <ele>151</ele>
        <time>2021-05-20T09:21:13.572Z</time>
      </trkpt>
      <trkpt lat="48.67779" lon="2.05241">
        <ele>151</ele>
        <time>2021-05-20T09:21:14.572Z</time>
      </trkpt>
      <trkpt lat="48.6778" lon="2.05241">
        <ele>151</ele>
        <time>2021-05-20T09:21:15.572Z</time>
      </trkpt>
      <trkpt lat="48.67781" lon="2.05242">
        <ele>151</ele>
        <time>2021-05-20T09:21:16.572Z</time>
      </trkpt>
      <trkpt lat="48.67782" lon="2.05243">
        <ele>151</ele>
        <time>2021-05-20T09:21:17.572Z</time>
      </trkpt>
      <trkpt lat="48.67783" lon="2.05244">
        <ele>151</ele>
        <time>2021-05-20T09:21:18.572Z</time>
      </trkpt>
      <trkpt lat="48.67784" lon="2.05245">
        <ele>151</ele>
        <time>2021-05-20T09:21:19.572Z</time>
      </trkpt>
      <trkpt lat="48.67785" lon="2.05246">
        <ele>151</ele>
        <time>2021-05-20T09:21:20.572Z</time>
      </trkpt>
      <trkpt lat="48.67786" lon="2.05246">
        <ele>151</ele>
        <time>2021-05-20T09:21:21.572Z</time>
      </trkpt>
      <trkpt lat="48.67787" lon="2.05247">
        <ele>151</ele>
        <time>2021-05-20T09:21:22.572Z</time>
      </trkpt>
      <trkpt lat="48.67789" lon="2.05248">
        <ele>151</ele>
        <time>2021-05-20T09:21:23.572Z</time>
      </trkpt>
      <trkpt lat="48.6779" lon="2.05249">
        <ele>151</ele>
        <time>2021-05-20T09:21:24.572Z</time>
      </trkpt>
      <trkpt lat="48.67791" lon="2.05249">
        <ele>151</ele>
        <time>2021-05-20T09:21:25.572Z</time>
      </trkpt>
      <trkpt lat="48.67792" lon="2.0525">
        <ele>151</ele>
        <time>2021-05-20T09:21:26.572Z</time>
      </trkpt>
      <trkpt lat="48.67793" lon="2.05251">
        <ele>151</ele>
        <time>2021-05-20T09:21:27.572Z</time>
      </trkpt>
      <trkpt lat="48.67794" lon="2.05252">
        <ele>151</ele>
        <time>2021-05-20T09:21:28.572Z</time>
      </trkpt>
      <trkpt lat="48.67795" lon="2.05253">
        <ele>151</ele>
        <time>2021-05-20T09:21:29.572Z</time>
      </trkpt>
      <trkpt lat="48.67796" lon="2.05254">
        <ele>151</ele>
        <time>2021-05-20T09:21:30.572Z</time>
      </trkpt>
      <trkpt lat="48.67797" lon="2.05255">
        <ele>151</ele>
        <time>2021-05-20T09:21:31.572Z</time>
      </trkpt>
      <trkpt lat="48.67798" lon="2.05255">
        <ele>151</ele>
        <time>2021-05-20T09:21:32.572Z</time>
      </trkpt>
      <trkpt lat="48.67799" lon="2.05256">
        <ele>151</ele>
        <time>2021-05-20T09:21:33.572Z</time>
      </trkpt>
      <trkpt lat="48.67801" lon="2.05257">
        <ele>151</ele>
        <time>2021-05-20T09:21:34.572Z</time>
      </trkpt>
      <trkpt lat="48.67802" lon="2.05257">
        <ele>151</ele>
        <time>2021-05-20T09:21:35.572Z</time>
      </trkpt>
      <trkpt lat="48.67803" lon="2.05258">
        <ele>151</ele>
        <time>2021-05-20T09:21:36.572Z</time>
      </trkpt>
      <trkpt lat="48.67804" lon="2.05259">
        <ele>151</ele>
        <time>2021-05-20T09:21:37.572Z</time>
      </trkpt>
      <trkpt lat="48.67805" lon="2.0526">
        <ele>151</ele>
        <time>2021-05-20T09:21:38.572Z</time>
      </trkpt>
      <trkpt lat="48.67807" lon="2.05261">
        <ele>151</ele>
        <time>2021-05-20T09:21:39.572Z</time>
      </trkpt>
      <trkpt lat="48.67808" lon="2.05262">
        <ele>151</ele>
        <time>2021-05-20T09:21:40.572Z</time>
      </trkpt>
      <trkpt lat="48.67809" lon="2.05262">
        <ele>151</ele>
        <time>2021-05-20T09:21:41.572Z</time>
      </trkpt>
      <trkpt lat="48.6781" lon="2.05263">
        <ele>151</ele>
        <time>2021-05-20T09:21:42.572Z</time>
      </trkpt>
      <trkpt lat="48.67812" lon="2.05264">
        <ele>151</ele>
        <time>2021-05-20T09:21:43.572Z</time>
      </trkpt>
      <trkpt lat="48.67813" lon="2.05264">
        <ele>151</ele>
        <time>2021-05-20T09:21:44.572Z</time>
      </trkpt>
      <trkpt lat="48.67814" lon="2.05265">
        <ele>151</ele>
        <time>2021-05-20T09:21:45.572Z</time>
      </trkpt>
      <trkpt lat="48.67816" lon="2.05266">
        <ele>152</ele>
        <time>2021-05-20T09:21:46.572Z</time>
      </trkpt>
      <trkpt lat="48.67817" lon="2.05267">
        <ele>152</ele>
        <time>2021-05-20T09:21:47.572Z</time>
      </trkpt>
      <trkpt lat="48.67818" lon="2.05268">
        <ele>152</ele>
        <time>2021-05-20T09:21:48.572Z</time>
      </trkpt>
      <trkpt lat="48.67818" lon="2.05268">
        <ele>152</ele>
        <time>2021-05-20T09:21:49.572Z</time>
      </trkpt>
      <trkpt lat="48.67819" lon="2.05269">
        <ele>152</ele>
        <time>2021-05-20T09:21:50.572Z</time>
      </trkpt>
      <trkpt lat="48.6782" lon="2.05269">
        <ele>152</ele>
        <time>2021-05-20T09:21:51.572Z</time>
      </trkpt>
      <trkpt lat="48.67822" lon="2.0527">
        <ele>152</ele>
        <time>2021-05-20T09:21:52.572Z</time>
      </trkpt>
      <trkpt lat="48.67823" lon="2.05271">
        <ele>152</ele>
        <time>2021-05-20T09:21:53.572Z</time>
      </trkpt>
      <trkpt lat="48.67824" lon="2.05272">
        <ele>153</ele>
        <time>2021-05-20T09:21:54.572Z</time>
      </trkpt>
      <trkpt lat="48.67824" lon="2.05272">
        <ele>153</ele>
        <time>2021-05-20T09:21:55.572Z</time>
      </trkpt>
      <trkpt lat="48.67824" lon="2.05272">
        <ele>153</ele>
        <time>2021-05-20T09:21:56.572Z</time>
      </trkpt>
      <trkpt lat="48.67825" lon="2.05273">
        <ele>153</ele>
        <time>2021-05-20T09:21:57.572Z</time>
      </trkpt>
      <trkpt lat="48.67825" lon="2.05273">
        <ele>153</ele>
        <time>2021-05-20T09:21:58.572Z</time>
      </trkpt>
      <trkpt lat="48.67826" lon="2.05274">
        <ele>153</ele>
        <time>2021-05-20T09:21:59.572Z</time>
      </trkpt>
      <trkpt lat="48.67826" lon="2.05274">
        <ele>153</ele>
        <time>2021-05-20T09:22:00.572Z</time>
      </trkpt>
      <trkpt lat="48.67827" lon="2.05274">
        <ele>153</ele>
        <time>2021-05-20T09:22:01.572Z</time>
      </trkpt>
      <trkpt lat="48.67827" lon="2.05275">
        <ele>153</ele>
        <time>2021-05-20T09:22:02.572Z</time>
      </trkpt>
      <trkpt lat="48.67828" lon="2.05275">
        <ele>153</ele>
        <time>2021-05-20T09:22:03.572Z</time>
      </trkpt>
      <trkpt lat="48.67829" lon="2.05276">
        <ele>153</ele>
        <time>2021-05-20T09:22:04.572Z</time>
      </trkpt>
      <trkpt lat="48.6783" lon="2.05277">
        <ele>153</ele>
        <time>2021-05-20T09:22:05.572Z</time>
      </trkpt>
      <trkpt lat="48.67831" lon="2.05277">
        <ele>153</ele>
        <time>2021-05-20T09:22:06.572Z</time>
      </trkpt>
      <trkpt lat="48.67832" lon="2.05278">
        <ele>153</ele>
        <time>2021-05-20T09:22:07.572Z</time>
      </trkpt>
      <trkpt lat="48.67833" lon="2.05278">
        <ele>153</ele>
        <time>2021-05-20T09:22:08.572Z</time>
      </trkpt>
      <trkpt lat="48.67834" lon="2.05279">
        <ele>153</ele>
        <time>2021-05-20T09:22:09.572Z</time>
      </trkpt>
      <trkpt lat="48.67835" lon="2.0528">
        <ele>153</ele>
        <time>2021-05-20T09:22:10.572Z</time>
      </trkpt>
      <trkpt lat="48.67836" lon="2.05281">
        <ele>153</ele>
        <time>2021-05-20T09:22:11.572Z</time>
      </trkpt>
      <trkpt lat="48.67837" lon="2.05282">
        <ele>153</ele>
        <time>2021-05-20T09:22:12.572Z</time>
      </trkpt>
      <trkpt lat="48.67838" lon="2.05283">
        <ele>154</ele>
        <time>2021-05-20T09:22:13.572Z</time>
      </trkpt>
      <trkpt lat="48.67839" lon="2.05284">
        <ele>154</ele>
        <time>2021-05-20T09:22:14.572Z</time>
      </trkpt>
      <trkpt lat="48.67841" lon="2.05285">
        <ele>154</ele>
        <time>2021-05-20T09:22:15.572Z</time>
      </trkpt>
      <trkpt lat="48.67842" lon="2.05286">
        <ele>154</ele>
        <time>2021-05-20T09:22:16.572Z</time>
      </trkpt>
      <trkpt lat="48.67843" lon="2.05287">
        <ele>154</ele>
        <time>2021-05-20T09:22:17.572Z</time>
      </trkpt>
      <trkpt lat="48.67845" lon="2.05288">
        <ele>154</ele>
        <time>2021-05-20T09:22:18.572Z</time>
      </trkpt>
      <trkpt lat="48.67846" lon="2.05289">
        <ele>154</ele>
        <time>2021-05-20T09:22:19.572Z</time>
      </trkpt>
      <trkpt lat="48.67847" lon="2.0529">
        <ele>154</ele>
        <time>2021-05-20T09:22:20.572Z</time>
      </trkpt>
      <trkpt lat="48.67849" lon="2.05291">
        <ele>154</ele>
        <time>2021-05-20T09:22:21.572Z</time>
      </trkpt>
      <trkpt lat="48.6785" lon="2.05292">
        <ele>154</ele>
        <time>2021-05-20T09:22:22.572Z</time>
      </trkpt>
      <trkpt lat="48.67852" lon="2.05292">
        <ele>154</ele>
        <time>2021-05-20T09:22:23.572Z</time>
      </trkpt>
      <trkpt lat="48.67853" lon="2.05293">
        <ele>154</ele>
        <time>2021-05-20T09:22:24.572Z</time>
      </trkpt>
      <trkpt lat="48.67855" lon="2.05294">
        <ele>154</ele>
        <time>2021-05-20T09:22:25.572Z</time>
      </trkpt>
      <trkpt lat="48.67857" lon="2.05295">
        <ele>154</ele>
        <time>2021-05-20T09:22:26.572Z</time>
      </trkpt>
      <trkpt lat="48.67858" lon="2.05296">
        <ele>154</ele>
        <time>2021-05-20T09:22:27.572Z</time>
      </trkpt>
      <trkpt lat="48.6786" lon="2.05297">
        <ele>154</ele>
        <time>2021-05-20T09:22:28.572Z</time>
      </trkpt>
      <trkpt lat="48.67862" lon="2.05298">
        <ele>154</ele>
        <time>2021-05-20T09:22:29.572Z</time>
      </trkpt>
      <trkpt lat="48.67863" lon="2.05299">
        <ele>154</ele>
        <time>2021-05-20T09:22:30.572Z</time>
      </trkpt>
      <trkpt lat="48.67865" lon="2.053">
        <ele>154</ele>
        <time>2021-05-20T09:22:31.572Z</time>
      </trkpt>
      <trkpt lat="48.67866" lon="2.05301">
        <ele>154</ele>
        <time>2021-05-20T09:22:32.572Z</time>
      </trkpt>
      <trkpt lat="48.67867" lon="2.05301">
        <ele>154</ele>
        <time>2021-05-20T09:22:33.572Z</time>
      </trkpt>
      <trkpt lat="48.67868" lon="2.05302">
        <ele>155</ele>
        <time>2021-05-20T09:22:34.572Z</time>
      </trkpt>
      <trkpt lat="48.6787" lon="2.05303">
        <ele>155</ele>
        <time>2021-05-20T09:22:35.572Z</time>
      </trkpt>
      <trkpt lat="48.67871" lon="2.05304">
        <ele>155</ele>
        <time>2021-05-20T09:22:36.572Z</time>
      </trkpt>
      <trkpt lat="48.67872" lon="2.05305">
        <ele>155</ele>
        <time>2021-05-20T09:22:37.572Z</time>
      </trkpt>
      <trkpt lat="48.67874" lon="2.05306">
        <ele>155</ele>
        <time>2021-05-20T09:22:38.572Z</time>
      </trkpt>
      <trkpt lat="48.67875" lon="2.05307">
        <ele>155</ele>
        <time>2021-05-20T09:22:39.572Z</time>
      </trkpt>
      <trkpt lat="48.67876" lon="2.05308">
        <ele>155</ele>
        <time>2021-05-20T09:22:40.572Z</time>
      </trkpt>
      <trkpt lat="48.67878" lon="2.05308">
        <ele>155</ele>
        <time>2021-05-20T09:22:41.572Z</time>
      </trkpt>
      <trkpt lat="48.67879" lon="2.05309">
        <ele>155</ele>
        <time>2021-05-20T09:22:42.572Z</time>
      </trkpt>
      <trkpt lat="48.6788" lon="2.0531">
        <ele>155</ele>
        <time>2021-05-20T09:22:43.572Z</time>
      </trkpt>
      <trkpt lat="48.67881" lon="2.0531">
        <ele>155</ele>
        <time>2021-05-20T09:22:44.572Z</time>
      </trkpt>
      <trkpt lat="48.67882" lon="2.05311">
        <ele>155</ele>
        <time>2021-05-20T09:22:45.572Z</time>
      </trkpt>
      <trkpt lat="48.67882" lon="2.05311">
        <ele>155</ele>
        <time>2021-05-20T09:22:46.572Z</time>
      </trkpt>
      <trkpt lat="48.67883" lon="2.05312">
        <ele>155</ele>
        <time>2021-05-20T09:22:47.572Z</time>
      </trkpt>
      <trkpt lat="48.67884" lon="2.05313">
        <ele>156</ele>
        <time>2021-05-20T09:22:48.572Z</time>
      </trkpt>
      <trkpt lat="48.67885" lon="2.05314">
        <ele>156</ele>
        <time>2021-05-20T09:22:49.572Z</time>
      </trkpt>
      <trkpt lat="48.67886" lon="2.05315">
        <ele>156</ele>
        <time>2021-05-20T09:22:50.572Z</time>
      </trkpt>
      <trkpt lat="48.67888" lon="2.05316">
        <ele>156</ele>
        <time>2021-05-20T09:22:51.572Z</time>
      </trkpt>
      <trkpt lat="48.67889" lon="2.05317">
        <ele>156</ele>
        <time>2021-05-20T09:22:52.572Z</time>
      </trkpt>
      <trkpt lat="48.6789" lon="2.05318">
        <ele>156</ele>
        <time>2021-05-20T09:22:53.572Z</time>
      </trkpt>
      <trkpt lat="48.67891" lon="2.05319">
        <ele>156</ele>
        <time>2021-05-20T09:22:54.572Z</time>
      </trkpt>
      <trkpt lat="48.67892" lon="2.05319">
        <ele>156</ele>
        <time>2021-05-20T09:22:55.572Z</time>
      </trkpt>
      <trkpt lat="48.67893" lon="2.0532">
        <ele>156</ele>
        <time>2021-05-20T09:22:56.572Z</time>
      </trkpt>
      <trkpt lat="48.67895" lon="2.05321">
        <ele>156</ele>
        <time>2021-05-20T09:22:57.572Z</time>
      </trkpt>
      <trkpt lat="48.67896" lon="2.05322">
        <ele>156</ele>
        <time>2021-05-20T09:22:58.572Z</time>
      </trkpt>
      <trkpt lat="48.67898" lon="2.05323">
        <ele>156</ele>
        <time>2021-05-20T09:22:59.572Z</time>
      </trkpt>
      <trkpt lat="48.67899" lon="2.05324">
        <ele>157</ele>
        <time>2021-05-20T09:23:00.572Z</time>
      </trkpt>
      <trkpt lat="48.679" lon="2.05325">
        <ele>157</ele>
        <time>2021-05-20T09:23:01.572Z</time>
      </trkpt>
      <trkpt lat="48.67901" lon="2.05326">
        <ele>157</ele>
        <time>2021-05-20T09:23:02.572Z</time>
      </trkpt>
      <trkpt lat="48.67902" lon="2.05327">
        <ele>157</ele>
        <time>2021-05-20T09:23:03.572Z</time>
      </trkpt>
      <trkpt lat="48.67903" lon="2.05327">
        <ele>157</ele>
        <time>2021-05-20T09:23:04.572Z</time>
      </trkpt>
      <trkpt lat="48.67904" lon="2.05328">
        <ele>157</ele>
        <time>2021-05-20T09:23:05.572Z</time>
      </trkpt>
      <trkpt lat="48.67904" lon="2.05329">
        <ele>157</ele>
        <time>2021-05-20T09:23:06.572Z</time>
      </trkpt>
      <trkpt lat="48.67905" lon="2.0533">
        <ele>157</ele>
        <time>2021-05-20T09:23:07.572Z</time>
      </trkpt>
      <trkpt lat="48.67905" lon="2.05331">
        <ele>157</ele>
        <time>2021-05-20T09:23:08.572Z</time>
      </trkpt>
      <trkpt lat="48.67906" lon="2.05332">
        <ele>157</ele>
        <time>2021-05-20T09:23:09.572Z</time>
      </trkpt>
      <trkpt lat="48.67907" lon="2.05332">
        <ele>158</ele>
        <time>2021-05-20T09:23:10.572Z</time>
      </trkpt>
      <trkpt lat="48.67908" lon="2.05333">
        <ele>158</ele>
        <time>2021-05-20T09:23:11.572Z</time>
      </trkpt>
      <trkpt lat="48.67909" lon="2.05333">
        <ele>158</ele>
        <time>2021-05-20T09:23:12.572Z</time>
      </trkpt>
      <trkpt lat="48.67909" lon="2.05334">
        <ele>158</ele>
        <time>2021-05-20T09:23:13.572Z</time>
      </trkpt>
      <trkpt lat="48.67911" lon="2.05335">
        <ele>158</ele>
        <time>2021-05-20T09:23:14.572Z</time>
      </trkpt>
      <trkpt lat="48.67912" lon="2.05336">
        <ele>158</ele>
        <time>2021-05-20T09:23:15.572Z</time>
      </trkpt>
      <trkpt lat="48.67913" lon="2.05337">
        <ele>158</ele>
        <time>2021-05-20T09:23:16.572Z</time>
      </trkpt>
      <trkpt lat="48.67915" lon="2.05338">
        <ele>157</ele>
        <time>2021-05-20T09:23:17.572Z</time>
      </trkpt>
      <trkpt lat="48.67916" lon="2.05338">
        <ele>157</ele>
        <time>2021-05-20T09:23:18.572Z</time>
      </trkpt>
      <trkpt lat="48.67918" lon="2.05339">
        <ele>157</ele>
        <time>2021-05-20T09:23:19.572Z</time>
      </trkpt>
      <trkpt lat="48.67919" lon="2.0534">
        <ele>157</ele>
        <time>2021-05-20T09:23:20.572Z</time>
      </trkpt>
      <trkpt lat="48.67921" lon="2.05341">
        <ele>157</ele>
        <time>2021-05-20T09:23:21.572Z</time>
      </trkpt>
      <trkpt lat="48.67922" lon="2.05342">
        <ele>157</ele>
        <time>2021-05-20T09:23:22.572Z</time>
      </trkpt>
      <trkpt lat="48.67924" lon="2.05342">
        <ele>157</ele>
        <time>2021-05-20T09:23:23.572Z</time>
      </trkpt>
      <trkpt lat="48.67925" lon="2.05343">
        <ele>157</ele>
        <time>2021-05-20T09:23:24.572Z</time>
      </trkpt>
      <trkpt lat="48.67927" lon="2.05344">
        <ele>157</ele>
        <time>2021-05-20T09:23:25.572Z</time>
      </trkpt>
      <trkpt lat="48.67928" lon="2.05345">
        <ele>157</ele>
        <time>2021-05-20T09:23:26.572Z</time>
      </trkpt>
      <trkpt lat="48.6793" lon="2.05347">
        <ele>157</ele>
        <time>2021-05-20T09:23:27.572Z</time>
      </trkpt>
      <trkpt lat="48.67931" lon="2.05348">
        <ele>157</ele>
        <time>2021-05-20T09:23:28.572Z</time>
      </trkpt>
      <trkpt lat="48.67933" lon="2.05349">
        <ele>157</ele>
        <time>2021-05-20T09:23:29.572Z</time>
      </trkpt>
      <trkpt lat="48.67934" lon="2.05351">
        <ele>157</ele>
        <time>2021-05-20T09:23:30.572Z</time>
      </trkpt>
      <trkpt lat="48.67936" lon="2.05352">
        <ele>157</ele>
        <time>2021-05-20T09:23:31.572Z</time>
      </trkpt>
      <trkpt lat="48.67938" lon="2.05354">
        <ele>157</ele>
        <time>2021-05-20T09:23:32.572Z</time>
      </trkpt>
      <trkpt lat="48.67939" lon="2.05355">
        <ele>157</ele>
        <time>2021-05-20T09:23:33.572Z</time>
      </trkpt>
      <trkpt lat="48.67941" lon="2.05356">
        <ele>157</ele>
        <time>2021-05-20T09:23:34.572Z</time>
      </trkpt>
      <trkpt lat="48.67943" lon="2.05356">
        <ele>157</ele>
        <time>2021-05-20T09:23:35.572Z</time>
      </trkpt>
      <trkpt lat="48.67944" lon="2.05357">
        <ele>157</ele>
        <time>2021-05-20T09:23:36.572Z</time>
      </trkpt>
      <trkpt lat="48.67946" lon="2.05358">
        <ele>157</ele>
        <time>2021-05-20T09:23:37.572Z</time>
      </trkpt>
      <trkpt lat="48.67947" lon="2.05359">
        <ele>157</ele>
        <time>2021-05-20T09:23:38.572Z</time>
      </trkpt>
      <trkpt lat="48.67948" lon="2.0536">
        <ele>157</ele>
        <time>2021-05-20T09:23:39.572Z</time>
      </trkpt>
      <trkpt lat="48.67949" lon="2.05361">
        <ele>157</ele>
        <time>2021-05-20T09:23:40.572Z</time>
      </trkpt>
      <trkpt lat="48.67951" lon="2.05361">
        <ele>157</ele>
        <time>2021-05-20T09:23:41.572Z</time>
      </trkpt>
      <trkpt lat="48.67951" lon="2.05362">
        <ele>157</ele>
        <time>2021-05-20T09:23:42.572Z</time>
      </trkpt>
      <trkpt lat="48.67952" lon="2.05363">
        <ele>157</ele>
        <time>2021-05-20T09:23:43.572Z</time>
      </trkpt>
      <trkpt lat="48.67953" lon="2.05364">
        <ele>157</ele>
        <time>2021-05-20T09:23:44.572Z</time>
      </trkpt>
      <trkpt lat="48.67954" lon="2.05365">
        <ele>157</ele>
        <time>2021-05-20T09:23:45.572Z</time>
      </trkpt>
      <trkpt lat="48.67955" lon="2.05365">
        <ele>157</ele>
        <time>2021-05-20T09:23:46.572Z</time>
      </trkpt>
      <trkpt lat="48.67956" lon="2.05366">
        <ele>157</ele>
        <time>2021-05-20T09:23:47.572Z</time>
      </trkpt>
      <trkpt lat="48.67957" lon="2.05368">
        <ele>157</ele>
        <time>2021-05-20T09:23:48.572Z</time>
      </trkpt>
      <trkpt lat="48.67958" lon="2.05369">
        <ele>158</ele>
        <time>2021-05-20T09:23:49.572Z</time>
      </trkpt>
      <trkpt lat="48.67959" lon="2.0537">
        <ele>158</ele>
        <time>2021-05-20T09:23:50.572Z</time>
      </trkpt>
      <trkpt lat="48.6796" lon="2.05371">
        <ele>158</ele>
        <time>2021-05-20T09:23:51.572Z</time>
      </trkpt>
      <trkpt lat="48.67961" lon="2.05372">
        <ele>158</ele>
        <time>2021-05-20T09:23:52.572Z</time>
      </trkpt>
      <trkpt lat="48.67961" lon="2.05373">
        <ele>158</ele>
        <time>2021-05-20T09:23:53.572Z</time>
      </trkpt>
      <trkpt lat="48.67962" lon="2.05373">
        <ele>159</ele>
        <time>2021-05-20T09:23:54.572Z</time>
      </trkpt>
      <trkpt lat="48.67963" lon="2.05374">
        <ele>159</ele>
        <time>2021-05-20T09:23:55.572Z</time>
      </trkpt>
      <trkpt lat="48.67964" lon="2.05376">
        <ele>159</ele>
        <time>2021-05-20T09:23:56.572Z</time>
      </trkpt>
      <trkpt lat="48.67965" lon="2.05377">
        <ele>159</ele>
        <time>2021-05-20T09:23:57.572Z</time>
      </trkpt>
      <trkpt lat="48.67966" lon="2.05378">
        <ele>159</ele>
        <time>2021-05-20T09:23:58.572Z</time>
      </trkpt>
      <trkpt lat="48.67967" lon="2.05378">
        <ele>159</ele>
        <time>2021-05-20T09:23:59.572Z</time>
      </trkpt>
      <trkpt lat="48.67968" lon="2.05379">
        <ele>159</ele>
        <time>2021-05-20T09:24:00.572Z</time>
      </trkpt>
      <trkpt lat="48.67969" lon="2.0538">
        <ele>159</ele>
        <time>2021-05-20T09:24:01.572Z</time>
      </trkpt>
      <trkpt lat="48.6797" lon="2.0538">
        <ele>159</ele>
        <time>2021-05-20T09:24:02.572Z</time>
      </trkpt>
      <trkpt lat="48.67972" lon="2.05381">
        <ele>159</ele>
        <time>2021-05-20T09:24:03.572Z</time>
      </trkpt>
      <trkpt lat="48.67973" lon="2.05382">
        <ele>159</ele>
        <time>2021-05-20T09:24:04.572Z</time>
      </trkpt>
      <trkpt lat="48.67974" lon="2.05383">
        <ele>159</ele>
        <time>2021-05-20T09:24:05.572Z</time>
      </trkpt>
      <trkpt lat="48.67975" lon="2.05384">
        <ele>159</ele>
        <time>2021-05-20T09:24:06.572Z</time>
      </trkpt>
      <trkpt lat="48.67976" lon="2.05384">
        <ele>159</ele>
        <time>2021-05-20T09:24:07.572Z</time>
      </trkpt>
      <trkpt lat="48.67977" lon="2.05385">
        <ele>159</ele>
        <time>2021-05-20T09:24:08.572Z</time>
      </trkpt>
      <trkpt lat="48.67979" lon="2.05386">
        <ele>159</ele>
        <time>2021-05-20T09:24:09.572Z</time>
      </trkpt>
      <trkpt lat="48.6798" lon="2.05386">
        <ele>159</ele>
        <time>2021-05-20T09:24:10.572Z</time>
      </trkpt>
      <trkpt lat="48.67982" lon="2.05387">
        <ele>159</ele>
        <time>2021-05-20T09:24:11.572Z</time>
      </trkpt>
      <trkpt lat="48.67983" lon="2.05387">
        <ele>159</ele>
        <time>2021-05-20T09:24:12.572Z</time>
      </trkpt>
      <trkpt lat="48.67984" lon="2.05388">
        <ele>159</ele>
        <time>2021-05-20T09:24:13.572Z</time>
      </trkpt>
      <trkpt lat="48.67985" lon="2.05389">
        <ele>159</ele>
        <time>2021-05-20T09:24:14.572Z</time>
      </trkpt>
      <trkpt lat="48.67986" lon="2.05389">
        <ele>159</ele>
        <time>2021-05-20T09:24:15.572Z</time>
      </trkpt>
      <trkpt lat="48.67987" lon="2.0539">
        <ele>159</ele>
        <time>2021-05-20T09:24:16.572Z</time>
      </trkpt>
      <trkpt lat="48.67988" lon="2.05391">
        <ele>159</ele>
        <time>2021-05-20T09:24:17.572Z</time>
      </trkpt>
      <trkpt lat="48.6799" lon="2.05391">
        <ele>159</ele>
        <time>2021-05-20T09:24:18.572Z</time>
      </trkpt>
      <trkpt lat="48.67991" lon="2.05391">
        <ele>159</ele>
        <time>2021-05-20T09:24:19.572Z</time>
      </trkpt>
      <trkpt lat="48.67992" lon="2.05392">
        <ele>160</ele>
        <time>2021-05-20T09:24:20.572Z</time>
      </trkpt>
      <trkpt lat="48.67993" lon="2.05393">
        <ele>160</ele>
        <time>2021-05-20T09:24:21.572Z</time>
      </trkpt>
      <trkpt lat="48.67994" lon="2.05394">
        <ele>160</ele>
        <time>2021-05-20T09:24:22.572Z</time>
      </trkpt>
      <trkpt lat="48.67996" lon="2.05395">
        <ele>159</ele>
        <time>2021-05-20T09:24:23.572Z</time>
      </trkpt>
      <trkpt lat="48.67997" lon="2.05396">
        <ele>159</ele>
        <time>2021-05-20T09:24:24.572Z</time>
      </trkpt>
      <trkpt lat="48.67998" lon="2.05397">
        <ele>159</ele>
        <time>2021-05-20T09:24:25.572Z</time>
      </trkpt>
      <trkpt lat="48.67998" lon="2.05397">
        <ele>159</ele>
        <time>2021-05-20T09:24:26.572Z</time>
      </trkpt>
      <trkpt lat="48.67999" lon="2.05398">
        <ele>159</ele>
        <time>2021-05-20T09:24:27.572Z</time>
      </trkpt>
      <trkpt lat="48.68" lon="2.05398">
        <ele>159</ele>
        <time>2021-05-20T09:24:28.572Z</time>
      </trkpt>
      <trkpt lat="48.68001" lon="2.05399">
        <ele>159</ele>
        <time>2021-05-20T09:24:29.572Z</time>
      </trkpt>
      <trkpt lat="48.68002" lon="2.05399">
        <ele>159</ele>
        <time>2021-05-20T09:24:30.572Z</time>
      </trkpt>
      <trkpt lat="48.68003" lon="2.054">
        <ele>159</ele>
        <time>2021-05-20T09:24:31.572Z</time>
      </trkpt>
      <trkpt lat="48.68004" lon="2.05401">
        <ele>159</ele>
        <time>2021-05-20T09:24:32.572Z</time>
      </trkpt>
      <trkpt lat="48.68005" lon="2.05402">
        <ele>159</ele>
        <time>2021-05-20T09:24:33.572Z</time>
      </trkpt>
      <trkpt lat="48.68006" lon="2.05403">
        <ele>159</ele>
        <time>2021-05-20T09:24:34.572Z</time>
      </trkpt>
      <trkpt lat="48.68006" lon="2.05404">
        <ele>159</ele>
        <time>2021-05-20T09:24:35.572Z</time>
      </trkpt>
      <trkpt lat="48.68007" lon="2.05405">
        <ele>159</ele>
        <time>2021-05-20T09:24:36.572Z</time>
      </trkpt>
      <trkpt lat="48.68008" lon="2.05406">
        <ele>159</ele>
        <time>2021-05-20T09:24:37.572Z</time>
      </trkpt>
      <trkpt lat="48.68009" lon="2.05407">
        <ele>159</ele>
        <time>2021-05-20T09:24:38.572Z</time>
      </trkpt>
      <trkpt lat="48.6801" lon="2.05407">
        <ele>159</ele>
        <time>2021-05-20T09:24:39.572Z</time>
      </trkpt>
      <trkpt lat="48.68011" lon="2.05408">
        <ele>159</ele>
        <time>2021-05-20T09:24:40.572Z</time>
      </trkpt>
      <trkpt lat="48.68013" lon="2.05409">
        <ele>159</ele>
        <time>2021-05-20T09:24:41.572Z</time>
      </trkpt>
      <trkpt lat="48.68015" lon="2.0541">
        <ele>159</ele>
        <time>2021-05-20T09:24:42.572Z</time>
      </trkpt>
      <trkpt lat="48.68017" lon="2.05411">
        <ele>159</ele>
        <time>2021-05-20T09:24:43.572Z</time>
      </trkpt>
      <trkpt lat="48.68018" lon="2.05412">
        <ele>159</ele>
        <time>2021-05-20T09:24:44.572Z</time>
      </trkpt>
      <trkpt lat="48.6802" lon="2.05413">
        <ele>159</ele>
        <time>2021-05-20T09:24:45.572Z</time>
      </trkpt>
      <trkpt lat="48.68021" lon="2.05413">
        <ele>159</ele>
        <time>2021-05-20T09:24:46.572Z</time>
      </trkpt>
      <trkpt lat="48.68023" lon="2.05414">
        <ele>159</ele>
        <time>2021-05-20T09:24:47.572Z</time>
      </trkpt>
      <trkpt lat="48.68025" lon="2.05415">
        <ele>159</ele>
        <time>2021-05-20T09:24:48.572Z</time>
      </trkpt>
      <trkpt lat="48.68027" lon="2.05417">
        <ele>159</ele>
        <time>2021-05-20T09:24:49.572Z</time>
      </trkpt>
      <trkpt lat="48.68028" lon="2.05418">
        <ele>159</ele>
        <time>2021-05-20T09:24:50.572Z</time>
      </trkpt>
      <trkpt lat="48.6803" lon="2.05419">
        <ele>159</ele>
        <time>2021-05-20T09:24:51.572Z</time>
      </trkpt>
      <trkpt lat="48.68031" lon="2.0542">
        <ele>159</ele>
        <time>2021-05-20T09:24:52.572Z</time>
      </trkpt>
      <trkpt lat="48.68032" lon="2.05421">
        <ele>159</ele>
        <time>2021-05-20T09:24:53.572Z</time>
      </trkpt>
      <trkpt lat="48.68034" lon="2.05422">
        <ele>159</ele>
        <time>2021-05-20T09:24:54.572Z</time>
      </trkpt>
      <trkpt lat="48.68035" lon="2.05424">
        <ele>159</ele>
        <time>2021-05-20T09:24:55.572Z</time>
      </trkpt>
      <trkpt lat="48.68037" lon="2.05425">
        <ele>159</ele>
        <time>2021-05-20T09:24:56.572Z</time>
      </trkpt>
      <trkpt lat="48.68038" lon="2.05426">
        <ele>159</ele>
        <time>2021-05-20T09:24:57.572Z</time>
      </trkpt>
      <trkpt lat="48.6804" lon="2.05428">
        <ele>159</ele>
        <time>2021-05-20T09:24:58.572Z</time>
      </trkpt>
      <trkpt lat="48.68041" lon="2.05428">
        <ele>159</ele>
        <time>2021-05-20T09:24:59.572Z</time>
      </trkpt>
      <trkpt lat="48.68042" lon="2.05429">
        <ele>159</ele>
        <time>2021-05-20T09:25:00.572Z</time>
      </trkpt>
      <trkpt lat="48.68044" lon="2.0543">
        <ele>159</ele>
        <time>2021-05-20T09:25:01.572Z</time>
      </trkpt>
      <trkpt lat="48.68044" lon="2.0543">
        <ele>159</ele>
        <time>2021-05-20T09:25:02.572Z</time>
      </trkpt>
      <trkpt lat="48.68046" lon="2.05431">
        <ele>159</ele>
        <time>2021-05-20T09:25:03.572Z</time>
      </trkpt>
      <trkpt lat="48.68047" lon="2.05431">
        <ele>159</ele>
        <time>2021-05-20T09:25:04.572Z</time>
      </trkpt>
      <trkpt lat="48.68049" lon="2.05432">
        <ele>159</ele>
        <time>2021-05-20T09:25:05.572Z</time>
      </trkpt>
      <trkpt lat="48.6805" lon="2.05433">
        <ele>158</ele>
        <time>2021-05-20T09:25:06.572Z</time>
      </trkpt>
      <trkpt lat="48.68051" lon="2.05434">
        <ele>158</ele>
        <time>2021-05-20T09:25:07.572Z</time>
      </trkpt>
      <trkpt lat="48.68052" lon="2.05435">
        <ele>158</ele>
        <time>2021-05-20T09:25:08.572Z</time>
      </trkpt>
      <trkpt lat="48.68053" lon="2.05436">
        <ele>158</ele>
        <time>2021-05-20T09:25:09.572Z</time>
      </trkpt>
      <trkpt lat="48.68055" lon="2.05437">
        <ele>158</ele>
        <time>2021-05-20T09:25:10.572Z</time>
      </trkpt>
      <trkpt lat="48.68056" lon="2.05437">
        <ele>158</ele>
        <time>2021-05-20T09:25:11.572Z</time>
      </trkpt>
      <trkpt lat="48.68057" lon="2.05439">
        <ele>158</ele>
        <time>2021-05-20T09:25:12.572Z</time>
      </trkpt>
      <trkpt lat="48.68058" lon="2.0544">
        <ele>158</ele>
        <time>2021-05-20T09:25:13.572Z</time>
      </trkpt>
      <trkpt lat="48.68059" lon="2.0544">
        <ele>158</ele>
        <time>2021-05-20T09:25:14.572Z</time>
      </trkpt>
      <trkpt lat="48.68061" lon="2.05441">
        <ele>158</ele>
        <time>2021-05-20T09:25:15.572Z</time>
      </trkpt>
      <trkpt lat="48.68062" lon="2.05442">
        <ele>158</ele>
        <time>2021-05-20T09:25:16.572Z</time>
      </trkpt>
      <trkpt lat="48.68063" lon="2.05442">
        <ele>158</ele>
        <time>2021-05-20T09:25:17.572Z</time>
      </trkpt>
      <trkpt lat="48.68064" lon="2.05443">
        <ele>158</ele>
        <time>2021-05-20T09:25:18.572Z</time>
      </trkpt>
      <trkpt lat="48.68065" lon="2.05444">
        <ele>158</ele>
        <time>2021-05-20T09:25:19.572Z</time>
      </trkpt>
      <trkpt lat="48.68066" lon="2.05444">
        <ele>158</ele>
        <time>2021-05-20T09:25:20.572Z</time>
      </trkpt>
      <trkpt lat="48.68066" lon="2.05445">
        <ele>158</ele>
        <time>2021-05-20T09:25:21.572Z</time>
      </trkpt>
      <trkpt lat="48.68067" lon="2.05446">
        <ele>158</ele>
        <time>2021-05-20T09:25:22.572Z</time>
      </trkpt>
      <trkpt lat="48.68068" lon="2.05446">
        <ele>158</ele>
        <time>2021-05-20T09:25:23.572Z</time>
      </trkpt>
      <trkpt lat="48.68069" lon="2.05446">
        <ele>158</ele>
        <time>2021-05-20T09:25:24.572Z</time>
      </trkpt>
      <trkpt lat="48.6807" lon="2.05447">
        <ele>158</ele>
        <time>2021-05-20T09:25:25.572Z</time>
      </trkpt>
      <trkpt lat="48.68072" lon="2.05448">
        <ele>158</ele>
        <time>2021-05-20T09:25:26.572Z</time>
      </trkpt>
      <trkpt lat="48.68073" lon="2.05448">
        <ele>158</ele>
        <time>2021-05-20T09:25:27.572Z</time>
      </trkpt>
      <trkpt lat="48.68074" lon="2.05449">
        <ele>158</ele>
        <time>2021-05-20T09:25:28.572Z</time>
      </trkpt>
      <trkpt lat="48.68074" lon="2.0545">
        <ele>158</ele>
        <time>2021-05-20T09:25:29.572Z</time>
      </trkpt>
      <trkpt lat="48.68075" lon="2.0545">
        <ele>158</ele>
        <time>2021-05-20T09:25:30.572Z</time>
      </trkpt>
      <trkpt lat="48.68076" lon="2.05451">
        <ele>158</ele>
        <time>2021-05-20T09:25:31.572Z</time>
      </trkpt>
      <trkpt lat="48.68077" lon="2.05451">
        <ele>158</ele>
        <time>2021-05-20T09:25:32.572Z</time>
      </trkpt>
      <trkpt lat="48.68078" lon="2.05452">
        <ele>158</ele>
        <time>2021-05-20T09:25:33.572Z</time>
      </trkpt>
      <trkpt lat="48.68079" lon="2.05453">
        <ele>158</ele>
        <time>2021-05-20T09:25:34.572Z</time>
      </trkpt>
      <trkpt lat="48.6808" lon="2.05453">
        <ele>158</ele>
        <time>2021-05-20T09:25:35.572Z</time>
      </trkpt>
      <trkpt lat="48.68081" lon="2.05454">
        <ele>158</ele>
        <time>2021-05-20T09:25:36.572Z</time>
      </trkpt>
      <trkpt lat="48.68082" lon="2.05455">
        <ele>158</ele>
        <time>2021-05-20T09:25:37.572Z</time>
      </trkpt>
      <trkpt lat="48.68083" lon="2.05456">
        <ele>158</ele>
        <time>2021-05-20T09:25:38.572Z</time>
      </trkpt>
      <trkpt lat="48.68084" lon="2.05457">
        <ele>158</ele>
        <time>2021-05-20T09:25:39.572Z</time>
      </trkpt>
      <trkpt lat="48.68084" lon="2.05458">
        <ele>158</ele>
        <time>2021-05-20T09:25:40.572Z</time>
      </trkpt>
      <trkpt lat="48.68085" lon="2.05459">
        <ele>158</ele>
        <time>2021-05-20T09:25:41.572Z</time>
      </trkpt>
      <trkpt lat="48.68086" lon="2.0546">
        <ele>158</ele>
        <time>2021-05-20T09:25:42.572Z</time>
      </trkpt>
      <trkpt lat="48.68087" lon="2.05461">
        <ele>158</ele>
        <time>2021-05-20T09:25:43.572Z</time>
      </trkpt>
      <trkpt lat="48.68088" lon="2.05462">
        <ele>158</ele>
        <time>2021-05-20T09:25:44.572Z</time>
      </trkpt>
      <trkpt lat="48.68089" lon="2.05463">
        <ele>158</ele>
        <time>2021-05-20T09:25:45.572Z</time>
      </trkpt>
      <trkpt lat="48.6809" lon="2.05464">
        <ele>158</ele>
        <time>2021-05-20T09:25:46.572Z</time>
      </trkpt>
      <trkpt lat="48.68091" lon="2.05465">
        <ele>158</ele>
        <time>2021-05-20T09:25:47.572Z</time>
      </trkpt>
      <trkpt lat="48.68092" lon="2.05465">
        <ele>158</ele>
        <time>2021-05-20T09:25:48.572Z</time>
      </trkpt>
      <trkpt lat="48.68093" lon="2.05466">
        <ele>158</ele>
        <time>2021-05-20T09:25:49.572Z</time>
      </trkpt>
      <trkpt lat="48.68094" lon="2.05467">
        <ele>157</ele>
        <time>2021-05-20T09:25:50.572Z</time>
      </trkpt>
      <trkpt lat="48.68096" lon="2.05468">
        <ele>157</ele>
        <time>2021-05-20T09:25:51.572Z</time>
      </trkpt>
      <trkpt lat="48.68097" lon="2.05469">
        <ele>157</ele>
        <time>2021-05-20T09:25:52.572Z</time>
      </trkpt>
      <trkpt lat="48.68098" lon="2.05469">
        <ele>157</ele>
        <time>2021-05-20T09:25:53.572Z</time>
      </trkpt>
      <trkpt lat="48.68099" lon="2.0547">
        <ele>157</ele>
        <time>2021-05-20T09:25:54.572Z</time>
      </trkpt>
      <trkpt lat="48.681" lon="2.05471">
        <ele>157</ele>
        <time>2021-05-20T09:25:55.572Z</time>
      </trkpt>
      <trkpt lat="48.68101" lon="2.05472">
        <ele>158</ele>
        <time>2021-05-20T09:25:56.572Z</time>
      </trkpt>
      <trkpt lat="48.68102" lon="2.05473">
        <ele>158</ele>
        <time>2021-05-20T09:25:57.572Z</time>
      </trkpt>
      <trkpt lat="48.68103" lon="2.05474">
        <ele>158</ele>
        <time>2021-05-20T09:25:58.572Z</time>
      </trkpt>
      <trkpt lat="48.68104" lon="2.05475">
        <ele>158</ele>
        <time>2021-05-20T09:25:59.572Z</time>
      </trkpt>
      <trkpt lat="48.68104" lon="2.05477">
        <ele>158</ele>
        <time>2021-05-20T09:26:00.572Z</time>
      </trkpt>
      <trkpt lat="48.68105" lon="2.05478">
        <ele>158</ele>
        <time>2021-05-20T09:26:01.572Z</time>
      </trkpt>
      <trkpt lat="48.68105" lon="2.05479">
        <ele>158</ele>
        <time>2021-05-20T09:26:02.572Z</time>
      </trkpt>
      <trkpt lat="48.68106" lon="2.0548">
        <ele>158</ele>
        <time>2021-05-20T09:26:03.572Z</time>
      </trkpt>
      <trkpt lat="48.68107" lon="2.05481">
        <ele>158</ele>
        <time>2021-05-20T09:26:04.572Z</time>
      </trkpt>
      <trkpt lat="48.68109" lon="2.05482">
        <ele>158</ele>
        <time>2021-05-20T09:26:05.572Z</time>
      </trkpt>
      <trkpt lat="48.6811" lon="2.05483">
        <ele>158</ele>
        <time>2021-05-20T09:26:23.575Z</time>
      </trkpt>
      <trkpt lat="48.68112" lon="2.05484">
        <ele>158</ele>
        <time>2021-05-20T09:26:24.575Z</time>
      </trkpt>
      <trkpt lat="48.68113" lon="2.05484">
        <ele>158</ele>
        <time>2021-05-20T09:26:25.575Z</time>
      </trkpt>
      <trkpt lat="48.68114" lon="2.05485">
        <ele>158</ele>
        <time>2021-05-20T09:26:29.829Z</time>
      </trkpt>
      <trkpt lat="48.68116" lon="2.05486">
        <ele>157</ele>
        <time>2021-05-20T09:26:30.829Z</time>
      </trkpt>
      <trkpt lat="48.68117" lon="2.05487">
        <ele>157</ele>
        <time>2021-05-20T09:26:31.829Z</time>
      </trkpt>
      <trkpt lat="48.68118" lon="2.05488">
        <ele>157</ele>
        <time>2021-05-20T09:26:32.829Z</time>
      </trkpt>
      <trkpt lat="48.68119" lon="2.05489">
        <ele>157</ele>
        <time>2021-05-20T09:26:33.829Z</time>
      </trkpt>
      <trkpt lat="48.68121" lon="2.0549">
        <ele>157</ele>
        <time>2021-05-20T09:26:34.829Z</time>
      </trkpt>
      <trkpt lat="48.68122" lon="2.05491">
        <ele>157</ele>
        <time>2021-05-20T09:26:35.829Z</time>
      </trkpt>
      <trkpt lat="48.68123" lon="2.05492">
        <ele>157</ele>
        <time>2021-05-20T09:26:36.829Z</time>
      </trkpt>
      <trkpt lat="48.68124" lon="2.05492">
        <ele>157</ele>
        <time>2021-05-20T09:26:37.829Z</time>
      </trkpt>
      <trkpt lat="48.68124" lon="2.05493">
        <ele>157</ele>
        <time>2021-05-20T09:26:38.829Z</time>
      </trkpt>
      <trkpt lat="48.68125" lon="2.05494">
        <ele>157</ele>
        <time>2021-05-20T09:26:39.829Z</time>
      </trkpt>
      <trkpt lat="48.68125" lon="2.05495">
        <ele>157</ele>
        <time>2021-05-20T09:26:40.829Z</time>
      </trkpt>
      <trkpt lat="48.68126" lon="2.05496">
        <ele>157</ele>
        <time>2021-05-20T09:26:41.829Z</time>
      </trkpt>
      <trkpt lat="48.68126" lon="2.05497">
        <ele>157</ele>
        <time>2021-05-20T09:26:42.829Z</time>
      </trkpt>
      <trkpt lat="48.68127" lon="2.05498">
        <ele>156</ele>
        <time>2021-05-20T09:26:43.829Z</time>
      </trkpt>
      <trkpt lat="48.68128" lon="2.05499">
        <ele>156</ele>
        <time>2021-05-20T09:26:44.829Z</time>
      </trkpt>
      <trkpt lat="48.68128" lon="2.055">
        <ele>156</ele>
        <time>2021-05-20T09:26:45.829Z</time>
      </trkpt>
      <trkpt lat="48.68129" lon="2.05501">
        <ele>156</ele>
        <time>2021-05-20T09:26:46.829Z</time>
      </trkpt>
      <trkpt lat="48.6813" lon="2.05503">
        <ele>156</ele>
        <time>2021-05-20T09:26:47.829Z</time>
      </trkpt>
      <trkpt lat="48.68131" lon="2.05504">
        <ele>156</ele>
        <time>2021-05-20T09:26:48.829Z</time>
      </trkpt>
      <trkpt lat="48.68132" lon="2.05505">
        <ele>155</ele>
        <time>2021-05-20T09:26:49.829Z</time>
      </trkpt>
      <trkpt lat="48.68133" lon="2.05505">
        <ele>155</ele>
        <time>2021-05-20T09:26:50.829Z</time>
      </trkpt>
      <trkpt lat="48.68134" lon="2.05506">
        <ele>155</ele>
        <time>2021-05-20T09:26:51.829Z</time>
      </trkpt>
      <trkpt lat="48.68136" lon="2.05507">
        <ele>155</ele>
        <time>2021-05-20T09:26:52.829Z</time>
      </trkpt>
      <trkpt lat="48.68137" lon="2.05508">
        <ele>155</ele>
        <time>2021-05-20T09:26:53.829Z</time>
      </trkpt>
      <trkpt lat="48.68137" lon="2.05509">
        <ele>155</ele>
        <time>2021-05-20T09:26:54.829Z</time>
      </trkpt>
      <trkpt lat="48.68138" lon="2.0551">
        <ele>155</ele>
        <time>2021-05-20T09:26:55.829Z</time>
      </trkpt>
      <trkpt lat="48.68139" lon="2.05512">
        <ele>155</ele>
        <time>2021-05-20T09:26:56.829Z</time>
      </trkpt>
      <trkpt lat="48.6814" lon="2.05513">
        <ele>155</ele>
        <time>2021-05-20T09:26:57.829Z</time>
      </trkpt>
      <trkpt lat="48.68141" lon="2.05514">
        <ele>155</ele>
        <time>2021-05-20T09:26:58.829Z</time>
      </trkpt>
      <trkpt lat="48.68142" lon="2.05515">
        <ele>154</ele>
        <time>2021-05-20T09:26:59.829Z</time>
      </trkpt>
      <trkpt lat="48.68143" lon="2.05516">
        <ele>154</ele>
        <time>2021-05-20T09:27:00.829Z</time>
      </trkpt>
      <trkpt lat="48.68144" lon="2.05517">
        <ele>154</ele>
        <time>2021-05-20T09:27:01.829Z</time>
      </trkpt>
      <trkpt lat="48.68144" lon="2.05518">
        <ele>154</ele>
        <time>2021-05-20T09:27:02.829Z</time>
      </trkpt>
      <trkpt lat="48.68145" lon="2.05519">
        <ele>154</ele>
        <time>2021-05-20T09:27:03.829Z</time>
      </trkpt>
      <trkpt lat="48.68146" lon="2.0552">
        <ele>154</ele>
        <time>2021-05-20T09:27:04.829Z</time>
      </trkpt>
      <trkpt lat="48.68148" lon="2.05522">
        <ele>154</ele>
        <time>2021-05-20T09:27:05.829Z</time>
      </trkpt>
      <trkpt lat="48.68149" lon="2.05523">
        <ele>153</ele>
        <time>2021-05-20T09:27:06.829Z</time>
      </trkpt>
      <trkpt lat="48.6815" lon="2.05524">
        <ele>153</ele>
        <time>2021-05-20T09:27:07.829Z</time>
      </trkpt>
      <trkpt lat="48.68152" lon="2.05525">
        <ele>153</ele>
        <time>2021-05-20T09:27:08.829Z</time>
      </trkpt>
      <trkpt lat="48.68153" lon="2.05526">
        <ele>153</ele>
        <time>2021-05-20T09:27:09.829Z</time>
      </trkpt>
      <trkpt lat="48.68154" lon="2.05527">
        <ele>153</ele>
        <time>2021-05-20T09:27:10.829Z</time>
      </trkpt>
      <trkpt lat="48.68155" lon="2.05528">
        <ele>152</ele>
        <time>2021-05-20T09:27:11.829Z</time>
      </trkpt>
      <trkpt lat="48.68157" lon="2.05529">
        <ele>152</ele>
        <time>2021-05-20T09:27:12.829Z</time>
      </trkpt>
      <trkpt lat="48.68159" lon="2.0553">
        <ele>152</ele>
        <time>2021-05-20T09:27:13.829Z</time>
      </trkpt>
      <trkpt lat="48.6816" lon="2.05532">
        <ele>152</ele>
        <time>2021-05-20T09:27:14.829Z</time>
      </trkpt>
      <trkpt lat="48.68162" lon="2.05533">
        <ele>152</ele>
        <time>2021-05-20T09:27:15.829Z</time>
      </trkpt>
      <trkpt lat="48.68163" lon="2.05534">
        <ele>152</ele>
        <time>2021-05-20T09:27:16.829Z</time>
      </trkpt>
      <trkpt lat="48.68165" lon="2.05536">
        <ele>152</ele>
        <time>2021-05-20T09:27:17.829Z</time>
      </trkpt>
      <trkpt lat="48.68166" lon="2.05537">
        <ele>152</ele>
        <time>2021-05-20T09:27:18.829Z</time>
      </trkpt>
      <trkpt lat="48.68167" lon="2.05538">
        <ele>152</ele>
        <time>2021-05-20T09:27:19.829Z</time>
      </trkpt>
      <trkpt lat="48.68169" lon="2.05539">
        <ele>152</ele>
        <time>2021-05-20T09:27:20.829Z</time>
      </trkpt>
      <trkpt lat="48.6817" lon="2.05541">
        <ele>152</ele>
        <time>2021-05-20T09:27:21.829Z</time>
      </trkpt>
      <trkpt lat="48.68171" lon="2.05542">
        <ele>152</ele>
        <time>2021-05-20T09:27:22.829Z</time>
      </trkpt>
      <trkpt lat="48.68173" lon="2.05543">
        <ele>152</ele>
        <time>2021-05-20T09:27:23.829Z</time>
      </trkpt>
      <trkpt lat="48.68174" lon="2.05544">
        <ele>152</ele>
        <time>2021-05-20T09:27:24.829Z</time>
      </trkpt>
      <trkpt lat="48.68175" lon="2.05545">
        <ele>152</ele>
        <time>2021-05-20T09:27:25.829Z</time>
      </trkpt>
      <trkpt lat="48.68176" lon="2.05546">
        <ele>151</ele>
        <time>2021-05-20T09:27:26.829Z</time>
      </trkpt>
      <trkpt lat="48.68177" lon="2.05548">
        <ele>151</ele>
        <time>2021-05-20T09:27:27.829Z</time>
      </trkpt>
      <trkpt lat="48.68178" lon="2.05549">
        <ele>151</ele>
        <time>2021-05-20T09:27:28.829Z</time>
      </trkpt>
      <trkpt lat="48.68179" lon="2.05551">
        <ele>151</ele>
        <time>2021-05-20T09:27:29.829Z</time>
      </trkpt>
      <trkpt lat="48.68179" lon="2.05552">
        <ele>151</ele>
        <time>2021-05-20T09:27:30.829Z</time>
      </trkpt>
      <trkpt lat="48.6818" lon="2.05553">
        <ele>151</ele>
        <time>2021-05-20T09:27:31.829Z</time>
      </trkpt>
      <trkpt lat="48.68181" lon="2.05555">
        <ele>151</ele>
        <time>2021-05-20T09:27:32.829Z</time>
      </trkpt>
      <trkpt lat="48.68181" lon="2.05556">
        <ele>151</ele>
        <time>2021-05-20T09:27:33.829Z</time>
      </trkpt>
      <trkpt lat="48.68182" lon="2.05558">
        <ele>151</ele>
        <time>2021-05-20T09:27:34.829Z</time>
      </trkpt>
      <trkpt lat="48.68183" lon="2.05559">
        <ele>151</ele>
        <time>2021-05-20T09:27:35.829Z</time>
      </trkpt>
      <trkpt lat="48.68183" lon="2.05561">
        <ele>151</ele>
        <time>2021-05-20T09:27:36.829Z</time>
      </trkpt>
      <trkpt lat="48.68184" lon="2.05563">
        <ele>151</ele>
        <time>2021-05-20T09:27:37.829Z</time>
      </trkpt>
      <trkpt lat="48.68184" lon="2.05564">
        <ele>151</ele>
        <time>2021-05-20T09:27:38.829Z</time>
      </trkpt>
      <trkpt lat="48.68185" lon="2.05566">
        <ele>151</ele>
        <time>2021-05-20T09:27:39.829Z</time>
      </trkpt>
      <trkpt lat="48.68185" lon="2.05567">
        <ele>151</ele>
        <time>2021-05-20T09:27:40.829Z</time>
      </trkpt>
      <trkpt lat="48.68186" lon="2.05569">
        <ele>151</ele>
        <time>2021-05-20T09:27:41.829Z</time>
      </trkpt>
      <trkpt lat="48.68187" lon="2.0557">
        <ele>151</ele>
        <time>2021-05-20T09:27:42.829Z</time>
      </trkpt>
      <trkpt lat="48.68187" lon="2.05572">
        <ele>151</ele>
        <time>2021-05-20T09:27:43.829Z</time>
      </trkpt>
      <trkpt lat="48.68188" lon="2.05573">
        <ele>151</ele>
        <time>2021-05-20T09:27:44.829Z</time>
      </trkpt>
      <trkpt lat="48.68189" lon="2.05575">
        <ele>151</ele>
        <time>2021-05-20T09:27:45.829Z</time>
      </trkpt>
      <trkpt lat="48.6819" lon="2.05576">
        <ele>151</ele>
        <time>2021-05-20T09:27:46.829Z</time>
      </trkpt>
      <trkpt lat="48.68191" lon="2.05577">
        <ele>151</ele>
        <time>2021-05-20T09:27:47.829Z</time>
      </trkpt>
      <trkpt lat="48.68191" lon="2.05578">
        <ele>151</ele>
        <time>2021-05-20T09:27:48.829Z</time>
      </trkpt>
      <trkpt lat="48.68192" lon="2.05579">
        <ele>151</ele>
        <time>2021-05-20T09:27:49.829Z</time>
      </trkpt>
      <trkpt lat="48.68193" lon="2.05581">
        <ele>151</ele>
        <time>2021-05-20T09:27:50.829Z</time>
      </trkpt>
      <trkpt lat="48.68194" lon="2.05582">
        <ele>150</ele>
        <time>2021-05-20T09:27:51.829Z</time>
      </trkpt>
      <trkpt lat="48.68194" lon="2.05584">
        <ele>150</ele>
        <time>2021-05-20T09:27:52.829Z</time>
      </trkpt>
      <trkpt lat="48.68195" lon="2.05585">
        <ele>150</ele>
        <time>2021-05-20T09:27:53.829Z</time>
      </trkpt>
      <trkpt lat="48.68195" lon="2.05586">
        <ele>150</ele>
        <time>2021-05-20T09:27:54.829Z</time>
      </trkpt>
      <trkpt lat="48.68195" lon="2.05587">
        <ele>150</ele>
        <time>2021-05-20T09:27:55.829Z</time>
      </trkpt>
      <trkpt lat="48.68196" lon="2.05589">
        <ele>150</ele>
        <time>2021-05-20T09:27:56.829Z</time>
      </trkpt>
      <trkpt lat="48.68196" lon="2.0559">
        <ele>150</ele>
        <time>2021-05-20T09:27:57.829Z</time>
      </trkpt>
      <trkpt lat="48.68197" lon="2.05591">
        <ele>150</ele>
        <time>2021-05-20T09:27:58.829Z</time>
      </trkpt>
      <trkpt lat="48.68198" lon="2.05593">
        <ele>150</ele>
        <time>2021-05-20T09:27:59.829Z</time>
      </trkpt>
      <trkpt lat="48.68199" lon="2.05594">
        <ele>150</ele>
        <time>2021-05-20T09:28:00.829Z</time>
      </trkpt>
      <trkpt lat="48.682" lon="2.05595">
        <ele>150</ele>
        <time>2021-05-20T09:28:01.829Z</time>
      </trkpt>
      <trkpt lat="48.682" lon="2.05597">
        <ele>149</ele>
        <time>2021-05-20T09:28:02.829Z</time>
      </trkpt>
      <trkpt lat="48.68201" lon="2.05598">
        <ele>149</ele>
        <time>2021-05-20T09:28:03.829Z</time>
      </trkpt>
      <trkpt lat="48.68202" lon="2.05599">
        <ele>149</ele>
        <time>2021-05-20T09:28:04.829Z</time>
      </trkpt>
      <trkpt lat="48.68203" lon="2.05601">
        <ele>149</ele>
        <time>2021-05-20T09:28:05.829Z</time>
      </trkpt>
      <trkpt lat="48.68205" lon="2.05602">
        <ele>149</ele>
        <time>2021-05-20T09:28:06.829Z</time>
      </trkpt>
      <trkpt lat="48.68206" lon="2.05604">
        <ele>149</ele>
        <time>2021-05-20T09:28:07.829Z</time>
      </trkpt>
      <trkpt lat="48.68208" lon="2.05605">
        <ele>149</ele>
        <time>2021-05-20T09:28:08.829Z</time>
      </trkpt>
      <trkpt lat="48.68208" lon="2.05607">
        <ele>148</ele>
        <time>2021-05-20T09:28:09.829Z</time>
      </trkpt>
      <trkpt lat="48.68209" lon="2.05608">
        <ele>148</ele>
        <time>2021-05-20T09:28:10.829Z</time>
      </trkpt>
      <trkpt lat="48.6821" lon="2.05609">
        <ele>148</ele>
        <time>2021-05-20T09:28:11.829Z</time>
      </trkpt>
      <trkpt lat="48.68211" lon="2.05611">
        <ele>148</ele>
        <time>2021-05-20T09:28:12.829Z</time>
      </trkpt>
      <trkpt lat="48.68211" lon="2.05612">
        <ele>148</ele>
        <time>2021-05-20T09:28:13.829Z</time>
      </trkpt>
      <trkpt lat="48.68212" lon="2.05613">
        <ele>148</ele>
        <time>2021-05-20T09:28:14.829Z</time>
      </trkpt>
      <trkpt lat="48.68212" lon="2.05614">
        <ele>148</ele>
        <time>2021-05-20T09:28:15.829Z</time>
      </trkpt>
      <trkpt lat="48.68213" lon="2.05616">
        <ele>148</ele>
        <time>2021-05-20T09:28:16.829Z</time>
      </trkpt>
      <trkpt lat="48.68213" lon="2.05617">
        <ele>148</ele>
        <time>2021-05-20T09:28:17.829Z</time>
      </trkpt>
      <trkpt lat="48.68214" lon="2.05619">
        <ele>148</ele>
        <time>2021-05-20T09:28:18.829Z</time>
      </trkpt>
      <trkpt lat="48.68214" lon="2.0562">
        <ele>148</ele>
        <time>2021-05-20T09:28:19.829Z</time>
      </trkpt>
      <trkpt lat="48.68215" lon="2.05622">
        <ele>148</ele>
        <time>2021-05-20T09:28:20.829Z</time>
      </trkpt>
      <trkpt lat="48.68215" lon="2.05624">
        <ele>148</ele>
        <time>2021-05-20T09:28:21.829Z</time>
      </trkpt>
      <trkpt lat="48.68216" lon="2.05626">
        <ele>148</ele>
        <time>2021-05-20T09:28:22.829Z</time>
      </trkpt>
      <trkpt lat="48.68216" lon="2.05627">
        <ele>148</ele>
        <time>2021-05-20T09:28:23.829Z</time>
      </trkpt>
      <trkpt lat="48.68217" lon="2.05629">
        <ele>148</ele>
        <time>2021-05-20T09:28:24.829Z</time>
      </trkpt>
      <trkpt lat="48.68218" lon="2.05631">
        <ele>148</ele>
        <time>2021-05-20T09:28:25.829Z</time>
      </trkpt>
      <trkpt lat="48.68218" lon="2.05632">
        <ele>148</ele>
        <time>2021-05-20T09:28:26.829Z</time>
      </trkpt>
      <trkpt lat="48.68219" lon="2.05634">
        <ele>148</ele>
        <time>2021-05-20T09:28:27.829Z</time>
      </trkpt>
      <trkpt lat="48.6822" lon="2.05635">
        <ele>148</ele>
        <time>2021-05-20T09:28:28.829Z</time>
      </trkpt>
      <trkpt lat="48.68221" lon="2.05637">
        <ele>148</ele>
        <time>2021-05-20T09:28:29.829Z</time>
      </trkpt>
      <trkpt lat="48.68222" lon="2.05639">
        <ele>148</ele>
        <time>2021-05-20T09:28:30.829Z</time>
      </trkpt>
      <trkpt lat="48.68222" lon="2.0564">
        <ele>148</ele>
        <time>2021-05-20T09:28:31.829Z</time>
      </trkpt>
      <trkpt lat="48.68223" lon="2.05642">
        <ele>148</ele>
        <time>2021-05-20T09:28:32.829Z</time>
      </trkpt>
      <trkpt lat="48.68223" lon="2.05644">
        <ele>148</ele>
        <time>2021-05-20T09:28:33.829Z</time>
      </trkpt>
      <trkpt lat="48.68224" lon="2.05646">
        <ele>148</ele>
        <time>2021-05-20T09:28:34.829Z</time>
      </trkpt>
      <trkpt lat="48.68224" lon="2.05647">
        <ele>148</ele>
        <time>2021-05-20T09:28:35.829Z</time>
      </trkpt>
      <trkpt lat="48.68225" lon="2.05649">
        <ele>148</ele>
        <time>2021-05-20T09:28:36.829Z</time>
      </trkpt>
      <trkpt lat="48.68225" lon="2.05651">
        <ele>148</ele>
        <time>2021-05-20T09:28:37.829Z</time>
      </trkpt>
      <trkpt lat="48.68226" lon="2.05652">
        <ele>148</ele>
        <time>2021-05-20T09:28:38.829Z</time>
      </trkpt>
      <trkpt lat="48.68227" lon="2.05654">
        <ele>148</ele>
        <time>2021-05-20T09:28:39.829Z</time>
      </trkpt>
      <trkpt lat="48.68227" lon="2.05655">
        <ele>148</ele>
        <time>2021-05-20T09:28:40.829Z</time>
      </trkpt>
      <trkpt lat="48.68228" lon="2.05657">
        <ele>147</ele>
        <time>2021-05-20T09:28:41.829Z</time>
      </trkpt>
      <trkpt lat="48.68229" lon="2.05658">
        <ele>147</ele>
        <time>2021-05-20T09:28:42.829Z</time>
      </trkpt>
      <trkpt lat="48.68229" lon="2.0566">
        <ele>147</ele>
        <time>2021-05-20T09:28:43.829Z</time>
      </trkpt>
      <trkpt lat="48.6823" lon="2.05661">
        <ele>146</ele>
        <time>2021-05-20T09:28:44.829Z</time>
      </trkpt>
      <trkpt lat="48.6823" lon="2.05663">
        <ele>146</ele>
        <time>2021-05-20T09:28:45.829Z</time>
      </trkpt>
      <trkpt lat="48.6823" lon="2.05665">
        <ele>146</ele>
        <time>2021-05-20T09:28:46.829Z</time>
      </trkpt>
      <trkpt lat="48.68231" lon="2.05666">
        <ele>146</ele>
        <time>2021-05-20T09:28:47.829Z</time>
      </trkpt>
      <trkpt lat="48.68231" lon="2.05668">
        <ele>145</ele>
        <time>2021-05-20T09:28:48.829Z</time>
      </trkpt>
      <trkpt lat="48.68232" lon="2.05669">
        <ele>145</ele>
        <time>2021-05-20T09:28:49.829Z</time>
      </trkpt>
      <trkpt lat="48.68232" lon="2.05671">
        <ele>145</ele>
        <time>2021-05-20T09:28:50.829Z</time>
      </trkpt>
      <trkpt lat="48.68233" lon="2.05672">
        <ele>145</ele>
        <time>2021-05-20T09:28:51.829Z</time>
      </trkpt>
      <trkpt lat="48.68233" lon="2.05674">
        <ele>144</ele>
        <time>2021-05-20T09:28:52.829Z</time>
      </trkpt>
      <trkpt lat="48.68234" lon="2.05676">
        <ele>144</ele>
        <time>2021-05-20T09:28:53.829Z</time>
      </trkpt>
      <trkpt lat="48.68234" lon="2.05677">
        <ele>144</ele>
        <time>2021-05-20T09:28:54.829Z</time>
      </trkpt>
      <trkpt lat="48.68234" lon="2.05679">
        <ele>144</ele>
        <time>2021-05-20T09:28:55.829Z</time>
      </trkpt>
      <trkpt lat="48.68234" lon="2.05681">
        <ele>144</ele>
        <time>2021-05-20T09:28:56.829Z</time>
      </trkpt>
      <trkpt lat="48.68235" lon="2.05683">
        <ele>144</ele>
        <time>2021-05-20T09:28:57.829Z</time>
      </trkpt>
      <trkpt lat="48.68235" lon="2.05685">
        <ele>144</ele>
        <time>2021-05-20T09:28:58.829Z</time>
      </trkpt>
      <trkpt lat="48.68236" lon="2.05686">
        <ele>143</ele>
        <time>2021-05-20T09:28:59.829Z</time>
      </trkpt>
      <trkpt lat="48.68236" lon="2.05688">
        <ele>143</ele>
        <time>2021-05-20T09:29:00.829Z</time>
      </trkpt>
      <trkpt lat="48.68237" lon="2.0569">
        <ele>143</ele>
        <time>2021-05-20T09:29:01.829Z</time>
      </trkpt>
      <trkpt lat="48.68238" lon="2.05691">
        <ele>143</ele>
        <time>2021-05-20T09:29:02.829Z</time>
      </trkpt>
      <trkpt lat="48.68239" lon="2.05693">
        <ele>143</ele>
        <time>2021-05-20T09:29:03.829Z</time>
      </trkpt>
      <trkpt lat="48.6824" lon="2.05694">
        <ele>143</ele>
        <time>2021-05-20T09:29:04.829Z</time>
      </trkpt>
      <trkpt lat="48.68241" lon="2.05696">
        <ele>142</ele>
        <time>2021-05-20T09:29:05.829Z</time>
      </trkpt>
      <trkpt lat="48.68242" lon="2.05697">
        <ele>142</ele>
        <time>2021-05-20T09:29:06.829Z</time>
      </trkpt>
      <trkpt lat="48.68243" lon="2.05699">
        <ele>142</ele>
        <time>2021-05-20T09:29:07.829Z</time>
      </trkpt>
      <trkpt lat="48.68244" lon="2.057">
        <ele>142</ele>
        <time>2021-05-20T09:29:08.829Z</time>
      </trkpt>
      <trkpt lat="48.68245" lon="2.05702">
        <ele>142</ele>
        <time>2021-05-20T09:29:09.829Z</time>
      </trkpt>
      <trkpt lat="48.68246" lon="2.05704">
        <ele>142</ele>
        <time>2021-05-20T09:29:10.829Z</time>
      </trkpt>
      <trkpt lat="48.68247" lon="2.05706">
        <ele>142</ele>
        <time>2021-05-20T09:29:11.829Z</time>
      </trkpt>
      <trkpt lat="48.68248" lon="2.05708">
        <ele>141</ele>
        <time>2021-05-20T09:29:12.829Z</time>
      </trkpt>
      <trkpt lat="48.68248" lon="2.05709">
        <ele>141</ele>
        <time>2021-05-20T09:29:13.829Z</time>
      </trkpt>
      <trkpt lat="48.68249" lon="2.05711">
        <ele>141</ele>
        <time>2021-05-20T09:29:14.829Z</time>
      </trkpt>
      <trkpt lat="48.6825" lon="2.05713">
        <ele>141</ele>
        <time>2021-05-20T09:29:15.829Z</time>
      </trkpt>
      <trkpt lat="48.68251" lon="2.05715">
        <ele>141</ele>
        <time>2021-05-20T09:29:16.829Z</time>
      </trkpt>
      <trkpt lat="48.68251" lon="2.05716">
        <ele>141</ele>
        <time>2021-05-20T09:29:17.829Z</time>
      </trkpt>
      <trkpt lat="48.68252" lon="2.05718">
        <ele>141</ele>
        <time>2021-05-20T09:29:18.829Z</time>
      </trkpt>
      <trkpt lat="48.68253" lon="2.0572">
        <ele>141</ele>
        <time>2021-05-20T09:29:19.829Z</time>
      </trkpt>
      <trkpt lat="48.68253" lon="2.05722">
        <ele>140</ele>
        <time>2021-05-20T09:29:20.829Z</time>
      </trkpt>
      <trkpt lat="48.68254" lon="2.05724">
        <ele>140</ele>
        <time>2021-05-20T09:29:21.829Z</time>
      </trkpt>
      <trkpt lat="48.68254" lon="2.05726">
        <ele>140</ele>
        <time>2021-05-20T09:29:22.829Z</time>
      </trkpt>
      <trkpt lat="48.68255" lon="2.05727">
        <ele>140</ele>
        <time>2021-05-20T09:29:23.829Z</time>
      </trkpt>
      <trkpt lat="48.68255" lon="2.05729">
        <ele>140</ele>
        <time>2021-05-20T09:29:24.829Z</time>
      </trkpt>
      <trkpt lat="48.68256" lon="2.0573">
        <ele>140</ele>
        <time>2021-05-20T09:29:25.829Z</time>
      </trkpt>
      <trkpt lat="48.68257" lon="2.05732">
        <ele>140</ele>
        <time>2021-05-20T09:29:26.829Z</time>
      </trkpt>
      <trkpt lat="48.68257" lon="2.05733">
        <ele>140</ele>
        <time>2021-05-20T09:29:27.829Z</time>
      </trkpt>
      <trkpt lat="48.68258" lon="2.05735">
        <ele>140</ele>
        <time>2021-05-20T09:29:28.829Z</time>
      </trkpt>
      <trkpt lat="48.68259" lon="2.05737">
        <ele>140</ele>
        <time>2021-05-20T09:29:29.829Z</time>
      </trkpt>
      <trkpt lat="48.68259" lon="2.05739">
        <ele>140</ele>
        <time>2021-05-20T09:29:30.829Z</time>
      </trkpt>
      <trkpt lat="48.6826" lon="2.0574">
        <ele>140</ele>
        <time>2021-05-20T09:29:31.829Z</time>
      </trkpt>
      <trkpt lat="48.6826" lon="2.05742">
        <ele>140</ele>
        <time>2021-05-20T09:29:32.829Z</time>
      </trkpt>
      <trkpt lat="48.68261" lon="2.05743">
        <ele>140</ele>
        <time>2021-05-20T09:29:33.829Z</time>
      </trkpt>
      <trkpt lat="48.68261" lon="2.05745">
        <ele>140</ele>
        <time>2021-05-20T09:29:34.829Z</time>
      </trkpt>
      <trkpt lat="48.68261" lon="2.05747">
        <ele>140</ele>
        <time>2021-05-20T09:29:35.829Z</time>
      </trkpt>
      <trkpt lat="48.68262" lon="2.05748">
        <ele>140</ele>
        <time>2021-05-20T09:29:36.829Z</time>
      </trkpt>
      <trkpt lat="48.68262" lon="2.0575">
        <ele>140</ele>
        <time>2021-05-20T09:29:37.829Z</time>
      </trkpt>
      <trkpt lat="48.68263" lon="2.05752">
        <ele>140</ele>
        <time>2021-05-20T09:29:38.829Z</time>
      </trkpt>
      <trkpt lat="48.68264" lon="2.05754">
        <ele>140</ele>
        <time>2021-05-20T09:29:39.829Z</time>
      </trkpt>
      <trkpt lat="48.68265" lon="2.05755">
        <ele>140</ele>
        <time>2021-05-20T09:29:40.829Z</time>
      </trkpt>
      <trkpt lat="48.68265" lon="2.05757">
        <ele>140</ele>
        <time>2021-05-20T09:29:41.829Z</time>
      </trkpt>
      <trkpt lat="48.68266" lon="2.05759">
        <ele>140</ele>
        <time>2021-05-20T09:29:42.829Z</time>
      </trkpt>
      <trkpt lat="48.68266" lon="2.0576">
        <ele>140</ele>
        <time>2021-05-20T09:29:43.829Z</time>
      </trkpt>
      <trkpt lat="48.68267" lon="2.05763">
        <ele>140</ele>
        <time>2021-05-20T09:29:44.829Z</time>
      </trkpt>
      <trkpt lat="48.68268" lon="2.05765">
        <ele>140</ele>
        <time>2021-05-20T09:29:45.829Z</time>
      </trkpt>
      <trkpt lat="48.6827" lon="2.05767">
        <ele>140</ele>
        <time>2021-05-20T09:29:46.829Z</time>
      </trkpt>
      <trkpt lat="48.68271" lon="2.05769">
        <ele>140</ele>
        <time>2021-05-20T09:29:47.829Z</time>
      </trkpt>
      <trkpt lat="48.68272" lon="2.05771">
        <ele>140</ele>
        <time>2021-05-20T09:29:48.829Z</time>
      </trkpt>
      <trkpt lat="48.68273" lon="2.05773">
        <ele>140</ele>
        <time>2021-05-20T09:29:49.829Z</time>
      </trkpt>
      <trkpt lat="48.68274" lon="2.05774">
        <ele>140</ele>
        <time>2021-05-20T09:29:50.829Z</time>
      </trkpt>
      <trkpt lat="48.68276" lon="2.05776">
        <ele>140</ele>
        <time>2021-05-20T09:29:51.829Z</time>
      </trkpt>
      <trkpt lat="48.68277" lon="2.05778">
        <ele>140</ele>
        <time>2021-05-20T09:29:52.829Z</time>
      </trkpt>
      <trkpt lat="48.68278" lon="2.0578">
        <ele>140</ele>
        <time>2021-05-20T09:29:53.829Z</time>
      </trkpt>
      <trkpt lat="48.68279" lon="2.05781">
        <ele>140</ele>
        <time>2021-05-20T09:29:54.829Z</time>
      </trkpt>
      <trkpt lat="48.6828" lon="2.05783">
        <ele>140</ele>
        <time>2021-05-20T09:29:55.829Z</time>
      </trkpt>
      <trkpt lat="48.68281" lon="2.05785">
        <ele>140</ele>
        <time>2021-05-20T09:29:56.829Z</time>
      </trkpt>
      <trkpt lat="48.68282" lon="2.05786">
        <ele>140</ele>
        <time>2021-05-20T09:29:57.829Z</time>
      </trkpt>
      <trkpt lat="48.68283" lon="2.05788">
        <ele>140</ele>
        <time>2021-05-20T09:29:58.829Z</time>
      </trkpt>
      <trkpt lat="48.68284" lon="2.05789">
        <ele>140</ele>
        <time>2021-05-20T09:29:59.829Z</time>
      </trkpt>
      <trkpt lat="48.68285" lon="2.05792">
        <ele>140</ele>
        <time>2021-05-20T09:30:00.829Z</time>
      </trkpt>
      <trkpt lat="48.68286" lon="2.05794">
        <ele>140</ele>
        <time>2021-05-20T09:30:01.829Z</time>
      </trkpt>
      <trkpt lat="48.68287" lon="2.05796">
        <ele>140</ele>
        <time>2021-05-20T09:30:02.829Z</time>
      </trkpt>
      <trkpt lat="48.68287" lon="2.05797">
        <ele>140</ele>
        <time>2021-05-20T09:30:03.829Z</time>
      </trkpt>
      <trkpt lat="48.68288" lon="2.05799">
        <ele>140</ele>
        <time>2021-05-20T09:30:04.829Z</time>
      </trkpt>
      <trkpt lat="48.68288" lon="2.058">
        <ele>140</ele>
        <time>2021-05-20T09:30:05.829Z</time>
      </trkpt>
      <trkpt lat="48.68289" lon="2.05801">
        <ele>140</ele>
        <time>2021-05-20T09:30:06.829Z</time>
      </trkpt>
      <trkpt lat="48.68289" lon="2.05803">
        <ele>140</ele>
        <time>2021-05-20T09:30:07.829Z</time>
      </trkpt>
      <trkpt lat="48.6829" lon="2.05805">
        <ele>140</ele>
        <time>2021-05-20T09:30:08.829Z</time>
      </trkpt>
      <trkpt lat="48.6829" lon="2.05806">
        <ele>140</ele>
        <time>2021-05-20T09:30:09.829Z</time>
      </trkpt>
      <trkpt lat="48.6829" lon="2.05808">
        <ele>140</ele>
        <time>2021-05-20T09:30:10.829Z</time>
      </trkpt>
      <trkpt lat="48.68291" lon="2.0581">
        <ele>140</ele>
        <time>2021-05-20T09:30:11.829Z</time>
      </trkpt>
      <trkpt lat="48.68291" lon="2.05812">
        <ele>140</ele>
        <time>2021-05-20T09:30:12.829Z</time>
      </trkpt>
      <trkpt lat="48.68291" lon="2.05813">
        <ele>140</ele>
        <time>2021-05-20T09:30:13.829Z</time>
      </trkpt>
      <trkpt lat="48.68292" lon="2.05815">
        <ele>140</ele>
        <time>2021-05-20T09:30:14.829Z</time>
      </trkpt>
      <trkpt lat="48.68292" lon="2.05817">
        <ele>140</ele>
        <time>2021-05-20T09:30:15.829Z</time>
      </trkpt>
      <trkpt lat="48.68292" lon="2.05819">
        <ele>140</ele>
        <time>2021-05-20T09:30:16.829Z</time>
      </trkpt>
      <trkpt lat="48.68293" lon="2.0582">
        <ele>140</ele>
        <time>2021-05-20T09:30:17.829Z</time>
      </trkpt>
      <trkpt lat="48.68293" lon="2.05822">
        <ele>140</ele>
        <time>2021-05-20T09:30:18.829Z</time>
      </trkpt>
      <trkpt lat="48.68293" lon="2.05824">
        <ele>140</ele>
        <time>2021-05-20T09:30:19.829Z</time>
      </trkpt>
      <trkpt lat="48.68293" lon="2.05826">
        <ele>140</ele>
        <time>2021-05-20T09:30:20.829Z</time>
      </trkpt>
      <trkpt lat="48.68294" lon="2.05827">
        <ele>140</ele>
        <time>2021-05-20T09:30:21.829Z</time>
      </trkpt>
      <trkpt lat="48.68295" lon="2.05829">
        <ele>140</ele>
        <time>2021-05-20T09:30:22.829Z</time>
      </trkpt>
      <trkpt lat="48.68295" lon="2.05831">
        <ele>140</ele>
        <time>2021-05-20T09:30:23.829Z</time>
      </trkpt>
      <trkpt lat="48.68295" lon="2.05833">
        <ele>140</ele>
        <time>2021-05-20T09:30:24.829Z</time>
      </trkpt>
      <trkpt lat="48.68296" lon="2.05835">
        <ele>140</ele>
        <time>2021-05-20T09:30:25.829Z</time>
      </trkpt>
      <trkpt lat="48.68297" lon="2.05837">
        <ele>140</ele>
        <time>2021-05-20T09:30:26.829Z</time>
      </trkpt>
      <trkpt lat="48.68298" lon="2.05839">
        <ele>140</ele>
        <time>2021-05-20T09:30:27.829Z</time>
      </trkpt>
      <trkpt lat="48.68299" lon="2.0584">
        <ele>140</ele>
        <time>2021-05-20T09:30:28.829Z</time>
      </trkpt>
      <trkpt lat="48.683" lon="2.05842">
        <ele>140</ele>
        <time>2021-05-20T09:30:29.829Z</time>
      </trkpt>
      <trkpt lat="48.68301" lon="2.05844">
        <ele>140</ele>
        <time>2021-05-20T09:30:30.829Z</time>
      </trkpt>
      <trkpt lat="48.68302" lon="2.05846">
        <ele>140</ele>
        <time>2021-05-20T09:30:31.829Z</time>
      </trkpt>
      <trkpt lat="48.68303" lon="2.05848">
        <ele>140</ele>
        <time>2021-05-20T09:30:32.829Z</time>
      </trkpt>
      <trkpt lat="48.68304" lon="2.0585">
        <ele>140</ele>
        <time>2021-05-20T09:30:33.829Z</time>
      </trkpt>
      <trkpt lat="48.68304" lon="2.05851">
        <ele>140</ele>
        <time>2021-05-20T09:30:34.829Z</time>
      </trkpt>
      <trkpt lat="48.68305" lon="2.05853">
        <ele>140</ele>
        <time>2021-05-20T09:30:35.829Z</time>
      </trkpt>
      <trkpt lat="48.68306" lon="2.05854">
        <ele>140</ele>
        <time>2021-05-20T09:30:36.829Z</time>
      </trkpt>
      <trkpt lat="48.68307" lon="2.05856">
        <ele>140</ele>
        <time>2021-05-20T09:30:37.829Z</time>
      </trkpt>
      <trkpt lat="48.68308" lon="2.05857">
        <ele>140</ele>
        <time>2021-05-20T09:30:38.829Z</time>
      </trkpt>
      <trkpt lat="48.68308" lon="2.05859">
        <ele>140</ele>
        <time>2021-05-20T09:30:39.829Z</time>
      </trkpt>
      <trkpt lat="48.68309" lon="2.0586">
        <ele>140</ele>
        <time>2021-05-20T09:30:40.829Z</time>
      </trkpt>
      <trkpt lat="48.6831" lon="2.05861">
        <ele>140</ele>
        <time>2021-05-20T09:30:41.829Z</time>
      </trkpt>
      <trkpt lat="48.6831" lon="2.05863">
        <ele>140</ele>
        <time>2021-05-20T09:30:42.829Z</time>
      </trkpt>
      <trkpt lat="48.68311" lon="2.05865">
        <ele>140</ele>
        <time>2021-05-20T09:30:43.829Z</time>
      </trkpt>
      <trkpt lat="48.68312" lon="2.05866">
        <ele>140</ele>
        <time>2021-05-20T09:30:44.829Z</time>
      </trkpt>
      <trkpt lat="48.68312" lon="2.05868">
        <ele>140</ele>
        <time>2021-05-20T09:30:45.829Z</time>
      </trkpt>
      <trkpt lat="48.68312" lon="2.0587">
        <ele>140</ele>
        <time>2021-05-20T09:30:46.829Z</time>
      </trkpt>
      <trkpt lat="48.68313" lon="2.05872">
        <ele>140</ele>
        <time>2021-05-20T09:30:47.829Z</time>
      </trkpt>
      <trkpt lat="48.68313" lon="2.05873">
        <ele>140</ele>
        <time>2021-05-20T09:30:48.829Z</time>
      </trkpt>
      <trkpt lat="48.68314" lon="2.05875">
        <ele>140</ele>
        <time>2021-05-20T09:30:49.829Z</time>
      </trkpt>
      <trkpt lat="48.68314" lon="2.05877">
        <ele>140</ele>
        <time>2021-05-20T09:30:50.829Z</time>
      </trkpt>
      <trkpt lat="48.68315" lon="2.05879">
        <ele>140</ele>
        <time>2021-05-20T09:30:51.829Z</time>
      </trkpt>
      <trkpt lat="48.68315" lon="2.05881">
        <ele>140</ele>
        <time>2021-05-20T09:30:52.829Z</time>
      </trkpt>
      <trkpt lat="48.68316" lon="2.05883">
        <ele>140</ele>
        <time>2021-05-20T09:30:53.829Z</time>
      </trkpt>
      <trkpt lat="48.68316" lon="2.05885">
        <ele>140</ele>
        <time>2021-05-20T09:30:54.829Z</time>
      </trkpt>
      <trkpt lat="48.68317" lon="2.05887">
        <ele>140</ele>
        <time>2021-05-20T09:30:55.829Z</time>
      </trkpt>
      <trkpt lat="48.68317" lon="2.05889">
        <ele>140</ele>
        <time>2021-05-20T09:31:33.838Z</time>
      </trkpt>
      <trkpt lat="48.68317" lon="2.05891">
        <ele>140</ele>
        <time>2021-05-20T09:31:34.838Z</time>
      </trkpt>
      <trkpt lat="48.68318" lon="2.05893">
        <ele>140</ele>
        <time>2021-05-20T09:31:35.838Z</time>
      </trkpt>
      <trkpt lat="48.68318" lon="2.05894">
        <ele>140</ele>
        <time>2021-05-20T09:31:36.838Z</time>
      </trkpt>
      <trkpt lat="48.68319" lon="2.05896">
        <ele>140</ele>
        <time>2021-05-20T09:31:37.838Z</time>
      </trkpt>
      <trkpt lat="48.68319" lon="2.05898">
        <ele>140</ele>
        <time>2021-05-20T09:31:38.838Z</time>
      </trkpt>
      <trkpt lat="48.6832" lon="2.059">
        <ele>140</ele>
        <time>2021-05-20T09:31:39.838Z</time>
      </trkpt>
      <trkpt lat="48.6832" lon="2.05901">
        <ele>140</ele>
        <time>2021-05-20T09:31:40.838Z</time>
      </trkpt>
      <trkpt lat="48.68321" lon="2.05903">
        <ele>140</ele>
        <time>2021-05-20T09:31:41.838Z</time>
      </trkpt>
      <trkpt lat="48.68321" lon="2.05905">
        <ele>140</ele>
        <time>2021-05-20T09:31:42.838Z</time>
      </trkpt>
      <trkpt lat="48.68322" lon="2.05907">
        <ele>140</ele>
        <time>2021-05-20T09:31:43.838Z</time>
      </trkpt>
      <trkpt lat="48.68322" lon="2.05908">
        <ele>140</ele>
        <time>2021-05-20T09:31:44.838Z</time>
      </trkpt>
      <trkpt lat="48.68323" lon="2.0591">
        <ele>140</ele>
        <time>2021-05-20T09:31:45.838Z</time>
      </trkpt>
      <trkpt lat="48.68323" lon="2.05912">
        <ele>140</ele>
        <time>2021-05-20T09:31:46.838Z</time>
      </trkpt>
      <trkpt lat="48.68323" lon="2.05914">
        <ele>140</ele>
        <time>2021-05-20T09:31:47.838Z</time>
      </trkpt>
      <trkpt lat="48.68323" lon="2.05915">
        <ele>140</ele>
        <time>2021-05-20T09:31:48.838Z</time>
      </trkpt>
      <trkpt lat="48.68324" lon="2.05916">
        <ele>141</ele>
        <time>2021-05-20T09:31:49.838Z</time>
      </trkpt>
      <trkpt lat="48.68324" lon="2.05918">
        <ele>141</ele>
        <time>2021-05-20T09:31:50.838Z</time>
      </trkpt>
      <trkpt lat="48.68324" lon="2.05919">
        <ele>141</ele>
        <time>2021-05-20T09:31:51.838Z</time>
      </trkpt>
      <trkpt lat="48.68324" lon="2.05921">
        <ele>141</ele>
        <time>2021-05-20T09:31:52.838Z</time>
      </trkpt>
      <trkpt lat="48.68325" lon="2.05923">
        <ele>140</ele>
        <time>2021-05-20T09:31:53.838Z</time>
      </trkpt>
      <trkpt lat="48.68325" lon="2.05925">
        <ele>140</ele>
        <time>2021-05-20T09:31:54.838Z</time>
      </trkpt>
      <trkpt lat="48.68326" lon="2.05927">
        <ele>140</ele>
        <time>2021-05-20T09:31:55.838Z</time>
      </trkpt>
      <trkpt lat="48.68326" lon="2.05929">
        <ele>140</ele>
        <time>2021-05-20T09:31:56.838Z</time>
      </trkpt>
      <trkpt lat="48.68327" lon="2.0593">
        <ele>139</ele>
        <time>2021-05-20T09:31:57.838Z</time>
      </trkpt>
      <trkpt lat="48.68327" lon="2.05932">
        <ele>139</ele>
        <time>2021-05-20T09:31:58.838Z</time>
      </trkpt>
      <trkpt lat="48.68328" lon="2.05933">
        <ele>139</ele>
        <time>2021-05-20T09:31:59.838Z</time>
      </trkpt>
      <trkpt lat="48.68329" lon="2.05935">
        <ele>138</ele>
        <time>2021-05-20T09:32:00.838Z</time>
      </trkpt>
      <trkpt lat="48.6833" lon="2.05937">
        <ele>138</ele>
        <time>2021-05-20T09:32:01.838Z</time>
      </trkpt>
      <trkpt lat="48.6833" lon="2.05938">
        <ele>138</ele>
        <time>2021-05-20T09:32:02.838Z</time>
      </trkpt>
      <trkpt lat="48.68331" lon="2.0594">
        <ele>138</ele>
        <time>2021-05-20T09:32:03.838Z</time>
      </trkpt>
      <trkpt lat="48.68331" lon="2.05942">
        <ele>138</ele>
        <time>2021-05-20T09:32:04.838Z</time>
      </trkpt>
      <trkpt lat="48.68331" lon="2.05944">
        <ele>137</ele>
        <time>2021-05-20T09:32:05.838Z</time>
      </trkpt>
      <trkpt lat="48.68332" lon="2.05945">
        <ele>137</ele>
        <time>2021-05-20T09:32:06.838Z</time>
      </trkpt>
      <trkpt lat="48.68332" lon="2.05946">
        <ele>137</ele>
        <time>2021-05-20T09:32:07.838Z</time>
      </trkpt>
      <trkpt lat="48.68332" lon="2.05948">
        <ele>137</ele>
        <time>2021-05-20T09:32:08.838Z</time>
      </trkpt>
      <trkpt lat="48.68333" lon="2.05949">
        <ele>137</ele>
        <time>2021-05-20T09:32:09.838Z</time>
      </trkpt>
      <trkpt lat="48.68334" lon="2.05951">
        <ele>137</ele>
        <time>2021-05-20T09:32:10.838Z</time>
      </trkpt>
      <trkpt lat="48.68334" lon="2.05952">
        <ele>137</ele>
        <time>2021-05-20T09:32:11.838Z</time>
      </trkpt>
      <trkpt lat="48.68335" lon="2.05954">
        <ele>136</ele>
        <time>2021-05-20T09:32:12.838Z</time>
      </trkpt>
      <trkpt lat="48.68336" lon="2.05956">
        <ele>136</ele>
        <time>2021-05-20T09:32:13.838Z</time>
      </trkpt>
      <trkpt lat="48.68336" lon="2.05957">
        <ele>136</ele>
        <time>2021-05-20T09:32:14.838Z</time>
      </trkpt>
      <trkpt lat="48.68337" lon="2.05959">
        <ele>137</ele>
        <time>2021-05-20T09:32:15.838Z</time>
      </trkpt>
      <trkpt lat="48.68338" lon="2.05961">
        <ele>137</ele>
        <time>2021-05-20T09:32:16.838Z</time>
      </trkpt>
      <trkpt lat="48.68339" lon="2.05963">
        <ele>137</ele>
        <time>2021-05-20T09:32:17.838Z</time>
      </trkpt>
      <trkpt lat="48.6834" lon="2.05964">
        <ele>137</ele>
        <time>2021-05-20T09:32:18.838Z</time>
      </trkpt>
      <trkpt lat="48.6834" lon="2.05966">
        <ele>137</ele>
        <time>2021-05-20T09:32:19.838Z</time>
      </trkpt>
      <trkpt lat="48.68341" lon="2.05968">
        <ele>137</ele>
        <time>2021-05-20T09:32:20.838Z</time>
      </trkpt>
      <trkpt lat="48.68342" lon="2.05969">
        <ele>137</ele>
        <time>2021-05-20T09:32:21.838Z</time>
      </trkpt>
      <trkpt lat="48.68343" lon="2.05971">
        <ele>137</ele>
        <time>2021-05-20T09:32:22.838Z</time>
      </trkpt>
      <trkpt lat="48.68344" lon="2.05973">
        <ele>137</ele>
        <time>2021-05-20T09:32:23.838Z</time>
      </trkpt>
      <trkpt lat="48.68344" lon="2.05975">
        <ele>136</ele>
        <time>2021-05-20T09:32:24.838Z</time>
      </trkpt>
      <trkpt lat="48.68345" lon="2.05977">
        <ele>136</ele>
        <time>2021-05-20T09:32:25.838Z</time>
      </trkpt>
      <trkpt lat="48.68346" lon="2.05979">
        <ele>136</ele>
        <time>2021-05-20T09:32:26.838Z</time>
      </trkpt>
      <trkpt lat="48.68347" lon="2.0598">
        <ele>136</ele>
        <time>2021-05-20T09:32:27.838Z</time>
      </trkpt>
      <trkpt lat="48.68348" lon="2.05982">
        <ele>136</ele>
        <time>2021-05-20T09:32:28.838Z</time>
      </trkpt>
      <trkpt lat="48.6835" lon="2.05983">
        <ele>136</ele>
        <time>2021-05-20T09:32:29.838Z</time>
      </trkpt>
      <trkpt lat="48.68351" lon="2.05985">
        <ele>136</ele>
        <time>2021-05-20T09:32:30.838Z</time>
      </trkpt>
      <trkpt lat="48.68352" lon="2.05987">
        <ele>136</ele>
        <time>2021-05-20T09:32:31.838Z</time>
      </trkpt>
      <trkpt lat="48.68353" lon="2.05988">
        <ele>136</ele>
        <time>2021-05-20T09:32:32.838Z</time>
      </trkpt>
      <trkpt lat="48.68355" lon="2.05989">
        <ele>136</ele>
        <time>2021-05-20T09:32:33.838Z</time>
      </trkpt>
      <trkpt lat="48.68356" lon="2.05991">
        <ele>136</ele>
        <time>2021-05-20T09:32:34.838Z</time>
      </trkpt>
      <trkpt lat="48.68357" lon="2.05992">
        <ele>136</ele>
        <time>2021-05-20T09:32:35.838Z</time>
      </trkpt>
      <trkpt lat="48.68358" lon="2.05994">
        <ele>136</ele>
        <time>2021-05-20T09:32:36.838Z</time>
      </trkpt>
      <trkpt lat="48.68359" lon="2.05995">
        <ele>136</ele>
        <time>2021-05-20T09:32:37.838Z</time>
      </trkpt>
      <trkpt lat="48.6836" lon="2.05997">
        <ele>136</ele>
        <time>2021-05-20T09:32:38.838Z</time>
      </trkpt>
      <trkpt lat="48.68362" lon="2.05999">
        <ele>135</ele>
        <time>2021-05-20T09:32:39.838Z</time>
      </trkpt>
      <trkpt lat="48.68363" lon="2.06001">
        <ele>135</ele>
        <time>2021-05-20T09:32:40.838Z</time>
      </trkpt>
      <trkpt lat="48.68364" lon="2.06002">
        <ele>135</ele>
        <time>2021-05-20T09:32:41.838Z</time>
      </trkpt>
      <trkpt lat="48.68366" lon="2.06004">
        <ele>135</ele>
        <time>2021-05-20T09:32:42.838Z</time>
      </trkpt>
      <trkpt lat="48.68367" lon="2.06006">
        <ele>135</ele>
        <time>2021-05-20T09:32:43.838Z</time>
      </trkpt>
      <trkpt lat="48.68368" lon="2.06008">
        <ele>135</ele>
        <time>2021-05-20T09:32:44.838Z</time>
      </trkpt>
      <trkpt lat="48.68369" lon="2.06009">
        <ele>135</ele>
        <time>2021-05-20T09:32:45.838Z</time>
      </trkpt>
      <trkpt lat="48.6837" lon="2.06011">
        <ele>135</ele>
        <time>2021-05-20T09:32:46.838Z</time>
      </trkpt>
      <trkpt lat="48.68372" lon="2.06012">
        <ele>135</ele>
        <time>2021-05-20T09:32:47.838Z</time>
      </trkpt>
      <trkpt lat="48.68373" lon="2.06013">
        <ele>135</ele>
        <time>2021-05-20T09:32:48.838Z</time>
      </trkpt>
      <trkpt lat="48.68374" lon="2.06015">
        <ele>135</ele>
        <time>2021-05-20T09:32:49.838Z</time>
      </trkpt>
      <trkpt lat="48.68375" lon="2.06016">
        <ele>135</ele>
        <time>2021-05-20T09:32:50.838Z</time>
      </trkpt>
      <trkpt lat="48.68376" lon="2.06017">
        <ele>135</ele>
        <time>2021-05-20T09:32:51.838Z</time>
      </trkpt>
      <trkpt lat="48.68377" lon="2.06019">
        <ele>135</ele>
        <time>2021-05-20T09:32:52.838Z</time>
      </trkpt>
      <trkpt lat="48.68379" lon="2.0602">
        <ele>135</ele>
        <time>2021-05-20T09:32:53.838Z</time>
      </trkpt>
      <trkpt lat="48.6838" lon="2.06021">
        <ele>135</ele>
        <time>2021-05-20T09:32:54.838Z</time>
      </trkpt>
      <trkpt lat="48.6838" lon="2.06022">
        <ele>135</ele>
        <time>2021-05-20T09:32:55.838Z</time>
      </trkpt>
      <trkpt lat="48.68381" lon="2.06023">
        <ele>135</ele>
        <time>2021-05-20T09:32:56.838Z</time>
      </trkpt>
      <trkpt lat="48.68382" lon="2.06025">
        <ele>134</ele>
        <time>2021-05-20T09:32:57.838Z</time>
      </trkpt>
      <trkpt lat="48.68383" lon="2.06026">
        <ele>134</ele>
        <time>2021-05-20T09:32:58.838Z</time>
      </trkpt>
      <trkpt lat="48.68384" lon="2.06027">
        <ele>134</ele>
        <time>2021-05-20T09:32:59.838Z</time>
      </trkpt>
      <trkpt lat="48.68384" lon="2.06027">
        <ele>134</ele>
        <time>2021-05-20T09:33:03.847Z</time>
      </trkpt>
      <trkpt lat="48.68385" lon="2.06027">
        <ele>134</ele>
        <time>2021-05-20T09:33:04.847Z</time>
      </trkpt>
      <trkpt lat="48.68386" lon="2.06027">
        <ele>134</ele>
        <time>2021-05-20T09:33:05.847Z</time>
      </trkpt>
      <trkpt lat="48.68386" lon="2.06028">
        <ele>134</ele>
        <time>2021-05-20T09:33:06.847Z</time>
      </trkpt>
      <trkpt lat="48.68386" lon="2.06029">
        <ele>134</ele>
        <time>2021-05-20T09:33:07.847Z</time>
      </trkpt>
      <trkpt lat="48.68386" lon="2.06031">
        <ele>134</ele>
        <time>2021-05-20T09:33:08.847Z</time>
      </trkpt>
      <trkpt lat="48.68386" lon="2.06032">
        <ele>134</ele>
        <time>2021-05-20T09:33:09.847Z</time>
      </trkpt>
      <trkpt lat="48.68386" lon="2.06034">
        <ele>134</ele>
        <time>2021-05-20T09:33:10.847Z</time>
      </trkpt>
      <trkpt lat="48.68386" lon="2.06036">
        <ele>134</ele>
        <time>2021-05-20T09:33:11.847Z</time>
      </trkpt>
      <trkpt lat="48.68386" lon="2.06037">
        <ele>133</ele>
        <time>2021-05-20T09:33:12.847Z</time>
      </trkpt>
      <trkpt lat="48.68386" lon="2.06038">
        <ele>133</ele>
        <time>2021-05-20T09:33:13.847Z</time>
      </trkpt>
      <trkpt lat="48.68386" lon="2.0604">
        <ele>133</ele>
        <time>2021-05-20T09:33:14.847Z</time>
      </trkpt>
      <trkpt lat="48.68386" lon="2.06041">
        <ele>133</ele>
        <time>2021-05-20T09:33:15.847Z</time>
      </trkpt>
      <trkpt lat="48.68386" lon="2.06042">
        <ele>133</ele>
        <time>2021-05-20T09:33:16.847Z</time>
      </trkpt>
      <trkpt lat="48.68386" lon="2.06042">
        <ele>133</ele>
        <time>2021-05-20T09:33:17.847Z</time>
      </trkpt>
      <trkpt lat="48.68386" lon="2.06043">
        <ele>133</ele>
        <time>2021-05-20T09:33:18.847Z</time>
      </trkpt>
      <trkpt lat="48.68388" lon="2.06049">
        <ele>132</ele>
        <time>2021-05-20T09:33:19.847Z</time>
      </trkpt>
      <trkpt lat="48.68389" lon="2.0605">
        <ele>132</ele>
        <time>2021-05-20T09:33:20.847Z</time>
      </trkpt>
      <trkpt lat="48.68389" lon="2.06051">
        <ele>132</ele>
        <time>2021-05-20T09:33:21.847Z</time>
      </trkpt>
      <trkpt lat="48.6839" lon="2.06052">
        <ele>132</ele>
        <time>2021-05-20T09:33:22.847Z</time>
      </trkpt>
      <trkpt lat="48.68391" lon="2.06053">
        <ele>132</ele>
        <time>2021-05-20T09:33:23.847Z</time>
      </trkpt>
      <trkpt lat="48.68392" lon="2.06054">
        <ele>132</ele>
        <time>2021-05-20T09:33:24.847Z</time>
      </trkpt>
      <trkpt lat="48.68393" lon="2.06055">
        <ele>131</ele>
        <time>2021-05-20T09:33:25.847Z</time>
      </trkpt>
      <trkpt lat="48.68395" lon="2.06056">
        <ele>131</ele>
        <time>2021-05-20T09:33:26.847Z</time>
      </trkpt>
      <trkpt lat="48.68396" lon="2.06057">
        <ele>131</ele>
        <time>2021-05-20T09:33:27.847Z</time>
      </trkpt>
      <trkpt lat="48.68397" lon="2.06058">
        <ele>131</ele>
        <time>2021-05-20T09:33:28.847Z</time>
      </trkpt>
      <trkpt lat="48.68398" lon="2.06058">
        <ele>131</ele>
        <time>2021-05-20T09:33:29.847Z</time>
      </trkpt>
      <trkpt lat="48.68399" lon="2.06059">
        <ele>131</ele>
        <time>2021-05-20T09:33:30.847Z</time>
      </trkpt>
      <trkpt lat="48.684" lon="2.0606">
        <ele>131</ele>
        <time>2021-05-20T09:33:31.847Z</time>
      </trkpt>
      <trkpt lat="48.68401" lon="2.0606">
        <ele>131</ele>
        <time>2021-05-20T09:33:32.847Z</time>
      </trkpt>
      <trkpt lat="48.68402" lon="2.06061">
        <ele>131</ele>
        <time>2021-05-20T09:33:33.847Z</time>
      </trkpt>
      <trkpt lat="48.68404" lon="2.06062">
        <ele>131</ele>
        <time>2021-05-20T09:33:34.847Z</time>
      </trkpt>
      <trkpt lat="48.68405" lon="2.06064">
        <ele>131</ele>
        <time>2021-05-20T09:33:35.847Z</time>
      </trkpt>
      <trkpt lat="48.68405" lon="2.06065">
        <ele>130</ele>
        <time>2021-05-20T09:33:36.847Z</time>
      </trkpt>
      <trkpt lat="48.68406" lon="2.06066">
        <ele>130</ele>
        <time>2021-05-20T09:33:37.847Z</time>
      </trkpt>
      <trkpt lat="48.68407" lon="2.06067">
        <ele>130</ele>
        <time>2021-05-20T09:33:38.847Z</time>
      </trkpt>
      <trkpt lat="48.68408" lon="2.06068">
        <ele>130</ele>
        <time>2021-05-20T09:33:39.847Z</time>
      </trkpt>
      <trkpt lat="48.68409" lon="2.06069">
        <ele>130</ele>
        <time>2021-05-20T09:33:40.847Z</time>
      </trkpt>
      <trkpt lat="48.6841" lon="2.0607">
        <ele>130</ele>
        <time>2021-05-20T09:33:41.847Z</time>
      </trkpt>
      <trkpt lat="48.68412" lon="2.06072">
        <ele>130</ele>
        <time>2021-05-20T09:33:42.847Z</time>
      </trkpt>
      <trkpt lat="48.68413" lon="2.06073">
        <ele>130</ele>
        <time>2021-05-20T09:33:43.847Z</time>
      </trkpt>
      <trkpt lat="48.68414" lon="2.06074">
        <ele>131</ele>
        <time>2021-05-20T09:33:44.847Z</time>
      </trkpt>
      <trkpt lat="48.68415" lon="2.06076">
        <ele>131</ele>
        <time>2021-05-20T09:33:45.847Z</time>
      </trkpt>
      <trkpt lat="48.68416" lon="2.06077">
        <ele>131</ele>
        <time>2021-05-20T09:33:46.847Z</time>
      </trkpt>
      <trkpt lat="48.68417" lon="2.06078">
        <ele>131</ele>
        <time>2021-05-20T09:33:47.847Z</time>
      </trkpt>
      <trkpt lat="48.68419" lon="2.0608">
        <ele>131</ele>
        <time>2021-05-20T09:33:48.847Z</time>
      </trkpt>
      <trkpt lat="48.6842" lon="2.06081">
        <ele>131</ele>
        <time>2021-05-20T09:33:49.847Z</time>
      </trkpt>
      <trkpt lat="48.68421" lon="2.06082">
        <ele>132</ele>
        <time>2021-05-20T09:33:50.847Z</time>
      </trkpt>
      <trkpt lat="48.68423" lon="2.06084">
        <ele>132</ele>
        <time>2021-05-20T09:33:51.847Z</time>
      </trkpt>
      <trkpt lat="48.68424" lon="2.06086">
        <ele>132</ele>
        <time>2021-05-20T09:33:52.847Z</time>
      </trkpt>
      <trkpt lat="48.68425" lon="2.06087">
        <ele>132</ele>
        <time>2021-05-20T09:33:53.847Z</time>
      </trkpt>
      <trkpt lat="48.68426" lon="2.06088">
        <ele>132</ele>
        <time>2021-05-20T09:33:54.847Z</time>
      </trkpt>
      <trkpt lat="48.68426" lon="2.06089">
        <ele>132</ele>
        <time>2021-05-20T09:33:55.847Z</time>
      </trkpt>
      <trkpt lat="48.68427" lon="2.0609">
        <ele>132</ele>
        <time>2021-05-20T09:33:56.847Z</time>
      </trkpt>
      <trkpt lat="48.68428" lon="2.06091">
        <ele>132</ele>
        <time>2021-05-20T09:33:57.847Z</time>
      </trkpt>
      <trkpt lat="48.68428" lon="2.06092">
        <ele>132</ele>
        <time>2021-05-20T09:33:58.847Z</time>
      </trkpt>
      <trkpt lat="48.68429" lon="2.06094">
        <ele>132</ele>
        <time>2021-05-20T09:33:59.847Z</time>
      </trkpt>
      <trkpt lat="48.6843" lon="2.06096">
        <ele>132</ele>
        <time>2021-05-20T09:34:00.847Z</time>
      </trkpt>
      <trkpt lat="48.68431" lon="2.06097">
        <ele>132</ele>
        <time>2021-05-20T09:34:01.847Z</time>
      </trkpt>
      <trkpt lat="48.68432" lon="2.06098">
        <ele>132</ele>
        <time>2021-05-20T09:34:02.847Z</time>
      </trkpt>
      <trkpt lat="48.68433" lon="2.06099">
        <ele>132</ele>
        <time>2021-05-20T09:34:03.847Z</time>
      </trkpt>
      <trkpt lat="48.68434" lon="2.061">
        <ele>132</ele>
        <time>2021-05-20T09:34:04.847Z</time>
      </trkpt>
      <trkpt lat="48.68435" lon="2.06101">
        <ele>133</ele>
        <time>2021-05-20T09:34:05.847Z</time>
      </trkpt>
      <trkpt lat="48.68435" lon="2.06102">
        <ele>133</ele>
        <time>2021-05-20T09:34:06.847Z</time>
      </trkpt>
      <trkpt lat="48.68436" lon="2.06104">
        <ele>133</ele>
        <time>2021-05-20T09:34:07.847Z</time>
      </trkpt>
      <trkpt lat="48.68438" lon="2.06105">
        <ele>133</ele>
        <time>2021-05-20T09:34:08.847Z</time>
      </trkpt>
      <trkpt lat="48.68439" lon="2.06106">
        <ele>133</ele>
        <time>2021-05-20T09:34:09.847Z</time>
      </trkpt>
      <trkpt lat="48.68439" lon="2.06108">
        <ele>133</ele>
        <time>2021-05-20T09:34:10.847Z</time>
      </trkpt>
      <trkpt lat="48.6844" lon="2.06108">
        <ele>133</ele>
        <time>2021-05-20T09:34:11.847Z</time>
      </trkpt>
      <trkpt lat="48.68441" lon="2.06109">
        <ele>133</ele>
        <time>2021-05-20T09:34:12.847Z</time>
      </trkpt>
      <trkpt lat="48.68442" lon="2.0611">
        <ele>133</ele>
        <time>2021-05-20T09:34:13.847Z</time>
      </trkpt>
      <trkpt lat="48.68443" lon="2.06111">
        <ele>134</ele>
        <time>2021-05-20T09:34:14.847Z</time>
      </trkpt>
      <trkpt lat="48.68444" lon="2.06112">
        <ele>134</ele>
        <time>2021-05-20T09:34:47.859Z</time>
      </trkpt>
      <trkpt lat="48.68444" lon="2.06113">
        <ele>134</ele>
        <time>2021-05-20T09:34:48.859Z</time>
      </trkpt>
      <trkpt lat="48.68445" lon="2.06115">
        <ele>134</ele>
        <time>2021-05-20T09:34:49.859Z</time>
      </trkpt>
      <trkpt lat="48.68445" lon="2.06116">
        <ele>134</ele>
        <time>2021-05-20T09:34:50.859Z</time>
      </trkpt>
      <trkpt lat="48.68446" lon="2.06116">
        <ele>134</ele>
        <time>2021-05-20T09:34:51.859Z</time>
      </trkpt>
      <trkpt lat="48.68446" lon="2.06117">
        <ele>134</ele>
        <time>2021-05-20T09:34:52.859Z</time>
      </trkpt>
      <trkpt lat="48.68447" lon="2.06118">
        <ele>134</ele>
        <time>2021-05-20T09:34:53.859Z</time>
      </trkpt>
      <trkpt lat="48.68447" lon="2.06119">
        <ele>134</ele>
        <time>2021-05-20T09:34:54.859Z</time>
      </trkpt>
      <trkpt lat="48.68447" lon="2.0612">
        <ele>134</ele>
        <time>2021-05-20T09:34:55.859Z</time>
      </trkpt>
      <trkpt lat="48.68447" lon="2.06121">
        <ele>135</ele>
        <time>2021-05-20T09:34:56.859Z</time>
      </trkpt>
      <trkpt lat="48.68448" lon="2.06122">
        <ele>135</ele>
        <time>2021-05-20T09:34:57.859Z</time>
      </trkpt>
      <trkpt lat="48.68448" lon="2.06123">
        <ele>135</ele>
        <time>2021-05-20T09:34:58.859Z</time>
      </trkpt>
      <trkpt lat="48.68449" lon="2.06124">
        <ele>135</ele>
        <time>2021-05-20T09:34:59.859Z</time>
      </trkpt>
      <trkpt lat="48.68449" lon="2.06124">
        <ele>135</ele>
        <time>2021-05-20T09:35:00.859Z</time>
      </trkpt>
      <trkpt lat="48.6845" lon="2.06125">
        <ele>135</ele>
        <time>2021-05-20T09:35:01.859Z</time>
      </trkpt>
      <trkpt lat="48.68451" lon="2.06126">
        <ele>135</ele>
        <time>2021-05-20T09:35:02.859Z</time>
      </trkpt>
      <trkpt lat="48.68452" lon="2.06127">
        <ele>135</ele>
        <time>2021-05-20T09:35:03.859Z</time>
      </trkpt>
      <trkpt lat="48.68452" lon="2.06128">
        <ele>135</ele>
        <time>2021-05-20T09:35:04.859Z</time>
      </trkpt>
      <trkpt lat="48.68453" lon="2.06129">
        <ele>135</ele>
        <time>2021-05-20T09:35:05.859Z</time>
      </trkpt>
      <trkpt lat="48.68453" lon="2.06129">
        <ele>135</ele>
        <time>2021-05-20T09:35:06.859Z</time>
      </trkpt>
      <trkpt lat="48.68454" lon="2.0613">
        <ele>136</ele>
        <time>2021-05-20T09:35:07.859Z</time>
      </trkpt>
      <trkpt lat="48.68455" lon="2.06131">
        <ele>136</ele>
        <time>2021-05-20T09:35:08.859Z</time>
      </trkpt>
      <trkpt lat="48.68455" lon="2.06131">
        <ele>136</ele>
        <time>2021-05-20T09:35:09.859Z</time>
      </trkpt>
      <trkpt lat="48.68456" lon="2.06132">
        <ele>136</ele>
        <time>2021-05-20T09:35:10.859Z</time>
      </trkpt>
      <trkpt lat="48.68457" lon="2.06132">
        <ele>136</ele>
        <time>2021-05-20T09:35:11.859Z</time>
      </trkpt>
      <trkpt lat="48.68458" lon="2.06133">
        <ele>136</ele>
        <time>2021-05-20T09:35:12.859Z</time>
      </trkpt>
      <trkpt lat="48.68459" lon="2.06133">
        <ele>136</ele>
        <time>2021-05-20T09:35:13.859Z</time>
      </trkpt>
      <trkpt lat="48.6846" lon="2.06133">
        <ele>136</ele>
        <time>2021-05-20T09:35:14.859Z</time>
      </trkpt>
      <trkpt lat="48.68461" lon="2.06134">
        <ele>136</ele>
        <time>2021-05-20T09:35:15.859Z</time>
      </trkpt>
      <trkpt lat="48.68462" lon="2.06135">
        <ele>136</ele>
        <time>2021-05-20T09:35:16.859Z</time>
      </trkpt>
      <trkpt lat="48.68463" lon="2.06135">
        <ele>136</ele>
        <time>2021-05-20T09:35:17.859Z</time>
      </trkpt>
      <trkpt lat="48.68464" lon="2.06135">
        <ele>136</ele>
        <time>2021-05-20T09:35:18.859Z</time>
      </trkpt>
      <trkpt lat="48.68465" lon="2.06135">
        <ele>136</ele>
        <time>2021-05-20T09:35:19.859Z</time>
      </trkpt>
      <trkpt lat="48.68465" lon="2.06136">
        <ele>136</ele>
        <time>2021-05-20T09:35:20.859Z</time>
      </trkpt>
      <trkpt lat="48.68466" lon="2.06136">
        <ele>137</ele>
        <time>2021-05-20T09:35:21.859Z</time>
      </trkpt>
      <trkpt lat="48.68467" lon="2.06137">
        <ele>137</ele>
        <time>2021-05-20T09:35:22.859Z</time>
      </trkpt>
      <trkpt lat="48.68468" lon="2.06137">
        <ele>137</ele>
        <time>2021-05-20T09:35:23.859Z</time>
      </trkpt>
      <trkpt lat="48.68469" lon="2.06138">
        <ele>137</ele>
        <time>2021-05-20T09:35:24.859Z</time>
      </trkpt>
      <trkpt lat="48.6847" lon="2.06138">
        <ele>137</ele>
        <time>2021-05-20T09:35:25.859Z</time>
      </trkpt>
      <trkpt lat="48.68471" lon="2.06139">
        <ele>137</ele>
        <time>2021-05-20T09:35:26.859Z</time>
      </trkpt>
      <trkpt lat="48.68472" lon="2.0614">
        <ele>137</ele>
        <time>2021-05-20T09:35:27.859Z</time>
      </trkpt>
      <trkpt lat="48.68473" lon="2.06141">
        <ele>137</ele>
        <time>2021-05-20T09:35:28.859Z</time>
      </trkpt>
      <trkpt lat="48.68474" lon="2.06142">
        <ele>137</ele>
        <time>2021-05-20T09:35:29.859Z</time>
      </trkpt>
      <trkpt lat="48.68475" lon="2.06143">
        <ele>137</ele>
        <time>2021-05-20T09:35:30.859Z</time>
      </trkpt>
      <trkpt lat="48.68476" lon="2.06144">
        <ele>137</ele>
        <time>2021-05-20T09:35:31.859Z</time>
      </trkpt>
      <trkpt lat="48.68478" lon="2.06145">
        <ele>137</ele>
        <time>2021-05-20T09:35:32.859Z</time>
      </trkpt>
      <trkpt lat="48.68479" lon="2.06146">
        <ele>137</ele>
        <time>2021-05-20T09:35:33.859Z</time>
      </trkpt>
      <trkpt lat="48.68481" lon="2.06146">
        <ele>137</ele>
        <time>2021-05-20T09:35:34.859Z</time>
      </trkpt>
      <trkpt lat="48.68482" lon="2.06147">
        <ele>137</ele>
        <time>2021-05-20T09:35:35.859Z</time>
      </trkpt>
      <trkpt lat="48.68483" lon="2.06148">
        <ele>137</ele>
        <time>2021-05-20T09:35:36.859Z</time>
      </trkpt>
      <trkpt lat="48.68484" lon="2.06148">
        <ele>137</ele>
        <time>2021-05-20T09:35:37.859Z</time>
      </trkpt>
      <trkpt lat="48.68485" lon="2.06149">
        <ele>137</ele>
        <time>2021-05-20T09:35:38.859Z</time>
      </trkpt>
      <trkpt lat="48.68485" lon="2.06149">
        <ele>137</ele>
        <time>2021-05-20T09:35:39.859Z</time>
      </trkpt>
      <trkpt lat="48.68486" lon="2.06149">
        <ele>137</ele>
        <time>2021-05-20T09:35:40.859Z</time>
      </trkpt>
      <trkpt lat="48.68493" lon="2.0615">
        <ele>137</ele>
        <time>2021-05-20T09:35:41.859Z</time>
      </trkpt>
      <trkpt lat="48.68494" lon="2.0615">
        <ele>137</ele>
        <time>2021-05-20T09:35:42.859Z</time>
      </trkpt>
      <trkpt lat="48.68495" lon="2.0615">
        <ele>137</ele>
        <time>2021-05-20T09:35:43.859Z</time>
      </trkpt>
      <trkpt lat="48.68495" lon="2.0615">
        <ele>137</ele>
        <time>2021-05-20T09:35:44.859Z</time>
      </trkpt>
      <trkpt lat="48.68495" lon="2.0615">
        <ele>137</ele>
        <time>2021-05-20T09:35:45.859Z</time>
      </trkpt>
      <trkpt lat="48.68495" lon="2.0615">
        <ele>137</ele>
        <time>2021-05-20T09:35:46.859Z</time>
      </trkpt>
      <trkpt lat="48.68496" lon="2.06153">
        <ele>138</ele>
        <time>2021-05-20T09:35:47.859Z</time>
      </trkpt>
      <trkpt lat="48.68497" lon="2.06153">
        <ele>138</ele>
        <time>2021-05-20T09:35:48.859Z</time>
      </trkpt>
      <trkpt lat="48.68497" lon="2.06154">
        <ele>138</ele>
        <time>2021-05-20T09:35:49.859Z</time>
      </trkpt>
      <trkpt lat="48.68497" lon="2.06154">
        <ele>138</ele>
        <time>2021-05-20T09:35:50.859Z</time>
      </trkpt>
      <trkpt lat="48.68498" lon="2.06155">
        <ele>138</ele>
        <time>2021-05-20T09:35:51.859Z</time>
      </trkpt>
      <trkpt lat="48.68498" lon="2.06155">
        <ele>138</ele>
        <time>2021-05-20T09:35:52.859Z</time>
      </trkpt>
      <trkpt lat="48.68499" lon="2.06156">
        <ele>138</ele>
        <time>2021-05-20T09:35:53.859Z</time>
      </trkpt>
      <trkpt lat="48.685" lon="2.06156">
        <ele>138</ele>
        <time>2021-05-20T09:35:54.859Z</time>
      </trkpt>
      <trkpt lat="48.685" lon="2.06156">
        <ele>139</ele>
        <time>2021-05-20T09:35:55.859Z</time>
      </trkpt>
      <trkpt lat="48.68501" lon="2.06157">
        <ele>139</ele>
        <time>2021-05-20T09:35:56.859Z</time>
      </trkpt>
      <trkpt lat="48.68502" lon="2.06158">
        <ele>139</ele>
        <time>2021-05-20T09:35:57.859Z</time>
      </trkpt>
      <trkpt lat="48.68502" lon="2.06158">
        <ele>139</ele>
        <time>2021-05-20T09:35:58.859Z</time>
      </trkpt>
      <trkpt lat="48.68503" lon="2.06158">
        <ele>139</ele>
        <time>2021-05-20T09:35:59.859Z</time>
      </trkpt>
      <trkpt lat="48.68508" lon="2.06161">
        <ele>142</ele>
        <time>2021-05-20T09:36:00.859Z</time>
      </trkpt>
      <trkpt lat="48.68509" lon="2.06161">
        <ele>142</ele>
        <time>2021-05-20T09:36:01.859Z</time>
      </trkpt>
      <trkpt lat="48.6851" lon="2.06161">
        <ele>142</ele>
        <time>2021-05-20T09:36:02.859Z</time>
      </trkpt>
      <trkpt lat="48.68517" lon="2.06165">
        <ele>146</ele>
        <time>2021-05-20T09:36:03.859Z</time>
      </trkpt>
      <trkpt lat="48.68518" lon="2.06166">
        <ele>146</ele>
        <time>2021-05-20T09:36:04.859Z</time>
      </trkpt>
      <trkpt lat="48.68519" lon="2.06166">
        <ele>146</ele>
        <time>2021-05-20T09:36:05.859Z</time>
      </trkpt>
      <trkpt lat="48.6852" lon="2.06167">
        <ele>146</ele>
        <time>2021-05-20T09:36:06.859Z</time>
      </trkpt>
      <trkpt lat="48.68521" lon="2.06167">
        <ele>146</ele>
        <time>2021-05-20T09:36:07.859Z</time>
      </trkpt>
      <trkpt lat="48.68522" lon="2.06167">
        <ele>146</ele>
        <time>2021-05-20T09:36:08.859Z</time>
      </trkpt>
      <trkpt lat="48.68523" lon="2.06168">
        <ele>146</ele>
        <time>2021-05-20T09:36:09.859Z</time>
      </trkpt>
      <trkpt lat="48.68524" lon="2.06168">
        <ele>146</ele>
        <time>2021-05-20T09:36:10.859Z</time>
      </trkpt>
      <trkpt lat="48.68525" lon="2.06169">
        <ele>146</ele>
        <time>2021-05-20T09:36:11.859Z</time>
      </trkpt>
      <trkpt lat="48.68526" lon="2.06169">
        <ele>146</ele>
        <time>2021-05-20T09:36:12.859Z</time>
      </trkpt>
      <trkpt lat="48.68527" lon="2.0617">
        <ele>146</ele>
        <time>2021-05-20T09:36:13.859Z</time>
      </trkpt>
      <trkpt lat="48.68528" lon="2.0617">
        <ele>146</ele>
        <time>2021-05-20T09:36:14.859Z</time>
      </trkpt>
      <trkpt lat="48.68529" lon="2.0617">
        <ele>146</ele>
        <time>2021-05-20T09:36:15.859Z</time>
      </trkpt>
      <trkpt lat="48.6853" lon="2.06171">
        <ele>146</ele>
        <time>2021-05-20T09:36:16.859Z</time>
      </trkpt>
      <trkpt lat="48.68531" lon="2.06171">
        <ele>146</ele>
        <time>2021-05-20T09:36:17.859Z</time>
      </trkpt>
      <trkpt lat="48.68532" lon="2.06171">
        <ele>146</ele>
        <time>2021-05-20T09:36:18.859Z</time>
      </trkpt>
      <trkpt lat="48.68533" lon="2.06171">
        <ele>146</ele>
        <time>2021-05-20T09:36:19.859Z</time>
      </trkpt>
      <trkpt lat="48.68534" lon="2.06172">
        <ele>146</ele>
        <time>2021-05-20T09:36:20.859Z</time>
      </trkpt>
      <trkpt lat="48.68535" lon="2.06172">
        <ele>146</ele>
        <time>2021-05-20T09:36:21.859Z</time>
      </trkpt>
      <trkpt lat="48.68537" lon="2.06172">
        <ele>146</ele>
        <time>2021-05-20T09:36:22.859Z</time>
      </trkpt>
      <trkpt lat="48.68538" lon="2.06172">
        <ele>146</ele>
        <time>2021-05-20T09:36:23.859Z</time>
      </trkpt>
      <trkpt lat="48.68538" lon="2.06172">
        <ele>146</ele>
        <time>2021-05-20T09:36:24.859Z</time>
      </trkpt>
      <trkpt lat="48.68539" lon="2.06172">
        <ele>147</ele>
        <time>2021-05-20T09:36:25.859Z</time>
      </trkpt>
      <trkpt lat="48.6854" lon="2.06172">
        <ele>147</ele>
        <time>2021-05-20T09:36:26.859Z</time>
      </trkpt>
      <trkpt lat="48.68541" lon="2.06173">
        <ele>147</ele>
        <time>2021-05-20T09:36:27.859Z</time>
      </trkpt>
      <trkpt lat="48.68542" lon="2.06174">
        <ele>147</ele>
        <time>2021-05-20T09:36:28.859Z</time>
      </trkpt>
      <trkpt lat="48.68543" lon="2.06174">
        <ele>147</ele>
        <time>2021-05-20T09:36:29.859Z</time>
      </trkpt>
      <trkpt lat="48.68544" lon="2.06174">
        <ele>147</ele>
        <time>2021-05-20T09:36:30.859Z</time>
      </trkpt>
      <trkpt lat="48.68545" lon="2.06175">
        <ele>147</ele>
        <time>2021-05-20T09:36:31.859Z</time>
      </trkpt>
      <trkpt lat="48.68546" lon="2.06175">
        <ele>147</ele>
        <time>2021-05-20T09:36:32.859Z</time>
      </trkpt>
      <trkpt lat="48.68547" lon="2.06175">
        <ele>147</ele>
        <time>2021-05-20T09:36:33.859Z</time>
      </trkpt>
      <trkpt lat="48.68548" lon="2.06175">
        <ele>147</ele>
        <time>2021-05-20T09:36:34.859Z</time>
      </trkpt>
      <trkpt lat="48.68549" lon="2.06176">
        <ele>147</ele>
        <time>2021-05-20T09:36:35.859Z</time>
      </trkpt>
      <trkpt lat="48.6855" lon="2.06176">
        <ele>147</ele>
        <time>2021-05-20T09:36:36.859Z</time>
      </trkpt>
      <trkpt lat="48.68551" lon="2.06176">
        <ele>147</ele>
        <time>2021-05-20T09:36:37.859Z</time>
      </trkpt>
      <trkpt lat="48.68552" lon="2.06176">
        <ele>147</ele>
        <time>2021-05-20T09:36:38.859Z</time>
      </trkpt>
      <trkpt lat="48.68553" lon="2.06176">
        <ele>147</ele>
        <time>2021-05-20T09:36:39.859Z</time>
      </trkpt>
      <trkpt lat="48.68554" lon="2.06176">
        <ele>147</ele>
        <time>2021-05-20T09:36:40.859Z</time>
      </trkpt>
      <trkpt lat="48.68555" lon="2.06176">
        <ele>148</ele>
        <time>2021-05-20T09:36:41.859Z</time>
      </trkpt>
      <trkpt lat="48.68556" lon="2.06176">
        <ele>148</ele>
        <time>2021-05-20T09:36:42.859Z</time>
      </trkpt>
      <trkpt lat="48.68557" lon="2.06176">
        <ele>148</ele>
        <time>2021-05-20T09:36:43.859Z</time>
      </trkpt>
      <trkpt lat="48.68558" lon="2.06175">
        <ele>148</ele>
        <time>2021-05-20T09:36:44.859Z</time>
      </trkpt>
      <trkpt lat="48.68559" lon="2.06175">
        <ele>148</ele>
        <time>2021-05-20T09:36:45.859Z</time>
      </trkpt>
      <trkpt lat="48.68561" lon="2.06174">
        <ele>148</ele>
        <time>2021-05-20T09:36:46.859Z</time>
      </trkpt>
      <trkpt lat="48.68562" lon="2.06174">
        <ele>148</ele>
        <time>2021-05-20T09:36:47.859Z</time>
      </trkpt>
      <trkpt lat="48.68563" lon="2.06175">
        <ele>148</ele>
        <time>2021-05-20T09:36:48.859Z</time>
      </trkpt>
      <trkpt lat="48.68565" lon="2.06175">
        <ele>148</ele>
        <time>2021-05-20T09:36:49.859Z</time>
      </trkpt>
      <trkpt lat="48.68566" lon="2.06175">
        <ele>148</ele>
        <time>2021-05-20T09:36:50.859Z</time>
      </trkpt>
      <trkpt lat="48.68566" lon="2.06175">
        <ele>148</ele>
        <time>2021-05-20T09:36:51.859Z</time>
      </trkpt>
      <trkpt lat="48.68567" lon="2.06175">
        <ele>148</ele>
        <time>2021-05-20T09:36:52.859Z</time>
      </trkpt>
      <trkpt lat="48.68569" lon="2.06176">
        <ele>148</ele>
        <time>2021-05-20T09:36:53.859Z</time>
      </trkpt>
      <trkpt lat="48.6857" lon="2.06176">
        <ele>148</ele>
        <time>2021-05-20T09:36:54.859Z</time>
      </trkpt>
      <trkpt lat="48.68571" lon="2.06176">
        <ele>148</ele>
        <time>2021-05-20T09:36:55.859Z</time>
      </trkpt>
      <trkpt lat="48.68572" lon="2.06177">
        <ele>148</ele>
        <time>2021-05-20T09:36:56.859Z</time>
      </trkpt>
      <trkpt lat="48.68573" lon="2.06177">
        <ele>148</ele>
        <time>2021-05-20T09:36:57.859Z</time>
      </trkpt>
      <trkpt lat="48.68574" lon="2.06177">
        <ele>148</ele>
        <time>2021-05-20T09:36:58.859Z</time>
      </trkpt>
      <trkpt lat="48.68574" lon="2.06178">
        <ele>148</ele>
        <time>2021-05-20T09:36:59.859Z</time>
      </trkpt>
      <trkpt lat="48.68575" lon="2.06178">
        <ele>148</ele>
        <time>2021-05-20T09:37:00.859Z</time>
      </trkpt>
      <trkpt lat="48.68575" lon="2.06178">
        <ele>148</ele>
        <time>2021-05-20T09:37:01.859Z</time>
      </trkpt>
      <trkpt lat="48.68581" lon="2.0618">
        <ele>148</ele>
        <time>2021-05-20T09:37:02.859Z</time>
      </trkpt>
      <trkpt lat="48.68582" lon="2.06181">
        <ele>148</ele>
        <time>2021-05-20T09:37:03.859Z</time>
      </trkpt>
      <trkpt lat="48.68583" lon="2.06181">
        <ele>148</ele>
        <time>2021-05-20T09:37:04.859Z</time>
      </trkpt>
      <trkpt lat="48.68584" lon="2.06181">
        <ele>148</ele>
        <time>2021-05-20T09:37:05.859Z</time>
      </trkpt>
      <trkpt lat="48.68585" lon="2.06182">
        <ele>148</ele>
        <time>2021-05-20T09:37:06.859Z</time>
      </trkpt>
      <trkpt lat="48.68586" lon="2.06182">
        <ele>148</ele>
        <time>2021-05-20T09:37:07.859Z</time>
      </trkpt>
      <trkpt lat="48.68588" lon="2.06182">
        <ele>148</ele>
        <time>2021-05-20T09:37:08.859Z</time>
      </trkpt>
      <trkpt lat="48.68589" lon="2.06182">
        <ele>147</ele>
        <time>2021-05-20T09:37:09.859Z</time>
      </trkpt>
      <trkpt lat="48.68589" lon="2.06183">
        <ele>147</ele>
        <time>2021-05-20T09:37:10.859Z</time>
      </trkpt>
      <trkpt lat="48.6859" lon="2.06183">
        <ele>147</ele>
        <time>2021-05-20T09:37:11.859Z</time>
      </trkpt>
      <trkpt lat="48.68591" lon="2.06184">
        <ele>147</ele>
        <time>2021-05-20T09:37:12.859Z</time>
      </trkpt>
      <trkpt lat="48.68592" lon="2.06184">
        <ele>147</ele>
        <time>2021-05-20T09:37:13.859Z</time>
      </trkpt>
      <trkpt lat="48.68593" lon="2.06184">
        <ele>147</ele>
        <time>2021-05-20T09:37:14.859Z</time>
      </trkpt>
      <trkpt lat="48.68594" lon="2.06184">
        <ele>147</ele>
        <time>2021-05-20T09:37:15.859Z</time>
      </trkpt>
      <trkpt lat="48.68596" lon="2.06185">
        <ele>147</ele>
        <time>2021-05-20T09:37:16.859Z</time>
      </trkpt>
      <trkpt lat="48.68597" lon="2.06185">
        <ele>146</ele>
        <time>2021-05-20T09:37:17.859Z</time>
      </trkpt>
      <trkpt lat="48.68598" lon="2.06186">
        <ele>146</ele>
        <time>2021-05-20T09:37:18.859Z</time>
      </trkpt>
      <trkpt lat="48.686" lon="2.06186">
        <ele>146</ele>
        <time>2021-05-20T09:37:19.859Z</time>
      </trkpt>
      <trkpt lat="48.68601" lon="2.06186">
        <ele>146</ele>
        <time>2021-05-20T09:37:20.859Z</time>
      </trkpt>
      <trkpt lat="48.68602" lon="2.06186">
        <ele>146</ele>
        <time>2021-05-20T09:37:21.859Z</time>
      </trkpt>
      <trkpt lat="48.68604" lon="2.06186">
        <ele>146</ele>
        <time>2021-05-20T09:37:22.859Z</time>
      </trkpt>
      <trkpt lat="48.68605" lon="2.06187">
        <ele>145</ele>
        <time>2021-05-20T09:37:23.859Z</time>
      </trkpt>
      <trkpt lat="48.68606" lon="2.06187">
        <ele>145</ele>
        <time>2021-05-20T09:37:24.859Z</time>
      </trkpt>
      <trkpt lat="48.68608" lon="2.06187">
        <ele>145</ele>
        <time>2021-05-20T09:37:25.859Z</time>
      </trkpt>
      <trkpt lat="48.68609" lon="2.06187">
        <ele>145</ele>
        <time>2021-05-20T09:37:26.859Z</time>
      </trkpt>
      <trkpt lat="48.6861" lon="2.06188">
        <ele>145</ele>
        <time>2021-05-20T09:37:27.859Z</time>
      </trkpt>
      <trkpt lat="48.68611" lon="2.06188">
        <ele>145</ele>
        <time>2021-05-20T09:37:28.859Z</time>
      </trkpt>
      <trkpt lat="48.68613" lon="2.06188">
        <ele>144</ele>
        <time>2021-05-20T09:37:29.859Z</time>
      </trkpt>
      <trkpt lat="48.68614" lon="2.06188">
        <ele>144</ele>
        <time>2021-05-20T09:37:30.859Z</time>
      </trkpt>
      <trkpt lat="48.68615" lon="2.06188">
        <ele>144</ele>
        <time>2021-05-20T09:37:31.859Z</time>
      </trkpt>
      <trkpt lat="48.68616" lon="2.06188">
        <ele>144</ele>
        <time>2021-05-20T09:37:32.859Z</time>
      </trkpt>
      <trkpt lat="48.68617" lon="2.06189">
        <ele>144</ele>
        <time>2021-05-20T09:37:33.859Z</time>
      </trkpt>
      <trkpt lat="48.68618" lon="2.06189">
        <ele>144</ele>
        <time>2021-05-20T09:37:34.859Z</time>
      </trkpt>
      <trkpt lat="48.68619" lon="2.06189">
        <ele>143</ele>
        <time>2021-05-20T09:37:35.859Z</time>
      </trkpt>
      <trkpt lat="48.6862" lon="2.06189">
        <ele>143</ele>
        <time>2021-05-20T09:37:36.859Z</time>
      </trkpt>
      <trkpt lat="48.68621" lon="2.06189">
        <ele>143</ele>
        <time>2021-05-20T09:37:37.859Z</time>
      </trkpt>
      <trkpt lat="48.68621" lon="2.06189">
        <ele>143</ele>
        <time>2021-05-20T09:37:38.859Z</time>
      </trkpt>
      <trkpt lat="48.68622" lon="2.06189">
        <ele>143</ele>
        <time>2021-05-20T09:37:39.859Z</time>
      </trkpt>
      <trkpt lat="48.68628" lon="2.06192">
        <ele>143</ele>
        <time>2021-05-20T09:37:40.859Z</time>
      </trkpt>
      <trkpt lat="48.68629" lon="2.06192">
        <ele>142</ele>
        <time>2021-05-20T09:37:41.859Z</time>
      </trkpt>
      <trkpt lat="48.6863" lon="2.06192">
        <ele>142</ele>
        <time>2021-05-20T09:37:42.859Z</time>
      </trkpt>
      <trkpt lat="48.68631" lon="2.06192">
        <ele>142</ele>
        <time>2021-05-20T09:37:43.859Z</time>
      </trkpt>
      <trkpt lat="48.68631" lon="2.06192">
        <ele>142</ele>
        <time>2021-05-20T09:37:44.859Z</time>
      </trkpt>
      <trkpt lat="48.68632" lon="2.06192">
        <ele>142</ele>
        <time>2021-05-20T09:37:45.859Z</time>
      </trkpt>
      <trkpt lat="48.68633" lon="2.06192">
        <ele>142</ele>
        <time>2021-05-20T09:37:46.859Z</time>
      </trkpt>
      <trkpt lat="48.68634" lon="2.06192">
        <ele>142</ele>
        <time>2021-05-20T09:37:47.859Z</time>
      </trkpt>
      <trkpt lat="48.68634" lon="2.06192">
        <ele>142</ele>
        <time>2021-05-20T09:37:48.859Z</time>
      </trkpt>
      <trkpt lat="48.68635" lon="2.06192">
        <ele>142</ele>
        <time>2021-05-20T09:37:49.859Z</time>
      </trkpt>
      <trkpt lat="48.68636" lon="2.06192">
        <ele>142</ele>
        <time>2021-05-20T09:37:50.859Z</time>
      </trkpt>
      <trkpt lat="48.68637" lon="2.06192">
        <ele>141</ele>
        <time>2021-05-20T09:37:51.859Z</time>
      </trkpt>
      <trkpt lat="48.68638" lon="2.06192">
        <ele>141</ele>
        <time>2021-05-20T09:37:52.859Z</time>
      </trkpt>
      <trkpt lat="48.68639" lon="2.06192">
        <ele>141</ele>
        <time>2021-05-20T09:37:53.859Z</time>
      </trkpt>
      <trkpt lat="48.6864" lon="2.06192">
        <ele>141</ele>
        <time>2021-05-20T09:37:54.859Z</time>
      </trkpt>
      <trkpt lat="48.68641" lon="2.06191">
        <ele>141</ele>
        <time>2021-05-20T09:37:55.859Z</time>
      </trkpt>
      <trkpt lat="48.68642" lon="2.06192">
        <ele>141</ele>
        <time>2021-05-20T09:37:56.859Z</time>
      </trkpt>
      <trkpt lat="48.68642" lon="2.06192">
        <ele>141</ele>
        <time>2021-05-20T09:37:57.859Z</time>
      </trkpt>
      <trkpt lat="48.68643" lon="2.06192">
        <ele>141</ele>
        <time>2021-05-20T09:37:58.859Z</time>
      </trkpt>
      <trkpt lat="48.68644" lon="2.06191">
        <ele>141</ele>
        <time>2021-05-20T09:37:59.859Z</time>
      </trkpt>
      <trkpt lat="48.68645" lon="2.06191">
        <ele>141</ele>
        <time>2021-05-20T09:38:00.859Z</time>
      </trkpt>
      <trkpt lat="48.68646" lon="2.06191">
        <ele>141</ele>
        <time>2021-05-20T09:38:01.859Z</time>
      </trkpt>
      <trkpt lat="48.68647" lon="2.0619">
        <ele>141</ele>
        <time>2021-05-20T09:38:02.859Z</time>
      </trkpt>
      <trkpt lat="48.68647" lon="2.0619">
        <ele>141</ele>
        <time>2021-05-20T09:38:03.859Z</time>
      </trkpt>
      <trkpt lat="48.68648" lon="2.06189">
        <ele>141</ele>
        <time>2021-05-20T09:38:04.859Z</time>
      </trkpt>
      <trkpt lat="48.68649" lon="2.06189">
        <ele>141</ele>
        <time>2021-05-20T09:38:05.859Z</time>
      </trkpt>
      <trkpt lat="48.6865" lon="2.06189">
        <ele>141</ele>
        <time>2021-05-20T09:38:06.859Z</time>
      </trkpt>
      <trkpt lat="48.68651" lon="2.06188">
        <ele>141</ele>
        <time>2021-05-20T09:38:07.859Z</time>
      </trkpt>
      <trkpt lat="48.68652" lon="2.06188">
        <ele>141</ele>
        <time>2021-05-20T09:38:08.859Z</time>
      </trkpt>
      <trkpt lat="48.68653" lon="2.06188">
        <ele>141</ele>
        <time>2021-05-20T09:38:09.859Z</time>
      </trkpt>
      <trkpt lat="48.68654" lon="2.06188">
        <ele>141</ele>
        <time>2021-05-20T09:38:10.859Z</time>
      </trkpt>
      <trkpt lat="48.68655" lon="2.06187">
        <ele>140</ele>
        <time>2021-05-20T09:38:11.859Z</time>
      </trkpt>
      <trkpt lat="48.68656" lon="2.06187">
        <ele>140</ele>
        <time>2021-05-20T09:38:12.859Z</time>
      </trkpt>
      <trkpt lat="48.68657" lon="2.06187">
        <ele>140</ele>
        <time>2021-05-20T09:38:16.861Z</time>
      </trkpt>
      <trkpt lat="48.68659" lon="2.06186">
        <ele>140</ele>
        <time>2021-05-20T09:38:17.861Z</time>
      </trkpt>
      <trkpt lat="48.6866" lon="2.06187">
        <ele>140</ele>
        <time>2021-05-20T09:38:18.861Z</time>
      </trkpt>
      <trkpt lat="48.68661" lon="2.06186">
        <ele>140</ele>
        <time>2021-05-20T09:38:19.861Z</time>
      </trkpt>
      <trkpt lat="48.68662" lon="2.06186">
        <ele>140</ele>
        <time>2021-05-20T09:38:20.861Z</time>
      </trkpt>
      <trkpt lat="48.68663" lon="2.06186">
        <ele>140</ele>
        <time>2021-05-20T09:38:21.861Z</time>
      </trkpt>
      <trkpt lat="48.68663" lon="2.06186">
        <ele>140</ele>
        <time>2021-05-20T09:38:22.861Z</time>
      </trkpt>
      <trkpt lat="48.68664" lon="2.06186">
        <ele>139</ele>
        <time>2021-05-20T09:38:23.861Z</time>
      </trkpt>
      <trkpt lat="48.68669" lon="2.06182">
        <ele>135</ele>
        <time>2021-05-20T09:38:24.861Z</time>
      </trkpt>
      <trkpt lat="48.6867" lon="2.06181">
        <ele>135</ele>
        <time>2021-05-20T09:38:25.861Z</time>
      </trkpt>
      <trkpt lat="48.6867" lon="2.06181">
        <ele>135</ele>
        <time>2021-05-20T09:38:26.861Z</time>
      </trkpt>
      <trkpt lat="48.68671" lon="2.0618">
        <ele>135</ele>
        <time>2021-05-20T09:38:27.861Z</time>
      </trkpt>
      <trkpt lat="48.68672" lon="2.0618">
        <ele>135</ele>
        <time>2021-05-20T09:38:28.861Z</time>
      </trkpt>
      <trkpt lat="48.68674" lon="2.0618">
        <ele>134</ele>
        <time>2021-05-20T09:38:29.861Z</time>
      </trkpt>
      <trkpt lat="48.68675" lon="2.06179">
        <ele>134</ele>
        <time>2021-05-20T09:38:30.861Z</time>
      </trkpt>
      <trkpt lat="48.68676" lon="2.06179">
        <ele>134</ele>
        <time>2021-05-20T09:38:31.861Z</time>
      </trkpt>
      <trkpt lat="48.68677" lon="2.06179">
        <ele>134</ele>
        <time>2021-05-20T09:38:32.861Z</time>
      </trkpt>
      <trkpt lat="48.68679" lon="2.06178">
        <ele>133</ele>
        <time>2021-05-20T09:38:33.861Z</time>
      </trkpt>
      <trkpt lat="48.6868" lon="2.06178">
        <ele>133</ele>
        <time>2021-05-20T09:38:34.861Z</time>
      </trkpt>
      <trkpt lat="48.68681" lon="2.06177">
        <ele>133</ele>
        <time>2021-05-20T09:38:35.861Z</time>
      </trkpt>
      <trkpt lat="48.68682" lon="2.06177">
        <ele>133</ele>
        <time>2021-05-20T09:38:36.861Z</time>
      </trkpt>
      <trkpt lat="48.68683" lon="2.06177">
        <ele>133</ele>
        <time>2021-05-20T09:38:37.861Z</time>
      </trkpt>
      <trkpt lat="48.68684" lon="2.06176">
        <ele>132</ele>
        <time>2021-05-20T09:38:38.861Z</time>
      </trkpt>
      <trkpt lat="48.68686" lon="2.06176">
        <ele>132</ele>
        <time>2021-05-20T09:38:39.861Z</time>
      </trkpt>
      <trkpt lat="48.68687" lon="2.06176">
        <ele>132</ele>
        <time>2021-05-20T09:38:40.861Z</time>
      </trkpt>
      <trkpt lat="48.68688" lon="2.06176">
        <ele>132</ele>
        <time>2021-05-20T09:38:41.861Z</time>
      </trkpt>
      <trkpt lat="48.68689" lon="2.06176">
        <ele>132</ele>
        <time>2021-05-20T09:38:42.861Z</time>
      </trkpt>
      <trkpt lat="48.68691" lon="2.06176">
        <ele>131</ele>
        <time>2021-05-20T09:38:43.861Z</time>
      </trkpt>
      <trkpt lat="48.68692" lon="2.06176">
        <ele>131</ele>
        <time>2021-05-20T09:38:44.861Z</time>
      </trkpt>
      <trkpt lat="48.68694" lon="2.06176">
        <ele>131</ele>
        <time>2021-05-20T09:38:45.861Z</time>
      </trkpt>
      <trkpt lat="48.68695" lon="2.06175">
        <ele>131</ele>
        <time>2021-05-20T09:38:46.861Z</time>
      </trkpt>
      <trkpt lat="48.68697" lon="2.06175">
        <ele>131</ele>
        <time>2021-05-20T09:38:47.861Z</time>
      </trkpt>
      <trkpt lat="48.68699" lon="2.06174">
        <ele>130</ele>
        <time>2021-05-20T09:38:48.861Z</time>
      </trkpt>
      <trkpt lat="48.687" lon="2.06174">
        <ele>130</ele>
        <time>2021-05-20T09:38:49.861Z</time>
      </trkpt>
      <trkpt lat="48.68702" lon="2.06174">
        <ele>130</ele>
        <time>2021-05-20T09:38:50.861Z</time>
      </trkpt>
      <trkpt lat="48.68703" lon="2.06174">
        <ele>130</ele>
        <time>2021-05-20T09:38:51.861Z</time>
      </trkpt>
      <trkpt lat="48.68705" lon="2.06173">
        <ele>129</ele>
        <time>2021-05-20T09:38:52.861Z</time>
      </trkpt>
      <trkpt lat="48.68706" lon="2.06173">
        <ele>129</ele>
        <time>2021-05-20T09:38:53.861Z</time>
      </trkpt>
      <trkpt lat="48.68708" lon="2.06172">
        <ele>129</ele>
        <time>2021-05-20T09:38:54.861Z</time>
      </trkpt>
      <trkpt lat="48.68709" lon="2.06172">
        <ele>129</ele>
        <time>2021-05-20T09:38:55.861Z</time>
      </trkpt>
      <trkpt lat="48.68711" lon="2.06172">
        <ele>129</ele>
        <time>2021-05-20T09:38:56.861Z</time>
      </trkpt>
      <trkpt lat="48.68712" lon="2.06171">
        <ele>129</ele>
        <time>2021-05-20T09:38:57.861Z</time>
      </trkpt>
      <trkpt lat="48.68714" lon="2.0617">
        <ele>128</ele>
        <time>2021-05-20T09:38:58.861Z</time>
      </trkpt>
      <trkpt lat="48.68715" lon="2.0617">
        <ele>128</ele>
        <time>2021-05-20T09:38:59.861Z</time>
      </trkpt>
      <trkpt lat="48.68716" lon="2.06169">
        <ele>128</ele>
        <time>2021-05-20T09:39:00.861Z</time>
      </trkpt>
      <trkpt lat="48.68717" lon="2.06168">
        <ele>128</ele>
        <time>2021-05-20T09:39:01.861Z</time>
      </trkpt>
      <trkpt lat="48.68718" lon="2.06168">
        <ele>128</ele>
        <time>2021-05-20T09:39:02.861Z</time>
      </trkpt>
      <trkpt lat="48.68718" lon="2.06167">
        <ele>128</ele>
        <time>2021-05-20T09:39:03.861Z</time>
      </trkpt>
      <trkpt lat="48.68724" lon="2.06166">
        <ele>128</ele>
        <time>2021-05-20T09:39:04.861Z</time>
      </trkpt>
      <trkpt lat="48.68724" lon="2.06166">
        <ele>128</ele>
        <time>2021-05-20T09:39:05.861Z</time>
      </trkpt>
      <trkpt lat="48.68725" lon="2.06166">
        <ele>128</ele>
        <time>2021-05-20T09:39:06.861Z</time>
      </trkpt>
      <trkpt lat="48.68727" lon="2.06166">
        <ele>128</ele>
        <time>2021-05-20T09:39:07.861Z</time>
      </trkpt>
      <trkpt lat="48.68728" lon="2.06166">
        <ele>128</ele>
        <time>2021-05-20T09:39:08.861Z</time>
      </trkpt>
      <trkpt lat="48.68728" lon="2.06166">
        <ele>128</ele>
        <time>2021-05-20T09:39:09.861Z</time>
      </trkpt>
      <trkpt lat="48.68729" lon="2.06165">
        <ele>127</ele>
        <time>2021-05-20T09:39:10.861Z</time>
      </trkpt>
      <trkpt lat="48.6873" lon="2.06165">
        <ele>127</ele>
        <time>2021-05-20T09:39:11.861Z</time>
      </trkpt>
      <trkpt lat="48.68731" lon="2.06164">
        <ele>127</ele>
        <time>2021-05-20T09:39:12.861Z</time>
      </trkpt>
      <trkpt lat="48.68732" lon="2.06164">
        <ele>127</ele>
        <time>2021-05-20T09:39:13.861Z</time>
      </trkpt>
      <trkpt lat="48.68733" lon="2.06163">
        <ele>127</ele>
        <time>2021-05-20T09:39:14.861Z</time>
      </trkpt>
      <trkpt lat="48.68734" lon="2.06163">
        <ele>127</ele>
        <time>2021-05-20T09:39:15.861Z</time>
      </trkpt>
      <trkpt lat="48.68734" lon="2.06162">
        <ele>126</ele>
        <time>2021-05-20T09:39:16.861Z</time>
      </trkpt>
      <trkpt lat="48.68735" lon="2.06162">
        <ele>126</ele>
        <time>2021-05-20T09:39:17.861Z</time>
      </trkpt>
      <trkpt lat="48.68735" lon="2.06161">
        <ele>126</ele>
        <time>2021-05-20T09:39:18.861Z</time>
      </trkpt>
      <trkpt lat="48.68736" lon="2.06161">
        <ele>126</ele>
        <time>2021-05-20T09:39:19.861Z</time>
      </trkpt>
      <trkpt lat="48.68738" lon="2.06158">
        <ele>125</ele>
        <time>2021-05-20T09:39:20.861Z</time>
      </trkpt>
      <trkpt lat="48.68739" lon="2.06158">
        <ele>125</ele>
        <time>2021-05-20T09:39:21.861Z</time>
      </trkpt>
      <trkpt lat="48.68739" lon="2.06158">
        <ele>125</ele>
        <time>2021-05-20T09:39:22.861Z</time>
      </trkpt>
      <trkpt lat="48.6874" lon="2.06158">
        <ele>125</ele>
        <time>2021-05-20T09:39:23.861Z</time>
      </trkpt>
      <trkpt lat="48.68741" lon="2.06158">
        <ele>125</ele>
        <time>2021-05-20T09:39:24.861Z</time>
      </trkpt>
      <trkpt lat="48.68742" lon="2.06158">
        <ele>125</ele>
        <time>2021-05-20T09:39:25.861Z</time>
      </trkpt>
      <trkpt lat="48.68743" lon="2.06157">
        <ele>125</ele>
        <time>2021-05-20T09:39:26.861Z</time>
      </trkpt>
      <trkpt lat="48.68743" lon="2.06157">
        <ele>125</ele>
        <time>2021-05-20T09:39:27.861Z</time>
      </trkpt>
      <trkpt lat="48.68744" lon="2.06157">
        <ele>124</ele>
        <time>2021-05-20T09:39:28.861Z</time>
      </trkpt>
      <trkpt lat="48.68745" lon="2.06156">
        <ele>124</ele>
        <time>2021-05-20T09:39:29.861Z</time>
      </trkpt>
      <trkpt lat="48.68746" lon="2.06156">
        <ele>124</ele>
        <time>2021-05-20T09:39:30.861Z</time>
      </trkpt>
      <trkpt lat="48.68747" lon="2.06155">
        <ele>124</ele>
        <time>2021-05-20T09:39:31.861Z</time>
      </trkpt>
      <trkpt lat="48.68748" lon="2.06155">
        <ele>124</ele>
        <time>2021-05-20T09:39:32.861Z</time>
      </trkpt>
      <trkpt lat="48.68749" lon="2.06154">
        <ele>124</ele>
        <time>2021-05-20T09:39:33.861Z</time>
      </trkpt>
      <trkpt lat="48.6875" lon="2.06153">
        <ele>124</ele>
        <time>2021-05-20T09:39:34.861Z</time>
      </trkpt>
      <trkpt lat="48.68751" lon="2.06153">
        <ele>124</ele>
        <time>2021-05-20T09:39:35.861Z</time>
      </trkpt>
      <trkpt lat="48.68752" lon="2.06152">
        <ele>123</ele>
        <time>2021-05-20T09:39:36.861Z</time>
      </trkpt>
      <trkpt lat="48.68753" lon="2.06152">
        <ele>123</ele>
        <time>2021-05-20T09:39:37.861Z</time>
      </trkpt>
      <trkpt lat="48.68754" lon="2.06151">
        <ele>123</ele>
        <time>2021-05-20T09:39:38.861Z</time>
      </trkpt>
      <trkpt lat="48.68754" lon="2.06151">
        <ele>123</ele>
        <time>2021-05-20T09:39:39.861Z</time>
      </trkpt>
      <trkpt lat="48.68755" lon="2.06151">
        <ele>123</ele>
        <time>2021-05-20T09:39:40.861Z</time>
      </trkpt>
      <trkpt lat="48.68756" lon="2.06151">
        <ele>123</ele>
        <time>2021-05-20T09:39:41.861Z</time>
      </trkpt>
      <trkpt lat="48.68756" lon="2.0615">
        <ele>123</ele>
        <time>2021-05-20T09:39:42.861Z</time>
      </trkpt>
      <trkpt lat="48.68761" lon="2.06148">
        <ele>122</ele>
        <time>2021-05-20T09:39:43.861Z</time>
      </trkpt>
      <trkpt lat="48.68762" lon="2.06148">
        <ele>122</ele>
        <time>2021-05-20T09:39:44.861Z</time>
      </trkpt>
      <trkpt lat="48.68764" lon="2.06147">
        <ele>122</ele>
        <time>2021-05-20T09:39:45.861Z</time>
      </trkpt>
      <trkpt lat="48.68765" lon="2.06147">
        <ele>122</ele>
        <time>2021-05-20T09:39:46.861Z</time>
      </trkpt>
      <trkpt lat="48.68766" lon="2.06147">
        <ele>122</ele>
        <time>2021-05-20T09:39:47.861Z</time>
      </trkpt>
      <trkpt lat="48.68767" lon="2.06147">
        <ele>122</ele>
        <time>2021-05-20T09:39:48.861Z</time>
      </trkpt>
      <trkpt lat="48.68768" lon="2.06147">
        <ele>122</ele>
        <time>2021-05-20T09:39:49.861Z</time>
      </trkpt>
      <trkpt lat="48.68769" lon="2.06147">
        <ele>122</ele>
        <time>2021-05-20T09:39:50.861Z</time>
      </trkpt>
      <trkpt lat="48.6877" lon="2.06146">
        <ele>121</ele>
        <time>2021-05-20T09:39:51.861Z</time>
      </trkpt>
      <trkpt lat="48.68771" lon="2.06146">
        <ele>121</ele>
        <time>2021-05-20T09:39:52.861Z</time>
      </trkpt>
      <trkpt lat="48.68772" lon="2.06146">
        <ele>121</ele>
        <time>2021-05-20T09:39:53.861Z</time>
      </trkpt>
      <trkpt lat="48.68773" lon="2.06145">
        <ele>121</ele>
        <time>2021-05-20T09:39:54.861Z</time>
      </trkpt>
      <trkpt lat="48.68774" lon="2.06145">
        <ele>121</ele>
        <time>2021-05-20T09:39:55.861Z</time>
      </trkpt>
      <trkpt lat="48.68775" lon="2.06145">
        <ele>121</ele>
        <time>2021-05-20T09:39:56.861Z</time>
      </trkpt>
      <trkpt lat="48.68777" lon="2.06144">
        <ele>121</ele>
        <time>2021-05-20T09:39:57.861Z</time>
      </trkpt>
      <trkpt lat="48.68778" lon="2.06144">
        <ele>121</ele>
        <time>2021-05-20T09:39:58.861Z</time>
      </trkpt>
      <trkpt lat="48.68779" lon="2.06144">
        <ele>120</ele>
        <time>2021-05-20T09:39:59.861Z</time>
      </trkpt>
      <trkpt lat="48.6878" lon="2.06144">
        <ele>120</ele>
        <time>2021-05-20T09:40:00.861Z</time>
      </trkpt>
      <trkpt lat="48.68781" lon="2.06144">
        <ele>120</ele>
        <time>2021-05-20T09:40:01.861Z</time>
      </trkpt>
      <trkpt lat="48.68783" lon="2.06144">
        <ele>120</ele>
        <time>2021-05-20T09:40:02.861Z</time>
      </trkpt>
      <trkpt lat="48.68784" lon="2.06143">
        <ele>120</ele>
        <time>2021-05-20T09:40:03.861Z</time>
      </trkpt>
      <trkpt lat="48.68785" lon="2.06143">
        <ele>120</ele>
        <time>2021-05-20T09:40:04.861Z</time>
      </trkpt>
      <trkpt lat="48.68786" lon="2.06143">
        <ele>121</ele>
        <time>2021-05-20T09:40:05.861Z</time>
      </trkpt>
      <trkpt lat="48.68787" lon="2.06143">
        <ele>121</ele>
        <time>2021-05-20T09:40:06.861Z</time>
      </trkpt>
      <trkpt lat="48.68789" lon="2.06142">
        <ele>121</ele>
        <time>2021-05-20T09:40:07.861Z</time>
      </trkpt>
      <trkpt lat="48.6879" lon="2.06142">
        <ele>121</ele>
        <time>2021-05-20T09:40:08.861Z</time>
      </trkpt>
      <trkpt lat="48.68791" lon="2.06142">
        <ele>121</ele>
        <time>2021-05-20T09:40:09.861Z</time>
      </trkpt>
      <trkpt lat="48.68793" lon="2.06142">
        <ele>121</ele>
        <time>2021-05-20T09:40:10.861Z</time>
      </trkpt>
      <trkpt lat="48.68794" lon="2.06142">
        <ele>121</ele>
        <time>2021-05-20T09:40:11.861Z</time>
      </trkpt>
      <trkpt lat="48.68795" lon="2.06141">
        <ele>121</ele>
        <time>2021-05-20T09:40:12.861Z</time>
      </trkpt>
      <trkpt lat="48.68797" lon="2.06141">
        <ele>121</ele>
        <time>2021-05-20T09:40:13.861Z</time>
      </trkpt>
      <trkpt lat="48.68798" lon="2.06141">
        <ele>121</ele>
        <time>2021-05-20T09:40:14.861Z</time>
      </trkpt>
      <trkpt lat="48.68799" lon="2.0614">
        <ele>121</ele>
        <time>2021-05-20T09:40:15.861Z</time>
      </trkpt>
      <trkpt lat="48.688" lon="2.0614">
        <ele>121</ele>
        <time>2021-05-20T09:40:16.861Z</time>
      </trkpt>
      <trkpt lat="48.68802" lon="2.0614">
        <ele>121</ele>
        <time>2021-05-20T09:40:17.861Z</time>
      </trkpt>
      <trkpt lat="48.68803" lon="2.0614">
        <ele>121</ele>
        <time>2021-05-20T09:40:18.861Z</time>
      </trkpt>
      <trkpt lat="48.68804" lon="2.06139">
        <ele>121</ele>
        <time>2021-05-20T09:40:19.861Z</time>
      </trkpt>
      <trkpt lat="48.68805" lon="2.06139">
        <ele>121</ele>
        <time>2021-05-20T09:40:20.861Z</time>
      </trkpt>
      <trkpt lat="48.68806" lon="2.06139">
        <ele>122</ele>
        <time>2021-05-20T09:40:21.861Z</time>
      </trkpt>
      <trkpt lat="48.68807" lon="2.06138">
        <ele>122</ele>
        <time>2021-05-20T09:40:22.861Z</time>
      </trkpt>
      <trkpt lat="48.68808" lon="2.06138">
        <ele>122</ele>
        <time>2021-05-20T09:40:23.861Z</time>
      </trkpt>
      <trkpt lat="48.68809" lon="2.06138">
        <ele>122</ele>
        <time>2021-05-20T09:40:24.861Z</time>
      </trkpt>
      <trkpt lat="48.6881" lon="2.06137">
        <ele>122</ele>
        <time>2021-05-20T09:40:25.861Z</time>
      </trkpt>
      <trkpt lat="48.68811" lon="2.06137">
        <ele>122</ele>
        <time>2021-05-20T09:40:26.861Z</time>
      </trkpt>
      <trkpt lat="48.68812" lon="2.06137">
        <ele>123</ele>
        <time>2021-05-20T09:40:27.861Z</time>
      </trkpt>
      <trkpt lat="48.68813" lon="2.06137">
        <ele>123</ele>
        <time>2021-05-20T09:40:28.861Z</time>
      </trkpt>
      <trkpt lat="48.68815" lon="2.06137">
        <ele>123</ele>
        <time>2021-05-20T09:40:29.861Z</time>
      </trkpt>
      <trkpt lat="48.68816" lon="2.06137">
        <ele>123</ele>
        <time>2021-05-20T09:40:30.861Z</time>
      </trkpt>
      <trkpt lat="48.68817" lon="2.06137">
        <ele>123</ele>
        <time>2021-05-20T09:40:31.861Z</time>
      </trkpt>
      <trkpt lat="48.68818" lon="2.06137">
        <ele>123</ele>
        <time>2021-05-20T09:40:32.861Z</time>
      </trkpt>
      <trkpt lat="48.68819" lon="2.06137">
        <ele>123</ele>
        <time>2021-05-20T09:40:33.861Z</time>
      </trkpt>
      <trkpt lat="48.68819" lon="2.06137">
        <ele>123</ele>
        <time>2021-05-20T09:40:34.861Z</time>
      </trkpt>
      <trkpt lat="48.6882" lon="2.06137">
        <ele>123</ele>
        <time>2021-05-20T09:40:35.861Z</time>
      </trkpt>
      <trkpt lat="48.68821" lon="2.06136">
        <ele>123</ele>
        <time>2021-05-20T09:40:36.861Z</time>
      </trkpt>
      <trkpt lat="48.68821" lon="2.06136">
        <ele>123</ele>
        <time>2021-05-20T09:40:37.861Z</time>
      </trkpt>
      <trkpt lat="48.68822" lon="2.06136">
        <ele>123</ele>
        <time>2021-05-20T09:40:38.861Z</time>
      </trkpt>
      <trkpt lat="48.68823" lon="2.06136">
        <ele>124</ele>
        <time>2021-05-20T09:40:39.861Z</time>
      </trkpt>
      <trkpt lat="48.68823" lon="2.06135">
        <ele>124</ele>
        <time>2021-05-20T09:40:40.861Z</time>
      </trkpt>
      <trkpt lat="48.68824" lon="2.06135">
        <ele>124</ele>
        <time>2021-05-20T09:40:41.861Z</time>
      </trkpt>
      <trkpt lat="48.68824" lon="2.06135">
        <ele>124</ele>
        <time>2021-05-20T09:40:42.861Z</time>
      </trkpt>
      <trkpt lat="48.68829" lon="2.06132">
        <ele>124</ele>
        <time>2021-05-20T09:40:43.861Z</time>
      </trkpt>
      <trkpt lat="48.6883" lon="2.06131">
        <ele>124</ele>
        <time>2021-05-20T09:40:44.861Z</time>
      </trkpt>
      <trkpt lat="48.6883" lon="2.0613">
        <ele>124</ele>
        <time>2021-05-20T09:40:45.861Z</time>
      </trkpt>
      <trkpt lat="48.68831" lon="2.0613">
        <ele>124</ele>
        <time>2021-05-20T09:40:46.861Z</time>
      </trkpt>
      <trkpt lat="48.68832" lon="2.06129">
        <ele>124</ele>
        <time>2021-05-20T09:40:47.861Z</time>
      </trkpt>
      <trkpt lat="48.68833" lon="2.06129">
        <ele>124</ele>
        <time>2021-05-20T09:40:48.861Z</time>
      </trkpt>
      <trkpt lat="48.68835" lon="2.06129">
        <ele>124</ele>
        <time>2021-05-20T09:40:49.861Z</time>
      </trkpt>
      <trkpt lat="48.68836" lon="2.06128">
        <ele>124</ele>
        <time>2021-05-20T09:40:50.861Z</time>
      </trkpt>
      <trkpt lat="48.68838" lon="2.06127">
        <ele>124</ele>
        <time>2021-05-20T09:40:51.861Z</time>
      </trkpt>
      <trkpt lat="48.68839" lon="2.06127">
        <ele>124</ele>
        <time>2021-05-20T09:40:52.861Z</time>
      </trkpt>
      <trkpt lat="48.68841" lon="2.06127">
        <ele>124</ele>
        <time>2021-05-20T09:40:53.861Z</time>
      </trkpt>
      <trkpt lat="48.68842" lon="2.06126">
        <ele>124</ele>
        <time>2021-05-20T09:40:54.861Z</time>
      </trkpt>
      <trkpt lat="48.68843" lon="2.06126">
        <ele>124</ele>
        <time>2021-05-20T09:40:55.861Z</time>
      </trkpt>
      <trkpt lat="48.68844" lon="2.06126">
        <ele>125</ele>
        <time>2021-05-20T09:40:56.861Z</time>
      </trkpt>
      <trkpt lat="48.68846" lon="2.06126">
        <ele>125</ele>
        <time>2021-05-20T09:40:57.861Z</time>
      </trkpt>
      <trkpt lat="48.68847" lon="2.06126">
        <ele>125</ele>
        <time>2021-05-20T09:40:58.861Z</time>
      </trkpt>
      <trkpt lat="48.68848" lon="2.06125">
        <ele>125</ele>
        <time>2021-05-20T09:40:59.861Z</time>
      </trkpt>
      <trkpt lat="48.6885" lon="2.06125">
        <ele>125</ele>
        <time>2021-05-20T09:41:00.861Z</time>
      </trkpt>
      <trkpt lat="48.68851" lon="2.06124">
        <ele>125</ele>
        <time>2021-05-20T09:41:01.861Z</time>
      </trkpt>
      <trkpt lat="48.68853" lon="2.06124">
        <ele>125</ele>
        <time>2021-05-20T09:41:02.861Z</time>
      </trkpt>
      <trkpt lat="48.68854" lon="2.06123">
        <ele>125</ele>
        <time>2021-05-20T09:41:03.861Z</time>
      </trkpt>
      <trkpt lat="48.68855" lon="2.06123">
        <ele>125</ele>
        <time>2021-05-20T09:41:04.861Z</time>
      </trkpt>
      <trkpt lat="48.68857" lon="2.06123">
        <ele>125</ele>
        <time>2021-05-20T09:41:05.861Z</time>
      </trkpt>
      <trkpt lat="48.68858" lon="2.06123">
        <ele>125</ele>
        <time>2021-05-20T09:41:06.861Z</time>
      </trkpt>
      <trkpt lat="48.68859" lon="2.06122">
        <ele>125</ele>
        <time>2021-05-20T09:41:07.861Z</time>
      </trkpt>
      <trkpt lat="48.6886" lon="2.06122">
        <ele>125</ele>
        <time>2021-05-20T09:41:08.861Z</time>
      </trkpt>
      <trkpt lat="48.68861" lon="2.06121">
        <ele>125</ele>
        <time>2021-05-20T09:41:09.861Z</time>
      </trkpt>
      <trkpt lat="48.68862" lon="2.06121">
        <ele>125</ele>
        <time>2021-05-20T09:41:10.861Z</time>
      </trkpt>
      <trkpt lat="48.68864" lon="2.06121">
        <ele>125</ele>
        <time>2021-05-20T09:41:11.861Z</time>
      </trkpt>
      <trkpt lat="48.68865" lon="2.06121">
        <ele>125</ele>
        <time>2021-05-20T09:41:12.861Z</time>
      </trkpt>
      <trkpt lat="48.68866" lon="2.0612">
        <ele>125</ele>
        <time>2021-05-20T09:41:13.861Z</time>
      </trkpt>
      <trkpt lat="48.68867" lon="2.0612">
        <ele>125</ele>
        <time>2021-05-20T09:41:14.861Z</time>
      </trkpt>
      <trkpt lat="48.68867" lon="2.0612">
        <ele>125</ele>
        <time>2021-05-20T09:41:15.861Z</time>
      </trkpt>
      <trkpt lat="48.68868" lon="2.06119">
        <ele>125</ele>
        <time>2021-05-20T09:41:16.861Z</time>
      </trkpt>
      <trkpt lat="48.68869" lon="2.06119">
        <ele>125</ele>
        <time>2021-05-20T09:41:17.861Z</time>
      </trkpt>
      <trkpt lat="48.6887" lon="2.06119">
        <ele>125</ele>
        <time>2021-05-20T09:41:18.861Z</time>
      </trkpt>
      <trkpt lat="48.68871" lon="2.06118">
        <ele>125</ele>
        <time>2021-05-20T09:41:19.861Z</time>
      </trkpt>
      <trkpt lat="48.68872" lon="2.06118">
        <ele>125</ele>
        <time>2021-05-20T09:41:20.861Z</time>
      </trkpt>
      <trkpt lat="48.68873" lon="2.06118">
        <ele>125</ele>
        <time>2021-05-20T09:41:21.861Z</time>
      </trkpt>
      <trkpt lat="48.68874" lon="2.06117">
        <ele>125</ele>
        <time>2021-05-20T09:41:22.861Z</time>
      </trkpt>
      <trkpt lat="48.68875" lon="2.06116">
        <ele>125</ele>
        <time>2021-05-20T09:41:23.861Z</time>
      </trkpt>
      <trkpt lat="48.68876" lon="2.06116">
        <ele>125</ele>
        <time>2021-05-20T09:41:24.861Z</time>
      </trkpt>
      <trkpt lat="48.68876" lon="2.06116">
        <ele>125</ele>
        <time>2021-05-20T09:41:25.861Z</time>
      </trkpt>
      <trkpt lat="48.68877" lon="2.06115">
        <ele>125</ele>
        <time>2021-05-20T09:41:26.861Z</time>
      </trkpt>
      <trkpt lat="48.68878" lon="2.06115">
        <ele>125</ele>
        <time>2021-05-20T09:41:27.861Z</time>
      </trkpt>
      <trkpt lat="48.68879" lon="2.06114">
        <ele>125</ele>
        <time>2021-05-20T09:41:28.861Z</time>
      </trkpt>
      <trkpt lat="48.6888" lon="2.06114">
        <ele>125</ele>
        <time>2021-05-20T09:41:29.861Z</time>
      </trkpt>
      <trkpt lat="48.68881" lon="2.06114">
        <ele>125</ele>
        <time>2021-05-20T09:41:30.861Z</time>
      </trkpt>
      <trkpt lat="48.68881" lon="2.06114">
        <ele>125</ele>
        <time>2021-05-20T09:41:31.861Z</time>
      </trkpt>
      <trkpt lat="48.68882" lon="2.06113">
        <ele>125</ele>
        <time>2021-05-20T09:41:32.861Z</time>
      </trkpt>
      <trkpt lat="48.68883" lon="2.06113">
        <ele>125</ele>
        <time>2021-05-20T09:41:33.861Z</time>
      </trkpt>
      <trkpt lat="48.68884" lon="2.06113">
        <ele>125</ele>
        <time>2021-05-20T09:41:34.861Z</time>
      </trkpt>
      <trkpt lat="48.68885" lon="2.06112">
        <ele>125</ele>
        <time>2021-05-20T09:41:35.861Z</time>
      </trkpt>
      <trkpt lat="48.68885" lon="2.06112">
        <ele>125</ele>
        <time>2021-05-20T09:41:36.861Z</time>
      </trkpt>
      <trkpt lat="48.68886" lon="2.06112">
        <ele>125</ele>
        <time>2021-05-20T09:41:37.861Z</time>
      </trkpt>
      <trkpt lat="48.68887" lon="2.06112">
        <ele>125</ele>
        <time>2021-05-20T09:41:38.861Z</time>
      </trkpt>
      <trkpt lat="48.68891" lon="2.06108">
        <ele>127</ele>
        <time>2021-05-20T09:41:39.861Z</time>
      </trkpt>
      <trkpt lat="48.68892" lon="2.06108">
        <ele>127</ele>
        <time>2021-05-20T09:41:40.861Z</time>
      </trkpt>
      <trkpt lat="48.68892" lon="2.06107">
        <ele>128</ele>
        <time>2021-05-20T09:41:41.861Z</time>
      </trkpt>
      <trkpt lat="48.68893" lon="2.06107">
        <ele>128</ele>
        <time>2021-05-20T09:41:42.861Z</time>
      </trkpt>
      <trkpt lat="48.68893" lon="2.06107">
        <ele>128</ele>
        <time>2021-05-20T09:41:43.861Z</time>
      </trkpt>
      <trkpt lat="48.68894" lon="2.06108">
        <ele>129</ele>
        <time>2021-05-20T09:41:44.861Z</time>
      </trkpt>
      <trkpt lat="48.68895" lon="2.06108">
        <ele>129</ele>
        <time>2021-05-20T09:41:45.861Z</time>
      </trkpt>
      <trkpt lat="48.68896" lon="2.06108">
        <ele>128</ele>
        <time>2021-05-20T09:41:46.861Z</time>
      </trkpt>
      <trkpt lat="48.68898" lon="2.06108">
        <ele>128</ele>
        <time>2021-05-20T09:41:47.861Z</time>
      </trkpt>
      <trkpt lat="48.68899" lon="2.06108">
        <ele>128</ele>
        <time>2021-05-20T09:41:48.861Z</time>
      </trkpt>
      <trkpt lat="48.689" lon="2.06108">
        <ele>128</ele>
        <time>2021-05-20T09:41:49.861Z</time>
      </trkpt>
      <trkpt lat="48.68901" lon="2.06109">
        <ele>128</ele>
        <time>2021-05-20T09:41:50.861Z</time>
      </trkpt>
      <trkpt lat="48.68902" lon="2.06109">
        <ele>128</ele>
        <time>2021-05-20T09:41:51.861Z</time>
      </trkpt>
      <trkpt lat="48.68904" lon="2.06109">
        <ele>128</ele>
        <time>2021-05-20T09:41:52.861Z</time>
      </trkpt>
      <trkpt lat="48.68905" lon="2.06109">
        <ele>128</ele>
        <time>2021-05-20T09:41:53.861Z</time>
      </trkpt>
      <trkpt lat="48.68906" lon="2.06109">
        <ele>128</ele>
        <time>2021-05-20T09:41:54.861Z</time>
      </trkpt>
      <trkpt lat="48.68907" lon="2.06109">
        <ele>128</ele>
        <time>2021-05-20T09:41:55.861Z</time>
      </trkpt>
      <trkpt lat="48.68908" lon="2.06109">
        <ele>128</ele>
        <time>2021-05-20T09:41:56.861Z</time>
      </trkpt>
      <trkpt lat="48.6891" lon="2.06109">
        <ele>128</ele>
        <time>2021-05-20T09:41:57.861Z</time>
      </trkpt>
      <trkpt lat="48.6891" lon="2.06109">
        <ele>128</ele>
        <time>2021-05-20T09:41:58.861Z</time>
      </trkpt>
      <trkpt lat="48.6891" lon="2.06109">
        <ele>128</ele>
        <time>2021-05-20T09:41:59.861Z</time>
      </trkpt>
      <trkpt lat="48.6891" lon="2.06109">
        <ele>128</ele>
        <time>2021-05-20T09:42:00.861Z</time>
      </trkpt>
      <trkpt lat="48.68911" lon="2.06109">
        <ele>128</ele>
        <time>2021-05-20T09:42:01.861Z</time>
      </trkpt>
      <trkpt lat="48.68914" lon="2.06108">
        <ele>128</ele>
        <time>2021-05-20T09:42:02.861Z</time>
      </trkpt>
      <trkpt lat="48.68915" lon="2.06108">
        <ele>128</ele>
        <time>2021-05-20T09:42:03.861Z</time>
      </trkpt>
      <trkpt lat="48.68916" lon="2.06107">
        <ele>128</ele>
        <time>2021-05-20T09:42:04.861Z</time>
      </trkpt>
      <trkpt lat="48.68917" lon="2.06107">
        <ele>128</ele>
        <time>2021-05-20T09:42:05.861Z</time>
      </trkpt>
      <trkpt lat="48.68919" lon="2.06107">
        <ele>128</ele>
        <time>2021-05-20T09:42:06.861Z</time>
      </trkpt>
      <trkpt lat="48.6892" lon="2.06107">
        <ele>127</ele>
        <time>2021-05-20T09:42:07.861Z</time>
      </trkpt>
      <trkpt lat="48.68922" lon="2.06107">
        <ele>127</ele>
        <time>2021-05-20T09:42:08.861Z</time>
      </trkpt>
      <trkpt lat="48.68923" lon="2.06107">
        <ele>127</ele>
        <time>2021-05-20T09:42:09.861Z</time>
      </trkpt>
      <trkpt lat="48.68924" lon="2.06107">
        <ele>127</ele>
        <time>2021-05-20T09:42:10.861Z</time>
      </trkpt>
      <trkpt lat="48.68926" lon="2.06107">
        <ele>127</ele>
        <time>2021-05-20T09:42:11.861Z</time>
      </trkpt>
      <trkpt lat="48.68926" lon="2.06107">
        <ele>127</ele>
        <time>2021-05-20T09:42:12.861Z</time>
      </trkpt>
      <trkpt lat="48.68927" lon="2.06106">
        <ele>127</ele>
        <time>2021-05-20T09:42:13.861Z</time>
      </trkpt>
      <trkpt lat="48.68928" lon="2.06106">
        <ele>127</ele>
        <time>2021-05-20T09:42:14.861Z</time>
      </trkpt>
      <trkpt lat="48.68931" lon="2.06106">
        <ele>127</ele>
        <time>2021-05-20T09:42:15.861Z</time>
      </trkpt>
      <trkpt lat="48.68931" lon="2.06105">
        <ele>127</ele>
        <time>2021-05-20T09:42:16.861Z</time>
      </trkpt>
      <trkpt lat="48.68932" lon="2.06106">
        <ele>127</ele>
        <time>2021-05-20T09:42:17.861Z</time>
      </trkpt>
      <trkpt lat="48.68934" lon="2.06106">
        <ele>127</ele>
        <time>2021-05-20T09:42:18.861Z</time>
      </trkpt>
      <trkpt lat="48.68935" lon="2.06106">
        <ele>127</ele>
        <time>2021-05-20T09:42:19.861Z</time>
      </trkpt>
      <trkpt lat="48.68935" lon="2.06107">
        <ele>127</ele>
        <time>2021-05-20T09:42:20.861Z</time>
      </trkpt>
      <trkpt lat="48.68936" lon="2.06107">
        <ele>128</ele>
        <time>2021-05-20T09:42:21.861Z</time>
      </trkpt>
      <trkpt lat="48.68937" lon="2.06107">
        <ele>128</ele>
        <time>2021-05-20T09:42:22.861Z</time>
      </trkpt>
      <trkpt lat="48.68938" lon="2.06107">
        <ele>128</ele>
        <time>2021-05-20T09:42:23.861Z</time>
      </trkpt>
      <trkpt lat="48.68939" lon="2.06107">
        <ele>128</ele>
        <time>2021-05-20T09:42:24.861Z</time>
      </trkpt>
      <trkpt lat="48.6894" lon="2.06106">
        <ele>128</ele>
        <time>2021-05-20T09:42:25.861Z</time>
      </trkpt>
      <trkpt lat="48.68941" lon="2.06106">
        <ele>128</ele>
        <time>2021-05-20T09:42:26.861Z</time>
      </trkpt>
      <trkpt lat="48.68942" lon="2.06106">
        <ele>128</ele>
        <time>2021-05-20T09:42:27.861Z</time>
      </trkpt>
      <trkpt lat="48.68943" lon="2.06106">
        <ele>128</ele>
        <time>2021-05-20T09:42:28.861Z</time>
      </trkpt>
      <trkpt lat="48.68945" lon="2.06106">
        <ele>128</ele>
        <time>2021-05-20T09:42:29.861Z</time>
      </trkpt>
      <trkpt lat="48.68946" lon="2.06106">
        <ele>129</ele>
        <time>2021-05-20T09:42:30.861Z</time>
      </trkpt>
      <trkpt lat="48.68947" lon="2.06107">
        <ele>129</ele>
        <time>2021-05-20T09:42:31.861Z</time>
      </trkpt>
      <trkpt lat="48.68948" lon="2.06107">
        <ele>129</ele>
        <time>2021-05-20T09:42:32.861Z</time>
      </trkpt>
      <trkpt lat="48.6895" lon="2.06107">
        <ele>129</ele>
        <time>2021-05-20T09:42:33.861Z</time>
      </trkpt>
      <trkpt lat="48.68951" lon="2.06106">
        <ele>129</ele>
        <time>2021-05-20T09:42:34.861Z</time>
      </trkpt>
      <trkpt lat="48.68951" lon="2.06106">
        <ele>129</ele>
        <time>2021-05-20T09:42:35.861Z</time>
      </trkpt>
      <trkpt lat="48.68952" lon="2.06106">
        <ele>129</ele>
        <time>2021-05-20T09:42:36.861Z</time>
      </trkpt>
      <trkpt lat="48.68953" lon="2.06106">
        <ele>129</ele>
        <time>2021-05-20T09:42:37.861Z</time>
      </trkpt>
      <trkpt lat="48.68955" lon="2.06106">
        <ele>129</ele>
        <time>2021-05-20T09:42:38.861Z</time>
      </trkpt>
      <trkpt lat="48.68956" lon="2.06107">
        <ele>129</ele>
        <time>2021-05-20T09:42:39.861Z</time>
      </trkpt>
      <trkpt lat="48.68957" lon="2.06107">
        <ele>129</ele>
        <time>2021-05-20T09:42:40.861Z</time>
      </trkpt>
      <trkpt lat="48.68958" lon="2.06107">
        <ele>129</ele>
        <time>2021-05-20T09:42:41.861Z</time>
      </trkpt>
      <trkpt lat="48.6896" lon="2.06107">
        <ele>129</ele>
        <time>2021-05-20T09:42:42.861Z</time>
      </trkpt>
      <trkpt lat="48.68961" lon="2.06107">
        <ele>129</ele>
        <time>2021-05-20T09:42:43.861Z</time>
      </trkpt>
      <trkpt lat="48.68963" lon="2.06106">
        <ele>129</ele>
        <time>2021-05-20T09:42:44.861Z</time>
      </trkpt>
      <trkpt lat="48.68964" lon="2.06106">
        <ele>129</ele>
        <time>2021-05-20T09:42:45.861Z</time>
      </trkpt>
      <trkpt lat="48.68965" lon="2.06106">
        <ele>129</ele>
        <time>2021-05-20T09:42:46.861Z</time>
      </trkpt>
      <trkpt lat="48.68966" lon="2.06105">
        <ele>129</ele>
        <time>2021-05-20T09:42:47.861Z</time>
      </trkpt>
      <trkpt lat="48.68967" lon="2.06106">
        <ele>129</ele>
        <time>2021-05-20T09:42:48.861Z</time>
      </trkpt>
      <trkpt lat="48.68969" lon="2.06105">
        <ele>129</ele>
        <time>2021-05-20T09:42:49.861Z</time>
      </trkpt>
      <trkpt lat="48.6897" lon="2.06105">
        <ele>129</ele>
        <time>2021-05-20T09:42:50.861Z</time>
      </trkpt>
      <trkpt lat="48.68972" lon="2.06104">
        <ele>129</ele>
        <time>2021-05-20T09:42:51.861Z</time>
      </trkpt>
      <trkpt lat="48.68973" lon="2.06104">
        <ele>129</ele>
        <time>2021-05-20T09:42:52.861Z</time>
      </trkpt>
      <trkpt lat="48.68975" lon="2.06104">
        <ele>129</ele>
        <time>2021-05-20T09:42:53.861Z</time>
      </trkpt>
      <trkpt lat="48.68976" lon="2.06104">
        <ele>129</ele>
        <time>2021-05-20T09:42:54.861Z</time>
      </trkpt>
      <trkpt lat="48.68977" lon="2.06104">
        <ele>129</ele>
        <time>2021-05-20T09:42:55.861Z</time>
      </trkpt>
      <trkpt lat="48.68979" lon="2.06104">
        <ele>129</ele>
        <time>2021-05-20T09:42:56.861Z</time>
      </trkpt>
      <trkpt lat="48.6898" lon="2.06104">
        <ele>129</ele>
        <time>2021-05-20T09:42:57.861Z</time>
      </trkpt>
      <trkpt lat="48.68981" lon="2.06104">
        <ele>129</ele>
        <time>2021-05-20T09:42:58.861Z</time>
      </trkpt>
      <trkpt lat="48.68983" lon="2.06104">
        <ele>129</ele>
        <time>2021-05-20T09:42:59.861Z</time>
      </trkpt>
      <trkpt lat="48.68984" lon="2.06104">
        <ele>129</ele>
        <time>2021-05-20T09:43:00.861Z</time>
      </trkpt>
      <trkpt lat="48.68985" lon="2.06104">
        <ele>129</ele>
        <time>2021-05-20T09:43:01.861Z</time>
      </trkpt>
      <trkpt lat="48.68986" lon="2.06104">
        <ele>130</ele>
        <time>2021-05-20T09:43:02.861Z</time>
      </trkpt>
      <trkpt lat="48.68986" lon="2.06104">
        <ele>130</ele>
        <time>2021-05-20T09:43:03.861Z</time>
      </trkpt>
      <trkpt lat="48.68987" lon="2.06104">
        <ele>130</ele>
        <time>2021-05-20T09:43:04.861Z</time>
      </trkpt>
      <trkpt lat="48.68988" lon="2.06104">
        <ele>130</ele>
        <time>2021-05-20T09:43:05.861Z</time>
      </trkpt>
      <trkpt lat="48.68989" lon="2.06104">
        <ele>130</ele>
        <time>2021-05-20T09:43:06.861Z</time>
      </trkpt>
      <trkpt lat="48.68989" lon="2.06104">
        <ele>130</ele>
        <time>2021-05-20T09:43:07.861Z</time>
      </trkpt>
      <trkpt lat="48.6899" lon="2.06104">
        <ele>130</ele>
        <time>2021-05-20T09:43:08.861Z</time>
      </trkpt>
      <trkpt lat="48.6899" lon="2.06104">
        <ele>130</ele>
        <time>2021-05-20T09:43:09.861Z</time>
      </trkpt>
      <trkpt lat="48.68992" lon="2.06104">
        <ele>130</ele>
        <time>2021-05-20T09:43:10.861Z</time>
      </trkpt>
      <trkpt lat="48.68993" lon="2.06104">
        <ele>130</ele>
        <time>2021-05-20T09:43:11.861Z</time>
      </trkpt>
      <trkpt lat="48.68994" lon="2.06104">
        <ele>130</ele>
        <time>2021-05-20T09:43:12.861Z</time>
      </trkpt>
      <trkpt lat="48.68995" lon="2.06104">
        <ele>130</ele>
        <time>2021-05-20T09:43:13.861Z</time>
      </trkpt>
      <trkpt lat="48.68999" lon="2.06104">
        <ele>129</ele>
        <time>2021-05-20T09:43:14.861Z</time>
      </trkpt>
      <trkpt lat="48.69" lon="2.06104">
        <ele>129</ele>
        <time>2021-05-20T09:43:15.861Z</time>
      </trkpt>
      <trkpt lat="48.69001" lon="2.06104">
        <ele>129</ele>
        <time>2021-05-20T09:43:16.861Z</time>
      </trkpt>
      <trkpt lat="48.69002" lon="2.06104">
        <ele>129</ele>
        <time>2021-05-20T09:43:17.861Z</time>
      </trkpt>
      <trkpt lat="48.69003" lon="2.06104">
        <ele>129</ele>
        <time>2021-05-20T09:43:18.861Z</time>
      </trkpt>
      <trkpt lat="48.69005" lon="2.06105">
        <ele>129</ele>
        <time>2021-05-20T09:43:19.861Z</time>
      </trkpt>
      <trkpt lat="48.69006" lon="2.06105">
        <ele>129</ele>
        <time>2021-05-20T09:43:20.861Z</time>
      </trkpt>
      <trkpt lat="48.69008" lon="2.06106">
        <ele>129</ele>
        <time>2021-05-20T09:43:21.861Z</time>
      </trkpt>
      <trkpt lat="48.6901" lon="2.06106">
        <ele>129</ele>
        <time>2021-05-20T09:43:22.861Z</time>
      </trkpt>
      <trkpt lat="48.69011" lon="2.06106">
        <ele>128</ele>
        <time>2021-05-20T09:43:23.861Z</time>
      </trkpt>
      <trkpt lat="48.69012" lon="2.06107">
        <ele>128</ele>
        <time>2021-05-20T09:43:24.861Z</time>
      </trkpt>
      <trkpt lat="48.69014" lon="2.06107">
        <ele>128</ele>
        <time>2021-05-20T09:43:25.861Z</time>
      </trkpt>
      <trkpt lat="48.69016" lon="2.06107">
        <ele>128</ele>
        <time>2021-05-20T09:43:26.861Z</time>
      </trkpt>
      <trkpt lat="48.69017" lon="2.06106">
        <ele>128</ele>
        <time>2021-05-20T09:43:27.861Z</time>
      </trkpt>
      <trkpt lat="48.69019" lon="2.06107">
        <ele>127</ele>
        <time>2021-05-20T09:43:28.861Z</time>
      </trkpt>
      <trkpt lat="48.69021" lon="2.06107">
        <ele>127</ele>
        <time>2021-05-20T09:43:29.861Z</time>
      </trkpt>
      <trkpt lat="48.69023" lon="2.06107">
        <ele>127</ele>
        <time>2021-05-20T09:43:30.861Z</time>
      </trkpt>
      <trkpt lat="48.69025" lon="2.06107">
        <ele>126</ele>
        <time>2021-05-20T09:43:31.861Z</time>
      </trkpt>
      <trkpt lat="48.69027" lon="2.06107">
        <ele>126</ele>
        <time>2021-05-20T09:43:32.861Z</time>
      </trkpt>
      <trkpt lat="48.69028" lon="2.06108">
        <ele>126</ele>
        <time>2021-05-20T09:43:33.861Z</time>
      </trkpt>
      <trkpt lat="48.6903" lon="2.06108">
        <ele>126</ele>
        <time>2021-05-20T09:43:34.861Z</time>
      </trkpt>
      <trkpt lat="48.69031" lon="2.06108">
        <ele>125</ele>
        <time>2021-05-20T09:43:35.861Z</time>
      </trkpt>
      <trkpt lat="48.69033" lon="2.06108">
        <ele>125</ele>
        <time>2021-05-20T09:43:36.861Z</time>
      </trkpt>
      <trkpt lat="48.69035" lon="2.06108">
        <ele>125</ele>
        <time>2021-05-20T09:43:37.861Z</time>
      </trkpt>
      <trkpt lat="48.69036" lon="2.06108">
        <ele>125</ele>
        <time>2021-05-20T09:43:38.861Z</time>
      </trkpt>
      <trkpt lat="48.69038" lon="2.06108">
        <ele>125</ele>
        <time>2021-05-20T09:43:39.861Z</time>
      </trkpt>
      <trkpt lat="48.69039" lon="2.06107">
        <ele>124</ele>
        <time>2021-05-20T09:43:40.861Z</time>
      </trkpt>
      <trkpt lat="48.69041" lon="2.06107">
        <ele>124</ele>
        <time>2021-05-20T09:43:41.861Z</time>
      </trkpt>
      <trkpt lat="48.69043" lon="2.06107">
        <ele>124</ele>
        <time>2021-05-20T09:43:42.861Z</time>
      </trkpt>
      <trkpt lat="48.69044" lon="2.06107">
        <ele>124</ele>
        <time>2021-05-20T09:43:43.861Z</time>
      </trkpt>
      <trkpt lat="48.69046" lon="2.06107">
        <ele>123</ele>
        <time>2021-05-20T09:43:44.861Z</time>
      </trkpt>
      <trkpt lat="48.69047" lon="2.06107">
        <ele>123</ele>
        <time>2021-05-20T09:43:45.861Z</time>
      </trkpt>
      <trkpt lat="48.69049" lon="2.06106">
        <ele>123</ele>
        <time>2021-05-20T09:43:46.861Z</time>
      </trkpt>
      <trkpt lat="48.69051" lon="2.06106">
        <ele>123</ele>
        <time>2021-05-20T09:43:47.861Z</time>
      </trkpt>
      <trkpt lat="48.69052" lon="2.06106">
        <ele>123</ele>
        <time>2021-05-20T09:43:48.861Z</time>
      </trkpt>
      <trkpt lat="48.69054" lon="2.06106">
        <ele>123</ele>
        <time>2021-05-20T09:43:49.861Z</time>
      </trkpt>
      <trkpt lat="48.69056" lon="2.06106">
        <ele>123</ele>
        <time>2021-05-20T09:43:50.861Z</time>
      </trkpt>
      <trkpt lat="48.69057" lon="2.06106">
        <ele>123</ele>
        <time>2021-05-20T09:43:51.861Z</time>
      </trkpt>
      <trkpt lat="48.69059" lon="2.06106">
        <ele>122</ele>
        <time>2021-05-20T09:43:52.861Z</time>
      </trkpt>
      <trkpt lat="48.6906" lon="2.06106">
        <ele>122</ele>
        <time>2021-05-20T09:43:53.861Z</time>
      </trkpt>
      <trkpt lat="48.69062" lon="2.06106">
        <ele>122</ele>
        <time>2021-05-20T09:43:54.861Z</time>
      </trkpt>
      <trkpt lat="48.69063" lon="2.06106">
        <ele>122</ele>
        <time>2021-05-20T09:43:55.861Z</time>
      </trkpt>
      <trkpt lat="48.69065" lon="2.06106">
        <ele>122</ele>
        <time>2021-05-20T09:43:56.861Z</time>
      </trkpt>
      <trkpt lat="48.69066" lon="2.06106">
        <ele>122</ele>
        <time>2021-05-20T09:43:57.861Z</time>
      </trkpt>
      <trkpt lat="48.69068" lon="2.06106">
        <ele>122</ele>
        <time>2021-05-20T09:43:58.861Z</time>
      </trkpt>
      <trkpt lat="48.69069" lon="2.06106">
        <ele>122</ele>
        <time>2021-05-20T09:43:59.861Z</time>
      </trkpt>
      <trkpt lat="48.6907" lon="2.06106">
        <ele>122</ele>
        <time>2021-05-20T09:44:00.861Z</time>
      </trkpt>
      <trkpt lat="48.69072" lon="2.06106">
        <ele>122</ele>
        <time>2021-05-20T09:44:01.861Z</time>
      </trkpt>
      <trkpt lat="48.69073" lon="2.06106">
        <ele>122</ele>
        <time>2021-05-20T09:44:02.861Z</time>
      </trkpt>
      <trkpt lat="48.69074" lon="2.06106">
        <ele>122</ele>
        <time>2021-05-20T09:44:03.861Z</time>
      </trkpt>
      <trkpt lat="48.69075" lon="2.06106">
        <ele>122</ele>
        <time>2021-05-20T09:44:04.861Z</time>
      </trkpt>
      <trkpt lat="48.69075" lon="2.06106">
        <ele>122</ele>
        <time>2021-05-20T09:44:05.861Z</time>
      </trkpt>
      <trkpt lat="48.69076" lon="2.06105">
        <ele>122</ele>
        <time>2021-05-20T09:44:06.861Z</time>
      </trkpt>
      <trkpt lat="48.69078" lon="2.06105">
        <ele>122</ele>
        <time>2021-05-20T09:44:07.861Z</time>
      </trkpt>
      <trkpt lat="48.69079" lon="2.06105">
        <ele>122</ele>
        <time>2021-05-20T09:44:08.861Z</time>
      </trkpt>
      <trkpt lat="48.6908" lon="2.06105">
        <ele>122</ele>
        <time>2021-05-20T09:44:09.861Z</time>
      </trkpt>
      <trkpt lat="48.69081" lon="2.06104">
        <ele>122</ele>
        <time>2021-05-20T09:44:10.861Z</time>
      </trkpt>
      <trkpt lat="48.69082" lon="2.06104">
        <ele>122</ele>
        <time>2021-05-20T09:44:11.861Z</time>
      </trkpt>
      <trkpt lat="48.69083" lon="2.06103">
        <ele>123</ele>
        <time>2021-05-20T09:44:12.861Z</time>
      </trkpt>
      <trkpt lat="48.69083" lon="2.06103">
        <ele>123</ele>
        <time>2021-05-20T09:44:13.861Z</time>
      </trkpt>
      <trkpt lat="48.69086" lon="2.06102">
        <ele>123</ele>
        <time>2021-05-20T09:44:14.861Z</time>
      </trkpt>
      <trkpt lat="48.69087" lon="2.06102">
        <ele>124</ele>
        <time>2021-05-20T09:44:15.861Z</time>
      </trkpt>
      <trkpt lat="48.69088" lon="2.06102">
        <ele>124</ele>
        <time>2021-05-20T09:44:16.861Z</time>
      </trkpt>
      <trkpt lat="48.69089" lon="2.06102">
        <ele>124</ele>
        <time>2021-05-20T09:44:17.861Z</time>
      </trkpt>
      <trkpt lat="48.6909" lon="2.06102">
        <ele>124</ele>
        <time>2021-05-20T09:44:18.861Z</time>
      </trkpt>
      <trkpt lat="48.69091" lon="2.06101">
        <ele>124</ele>
        <time>2021-05-20T09:44:19.861Z</time>
      </trkpt>
      <trkpt lat="48.69092" lon="2.06101">
        <ele>124</ele>
        <time>2021-05-20T09:44:20.861Z</time>
      </trkpt>
      <trkpt lat="48.69092" lon="2.06101">
        <ele>124</ele>
        <time>2021-05-20T09:44:21.861Z</time>
      </trkpt>
      <trkpt lat="48.69093" lon="2.06101">
        <ele>124</ele>
        <time>2021-05-20T09:44:22.861Z</time>
      </trkpt>
      <trkpt lat="48.69094" lon="2.06101">
        <ele>125</ele>
        <time>2021-05-20T09:44:23.861Z</time>
      </trkpt>
      <trkpt lat="48.69095" lon="2.061">
        <ele>125</ele>
        <time>2021-05-20T09:44:24.861Z</time>
      </trkpt>
      <trkpt lat="48.69096" lon="2.061">
        <ele>125</ele>
        <time>2021-05-20T09:44:25.861Z</time>
      </trkpt>
      <trkpt lat="48.69098" lon="2.061">
        <ele>125</ele>
        <time>2021-05-20T09:44:26.861Z</time>
      </trkpt>
      <trkpt lat="48.69099" lon="2.061">
        <ele>125</ele>
        <time>2021-05-20T09:44:27.861Z</time>
      </trkpt>
      <trkpt lat="48.691" lon="2.061">
        <ele>125</ele>
        <time>2021-05-20T09:44:28.861Z</time>
      </trkpt>
      <trkpt lat="48.69101" lon="2.061">
        <ele>125</ele>
        <time>2021-05-20T09:44:29.861Z</time>
      </trkpt>
      <trkpt lat="48.69103" lon="2.061">
        <ele>125</ele>
        <time>2021-05-20T09:44:30.861Z</time>
      </trkpt>
      <trkpt lat="48.69104" lon="2.06099">
        <ele>125</ele>
        <time>2021-05-20T09:44:31.861Z</time>
      </trkpt>
      <trkpt lat="48.69105" lon="2.06099">
        <ele>125</ele>
        <time>2021-05-20T09:44:32.861Z</time>
      </trkpt>
      <trkpt lat="48.69106" lon="2.06098">
        <ele>125</ele>
        <time>2021-05-20T09:44:33.861Z</time>
      </trkpt>
      <trkpt lat="48.69107" lon="2.06098">
        <ele>125</ele>
        <time>2021-05-20T09:44:34.861Z</time>
      </trkpt>
      <trkpt lat="48.69109" lon="2.06098">
        <ele>126</ele>
        <time>2021-05-20T09:44:35.861Z</time>
      </trkpt>
      <trkpt lat="48.6911" lon="2.06098">
        <ele>126</ele>
        <time>2021-05-20T09:44:36.861Z</time>
      </trkpt>
      <trkpt lat="48.69111" lon="2.06097">
        <ele>126</ele>
        <time>2021-05-20T09:44:37.861Z</time>
      </trkpt>
      <trkpt lat="48.69112" lon="2.06097">
        <ele>126</ele>
        <time>2021-05-20T09:44:38.861Z</time>
      </trkpt>
      <trkpt lat="48.69113" lon="2.06097">
        <ele>126</ele>
        <time>2021-05-20T09:44:39.861Z</time>
      </trkpt>
      <trkpt lat="48.69113" lon="2.06096">
        <ele>126</ele>
        <time>2021-05-20T09:44:40.861Z</time>
      </trkpt>
      <trkpt lat="48.69114" lon="2.06096">
        <ele>126</ele>
        <time>2021-05-20T09:44:41.861Z</time>
      </trkpt>
      <trkpt lat="48.69119" lon="2.06091">
        <ele>127</ele>
        <time>2021-05-20T09:44:42.861Z</time>
      </trkpt>
      <trkpt lat="48.6912" lon="2.06091">
        <ele>127</ele>
        <time>2021-05-20T09:44:43.861Z</time>
      </trkpt>
      <trkpt lat="48.69121" lon="2.0609">
        <ele>127</ele>
        <time>2021-05-20T09:44:44.861Z</time>
      </trkpt>
      <trkpt lat="48.69122" lon="2.0609">
        <ele>127</ele>
        <time>2021-05-20T09:44:45.861Z</time>
      </trkpt>
      <trkpt lat="48.69124" lon="2.0609">
        <ele>127</ele>
        <time>2021-05-20T09:44:46.861Z</time>
      </trkpt>
      <trkpt lat="48.69125" lon="2.0609">
        <ele>127</ele>
        <time>2021-05-20T09:44:47.861Z</time>
      </trkpt>
      <trkpt lat="48.69127" lon="2.0609">
        <ele>127</ele>
        <time>2021-05-20T09:44:48.861Z</time>
      </trkpt>
      <trkpt lat="48.69128" lon="2.0609">
        <ele>126</ele>
        <time>2021-05-20T09:44:49.861Z</time>
      </trkpt>
      <trkpt lat="48.6913" lon="2.0609">
        <ele>126</ele>
        <time>2021-05-20T09:44:50.861Z</time>
      </trkpt>
      <trkpt lat="48.69132" lon="2.06089">
        <ele>126</ele>
        <time>2021-05-20T09:44:51.861Z</time>
      </trkpt>
      <trkpt lat="48.69133" lon="2.06089">
        <ele>126</ele>
        <time>2021-05-20T09:44:52.861Z</time>
      </trkpt>
      <trkpt lat="48.69134" lon="2.06089">
        <ele>126</ele>
        <time>2021-05-20T09:44:53.861Z</time>
      </trkpt>
      <trkpt lat="48.69136" lon="2.06089">
        <ele>125</ele>
        <time>2021-05-20T09:44:54.861Z</time>
      </trkpt>
      <trkpt lat="48.69138" lon="2.06089">
        <ele>125</ele>
        <time>2021-05-20T09:44:55.861Z</time>
      </trkpt>
      <trkpt lat="48.6914" lon="2.06089">
        <ele>125</ele>
        <time>2021-05-20T09:44:56.861Z</time>
      </trkpt>
      <trkpt lat="48.69141" lon="2.06088">
        <ele>124</ele>
        <time>2021-05-20T09:44:57.861Z</time>
      </trkpt>
      <trkpt lat="48.69142" lon="2.06088">
        <ele>124</ele>
        <time>2021-05-20T09:44:58.861Z</time>
      </trkpt>
      <trkpt lat="48.69144" lon="2.06088">
        <ele>124</ele>
        <time>2021-05-20T09:44:59.861Z</time>
      </trkpt>
      <trkpt lat="48.69145" lon="2.06088">
        <ele>124</ele>
        <time>2021-05-20T09:45:00.861Z</time>
      </trkpt>
      <trkpt lat="48.69146" lon="2.06088">
        <ele>124</ele>
        <time>2021-05-20T09:45:01.861Z</time>
      </trkpt>
      <trkpt lat="48.69147" lon="2.06088">
        <ele>124</ele>
        <time>2021-05-20T09:45:02.861Z</time>
      </trkpt>
      <trkpt lat="48.69149" lon="2.06088">
        <ele>123</ele>
        <time>2021-05-20T09:45:03.861Z</time>
      </trkpt>
      <trkpt lat="48.6915" lon="2.06088">
        <ele>123</ele>
        <time>2021-05-20T09:45:04.861Z</time>
      </trkpt>
      <trkpt lat="48.69151" lon="2.06087">
        <ele>123</ele>
        <time>2021-05-20T09:45:05.861Z</time>
      </trkpt>
      <trkpt lat="48.69153" lon="2.06087">
        <ele>123</ele>
        <time>2021-05-20T09:45:06.861Z</time>
      </trkpt>
      <trkpt lat="48.69154" lon="2.06087">
        <ele>123</ele>
        <time>2021-05-20T09:45:07.861Z</time>
      </trkpt>
      <trkpt lat="48.69155" lon="2.06086">
        <ele>123</ele>
        <time>2021-05-20T09:45:08.861Z</time>
      </trkpt>
      <trkpt lat="48.69157" lon="2.06086">
        <ele>123</ele>
        <time>2021-05-20T09:45:09.861Z</time>
      </trkpt>
      <trkpt lat="48.69158" lon="2.06085">
        <ele>123</ele>
        <time>2021-05-20T09:45:10.861Z</time>
      </trkpt>
      <trkpt lat="48.69159" lon="2.06084">
        <ele>123</ele>
        <time>2021-05-20T09:45:11.861Z</time>
      </trkpt>
      <trkpt lat="48.6916" lon="2.06083">
        <ele>123</ele>
        <time>2021-05-20T09:45:12.861Z</time>
      </trkpt>
      <trkpt lat="48.69161" lon="2.06082">
        <ele>123</ele>
        <time>2021-05-20T09:45:13.861Z</time>
      </trkpt>
      <trkpt lat="48.69162" lon="2.06081">
        <ele>123</ele>
        <time>2021-05-20T09:45:14.861Z</time>
      </trkpt>
      <trkpt lat="48.69163" lon="2.0608">
        <ele>123</ele>
        <time>2021-05-20T09:45:15.861Z</time>
      </trkpt>
      <trkpt lat="48.69164" lon="2.0608">
        <ele>123</ele>
        <time>2021-05-20T09:45:16.861Z</time>
      </trkpt>
      <trkpt lat="48.69165" lon="2.06079">
        <ele>123</ele>
        <time>2021-05-20T09:45:17.861Z</time>
      </trkpt>
      <trkpt lat="48.69166" lon="2.06079">
        <ele>123</ele>
        <time>2021-05-20T09:45:18.861Z</time>
      </trkpt>
      <trkpt lat="48.69167" lon="2.06078">
        <ele>123</ele>
        <time>2021-05-20T09:45:19.861Z</time>
      </trkpt>
      <trkpt lat="48.69168" lon="2.06078">
        <ele>123</ele>
        <time>2021-05-20T09:45:20.861Z</time>
      </trkpt>
      <trkpt lat="48.69169" lon="2.06077">
        <ele>123</ele>
        <time>2021-05-20T09:45:21.861Z</time>
      </trkpt>
      <trkpt lat="48.6917" lon="2.06077">
        <ele>123</ele>
        <time>2021-05-20T09:45:22.861Z</time>
      </trkpt>
      <trkpt lat="48.69171" lon="2.06077">
        <ele>124</ele>
        <time>2021-05-20T09:45:23.861Z</time>
      </trkpt>
      <trkpt lat="48.69172" lon="2.06077">
        <ele>124</ele>
        <time>2021-05-20T09:45:24.861Z</time>
      </trkpt>
      <trkpt lat="48.69174" lon="2.06077">
        <ele>124</ele>
        <time>2021-05-20T09:45:25.861Z</time>
      </trkpt>
      <trkpt lat="48.69174" lon="2.06077">
        <ele>124</ele>
        <time>2021-05-20T09:45:26.861Z</time>
      </trkpt>
      <trkpt lat="48.69175" lon="2.06077">
        <ele>124</ele>
        <time>2021-05-20T09:45:27.861Z</time>
      </trkpt>
      <trkpt lat="48.69176" lon="2.06077">
        <ele>124</ele>
        <time>2021-05-20T09:45:28.861Z</time>
      </trkpt>
      <trkpt lat="48.69176" lon="2.06077">
        <ele>124</ele>
        <time>2021-05-20T09:45:29.861Z</time>
      </trkpt>
      <trkpt lat="48.69177" lon="2.06076">
        <ele>124</ele>
        <time>2021-05-20T09:45:30.861Z</time>
      </trkpt>
      <trkpt lat="48.69181" lon="2.06076">
        <ele>125</ele>
        <time>2021-05-20T09:45:31.861Z</time>
      </trkpt>
      <trkpt lat="48.69181" lon="2.06076">
        <ele>125</ele>
        <time>2021-05-20T09:45:32.861Z</time>
      </trkpt>
      <trkpt lat="48.69184" lon="2.06074">
        <ele>125</ele>
        <time>2021-05-20T09:45:33.861Z</time>
      </trkpt>
      <trkpt lat="48.69185" lon="2.06074">
        <ele>125</ele>
        <time>2021-05-20T09:45:34.861Z</time>
      </trkpt>
      <trkpt lat="48.69186" lon="2.06074">
        <ele>125</ele>
        <time>2021-05-20T09:45:35.861Z</time>
      </trkpt>
      <trkpt lat="48.69187" lon="2.06074">
        <ele>125</ele>
        <time>2021-05-20T09:45:36.861Z</time>
      </trkpt>
      <trkpt lat="48.69188" lon="2.06073">
        <ele>125</ele>
        <time>2021-05-20T09:45:37.861Z</time>
      </trkpt>
      <trkpt lat="48.69189" lon="2.06073">
        <ele>125</ele>
        <time>2021-05-20T09:45:38.861Z</time>
      </trkpt>
      <trkpt lat="48.6919" lon="2.06072">
        <ele>125</ele>
        <time>2021-05-20T09:45:39.861Z</time>
      </trkpt>
      <trkpt lat="48.69191" lon="2.06072">
        <ele>125</ele>
        <time>2021-05-20T09:45:40.861Z</time>
      </trkpt>
      <trkpt lat="48.69192" lon="2.06071">
        <ele>125</ele>
        <time>2021-05-20T09:45:41.861Z</time>
      </trkpt>
      <trkpt lat="48.69192" lon="2.06071">
        <ele>125</ele>
        <time>2021-05-20T09:45:42.861Z</time>
      </trkpt>
      <trkpt lat="48.69193" lon="2.06071">
        <ele>125</ele>
        <time>2021-05-20T09:45:43.861Z</time>
      </trkpt>
      <trkpt lat="48.69194" lon="2.0607">
        <ele>125</ele>
        <time>2021-05-20T09:45:44.861Z</time>
      </trkpt>
      <trkpt lat="48.69195" lon="2.0607">
        <ele>125</ele>
        <time>2021-05-20T09:45:45.861Z</time>
      </trkpt>
      <trkpt lat="48.69195" lon="2.0607">
        <ele>125</ele>
        <time>2021-05-20T09:45:46.861Z</time>
      </trkpt>
      <trkpt lat="48.69196" lon="2.06069">
        <ele>125</ele>
        <time>2021-05-20T09:45:47.861Z</time>
      </trkpt>
      <trkpt lat="48.69196" lon="2.06069">
        <ele>125</ele>
        <time>2021-05-20T09:45:48.861Z</time>
      </trkpt>
      <trkpt lat="48.69197" lon="2.06068">
        <ele>125</ele>
        <time>2021-05-20T09:45:49.861Z</time>
      </trkpt>
      <trkpt lat="48.69197" lon="2.06068">
        <ele>125</ele>
        <time>2021-05-20T09:45:50.861Z</time>
      </trkpt>
      <trkpt lat="48.69198" lon="2.06067">
        <ele>125</ele>
        <time>2021-05-20T09:45:51.861Z</time>
      </trkpt>
      <trkpt lat="48.69199" lon="2.06066">
        <ele>125</ele>
        <time>2021-05-20T09:45:52.861Z</time>
      </trkpt>
      <trkpt lat="48.69199" lon="2.06065">
        <ele>125</ele>
        <time>2021-05-20T09:45:53.861Z</time>
      </trkpt>
      <trkpt lat="48.692" lon="2.06065">
        <ele>125</ele>
        <time>2021-05-20T09:45:54.861Z</time>
      </trkpt>
      <trkpt lat="48.69201" lon="2.06064">
        <ele>125</ele>
        <time>2021-05-20T09:45:55.861Z</time>
      </trkpt>
      <trkpt lat="48.69202" lon="2.06064">
        <ele>125</ele>
        <time>2021-05-20T09:45:56.861Z</time>
      </trkpt>
      <trkpt lat="48.69203" lon="2.06064">
        <ele>125</ele>
        <time>2021-05-20T09:45:57.861Z</time>
      </trkpt>
      <trkpt lat="48.69204" lon="2.06063">
        <ele>124</ele>
        <time>2021-05-20T09:45:58.861Z</time>
      </trkpt>
      <trkpt lat="48.69205" lon="2.06063">
        <ele>124</ele>
        <time>2021-05-20T09:45:59.861Z</time>
      </trkpt>
      <trkpt lat="48.69206" lon="2.06062">
        <ele>124</ele>
        <time>2021-05-20T09:46:00.861Z</time>
      </trkpt>
      <trkpt lat="48.69207" lon="2.06062">
        <ele>124</ele>
        <time>2021-05-20T09:46:01.861Z</time>
      </trkpt>
      <trkpt lat="48.69208" lon="2.06061">
        <ele>124</ele>
        <time>2021-05-20T09:46:02.861Z</time>
      </trkpt>
      <trkpt lat="48.69209" lon="2.06061">
        <ele>123</ele>
        <time>2021-05-20T09:46:03.861Z</time>
      </trkpt>
      <trkpt lat="48.69211" lon="2.0606">
        <ele>123</ele>
        <time>2021-05-20T09:46:04.861Z</time>
      </trkpt>
      <trkpt lat="48.69212" lon="2.0606">
        <ele>123</ele>
        <time>2021-05-20T09:46:05.861Z</time>
      </trkpt>
      <trkpt lat="48.69213" lon="2.0606">
        <ele>123</ele>
        <time>2021-05-20T09:46:06.861Z</time>
      </trkpt>
      <trkpt lat="48.69214" lon="2.06059">
        <ele>123</ele>
        <time>2021-05-20T09:46:07.861Z</time>
      </trkpt>
      <trkpt lat="48.69215" lon="2.06059">
        <ele>123</ele>
        <time>2021-05-20T09:46:08.861Z</time>
      </trkpt>
      <trkpt lat="48.69216" lon="2.06058">
        <ele>122</ele>
        <time>2021-05-20T09:46:09.861Z</time>
      </trkpt>
      <trkpt lat="48.69217" lon="2.06058">
        <ele>122</ele>
        <time>2021-05-20T09:46:10.861Z</time>
      </trkpt>
      <trkpt lat="48.69218" lon="2.06057">
        <ele>122</ele>
        <time>2021-05-20T09:46:11.861Z</time>
      </trkpt>
      <trkpt lat="48.69219" lon="2.06056">
        <ele>122</ele>
        <time>2021-05-20T09:46:12.861Z</time>
      </trkpt>
      <trkpt lat="48.69219" lon="2.06056">
        <ele>122</ele>
        <time>2021-05-20T09:46:13.861Z</time>
      </trkpt>
      <trkpt lat="48.6922" lon="2.06055">
        <ele>122</ele>
        <time>2021-05-20T09:46:14.861Z</time>
      </trkpt>
      <trkpt lat="48.69221" lon="2.06054">
        <ele>122</ele>
        <time>2021-05-20T09:46:15.861Z</time>
      </trkpt>
      <trkpt lat="48.69222" lon="2.06053">
        <ele>122</ele>
        <time>2021-05-20T09:46:16.861Z</time>
      </trkpt>
      <trkpt lat="48.69222" lon="2.06052">
        <ele>122</ele>
        <time>2021-05-20T09:46:17.861Z</time>
      </trkpt>
      <trkpt lat="48.69223" lon="2.06052">
        <ele>122</ele>
        <time>2021-05-20T09:46:18.861Z</time>
      </trkpt>
      <trkpt lat="48.69224" lon="2.06051">
        <ele>122</ele>
        <time>2021-05-20T09:46:19.861Z</time>
      </trkpt>
      <trkpt lat="48.69225" lon="2.0605">
        <ele>122</ele>
        <time>2021-05-20T09:46:20.861Z</time>
      </trkpt>
      <trkpt lat="48.69226" lon="2.0605">
        <ele>122</ele>
        <time>2021-05-20T09:46:21.861Z</time>
      </trkpt>
      <trkpt lat="48.69227" lon="2.0605">
        <ele>122</ele>
        <time>2021-05-20T09:46:22.861Z</time>
      </trkpt>
      <trkpt lat="48.69228" lon="2.06049">
        <ele>122</ele>
        <time>2021-05-20T09:46:23.861Z</time>
      </trkpt>
      <trkpt lat="48.69229" lon="2.06049">
        <ele>122</ele>
        <time>2021-05-20T09:46:24.861Z</time>
      </trkpt>
      <trkpt lat="48.6923" lon="2.06048">
        <ele>122</ele>
        <time>2021-05-20T09:46:25.861Z</time>
      </trkpt>
      <trkpt lat="48.69232" lon="2.06047">
        <ele>122</ele>
        <time>2021-05-20T09:46:26.861Z</time>
      </trkpt>
      <trkpt lat="48.69233" lon="2.06046">
        <ele>122</ele>
        <time>2021-05-20T09:46:27.861Z</time>
      </trkpt>
      <trkpt lat="48.69235" lon="2.06045">
        <ele>122</ele>
        <time>2021-05-20T09:46:28.861Z</time>
      </trkpt>
      <trkpt lat="48.69237" lon="2.06045">
        <ele>122</ele>
        <time>2021-05-20T09:46:29.861Z</time>
      </trkpt>
      <trkpt lat="48.69239" lon="2.06044">
        <ele>122</ele>
        <time>2021-05-20T09:46:30.861Z</time>
      </trkpt>
      <trkpt lat="48.6924" lon="2.06044">
        <ele>122</ele>
        <time>2021-05-20T09:46:31.861Z</time>
      </trkpt>
      <trkpt lat="48.69242" lon="2.06043">
        <ele>121</ele>
        <time>2021-05-20T09:46:32.861Z</time>
      </trkpt>
      <trkpt lat="48.69244" lon="2.06042">
        <ele>121</ele>
        <time>2021-05-20T09:46:33.861Z</time>
      </trkpt>
      <trkpt lat="48.69245" lon="2.06042">
        <ele>121</ele>
        <time>2021-05-20T09:46:34.861Z</time>
      </trkpt>
      <trkpt lat="48.69247" lon="2.06041">
        <ele>121</ele>
        <time>2021-05-20T09:46:35.861Z</time>
      </trkpt>
      <trkpt lat="48.69248" lon="2.0604">
        <ele>121</ele>
        <time>2021-05-20T09:46:36.861Z</time>
      </trkpt>
      <trkpt lat="48.69249" lon="2.06039">
        <ele>121</ele>
        <time>2021-05-20T09:46:37.861Z</time>
      </trkpt>
      <trkpt lat="48.6925" lon="2.06038">
        <ele>121</ele>
        <time>2021-05-20T09:46:38.861Z</time>
      </trkpt>
      <trkpt lat="48.69251" lon="2.06037">
        <ele>121</ele>
        <time>2021-05-20T09:46:39.861Z</time>
      </trkpt>
      <trkpt lat="48.69253" lon="2.06036">
        <ele>121</ele>
        <time>2021-05-20T09:46:40.861Z</time>
      </trkpt>
      <trkpt lat="48.69254" lon="2.06035">
        <ele>121</ele>
        <time>2021-05-20T09:46:41.861Z</time>
      </trkpt>
      <trkpt lat="48.69255" lon="2.06034">
        <ele>121</ele>
        <time>2021-05-20T09:46:42.861Z</time>
      </trkpt>
      <trkpt lat="48.69256" lon="2.06034">
        <ele>121</ele>
        <time>2021-05-20T09:46:43.861Z</time>
      </trkpt>
      <trkpt lat="48.69257" lon="2.06033">
        <ele>121</ele>
        <time>2021-05-20T09:46:44.861Z</time>
      </trkpt>
      <trkpt lat="48.69258" lon="2.06033">
        <ele>121</ele>
        <time>2021-05-20T09:46:45.861Z</time>
      </trkpt>
      <trkpt lat="48.69259" lon="2.06032">
        <ele>121</ele>
        <time>2021-05-20T09:46:46.861Z</time>
      </trkpt>
      <trkpt lat="48.6926" lon="2.06032">
        <ele>121</ele>
        <time>2021-05-20T09:46:47.861Z</time>
      </trkpt>
      <trkpt lat="48.69261" lon="2.06032">
        <ele>121</ele>
        <time>2021-05-20T09:46:48.861Z</time>
      </trkpt>
      <trkpt lat="48.69262" lon="2.06031">
        <ele>121</ele>
        <time>2021-05-20T09:46:49.861Z</time>
      </trkpt>
      <trkpt lat="48.69263" lon="2.0603">
        <ele>122</ele>
        <time>2021-05-20T09:46:50.861Z</time>
      </trkpt>
      <trkpt lat="48.69264" lon="2.06029">
        <ele>122</ele>
        <time>2021-05-20T09:46:51.861Z</time>
      </trkpt>
      <trkpt lat="48.69265" lon="2.06028">
        <ele>122</ele>
        <time>2021-05-20T09:46:52.861Z</time>
      </trkpt>
      <trkpt lat="48.69266" lon="2.06027">
        <ele>122</ele>
        <time>2021-05-20T09:46:53.861Z</time>
      </trkpt>
      <trkpt lat="48.69267" lon="2.06026">
        <ele>122</ele>
        <time>2021-05-20T09:46:54.861Z</time>
      </trkpt>
      <trkpt lat="48.69268" lon="2.06026">
        <ele>122</ele>
        <time>2021-05-20T09:46:55.861Z</time>
      </trkpt>
      <trkpt lat="48.69269" lon="2.06025">
        <ele>122</ele>
        <time>2021-05-20T09:46:56.861Z</time>
      </trkpt>
      <trkpt lat="48.6927" lon="2.06024">
        <ele>122</ele>
        <time>2021-05-20T09:46:57.861Z</time>
      </trkpt>
      <trkpt lat="48.69271" lon="2.06023">
        <ele>123</ele>
        <time>2021-05-20T09:46:58.861Z</time>
      </trkpt>
      <trkpt lat="48.69272" lon="2.06023">
        <ele>123</ele>
        <time>2021-05-20T09:46:59.861Z</time>
      </trkpt>
      <trkpt lat="48.69273" lon="2.06022">
        <ele>123</ele>
        <time>2021-05-20T09:47:00.861Z</time>
      </trkpt>
      <trkpt lat="48.69274" lon="2.06022">
        <ele>123</ele>
        <time>2021-05-20T09:47:01.861Z</time>
      </trkpt>
      <trkpt lat="48.69275" lon="2.06021">
        <ele>123</ele>
        <time>2021-05-20T09:47:02.861Z</time>
      </trkpt>
      <trkpt lat="48.69276" lon="2.0602">
        <ele>123</ele>
        <time>2021-05-20T09:47:03.861Z</time>
      </trkpt>
      <trkpt lat="48.69278" lon="2.06019">
        <ele>123</ele>
        <time>2021-05-20T09:47:04.861Z</time>
      </trkpt>
      <trkpt lat="48.69279" lon="2.06019">
        <ele>123</ele>
        <time>2021-05-20T09:47:05.861Z</time>
      </trkpt>
      <trkpt lat="48.6928" lon="2.06018">
        <ele>123</ele>
        <time>2021-05-20T09:47:06.861Z</time>
      </trkpt>
      <trkpt lat="48.69281" lon="2.06017">
        <ele>123</ele>
        <time>2021-05-20T09:47:07.861Z</time>
      </trkpt>
      <trkpt lat="48.69282" lon="2.06016">
        <ele>123</ele>
        <time>2021-05-20T09:47:08.861Z</time>
      </trkpt>
      <trkpt lat="48.69283" lon="2.06015">
        <ele>123</ele>
        <time>2021-05-20T09:47:09.861Z</time>
      </trkpt>
      <trkpt lat="48.69284" lon="2.06015">
        <ele>123</ele>
        <time>2021-05-20T09:47:10.861Z</time>
      </trkpt>
      <trkpt lat="48.69285" lon="2.06014">
        <ele>123</ele>
        <time>2021-05-20T09:47:11.861Z</time>
      </trkpt>
      <trkpt lat="48.69286" lon="2.06013">
        <ele>123</ele>
        <time>2021-05-20T09:47:12.861Z</time>
      </trkpt>
      <trkpt lat="48.69288" lon="2.06013">
        <ele>122</ele>
        <time>2021-05-20T09:47:13.861Z</time>
      </trkpt>
      <trkpt lat="48.69289" lon="2.06012">
        <ele>122</ele>
        <time>2021-05-20T09:47:14.861Z</time>
      </trkpt>
      <trkpt lat="48.6929" lon="2.06011">
        <ele>122</ele>
        <time>2021-05-20T09:47:15.861Z</time>
      </trkpt>
      <trkpt lat="48.69291" lon="2.0601">
        <ele>122</ele>
        <time>2021-05-20T09:47:16.861Z</time>
      </trkpt>
      <trkpt lat="48.69293" lon="2.06009">
        <ele>122</ele>
        <time>2021-05-20T09:47:17.861Z</time>
      </trkpt>
      <trkpt lat="48.69294" lon="2.06008">
        <ele>121</ele>
        <time>2021-05-20T09:47:18.861Z</time>
      </trkpt>
      <trkpt lat="48.69295" lon="2.06007">
        <ele>121</ele>
        <time>2021-05-20T09:47:19.861Z</time>
      </trkpt>
      <trkpt lat="48.69296" lon="2.06006">
        <ele>121</ele>
        <time>2021-05-20T09:47:20.861Z</time>
      </trkpt>
      <trkpt lat="48.69297" lon="2.06006">
        <ele>121</ele>
        <time>2021-05-20T09:47:21.861Z</time>
      </trkpt>
      <trkpt lat="48.69298" lon="2.06005">
        <ele>121</ele>
        <time>2021-05-20T09:47:22.861Z</time>
      </trkpt>
      <trkpt lat="48.69299" lon="2.06004">
        <ele>121</ele>
        <time>2021-05-20T09:47:23.861Z</time>
      </trkpt>
      <trkpt lat="48.693" lon="2.06003">
        <ele>121</ele>
        <time>2021-05-20T09:47:24.861Z</time>
      </trkpt>
      <trkpt lat="48.69301" lon="2.06002">
        <ele>121</ele>
        <time>2021-05-20T09:47:25.861Z</time>
      </trkpt>
      <trkpt lat="48.69302" lon="2.06002">
        <ele>121</ele>
        <time>2021-05-20T09:47:26.861Z</time>
      </trkpt>
      <trkpt lat="48.69303" lon="2.06001">
        <ele>121</ele>
        <time>2021-05-20T09:47:27.861Z</time>
      </trkpt>
      <trkpt lat="48.69304" lon="2.06">
        <ele>121</ele>
        <time>2021-05-20T09:47:28.861Z</time>
      </trkpt>
      <trkpt lat="48.69305" lon="2.06">
        <ele>121</ele>
        <time>2021-05-20T09:47:29.861Z</time>
      </trkpt>
      <trkpt lat="48.69306" lon="2.05999">
        <ele>121</ele>
        <time>2021-05-20T09:47:30.861Z</time>
      </trkpt>
      <trkpt lat="48.69307" lon="2.05998">
        <ele>121</ele>
        <time>2021-05-20T09:47:31.861Z</time>
      </trkpt>
      <trkpt lat="48.69308" lon="2.05998">
        <ele>121</ele>
        <time>2021-05-20T09:47:32.861Z</time>
      </trkpt>
      <trkpt lat="48.69309" lon="2.05998">
        <ele>121</ele>
        <time>2021-05-20T09:47:33.861Z</time>
      </trkpt>
      <trkpt lat="48.6931" lon="2.05997">
        <ele>121</ele>
        <time>2021-05-20T09:47:34.861Z</time>
      </trkpt>
      <trkpt lat="48.6931" lon="2.05996">
        <ele>121</ele>
        <time>2021-05-20T09:47:35.861Z</time>
      </trkpt>
      <trkpt lat="48.69311" lon="2.05996">
        <ele>121</ele>
        <time>2021-05-20T09:47:36.861Z</time>
      </trkpt>
      <trkpt lat="48.69312" lon="2.05995">
        <ele>121</ele>
        <time>2021-05-20T09:47:37.861Z</time>
      </trkpt>
      <trkpt lat="48.69313" lon="2.05994">
        <ele>121</ele>
        <time>2021-05-20T09:47:38.861Z</time>
      </trkpt>
      <trkpt lat="48.69314" lon="2.05994">
        <ele>121</ele>
        <time>2021-05-20T09:47:39.861Z</time>
      </trkpt>
      <trkpt lat="48.69315" lon="2.05993">
        <ele>121</ele>
        <time>2021-05-20T09:47:40.861Z</time>
      </trkpt>
      <trkpt lat="48.69316" lon="2.05993">
        <ele>121</ele>
        <time>2021-05-20T09:47:41.861Z</time>
      </trkpt>
      <trkpt lat="48.69317" lon="2.05992">
        <ele>121</ele>
        <time>2021-05-20T09:47:42.861Z</time>
      </trkpt>
      <trkpt lat="48.69319" lon="2.05991">
        <ele>121</ele>
        <time>2021-05-20T09:47:43.861Z</time>
      </trkpt>
      <trkpt lat="48.6932" lon="2.0599">
        <ele>121</ele>
        <time>2021-05-20T09:47:44.861Z</time>
      </trkpt>
      <trkpt lat="48.69321" lon="2.05989">
        <ele>122</ele>
        <time>2021-05-20T09:47:45.861Z</time>
      </trkpt>
      <trkpt lat="48.69321" lon="2.05988">
        <ele>122</ele>
        <time>2021-05-20T09:47:46.861Z</time>
      </trkpt>
      <trkpt lat="48.69322" lon="2.05987">
        <ele>122</ele>
        <time>2021-05-20T09:47:47.861Z</time>
      </trkpt>
      <trkpt lat="48.69323" lon="2.05987">
        <ele>122</ele>
        <time>2021-05-20T09:47:48.861Z</time>
      </trkpt>
      <trkpt lat="48.69324" lon="2.05986">
        <ele>122</ele>
        <time>2021-05-20T09:47:49.861Z</time>
      </trkpt>
      <trkpt lat="48.69325" lon="2.05986">
        <ele>122</ele>
        <time>2021-05-20T09:47:50.861Z</time>
      </trkpt>
      <trkpt lat="48.69326" lon="2.05986">
        <ele>122</ele>
        <time>2021-05-20T09:47:51.861Z</time>
      </trkpt>
      <trkpt lat="48.69327" lon="2.05986">
        <ele>121</ele>
        <time>2021-05-20T09:47:52.861Z</time>
      </trkpt>
      <trkpt lat="48.69329" lon="2.05986">
        <ele>121</ele>
        <time>2021-05-20T09:47:53.861Z</time>
      </trkpt>
      <trkpt lat="48.6933" lon="2.05986">
        <ele>121</ele>
        <time>2021-05-20T09:47:54.861Z</time>
      </trkpt>
      <trkpt lat="48.69331" lon="2.05986">
        <ele>121</ele>
        <time>2021-05-20T09:47:55.861Z</time>
      </trkpt>
      <trkpt lat="48.69333" lon="2.05986">
        <ele>121</ele>
        <time>2021-05-20T09:47:56.861Z</time>
      </trkpt>
      <trkpt lat="48.69334" lon="2.05986">
        <ele>121</ele>
        <time>2021-05-20T09:47:57.861Z</time>
      </trkpt>
      <trkpt lat="48.69335" lon="2.05986">
        <ele>121</ele>
        <time>2021-05-20T09:47:58.861Z</time>
      </trkpt>
      <trkpt lat="48.69337" lon="2.05985">
        <ele>120</ele>
        <time>2021-05-20T09:47:59.861Z</time>
      </trkpt>
      <trkpt lat="48.69339" lon="2.05985">
        <ele>120</ele>
        <time>2021-05-20T09:48:00.861Z</time>
      </trkpt>
      <trkpt lat="48.6934" lon="2.05985">
        <ele>120</ele>
        <time>2021-05-20T09:48:01.861Z</time>
      </trkpt>
      <trkpt lat="48.69342" lon="2.05984">
        <ele>120</ele>
        <time>2021-05-20T09:48:02.861Z</time>
      </trkpt>
      <trkpt lat="48.69344" lon="2.05984">
        <ele>120</ele>
        <time>2021-05-20T09:48:03.861Z</time>
      </trkpt>
      <trkpt lat="48.69345" lon="2.05983">
        <ele>119</ele>
        <time>2021-05-20T09:48:04.861Z</time>
      </trkpt>
      <trkpt lat="48.69347" lon="2.05983">
        <ele>119</ele>
        <time>2021-05-20T09:48:05.861Z</time>
      </trkpt>
      <trkpt lat="48.69348" lon="2.05982">
        <ele>119</ele>
        <time>2021-05-20T09:48:06.861Z</time>
      </trkpt>
      <trkpt lat="48.6935" lon="2.05982">
        <ele>119</ele>
        <time>2021-05-20T09:48:07.861Z</time>
      </trkpt>
      <trkpt lat="48.69352" lon="2.05982">
        <ele>119</ele>
        <time>2021-05-20T09:48:08.861Z</time>
      </trkpt>
      <trkpt lat="48.69353" lon="2.05981">
        <ele>119</ele>
        <time>2021-05-20T09:48:09.861Z</time>
      </trkpt>
      <trkpt lat="48.69354" lon="2.0598">
        <ele>119</ele>
        <time>2021-05-20T09:48:10.861Z</time>
      </trkpt>
      <trkpt lat="48.69356" lon="2.0598">
        <ele>119</ele>
        <time>2021-05-20T09:48:11.861Z</time>
      </trkpt>
      <trkpt lat="48.69357" lon="2.05979">
        <ele>118</ele>
        <time>2021-05-20T09:48:12.861Z</time>
      </trkpt>
      <trkpt lat="48.69358" lon="2.05978">
        <ele>118</ele>
        <time>2021-05-20T09:48:13.861Z</time>
      </trkpt>
      <trkpt lat="48.6936" lon="2.05977">
        <ele>118</ele>
        <time>2021-05-20T09:48:14.861Z</time>
      </trkpt>
      <trkpt lat="48.69361" lon="2.05977">
        <ele>118</ele>
        <time>2021-05-20T09:48:15.861Z</time>
      </trkpt>
      <trkpt lat="48.69363" lon="2.05976">
        <ele>118</ele>
        <time>2021-05-20T09:48:16.861Z</time>
      </trkpt>
      <trkpt lat="48.69364" lon="2.05975">
        <ele>118</ele>
        <time>2021-05-20T09:48:17.861Z</time>
      </trkpt>
      <trkpt lat="48.69365" lon="2.05975">
        <ele>118</ele>
        <time>2021-05-20T09:48:18.861Z</time>
      </trkpt>
      <trkpt lat="48.69366" lon="2.05974">
        <ele>118</ele>
        <time>2021-05-20T09:48:19.861Z</time>
      </trkpt>
      <trkpt lat="48.69367" lon="2.05974">
        <ele>118</ele>
        <time>2021-05-20T09:48:20.861Z</time>
      </trkpt>
      <trkpt lat="48.69369" lon="2.05973">
        <ele>118</ele>
        <time>2021-05-20T09:48:21.861Z</time>
      </trkpt>
      <trkpt lat="48.6937" lon="2.05973">
        <ele>118</ele>
        <time>2021-05-20T09:48:22.861Z</time>
      </trkpt>
      <trkpt lat="48.69371" lon="2.05972">
        <ele>118</ele>
        <time>2021-05-20T09:48:23.861Z</time>
      </trkpt>
      <trkpt lat="48.69373" lon="2.05972">
        <ele>118</ele>
        <time>2021-05-20T09:48:24.861Z</time>
      </trkpt>
      <trkpt lat="48.69374" lon="2.05972">
        <ele>118</ele>
        <time>2021-05-20T09:48:25.861Z</time>
      </trkpt>
      <trkpt lat="48.69375" lon="2.05972">
        <ele>118</ele>
        <time>2021-05-20T09:48:26.861Z</time>
      </trkpt>
      <trkpt lat="48.69376" lon="2.05971">
        <ele>118</ele>
        <time>2021-05-20T09:48:27.861Z</time>
      </trkpt>
      <trkpt lat="48.69377" lon="2.05971">
        <ele>118</ele>
        <time>2021-05-20T09:48:28.861Z</time>
      </trkpt>
      <trkpt lat="48.69377" lon="2.05971">
        <ele>118</ele>
        <time>2021-05-20T09:48:29.861Z</time>
      </trkpt>
      <trkpt lat="48.69381" lon="2.05968">
        <ele>116</ele>
        <time>2021-05-20T09:48:30.861Z</time>
      </trkpt>
      <trkpt lat="48.69381" lon="2.05968">
        <ele>116</ele>
        <time>2021-05-20T09:48:31.861Z</time>
      </trkpt>
      <trkpt lat="48.69382" lon="2.05967">
        <ele>116</ele>
        <time>2021-05-20T09:48:32.861Z</time>
      </trkpt>
      <trkpt lat="48.69383" lon="2.05967">
        <ele>116</ele>
        <time>2021-05-20T09:48:33.861Z</time>
      </trkpt>
      <trkpt lat="48.69383" lon="2.05966">
        <ele>115</ele>
        <time>2021-05-20T09:48:34.861Z</time>
      </trkpt>
      <trkpt lat="48.69384" lon="2.05965">
        <ele>115</ele>
        <time>2021-05-20T09:48:35.861Z</time>
      </trkpt>
      <trkpt lat="48.69385" lon="2.05965">
        <ele>115</ele>
        <time>2021-05-20T09:48:36.861Z</time>
      </trkpt>
      <trkpt lat="48.69385" lon="2.05965">
        <ele>115</ele>
        <time>2021-05-20T09:48:37.861Z</time>
      </trkpt>
      <trkpt lat="48.69386" lon="2.05964">
        <ele>115</ele>
        <time>2021-05-20T09:48:38.861Z</time>
      </trkpt>
      <trkpt lat="48.69387" lon="2.05963">
        <ele>114</ele>
        <time>2021-05-20T09:48:39.861Z</time>
      </trkpt>
      <trkpt lat="48.69389" lon="2.05963">
        <ele>114</ele>
        <time>2021-05-20T09:48:40.861Z</time>
      </trkpt>
      <trkpt lat="48.6939" lon="2.05962">
        <ele>114</ele>
        <time>2021-05-20T09:48:41.861Z</time>
      </trkpt>
      <trkpt lat="48.69391" lon="2.05961">
        <ele>113</ele>
        <time>2021-05-20T09:48:42.861Z</time>
      </trkpt>
      <trkpt lat="48.69393" lon="2.05961">
        <ele>113</ele>
        <time>2021-05-20T09:48:43.861Z</time>
      </trkpt>
      <trkpt lat="48.69394" lon="2.0596">
        <ele>113</ele>
        <time>2021-05-20T09:48:44.861Z</time>
      </trkpt>
      <trkpt lat="48.69395" lon="2.05959">
        <ele>112</ele>
        <time>2021-05-20T09:48:45.861Z</time>
      </trkpt>
      <trkpt lat="48.69396" lon="2.05958">
        <ele>112</ele>
        <time>2021-05-20T09:48:46.861Z</time>
      </trkpt>
      <trkpt lat="48.69397" lon="2.05958">
        <ele>112</ele>
        <time>2021-05-20T09:48:47.861Z</time>
      </trkpt>
      <trkpt lat="48.69398" lon="2.05957">
        <ele>112</ele>
        <time>2021-05-20T09:48:48.861Z</time>
      </trkpt>
      <trkpt lat="48.694" lon="2.05956">
        <ele>111</ele>
        <time>2021-05-20T09:48:49.861Z</time>
      </trkpt>
      <trkpt lat="48.69401" lon="2.05955">
        <ele>111</ele>
        <time>2021-05-20T09:48:50.861Z</time>
      </trkpt>
      <trkpt lat="48.69402" lon="2.05954">
        <ele>111</ele>
        <time>2021-05-20T09:48:51.861Z</time>
      </trkpt>
      <trkpt lat="48.69404" lon="2.05954">
        <ele>111</ele>
        <time>2021-05-20T09:48:52.861Z</time>
      </trkpt>
      <trkpt lat="48.69405" lon="2.05953">
        <ele>111</ele>
        <time>2021-05-20T09:48:53.861Z</time>
      </trkpt>
      <trkpt lat="48.69406" lon="2.05953">
        <ele>111</ele>
        <time>2021-05-20T09:48:54.861Z</time>
      </trkpt>
      <trkpt lat="48.69407" lon="2.05952">
        <ele>111</ele>
        <time>2021-05-20T09:48:55.861Z</time>
      </trkpt>
      <trkpt lat="48.69408" lon="2.05952">
        <ele>110</ele>
        <time>2021-05-20T09:48:56.861Z</time>
      </trkpt>
      <trkpt lat="48.6941" lon="2.05952">
        <ele>110</ele>
        <time>2021-05-20T09:48:57.861Z</time>
      </trkpt>
      <trkpt lat="48.69411" lon="2.05951">
        <ele>110</ele>
        <time>2021-05-20T09:48:58.861Z</time>
      </trkpt>
      <trkpt lat="48.69413" lon="2.0595">
        <ele>110</ele>
        <time>2021-05-20T09:48:59.861Z</time>
      </trkpt>
      <trkpt lat="48.69414" lon="2.0595">
        <ele>110</ele>
        <time>2021-05-20T09:49:00.861Z</time>
      </trkpt>
      <trkpt lat="48.69416" lon="2.05949">
        <ele>110</ele>
        <time>2021-05-20T09:49:01.861Z</time>
      </trkpt>
      <trkpt lat="48.69418" lon="2.05948">
        <ele>109</ele>
        <time>2021-05-20T09:49:02.861Z</time>
      </trkpt>
      <trkpt lat="48.69419" lon="2.05948">
        <ele>109</ele>
        <time>2021-05-20T09:49:03.861Z</time>
      </trkpt>
      <trkpt lat="48.69421" lon="2.05946">
        <ele>109</ele>
        <time>2021-05-20T09:49:04.861Z</time>
      </trkpt>
      <trkpt lat="48.69423" lon="2.05945">
        <ele>109</ele>
        <time>2021-05-20T09:49:05.861Z</time>
      </trkpt>
      <trkpt lat="48.69425" lon="2.05944">
        <ele>109</ele>
        <time>2021-05-20T09:49:06.861Z</time>
      </trkpt>
      <trkpt lat="48.69427" lon="2.05943">
        <ele>109</ele>
        <time>2021-05-20T09:49:07.861Z</time>
      </trkpt>
      <trkpt lat="48.69428" lon="2.05942">
        <ele>108</ele>
        <time>2021-05-20T09:49:08.861Z</time>
      </trkpt>
      <trkpt lat="48.6943" lon="2.05941">
        <ele>108</ele>
        <time>2021-05-20T09:49:09.861Z</time>
      </trkpt>
      <trkpt lat="48.69431" lon="2.05939">
        <ele>108</ele>
        <time>2021-05-20T09:49:10.861Z</time>
      </trkpt>
      <trkpt lat="48.69433" lon="2.05938">
        <ele>108</ele>
        <time>2021-05-20T09:49:11.861Z</time>
      </trkpt>
      <trkpt lat="48.69434" lon="2.05938">
        <ele>108</ele>
        <time>2021-05-20T09:49:12.861Z</time>
      </trkpt>
      <trkpt lat="48.69436" lon="2.05937">
        <ele>108</ele>
        <time>2021-05-20T09:49:13.861Z</time>
      </trkpt>
      <trkpt lat="48.69437" lon="2.05936">
        <ele>108</ele>
        <time>2021-05-20T09:49:14.861Z</time>
      </trkpt>
      <trkpt lat="48.69439" lon="2.05935">
        <ele>108</ele>
        <time>2021-05-20T09:49:15.861Z</time>
      </trkpt>
      <trkpt lat="48.6944" lon="2.05934">
        <ele>107</ele>
        <time>2021-05-20T09:49:16.861Z</time>
      </trkpt>
      <trkpt lat="48.69441" lon="2.05933">
        <ele>107</ele>
        <time>2021-05-20T09:49:17.861Z</time>
      </trkpt>
      <trkpt lat="48.69442" lon="2.05933">
        <ele>107</ele>
        <time>2021-05-20T09:49:18.861Z</time>
      </trkpt>
      <trkpt lat="48.69444" lon="2.05932">
        <ele>107</ele>
        <time>2021-05-20T09:49:19.861Z</time>
      </trkpt>
      <trkpt lat="48.69445" lon="2.05932">
        <ele>107</ele>
        <time>2021-05-20T09:49:20.861Z</time>
      </trkpt>
      <trkpt lat="48.69446" lon="2.05931">
        <ele>107</ele>
        <time>2021-05-20T09:49:21.861Z</time>
      </trkpt>
      <trkpt lat="48.69447" lon="2.05931">
        <ele>106</ele>
        <time>2021-05-20T09:49:22.861Z</time>
      </trkpt>
      <trkpt lat="48.69448" lon="2.0593">
        <ele>106</ele>
        <time>2021-05-20T09:49:23.861Z</time>
      </trkpt>
      <trkpt lat="48.6945" lon="2.0593">
        <ele>106</ele>
        <time>2021-05-20T09:49:24.861Z</time>
      </trkpt>
      <trkpt lat="48.69451" lon="2.0593">
        <ele>106</ele>
        <time>2021-05-20T09:49:25.861Z</time>
      </trkpt>
      <trkpt lat="48.69452" lon="2.05929">
        <ele>106</ele>
        <time>2021-05-20T09:49:26.861Z</time>
      </trkpt>
      <trkpt lat="48.69454" lon="2.05929">
        <ele>106</ele>
        <time>2021-05-20T09:49:27.861Z</time>
      </trkpt>
      <trkpt lat="48.69455" lon="2.05929">
        <ele>105</ele>
        <time>2021-05-20T09:49:28.861Z</time>
      </trkpt>
      <trkpt lat="48.69456" lon="2.05928">
        <ele>105</ele>
        <time>2021-05-20T09:49:29.861Z</time>
      </trkpt>
      <trkpt lat="48.69458" lon="2.05928">
        <ele>105</ele>
        <time>2021-05-20T09:49:30.861Z</time>
      </trkpt>
      <trkpt lat="48.69459" lon="2.05927">
        <ele>105</ele>
        <time>2021-05-20T09:49:31.861Z</time>
      </trkpt>
      <trkpt lat="48.6946" lon="2.05927">
        <ele>105</ele>
        <time>2021-05-20T09:49:32.861Z</time>
      </trkpt>
      <trkpt lat="48.69462" lon="2.05926">
        <ele>104</ele>
        <time>2021-05-20T09:49:33.861Z</time>
      </trkpt>
      <trkpt lat="48.69463" lon="2.05926">
        <ele>104</ele>
        <time>2021-05-20T09:49:34.861Z</time>
      </trkpt>
      <trkpt lat="48.69464" lon="2.05926">
        <ele>104</ele>
        <time>2021-05-20T09:49:35.861Z</time>
      </trkpt>
      <trkpt lat="48.69465" lon="2.05925">
        <ele>104</ele>
        <time>2021-05-20T09:49:36.861Z</time>
      </trkpt>
      <trkpt lat="48.69467" lon="2.05925">
        <ele>105</ele>
        <time>2021-05-20T09:49:37.861Z</time>
      </trkpt>
      <trkpt lat="48.69467" lon="2.05924">
        <ele>105</ele>
        <time>2021-05-20T09:49:38.861Z</time>
      </trkpt>
      <trkpt lat="48.69468" lon="2.05924">
        <ele>105</ele>
        <time>2021-05-20T09:49:39.861Z</time>
      </trkpt>
      <trkpt lat="48.69469" lon="2.05924">
        <ele>105</ele>
        <time>2021-05-20T09:49:40.861Z</time>
      </trkpt>
      <trkpt lat="48.6947" lon="2.05924">
        <ele>105</ele>
        <time>2021-05-20T09:49:41.861Z</time>
      </trkpt>
      <trkpt lat="48.69471" lon="2.05924">
        <ele>105</ele>
        <time>2021-05-20T09:49:42.861Z</time>
      </trkpt>
      <trkpt lat="48.69472" lon="2.05924">
        <ele>105</ele>
        <time>2021-05-20T09:49:43.861Z</time>
      </trkpt>
      <trkpt lat="48.69473" lon="2.05924">
        <ele>105</ele>
        <time>2021-05-20T09:49:44.861Z</time>
      </trkpt>
      <trkpt lat="48.69474" lon="2.05923">
        <ele>105</ele>
        <time>2021-05-20T09:49:45.861Z</time>
      </trkpt>
      <trkpt lat="48.69475" lon="2.05923">
        <ele>105</ele>
        <time>2021-05-20T09:49:46.861Z</time>
      </trkpt>
      <trkpt lat="48.69477" lon="2.05923">
        <ele>105</ele>
        <time>2021-05-20T09:49:47.861Z</time>
      </trkpt>
      <trkpt lat="48.69478" lon="2.05923">
        <ele>105</ele>
        <time>2021-05-20T09:49:48.861Z</time>
      </trkpt>
      <trkpt lat="48.69479" lon="2.05922">
        <ele>105</ele>
        <time>2021-05-20T09:49:49.861Z</time>
      </trkpt>
      <trkpt lat="48.6948" lon="2.05922">
        <ele>106</ele>
        <time>2021-05-20T09:49:50.861Z</time>
      </trkpt>
      <trkpt lat="48.69481" lon="2.05922">
        <ele>105</ele>
        <time>2021-05-20T09:49:51.861Z</time>
      </trkpt>
      <trkpt lat="48.69482" lon="2.05922">
        <ele>106</ele>
        <time>2021-05-20T09:49:52.861Z</time>
      </trkpt>
      <trkpt lat="48.69483" lon="2.05922">
        <ele>106</ele>
        <time>2021-05-20T09:49:53.861Z</time>
      </trkpt>
      <trkpt lat="48.69484" lon="2.05922">
        <ele>106</ele>
        <time>2021-05-20T09:49:54.861Z</time>
      </trkpt>
      <trkpt lat="48.69485" lon="2.05922">
        <ele>106</ele>
        <time>2021-05-20T09:49:55.861Z</time>
      </trkpt>
      <trkpt lat="48.69486" lon="2.05921">
        <ele>106</ele>
        <time>2021-05-20T09:49:56.861Z</time>
      </trkpt>
      <trkpt lat="48.69487" lon="2.05921">
        <ele>105</ele>
        <time>2021-05-20T09:49:57.861Z</time>
      </trkpt>
      <trkpt lat="48.69488" lon="2.0592">
        <ele>106</ele>
        <time>2021-05-20T09:49:58.861Z</time>
      </trkpt>
      <trkpt lat="48.69489" lon="2.0592">
        <ele>106</ele>
        <time>2021-05-20T09:49:59.861Z</time>
      </trkpt>
      <trkpt lat="48.6949" lon="2.05919">
        <ele>106</ele>
        <time>2021-05-20T09:50:00.861Z</time>
      </trkpt>
      <trkpt lat="48.6949" lon="2.05919">
        <ele>106</ele>
        <time>2021-05-20T09:50:01.861Z</time>
      </trkpt>
      <trkpt lat="48.69491" lon="2.05919">
        <ele>106</ele>
        <time>2021-05-20T09:50:02.861Z</time>
      </trkpt>
      <trkpt lat="48.69492" lon="2.05919">
        <ele>106</ele>
        <time>2021-05-20T09:50:03.861Z</time>
      </trkpt>
      <trkpt lat="48.69493" lon="2.05918">
        <ele>106</ele>
        <time>2021-05-20T09:50:04.861Z</time>
      </trkpt>
      <trkpt lat="48.69493" lon="2.05918">
        <ele>106</ele>
        <time>2021-05-20T09:50:05.861Z</time>
      </trkpt>
      <trkpt lat="48.69494" lon="2.05917">
        <ele>106</ele>
        <time>2021-05-20T09:50:06.861Z</time>
      </trkpt>
      <trkpt lat="48.69494" lon="2.05915">
        <ele>106</ele>
        <time>2021-05-20T09:50:07.861Z</time>
      </trkpt>
      <trkpt lat="48.69494" lon="2.05914">
        <ele>106</ele>
        <time>2021-05-20T09:50:08.861Z</time>
      </trkpt>
      <trkpt lat="48.69495" lon="2.05913">
        <ele>106</ele>
        <time>2021-05-20T09:50:09.861Z</time>
      </trkpt>
      <trkpt lat="48.69495" lon="2.05912">
        <ele>106</ele>
        <time>2021-05-20T09:50:10.861Z</time>
      </trkpt>
      <trkpt lat="48.69495" lon="2.05911">
        <ele>106</ele>
        <time>2021-05-20T09:50:11.861Z</time>
      </trkpt>
      <trkpt lat="48.69495" lon="2.05909">
        <ele>106</ele>
        <time>2021-05-20T09:50:12.861Z</time>
      </trkpt>
      <trkpt lat="48.69496" lon="2.05908">
        <ele>106</ele>
        <time>2021-05-20T09:50:13.861Z</time>
      </trkpt>
      <trkpt lat="48.69496" lon="2.05906">
        <ele>106</ele>
        <time>2021-05-20T09:50:14.861Z</time>
      </trkpt>
      <trkpt lat="48.69496" lon="2.05905">
        <ele>106</ele>
        <time>2021-05-20T09:50:15.861Z</time>
      </trkpt>
      <trkpt lat="48.69497" lon="2.05904">
        <ele>106</ele>
        <time>2021-05-20T09:50:16.861Z</time>
      </trkpt>
      <trkpt lat="48.69497" lon="2.05903">
        <ele>106</ele>
        <time>2021-05-20T09:50:17.861Z</time>
      </trkpt>
      <trkpt lat="48.69497" lon="2.05902">
        <ele>106</ele>
        <time>2021-05-20T09:50:18.861Z</time>
      </trkpt>
      <trkpt lat="48.69497" lon="2.05901">
        <ele>106</ele>
        <time>2021-05-20T09:50:19.861Z</time>
      </trkpt>
      <trkpt lat="48.69497" lon="2.059">
        <ele>105</ele>
        <time>2021-05-20T09:50:20.861Z</time>
      </trkpt>
      <trkpt lat="48.69497" lon="2.05898">
        <ele>105</ele>
        <time>2021-05-20T09:50:21.861Z</time>
      </trkpt>
      <trkpt lat="48.69497" lon="2.05897">
        <ele>105</ele>
        <time>2021-05-20T09:50:22.861Z</time>
      </trkpt>
      <trkpt lat="48.69497" lon="2.05896">
        <ele>105</ele>
        <time>2021-05-20T09:50:23.861Z</time>
      </trkpt>
      <trkpt lat="48.69497" lon="2.05895">
        <ele>105</ele>
        <time>2021-05-20T09:50:24.861Z</time>
      </trkpt>
      <trkpt lat="48.69497" lon="2.05894">
        <ele>105</ele>
        <time>2021-05-20T09:50:25.861Z</time>
      </trkpt>
      <trkpt lat="48.69497" lon="2.05893">
        <ele>105</ele>
        <time>2021-05-20T09:50:26.861Z</time>
      </trkpt>
      <trkpt lat="48.69497" lon="2.05892">
        <ele>105</ele>
        <time>2021-05-20T09:50:27.861Z</time>
      </trkpt>
      <trkpt lat="48.69497" lon="2.05892">
        <ele>105</ele>
        <time>2021-05-20T09:50:28.861Z</time>
      </trkpt>
      <trkpt lat="48.69496" lon="2.05891">
        <ele>105</ele>
        <time>2021-05-20T09:50:29.861Z</time>
      </trkpt>
      <trkpt lat="48.69494" lon="2.05884">
        <ele>106</ele>
        <time>2021-05-20T09:50:30.861Z</time>
      </trkpt>
      <trkpt lat="48.69495" lon="2.05882">
        <ele>106</ele>
        <time>2021-05-20T09:50:31.861Z</time>
      </trkpt>
      <trkpt lat="48.69495" lon="2.0588">
        <ele>106</ele>
        <time>2021-05-20T09:50:32.861Z</time>
      </trkpt>
      <trkpt lat="48.69495" lon="2.05878">
        <ele>106</ele>
        <time>2021-05-20T09:50:33.861Z</time>
      </trkpt>
      <trkpt lat="48.69495" lon="2.05876">
        <ele>106</ele>
        <time>2021-05-20T09:50:34.861Z</time>
      </trkpt>
      <trkpt lat="48.69495" lon="2.05874">
        <ele>106</ele>
        <time>2021-05-20T09:50:35.861Z</time>
      </trkpt>
      <trkpt lat="48.69495" lon="2.05872">
        <ele>107</ele>
        <time>2021-05-20T09:50:36.861Z</time>
      </trkpt>
      <trkpt lat="48.69494" lon="2.0587">
        <ele>107</ele>
        <time>2021-05-20T09:50:37.861Z</time>
      </trkpt>
      <trkpt lat="48.69494" lon="2.05868">
        <ele>107</ele>
        <time>2021-05-20T09:50:38.861Z</time>
      </trkpt>
      <trkpt lat="48.69494" lon="2.05866">
        <ele>107</ele>
        <time>2021-05-20T09:50:39.861Z</time>
      </trkpt>
      <trkpt lat="48.69494" lon="2.05864">
        <ele>107</ele>
        <time>2021-05-20T09:50:40.861Z</time>
      </trkpt>
      <trkpt lat="48.69494" lon="2.05862">
        <ele>107</ele>
        <time>2021-05-20T09:50:41.861Z</time>
      </trkpt>
      <trkpt lat="48.69494" lon="2.05859">
        <ele>107</ele>
        <time>2021-05-20T09:50:42.861Z</time>
      </trkpt>
      <trkpt lat="48.69494" lon="2.05857">
        <ele>107</ele>
        <time>2021-05-20T09:50:43.861Z</time>
      </trkpt>
      <trkpt lat="48.69494" lon="2.05855">
        <ele>107</ele>
        <time>2021-05-20T09:50:44.861Z</time>
      </trkpt>
      <trkpt lat="48.69494" lon="2.05853">
        <ele>107</ele>
        <time>2021-05-20T09:50:45.861Z</time>
      </trkpt>
      <trkpt lat="48.69494" lon="2.05851">
        <ele>107</ele>
        <time>2021-05-20T09:50:46.861Z</time>
      </trkpt>
      <trkpt lat="48.69494" lon="2.05849">
        <ele>107</ele>
        <time>2021-05-20T09:50:47.861Z</time>
      </trkpt>
      <trkpt lat="48.69494" lon="2.05846">
        <ele>107</ele>
        <time>2021-05-20T09:50:48.861Z</time>
      </trkpt>
      <trkpt lat="48.69494" lon="2.05844">
        <ele>107</ele>
        <time>2021-05-20T09:50:49.861Z</time>
      </trkpt>
      <trkpt lat="48.69494" lon="2.05842">
        <ele>107</ele>
        <time>2021-05-20T09:50:50.861Z</time>
      </trkpt>
      <trkpt lat="48.69494" lon="2.05839">
        <ele>107</ele>
        <time>2021-05-20T09:50:51.861Z</time>
      </trkpt>
      <trkpt lat="48.69495" lon="2.05836">
        <ele>107</ele>
        <time>2021-05-20T09:50:52.861Z</time>
      </trkpt>
      <trkpt lat="48.69495" lon="2.05833">
        <ele>107</ele>
        <time>2021-05-20T09:50:53.861Z</time>
      </trkpt>
      <trkpt lat="48.69495" lon="2.0583">
        <ele>107</ele>
        <time>2021-05-20T09:50:54.861Z</time>
      </trkpt>
      <trkpt lat="48.69495" lon="2.05827">
        <ele>107</ele>
        <time>2021-05-20T09:50:55.861Z</time>
      </trkpt>
      <trkpt lat="48.69495" lon="2.05825">
        <ele>107</ele>
        <time>2021-05-20T09:50:56.861Z</time>
      </trkpt>
      <trkpt lat="48.69496" lon="2.05822">
        <ele>106</ele>
        <time>2021-05-20T09:50:57.861Z</time>
      </trkpt>
      <trkpt lat="48.69496" lon="2.05819">
        <ele>107</ele>
        <time>2021-05-20T09:50:58.861Z</time>
      </trkpt>
      <trkpt lat="48.69495" lon="2.05817">
        <ele>107</ele>
        <time>2021-05-20T09:50:59.861Z</time>
      </trkpt>
      <trkpt lat="48.69495" lon="2.05815">
        <ele>107</ele>
        <time>2021-05-20T09:51:00.861Z</time>
      </trkpt>
      <trkpt lat="48.69495" lon="2.05812">
        <ele>107</ele>
        <time>2021-05-20T09:51:01.861Z</time>
      </trkpt>
      <trkpt lat="48.69495" lon="2.0581">
        <ele>107</ele>
        <time>2021-05-20T09:51:02.861Z</time>
      </trkpt>
      <trkpt lat="48.69495" lon="2.05808">
        <ele>107</ele>
        <time>2021-05-20T09:51:03.861Z</time>
      </trkpt>
      <trkpt lat="48.69495" lon="2.05806">
        <ele>107</ele>
        <time>2021-05-20T09:51:04.861Z</time>
      </trkpt>
      <trkpt lat="48.69495" lon="2.05804">
        <ele>108</ele>
        <time>2021-05-20T09:51:05.861Z</time>
      </trkpt>
      <trkpt lat="48.69496" lon="2.05802">
        <ele>108</ele>
        <time>2021-05-20T09:51:06.861Z</time>
      </trkpt>
      <trkpt lat="48.69496" lon="2.05799">
        <ele>108</ele>
        <time>2021-05-20T09:51:07.861Z</time>
      </trkpt>
      <trkpt lat="48.69496" lon="2.05798">
        <ele>108</ele>
        <time>2021-05-20T09:51:08.861Z</time>
      </trkpt>
      <trkpt lat="48.69496" lon="2.05796">
        <ele>108</ele>
        <time>2021-05-20T09:51:09.861Z</time>
      </trkpt>
      <trkpt lat="48.69496" lon="2.05794">
        <ele>108</ele>
        <time>2021-05-20T09:51:10.861Z</time>
      </trkpt>
      <trkpt lat="48.69496" lon="2.05793">
        <ele>109</ele>
        <time>2021-05-20T09:51:11.861Z</time>
      </trkpt>
      <trkpt lat="48.69496" lon="2.05792">
        <ele>109</ele>
        <time>2021-05-20T09:51:12.861Z</time>
      </trkpt>
      <trkpt lat="48.69496" lon="2.05791">
        <ele>109</ele>
        <time>2021-05-20T09:51:13.861Z</time>
      </trkpt>
      <trkpt lat="48.69496" lon="2.05787">
        <ele>111</ele>
        <time>2021-05-20T09:51:14.861Z</time>
      </trkpt>
      <trkpt lat="48.69496" lon="2.05786">
        <ele>111</ele>
        <time>2021-05-20T09:51:15.861Z</time>
      </trkpt>
      <trkpt lat="48.69496" lon="2.05785">
        <ele>111</ele>
        <time>2021-05-20T09:51:16.861Z</time>
      </trkpt>
      <trkpt lat="48.69496" lon="2.05784">
        <ele>112</ele>
        <time>2021-05-20T09:51:17.861Z</time>
      </trkpt>
      <trkpt lat="48.69495" lon="2.05783">
        <ele>112</ele>
        <time>2021-05-20T09:51:18.861Z</time>
      </trkpt>
      <trkpt lat="48.69495" lon="2.05783">
        <ele>112</ele>
        <time>2021-05-20T09:51:19.861Z</time>
      </trkpt>
      <trkpt lat="48.69495" lon="2.05781">
        <ele>112</ele>
        <time>2021-05-20T09:51:20.861Z</time>
      </trkpt>
      <trkpt lat="48.69495" lon="2.05779">
        <ele>113</ele>
        <time>2021-05-20T09:51:21.861Z</time>
      </trkpt>
      <trkpt lat="48.69495" lon="2.05777">
        <ele>113</ele>
        <time>2021-05-20T09:51:22.861Z</time>
      </trkpt>
      <trkpt lat="48.69495" lon="2.05776">
        <ele>114</ele>
        <time>2021-05-20T09:51:23.861Z</time>
      </trkpt>
      <trkpt lat="48.69495" lon="2.05776">
        <ele>114</ele>
        <time>2021-05-20T09:51:24.861Z</time>
      </trkpt>
      <trkpt lat="48.69495" lon="2.05774">
        <ele>114</ele>
        <time>2021-05-20T09:51:25.861Z</time>
      </trkpt>
      <trkpt lat="48.69495" lon="2.05773">
        <ele>114</ele>
        <time>2021-05-20T09:51:26.861Z</time>
      </trkpt>
      <trkpt lat="48.69494" lon="2.05772">
        <ele>115</ele>
        <time>2021-05-20T09:51:27.861Z</time>
      </trkpt>
      <trkpt lat="48.69495" lon="2.0577">
        <ele>115</ele>
        <time>2021-05-20T09:51:28.861Z</time>
      </trkpt>
      <trkpt lat="48.69495" lon="2.05768">
        <ele>115</ele>
        <time>2021-05-20T09:51:29.861Z</time>
      </trkpt>
      <trkpt lat="48.69495" lon="2.05767">
        <ele>115</ele>
        <time>2021-05-20T09:51:30.861Z</time>
      </trkpt>
      <trkpt lat="48.69494" lon="2.05766">
        <ele>116</ele>
        <time>2021-05-20T09:51:31.861Z</time>
      </trkpt>
      <trkpt lat="48.69494" lon="2.05764">
        <ele>116</ele>
        <time>2021-05-20T09:51:32.861Z</time>
      </trkpt>
      <trkpt lat="48.69494" lon="2.05763">
        <ele>116</ele>
        <time>2021-05-20T09:51:33.861Z</time>
      </trkpt>
      <trkpt lat="48.69495" lon="2.05762">
        <ele>117</ele>
        <time>2021-05-20T09:51:34.861Z</time>
      </trkpt>
      <trkpt lat="48.69495" lon="2.05761">
        <ele>117</ele>
        <time>2021-05-20T09:51:35.861Z</time>
      </trkpt>
      <trkpt lat="48.69495" lon="2.05759">
        <ele>117</ele>
        <time>2021-05-20T09:51:36.861Z</time>
      </trkpt>
      <trkpt lat="48.69495" lon="2.05758">
        <ele>118</ele>
        <time>2021-05-20T09:51:37.861Z</time>
      </trkpt>
      <trkpt lat="48.69495" lon="2.05757">
        <ele>118</ele>
        <time>2021-05-20T09:51:38.861Z</time>
      </trkpt>
      <trkpt lat="48.69495" lon="2.05756">
        <ele>118</ele>
        <time>2021-05-20T09:51:39.861Z</time>
      </trkpt>
      <trkpt lat="48.69495" lon="2.05754">
        <ele>119</ele>
        <time>2021-05-20T09:51:40.861Z</time>
      </trkpt>
      <trkpt lat="48.69495" lon="2.05753">
        <ele>119</ele>
        <time>2021-05-20T09:51:41.861Z</time>
      </trkpt>
      <trkpt lat="48.69495" lon="2.05752">
        <ele>119</ele>
        <time>2021-05-20T09:51:42.861Z</time>
      </trkpt>
      <trkpt lat="48.69495" lon="2.05751">
        <ele>119</ele>
        <time>2021-05-20T09:51:43.861Z</time>
      </trkpt>
      <trkpt lat="48.69495" lon="2.05749">
        <ele>120</ele>
        <time>2021-05-20T09:53:48.870Z</time>
      </trkpt>
      <trkpt lat="48.69495" lon="2.05748">
        <ele>120</ele>
        <time>2021-05-20T09:53:49.870Z</time>
      </trkpt>
      <trkpt lat="48.69495" lon="2.05747">
        <ele>120</ele>
        <time>2021-05-20T09:53:50.870Z</time>
      </trkpt>
      <trkpt lat="48.69495" lon="2.05745">
        <ele>121</ele>
        <time>2021-05-20T09:53:51.870Z</time>
      </trkpt>
      <trkpt lat="48.69494" lon="2.05744">
        <ele>121</ele>
        <time>2021-05-20T09:53:52.870Z</time>
      </trkpt>
      <trkpt lat="48.69494" lon="2.05743">
        <ele>121</ele>
        <time>2021-05-20T09:53:53.870Z</time>
      </trkpt>
      <trkpt lat="48.69494" lon="2.05742">
        <ele>122</ele>
        <time>2021-05-20T09:53:54.870Z</time>
      </trkpt>
      <trkpt lat="48.69494" lon="2.05741">
        <ele>122</ele>
        <time>2021-05-20T09:53:55.870Z</time>
      </trkpt>
      <trkpt lat="48.69494" lon="2.05739">
        <ele>122</ele>
        <time>2021-05-20T09:53:56.870Z</time>
      </trkpt>
      <trkpt lat="48.69494" lon="2.05738">
        <ele>122</ele>
        <time>2021-05-20T09:53:57.870Z</time>
      </trkpt>
      <trkpt lat="48.69494" lon="2.05736">
        <ele>122</ele>
        <time>2021-05-20T09:53:58.870Z</time>
      </trkpt>
      <trkpt lat="48.69493" lon="2.05735">
        <ele>123</ele>
        <time>2021-05-20T09:53:59.870Z</time>
      </trkpt>
      <trkpt lat="48.69493" lon="2.05733">
        <ele>123</ele>
        <time>2021-05-20T09:54:00.870Z</time>
      </trkpt>
      <trkpt lat="48.69493" lon="2.05732">
        <ele>123</ele>
        <time>2021-05-20T09:54:01.870Z</time>
      </trkpt>
      <trkpt lat="48.69493" lon="2.05731">
        <ele>123</ele>
        <time>2021-05-20T09:54:02.870Z</time>
      </trkpt>
      <trkpt lat="48.69492" lon="2.0573">
        <ele>123</ele>
        <time>2021-05-20T09:54:03.870Z</time>
      </trkpt>
      <trkpt lat="48.69492" lon="2.05728">
        <ele>124</ele>
        <time>2021-05-20T09:54:04.870Z</time>
      </trkpt>
      <trkpt lat="48.69492" lon="2.05727">
        <ele>124</ele>
        <time>2021-05-20T09:54:05.870Z</time>
      </trkpt>
      <trkpt lat="48.69492" lon="2.05725">
        <ele>124</ele>
        <time>2021-05-20T09:54:06.870Z</time>
      </trkpt>
      <trkpt lat="48.69492" lon="2.05724">
        <ele>124</ele>
        <time>2021-05-20T09:54:07.870Z</time>
      </trkpt>
      <trkpt lat="48.69492" lon="2.05724">
        <ele>124</ele>
        <time>2021-05-20T09:54:08.870Z</time>
      </trkpt>
      <trkpt lat="48.69492" lon="2.05722">
        <ele>125</ele>
        <time>2021-05-20T09:54:09.870Z</time>
      </trkpt>
      <trkpt lat="48.69492" lon="2.05721">
        <ele>125</ele>
        <time>2021-05-20T09:54:10.870Z</time>
      </trkpt>
      <trkpt lat="48.69492" lon="2.05719">
        <ele>125</ele>
        <time>2021-05-20T09:54:11.870Z</time>
      </trkpt>
      <trkpt lat="48.69492" lon="2.05718">
        <ele>125</ele>
        <time>2021-05-20T09:54:12.870Z</time>
      </trkpt>
      <trkpt lat="48.69492" lon="2.05718">
        <ele>125</ele>
        <time>2021-05-20T09:54:13.870Z</time>
      </trkpt>
      <trkpt lat="48.69492" lon="2.05718">
        <ele>125</ele>
        <time>2021-05-20T09:54:14.870Z</time>
      </trkpt>
      <trkpt lat="48.69491" lon="2.05714">
        <ele>126</ele>
        <time>2021-05-20T09:54:15.870Z</time>
      </trkpt>
      <trkpt lat="48.69491" lon="2.05713">
        <ele>126</ele>
        <time>2021-05-20T09:54:16.870Z</time>
      </trkpt>
      <trkpt lat="48.69491" lon="2.05712">
        <ele>127</ele>
        <time>2021-05-20T09:54:17.870Z</time>
      </trkpt>
      <trkpt lat="48.6949" lon="2.05711">
        <ele>127</ele>
        <time>2021-05-20T09:54:18.870Z</time>
      </trkpt>
      <trkpt lat="48.6949" lon="2.05708">
        <ele>128</ele>
        <time>2021-05-20T09:54:19.870Z</time>
      </trkpt>
      <trkpt lat="48.69489" lon="2.05707">
        <ele>128</ele>
        <time>2021-05-20T09:54:20.870Z</time>
      </trkpt>
      <trkpt lat="48.69489" lon="2.05706">
        <ele>129</ele>
        <time>2021-05-20T09:54:21.870Z</time>
      </trkpt>
      <trkpt lat="48.69489" lon="2.05706">
        <ele>129</ele>
        <time>2021-05-20T09:54:22.870Z</time>
      </trkpt>
      <trkpt lat="48.69489" lon="2.05706">
        <ele>129</ele>
        <time>2021-05-20T09:54:23.870Z</time>
      </trkpt>
      <trkpt lat="48.69489" lon="2.05706">
        <ele>130</ele>
        <time>2021-05-20T09:54:24.870Z</time>
      </trkpt>
      <trkpt lat="48.69487" lon="2.05703">
        <ele>131</ele>
        <time>2021-05-20T09:54:25.870Z</time>
      </trkpt>
      <trkpt lat="48.69487" lon="2.05702">
        <ele>131</ele>
        <time>2021-05-20T09:54:26.870Z</time>
      </trkpt>
      <trkpt lat="48.69487" lon="2.05702">
        <ele>131</ele>
        <time>2021-05-20T09:54:27.870Z</time>
      </trkpt>
      <trkpt lat="48.69486" lon="2.05698">
        <ele>133</ele>
        <time>2021-05-20T09:54:28.870Z</time>
      </trkpt>
      <trkpt lat="48.69485" lon="2.05697">
        <ele>133</ele>
        <time>2021-05-20T09:54:29.870Z</time>
      </trkpt>
      <trkpt lat="48.69485" lon="2.05697">
        <ele>133</ele>
        <time>2021-05-20T09:54:30.870Z</time>
      </trkpt>
      <trkpt lat="48.69481" lon="2.0569">
        <ele>136</ele>
        <time>2021-05-20T09:54:31.870Z</time>
      </trkpt>
      <trkpt lat="48.6948" lon="2.05689">
        <ele>136</ele>
        <time>2021-05-20T09:54:32.870Z</time>
      </trkpt>
      <trkpt lat="48.6948" lon="2.05688">
        <ele>136</ele>
        <time>2021-05-20T09:54:33.870Z</time>
      </trkpt>
      <trkpt lat="48.69479" lon="2.05687">
        <ele>136</ele>
        <time>2021-05-20T09:54:34.870Z</time>
      </trkpt>
      <trkpt lat="48.69478" lon="2.05686">
        <ele>136</ele>
        <time>2021-05-20T09:54:35.870Z</time>
      </trkpt>
      <trkpt lat="48.69478" lon="2.05685">
        <ele>137</ele>
        <time>2021-05-20T09:54:36.870Z</time>
      </trkpt>
      <trkpt lat="48.69477" lon="2.05684">
        <ele>137</ele>
        <time>2021-05-20T09:54:37.870Z</time>
      </trkpt>
      <trkpt lat="48.69477" lon="2.05683">
        <ele>137</ele>
        <time>2021-05-20T09:54:38.870Z</time>
      </trkpt>
      <trkpt lat="48.69476" lon="2.05682">
        <ele>137</ele>
        <time>2021-05-20T09:54:39.870Z</time>
      </trkpt>
      <trkpt lat="48.69476" lon="2.05681">
        <ele>138</ele>
        <time>2021-05-20T09:54:40.870Z</time>
      </trkpt>
      <trkpt lat="48.69475" lon="2.0568">
        <ele>138</ele>
        <time>2021-05-20T09:54:41.870Z</time>
      </trkpt>
      <trkpt lat="48.69474" lon="2.05679">
        <ele>138</ele>
        <time>2021-05-20T09:54:42.870Z</time>
      </trkpt>
      <trkpt lat="48.69474" lon="2.05678">
        <ele>139</ele>
        <time>2021-05-20T09:54:43.870Z</time>
      </trkpt>
      <trkpt lat="48.69473" lon="2.05677">
        <ele>139</ele>
        <time>2021-05-20T09:54:44.870Z</time>
      </trkpt>
      <trkpt lat="48.69473" lon="2.05676">
        <ele>139</ele>
        <time>2021-05-20T09:54:45.870Z</time>
      </trkpt>
      <trkpt lat="48.6947" lon="2.05673">
        <ele>140</ele>
        <time>2021-05-20T09:54:46.870Z</time>
      </trkpt>
      <trkpt lat="48.69469" lon="2.05672">
        <ele>141</ele>
        <time>2021-05-20T09:54:47.870Z</time>
      </trkpt>
      <trkpt lat="48.69468" lon="2.05671">
        <ele>141</ele>
        <time>2021-05-20T09:54:48.870Z</time>
      </trkpt>
      <trkpt lat="48.69468" lon="2.05669">
        <ele>141</ele>
        <time>2021-05-20T09:54:49.870Z</time>
      </trkpt>
      <trkpt lat="48.69467" lon="2.05668">
        <ele>142</ele>
        <time>2021-05-20T09:54:50.870Z</time>
      </trkpt>
      <trkpt lat="48.69467" lon="2.05667">
        <ele>142</ele>
        <time>2021-05-20T09:54:51.870Z</time>
      </trkpt>
      <trkpt lat="48.69466" lon="2.05666">
        <ele>142</ele>
        <time>2021-05-20T09:54:52.870Z</time>
      </trkpt>
      <trkpt lat="48.69466" lon="2.05665">
        <ele>142</ele>
        <time>2021-05-20T09:54:53.870Z</time>
      </trkpt>
      <trkpt lat="48.69465" lon="2.05664">
        <ele>143</ele>
        <time>2021-05-20T09:54:54.870Z</time>
      </trkpt>
      <trkpt lat="48.69464" lon="2.05663">
        <ele>143</ele>
        <time>2021-05-20T09:54:55.870Z</time>
      </trkpt>
      <trkpt lat="48.69464" lon="2.05661">
        <ele>143</ele>
        <time>2021-05-20T09:54:56.870Z</time>
      </trkpt>
      <trkpt lat="48.69463" lon="2.0566">
        <ele>143</ele>
        <time>2021-05-20T09:54:57.870Z</time>
      </trkpt>
      <trkpt lat="48.69462" lon="2.05659">
        <ele>143</ele>
        <time>2021-05-20T09:54:58.870Z</time>
      </trkpt>
      <trkpt lat="48.69461" lon="2.05658">
        <ele>144</ele>
        <time>2021-05-20T09:54:59.870Z</time>
      </trkpt>
      <trkpt lat="48.6946" lon="2.05656">
        <ele>144</ele>
        <time>2021-05-20T09:55:00.870Z</time>
      </trkpt>
      <trkpt lat="48.69459" lon="2.05655">
        <ele>144</ele>
        <time>2021-05-20T09:55:01.870Z</time>
      </trkpt>
      <trkpt lat="48.69459" lon="2.05654">
        <ele>144</ele>
        <time>2021-05-20T09:55:02.870Z</time>
      </trkpt>
      <trkpt lat="48.69458" lon="2.05653">
        <ele>145</ele>
        <time>2021-05-20T09:55:03.870Z</time>
      </trkpt>
      <trkpt lat="48.69457" lon="2.05652">
        <ele>145</ele>
        <time>2021-05-20T09:55:04.870Z</time>
      </trkpt>
      <trkpt lat="48.69457" lon="2.05651">
        <ele>145</ele>
        <time>2021-05-20T09:55:05.870Z</time>
      </trkpt>
      <trkpt lat="48.69457" lon="2.05649">
        <ele>145</ele>
        <time>2021-05-20T09:55:06.870Z</time>
      </trkpt>
      <trkpt lat="48.69457" lon="2.05648">
        <ele>145</ele>
        <time>2021-05-20T09:55:07.870Z</time>
      </trkpt>
      <trkpt lat="48.69456" lon="2.05647">
        <ele>146</ele>
        <time>2021-05-20T09:55:08.870Z</time>
      </trkpt>
      <trkpt lat="48.69456" lon="2.05645">
        <ele>146</ele>
        <time>2021-05-20T09:55:09.870Z</time>
      </trkpt>
      <trkpt lat="48.69456" lon="2.05644">
        <ele>146</ele>
        <time>2021-05-20T09:55:10.870Z</time>
      </trkpt>
      <trkpt lat="48.69456" lon="2.05643">
        <ele>146</ele>
        <time>2021-05-20T09:55:11.870Z</time>
      </trkpt>
      <trkpt lat="48.69456" lon="2.05642">
        <ele>146</ele>
        <time>2021-05-20T09:55:12.870Z</time>
      </trkpt>
      <trkpt lat="48.69455" lon="2.0564">
        <ele>147</ele>
        <time>2021-05-20T09:55:13.870Z</time>
      </trkpt>
      <trkpt lat="48.69455" lon="2.05639">
        <ele>147</ele>
        <time>2021-05-20T09:55:14.870Z</time>
      </trkpt>
      <trkpt lat="48.69455" lon="2.05638">
        <ele>147</ele>
        <time>2021-05-20T09:55:15.870Z</time>
      </trkpt>
      <trkpt lat="48.69455" lon="2.05637">
        <ele>147</ele>
        <time>2021-05-20T09:55:16.870Z</time>
      </trkpt>
      <trkpt lat="48.69455" lon="2.05635">
        <ele>147</ele>
        <time>2021-05-20T09:55:17.870Z</time>
      </trkpt>
      <trkpt lat="48.69455" lon="2.05634">
        <ele>148</ele>
        <time>2021-05-20T09:55:18.870Z</time>
      </trkpt>
      <trkpt lat="48.69454" lon="2.05633">
        <ele>148</ele>
        <time>2021-05-20T09:55:19.870Z</time>
      </trkpt>
      <trkpt lat="48.69454" lon="2.05632">
        <ele>148</ele>
        <time>2021-05-20T09:55:20.870Z</time>
      </trkpt>
      <trkpt lat="48.69454" lon="2.0563">
        <ele>148</ele>
        <time>2021-05-20T09:55:21.870Z</time>
      </trkpt>
      <trkpt lat="48.69454" lon="2.05629">
        <ele>148</ele>
        <time>2021-05-20T09:55:22.870Z</time>
      </trkpt>
      <trkpt lat="48.69454" lon="2.05628">
        <ele>148</ele>
        <time>2021-05-20T09:55:23.870Z</time>
      </trkpt>
      <trkpt lat="48.69454" lon="2.05627">
        <ele>148</ele>
        <time>2021-05-20T09:55:24.870Z</time>
      </trkpt>
      <trkpt lat="48.69454" lon="2.05625">
        <ele>148</ele>
        <time>2021-05-20T09:55:25.870Z</time>
      </trkpt>
      <trkpt lat="48.69454" lon="2.05624">
        <ele>149</ele>
        <time>2021-05-20T09:55:26.870Z</time>
      </trkpt>
      <trkpt lat="48.69454" lon="2.05623">
        <ele>149</ele>
        <time>2021-05-20T09:55:27.870Z</time>
      </trkpt>
      <trkpt lat="48.69454" lon="2.05621">
        <ele>149</ele>
        <time>2021-05-20T09:55:28.870Z</time>
      </trkpt>
      <trkpt lat="48.69454" lon="2.0562">
        <ele>149</ele>
        <time>2021-05-20T09:55:29.870Z</time>
      </trkpt>
      <trkpt lat="48.69454" lon="2.05619">
        <ele>149</ele>
        <time>2021-05-20T09:55:30.870Z</time>
      </trkpt>
      <trkpt lat="48.69455" lon="2.05618">
        <ele>149</ele>
        <time>2021-05-20T09:55:31.870Z</time>
      </trkpt>
      <trkpt lat="48.69456" lon="2.05614">
        <ele>150</ele>
        <time>2021-05-20T09:55:32.870Z</time>
      </trkpt>
      <trkpt lat="48.69456" lon="2.05613">
        <ele>150</ele>
        <time>2021-05-20T09:55:33.870Z</time>
      </trkpt>
      <trkpt lat="48.69456" lon="2.05612">
        <ele>150</ele>
        <time>2021-05-20T09:55:34.870Z</time>
      </trkpt>
      <trkpt lat="48.69457" lon="2.05611">
        <ele>150</ele>
        <time>2021-05-20T09:55:35.870Z</time>
      </trkpt>
      <trkpt lat="48.69457" lon="2.0561">
        <ele>150</ele>
        <time>2021-05-20T09:55:36.870Z</time>
      </trkpt>
      <trkpt lat="48.69457" lon="2.05609">
        <ele>150</ele>
        <time>2021-05-20T09:55:37.870Z</time>
      </trkpt>
      <trkpt lat="48.69457" lon="2.05607">
        <ele>150</ele>
        <time>2021-05-20T09:55:38.870Z</time>
      </trkpt>
      <trkpt lat="48.69457" lon="2.05606">
        <ele>150</ele>
        <time>2021-05-20T09:55:39.870Z</time>
      </trkpt>
      <trkpt lat="48.69457" lon="2.05604">
        <ele>151</ele>
        <time>2021-05-20T09:55:40.870Z</time>
      </trkpt>
      <trkpt lat="48.69457" lon="2.05603">
        <ele>151</ele>
        <time>2021-05-20T09:55:41.870Z</time>
      </trkpt>
      <trkpt lat="48.69458" lon="2.05602">
        <ele>151</ele>
        <time>2021-05-20T09:55:42.870Z</time>
      </trkpt>
      <trkpt lat="48.69458" lon="2.05601">
        <ele>151</ele>
        <time>2021-05-20T09:55:43.870Z</time>
      </trkpt>
      <trkpt lat="48.69459" lon="2.05599">
        <ele>151</ele>
        <time>2021-05-20T09:55:44.870Z</time>
      </trkpt>
      <trkpt lat="48.6946" lon="2.05598">
        <ele>151</ele>
        <time>2021-05-20T09:55:45.870Z</time>
      </trkpt>
      <trkpt lat="48.6946" lon="2.05597">
        <ele>152</ele>
        <time>2021-05-20T09:55:46.870Z</time>
      </trkpt>
      <trkpt lat="48.69461" lon="2.05596">
        <ele>152</ele>
        <time>2021-05-20T09:55:47.870Z</time>
      </trkpt>
      <trkpt lat="48.69461" lon="2.05595">
        <ele>152</ele>
        <time>2021-05-20T09:55:48.870Z</time>
      </trkpt>
      <trkpt lat="48.69462" lon="2.05594">
        <ele>152</ele>
        <time>2021-05-20T09:55:49.870Z</time>
      </trkpt>
      <trkpt lat="48.69462" lon="2.05593">
        <ele>152</ele>
        <time>2021-05-20T09:55:50.870Z</time>
      </trkpt>
      <trkpt lat="48.69463" lon="2.05592">
        <ele>152</ele>
        <time>2021-05-20T09:55:51.870Z</time>
      </trkpt>
      <trkpt lat="48.69464" lon="2.05592">
        <ele>152</ele>
        <time>2021-05-20T09:55:52.870Z</time>
      </trkpt>
      <trkpt lat="48.69466" lon="2.05589">
        <ele>153</ele>
        <time>2021-05-20T09:55:53.870Z</time>
      </trkpt>
      <trkpt lat="48.69467" lon="2.05588">
        <ele>153</ele>
        <time>2021-05-20T09:55:54.870Z</time>
      </trkpt>
      <trkpt lat="48.69468" lon="2.05588">
        <ele>153</ele>
        <time>2021-05-20T09:55:55.870Z</time>
      </trkpt>
      <trkpt lat="48.69469" lon="2.05587">
        <ele>153</ele>
        <time>2021-05-20T09:55:56.870Z</time>
      </trkpt>
      <trkpt lat="48.6947" lon="2.05586">
        <ele>153</ele>
        <time>2021-05-20T09:55:57.870Z</time>
      </trkpt>
      <trkpt lat="48.69471" lon="2.05586">
        <ele>153</ele>
        <time>2021-05-20T09:55:58.870Z</time>
      </trkpt>
      <trkpt lat="48.69471" lon="2.05585">
        <ele>153</ele>
        <time>2021-05-20T09:55:59.870Z</time>
      </trkpt>
      <trkpt lat="48.69472" lon="2.05584">
        <ele>153</ele>
        <time>2021-05-20T09:56:00.870Z</time>
      </trkpt>
      <trkpt lat="48.69473" lon="2.05583">
        <ele>153</ele>
        <time>2021-05-20T09:56:01.870Z</time>
      </trkpt>
      <trkpt lat="48.69474" lon="2.05583">
        <ele>153</ele>
        <time>2021-05-20T09:56:02.870Z</time>
      </trkpt>
      <trkpt lat="48.69475" lon="2.05582">
        <ele>154</ele>
        <time>2021-05-20T09:56:03.870Z</time>
      </trkpt>
      <trkpt lat="48.69476" lon="2.05581">
        <ele>154</ele>
        <time>2021-05-20T09:56:04.870Z</time>
      </trkpt>
      <trkpt lat="48.69477" lon="2.05581">
        <ele>154</ele>
        <time>2021-05-20T09:56:05.870Z</time>
      </trkpt>
      <trkpt lat="48.69478" lon="2.0558">
        <ele>154</ele>
        <time>2021-05-20T09:56:06.870Z</time>
      </trkpt>
      <trkpt lat="48.69479" lon="2.05579">
        <ele>154</ele>
        <time>2021-05-20T09:56:07.870Z</time>
      </trkpt>
      <trkpt lat="48.69479" lon="2.05578">
        <ele>154</ele>
        <time>2021-05-20T09:56:08.870Z</time>
      </trkpt>
      <trkpt lat="48.69481" lon="2.05576">
        <ele>155</ele>
        <time>2021-05-20T09:56:09.870Z</time>
      </trkpt>
      <trkpt lat="48.69482" lon="2.05576">
        <ele>155</ele>
        <time>2021-05-20T09:56:10.870Z</time>
      </trkpt>
      <trkpt lat="48.69483" lon="2.05575">
        <ele>155</ele>
        <time>2021-05-20T09:56:11.870Z</time>
      </trkpt>
      <trkpt lat="48.69485" lon="2.05574">
        <ele>155</ele>
        <time>2021-05-20T09:56:12.870Z</time>
      </trkpt>
      <trkpt lat="48.69486" lon="2.05574">
        <ele>155</ele>
        <time>2021-05-20T09:56:13.870Z</time>
      </trkpt>
      <trkpt lat="48.69487" lon="2.05574">
        <ele>155</ele>
        <time>2021-05-20T09:56:14.870Z</time>
      </trkpt>
      <trkpt lat="48.69491" lon="2.05571">
        <ele>156</ele>
        <time>2021-05-20T09:56:15.870Z</time>
      </trkpt>
      <trkpt lat="48.69492" lon="2.05569">
        <ele>156</ele>
        <time>2021-05-20T09:56:16.870Z</time>
      </trkpt>
      <trkpt lat="48.69492" lon="2.05568">
        <ele>156</ele>
        <time>2021-05-20T09:56:17.870Z</time>
      </trkpt>
      <trkpt lat="48.69493" lon="2.05566">
        <ele>156</ele>
        <time>2021-05-20T09:56:18.870Z</time>
      </trkpt>
      <trkpt lat="48.69494" lon="2.05565">
        <ele>156</ele>
        <time>2021-05-20T09:56:19.870Z</time>
      </trkpt>
      <trkpt lat="48.69495" lon="2.05564">
        <ele>156</ele>
        <time>2021-05-20T09:56:20.870Z</time>
      </trkpt>
      <trkpt lat="48.69495" lon="2.05562">
        <ele>156</ele>
        <time>2021-05-20T09:56:21.870Z</time>
      </trkpt>
      <trkpt lat="48.69496" lon="2.05561">
        <ele>156</ele>
        <time>2021-05-20T09:56:22.870Z</time>
      </trkpt>
      <trkpt lat="48.69496" lon="2.0556">
        <ele>156</ele>
        <time>2021-05-20T09:56:23.870Z</time>
      </trkpt>
      <trkpt lat="48.69497" lon="2.05559">
        <ele>156</ele>
        <time>2021-05-20T09:56:24.870Z</time>
      </trkpt>
      <trkpt lat="48.69498" lon="2.05559">
        <ele>156</ele>
        <time>2021-05-20T09:56:25.870Z</time>
      </trkpt>
      <trkpt lat="48.69498" lon="2.05558">
        <ele>157</ele>
        <time>2021-05-20T09:56:26.870Z</time>
      </trkpt>
      <trkpt lat="48.69499" lon="2.05558">
        <ele>157</ele>
        <time>2021-05-20T09:56:27.870Z</time>
      </trkpt>
      <trkpt lat="48.69503" lon="2.05555">
        <ele>158</ele>
        <time>2021-05-20T09:56:28.870Z</time>
      </trkpt>
      <trkpt lat="48.69503" lon="2.05555">
        <ele>158</ele>
        <time>2021-05-20T09:56:29.870Z</time>
      </trkpt>
      <trkpt lat="48.69504" lon="2.05555">
        <ele>158</ele>
        <time>2021-05-20T09:56:30.870Z</time>
      </trkpt>
      <trkpt lat="48.69505" lon="2.05555">
        <ele>158</ele>
        <time>2021-05-20T09:56:31.870Z</time>
      </trkpt>
      <trkpt lat="48.69505" lon="2.05555">
        <ele>158</ele>
        <time>2021-05-20T09:56:32.870Z</time>
      </trkpt>
      <trkpt lat="48.69506" lon="2.05555">
        <ele>158</ele>
        <time>2021-05-20T09:56:33.870Z</time>
      </trkpt>
      <trkpt lat="48.69506" lon="2.05554">
        <ele>158</ele>
        <time>2021-05-20T09:56:34.870Z</time>
      </trkpt>
      <trkpt lat="48.69506" lon="2.05554">
        <ele>158</ele>
        <time>2021-05-20T09:56:35.870Z</time>
      </trkpt>
      <trkpt lat="48.69511" lon="2.05558">
        <ele>160</ele>
        <time>2021-05-20T09:56:36.870Z</time>
      </trkpt>
      <trkpt lat="48.69512" lon="2.05559">
        <ele>160</ele>
        <time>2021-05-20T09:56:37.870Z</time>
      </trkpt>
      <trkpt lat="48.69512" lon="2.05559">
        <ele>160</ele>
        <time>2021-05-20T09:56:38.870Z</time>
      </trkpt>
      <trkpt lat="48.69513" lon="2.05559">
        <ele>160</ele>
        <time>2021-05-20T09:56:39.870Z</time>
      </trkpt>
      <trkpt lat="48.69514" lon="2.05559">
        <ele>160</ele>
        <time>2021-05-20T09:56:40.870Z</time>
      </trkpt>
      <trkpt lat="48.69515" lon="2.05559">
        <ele>160</ele>
        <time>2021-05-20T09:56:41.870Z</time>
      </trkpt>
      <trkpt lat="48.69516" lon="2.05559">
        <ele>161</ele>
        <time>2021-05-20T09:56:42.870Z</time>
      </trkpt>
      <trkpt lat="48.69518" lon="2.05559">
        <ele>161</ele>
        <time>2021-05-20T09:56:43.870Z</time>
      </trkpt>
      <trkpt lat="48.69519" lon="2.05559">
        <ele>161</ele>
        <time>2021-05-20T09:56:44.870Z</time>
      </trkpt>
      <trkpt lat="48.69522" lon="2.05559">
        <ele>163</ele>
        <time>2021-05-20T09:56:45.870Z</time>
      </trkpt>
      <trkpt lat="48.69522" lon="2.05559">
        <ele>163</ele>
        <time>2021-05-20T09:56:46.870Z</time>
      </trkpt>
      <trkpt lat="48.69523" lon="2.05558">
        <ele>163</ele>
        <time>2021-05-20T09:56:47.870Z</time>
      </trkpt>
      <trkpt lat="48.69528" lon="2.05558">
        <ele>166</ele>
        <time>2021-05-20T09:56:48.870Z</time>
      </trkpt>
      <trkpt lat="48.69529" lon="2.05558">
        <ele>166</ele>
        <time>2021-05-20T09:56:49.870Z</time>
      </trkpt>
      <trkpt lat="48.6953" lon="2.05558">
        <ele>166</ele>
        <time>2021-05-20T09:56:50.870Z</time>
      </trkpt>
      <trkpt lat="48.6953" lon="2.05558">
        <ele>166</ele>
        <time>2021-05-20T09:56:51.870Z</time>
      </trkpt>
      <trkpt lat="48.6953" lon="2.05558">
        <ele>166</ele>
        <time>2021-05-20T09:56:52.870Z</time>
      </trkpt>
      <trkpt lat="48.6953" lon="2.05558">
        <ele>166</ele>
        <time>2021-05-20T09:56:53.870Z</time>
      </trkpt>
      <trkpt lat="48.69532" lon="2.05562">
        <ele>166</ele>
        <time>2021-05-20T09:56:54.870Z</time>
      </trkpt>
      <trkpt lat="48.69532" lon="2.05562">
        <ele>166</ele>
        <time>2021-05-20T09:56:55.870Z</time>
      </trkpt>
      <trkpt lat="48.69533" lon="2.05566">
        <ele>167</ele>
        <time>2021-05-20T09:56:56.870Z</time>
      </trkpt>
      <trkpt lat="48.69533" lon="2.05566">
        <ele>167</ele>
        <time>2021-05-20T09:56:57.870Z</time>
      </trkpt>
      <trkpt lat="48.69526" lon="2.05575">
        <ele>169</ele>
        <time>2021-05-20T09:56:58.870Z</time>
      </trkpt>
      <trkpt lat="48.69526" lon="2.05575">
        <ele>169</ele>
        <time>2021-05-20T09:56:59.870Z</time>
      </trkpt>
      <trkpt lat="48.69529" lon="2.05576">
        <ele>169</ele>
        <time>2021-05-20T09:57:00.870Z</time>
      </trkpt>
      <trkpt lat="48.69529" lon="2.05577">
        <ele>169</ele>
        <time>2021-05-20T09:57:01.870Z</time>
      </trkpt>
      <trkpt lat="48.6953" lon="2.05577">
        <ele>169</ele>
        <time>2021-05-20T09:57:02.870Z</time>
      </trkpt>
      <trkpt lat="48.69531" lon="2.05576">
        <ele>169</ele>
        <time>2021-05-20T09:57:03.870Z</time>
      </trkpt>
      <trkpt lat="48.69532" lon="2.05576">
        <ele>169</ele>
        <time>2021-05-20T09:57:04.870Z</time>
      </trkpt>
      <trkpt lat="48.69532" lon="2.05576">
        <ele>169</ele>
        <time>2021-05-20T09:57:05.870Z</time>
      </trkpt>
      <trkpt lat="48.69533" lon="2.05576">
        <ele>169</ele>
        <time>2021-05-20T09:57:06.870Z</time>
      </trkpt>
      <trkpt lat="48.69533" lon="2.05575">
        <ele>169</ele>
        <time>2021-05-20T09:57:07.870Z</time>
      </trkpt>
      <trkpt lat="48.69533" lon="2.05575">
        <ele>169</ele>
        <time>2021-05-20T09:57:08.870Z</time>
      </trkpt>
      <trkpt lat="48.69534" lon="2.05575">
        <ele>169</ele>
        <time>2021-05-20T09:57:09.870Z</time>
      </trkpt>
      <trkpt lat="48.69534" lon="2.05575">
        <ele>169</ele>
        <time>2021-05-20T09:57:10.870Z</time>
      </trkpt>
      <trkpt lat="48.69534" lon="2.05575">
        <ele>169</ele>
        <time>2021-05-20T09:57:11.870Z</time>
      </trkpt>
      <trkpt lat="48.69531" lon="2.0558">
        <ele>173</ele>
        <time>2021-05-20T09:57:12.870Z</time>
      </trkpt>
      <trkpt lat="48.69531" lon="2.0558">
        <ele>173</ele>
        <time>2021-05-20T09:57:13.870Z</time>
      </trkpt>
      <trkpt lat="48.69531" lon="2.0558">
        <ele>173</ele>
        <time>2021-05-20T09:57:14.870Z</time>
      </trkpt>
      <trkpt lat="48.69531" lon="2.0558">
        <ele>173</ele>
        <time>2021-05-20T09:57:15.870Z</time>
      </trkpt>
      <trkpt lat="48.69531" lon="2.0558">
        <ele>173</ele>
        <time>2021-05-20T09:57:16.870Z</time>
      </trkpt>
      <trkpt lat="48.69537" lon="2.05574">
        <ele>173</ele>
        <time>2021-05-20T09:57:17.870Z</time>
      </trkpt>
      <trkpt lat="48.69537" lon="2.05574">
        <ele>174</ele>
        <time>2021-05-20T09:57:18.870Z</time>
      </trkpt>
      <trkpt lat="48.69538" lon="2.05574">
        <ele>174</ele>
        <time>2021-05-20T09:57:19.870Z</time>
      </trkpt>
      <trkpt lat="48.69539" lon="2.05574">
        <ele>174</ele>
        <time>2021-05-20T09:57:20.870Z</time>
      </trkpt>
      <trkpt lat="48.69539" lon="2.05574">
        <ele>174</ele>
        <time>2021-05-20T09:57:21.870Z</time>
      </trkpt>
      <trkpt lat="48.6954" lon="2.05574">
        <ele>174</ele>
        <time>2021-05-20T09:57:22.870Z</time>
      </trkpt>
      <trkpt lat="48.69541" lon="2.05574">
        <ele>174</ele>
        <time>2021-05-20T09:57:23.870Z</time>
      </trkpt>
      <trkpt lat="48.69542" lon="2.05574">
        <ele>174</ele>
        <time>2021-05-20T09:57:24.870Z</time>
      </trkpt>
      <trkpt lat="48.69543" lon="2.05574">
        <ele>174</ele>
        <time>2021-05-20T09:57:25.870Z</time>
      </trkpt>
      <trkpt lat="48.69543" lon="2.05574">
        <ele>174</ele>
        <time>2021-05-20T09:57:26.870Z</time>
      </trkpt>
      <trkpt lat="48.69545" lon="2.05574">
        <ele>174</ele>
        <time>2021-05-20T09:57:27.870Z</time>
      </trkpt>
      <trkpt lat="48.69546" lon="2.05575">
        <ele>174</ele>
        <time>2021-05-20T09:57:28.870Z</time>
      </trkpt>
      <trkpt lat="48.69547" lon="2.05575">
        <ele>174</ele>
        <time>2021-05-20T09:57:29.870Z</time>
      </trkpt>
      <trkpt lat="48.69548" lon="2.05575">
        <ele>174</ele>
        <time>2021-05-20T09:57:30.870Z</time>
      </trkpt>
      <trkpt lat="48.6955" lon="2.05576">
        <ele>174</ele>
        <time>2021-05-20T09:57:31.870Z</time>
      </trkpt>
      <trkpt lat="48.69551" lon="2.05576">
        <ele>174</ele>
        <time>2021-05-20T09:57:32.870Z</time>
      </trkpt>
      <trkpt lat="48.69551" lon="2.05577">
        <ele>174</ele>
        <time>2021-05-20T09:57:33.870Z</time>
      </trkpt>
      <trkpt lat="48.69552" lon="2.05577">
        <ele>174</ele>
        <time>2021-05-20T09:57:34.870Z</time>
      </trkpt>
      <trkpt lat="48.69553" lon="2.05577">
        <ele>174</ele>
        <time>2021-05-20T09:57:35.870Z</time>
      </trkpt>
      <trkpt lat="48.69554" lon="2.05578">
        <ele>173</ele>
        <time>2021-05-20T09:57:36.870Z</time>
      </trkpt>
      <trkpt lat="48.69555" lon="2.05578">
        <ele>173</ele>
        <time>2021-05-20T09:57:37.870Z</time>
      </trkpt>
      <trkpt lat="48.69556" lon="2.05579">
        <ele>173</ele>
        <time>2021-05-20T09:57:38.870Z</time>
      </trkpt>
      <trkpt lat="48.69557" lon="2.05579">
        <ele>173</ele>
        <time>2021-05-20T09:57:39.870Z</time>
      </trkpt>
      <trkpt lat="48.69558" lon="2.0558">
        <ele>173</ele>
        <time>2021-05-20T09:57:40.870Z</time>
      </trkpt>
      <trkpt lat="48.69559" lon="2.0558">
        <ele>173</ele>
        <time>2021-05-20T09:57:41.870Z</time>
      </trkpt>
      <trkpt lat="48.6956" lon="2.05581">
        <ele>173</ele>
        <time>2021-05-20T09:57:42.870Z</time>
      </trkpt>
      <trkpt lat="48.69561" lon="2.05581">
        <ele>173</ele>
        <time>2021-05-20T09:57:43.870Z</time>
      </trkpt>
      <trkpt lat="48.69562" lon="2.05582">
        <ele>173</ele>
        <time>2021-05-20T09:57:44.870Z</time>
      </trkpt>
      <trkpt lat="48.69563" lon="2.05582">
        <ele>173</ele>
        <time>2021-05-20T09:57:45.870Z</time>
      </trkpt>
      <trkpt lat="48.69564" lon="2.05583">
        <ele>173</ele>
        <time>2021-05-20T09:57:46.870Z</time>
      </trkpt>
      <trkpt lat="48.69564" lon="2.05583">
        <ele>173</ele>
        <time>2021-05-20T09:57:47.870Z</time>
      </trkpt>
      <trkpt lat="48.69565" lon="2.05584">
        <ele>173</ele>
        <time>2021-05-20T09:57:48.870Z</time>
      </trkpt>
      <trkpt lat="48.69566" lon="2.05584">
        <ele>173</ele>
        <time>2021-05-20T09:57:49.870Z</time>
      </trkpt>
      <trkpt lat="48.69567" lon="2.05585">
        <ele>173</ele>
        <time>2021-05-20T09:57:50.870Z</time>
      </trkpt>
      <trkpt lat="48.69568" lon="2.05586">
        <ele>173</ele>
        <time>2021-05-20T09:57:51.870Z</time>
      </trkpt>
      <trkpt lat="48.69569" lon="2.05586">
        <ele>173</ele>
        <time>2021-05-20T09:57:52.870Z</time>
      </trkpt>
      <trkpt lat="48.6957" lon="2.05587">
        <ele>173</ele>
        <time>2021-05-20T09:57:53.870Z</time>
      </trkpt>
      <trkpt lat="48.69571" lon="2.05587">
        <ele>173</ele>
        <time>2021-05-20T09:57:54.870Z</time>
      </trkpt>
      <trkpt lat="48.69572" lon="2.05588">
        <ele>173</ele>
        <time>2021-05-20T09:57:55.870Z</time>
      </trkpt>
      <trkpt lat="48.69573" lon="2.05589">
        <ele>173</ele>
        <time>2021-05-20T09:57:56.870Z</time>
      </trkpt>
      <trkpt lat="48.69574" lon="2.0559">
        <ele>173</ele>
        <time>2021-05-20T09:57:57.870Z</time>
      </trkpt>
      <trkpt lat="48.69575" lon="2.05591">
        <ele>173</ele>
        <time>2021-05-20T09:57:58.870Z</time>
      </trkpt>
      <trkpt lat="48.69576" lon="2.05592">
        <ele>173</ele>
        <time>2021-05-20T09:57:59.870Z</time>
      </trkpt>
      <trkpt lat="48.69577" lon="2.05593">
        <ele>173</ele>
        <time>2021-05-20T09:58:00.870Z</time>
      </trkpt>
      <trkpt lat="48.69578" lon="2.05593">
        <ele>173</ele>
        <time>2021-05-20T09:58:01.870Z</time>
      </trkpt>
      <trkpt lat="48.69579" lon="2.05594">
        <ele>173</ele>
        <time>2021-05-20T09:58:02.870Z</time>
      </trkpt>
      <trkpt lat="48.6958" lon="2.05595">
        <ele>172</ele>
        <time>2021-05-20T09:58:03.870Z</time>
      </trkpt>
      <trkpt lat="48.69581" lon="2.05595">
        <ele>172</ele>
        <time>2021-05-20T09:58:04.870Z</time>
      </trkpt>
      <trkpt lat="48.69582" lon="2.05596">
        <ele>172</ele>
        <time>2021-05-20T09:58:05.870Z</time>
      </trkpt>
      <trkpt lat="48.69582" lon="2.05597">
        <ele>172</ele>
        <time>2021-05-20T09:58:06.870Z</time>
      </trkpt>
      <trkpt lat="48.69583" lon="2.05598">
        <ele>172</ele>
        <time>2021-05-20T09:58:07.870Z</time>
      </trkpt>
      <trkpt lat="48.69584" lon="2.05599">
        <ele>172</ele>
        <time>2021-05-20T09:58:08.870Z</time>
      </trkpt>
      <trkpt lat="48.69584" lon="2.056">
        <ele>172</ele>
        <time>2021-05-20T09:58:09.870Z</time>
      </trkpt>
      <trkpt lat="48.69585" lon="2.05601">
        <ele>172</ele>
        <time>2021-05-20T09:58:10.870Z</time>
      </trkpt>
      <trkpt lat="48.69586" lon="2.05602">
        <ele>172</ele>
        <time>2021-05-20T09:58:11.870Z</time>
      </trkpt>
      <trkpt lat="48.69587" lon="2.05603">
        <ele>172</ele>
        <time>2021-05-20T09:58:12.870Z</time>
      </trkpt>
      <trkpt lat="48.69587" lon="2.05604">
        <ele>171</ele>
        <time>2021-05-20T09:58:13.870Z</time>
      </trkpt>
      <trkpt lat="48.69588" lon="2.05606">
        <ele>171</ele>
        <time>2021-05-20T09:58:14.870Z</time>
      </trkpt>
      <trkpt lat="48.69588" lon="2.05606">
        <ele>171</ele>
        <time>2021-05-20T09:58:15.870Z</time>
      </trkpt>
      <trkpt lat="48.69589" lon="2.05608">
        <ele>171</ele>
        <time>2021-05-20T09:58:16.870Z</time>
      </trkpt>
      <trkpt lat="48.69589" lon="2.05609">
        <ele>171</ele>
        <time>2021-05-20T09:58:17.870Z</time>
      </trkpt>
      <trkpt lat="48.6959" lon="2.05609">
        <ele>171</ele>
        <time>2021-05-20T09:58:18.870Z</time>
      </trkpt>
      <trkpt lat="48.69591" lon="2.0561">
        <ele>170</ele>
        <time>2021-05-20T09:58:19.870Z</time>
      </trkpt>
      <trkpt lat="48.69592" lon="2.05611">
        <ele>170</ele>
        <time>2021-05-20T09:58:20.870Z</time>
      </trkpt>
      <trkpt lat="48.69592" lon="2.05612">
        <ele>170</ele>
        <time>2021-05-20T09:58:21.870Z</time>
      </trkpt>
      <trkpt lat="48.69593" lon="2.05612">
        <ele>169</ele>
        <time>2021-05-20T09:58:22.870Z</time>
      </trkpt>
      <trkpt lat="48.69594" lon="2.05613">
        <ele>169</ele>
        <time>2021-05-20T09:58:23.870Z</time>
      </trkpt>
      <trkpt lat="48.69596" lon="2.05613">
        <ele>169</ele>
        <time>2021-05-20T09:58:24.870Z</time>
      </trkpt>
      <trkpt lat="48.69597" lon="2.05614">
        <ele>169</ele>
        <time>2021-05-20T09:58:25.870Z</time>
      </trkpt>
      <trkpt lat="48.69598" lon="2.05614">
        <ele>169</ele>
        <time>2021-05-20T09:58:26.870Z</time>
      </trkpt>
      <trkpt lat="48.69599" lon="2.05614">
        <ele>168</ele>
        <time>2021-05-20T09:58:27.870Z</time>
      </trkpt>
      <trkpt lat="48.69601" lon="2.05614">
        <ele>168</ele>
        <time>2021-05-20T09:58:28.870Z</time>
      </trkpt>
      <trkpt lat="48.69602" lon="2.05614">
        <ele>168</ele>
        <time>2021-05-20T09:58:29.870Z</time>
      </trkpt>
      <trkpt lat="48.69603" lon="2.05615">
        <ele>168</ele>
        <time>2021-05-20T09:58:30.870Z</time>
      </trkpt>
      <trkpt lat="48.69604" lon="2.05616">
        <ele>168</ele>
        <time>2021-05-20T09:58:31.870Z</time>
      </trkpt>
      <trkpt lat="48.69605" lon="2.05617">
        <ele>167</ele>
        <time>2021-05-20T09:58:32.870Z</time>
      </trkpt>
      <trkpt lat="48.69606" lon="2.05618">
        <ele>167</ele>
        <time>2021-05-20T09:58:33.870Z</time>
      </trkpt>
      <trkpt lat="48.69607" lon="2.05619">
        <ele>166</ele>
        <time>2021-05-20T09:58:34.870Z</time>
      </trkpt>
      <trkpt lat="48.69608" lon="2.05619">
        <ele>166</ele>
        <time>2021-05-20T09:58:35.870Z</time>
      </trkpt>
      <trkpt lat="48.69609" lon="2.0562">
        <ele>166</ele>
        <time>2021-05-20T09:58:36.870Z</time>
      </trkpt>
      <trkpt lat="48.6961" lon="2.05621">
        <ele>165</ele>
        <time>2021-05-20T09:58:37.870Z</time>
      </trkpt>
      <trkpt lat="48.69611" lon="2.05622">
        <ele>165</ele>
        <time>2021-05-20T09:58:38.870Z</time>
      </trkpt>
      <trkpt lat="48.69612" lon="2.05623">
        <ele>165</ele>
        <time>2021-05-20T09:58:39.870Z</time>
      </trkpt>
      <trkpt lat="48.69612" lon="2.05623">
        <ele>165</ele>
        <time>2021-05-20T09:58:40.870Z</time>
      </trkpt>
      <trkpt lat="48.69613" lon="2.05624">
        <ele>165</ele>
        <time>2021-05-20T09:58:41.870Z</time>
      </trkpt>
      <trkpt lat="48.69614" lon="2.05624">
        <ele>164</ele>
        <time>2021-05-20T09:58:42.870Z</time>
      </trkpt>
      <trkpt lat="48.69615" lon="2.05625">
        <ele>164</ele>
        <time>2021-05-20T09:58:43.870Z</time>
      </trkpt>
      <trkpt lat="48.69615" lon="2.05626">
        <ele>164</ele>
        <time>2021-05-20T09:58:44.870Z</time>
      </trkpt>
      <trkpt lat="48.69616" lon="2.05627">
        <ele>164</ele>
        <time>2021-05-20T09:58:45.870Z</time>
      </trkpt>
      <trkpt lat="48.69617" lon="2.05627">
        <ele>164</ele>
        <time>2021-05-20T09:58:46.870Z</time>
      </trkpt>
      <trkpt lat="48.69618" lon="2.05628">
        <ele>164</ele>
        <time>2021-05-20T09:58:47.870Z</time>
      </trkpt>
      <trkpt lat="48.69619" lon="2.05629">
        <ele>163</ele>
        <time>2021-05-20T09:58:48.870Z</time>
      </trkpt>
      <trkpt lat="48.6962" lon="2.05629">
        <ele>163</ele>
        <time>2021-05-20T09:58:49.870Z</time>
      </trkpt>
      <trkpt lat="48.69621" lon="2.0563">
        <ele>163</ele>
        <time>2021-05-20T09:58:50.870Z</time>
      </trkpt>
      <trkpt lat="48.69622" lon="2.05631">
        <ele>162</ele>
        <time>2021-05-20T09:58:51.870Z</time>
      </trkpt>
      <trkpt lat="48.69623" lon="2.05631">
        <ele>162</ele>
        <time>2021-05-20T09:58:52.870Z</time>
      </trkpt>
      <trkpt lat="48.69624" lon="2.05632">
        <ele>162</ele>
        <time>2021-05-20T09:58:53.870Z</time>
      </trkpt>
      <trkpt lat="48.69625" lon="2.05632">
        <ele>162</ele>
        <time>2021-05-20T09:58:54.870Z</time>
      </trkpt>
      <trkpt lat="48.69626" lon="2.05633">
        <ele>162</ele>
        <time>2021-05-20T09:58:55.870Z</time>
      </trkpt>
      <trkpt lat="48.69627" lon="2.05633">
        <ele>162</ele>
        <time>2021-05-20T09:58:56.870Z</time>
      </trkpt>
      <trkpt lat="48.69628" lon="2.05634">
        <ele>162</ele>
        <time>2021-05-20T09:58:57.870Z</time>
      </trkpt>
      <trkpt lat="48.69629" lon="2.05634">
        <ele>162</ele>
        <time>2021-05-20T09:58:58.870Z</time>
      </trkpt>
      <trkpt lat="48.6963" lon="2.05635">
        <ele>162</ele>
        <time>2021-05-20T09:58:59.870Z</time>
      </trkpt>
      <trkpt lat="48.69631" lon="2.05636">
        <ele>162</ele>
        <time>2021-05-20T09:59:00.870Z</time>
      </trkpt>
      <trkpt lat="48.69632" lon="2.05637">
        <ele>162</ele>
        <time>2021-05-20T09:59:01.870Z</time>
      </trkpt>
      <trkpt lat="48.69634" lon="2.05637">
        <ele>162</ele>
        <time>2021-05-20T09:59:02.870Z</time>
      </trkpt>
      <trkpt lat="48.69635" lon="2.05637">
        <ele>162</ele>
        <time>2021-05-20T09:59:03.870Z</time>
      </trkpt>
      <trkpt lat="48.69636" lon="2.05637">
        <ele>162</ele>
        <time>2021-05-20T09:59:04.870Z</time>
      </trkpt>
      <trkpt lat="48.69637" lon="2.05637">
        <ele>162</ele>
        <time>2021-05-20T09:59:05.870Z</time>
      </trkpt>
      <trkpt lat="48.69638" lon="2.05637">
        <ele>162</ele>
        <time>2021-05-20T09:59:06.870Z</time>
      </trkpt>
      <trkpt lat="48.69639" lon="2.05637">
        <ele>162</ele>
        <time>2021-05-20T09:59:07.870Z</time>
      </trkpt>
      <trkpt lat="48.6964" lon="2.05636">
        <ele>162</ele>
        <time>2021-05-20T09:59:08.870Z</time>
      </trkpt>
      <trkpt lat="48.69641" lon="2.05636">
        <ele>162</ele>
        <time>2021-05-20T09:59:09.870Z</time>
      </trkpt>
      <trkpt lat="48.69642" lon="2.05636">
        <ele>162</ele>
        <time>2021-05-20T09:59:10.870Z</time>
      </trkpt>
      <trkpt lat="48.69643" lon="2.05636">
        <ele>162</ele>
        <time>2021-05-20T09:59:11.870Z</time>
      </trkpt>
      <trkpt lat="48.69644" lon="2.05635">
        <ele>162</ele>
        <time>2021-05-20T09:59:12.870Z</time>
      </trkpt>
      <trkpt lat="48.69644" lon="2.05635">
        <ele>162</ele>
        <time>2021-05-20T09:59:13.870Z</time>
      </trkpt>
      <trkpt lat="48.69645" lon="2.05635">
        <ele>162</ele>
        <time>2021-05-20T09:59:14.870Z</time>
      </trkpt>
      <trkpt lat="48.69646" lon="2.05634">
        <ele>162</ele>
        <time>2021-05-20T09:59:15.870Z</time>
      </trkpt>
      <trkpt lat="48.69647" lon="2.05634">
        <ele>162</ele>
        <time>2021-05-20T09:59:16.870Z</time>
      </trkpt>
      <trkpt lat="48.69647" lon="2.05633">
        <ele>162</ele>
        <time>2021-05-20T09:59:17.870Z</time>
      </trkpt>
      <trkpt lat="48.69648" lon="2.05633">
        <ele>162</ele>
        <time>2021-05-20T09:59:18.870Z</time>
      </trkpt>
      <trkpt lat="48.69649" lon="2.05632">
        <ele>162</ele>
        <time>2021-05-20T09:59:19.870Z</time>
      </trkpt>
      <trkpt lat="48.6965" lon="2.05631">
        <ele>162</ele>
        <time>2021-05-20T09:59:20.870Z</time>
      </trkpt>
      <trkpt lat="48.69651" lon="2.05631">
        <ele>162</ele>
        <time>2021-05-20T09:59:21.870Z</time>
      </trkpt>
      <trkpt lat="48.69651" lon="2.0563">
        <ele>162</ele>
        <time>2021-05-20T09:59:22.870Z</time>
      </trkpt>
      <trkpt lat="48.69652" lon="2.0563">
        <ele>162</ele>
        <time>2021-05-20T09:59:23.870Z</time>
      </trkpt>
      <trkpt lat="48.69653" lon="2.0563">
        <ele>162</ele>
        <time>2021-05-20T09:59:24.870Z</time>
      </trkpt>
      <trkpt lat="48.69653" lon="2.05629">
        <ele>162</ele>
        <time>2021-05-20T09:59:25.870Z</time>
      </trkpt>
      <trkpt lat="48.69654" lon="2.05629">
        <ele>162</ele>
        <time>2021-05-20T09:59:26.870Z</time>
      </trkpt>
      <trkpt lat="48.69655" lon="2.05628">
        <ele>162</ele>
        <time>2021-05-20T09:59:27.870Z</time>
      </trkpt>
      <trkpt lat="48.69656" lon="2.05628">
        <ele>162</ele>
        <time>2021-05-20T09:59:28.870Z</time>
      </trkpt>
      <trkpt lat="48.69657" lon="2.05627">
        <ele>162</ele>
        <time>2021-05-20T09:59:29.870Z</time>
      </trkpt>
      <trkpt lat="48.69659" lon="2.05627">
        <ele>162</ele>
        <time>2021-05-20T09:59:30.870Z</time>
      </trkpt>
      <trkpt lat="48.6966" lon="2.05627">
        <ele>162</ele>
        <time>2021-05-20T09:59:31.870Z</time>
      </trkpt>
      <trkpt lat="48.69661" lon="2.05627">
        <ele>162</ele>
        <time>2021-05-20T09:59:32.870Z</time>
      </trkpt>
      <trkpt lat="48.69661" lon="2.05627">
        <ele>162</ele>
        <time>2021-05-20T09:59:33.870Z</time>
      </trkpt>
      <trkpt lat="48.69663" lon="2.05627">
        <ele>162</ele>
        <time>2021-05-20T09:59:34.870Z</time>
      </trkpt>
      <trkpt lat="48.69664" lon="2.05627">
        <ele>163</ele>
        <time>2021-05-20T09:59:35.870Z</time>
      </trkpt>
      <trkpt lat="48.69664" lon="2.05627">
        <ele>163</ele>
        <time>2021-05-20T09:59:36.870Z</time>
      </trkpt>
      <trkpt lat="48.69665" lon="2.05626">
        <ele>163</ele>
        <time>2021-05-20T09:59:37.870Z</time>
      </trkpt>
      <trkpt lat="48.69666" lon="2.05627">
        <ele>163</ele>
        <time>2021-05-20T09:59:38.870Z</time>
      </trkpt>
      <trkpt lat="48.69667" lon="2.05627">
        <ele>163</ele>
        <time>2021-05-20T09:59:39.870Z</time>
      </trkpt>
      <trkpt lat="48.69669" lon="2.05628">
        <ele>163</ele>
        <time>2021-05-20T09:59:40.870Z</time>
      </trkpt>
      <trkpt lat="48.6967" lon="2.05629">
        <ele>163</ele>
        <time>2021-05-20T09:59:41.870Z</time>
      </trkpt>
      <trkpt lat="48.69671" lon="2.05629">
        <ele>164</ele>
        <time>2021-05-20T09:59:42.870Z</time>
      </trkpt>
      <trkpt lat="48.69672" lon="2.0563">
        <ele>164</ele>
        <time>2021-05-20T09:59:43.870Z</time>
      </trkpt>
      <trkpt lat="48.69674" lon="2.05631">
        <ele>164</ele>
        <time>2021-05-20T09:59:44.870Z</time>
      </trkpt>
      <trkpt lat="48.69675" lon="2.05631">
        <ele>164</ele>
        <time>2021-05-20T09:59:45.870Z</time>
      </trkpt>
      <trkpt lat="48.69676" lon="2.05632">
        <ele>164</ele>
        <time>2021-05-20T09:59:46.870Z</time>
      </trkpt>
      <trkpt lat="48.69677" lon="2.05634">
        <ele>164</ele>
        <time>2021-05-20T09:59:47.870Z</time>
      </trkpt>
      <trkpt lat="48.69678" lon="2.05635">
        <ele>164</ele>
        <time>2021-05-20T09:59:48.870Z</time>
      </trkpt>
      <trkpt lat="48.69678" lon="2.05637">
        <ele>163</ele>
        <time>2021-05-20T09:59:49.870Z</time>
      </trkpt>
      <trkpt lat="48.69678" lon="2.05639">
        <ele>163</ele>
        <time>2021-05-20T09:59:50.870Z</time>
      </trkpt>
      <trkpt lat="48.69678" lon="2.0564">
        <ele>163</ele>
        <time>2021-05-20T09:59:51.870Z</time>
      </trkpt>
      <trkpt lat="48.69679" lon="2.05642">
        <ele>163</ele>
        <time>2021-05-20T09:59:52.870Z</time>
      </trkpt>
      <trkpt lat="48.69679" lon="2.05643">
        <ele>162</ele>
        <time>2021-05-20T09:59:53.870Z</time>
      </trkpt>
      <trkpt lat="48.69679" lon="2.05644">
        <ele>162</ele>
        <time>2021-05-20T09:59:54.870Z</time>
      </trkpt>
      <trkpt lat="48.69679" lon="2.05646">
        <ele>162</ele>
        <time>2021-05-20T09:59:55.870Z</time>
      </trkpt>
      <trkpt lat="48.69679" lon="2.05647">
        <ele>162</ele>
        <time>2021-05-20T09:59:56.870Z</time>
      </trkpt>
      <trkpt lat="48.69679" lon="2.05649">
        <ele>161</ele>
        <time>2021-05-20T09:59:57.870Z</time>
      </trkpt>
      <trkpt lat="48.69679" lon="2.0565">
        <ele>161</ele>
        <time>2021-05-20T09:59:58.870Z</time>
      </trkpt>
      <trkpt lat="48.69679" lon="2.05652">
        <ele>161</ele>
        <time>2021-05-20T09:59:59.870Z</time>
      </trkpt>
      <trkpt lat="48.69679" lon="2.05654">
        <ele>161</ele>
        <time>2021-05-20T10:00:00.870Z</time>
      </trkpt>
      <trkpt lat="48.6968" lon="2.05656">
        <ele>160</ele>
        <time>2021-05-20T10:00:01.870Z</time>
      </trkpt>
      <trkpt lat="48.6968" lon="2.05658">
        <ele>160</ele>
        <time>2021-05-20T10:00:02.870Z</time>
      </trkpt>
      <trkpt lat="48.6968" lon="2.05659">
        <ele>159</ele>
        <time>2021-05-20T10:00:03.870Z</time>
      </trkpt>
      <trkpt lat="48.6968" lon="2.0566">
        <ele>159</ele>
        <time>2021-05-20T10:00:04.870Z</time>
      </trkpt>
      <trkpt lat="48.6968" lon="2.05661">
        <ele>159</ele>
        <time>2021-05-20T10:00:05.870Z</time>
      </trkpt>
      <trkpt lat="48.6968" lon="2.05663">
        <ele>158</ele>
        <time>2021-05-20T10:00:06.870Z</time>
      </trkpt>
      <trkpt lat="48.6968" lon="2.05665">
        <ele>158</ele>
        <time>2021-05-20T10:00:07.870Z</time>
      </trkpt>
      <trkpt lat="48.69681" lon="2.05666">
        <ele>158</ele>
        <time>2021-05-20T10:00:08.870Z</time>
      </trkpt>
      <trkpt lat="48.69682" lon="2.05668">
        <ele>157</ele>
        <time>2021-05-20T10:00:09.870Z</time>
      </trkpt>
      <trkpt lat="48.69683" lon="2.05669">
        <ele>157</ele>
        <time>2021-05-20T10:00:10.870Z</time>
      </trkpt>
      <trkpt lat="48.69684" lon="2.0567">
        <ele>157</ele>
        <time>2021-05-20T10:00:11.870Z</time>
      </trkpt>
      <trkpt lat="48.69684" lon="2.0567">
        <ele>156</ele>
        <time>2021-05-20T10:00:12.870Z</time>
      </trkpt>
      <trkpt lat="48.69685" lon="2.05671">
        <ele>156</ele>
        <time>2021-05-20T10:00:13.870Z</time>
      </trkpt>
      <trkpt lat="48.69686" lon="2.05671">
        <ele>156</ele>
        <time>2021-05-20T10:00:14.870Z</time>
      </trkpt>
      <trkpt lat="48.69687" lon="2.05671">
        <ele>156</ele>
        <time>2021-05-20T10:00:15.870Z</time>
      </trkpt>
      <trkpt lat="48.69688" lon="2.05672">
        <ele>156</ele>
        <time>2021-05-20T10:00:16.870Z</time>
      </trkpt>
      <trkpt lat="48.69689" lon="2.05672">
        <ele>156</ele>
        <time>2021-05-20T10:00:17.870Z</time>
      </trkpt>
      <trkpt lat="48.6969" lon="2.05672">
        <ele>155</ele>
        <time>2021-05-20T10:00:18.870Z</time>
      </trkpt>
      <trkpt lat="48.69691" lon="2.05672">
        <ele>155</ele>
        <time>2021-05-20T10:00:19.870Z</time>
      </trkpt>
      <trkpt lat="48.69692" lon="2.05673">
        <ele>155</ele>
        <time>2021-05-20T10:00:20.870Z</time>
      </trkpt>
      <trkpt lat="48.69693" lon="2.05674">
        <ele>155</ele>
        <time>2021-05-20T10:00:21.870Z</time>
      </trkpt>
      <trkpt lat="48.69694" lon="2.05674">
        <ele>155</ele>
        <time>2021-05-20T10:00:22.870Z</time>
      </trkpt>
      <trkpt lat="48.69694" lon="2.05674">
        <ele>156</ele>
        <time>2021-05-20T10:00:23.870Z</time>
      </trkpt>
      <trkpt lat="48.69695" lon="2.05674">
        <ele>156</ele>
        <time>2021-05-20T10:00:24.870Z</time>
      </trkpt>
      <trkpt lat="48.69695" lon="2.05674">
        <ele>156</ele>
        <time>2021-05-20T10:00:25.870Z</time>
      </trkpt>
      <trkpt lat="48.69696" lon="2.05673">
        <ele>156</ele>
        <time>2021-05-20T10:00:26.870Z</time>
      </trkpt>
      <trkpt lat="48.69696" lon="2.05673">
        <ele>156</ele>
        <time>2021-05-20T10:00:27.870Z</time>
      </trkpt>
      <trkpt lat="48.69697" lon="2.05672">
        <ele>156</ele>
        <time>2021-05-20T10:00:28.870Z</time>
      </trkpt>
      <trkpt lat="48.69697" lon="2.05672">
        <ele>156</ele>
        <time>2021-05-20T10:00:29.870Z</time>
      </trkpt>
      <trkpt lat="48.69698" lon="2.05671">
        <ele>156</ele>
        <time>2021-05-20T10:00:30.870Z</time>
      </trkpt>
      <trkpt lat="48.69698" lon="2.05671">
        <ele>156</ele>
        <time>2021-05-20T10:00:31.870Z</time>
      </trkpt>
      <trkpt lat="48.69699" lon="2.05671">
        <ele>156</ele>
        <time>2021-05-20T10:00:32.870Z</time>
      </trkpt>
      <trkpt lat="48.697" lon="2.05671">
        <ele>156</ele>
        <time>2021-05-20T10:00:33.870Z</time>
      </trkpt>
      <trkpt lat="48.69701" lon="2.05671">
        <ele>156</ele>
        <time>2021-05-20T10:00:34.870Z</time>
      </trkpt>
      <trkpt lat="48.69702" lon="2.0567">
        <ele>156</ele>
        <time>2021-05-20T10:00:35.870Z</time>
      </trkpt>
      <trkpt lat="48.69702" lon="2.0567">
        <ele>156</ele>
        <time>2021-05-20T10:00:36.870Z</time>
      </trkpt>
      <trkpt lat="48.69703" lon="2.0567">
        <ele>156</ele>
        <time>2021-05-20T10:00:37.870Z</time>
      </trkpt>
      <trkpt lat="48.69704" lon="2.0567">
        <ele>156</ele>
        <time>2021-05-20T10:00:38.870Z</time>
      </trkpt>
      <trkpt lat="48.69705" lon="2.0567">
        <ele>156</ele>
        <time>2021-05-20T10:00:39.870Z</time>
      </trkpt>
      <trkpt lat="48.69706" lon="2.0567">
        <ele>156</ele>
        <time>2021-05-20T10:00:40.870Z</time>
      </trkpt>
      <trkpt lat="48.69706" lon="2.0567">
        <ele>156</ele>
        <time>2021-05-20T10:00:41.870Z</time>
      </trkpt>
      <trkpt lat="48.69707" lon="2.0567">
        <ele>157</ele>
        <time>2021-05-20T10:00:42.870Z</time>
      </trkpt>
      <trkpt lat="48.69708" lon="2.0567">
        <ele>157</ele>
        <time>2021-05-20T10:00:43.870Z</time>
      </trkpt>
      <trkpt lat="48.69709" lon="2.0567">
        <ele>157</ele>
        <time>2021-05-20T10:00:44.870Z</time>
      </trkpt>
      <trkpt lat="48.69709" lon="2.05669">
        <ele>157</ele>
        <time>2021-05-20T10:00:45.870Z</time>
      </trkpt>
      <trkpt lat="48.6971" lon="2.05669">
        <ele>157</ele>
        <time>2021-05-20T10:00:46.870Z</time>
      </trkpt>
      <trkpt lat="48.69711" lon="2.05669">
        <ele>157</ele>
        <time>2021-05-20T10:00:47.870Z</time>
      </trkpt>
      <trkpt lat="48.69711" lon="2.05669">
        <ele>157</ele>
        <time>2021-05-20T10:00:48.870Z</time>
      </trkpt>
      <trkpt lat="48.69711" lon="2.05668">
        <ele>157</ele>
        <time>2021-05-20T10:00:49.870Z</time>
      </trkpt>
      <trkpt lat="48.6972" lon="2.0566">
        <ele>159</ele>
        <time>2021-05-20T10:00:50.870Z</time>
      </trkpt>
      <trkpt lat="48.69721" lon="2.05659">
        <ele>159</ele>
        <time>2021-05-20T10:00:51.870Z</time>
      </trkpt>
      <trkpt lat="48.69721" lon="2.05659">
        <ele>159</ele>
        <time>2021-05-20T10:00:52.870Z</time>
      </trkpt>
      <trkpt lat="48.69722" lon="2.05659">
        <ele>159</ele>
        <time>2021-05-20T10:00:53.870Z</time>
      </trkpt>
      <trkpt lat="48.69722" lon="2.05659">
        <ele>159</ele>
        <time>2021-05-20T10:00:54.870Z</time>
      </trkpt>
      <trkpt lat="48.69724" lon="2.05658">
        <ele>159</ele>
        <time>2021-05-20T10:00:55.870Z</time>
      </trkpt>
      <trkpt lat="48.69725" lon="2.05658">
        <ele>160</ele>
        <time>2021-05-20T10:00:56.870Z</time>
      </trkpt>
      <trkpt lat="48.69726" lon="2.05657">
        <ele>160</ele>
        <time>2021-05-20T10:00:57.870Z</time>
      </trkpt>
      <trkpt lat="48.69727" lon="2.05657">
        <ele>160</ele>
        <time>2021-05-20T10:00:58.870Z</time>
      </trkpt>
      <trkpt lat="48.69728" lon="2.05657">
        <ele>160</ele>
        <time>2021-05-20T10:00:59.870Z</time>
      </trkpt>
      <trkpt lat="48.6973" lon="2.05656">
        <ele>160</ele>
        <time>2021-05-20T10:01:00.870Z</time>
      </trkpt>
      <trkpt lat="48.69731" lon="2.05656">
        <ele>160</ele>
        <time>2021-05-20T10:01:01.870Z</time>
      </trkpt>
      <trkpt lat="48.69732" lon="2.05655">
        <ele>160</ele>
        <time>2021-05-20T10:01:02.870Z</time>
      </trkpt>
      <trkpt lat="48.69733" lon="2.05655">
        <ele>160</ele>
        <time>2021-05-20T10:01:03.870Z</time>
      </trkpt>
      <trkpt lat="48.69734" lon="2.05654">
        <ele>160</ele>
        <time>2021-05-20T10:01:04.870Z</time>
      </trkpt>
      <trkpt lat="48.69735" lon="2.05654">
        <ele>160</ele>
        <time>2021-05-20T10:01:05.870Z</time>
      </trkpt>
      <trkpt lat="48.69736" lon="2.05653">
        <ele>160</ele>
        <time>2021-05-20T10:01:06.870Z</time>
      </trkpt>
      <trkpt lat="48.69737" lon="2.05652">
        <ele>160</ele>
        <time>2021-05-20T10:01:07.870Z</time>
      </trkpt>
      <trkpt lat="48.69737" lon="2.05652">
        <ele>160</ele>
        <time>2021-05-20T10:01:08.870Z</time>
      </trkpt>
      <trkpt lat="48.69738" lon="2.05652">
        <ele>160</ele>
        <time>2021-05-20T10:01:09.870Z</time>
      </trkpt>
      <trkpt lat="48.69739" lon="2.05651">
        <ele>160</ele>
        <time>2021-05-20T10:01:10.870Z</time>
      </trkpt>
      <trkpt lat="48.6974" lon="2.05651">
        <ele>160</ele>
        <time>2021-05-20T10:01:11.870Z</time>
      </trkpt>
      <trkpt lat="48.69741" lon="2.05651">
        <ele>160</ele>
        <time>2021-05-20T10:01:12.870Z</time>
      </trkpt>
      <trkpt lat="48.69742" lon="2.0565">
        <ele>160</ele>
        <time>2021-05-20T10:01:13.870Z</time>
      </trkpt>
      <trkpt lat="48.69743" lon="2.05649">
        <ele>160</ele>
        <time>2021-05-20T10:01:14.870Z</time>
      </trkpt>
      <trkpt lat="48.69744" lon="2.05649">
        <ele>160</ele>
        <time>2021-05-20T10:01:15.870Z</time>
      </trkpt>
      <trkpt lat="48.69745" lon="2.05648">
        <ele>160</ele>
        <time>2021-05-20T10:01:16.870Z</time>
      </trkpt>
      <trkpt lat="48.69745" lon="2.05648">
        <ele>160</ele>
        <time>2021-05-20T10:01:17.870Z</time>
      </trkpt>
      <trkpt lat="48.69746" lon="2.05648">
        <ele>160</ele>
        <time>2021-05-20T10:01:18.870Z</time>
      </trkpt>
      <trkpt lat="48.69747" lon="2.05649">
        <ele>160</ele>
        <time>2021-05-20T10:01:19.870Z</time>
      </trkpt>
      <trkpt lat="48.69748" lon="2.05649">
        <ele>160</ele>
        <time>2021-05-20T10:01:20.870Z</time>
      </trkpt>
      <trkpt lat="48.69749" lon="2.05649">
        <ele>161</ele>
        <time>2021-05-20T10:01:21.870Z</time>
      </trkpt>
      <trkpt lat="48.6975" lon="2.05649">
        <ele>161</ele>
        <time>2021-05-20T10:01:22.870Z</time>
      </trkpt>
      <trkpt lat="48.6975" lon="2.05648">
        <ele>161</ele>
        <time>2021-05-20T10:01:23.870Z</time>
      </trkpt>
      <trkpt lat="48.6975" lon="2.05648">
        <ele>161</ele>
        <time>2021-05-20T10:01:24.870Z</time>
      </trkpt>
      <trkpt lat="48.69754" lon="2.05646">
        <ele>162</ele>
        <time>2021-05-20T10:01:25.870Z</time>
      </trkpt>
      <trkpt lat="48.69754" lon="2.05645">
        <ele>162</ele>
        <time>2021-05-20T10:01:26.870Z</time>
      </trkpt>
      <trkpt lat="48.69755" lon="2.05644">
        <ele>162</ele>
        <time>2021-05-20T10:01:27.870Z</time>
      </trkpt>
      <trkpt lat="48.69755" lon="2.05644">
        <ele>162</ele>
        <time>2021-05-20T10:01:28.870Z</time>
      </trkpt>
      <trkpt lat="48.69756" lon="2.05643">
        <ele>162</ele>
        <time>2021-05-20T10:01:29.870Z</time>
      </trkpt>
      <trkpt lat="48.69756" lon="2.05642">
        <ele>162</ele>
        <time>2021-05-20T10:01:30.870Z</time>
      </trkpt>
      <trkpt lat="48.69757" lon="2.05641">
        <ele>162</ele>
        <time>2021-05-20T10:01:31.870Z</time>
      </trkpt>
      <trkpt lat="48.69758" lon="2.0564">
        <ele>162</ele>
        <time>2021-05-20T10:01:32.870Z</time>
      </trkpt>
      <trkpt lat="48.69758" lon="2.05639">
        <ele>162</ele>
        <time>2021-05-20T10:01:33.870Z</time>
      </trkpt>
      <trkpt lat="48.69759" lon="2.05638">
        <ele>162</ele>
        <time>2021-05-20T10:01:34.870Z</time>
      </trkpt>
      <trkpt lat="48.6976" lon="2.05637">
        <ele>162</ele>
        <time>2021-05-20T10:01:35.870Z</time>
      </trkpt>
      <trkpt lat="48.69761" lon="2.05636">
        <ele>162</ele>
        <time>2021-05-20T10:01:36.870Z</time>
      </trkpt>
      <trkpt lat="48.69761" lon="2.05635">
        <ele>162</ele>
        <time>2021-05-20T10:01:37.870Z</time>
      </trkpt>
      <trkpt lat="48.69762" lon="2.05634">
        <ele>162</ele>
        <time>2021-05-20T10:01:38.870Z</time>
      </trkpt>
      <trkpt lat="48.69762" lon="2.05633">
        <ele>162</ele>
        <time>2021-05-20T10:01:39.870Z</time>
      </trkpt>
      <trkpt lat="48.69763" lon="2.05632">
        <ele>162</ele>
        <time>2021-05-20T10:01:40.870Z</time>
      </trkpt>
      <trkpt lat="48.69764" lon="2.05631">
        <ele>162</ele>
        <time>2021-05-20T10:01:41.870Z</time>
      </trkpt>
      <trkpt lat="48.69764" lon="2.0563">
        <ele>162</ele>
        <time>2021-05-20T10:01:42.870Z</time>
      </trkpt>
      <trkpt lat="48.69765" lon="2.0563">
        <ele>162</ele>
        <time>2021-05-20T10:01:43.870Z</time>
      </trkpt>
      <trkpt lat="48.69765" lon="2.05629">
        <ele>162</ele>
        <time>2021-05-20T10:01:44.870Z</time>
      </trkpt>
      <trkpt lat="48.69766" lon="2.05628">
        <ele>162</ele>
        <time>2021-05-20T10:01:45.870Z</time>
      </trkpt>
      <trkpt lat="48.69766" lon="2.05627">
        <ele>162</ele>
        <time>2021-05-20T10:01:46.870Z</time>
      </trkpt>
      <trkpt lat="48.69767" lon="2.05626">
        <ele>162</ele>
        <time>2021-05-20T10:01:47.870Z</time>
      </trkpt>
      <trkpt lat="48.69768" lon="2.05625">
        <ele>162</ele>
        <time>2021-05-20T10:01:48.870Z</time>
      </trkpt>
      <trkpt lat="48.69768" lon="2.05624">
        <ele>161</ele>
        <time>2021-05-20T10:01:49.870Z</time>
      </trkpt>
      <trkpt lat="48.69769" lon="2.05623">
        <ele>161</ele>
        <time>2021-05-20T10:01:50.870Z</time>
      </trkpt>
      <trkpt lat="48.69769" lon="2.05621">
        <ele>161</ele>
        <time>2021-05-20T10:01:51.870Z</time>
      </trkpt>
      <trkpt lat="48.6977" lon="2.0562">
        <ele>161</ele>
        <time>2021-05-20T10:01:52.870Z</time>
      </trkpt>
      <trkpt lat="48.6977" lon="2.05619">
        <ele>161</ele>
        <time>2021-05-20T10:01:53.870Z</time>
      </trkpt>
      <trkpt lat="48.6977" lon="2.05617">
        <ele>161</ele>
        <time>2021-05-20T10:01:54.870Z</time>
      </trkpt>
      <trkpt lat="48.69771" lon="2.05616">
        <ele>161</ele>
        <time>2021-05-20T10:01:55.870Z</time>
      </trkpt>
      <trkpt lat="48.69771" lon="2.05614">
        <ele>161</ele>
        <time>2021-05-20T10:01:56.870Z</time>
      </trkpt>
      <trkpt lat="48.69771" lon="2.05613">
        <ele>160</ele>
        <time>2021-05-20T10:01:57.870Z</time>
      </trkpt>
      <trkpt lat="48.69771" lon="2.05611">
        <ele>160</ele>
        <time>2021-05-20T10:01:58.870Z</time>
      </trkpt>
      <trkpt lat="48.69772" lon="2.05609">
        <ele>160</ele>
        <time>2021-05-20T10:01:59.870Z</time>
      </trkpt>
      <trkpt lat="48.69772" lon="2.05608">
        <ele>160</ele>
        <time>2021-05-20T10:02:00.870Z</time>
      </trkpt>
      <trkpt lat="48.69772" lon="2.05606">
        <ele>159</ele>
        <time>2021-05-20T10:02:01.870Z</time>
      </trkpt>
      <trkpt lat="48.69773" lon="2.05605">
        <ele>159</ele>
        <time>2021-05-20T10:02:02.870Z</time>
      </trkpt>
      <trkpt lat="48.69773" lon="2.05603">
        <ele>159</ele>
        <time>2021-05-20T10:02:03.870Z</time>
      </trkpt>
      <trkpt lat="48.69773" lon="2.05602">
        <ele>158</ele>
        <time>2021-05-20T10:02:04.870Z</time>
      </trkpt>
      <trkpt lat="48.69774" lon="2.05601">
        <ele>158</ele>
        <time>2021-05-20T10:02:05.870Z</time>
      </trkpt>
      <trkpt lat="48.69774" lon="2.056">
        <ele>158</ele>
        <time>2021-05-20T10:02:06.870Z</time>
      </trkpt>
      <trkpt lat="48.69775" lon="2.05599">
        <ele>158</ele>
        <time>2021-05-20T10:02:07.870Z</time>
      </trkpt>
      <trkpt lat="48.69776" lon="2.05597">
        <ele>158</ele>
        <time>2021-05-20T10:02:08.870Z</time>
      </trkpt>
      <trkpt lat="48.69776" lon="2.05596">
        <ele>158</ele>
        <time>2021-05-20T10:02:09.870Z</time>
      </trkpt>
      <trkpt lat="48.69777" lon="2.05595">
        <ele>157</ele>
        <time>2021-05-20T10:02:10.870Z</time>
      </trkpt>
      <trkpt lat="48.69777" lon="2.05594">
        <ele>157</ele>
        <time>2021-05-20T10:02:11.870Z</time>
      </trkpt>
      <trkpt lat="48.69778" lon="2.05593">
        <ele>157</ele>
        <time>2021-05-20T10:02:12.870Z</time>
      </trkpt>
      <trkpt lat="48.69778" lon="2.05592">
        <ele>157</ele>
        <time>2021-05-20T10:02:13.870Z</time>
      </trkpt>
      <trkpt lat="48.6978" lon="2.05587">
        <ele>156</ele>
        <time>2021-05-20T10:02:14.870Z</time>
      </trkpt>
      <trkpt lat="48.69781" lon="2.05587">
        <ele>156</ele>
        <time>2021-05-20T10:02:15.870Z</time>
      </trkpt>
      <trkpt lat="48.69781" lon="2.05586">
        <ele>156</ele>
        <time>2021-05-20T10:02:16.870Z</time>
      </trkpt>
      <trkpt lat="48.69782" lon="2.05585">
        <ele>156</ele>
        <time>2021-05-20T10:02:17.870Z</time>
      </trkpt>
      <trkpt lat="48.69783" lon="2.05584">
        <ele>156</ele>
        <time>2021-05-20T10:02:18.870Z</time>
      </trkpt>
      <trkpt lat="48.69784" lon="2.05582">
        <ele>156</ele>
        <time>2021-05-20T10:02:19.870Z</time>
      </trkpt>
      <trkpt lat="48.69784" lon="2.05581">
        <ele>156</ele>
        <time>2021-05-20T10:02:20.870Z</time>
      </trkpt>
      <trkpt lat="48.69785" lon="2.05579">
        <ele>156</ele>
        <time>2021-05-20T10:02:21.870Z</time>
      </trkpt>
      <trkpt lat="48.69785" lon="2.05578">
        <ele>156</ele>
        <time>2021-05-20T10:02:22.870Z</time>
      </trkpt>
      <trkpt lat="48.69786" lon="2.05576">
        <ele>155</ele>
        <time>2021-05-20T10:02:23.870Z</time>
      </trkpt>
      <trkpt lat="48.69786" lon="2.05574">
        <ele>155</ele>
        <time>2021-05-20T10:02:24.870Z</time>
      </trkpt>
      <trkpt lat="48.69786" lon="2.05572">
        <ele>155</ele>
        <time>2021-05-20T10:02:25.870Z</time>
      </trkpt>
      <trkpt lat="48.69787" lon="2.0557">
        <ele>155</ele>
        <time>2021-05-20T10:02:26.870Z</time>
      </trkpt>
      <trkpt lat="48.69787" lon="2.05569">
        <ele>155</ele>
        <time>2021-05-20T10:02:27.870Z</time>
      </trkpt>
      <trkpt lat="48.69788" lon="2.05567">
        <ele>154</ele>
        <time>2021-05-20T10:02:28.870Z</time>
      </trkpt>
      <trkpt lat="48.69788" lon="2.05565">
        <ele>154</ele>
        <time>2021-05-20T10:02:29.870Z</time>
      </trkpt>
      <trkpt lat="48.69788" lon="2.05563">
        <ele>154</ele>
        <time>2021-05-20T10:02:30.870Z</time>
      </trkpt>
      <trkpt lat="48.69789" lon="2.05562">
        <ele>154</ele>
        <time>2021-05-20T10:02:31.870Z</time>
      </trkpt>
      <trkpt lat="48.69789" lon="2.05561">
        <ele>154</ele>
        <time>2021-05-20T10:02:32.870Z</time>
      </trkpt>
      <trkpt lat="48.69789" lon="2.0556">
        <ele>154</ele>
        <time>2021-05-20T10:02:33.870Z</time>
      </trkpt>
      <trkpt lat="48.69791" lon="2.05554">
        <ele>153</ele>
        <time>2021-05-20T10:02:34.870Z</time>
      </trkpt>
      <trkpt lat="48.69792" lon="2.05552">
        <ele>153</ele>
        <time>2021-05-20T10:02:35.870Z</time>
      </trkpt>
      <trkpt lat="48.69792" lon="2.05551">
        <ele>153</ele>
        <time>2021-05-20T10:02:36.870Z</time>
      </trkpt>
      <trkpt lat="48.69792" lon="2.05549">
        <ele>153</ele>
        <time>2021-05-20T10:02:37.870Z</time>
      </trkpt>
      <trkpt lat="48.69792" lon="2.05548">
        <ele>153</ele>
        <time>2021-05-20T10:02:38.870Z</time>
      </trkpt>
      <trkpt lat="48.69792" lon="2.05546">
        <ele>153</ele>
        <time>2021-05-20T10:02:39.870Z</time>
      </trkpt>
      <trkpt lat="48.69793" lon="2.05544">
        <ele>153</ele>
        <time>2021-05-20T10:02:40.870Z</time>
      </trkpt>
      <trkpt lat="48.69793" lon="2.05543">
        <ele>153</ele>
        <time>2021-05-20T10:02:41.870Z</time>
      </trkpt>
      <trkpt lat="48.69794" lon="2.05541">
        <ele>153</ele>
        <time>2021-05-20T10:02:42.870Z</time>
      </trkpt>
      <trkpt lat="48.69794" lon="2.0554">
        <ele>153</ele>
        <time>2021-05-20T10:02:43.870Z</time>
      </trkpt>
      <trkpt lat="48.69794" lon="2.05538">
        <ele>153</ele>
        <time>2021-05-20T10:02:44.870Z</time>
      </trkpt>
      <trkpt lat="48.69795" lon="2.05536">
        <ele>152</ele>
        <time>2021-05-20T10:02:45.870Z</time>
      </trkpt>
      <trkpt lat="48.69795" lon="2.05534">
        <ele>152</ele>
        <time>2021-05-20T10:02:46.870Z</time>
      </trkpt>
      <trkpt lat="48.69795" lon="2.05532">
        <ele>152</ele>
        <time>2021-05-20T10:02:47.870Z</time>
      </trkpt>
      <trkpt lat="48.69795" lon="2.05531">
        <ele>152</ele>
        <time>2021-05-20T10:02:48.870Z</time>
      </trkpt>
      <trkpt lat="48.69795" lon="2.05529">
        <ele>152</ele>
        <time>2021-05-20T10:02:49.870Z</time>
      </trkpt>
      <trkpt lat="48.69795" lon="2.05527">
        <ele>152</ele>
        <time>2021-05-20T10:02:50.870Z</time>
      </trkpt>
      <trkpt lat="48.69795" lon="2.05526">
        <ele>152</ele>
        <time>2021-05-20T10:02:51.870Z</time>
      </trkpt>
      <trkpt lat="48.69795" lon="2.05524">
        <ele>152</ele>
        <time>2021-05-20T10:02:52.870Z</time>
      </trkpt>
      <trkpt lat="48.69796" lon="2.05523">
        <ele>152</ele>
        <time>2021-05-20T10:02:53.870Z</time>
      </trkpt>
      <trkpt lat="48.69796" lon="2.05521">
        <ele>152</ele>
        <time>2021-05-20T10:02:54.870Z</time>
      </trkpt>
      <trkpt lat="48.69796" lon="2.0552">
        <ele>152</ele>
        <time>2021-05-20T10:02:55.870Z</time>
      </trkpt>
      <trkpt lat="48.69796" lon="2.05518">
        <ele>152</ele>
        <time>2021-05-20T10:02:56.870Z</time>
      </trkpt>
      <trkpt lat="48.69797" lon="2.05517">
        <ele>152</ele>
        <time>2021-05-20T10:02:57.870Z</time>
      </trkpt>
      <trkpt lat="48.69797" lon="2.05515">
        <ele>152</ele>
        <time>2021-05-20T10:02:58.870Z</time>
      </trkpt>
      <trkpt lat="48.69797" lon="2.05514">
        <ele>152</ele>
        <time>2021-05-20T10:02:59.870Z</time>
      </trkpt>
      <trkpt lat="48.69798" lon="2.05512">
        <ele>152</ele>
        <time>2021-05-20T10:03:00.870Z</time>
      </trkpt>
      <trkpt lat="48.69799" lon="2.05511">
        <ele>151</ele>
        <time>2021-05-20T10:03:01.870Z</time>
      </trkpt>
      <trkpt lat="48.69799" lon="2.05509">
        <ele>151</ele>
        <time>2021-05-20T10:03:02.870Z</time>
      </trkpt>
      <trkpt lat="48.698" lon="2.05508">
        <ele>151</ele>
        <time>2021-05-20T10:03:03.870Z</time>
      </trkpt>
      <trkpt lat="48.698" lon="2.05507">
        <ele>151</ele>
        <time>2021-05-20T10:03:04.870Z</time>
      </trkpt>
      <trkpt lat="48.69801" lon="2.05505">
        <ele>151</ele>
        <time>2021-05-20T10:03:05.870Z</time>
      </trkpt>
      <trkpt lat="48.69801" lon="2.05504">
        <ele>151</ele>
        <time>2021-05-20T10:03:06.870Z</time>
      </trkpt>
      <trkpt lat="48.69802" lon="2.05502">
        <ele>151</ele>
        <time>2021-05-20T10:03:07.870Z</time>
      </trkpt>
      <trkpt lat="48.69802" lon="2.055">
        <ele>151</ele>
        <time>2021-05-20T10:03:08.870Z</time>
      </trkpt>
      <trkpt lat="48.69802" lon="2.05498">
        <ele>151</ele>
        <time>2021-05-20T10:03:09.870Z</time>
      </trkpt>
      <trkpt lat="48.69803" lon="2.05496">
        <ele>150</ele>
        <time>2021-05-20T10:03:10.870Z</time>
      </trkpt>
      <trkpt lat="48.69803" lon="2.05494">
        <ele>150</ele>
        <time>2021-05-20T10:03:11.870Z</time>
      </trkpt>
      <trkpt lat="48.69803" lon="2.05492">
        <ele>150</ele>
        <time>2021-05-20T10:03:12.870Z</time>
      </trkpt>
      <trkpt lat="48.69803" lon="2.05489">
        <ele>150</ele>
        <time>2021-05-20T10:03:13.870Z</time>
      </trkpt>
      <trkpt lat="48.69803" lon="2.05487">
        <ele>150</ele>
        <time>2021-05-20T10:03:14.870Z</time>
      </trkpt>
      <trkpt lat="48.69804" lon="2.05485">
        <ele>149</ele>
        <time>2021-05-20T10:03:15.870Z</time>
      </trkpt>
      <trkpt lat="48.69805" lon="2.05484">
        <ele>149</ele>
        <time>2021-05-20T10:03:16.870Z</time>
      </trkpt>
      <trkpt lat="48.69805" lon="2.05482">
        <ele>149</ele>
        <time>2021-05-20T10:03:17.870Z</time>
      </trkpt>
      <trkpt lat="48.69806" lon="2.05481">
        <ele>149</ele>
        <time>2021-05-20T10:03:18.870Z</time>
      </trkpt>
      <trkpt lat="48.69807" lon="2.05479">
        <ele>149</ele>
        <time>2021-05-20T10:03:19.870Z</time>
      </trkpt>
      <trkpt lat="48.69807" lon="2.05478">
        <ele>149</ele>
        <time>2021-05-20T10:03:20.870Z</time>
      </trkpt>
      <trkpt lat="48.69808" lon="2.05476">
        <ele>148</ele>
        <time>2021-05-20T10:03:21.870Z</time>
      </trkpt>
      <trkpt lat="48.69808" lon="2.05475">
        <ele>148</ele>
        <time>2021-05-20T10:03:22.870Z</time>
      </trkpt>
      <trkpt lat="48.69808" lon="2.05474">
        <ele>148</ele>
        <time>2021-05-20T10:03:23.870Z</time>
      </trkpt>
      <trkpt lat="48.69808" lon="2.05473">
        <ele>148</ele>
        <time>2021-05-20T10:03:24.870Z</time>
      </trkpt>
      <trkpt lat="48.69812" lon="2.05454">
        <ele>149</ele>
        <time>2021-05-20T10:03:25.870Z</time>
      </trkpt>
      <trkpt lat="48.69812" lon="2.05453">
        <ele>149</ele>
        <time>2021-05-20T10:03:26.870Z</time>
      </trkpt>
      <trkpt lat="48.69813" lon="2.05449">
        <ele>148</ele>
        <time>2021-05-20T10:03:27.870Z</time>
      </trkpt>
      <trkpt lat="48.69814" lon="2.05448">
        <ele>148</ele>
        <time>2021-05-20T10:03:28.870Z</time>
      </trkpt>
      <trkpt lat="48.69814" lon="2.05447">
        <ele>148</ele>
        <time>2021-05-20T10:03:29.870Z</time>
      </trkpt>
      <trkpt lat="48.69814" lon="2.05446">
        <ele>148</ele>
        <time>2021-05-20T10:03:30.870Z</time>
      </trkpt>
      <trkpt lat="48.69815" lon="2.05446">
        <ele>148</ele>
        <time>2021-05-20T10:03:31.870Z</time>
      </trkpt>
      <trkpt lat="48.69815" lon="2.05445">
        <ele>148</ele>
        <time>2021-05-20T10:03:32.870Z</time>
      </trkpt>
      <trkpt lat="48.69817" lon="2.05442">
        <ele>147</ele>
        <time>2021-05-20T10:03:33.870Z</time>
      </trkpt>
      <trkpt lat="48.69817" lon="2.05441">
        <ele>147</ele>
        <time>2021-05-20T10:03:34.870Z</time>
      </trkpt>
      <trkpt lat="48.69818" lon="2.0544">
        <ele>146</ele>
        <time>2021-05-20T10:03:35.870Z</time>
      </trkpt>
      <trkpt lat="48.69818" lon="2.05439">
        <ele>146</ele>
        <time>2021-05-20T10:03:36.870Z</time>
      </trkpt>
      <trkpt lat="48.69818" lon="2.05438">
        <ele>146</ele>
        <time>2021-05-20T10:03:37.870Z</time>
      </trkpt>
      <trkpt lat="48.69819" lon="2.05437">
        <ele>146</ele>
        <time>2021-05-20T10:03:38.870Z</time>
      </trkpt>
      <trkpt lat="48.69819" lon="2.05436">
        <ele>146</ele>
        <time>2021-05-20T10:03:39.870Z</time>
      </trkpt>
      <trkpt lat="48.6982" lon="2.05435">
        <ele>146</ele>
        <time>2021-05-20T10:03:40.870Z</time>
      </trkpt>
      <trkpt lat="48.6982" lon="2.05433">
        <ele>146</ele>
        <time>2021-05-20T10:03:41.870Z</time>
      </trkpt>
      <trkpt lat="48.69821" lon="2.05432">
        <ele>146</ele>
        <time>2021-05-20T10:03:42.870Z</time>
      </trkpt>
      <trkpt lat="48.69821" lon="2.05432">
        <ele>146</ele>
        <time>2021-05-20T10:03:43.870Z</time>
      </trkpt>
      <trkpt lat="48.69822" lon="2.05431">
        <ele>145</ele>
        <time>2021-05-20T10:03:44.870Z</time>
      </trkpt>
      <trkpt lat="48.69822" lon="2.0543">
        <ele>145</ele>
        <time>2021-05-20T10:03:45.870Z</time>
      </trkpt>
      <trkpt lat="48.69823" lon="2.05429">
        <ele>145</ele>
        <time>2021-05-20T10:03:46.870Z</time>
      </trkpt>
      <trkpt lat="48.69823" lon="2.05428">
        <ele>145</ele>
        <time>2021-05-20T10:03:47.870Z</time>
      </trkpt>
      <trkpt lat="48.69824" lon="2.05427">
        <ele>144</ele>
        <time>2021-05-20T10:03:48.870Z</time>
      </trkpt>
      <trkpt lat="48.69824" lon="2.05426">
        <ele>144</ele>
        <time>2021-05-20T10:03:49.870Z</time>
      </trkpt>
      <trkpt lat="48.69825" lon="2.05425">
        <ele>144</ele>
        <time>2021-05-20T10:03:50.870Z</time>
      </trkpt>
      <trkpt lat="48.69825" lon="2.05424">
        <ele>143</ele>
        <time>2021-05-20T10:03:51.870Z</time>
      </trkpt>
      <trkpt lat="48.69825" lon="2.05423">
        <ele>143</ele>
        <time>2021-05-20T10:03:52.870Z</time>
      </trkpt>
      <trkpt lat="48.69826" lon="2.05422">
        <ele>143</ele>
        <time>2021-05-20T10:03:53.870Z</time>
      </trkpt>
      <trkpt lat="48.69826" lon="2.05421">
        <ele>143</ele>
        <time>2021-05-20T10:03:54.870Z</time>
      </trkpt>
      <trkpt lat="48.69827" lon="2.0542">
        <ele>142</ele>
        <time>2021-05-20T10:03:55.870Z</time>
      </trkpt>
      <trkpt lat="48.69828" lon="2.05419">
        <ele>142</ele>
        <time>2021-05-20T10:03:56.870Z</time>
      </trkpt>
      <trkpt lat="48.69828" lon="2.05418">
        <ele>142</ele>
        <time>2021-05-20T10:03:57.870Z</time>
      </trkpt>
      <trkpt lat="48.69829" lon="2.05417">
        <ele>141</ele>
        <time>2021-05-20T10:03:58.870Z</time>
      </trkpt>
      <trkpt lat="48.6983" lon="2.05418">
        <ele>141</ele>
        <time>2021-05-20T10:03:59.870Z</time>
      </trkpt>
      <trkpt lat="48.69831" lon="2.05419">
        <ele>141</ele>
        <time>2021-05-20T10:04:00.870Z</time>
      </trkpt>
      <trkpt lat="48.69832" lon="2.0542">
        <ele>141</ele>
        <time>2021-05-20T10:04:01.870Z</time>
      </trkpt>
      <trkpt lat="48.69832" lon="2.05421">
        <ele>141</ele>
        <time>2021-05-20T10:04:02.870Z</time>
      </trkpt>
      <trkpt lat="48.69833" lon="2.05422">
        <ele>140</ele>
        <time>2021-05-20T10:04:03.870Z</time>
      </trkpt>
      <trkpt lat="48.69833" lon="2.05423">
        <ele>140</ele>
        <time>2021-05-20T10:04:04.870Z</time>
      </trkpt>
      <trkpt lat="48.69834" lon="2.05425">
        <ele>140</ele>
        <time>2021-05-20T10:04:05.870Z</time>
      </trkpt>
      <trkpt lat="48.69834" lon="2.05426">
        <ele>140</ele>
        <time>2021-05-20T10:04:06.870Z</time>
      </trkpt>
      <trkpt lat="48.69834" lon="2.05427">
        <ele>140</ele>
        <time>2021-05-20T10:04:07.870Z</time>
      </trkpt>
      <trkpt lat="48.69834" lon="2.05428">
        <ele>139</ele>
        <time>2021-05-20T10:04:08.870Z</time>
      </trkpt>
      <trkpt lat="48.69834" lon="2.0543">
        <ele>139</ele>
        <time>2021-05-20T10:04:09.870Z</time>
      </trkpt>
      <trkpt lat="48.69835" lon="2.05431">
        <ele>139</ele>
        <time>2021-05-20T10:04:10.870Z</time>
      </trkpt>
      <trkpt lat="48.69835" lon="2.05432">
        <ele>138</ele>
        <time>2021-05-20T10:04:11.870Z</time>
      </trkpt>
      <trkpt lat="48.69835" lon="2.05434">
        <ele>138</ele>
        <time>2021-05-20T10:04:12.870Z</time>
      </trkpt>
      <trkpt lat="48.69836" lon="2.05435">
        <ele>137</ele>
        <time>2021-05-20T10:04:13.870Z</time>
      </trkpt>
      <trkpt lat="48.69836" lon="2.05437">
        <ele>137</ele>
        <time>2021-05-20T10:04:14.870Z</time>
      </trkpt>
      <trkpt lat="48.69836" lon="2.05438">
        <ele>137</ele>
        <time>2021-05-20T10:04:15.870Z</time>
      </trkpt>
      <trkpt lat="48.69836" lon="2.0544">
        <ele>136</ele>
        <time>2021-05-20T10:04:16.870Z</time>
      </trkpt>
      <trkpt lat="48.69837" lon="2.05441">
        <ele>136</ele>
        <time>2021-05-20T10:04:17.870Z</time>
      </trkpt>
      <trkpt lat="48.69837" lon="2.05442">
        <ele>135</ele>
        <time>2021-05-20T10:04:18.870Z</time>
      </trkpt>
      <trkpt lat="48.69837" lon="2.05444">
        <ele>135</ele>
        <time>2021-05-20T10:04:19.870Z</time>
      </trkpt>
      <trkpt lat="48.69837" lon="2.05445">
        <ele>135</ele>
        <time>2021-05-20T10:04:20.870Z</time>
      </trkpt>
      <trkpt lat="48.69838" lon="2.05446">
        <ele>134</ele>
        <time>2021-05-20T10:04:21.870Z</time>
      </trkpt>
      <trkpt lat="48.69838" lon="2.05447">
        <ele>134</ele>
        <time>2021-05-20T10:04:22.870Z</time>
      </trkpt>
      <trkpt lat="48.69838" lon="2.05449">
        <ele>134</ele>
        <time>2021-05-20T10:04:23.870Z</time>
      </trkpt>
      <trkpt lat="48.69838" lon="2.0545">
        <ele>134</ele>
        <time>2021-05-20T10:04:24.870Z</time>
      </trkpt>
      <trkpt lat="48.69838" lon="2.05451">
        <ele>134</ele>
        <time>2021-05-20T10:04:25.870Z</time>
      </trkpt>
      <trkpt lat="48.69838" lon="2.05452">
        <ele>133</ele>
        <time>2021-05-20T10:04:26.870Z</time>
      </trkpt>
      <trkpt lat="48.69839" lon="2.05454">
        <ele>133</ele>
        <time>2021-05-20T10:04:27.870Z</time>
      </trkpt>
      <trkpt lat="48.69839" lon="2.05456">
        <ele>133</ele>
        <time>2021-05-20T10:04:28.870Z</time>
      </trkpt>
      <trkpt lat="48.69839" lon="2.05457">
        <ele>133</ele>
        <time>2021-05-20T10:04:29.870Z</time>
      </trkpt>
      <trkpt lat="48.69839" lon="2.05459">
        <ele>132</ele>
        <time>2021-05-20T10:04:30.870Z</time>
      </trkpt>
      <trkpt lat="48.6984" lon="2.05461">
        <ele>132</ele>
        <time>2021-05-20T10:04:31.870Z</time>
      </trkpt>
      <trkpt lat="48.6984" lon="2.05462">
        <ele>132</ele>
        <time>2021-05-20T10:04:32.870Z</time>
      </trkpt>
      <trkpt lat="48.6984" lon="2.05464">
        <ele>132</ele>
        <time>2021-05-20T10:04:33.870Z</time>
      </trkpt>
      <trkpt lat="48.6984" lon="2.05466">
        <ele>131</ele>
        <time>2021-05-20T10:04:34.870Z</time>
      </trkpt>
      <trkpt lat="48.6984" lon="2.05468">
        <ele>131</ele>
        <time>2021-05-20T10:04:35.870Z</time>
      </trkpt>
      <trkpt lat="48.6984" lon="2.05469">
        <ele>131</ele>
        <time>2021-05-20T10:04:36.870Z</time>
      </trkpt>
      <trkpt lat="48.6984" lon="2.05471">
        <ele>131</ele>
        <time>2021-05-20T10:04:37.870Z</time>
      </trkpt>
      <trkpt lat="48.69839" lon="2.05472">
        <ele>130</ele>
        <time>2021-05-20T10:04:38.870Z</time>
      </trkpt>
      <trkpt lat="48.6984" lon="2.05473">
        <ele>130</ele>
        <time>2021-05-20T10:04:39.870Z</time>
      </trkpt>
      <trkpt lat="48.6984" lon="2.05474">
        <ele>130</ele>
        <time>2021-05-20T10:04:40.870Z</time>
      </trkpt>
      <trkpt lat="48.6984" lon="2.05476">
        <ele>130</ele>
        <time>2021-05-20T10:04:41.870Z</time>
      </trkpt>
      <trkpt lat="48.6984" lon="2.05477">
        <ele>130</ele>
        <time>2021-05-20T10:04:42.870Z</time>
      </trkpt>
      <trkpt lat="48.6984" lon="2.05479">
        <ele>130</ele>
        <time>2021-05-20T10:04:43.870Z</time>
      </trkpt>
      <trkpt lat="48.6984" lon="2.0548">
        <ele>130</ele>
        <time>2021-05-20T10:04:44.870Z</time>
      </trkpt>
      <trkpt lat="48.6984" lon="2.05481">
        <ele>130</ele>
        <time>2021-05-20T10:04:45.870Z</time>
      </trkpt>
      <trkpt lat="48.6984" lon="2.05483">
        <ele>130</ele>
        <time>2021-05-20T10:04:46.870Z</time>
      </trkpt>
      <trkpt lat="48.6984" lon="2.05484">
        <ele>130</ele>
        <time>2021-05-20T10:04:47.870Z</time>
      </trkpt>
      <trkpt lat="48.6984" lon="2.05485">
        <ele>130</ele>
        <time>2021-05-20T10:04:48.870Z</time>
      </trkpt>
      <trkpt lat="48.6984" lon="2.05486">
        <ele>130</ele>
        <time>2021-05-20T10:04:49.870Z</time>
      </trkpt>
      <trkpt lat="48.6984" lon="2.05487">
        <ele>130</ele>
        <time>2021-05-20T10:04:50.870Z</time>
      </trkpt>
      <trkpt lat="48.69841" lon="2.05488">
        <ele>130</ele>
        <time>2021-05-20T10:04:51.870Z</time>
      </trkpt>
      <trkpt lat="48.69841" lon="2.05489">
        <ele>130</ele>
        <time>2021-05-20T10:04:52.870Z</time>
      </trkpt>
      <trkpt lat="48.69841" lon="2.0549">
        <ele>130</ele>
        <time>2021-05-20T10:04:53.870Z</time>
      </trkpt>
      <trkpt lat="48.69841" lon="2.05492">
        <ele>130</ele>
        <time>2021-05-20T10:04:54.870Z</time>
      </trkpt>
      <trkpt lat="48.69841" lon="2.05493">
        <ele>130</ele>
        <time>2021-05-20T10:04:55.870Z</time>
      </trkpt>
      <trkpt lat="48.69842" lon="2.05495">
        <ele>130</ele>
        <time>2021-05-20T10:04:56.870Z</time>
      </trkpt>
      <trkpt lat="48.69842" lon="2.05496">
        <ele>130</ele>
        <time>2021-05-20T10:04:57.870Z</time>
      </trkpt>
      <trkpt lat="48.69842" lon="2.05498">
        <ele>130</ele>
        <time>2021-05-20T10:04:58.870Z</time>
      </trkpt>
      <trkpt lat="48.69842" lon="2.05499">
        <ele>130</ele>
        <time>2021-05-20T10:04:59.870Z</time>
      </trkpt>
      <trkpt lat="48.69843" lon="2.05501">
        <ele>131</ele>
        <time>2021-05-20T10:05:00.870Z</time>
      </trkpt>
      <trkpt lat="48.69843" lon="2.05503">
        <ele>131</ele>
        <time>2021-05-20T10:05:01.870Z</time>
      </trkpt>
      <trkpt lat="48.69843" lon="2.05504">
        <ele>131</ele>
        <time>2021-05-20T10:05:02.870Z</time>
      </trkpt>
      <trkpt lat="48.69844" lon="2.05506">
        <ele>131</ele>
        <time>2021-05-20T10:05:03.870Z</time>
      </trkpt>
      <trkpt lat="48.69844" lon="2.05507">
        <ele>131</ele>
        <time>2021-05-20T10:05:04.870Z</time>
      </trkpt>
      <trkpt lat="48.69844" lon="2.05509">
        <ele>132</ele>
        <time>2021-05-20T10:05:05.870Z</time>
      </trkpt>
      <trkpt lat="48.69845" lon="2.05511">
        <ele>132</ele>
        <time>2021-05-20T10:05:06.870Z</time>
      </trkpt>
      <trkpt lat="48.69845" lon="2.05513">
        <ele>132</ele>
        <time>2021-05-20T10:05:07.870Z</time>
      </trkpt>
      <trkpt lat="48.69846" lon="2.05514">
        <ele>132</ele>
        <time>2021-05-20T10:05:08.870Z</time>
      </trkpt>
      <trkpt lat="48.69846" lon="2.05516">
        <ele>132</ele>
        <time>2021-05-20T10:05:09.870Z</time>
      </trkpt>
      <trkpt lat="48.69846" lon="2.05518">
        <ele>133</ele>
        <time>2021-05-20T10:05:10.870Z</time>
      </trkpt>
      <trkpt lat="48.69846" lon="2.0552">
        <ele>133</ele>
        <time>2021-05-20T10:05:11.870Z</time>
      </trkpt>
      <trkpt lat="48.69847" lon="2.05521">
        <ele>133</ele>
        <time>2021-05-20T10:05:12.870Z</time>
      </trkpt>
      <trkpt lat="48.69847" lon="2.05522">
        <ele>133</ele>
        <time>2021-05-20T10:05:13.870Z</time>
      </trkpt>
      <trkpt lat="48.69848" lon="2.05524">
        <ele>133</ele>
        <time>2021-05-20T10:05:14.870Z</time>
      </trkpt>
      <trkpt lat="48.69848" lon="2.05525">
        <ele>133</ele>
        <time>2021-05-20T10:05:15.870Z</time>
      </trkpt>
      <trkpt lat="48.69849" lon="2.05526">
        <ele>134</ele>
        <time>2021-05-20T10:05:16.870Z</time>
      </trkpt>
      <trkpt lat="48.69849" lon="2.05527">
        <ele>134</ele>
        <time>2021-05-20T10:05:17.870Z</time>
      </trkpt>
      <trkpt lat="48.6985" lon="2.05528">
        <ele>134</ele>
        <time>2021-05-20T10:05:18.870Z</time>
      </trkpt>
      <trkpt lat="48.69851" lon="2.05529">
        <ele>134</ele>
        <time>2021-05-20T10:05:19.870Z</time>
      </trkpt>
      <trkpt lat="48.69851" lon="2.05531">
        <ele>134</ele>
        <time>2021-05-20T10:05:20.870Z</time>
      </trkpt>
      <trkpt lat="48.69852" lon="2.05532">
        <ele>134</ele>
        <time>2021-05-20T10:05:21.870Z</time>
      </trkpt>
      <trkpt lat="48.69852" lon="2.05533">
        <ele>135</ele>
        <time>2021-05-20T10:05:22.870Z</time>
      </trkpt>
      <trkpt lat="48.69853" lon="2.05534">
        <ele>135</ele>
        <time>2021-05-20T10:05:23.870Z</time>
      </trkpt>
      <trkpt lat="48.69853" lon="2.05536">
        <ele>135</ele>
        <time>2021-05-20T10:05:24.870Z</time>
      </trkpt>
      <trkpt lat="48.69854" lon="2.05536">
        <ele>135</ele>
        <time>2021-05-20T10:05:25.870Z</time>
      </trkpt>
      <trkpt lat="48.69854" lon="2.05538">
        <ele>136</ele>
        <time>2021-05-20T10:05:26.870Z</time>
      </trkpt>
      <trkpt lat="48.69855" lon="2.05539">
        <ele>136</ele>
        <time>2021-05-20T10:05:27.870Z</time>
      </trkpt>
      <trkpt lat="48.69855" lon="2.0554">
        <ele>136</ele>
        <time>2021-05-20T10:05:28.870Z</time>
      </trkpt>
      <trkpt lat="48.69855" lon="2.05541">
        <ele>136</ele>
        <time>2021-05-20T10:05:29.870Z</time>
      </trkpt>
      <trkpt lat="48.69856" lon="2.05542">
        <ele>136</ele>
        <time>2021-05-20T10:05:30.870Z</time>
      </trkpt>
      <trkpt lat="48.69856" lon="2.05543">
        <ele>136</ele>
        <time>2021-05-20T10:05:31.870Z</time>
      </trkpt>
      <trkpt lat="48.69856" lon="2.05544">
        <ele>136</ele>
        <time>2021-05-20T10:05:32.870Z</time>
      </trkpt>
      <trkpt lat="48.69856" lon="2.05545">
        <ele>137</ele>
        <time>2021-05-20T10:05:33.870Z</time>
      </trkpt>
      <trkpt lat="48.69856" lon="2.05546">
        <ele>137</ele>
        <time>2021-05-20T10:05:34.870Z</time>
      </trkpt>
      <trkpt lat="48.69856" lon="2.05548">
        <ele>137</ele>
        <time>2021-05-20T10:05:35.870Z</time>
      </trkpt>
      <trkpt lat="48.69856" lon="2.05549">
        <ele>137</ele>
        <time>2021-05-20T10:05:36.870Z</time>
      </trkpt>
      <trkpt lat="48.69857" lon="2.0555">
        <ele>137</ele>
        <time>2021-05-20T10:05:37.870Z</time>
      </trkpt>
      <trkpt lat="48.69857" lon="2.05551">
        <ele>137</ele>
        <time>2021-05-20T10:05:38.870Z</time>
      </trkpt>
      <trkpt lat="48.69858" lon="2.05552">
        <ele>137</ele>
        <time>2021-05-20T10:05:39.870Z</time>
      </trkpt>
      <trkpt lat="48.69858" lon="2.05553">
        <ele>137</ele>
        <time>2021-05-20T10:05:40.870Z</time>
      </trkpt>
      <trkpt lat="48.69859" lon="2.05555">
        <ele>137</ele>
        <time>2021-05-20T10:05:41.870Z</time>
      </trkpt>
      <trkpt lat="48.6986" lon="2.05556">
        <ele>137</ele>
        <time>2021-05-20T10:05:42.870Z</time>
      </trkpt>
      <trkpt lat="48.69861" lon="2.05557">
        <ele>137</ele>
        <time>2021-05-20T10:05:43.870Z</time>
      </trkpt>
      <trkpt lat="48.69861" lon="2.05558">
        <ele>137</ele>
        <time>2021-05-20T10:05:44.870Z</time>
      </trkpt>
      <trkpt lat="48.69862" lon="2.05559">
        <ele>137</ele>
        <time>2021-05-20T10:05:45.870Z</time>
      </trkpt>
      <trkpt lat="48.69863" lon="2.05559">
        <ele>136</ele>
        <time>2021-05-20T10:05:46.870Z</time>
      </trkpt>
      <trkpt lat="48.69864" lon="2.0556">
        <ele>136</ele>
        <time>2021-05-20T10:05:47.870Z</time>
      </trkpt>
      <trkpt lat="48.69864" lon="2.05561">
        <ele>137</ele>
        <time>2021-05-20T10:05:48.870Z</time>
      </trkpt>
      <trkpt lat="48.69865" lon="2.05562">
        <ele>137</ele>
        <time>2021-05-20T10:05:49.870Z</time>
      </trkpt>
      <trkpt lat="48.69865" lon="2.05563">
        <ele>137</ele>
        <time>2021-05-20T10:05:50.870Z</time>
      </trkpt>
      <trkpt lat="48.69866" lon="2.05564">
        <ele>137</ele>
        <time>2021-05-20T10:05:51.870Z</time>
      </trkpt>
      <trkpt lat="48.69867" lon="2.05565">
        <ele>137</ele>
        <time>2021-05-20T10:05:52.870Z</time>
      </trkpt>
      <trkpt lat="48.69868" lon="2.05566">
        <ele>137</ele>
        <time>2021-05-20T10:05:53.870Z</time>
      </trkpt>
      <trkpt lat="48.69869" lon="2.05567">
        <ele>137</ele>
        <time>2021-05-20T10:05:54.870Z</time>
      </trkpt>
      <trkpt lat="48.69869" lon="2.05567">
        <ele>137</ele>
        <time>2021-05-20T10:05:55.870Z</time>
      </trkpt>
      <trkpt lat="48.6987" lon="2.05568">
        <ele>137</ele>
        <time>2021-05-20T10:05:56.870Z</time>
      </trkpt>
      <trkpt lat="48.69871" lon="2.05569">
        <ele>137</ele>
        <time>2021-05-20T10:05:57.870Z</time>
      </trkpt>
      <trkpt lat="48.69873" lon="2.0557">
        <ele>137</ele>
        <time>2021-05-20T10:05:58.870Z</time>
      </trkpt>
      <trkpt lat="48.69874" lon="2.0557">
        <ele>137</ele>
        <time>2021-05-20T10:05:59.870Z</time>
      </trkpt>
      <trkpt lat="48.69875" lon="2.0557">
        <ele>137</ele>
        <time>2021-05-20T10:06:00.870Z</time>
      </trkpt>
      <trkpt lat="48.69876" lon="2.05571">
        <ele>136</ele>
        <time>2021-05-20T10:06:01.870Z</time>
      </trkpt>
      <trkpt lat="48.69877" lon="2.05571">
        <ele>136</ele>
        <time>2021-05-20T10:06:02.870Z</time>
      </trkpt>
      <trkpt lat="48.69878" lon="2.05572">
        <ele>136</ele>
        <time>2021-05-20T10:06:03.870Z</time>
      </trkpt>
      <trkpt lat="48.69879" lon="2.05572">
        <ele>135</ele>
        <time>2021-05-20T10:06:04.870Z</time>
      </trkpt>
      <trkpt lat="48.6988" lon="2.05572">
        <ele>135</ele>
        <time>2021-05-20T10:06:05.870Z</time>
      </trkpt>
      <trkpt lat="48.69881" lon="2.05572">
        <ele>134</ele>
        <time>2021-05-20T10:06:06.870Z</time>
      </trkpt>
      <trkpt lat="48.69882" lon="2.05572">
        <ele>134</ele>
        <time>2021-05-20T10:06:07.870Z</time>
      </trkpt>
      <trkpt lat="48.69883" lon="2.05572">
        <ele>134</ele>
        <time>2021-05-20T10:06:08.870Z</time>
      </trkpt>
      <trkpt lat="48.69884" lon="2.05572">
        <ele>134</ele>
        <time>2021-05-20T10:06:09.870Z</time>
      </trkpt>
      <trkpt lat="48.69885" lon="2.05572">
        <ele>133</ele>
        <time>2021-05-20T10:06:10.870Z</time>
      </trkpt>
      <trkpt lat="48.69886" lon="2.05572">
        <ele>133</ele>
        <time>2021-05-20T10:06:11.870Z</time>
      </trkpt>
      <trkpt lat="48.69887" lon="2.05573">
        <ele>133</ele>
        <time>2021-05-20T10:06:12.870Z</time>
      </trkpt>
      <trkpt lat="48.69889" lon="2.05573">
        <ele>132</ele>
        <time>2021-05-20T10:06:13.870Z</time>
      </trkpt>
      <trkpt lat="48.6989" lon="2.05573">
        <ele>132</ele>
        <time>2021-05-20T10:06:14.870Z</time>
      </trkpt>
      <trkpt lat="48.69891" lon="2.05573">
        <ele>132</ele>
        <time>2021-05-20T10:06:15.870Z</time>
      </trkpt>
      <trkpt lat="48.69893" lon="2.05573">
        <ele>131</ele>
        <time>2021-05-20T10:06:16.870Z</time>
      </trkpt>
      <trkpt lat="48.69894" lon="2.05573">
        <ele>131</ele>
        <time>2021-05-20T10:06:17.870Z</time>
      </trkpt>
      <trkpt lat="48.69896" lon="2.05574">
        <ele>131</ele>
        <time>2021-05-20T10:06:18.870Z</time>
      </trkpt>
      <trkpt lat="48.69898" lon="2.05574">
        <ele>130</ele>
        <time>2021-05-20T10:06:19.870Z</time>
      </trkpt>
      <trkpt lat="48.699" lon="2.05575">
        <ele>130</ele>
        <time>2021-05-20T10:06:20.870Z</time>
      </trkpt>
      <trkpt lat="48.69901" lon="2.05575">
        <ele>129</ele>
        <time>2021-05-20T10:06:21.870Z</time>
      </trkpt>
      <trkpt lat="48.69903" lon="2.05575">
        <ele>129</ele>
        <time>2021-05-20T10:06:22.870Z</time>
      </trkpt>
      <trkpt lat="48.69904" lon="2.05575">
        <ele>129</ele>
        <time>2021-05-20T10:06:23.870Z</time>
      </trkpt>
      <trkpt lat="48.69905" lon="2.05575">
        <ele>128</ele>
        <time>2021-05-20T10:06:24.870Z</time>
      </trkpt>
      <trkpt lat="48.69907" lon="2.05575">
        <ele>128</ele>
        <time>2021-05-20T10:06:25.870Z</time>
      </trkpt>
      <trkpt lat="48.69908" lon="2.05575">
        <ele>128</ele>
        <time>2021-05-20T10:06:26.870Z</time>
      </trkpt>
      <trkpt lat="48.69909" lon="2.05575">
        <ele>128</ele>
        <time>2021-05-20T10:06:27.870Z</time>
      </trkpt>
      <trkpt lat="48.6991" lon="2.05575">
        <ele>127</ele>
        <time>2021-05-20T10:06:28.870Z</time>
      </trkpt>
      <trkpt lat="48.69911" lon="2.05575">
        <ele>127</ele>
        <time>2021-05-20T10:06:29.870Z</time>
      </trkpt>
      <trkpt lat="48.69913" lon="2.05575">
        <ele>127</ele>
        <time>2021-05-20T10:06:30.870Z</time>
      </trkpt>
      <trkpt lat="48.69914" lon="2.05575">
        <ele>126</ele>
        <time>2021-05-20T10:06:31.870Z</time>
      </trkpt>
      <trkpt lat="48.69915" lon="2.05575">
        <ele>126</ele>
        <time>2021-05-20T10:06:32.870Z</time>
      </trkpt>
      <trkpt lat="48.69916" lon="2.05575">
        <ele>126</ele>
        <time>2021-05-20T10:06:33.870Z</time>
      </trkpt>
      <trkpt lat="48.69918" lon="2.05576">
        <ele>125</ele>
        <time>2021-05-20T10:06:34.870Z</time>
      </trkpt>
      <trkpt lat="48.69919" lon="2.05576">
        <ele>125</ele>
        <time>2021-05-20T10:06:35.870Z</time>
      </trkpt>
      <trkpt lat="48.69921" lon="2.05576">
        <ele>124</ele>
        <time>2021-05-20T10:06:36.870Z</time>
      </trkpt>
      <trkpt lat="48.69922" lon="2.05576">
        <ele>124</ele>
        <time>2021-05-20T10:06:37.870Z</time>
      </trkpt>
      <trkpt lat="48.69923" lon="2.05577">
        <ele>124</ele>
        <time>2021-05-20T10:06:38.870Z</time>
      </trkpt>
      <trkpt lat="48.69925" lon="2.05577">
        <ele>123</ele>
        <time>2021-05-20T10:06:39.870Z</time>
      </trkpt>
      <trkpt lat="48.69926" lon="2.05577">
        <ele>123</ele>
        <time>2021-05-20T10:06:40.870Z</time>
      </trkpt>
      <trkpt lat="48.69927" lon="2.05578">
        <ele>122</ele>
        <time>2021-05-20T10:06:41.870Z</time>
      </trkpt>
      <trkpt lat="48.69929" lon="2.05578">
        <ele>122</ele>
        <time>2021-05-20T10:06:42.870Z</time>
      </trkpt>
      <trkpt lat="48.6993" lon="2.05578">
        <ele>122</ele>
        <time>2021-05-20T10:06:43.870Z</time>
      </trkpt>
      <trkpt lat="48.69932" lon="2.05579">
        <ele>121</ele>
        <time>2021-05-20T10:06:44.870Z</time>
      </trkpt>
      <trkpt lat="48.69933" lon="2.05579">
        <ele>121</ele>
        <time>2021-05-20T10:06:45.870Z</time>
      </trkpt>
      <trkpt lat="48.69934" lon="2.05579">
        <ele>121</ele>
        <time>2021-05-20T10:06:46.870Z</time>
      </trkpt>
      <trkpt lat="48.69935" lon="2.0558">
        <ele>120</ele>
        <time>2021-05-20T10:06:47.870Z</time>
      </trkpt>
      <trkpt lat="48.69937" lon="2.0558">
        <ele>120</ele>
        <time>2021-05-20T10:06:48.870Z</time>
      </trkpt>
      <trkpt lat="48.69938" lon="2.0558">
        <ele>120</ele>
        <time>2021-05-20T10:06:49.870Z</time>
      </trkpt>
      <trkpt lat="48.6994" lon="2.05581">
        <ele>120</ele>
        <time>2021-05-20T10:06:50.870Z</time>
      </trkpt>
      <trkpt lat="48.69941" lon="2.05581">
        <ele>119</ele>
        <time>2021-05-20T10:06:51.870Z</time>
      </trkpt>
      <trkpt lat="48.69943" lon="2.05581">
        <ele>119</ele>
        <time>2021-05-20T10:06:52.870Z</time>
      </trkpt>
      <trkpt lat="48.69944" lon="2.05581">
        <ele>119</ele>
        <time>2021-05-20T10:06:53.870Z</time>
      </trkpt>
      <trkpt lat="48.69945" lon="2.05582">
        <ele>119</ele>
        <time>2021-05-20T10:06:54.870Z</time>
      </trkpt>
      <trkpt lat="48.69946" lon="2.05582">
        <ele>119</ele>
        <time>2021-05-20T10:06:55.870Z</time>
      </trkpt>
      <trkpt lat="48.69947" lon="2.05582">
        <ele>118</ele>
        <time>2021-05-20T10:06:56.870Z</time>
      </trkpt>
      <trkpt lat="48.69948" lon="2.05582">
        <ele>118</ele>
        <time>2021-05-20T10:06:57.870Z</time>
      </trkpt>
      <trkpt lat="48.69948" lon="2.05582">
        <ele>118</ele>
        <time>2021-05-20T10:06:58.870Z</time>
      </trkpt>
      <trkpt lat="48.69948" lon="2.05582">
        <ele>118</ele>
        <time>2021-05-20T10:06:59.870Z</time>
      </trkpt>
      <trkpt lat="48.69949" lon="2.05582">
        <ele>118</ele>
        <time>2021-05-20T10:07:00.870Z</time>
      </trkpt>
      <trkpt lat="48.6995" lon="2.05582">
        <ele>118</ele>
        <time>2021-05-20T10:07:01.870Z</time>
      </trkpt>
      <trkpt lat="48.69951" lon="2.05582">
        <ele>117</ele>
        <time>2021-05-20T10:07:02.870Z</time>
      </trkpt>
      <trkpt lat="48.69952" lon="2.05582">
        <ele>117</ele>
        <time>2021-05-20T10:07:03.870Z</time>
      </trkpt>
      <trkpt lat="48.69952" lon="2.05583">
        <ele>117</ele>
        <time>2021-05-20T10:07:04.870Z</time>
      </trkpt>
      <trkpt lat="48.69954" lon="2.05583">
        <ele>117</ele>
        <time>2021-05-20T10:07:05.870Z</time>
      </trkpt>
      <trkpt lat="48.69955" lon="2.05583">
        <ele>117</ele>
        <time>2021-05-20T10:07:06.870Z</time>
      </trkpt>
      <trkpt lat="48.69956" lon="2.05583">
        <ele>117</ele>
        <time>2021-05-20T10:07:07.870Z</time>
      </trkpt>
      <trkpt lat="48.69957" lon="2.05583">
        <ele>117</ele>
        <time>2021-05-20T10:07:08.870Z</time>
      </trkpt>
      <trkpt lat="48.69959" lon="2.05583">
        <ele>117</ele>
        <time>2021-05-20T10:07:09.870Z</time>
      </trkpt>
      <trkpt lat="48.6996" lon="2.05583">
        <ele>117</ele>
        <time>2021-05-20T10:07:10.870Z</time>
      </trkpt>
      <trkpt lat="48.69961" lon="2.05584">
        <ele>116</ele>
        <time>2021-05-20T10:07:11.870Z</time>
      </trkpt>
      <trkpt lat="48.69962" lon="2.05584">
        <ele>116</ele>
        <time>2021-05-20T10:07:12.870Z</time>
      </trkpt>
      <trkpt lat="48.69963" lon="2.05584">
        <ele>116</ele>
        <time>2021-05-20T10:07:13.870Z</time>
      </trkpt>
      <trkpt lat="48.69964" lon="2.05584">
        <ele>116</ele>
        <time>2021-05-20T10:07:14.870Z</time>
      </trkpt>
      <trkpt lat="48.69966" lon="2.05584">
        <ele>116</ele>
        <time>2021-05-20T10:07:25.873Z</time>
      </trkpt>
      <trkpt lat="48.69967" lon="2.05584">
        <ele>116</ele>
        <time>2021-05-20T10:07:26.873Z</time>
      </trkpt>
      <trkpt lat="48.69968" lon="2.05584">
        <ele>116</ele>
        <time>2021-05-20T10:07:27.873Z</time>
      </trkpt>
      <trkpt lat="48.69969" lon="2.05584">
        <ele>116</ele>
        <time>2021-05-20T10:07:28.873Z</time>
      </trkpt>
      <trkpt lat="48.6997" lon="2.05584">
        <ele>115</ele>
        <time>2021-05-20T10:07:29.873Z</time>
      </trkpt>
      <trkpt lat="48.69971" lon="2.05584">
        <ele>115</ele>
        <time>2021-05-20T10:07:30.873Z</time>
      </trkpt>
      <trkpt lat="48.69973" lon="2.05585">
        <ele>115</ele>
        <time>2021-05-20T10:07:31.873Z</time>
      </trkpt>
      <trkpt lat="48.69974" lon="2.05585">
        <ele>115</ele>
        <time>2021-05-20T10:07:32.873Z</time>
      </trkpt>
      <trkpt lat="48.69975" lon="2.05585">
        <ele>115</ele>
        <time>2021-05-20T10:07:33.873Z</time>
      </trkpt>
      <trkpt lat="48.69976" lon="2.05586">
        <ele>115</ele>
        <time>2021-05-20T10:07:34.873Z</time>
      </trkpt>
      <trkpt lat="48.69977" lon="2.05586">
        <ele>114</ele>
        <time>2021-05-20T10:07:35.873Z</time>
      </trkpt>
      <trkpt lat="48.69978" lon="2.05586">
        <ele>114</ele>
        <time>2021-05-20T10:07:36.873Z</time>
      </trkpt>
      <trkpt lat="48.6998" lon="2.05586">
        <ele>114</ele>
        <time>2021-05-20T10:07:37.873Z</time>
      </trkpt>
      <trkpt lat="48.69981" lon="2.05587">
        <ele>114</ele>
        <time>2021-05-20T10:07:38.873Z</time>
      </trkpt>
      <trkpt lat="48.69982" lon="2.05587">
        <ele>114</ele>
        <time>2021-05-20T10:07:39.873Z</time>
      </trkpt>
      <trkpt lat="48.69984" lon="2.05588">
        <ele>114</ele>
        <time>2021-05-20T10:07:40.873Z</time>
      </trkpt>
      <trkpt lat="48.69985" lon="2.05588">
        <ele>113</ele>
        <time>2021-05-20T10:07:41.873Z</time>
      </trkpt>
      <trkpt lat="48.69987" lon="2.05588">
        <ele>113</ele>
        <time>2021-05-20T10:07:42.873Z</time>
      </trkpt>
      <trkpt lat="48.69988" lon="2.05589">
        <ele>113</ele>
        <time>2021-05-20T10:07:43.873Z</time>
      </trkpt>
      <trkpt lat="48.69989" lon="2.05589">
        <ele>113</ele>
        <time>2021-05-20T10:07:44.873Z</time>
      </trkpt>
      <trkpt lat="48.69991" lon="2.0559">
        <ele>113</ele>
        <time>2021-05-20T10:07:45.873Z</time>
      </trkpt>
      <trkpt lat="48.69992" lon="2.0559">
        <ele>113</ele>
        <time>2021-05-20T10:07:46.873Z</time>
      </trkpt>
      <trkpt lat="48.69993" lon="2.05591">
        <ele>113</ele>
        <time>2021-05-20T10:07:47.873Z</time>
      </trkpt>
      <trkpt lat="48.69995" lon="2.05591">
        <ele>113</ele>
        <time>2021-05-20T10:07:48.873Z</time>
      </trkpt>
      <trkpt lat="48.69996" lon="2.05592">
        <ele>112</ele>
        <time>2021-05-20T10:07:49.873Z</time>
      </trkpt>
      <trkpt lat="48.69997" lon="2.05592">
        <ele>112</ele>
        <time>2021-05-20T10:07:59.876Z</time>
      </trkpt>
      <trkpt lat="48.69999" lon="2.05592">
        <ele>112</ele>
        <time>2021-05-20T10:08:00.876Z</time>
      </trkpt>
      <trkpt lat="48.7" lon="2.05592">
        <ele>112</ele>
        <time>2021-05-20T10:08:01.876Z</time>
      </trkpt>
      <trkpt lat="48.70001" lon="2.05592">
        <ele>112</ele>
        <time>2021-05-20T10:08:02.876Z</time>
      </trkpt>
      <trkpt lat="48.70003" lon="2.05593">
        <ele>112</ele>
        <time>2021-05-20T10:08:03.876Z</time>
      </trkpt>
      <trkpt lat="48.70004" lon="2.05593">
        <ele>112</ele>
        <time>2021-05-20T10:08:04.876Z</time>
      </trkpt>
      <trkpt lat="48.70006" lon="2.05593">
        <ele>112</ele>
        <time>2021-05-20T10:08:05.876Z</time>
      </trkpt>
      <trkpt lat="48.70007" lon="2.05593">
        <ele>111</ele>
        <time>2021-05-20T10:08:06.876Z</time>
      </trkpt>
      <trkpt lat="48.70009" lon="2.05594">
        <ele>111</ele>
        <time>2021-05-20T10:08:07.876Z</time>
      </trkpt>
      <trkpt lat="48.7001" lon="2.05595">
        <ele>111</ele>
        <time>2021-05-20T10:08:08.876Z</time>
      </trkpt>
      <trkpt lat="48.70011" lon="2.05595">
        <ele>111</ele>
        <time>2021-05-20T10:08:09.876Z</time>
      </trkpt>
      <trkpt lat="48.70012" lon="2.05595">
        <ele>111</ele>
        <time>2021-05-20T10:08:10.876Z</time>
      </trkpt>
      <trkpt lat="48.70013" lon="2.05596">
        <ele>111</ele>
        <time>2021-05-20T10:08:11.876Z</time>
      </trkpt>
      <trkpt lat="48.70014" lon="2.05596">
        <ele>111</ele>
        <time>2021-05-20T10:08:12.876Z</time>
      </trkpt>
      <trkpt lat="48.70015" lon="2.05597">
        <ele>110</ele>
        <time>2021-05-20T10:08:13.876Z</time>
      </trkpt>
      <trkpt lat="48.70016" lon="2.05597">
        <ele>110</ele>
        <time>2021-05-20T10:08:14.876Z</time>
      </trkpt>
      <trkpt lat="48.70017" lon="2.05597">
        <ele>110</ele>
        <time>2021-05-20T10:08:15.876Z</time>
      </trkpt>
      <trkpt lat="48.70019" lon="2.05598">
        <ele>110</ele>
        <time>2021-05-20T10:08:16.876Z</time>
      </trkpt>
      <trkpt lat="48.7002" lon="2.05598">
        <ele>110</ele>
        <time>2021-05-20T10:08:17.876Z</time>
      </trkpt>
      <trkpt lat="48.70021" lon="2.05599">
        <ele>109</ele>
        <time>2021-05-20T10:08:18.876Z</time>
      </trkpt>
      <trkpt lat="48.70022" lon="2.05599">
        <ele>109</ele>
        <time>2021-05-20T10:08:19.876Z</time>
      </trkpt>
      <trkpt lat="48.70024" lon="2.056">
        <ele>109</ele>
        <time>2021-05-20T10:08:20.876Z</time>
      </trkpt>
      <trkpt lat="48.70025" lon="2.056">
        <ele>109</ele>
        <time>2021-05-20T10:08:21.876Z</time>
      </trkpt>
      <trkpt lat="48.70027" lon="2.05601">
        <ele>109</ele>
        <time>2021-05-20T10:08:22.876Z</time>
      </trkpt>
      <trkpt lat="48.70028" lon="2.05601">
        <ele>109</ele>
        <time>2021-05-20T10:08:23.876Z</time>
      </trkpt>
      <trkpt lat="48.70029" lon="2.05601">
        <ele>109</ele>
        <time>2021-05-20T10:08:24.876Z</time>
      </trkpt>
      <trkpt lat="48.7003" lon="2.05602">
        <ele>108</ele>
        <time>2021-05-20T10:08:25.876Z</time>
      </trkpt>
      <trkpt lat="48.70032" lon="2.05602">
        <ele>108</ele>
        <time>2021-05-20T10:08:26.876Z</time>
      </trkpt>
      <trkpt lat="48.70033" lon="2.05603">
        <ele>108</ele>
        <time>2021-05-20T10:08:27.876Z</time>
      </trkpt>
      <trkpt lat="48.70034" lon="2.05603">
        <ele>108</ele>
        <time>2021-05-20T10:08:28.876Z</time>
      </trkpt>
      <trkpt lat="48.70036" lon="2.05603">
        <ele>108</ele>
        <time>2021-05-20T10:08:29.876Z</time>
      </trkpt>
      <trkpt lat="48.70038" lon="2.05604">
        <ele>108</ele>
        <time>2021-05-20T10:08:30.876Z</time>
      </trkpt>
      <trkpt lat="48.70039" lon="2.05605">
        <ele>108</ele>
        <time>2021-05-20T10:08:31.876Z</time>
      </trkpt>
      <trkpt lat="48.70041" lon="2.05605">
        <ele>107</ele>
        <time>2021-05-20T10:08:32.876Z</time>
      </trkpt>
      <trkpt lat="48.70042" lon="2.05605">
        <ele>107</ele>
        <time>2021-05-20T10:08:33.876Z</time>
      </trkpt>
      <trkpt lat="48.70044" lon="2.05606">
        <ele>107</ele>
        <time>2021-05-20T10:08:34.876Z</time>
      </trkpt>
      <trkpt lat="48.70045" lon="2.05606">
        <ele>107</ele>
        <time>2021-05-20T10:08:35.876Z</time>
      </trkpt>
      <trkpt lat="48.70046" lon="2.05607">
        <ele>107</ele>
        <time>2021-05-20T10:08:36.876Z</time>
      </trkpt>
      <trkpt lat="48.70048" lon="2.05607">
        <ele>107</ele>
        <time>2021-05-20T10:08:37.876Z</time>
      </trkpt>
      <trkpt lat="48.70049" lon="2.05607">
        <ele>107</ele>
        <time>2021-05-20T10:08:38.876Z</time>
      </trkpt>
      <trkpt lat="48.70051" lon="2.05608">
        <ele>106</ele>
        <time>2021-05-20T10:08:39.876Z</time>
      </trkpt>
      <trkpt lat="48.70052" lon="2.05609">
        <ele>106</ele>
        <time>2021-05-20T10:08:40.876Z</time>
      </trkpt>
      <trkpt lat="48.70053" lon="2.0561">
        <ele>106</ele>
        <time>2021-05-20T10:08:41.876Z</time>
      </trkpt>
      <trkpt lat="48.70055" lon="2.05611">
        <ele>106</ele>
        <time>2021-05-20T10:08:42.876Z</time>
      </trkpt>
      <trkpt lat="48.70056" lon="2.05612">
        <ele>106</ele>
        <time>2021-05-20T10:08:43.876Z</time>
      </trkpt>
      <trkpt lat="48.70057" lon="2.05612">
        <ele>105</ele>
        <time>2021-05-20T10:08:44.876Z</time>
      </trkpt>
      <trkpt lat="48.70058" lon="2.05613">
        <ele>105</ele>
        <time>2021-05-20T10:08:45.876Z</time>
      </trkpt>
      <trkpt lat="48.70059" lon="2.05613">
        <ele>105</ele>
        <time>2021-05-20T10:08:46.876Z</time>
      </trkpt>
      <trkpt lat="48.7006" lon="2.05614">
        <ele>105</ele>
        <time>2021-05-20T10:08:47.876Z</time>
      </trkpt>
      <trkpt lat="48.70061" lon="2.05614">
        <ele>105</ele>
        <time>2021-05-20T10:08:48.876Z</time>
      </trkpt>
      <trkpt lat="48.70063" lon="2.05615">
        <ele>105</ele>
        <time>2021-05-20T10:08:49.876Z</time>
      </trkpt>
      <trkpt lat="48.70064" lon="2.05615">
        <ele>105</ele>
        <time>2021-05-20T10:08:50.876Z</time>
      </trkpt>
      <trkpt lat="48.70066" lon="2.05616">
        <ele>104</ele>
        <time>2021-05-20T10:08:51.876Z</time>
      </trkpt>
      <trkpt lat="48.70067" lon="2.05617">
        <ele>104</ele>
        <time>2021-05-20T10:08:52.876Z</time>
      </trkpt>
      <trkpt lat="48.70068" lon="2.05618">
        <ele>104</ele>
        <time>2021-05-20T10:08:53.876Z</time>
      </trkpt>
      <trkpt lat="48.70069" lon="2.05619">
        <ele>104</ele>
        <time>2021-05-20T10:08:54.876Z</time>
      </trkpt>
      <trkpt lat="48.7007" lon="2.05619">
        <ele>104</ele>
        <time>2021-05-20T10:08:55.876Z</time>
      </trkpt>
      <trkpt lat="48.70071" lon="2.0562">
        <ele>103</ele>
        <time>2021-05-20T10:08:56.876Z</time>
      </trkpt>
      <trkpt lat="48.70072" lon="2.05621">
        <ele>103</ele>
        <time>2021-05-20T10:08:57.876Z</time>
      </trkpt>
      <trkpt lat="48.70073" lon="2.05622">
        <ele>103</ele>
        <time>2021-05-20T10:08:58.876Z</time>
      </trkpt>
      <trkpt lat="48.70073" lon="2.05624">
        <ele>103</ele>
        <time>2021-05-20T10:08:59.876Z</time>
      </trkpt>
      <trkpt lat="48.70074" lon="2.05625">
        <ele>103</ele>
        <time>2021-05-20T10:09:00.876Z</time>
      </trkpt>
      <trkpt lat="48.70075" lon="2.05626">
        <ele>102</ele>
        <time>2021-05-20T10:09:01.876Z</time>
      </trkpt>
      <trkpt lat="48.70075" lon="2.05627">
        <ele>102</ele>
        <time>2021-05-20T10:09:02.876Z</time>
      </trkpt>
      <trkpt lat="48.70076" lon="2.05629">
        <ele>102</ele>
        <time>2021-05-20T10:09:03.876Z</time>
      </trkpt>
      <trkpt lat="48.70077" lon="2.0563">
        <ele>101</ele>
        <time>2021-05-20T10:09:04.876Z</time>
      </trkpt>
      <trkpt lat="48.70077" lon="2.05631">
        <ele>101</ele>
        <time>2021-05-20T10:09:05.876Z</time>
      </trkpt>
      <trkpt lat="48.70078" lon="2.05631">
        <ele>101</ele>
        <time>2021-05-20T10:09:06.876Z</time>
      </trkpt>
      <trkpt lat="48.70078" lon="2.05632">
        <ele>101</ele>
        <time>2021-05-20T10:09:07.876Z</time>
      </trkpt>
      <trkpt lat="48.70079" lon="2.05632">
        <ele>101</ele>
        <time>2021-05-20T10:09:08.876Z</time>
      </trkpt>
      <trkpt lat="48.70081" lon="2.05633">
        <ele>100</ele>
        <time>2021-05-20T10:09:09.876Z</time>
      </trkpt>
      <trkpt lat="48.70082" lon="2.05633">
        <ele>100</ele>
        <time>2021-05-20T10:09:10.876Z</time>
      </trkpt>
      <trkpt lat="48.70083" lon="2.05634">
        <ele>100</ele>
        <time>2021-05-20T10:09:11.876Z</time>
      </trkpt>
      <trkpt lat="48.70084" lon="2.05635">
        <ele>100</ele>
        <time>2021-05-20T10:09:12.876Z</time>
      </trkpt>
      <trkpt lat="48.70085" lon="2.05635">
        <ele>100</ele>
        <time>2021-05-20T10:09:13.876Z</time>
      </trkpt>
      <trkpt lat="48.70086" lon="2.05636">
        <ele>100</ele>
        <time>2021-05-20T10:09:14.876Z</time>
      </trkpt>
      <trkpt lat="48.70087" lon="2.05637">
        <ele>100</ele>
        <time>2021-05-20T10:09:15.876Z</time>
      </trkpt>
      <trkpt lat="48.70088" lon="2.05637">
        <ele>99</ele>
        <time>2021-05-20T10:09:16.876Z</time>
      </trkpt>
      <trkpt lat="48.7009" lon="2.05638">
        <ele>99</ele>
        <time>2021-05-20T10:09:17.876Z</time>
      </trkpt>
      <trkpt lat="48.70091" lon="2.05638">
        <ele>99</ele>
        <time>2021-05-20T10:09:18.876Z</time>
      </trkpt>
      <trkpt lat="48.70092" lon="2.05638">
        <ele>99</ele>
        <time>2021-05-20T10:09:19.876Z</time>
      </trkpt>
      <trkpt lat="48.70093" lon="2.05638">
        <ele>98</ele>
        <time>2021-05-20T10:09:20.876Z</time>
      </trkpt>
      <trkpt lat="48.70095" lon="2.05638">
        <ele>98</ele>
        <time>2021-05-20T10:09:21.876Z</time>
      </trkpt>
      <trkpt lat="48.70096" lon="2.05637">
        <ele>98</ele>
        <time>2021-05-20T10:09:22.876Z</time>
      </trkpt>
      <trkpt lat="48.70098" lon="2.05637">
        <ele>98</ele>
        <time>2021-05-20T10:09:23.876Z</time>
      </trkpt>
      <trkpt lat="48.70099" lon="2.05637">
        <ele>98</ele>
        <time>2021-05-20T10:09:24.876Z</time>
      </trkpt>
      <trkpt lat="48.701" lon="2.05636">
        <ele>97</ele>
        <time>2021-05-20T10:09:25.876Z</time>
      </trkpt>
      <trkpt lat="48.70102" lon="2.05635">
        <ele>97</ele>
        <time>2021-05-20T10:09:26.876Z</time>
      </trkpt>
      <trkpt lat="48.70103" lon="2.05635">
        <ele>97</ele>
        <time>2021-05-20T10:09:27.876Z</time>
      </trkpt>
      <trkpt lat="48.70105" lon="2.05634">
        <ele>97</ele>
        <time>2021-05-20T10:09:28.876Z</time>
      </trkpt>
      <trkpt lat="48.70106" lon="2.05634">
        <ele>96</ele>
        <time>2021-05-20T10:09:29.876Z</time>
      </trkpt>
      <trkpt lat="48.70108" lon="2.05633">
        <ele>96</ele>
        <time>2021-05-20T10:09:30.876Z</time>
      </trkpt>
      <trkpt lat="48.70109" lon="2.05633">
        <ele>96</ele>
        <time>2021-05-20T10:09:31.876Z</time>
      </trkpt>
      <trkpt lat="48.70111" lon="2.05632">
        <ele>96</ele>
        <time>2021-05-20T10:09:32.876Z</time>
      </trkpt>
      <trkpt lat="48.70113" lon="2.05632">
        <ele>96</ele>
        <time>2021-05-20T10:09:33.876Z</time>
      </trkpt>
      <trkpt lat="48.70114" lon="2.05631">
        <ele>95</ele>
        <time>2021-05-20T10:09:34.876Z</time>
      </trkpt>
      <trkpt lat="48.70116" lon="2.05631">
        <ele>95</ele>
        <time>2021-05-20T10:09:38.149Z</time>
      </trkpt>
      <trkpt lat="48.70117" lon="2.05631">
        <ele>95</ele>
        <time>2021-05-20T10:09:39.149Z</time>
      </trkpt>
      <trkpt lat="48.70118" lon="2.0563">
        <ele>95</ele>
        <time>2021-05-20T10:09:40.149Z</time>
      </trkpt>
      <trkpt lat="48.70119" lon="2.05629">
        <ele>94</ele>
        <time>2021-05-20T10:09:41.149Z</time>
      </trkpt>
      <trkpt lat="48.7012" lon="2.05629">
        <ele>94</ele>
        <time>2021-05-20T10:09:42.149Z</time>
      </trkpt>
      <trkpt lat="48.70121" lon="2.05628">
        <ele>94</ele>
        <time>2021-05-20T10:09:43.149Z</time>
      </trkpt>
      <trkpt lat="48.70122" lon="2.05628">
        <ele>94</ele>
        <time>2021-05-20T10:09:44.149Z</time>
      </trkpt>
      <trkpt lat="48.70123" lon="2.05627">
        <ele>93</ele>
        <time>2021-05-20T10:09:45.149Z</time>
      </trkpt>
      <trkpt lat="48.70125" lon="2.05627">
        <ele>93</ele>
        <time>2021-05-20T10:09:46.149Z</time>
      </trkpt>
      <trkpt lat="48.70126" lon="2.05626">
        <ele>93</ele>
        <time>2021-05-20T10:09:47.149Z</time>
      </trkpt>
      <trkpt lat="48.70127" lon="2.05625">
        <ele>93</ele>
        <time>2021-05-20T10:09:48.149Z</time>
      </trkpt>
      <trkpt lat="48.70128" lon="2.05624">
        <ele>93</ele>
        <time>2021-05-20T10:09:49.149Z</time>
      </trkpt>
      <trkpt lat="48.70129" lon="2.05624">
        <ele>92</ele>
        <time>2021-05-20T10:09:50.149Z</time>
      </trkpt>
      <trkpt lat="48.7013" lon="2.05623">
        <ele>92</ele>
        <time>2021-05-20T10:09:51.149Z</time>
      </trkpt>
      <trkpt lat="48.70131" lon="2.05623">
        <ele>92</ele>
        <time>2021-05-20T10:09:52.149Z</time>
      </trkpt>
      <trkpt lat="48.70132" lon="2.05622">
        <ele>92</ele>
        <time>2021-05-20T10:09:53.149Z</time>
      </trkpt>
      <trkpt lat="48.70133" lon="2.05621">
        <ele>92</ele>
        <time>2021-05-20T10:09:54.149Z</time>
      </trkpt>
      <trkpt lat="48.70133" lon="2.05621">
        <ele>92</ele>
        <time>2021-05-20T10:09:55.149Z</time>
      </trkpt>
      <trkpt lat="48.70134" lon="2.05621">
        <ele>92</ele>
        <time>2021-05-20T10:09:56.149Z</time>
      </trkpt>
      <trkpt lat="48.70135" lon="2.05621">
        <ele>92</ele>
        <time>2021-05-20T10:09:57.149Z</time>
      </trkpt>
      <trkpt lat="48.70135" lon="2.0562">
        <ele>92</ele>
        <time>2021-05-20T10:09:58.149Z</time>
      </trkpt>
      <trkpt lat="48.70136" lon="2.0562">
        <ele>92</ele>
        <time>2021-05-20T10:09:59.149Z</time>
      </trkpt>
      <trkpt lat="48.70137" lon="2.0562">
        <ele>91</ele>
        <time>2021-05-20T10:10:00.149Z</time>
      </trkpt>
      <trkpt lat="48.70138" lon="2.0562">
        <ele>91</ele>
        <time>2021-05-20T10:10:01.149Z</time>
      </trkpt>
      <trkpt lat="48.70139" lon="2.05619">
        <ele>91</ele>
        <time>2021-05-20T10:10:02.149Z</time>
      </trkpt>
      <trkpt lat="48.7014" lon="2.05619">
        <ele>91</ele>
        <time>2021-05-20T10:10:03.149Z</time>
      </trkpt>
      <trkpt lat="48.70141" lon="2.05619">
        <ele>91</ele>
        <time>2021-05-20T10:10:04.149Z</time>
      </trkpt>
      <trkpt lat="48.70142" lon="2.05619">
        <ele>90</ele>
        <time>2021-05-20T10:10:05.149Z</time>
      </trkpt>
      <trkpt lat="48.70143" lon="2.05618">
        <ele>90</ele>
        <time>2021-05-20T10:10:06.149Z</time>
      </trkpt>
      <trkpt lat="48.70145" lon="2.05617">
        <ele>90</ele>
        <time>2021-05-20T10:10:07.149Z</time>
      </trkpt>
      <trkpt lat="48.70146" lon="2.05617">
        <ele>90</ele>
        <time>2021-05-20T10:10:08.149Z</time>
      </trkpt>
      <trkpt lat="48.70147" lon="2.05617">
        <ele>90</ele>
        <time>2021-05-20T10:10:09.149Z</time>
      </trkpt>
      <trkpt lat="48.70149" lon="2.05617">
        <ele>90</ele>
        <time>2021-05-20T10:10:10.149Z</time>
      </trkpt>
      <trkpt lat="48.7015" lon="2.05616">
        <ele>89</ele>
        <time>2021-05-20T10:10:11.149Z</time>
      </trkpt>
      <trkpt lat="48.70151" lon="2.05616">
        <ele>89</ele>
        <time>2021-05-20T10:10:12.149Z</time>
      </trkpt>
      <trkpt lat="48.70152" lon="2.05615">
        <ele>89</ele>
        <time>2021-05-20T10:10:13.149Z</time>
      </trkpt>
      <trkpt lat="48.70153" lon="2.05615">
        <ele>89</ele>
        <time>2021-05-20T10:10:14.149Z</time>
      </trkpt>
      <trkpt lat="48.70155" lon="2.05615">
        <ele>89</ele>
        <time>2021-05-20T10:10:15.149Z</time>
      </trkpt>
      <trkpt lat="48.70156" lon="2.05614">
        <ele>89</ele>
        <time>2021-05-20T10:10:16.149Z</time>
      </trkpt>
      <trkpt lat="48.70157" lon="2.05614">
        <ele>89</ele>
        <time>2021-05-20T10:10:17.149Z</time>
      </trkpt>
      <trkpt lat="48.70158" lon="2.05613">
        <ele>88</ele>
        <time>2021-05-20T10:10:18.149Z</time>
      </trkpt>
      <trkpt lat="48.70159" lon="2.05613">
        <ele>88</ele>
        <time>2021-05-20T10:10:19.149Z</time>
      </trkpt>
      <trkpt lat="48.7016" lon="2.05612">
        <ele>88</ele>
        <time>2021-05-20T10:10:20.149Z</time>
      </trkpt>
      <trkpt lat="48.70161" lon="2.05612">
        <ele>88</ele>
        <time>2021-05-20T10:10:21.149Z</time>
      </trkpt>
      <trkpt lat="48.70162" lon="2.05611">
        <ele>88</ele>
        <time>2021-05-20T10:10:22.149Z</time>
      </trkpt>
      <trkpt lat="48.70163" lon="2.0561">
        <ele>88</ele>
        <time>2021-05-20T10:10:23.149Z</time>
      </trkpt>
      <trkpt lat="48.70164" lon="2.0561">
        <ele>88</ele>
        <time>2021-05-20T10:10:24.149Z</time>
      </trkpt>
      <trkpt lat="48.70165" lon="2.05609">
        <ele>87</ele>
        <time>2021-05-20T10:10:25.149Z</time>
      </trkpt>
      <trkpt lat="48.70166" lon="2.05609">
        <ele>87</ele>
        <time>2021-05-20T10:10:26.149Z</time>
      </trkpt>
      <trkpt lat="48.70167" lon="2.05608">
        <ele>87</ele>
        <time>2021-05-20T10:10:27.149Z</time>
      </trkpt>
      <trkpt lat="48.70168" lon="2.05608">
        <ele>87</ele>
        <time>2021-05-20T10:10:28.149Z</time>
      </trkpt>
      <trkpt lat="48.70169" lon="2.05607">
        <ele>87</ele>
        <time>2021-05-20T10:10:29.149Z</time>
      </trkpt>
      <trkpt lat="48.70169" lon="2.05607">
        <ele>87</ele>
        <time>2021-05-20T10:10:30.149Z</time>
      </trkpt>
      <trkpt lat="48.7017" lon="2.05606">
        <ele>87</ele>
        <time>2021-05-20T10:10:31.149Z</time>
      </trkpt>
      <trkpt lat="48.70171" lon="2.05606">
        <ele>87</ele>
        <time>2021-05-20T10:10:32.149Z</time>
      </trkpt>
      <trkpt lat="48.70172" lon="2.05605">
        <ele>87</ele>
        <time>2021-05-20T10:10:33.149Z</time>
      </trkpt>
      <trkpt lat="48.70172" lon="2.05605">
        <ele>86</ele>
        <time>2021-05-20T10:10:34.149Z</time>
      </trkpt>
      <trkpt lat="48.70172" lon="2.05604">
        <ele>86</ele>
        <time>2021-05-20T10:10:35.149Z</time>
      </trkpt>
      <trkpt lat="48.70172" lon="2.05604">
        <ele>86</ele>
        <time>2021-05-20T10:10:36.149Z</time>
      </trkpt>
      <trkpt lat="48.70172" lon="2.05604">
        <ele>86</ele>
        <time>2021-05-20T10:10:37.149Z</time>
      </trkpt>
      <trkpt lat="48.70174" lon="2.05603">
        <ele>86</ele>
        <time>2021-05-20T10:10:38.149Z</time>
      </trkpt>
      <trkpt lat="48.70175" lon="2.05602">
        <ele>86</ele>
        <time>2021-05-20T10:10:39.149Z</time>
      </trkpt>
      <trkpt lat="48.70176" lon="2.05602">
        <ele>86</ele>
        <time>2021-05-20T10:10:40.149Z</time>
      </trkpt>
      <trkpt lat="48.70177" lon="2.05601">
        <ele>86</ele>
        <time>2021-05-20T10:10:41.149Z</time>
      </trkpt>
      <trkpt lat="48.70178" lon="2.056">
        <ele>86</ele>
        <time>2021-05-20T10:10:42.149Z</time>
      </trkpt>
      <trkpt lat="48.70179" lon="2.056">
        <ele>86</ele>
        <time>2021-05-20T10:10:43.149Z</time>
      </trkpt>
      <trkpt lat="48.7018" lon="2.05599">
        <ele>86</ele>
        <time>2021-05-20T10:10:44.149Z</time>
      </trkpt>
      <trkpt lat="48.70182" lon="2.05598">
        <ele>86</ele>
        <time>2021-05-20T10:10:45.149Z</time>
      </trkpt>
      <trkpt lat="48.70183" lon="2.05598">
        <ele>85</ele>
        <time>2021-05-20T10:10:46.149Z</time>
      </trkpt>
      <trkpt lat="48.70184" lon="2.05597">
        <ele>85</ele>
        <time>2021-05-20T10:10:47.149Z</time>
      </trkpt>
      <trkpt lat="48.70185" lon="2.05596">
        <ele>85</ele>
        <time>2021-05-20T10:10:48.149Z</time>
      </trkpt>
      <trkpt lat="48.70186" lon="2.05596">
        <ele>85</ele>
        <time>2021-05-20T10:10:49.149Z</time>
      </trkpt>
      <trkpt lat="48.70186" lon="2.05595">
        <ele>85</ele>
        <time>2021-05-20T10:10:50.149Z</time>
      </trkpt>
      <trkpt lat="48.70187" lon="2.05594">
        <ele>85</ele>
        <time>2021-05-20T10:10:51.149Z</time>
      </trkpt>
      <trkpt lat="48.70187" lon="2.05594">
        <ele>85</ele>
        <time>2021-05-20T10:10:52.149Z</time>
      </trkpt>
      <trkpt lat="48.70187" lon="2.05593">
        <ele>85</ele>
        <time>2021-05-20T10:10:53.149Z</time>
      </trkpt>
      <trkpt lat="48.70187" lon="2.05594">
        <ele>86</ele>
        <time>2021-05-20T10:10:54.149Z</time>
      </trkpt>
      <trkpt lat="48.70187" lon="2.05595">
        <ele>86</ele>
        <time>2021-05-20T10:10:55.149Z</time>
      </trkpt>
      <trkpt lat="48.70187" lon="2.05595">
        <ele>86</ele>
        <time>2021-05-20T10:10:56.149Z</time>
      </trkpt>
      <trkpt lat="48.70188" lon="2.05595">
        <ele>86</ele>
        <time>2021-05-20T10:10:57.149Z</time>
      </trkpt>
      <trkpt lat="48.70188" lon="2.05595">
        <ele>86</ele>
        <time>2021-05-20T10:10:58.149Z</time>
      </trkpt>
      <trkpt lat="48.7019" lon="2.05594">
        <ele>85</ele>
        <time>2021-05-20T10:10:59.149Z</time>
      </trkpt>
      <trkpt lat="48.7019" lon="2.05593">
        <ele>85</ele>
        <time>2021-05-20T10:11:00.149Z</time>
      </trkpt>
      <trkpt lat="48.70191" lon="2.05592">
        <ele>85</ele>
        <time>2021-05-20T10:11:01.149Z</time>
      </trkpt>
      <trkpt lat="48.70191" lon="2.05592">
        <ele>85</ele>
        <time>2021-05-20T10:11:02.149Z</time>
      </trkpt>
      <trkpt lat="48.70192" lon="2.05591">
        <ele>85</ele>
        <time>2021-05-20T10:11:03.149Z</time>
      </trkpt>
      <trkpt lat="48.70192" lon="2.0559">
        <ele>85</ele>
        <time>2021-05-20T10:11:04.149Z</time>
      </trkpt>
      <trkpt lat="48.70193" lon="2.05589">
        <ele>85</ele>
        <time>2021-05-20T10:11:05.149Z</time>
      </trkpt>
      <trkpt lat="48.70193" lon="2.05589">
        <ele>85</ele>
        <time>2021-05-20T10:11:06.149Z</time>
      </trkpt>
      <trkpt lat="48.70194" lon="2.05589">
        <ele>85</ele>
        <time>2021-05-20T10:11:07.149Z</time>
      </trkpt>
      <trkpt lat="48.70194" lon="2.05588">
        <ele>85</ele>
        <time>2021-05-20T10:11:08.149Z</time>
      </trkpt>
      <trkpt lat="48.70194" lon="2.05588">
        <ele>85</ele>
        <time>2021-05-20T10:11:09.149Z</time>
      </trkpt>
      <trkpt lat="48.70194" lon="2.05588">
        <ele>85</ele>
        <time>2021-05-20T10:11:10.149Z</time>
      </trkpt>
      <trkpt lat="48.70196" lon="2.05588">
        <ele>85</ele>
        <time>2021-05-20T10:11:11.149Z</time>
      </trkpt>
      <trkpt lat="48.70198" lon="2.05587">
        <ele>85</ele>
        <time>2021-05-20T10:11:12.149Z</time>
      </trkpt>
      <trkpt lat="48.70199" lon="2.05587">
        <ele>85</ele>
        <time>2021-05-20T10:11:13.149Z</time>
      </trkpt>
      <trkpt lat="48.702" lon="2.05586">
        <ele>85</ele>
        <time>2021-05-20T10:11:14.149Z</time>
      </trkpt>
      <trkpt lat="48.70201" lon="2.05585">
        <ele>85</ele>
        <time>2021-05-20T10:11:15.149Z</time>
      </trkpt>
      <trkpt lat="48.70202" lon="2.05584">
        <ele>85</ele>
        <time>2021-05-20T10:11:16.149Z</time>
      </trkpt>
      <trkpt lat="48.70203" lon="2.05583">
        <ele>85</ele>
        <time>2021-05-20T10:11:17.149Z</time>
      </trkpt>
      <trkpt lat="48.70204" lon="2.05582">
        <ele>85</ele>
        <time>2021-05-20T10:11:18.149Z</time>
      </trkpt>
      <trkpt lat="48.70205" lon="2.05582">
        <ele>84</ele>
        <time>2021-05-20T10:11:19.149Z</time>
      </trkpt>
      <trkpt lat="48.70206" lon="2.05581">
        <ele>84</ele>
        <time>2021-05-20T10:11:20.149Z</time>
      </trkpt>
      <trkpt lat="48.70207" lon="2.0558">
        <ele>84</ele>
        <time>2021-05-20T10:11:21.149Z</time>
      </trkpt>
      <trkpt lat="48.70208" lon="2.05579">
        <ele>84</ele>
        <time>2021-05-20T10:11:22.149Z</time>
      </trkpt>
      <trkpt lat="48.70209" lon="2.05578">
        <ele>84</ele>
        <time>2021-05-20T10:11:23.149Z</time>
      </trkpt>
      <trkpt lat="48.7021" lon="2.05578">
        <ele>83</ele>
        <time>2021-05-20T10:11:24.149Z</time>
      </trkpt>
      <trkpt lat="48.70211" lon="2.05577">
        <ele>83</ele>
        <time>2021-05-20T10:11:25.149Z</time>
      </trkpt>
      <trkpt lat="48.70212" lon="2.05577">
        <ele>83</ele>
        <time>2021-05-20T10:11:26.149Z</time>
      </trkpt>
      <trkpt lat="48.70213" lon="2.05577">
        <ele>83</ele>
        <time>2021-05-20T10:11:27.149Z</time>
      </trkpt>
      <trkpt lat="48.70214" lon="2.05577">
        <ele>83</ele>
        <time>2021-05-20T10:11:28.149Z</time>
      </trkpt>
      <trkpt lat="48.70214" lon="2.05577">
        <ele>83</ele>
        <time>2021-05-20T10:11:29.149Z</time>
      </trkpt>
      <trkpt lat="48.70215" lon="2.05577">
        <ele>83</ele>
        <time>2021-05-20T10:11:30.149Z</time>
      </trkpt>
      <trkpt lat="48.70215" lon="2.05577">
        <ele>83</ele>
        <time>2021-05-20T10:11:31.149Z</time>
      </trkpt>
      <trkpt lat="48.70215" lon="2.05577">
        <ele>82</ele>
        <time>2021-05-20T10:11:32.149Z</time>
      </trkpt>
      <trkpt lat="48.70215" lon="2.05576">
        <ele>82</ele>
        <time>2021-05-20T10:11:33.149Z</time>
      </trkpt>
      <trkpt lat="48.70215" lon="2.05574">
        <ele>81</ele>
        <time>2021-05-20T10:11:34.149Z</time>
      </trkpt>
      <trkpt lat="48.70216" lon="2.05574">
        <ele>81</ele>
        <time>2021-05-20T10:11:35.149Z</time>
      </trkpt>
      <trkpt lat="48.70218" lon="2.05575">
        <ele>81</ele>
        <time>2021-05-20T10:11:36.149Z</time>
      </trkpt>
      <trkpt lat="48.70219" lon="2.05575">
        <ele>81</ele>
        <time>2021-05-20T10:11:37.149Z</time>
      </trkpt>
      <trkpt lat="48.7022" lon="2.05575">
        <ele>81</ele>
        <time>2021-05-20T10:11:38.149Z</time>
      </trkpt>
      <trkpt lat="48.70221" lon="2.05575">
        <ele>81</ele>
        <time>2021-05-20T10:11:39.149Z</time>
      </trkpt>
      <trkpt lat="48.70222" lon="2.05575">
        <ele>81</ele>
        <time>2021-05-20T10:11:40.149Z</time>
      </trkpt>
      <trkpt lat="48.70223" lon="2.05575">
        <ele>81</ele>
        <time>2021-05-20T10:11:41.149Z</time>
      </trkpt>
      <trkpt lat="48.70224" lon="2.05576">
        <ele>81</ele>
        <time>2021-05-20T10:11:42.149Z</time>
      </trkpt>
      <trkpt lat="48.70225" lon="2.05576">
        <ele>81</ele>
        <time>2021-05-20T10:11:43.149Z</time>
      </trkpt>
      <trkpt lat="48.70226" lon="2.05576">
        <ele>81</ele>
        <time>2021-05-20T10:11:44.149Z</time>
      </trkpt>
      <trkpt lat="48.70227" lon="2.05577">
        <ele>81</ele>
        <time>2021-05-20T10:11:45.149Z</time>
      </trkpt>
      <trkpt lat="48.70227" lon="2.05577">
        <ele>81</ele>
        <time>2021-05-20T10:11:46.149Z</time>
      </trkpt>
      <trkpt lat="48.70227" lon="2.05577">
        <ele>81</ele>
        <time>2021-05-20T10:11:47.149Z</time>
      </trkpt>
      <trkpt lat="48.70228" lon="2.05578">
        <ele>81</ele>
        <time>2021-05-20T10:11:48.149Z</time>
      </trkpt>
      <trkpt lat="48.70228" lon="2.05578">
        <ele>81</ele>
        <time>2021-05-20T10:11:49.149Z</time>
      </trkpt>
      <trkpt lat="48.70228" lon="2.05578">
        <ele>81</ele>
        <time>2021-05-20T10:11:50.149Z</time>
      </trkpt>
      <trkpt lat="48.70229" lon="2.05578">
        <ele>80</ele>
        <time>2021-05-20T10:11:51.149Z</time>
      </trkpt>
      <trkpt lat="48.7023" lon="2.05577">
        <ele>80</ele>
        <time>2021-05-20T10:11:52.149Z</time>
      </trkpt>
      <trkpt lat="48.70231" lon="2.05577">
        <ele>80</ele>
        <time>2021-05-20T10:11:53.149Z</time>
      </trkpt>
      <trkpt lat="48.70232" lon="2.05576">
        <ele>80</ele>
        <time>2021-05-20T10:11:54.149Z</time>
      </trkpt>
      <trkpt lat="48.70233" lon="2.05575">
        <ele>80</ele>
        <time>2021-05-20T10:11:55.149Z</time>
      </trkpt>
      <trkpt lat="48.70234" lon="2.05574">
        <ele>80</ele>
        <time>2021-05-20T10:11:56.149Z</time>
      </trkpt>
      <trkpt lat="48.70234" lon="2.05573">
        <ele>80</ele>
        <time>2021-05-20T10:11:57.149Z</time>
      </trkpt>
      <trkpt lat="48.70235" lon="2.05571">
        <ele>80</ele>
        <time>2021-05-20T10:11:58.149Z</time>
      </trkpt>
      <trkpt lat="48.70236" lon="2.0557">
        <ele>79</ele>
        <time>2021-05-20T10:11:59.149Z</time>
      </trkpt>
      <trkpt lat="48.70236" lon="2.05568">
        <ele>79</ele>
        <time>2021-05-20T10:12:00.149Z</time>
      </trkpt>
      <trkpt lat="48.70237" lon="2.05567">
        <ele>79</ele>
        <time>2021-05-20T10:12:01.149Z</time>
      </trkpt>
      <trkpt lat="48.70238" lon="2.05565">
        <ele>79</ele>
        <time>2021-05-20T10:12:02.149Z</time>
      </trkpt>
      <trkpt lat="48.70238" lon="2.05564">
        <ele>79</ele>
        <time>2021-05-20T10:12:03.149Z</time>
      </trkpt>
      <trkpt lat="48.70239" lon="2.05562">
        <ele>79</ele>
        <time>2021-05-20T10:12:04.149Z</time>
      </trkpt>
      <trkpt lat="48.70239" lon="2.0556">
        <ele>79</ele>
        <time>2021-05-20T10:12:05.149Z</time>
      </trkpt>
      <trkpt lat="48.70239" lon="2.05559">
        <ele>79</ele>
        <time>2021-05-20T10:12:06.149Z</time>
      </trkpt>
      <trkpt lat="48.70239" lon="2.05557">
        <ele>79</ele>
        <time>2021-05-20T10:12:07.149Z</time>
      </trkpt>
      <trkpt lat="48.70239" lon="2.05556">
        <ele>79</ele>
        <time>2021-05-20T10:12:08.149Z</time>
      </trkpt>
      <trkpt lat="48.7024" lon="2.05555">
        <ele>79</ele>
        <time>2021-05-20T10:12:09.149Z</time>
      </trkpt>
      <trkpt lat="48.7024" lon="2.05554">
        <ele>79</ele>
        <time>2021-05-20T10:12:10.149Z</time>
      </trkpt>
      <trkpt lat="48.7024" lon="2.05553">
        <ele>78</ele>
        <time>2021-05-20T10:12:11.149Z</time>
      </trkpt>
      <trkpt lat="48.70241" lon="2.05553">
        <ele>78</ele>
        <time>2021-05-20T10:12:12.149Z</time>
      </trkpt>
      <trkpt lat="48.70242" lon="2.05553">
        <ele>78</ele>
        <time>2021-05-20T10:12:13.149Z</time>
      </trkpt>
      <trkpt lat="48.70243" lon="2.05552">
        <ele>78</ele>
        <time>2021-05-20T10:12:14.149Z</time>
      </trkpt>
      <trkpt lat="48.70243" lon="2.05552">
        <ele>78</ele>
        <time>2021-05-20T10:12:15.149Z</time>
      </trkpt>
      <trkpt lat="48.70244" lon="2.05552">
        <ele>78</ele>
        <time>2021-05-20T10:12:16.149Z</time>
      </trkpt>
      <trkpt lat="48.70245" lon="2.05552">
        <ele>78</ele>
        <time>2021-05-20T10:12:17.149Z</time>
      </trkpt>
      <trkpt lat="48.70246" lon="2.05552">
        <ele>78</ele>
        <time>2021-05-20T10:12:18.149Z</time>
      </trkpt>
      <trkpt lat="48.70247" lon="2.05552">
        <ele>78</ele>
        <time>2021-05-20T10:12:19.149Z</time>
      </trkpt>
      <trkpt lat="48.70249" lon="2.05552">
        <ele>78</ele>
        <time>2021-05-20T10:12:20.149Z</time>
      </trkpt>
      <trkpt lat="48.7025" lon="2.05552">
        <ele>78</ele>
        <time>2021-05-20T10:12:21.149Z</time>
      </trkpt>
      <trkpt lat="48.70251" lon="2.05552">
        <ele>78</ele>
        <time>2021-05-20T10:12:22.149Z</time>
      </trkpt>
      <trkpt lat="48.70252" lon="2.05552">
        <ele>77</ele>
        <time>2021-05-20T10:12:23.149Z</time>
      </trkpt>
      <trkpt lat="48.70253" lon="2.05552">
        <ele>77</ele>
        <time>2021-05-20T10:12:24.149Z</time>
      </trkpt>
      <trkpt lat="48.70254" lon="2.05552">
        <ele>77</ele>
        <time>2021-05-20T10:12:25.149Z</time>
      </trkpt>
      <trkpt lat="48.70255" lon="2.05552">
        <ele>77</ele>
        <time>2021-05-20T10:12:26.149Z</time>
      </trkpt>
      <trkpt lat="48.70256" lon="2.05552">
        <ele>77</ele>
        <time>2021-05-20T10:12:27.149Z</time>
      </trkpt>
      <trkpt lat="48.70257" lon="2.05551">
        <ele>77</ele>
        <time>2021-05-20T10:12:28.149Z</time>
      </trkpt>
      <trkpt lat="48.70258" lon="2.05551">
        <ele>77</ele>
        <time>2021-05-20T10:12:29.149Z</time>
      </trkpt>
      <trkpt lat="48.70259" lon="2.05552">
        <ele>77</ele>
        <time>2021-05-20T10:12:30.149Z</time>
      </trkpt>
      <trkpt lat="48.7026" lon="2.05552">
        <ele>76</ele>
        <time>2021-05-20T10:12:31.149Z</time>
      </trkpt>
      <trkpt lat="48.70262" lon="2.05552">
        <ele>76</ele>
        <time>2021-05-20T10:12:32.149Z</time>
      </trkpt>
      <trkpt lat="48.70263" lon="2.05552">
        <ele>76</ele>
        <time>2021-05-20T10:12:33.149Z</time>
      </trkpt>
      <trkpt lat="48.70264" lon="2.05552">
        <ele>76</ele>
        <time>2021-05-20T10:12:34.149Z</time>
      </trkpt>
      <trkpt lat="48.70265" lon="2.05552">
        <ele>76</ele>
        <time>2021-05-20T10:12:35.149Z</time>
      </trkpt>
      <trkpt lat="48.70266" lon="2.05552">
        <ele>76</ele>
        <time>2021-05-20T10:12:36.149Z</time>
      </trkpt>
      <trkpt lat="48.70267" lon="2.05553">
        <ele>76</ele>
        <time>2021-05-20T10:12:37.149Z</time>
      </trkpt>
      <trkpt lat="48.70269" lon="2.05553">
        <ele>76</ele>
        <time>2021-05-20T10:12:38.149Z</time>
      </trkpt>
      <trkpt lat="48.7027" lon="2.05553">
        <ele>76</ele>
        <time>2021-05-20T10:12:39.149Z</time>
      </trkpt>
      <trkpt lat="48.70271" lon="2.05553">
        <ele>76</ele>
        <time>2021-05-20T10:12:40.149Z</time>
      </trkpt>
      <trkpt lat="48.70272" lon="2.05553">
        <ele>76</ele>
        <time>2021-05-20T10:12:41.149Z</time>
      </trkpt>
      <trkpt lat="48.70273" lon="2.05553">
        <ele>75</ele>
        <time>2021-05-20T10:12:42.149Z</time>
      </trkpt>
      <trkpt lat="48.70274" lon="2.05553">
        <ele>75</ele>
        <time>2021-05-20T10:12:43.149Z</time>
      </trkpt>
      <trkpt lat="48.70276" lon="2.05554">
        <ele>75</ele>
        <time>2021-05-20T10:12:44.149Z</time>
      </trkpt>
      <trkpt lat="48.70277" lon="2.05554">
        <ele>75</ele>
        <time>2021-05-20T10:12:45.149Z</time>
      </trkpt>
      <trkpt lat="48.70278" lon="2.05554">
        <ele>75</ele>
        <time>2021-05-20T10:12:46.149Z</time>
      </trkpt>
      <trkpt lat="48.70279" lon="2.05554">
        <ele>75</ele>
        <time>2021-05-20T10:12:47.149Z</time>
      </trkpt>
      <trkpt lat="48.7028" lon="2.05554">
        <ele>75</ele>
        <time>2021-05-20T10:12:48.149Z</time>
      </trkpt>
      <trkpt lat="48.70281" lon="2.05554">
        <ele>75</ele>
        <time>2021-05-20T10:12:49.149Z</time>
      </trkpt>
      <trkpt lat="48.70282" lon="2.05554">
        <ele>75</ele>
        <time>2021-05-20T10:12:50.149Z</time>
      </trkpt>
      <trkpt lat="48.70284" lon="2.05555">
        <ele>75</ele>
        <time>2021-05-20T10:12:51.149Z</time>
      </trkpt>
      <trkpt lat="48.70285" lon="2.05555">
        <ele>75</ele>
        <time>2021-05-20T10:12:52.149Z</time>
      </trkpt>
      <trkpt lat="48.70286" lon="2.05555">
        <ele>75</ele>
        <time>2021-05-20T10:12:53.149Z</time>
      </trkpt>
      <trkpt lat="48.70287" lon="2.05555">
        <ele>75</ele>
        <time>2021-05-20T10:12:54.149Z</time>
      </trkpt>
      <trkpt lat="48.70288" lon="2.05555">
        <ele>75</ele>
        <time>2021-05-20T10:12:55.149Z</time>
      </trkpt>
      <trkpt lat="48.70289" lon="2.05555">
        <ele>75</ele>
        <time>2021-05-20T10:12:56.149Z</time>
      </trkpt>
      <trkpt lat="48.7029" lon="2.05556">
        <ele>75</ele>
        <time>2021-05-20T10:12:57.149Z</time>
      </trkpt>
      <trkpt lat="48.70291" lon="2.05556">
        <ele>75</ele>
        <time>2021-05-20T10:12:58.149Z</time>
      </trkpt>
      <trkpt lat="48.70293" lon="2.05556">
        <ele>75</ele>
        <time>2021-05-20T10:12:59.149Z</time>
      </trkpt>
      <trkpt lat="48.70294" lon="2.05556">
        <ele>75</ele>
        <time>2021-05-20T10:13:00.149Z</time>
      </trkpt>
      <trkpt lat="48.70295" lon="2.05556">
        <ele>75</ele>
        <time>2021-05-20T10:13:01.149Z</time>
      </trkpt>
      <trkpt lat="48.70296" lon="2.05556">
        <ele>75</ele>
        <time>2021-05-20T10:13:02.149Z</time>
      </trkpt>
      <trkpt lat="48.70297" lon="2.05556">
        <ele>75</ele>
        <time>2021-05-20T10:13:03.149Z</time>
      </trkpt>
      <trkpt lat="48.70298" lon="2.05556">
        <ele>75</ele>
        <time>2021-05-20T10:13:04.149Z</time>
      </trkpt>
      <trkpt lat="48.703" lon="2.05557">
        <ele>75</ele>
        <time>2021-05-20T10:13:05.149Z</time>
      </trkpt>
      <trkpt lat="48.70301" lon="2.05557">
        <ele>75</ele>
        <time>2021-05-20T10:13:06.149Z</time>
      </trkpt>
      <trkpt lat="48.70302" lon="2.05557">
        <ele>75</ele>
        <time>2021-05-20T10:13:07.149Z</time>
      </trkpt>
      <trkpt lat="48.70303" lon="2.05557">
        <ele>75</ele>
        <time>2021-05-20T10:13:08.149Z</time>
      </trkpt>
      <trkpt lat="48.70304" lon="2.05557">
        <ele>75</ele>
        <time>2021-05-20T10:13:09.149Z</time>
      </trkpt>
      <trkpt lat="48.70305" lon="2.05558">
        <ele>75</ele>
        <time>2021-05-20T10:13:10.149Z</time>
      </trkpt>
      <trkpt lat="48.70306" lon="2.05558">
        <ele>75</ele>
        <time>2021-05-20T10:13:11.149Z</time>
      </trkpt>
      <trkpt lat="48.70307" lon="2.05558">
        <ele>75</ele>
        <time>2021-05-20T10:13:12.149Z</time>
      </trkpt>
      <trkpt lat="48.70309" lon="2.05558">
        <ele>75</ele>
        <time>2021-05-20T10:13:13.149Z</time>
      </trkpt>
      <trkpt lat="48.7031" lon="2.05558">
        <ele>74</ele>
        <time>2021-05-20T10:13:14.149Z</time>
      </trkpt>
      <trkpt lat="48.70311" lon="2.05558">
        <ele>75</ele>
        <time>2021-05-20T10:13:15.149Z</time>
      </trkpt>
      <trkpt lat="48.70312" lon="2.05559">
        <ele>75</ele>
        <time>2021-05-20T10:13:16.149Z</time>
      </trkpt>
      <trkpt lat="48.70314" lon="2.05559">
        <ele>75</ele>
        <time>2021-05-20T10:13:17.149Z</time>
      </trkpt>
      <trkpt lat="48.70315" lon="2.05559">
        <ele>75</ele>
        <time>2021-05-20T10:13:18.149Z</time>
      </trkpt>
      <trkpt lat="48.70316" lon="2.05559">
        <ele>75</ele>
        <time>2021-05-20T10:13:19.149Z</time>
      </trkpt>
      <trkpt lat="48.70317" lon="2.0556">
        <ele>75</ele>
        <time>2021-05-20T10:13:20.149Z</time>
      </trkpt>
      <trkpt lat="48.70318" lon="2.0556">
        <ele>75</ele>
        <time>2021-05-20T10:13:21.149Z</time>
      </trkpt>
      <trkpt lat="48.7032" lon="2.0556">
        <ele>75</ele>
        <time>2021-05-20T10:13:22.149Z</time>
      </trkpt>
      <trkpt lat="48.70321" lon="2.0556">
        <ele>75</ele>
        <time>2021-05-20T10:13:23.149Z</time>
      </trkpt>
      <trkpt lat="48.70322" lon="2.0556">
        <ele>75</ele>
        <time>2021-05-20T10:13:24.149Z</time>
      </trkpt>
      <trkpt lat="48.70323" lon="2.05561">
        <ele>75</ele>
        <time>2021-05-20T10:13:25.149Z</time>
      </trkpt>
      <trkpt lat="48.70324" lon="2.05561">
        <ele>75</ele>
        <time>2021-05-20T10:13:26.149Z</time>
      </trkpt>
      <trkpt lat="48.70325" lon="2.05561">
        <ele>75</ele>
        <time>2021-05-20T10:13:27.149Z</time>
      </trkpt>
      <trkpt lat="48.70327" lon="2.05561">
        <ele>75</ele>
        <time>2021-05-20T10:13:28.149Z</time>
      </trkpt>
      <trkpt lat="48.70328" lon="2.05561">
        <ele>76</ele>
        <time>2021-05-20T10:13:29.149Z</time>
      </trkpt>
      <trkpt lat="48.70329" lon="2.05561">
        <ele>76</ele>
        <time>2021-05-20T10:13:30.149Z</time>
      </trkpt>
      <trkpt lat="48.7033" lon="2.05561">
        <ele>76</ele>
        <time>2021-05-20T10:13:31.149Z</time>
      </trkpt>
      <trkpt lat="48.70331" lon="2.05561">
        <ele>76</ele>
        <time>2021-05-20T10:13:32.149Z</time>
      </trkpt>
      <trkpt lat="48.70333" lon="2.05562">
        <ele>76</ele>
        <time>2021-05-20T10:13:33.149Z</time>
      </trkpt>
      <trkpt lat="48.70334" lon="2.05562">
        <ele>76</ele>
        <time>2021-05-20T10:13:34.149Z</time>
      </trkpt>
      <trkpt lat="48.70335" lon="2.05562">
        <ele>76</ele>
        <time>2021-05-20T10:13:35.149Z</time>
      </trkpt>
      <trkpt lat="48.70336" lon="2.05562">
        <ele>76</ele>
        <time>2021-05-20T10:13:36.149Z</time>
      </trkpt>
      <trkpt lat="48.70338" lon="2.05562">
        <ele>76</ele>
        <time>2021-05-20T10:13:37.149Z</time>
      </trkpt>
      <trkpt lat="48.70339" lon="2.05562">
        <ele>76</ele>
        <time>2021-05-20T10:13:38.149Z</time>
      </trkpt>
      <trkpt lat="48.7034" lon="2.05562">
        <ele>76</ele>
        <time>2021-05-20T10:13:39.149Z</time>
      </trkpt>
      <trkpt lat="48.70341" lon="2.05563">
        <ele>76</ele>
        <time>2021-05-20T10:13:40.149Z</time>
      </trkpt>
      <trkpt lat="48.70343" lon="2.05562">
        <ele>77</ele>
        <time>2021-05-20T10:13:41.149Z</time>
      </trkpt>
      <trkpt lat="48.70344" lon="2.05563">
        <ele>77</ele>
        <time>2021-05-20T10:13:42.149Z</time>
      </trkpt>
      <trkpt lat="48.70345" lon="2.05563">
        <ele>77</ele>
        <time>2021-05-20T10:13:43.149Z</time>
      </trkpt>
      <trkpt lat="48.70346" lon="2.05563">
        <ele>77</ele>
        <time>2021-05-20T10:13:44.149Z</time>
      </trkpt>
      <trkpt lat="48.70348" lon="2.05563">
        <ele>77</ele>
        <time>2021-05-20T10:13:45.149Z</time>
      </trkpt>
      <trkpt lat="48.70349" lon="2.05563">
        <ele>77</ele>
        <time>2021-05-20T10:13:46.149Z</time>
      </trkpt>
      <trkpt lat="48.7035" lon="2.05563">
        <ele>77</ele>
        <time>2021-05-20T10:13:47.149Z</time>
      </trkpt>
      <trkpt lat="48.70351" lon="2.05563">
        <ele>76</ele>
        <time>2021-05-20T10:13:48.149Z</time>
      </trkpt>
      <trkpt lat="48.70352" lon="2.05563">
        <ele>76</ele>
        <time>2021-05-20T10:13:49.149Z</time>
      </trkpt>
      <trkpt lat="48.70353" lon="2.05563">
        <ele>76</ele>
        <time>2021-05-20T10:13:50.149Z</time>
      </trkpt>
      <trkpt lat="48.70355" lon="2.05563">
        <ele>76</ele>
        <time>2021-05-20T10:13:51.149Z</time>
      </trkpt>
      <trkpt lat="48.70356" lon="2.05563">
        <ele>76</ele>
        <time>2021-05-20T10:13:52.149Z</time>
      </trkpt>
      <trkpt lat="48.70357" lon="2.05563">
        <ele>77</ele>
        <time>2021-05-20T10:13:53.149Z</time>
      </trkpt>
      <trkpt lat="48.70358" lon="2.05563">
        <ele>77</ele>
        <time>2021-05-20T10:13:54.149Z</time>
      </trkpt>
      <trkpt lat="48.70359" lon="2.05564">
        <ele>77</ele>
        <time>2021-05-20T10:13:55.149Z</time>
      </trkpt>
      <trkpt lat="48.70361" lon="2.05564">
        <ele>77</ele>
        <time>2021-05-20T10:13:56.149Z</time>
      </trkpt>
      <trkpt lat="48.70362" lon="2.05564">
        <ele>77</ele>
        <time>2021-05-20T10:13:57.149Z</time>
      </trkpt>
      <trkpt lat="48.70363" lon="2.05564">
        <ele>77</ele>
        <time>2021-05-20T10:13:58.149Z</time>
      </trkpt>
      <trkpt lat="48.70364" lon="2.05564">
        <ele>77</ele>
        <time>2021-05-20T10:13:59.149Z</time>
      </trkpt>
      <trkpt lat="48.70365" lon="2.05564">
        <ele>77</ele>
        <time>2021-05-20T10:14:00.149Z</time>
      </trkpt>
      <trkpt lat="48.70367" lon="2.05564">
        <ele>76</ele>
        <time>2021-05-20T10:14:01.149Z</time>
      </trkpt>
      <trkpt lat="48.70368" lon="2.05564">
        <ele>76</ele>
        <time>2021-05-20T10:14:02.149Z</time>
      </trkpt>
      <trkpt lat="48.70369" lon="2.05564">
        <ele>76</ele>
        <time>2021-05-20T10:14:03.149Z</time>
      </trkpt>
      <trkpt lat="48.7037" lon="2.05564">
        <ele>76</ele>
        <time>2021-05-20T10:14:04.149Z</time>
      </trkpt>
      <trkpt lat="48.70372" lon="2.05564">
        <ele>76</ele>
        <time>2021-05-20T10:14:05.149Z</time>
      </trkpt>
      <trkpt lat="48.70373" lon="2.05564">
        <ele>76</ele>
        <time>2021-05-20T10:14:06.149Z</time>
      </trkpt>
      <trkpt lat="48.70374" lon="2.05564">
        <ele>76</ele>
        <time>2021-05-20T10:14:07.149Z</time>
      </trkpt>
      <trkpt lat="48.70376" lon="2.05564">
        <ele>76</ele>
        <time>2021-05-20T10:14:08.149Z</time>
      </trkpt>
      <trkpt lat="48.70377" lon="2.05564">
        <ele>76</ele>
        <time>2021-05-20T10:14:09.149Z</time>
      </trkpt>
      <trkpt lat="48.70378" lon="2.05564">
        <ele>76</ele>
        <time>2021-05-20T10:14:10.149Z</time>
      </trkpt>
      <trkpt lat="48.7038" lon="2.05564">
        <ele>75</ele>
        <time>2021-05-20T10:14:11.149Z</time>
      </trkpt>
      <trkpt lat="48.70381" lon="2.05564">
        <ele>75</ele>
        <time>2021-05-20T10:14:12.149Z</time>
      </trkpt>
      <trkpt lat="48.70382" lon="2.05564">
        <ele>75</ele>
        <time>2021-05-20T10:14:13.149Z</time>
      </trkpt>
      <trkpt lat="48.70383" lon="2.05564">
        <ele>75</ele>
        <time>2021-05-20T10:14:14.149Z</time>
      </trkpt>
      <trkpt lat="48.70385" lon="2.05564">
        <ele>75</ele>
        <time>2021-05-20T10:14:15.149Z</time>
      </trkpt>
      <trkpt lat="48.70386" lon="2.05564">
        <ele>75</ele>
        <time>2021-05-20T10:14:16.149Z</time>
      </trkpt>
      <trkpt lat="48.70387" lon="2.05564">
        <ele>75</ele>
        <time>2021-05-20T10:14:17.149Z</time>
      </trkpt>
      <trkpt lat="48.70389" lon="2.05564">
        <ele>75</ele>
        <time>2021-05-20T10:14:18.149Z</time>
      </trkpt>
      <trkpt lat="48.7039" lon="2.05564">
        <ele>75</ele>
        <time>2021-05-20T10:14:19.149Z</time>
      </trkpt>
      <trkpt lat="48.70391" lon="2.05564">
        <ele>75</ele>
        <time>2021-05-20T10:14:20.149Z</time>
      </trkpt>
      <trkpt lat="48.70392" lon="2.05564">
        <ele>75</ele>
        <time>2021-05-20T10:14:21.149Z</time>
      </trkpt>
      <trkpt lat="48.70394" lon="2.05564">
        <ele>75</ele>
        <time>2021-05-20T10:14:22.149Z</time>
      </trkpt>
      <trkpt lat="48.70395" lon="2.05565">
        <ele>75</ele>
        <time>2021-05-20T10:14:23.149Z</time>
      </trkpt>
      <trkpt lat="48.70396" lon="2.05565">
        <ele>75</ele>
        <time>2021-05-20T10:14:24.149Z</time>
      </trkpt>
      <trkpt lat="48.70397" lon="2.05564">
        <ele>75</ele>
        <time>2021-05-20T10:14:25.149Z</time>
      </trkpt>
      <trkpt lat="48.70398" lon="2.05564">
        <ele>75</ele>
        <time>2021-05-20T10:14:26.149Z</time>
      </trkpt>
      <trkpt lat="48.70399" lon="2.05564">
        <ele>75</ele>
        <time>2021-05-20T10:14:27.149Z</time>
      </trkpt>
      <trkpt lat="48.704" lon="2.05563">
        <ele>75</ele>
        <time>2021-05-20T10:14:28.149Z</time>
      </trkpt>
      <trkpt lat="48.70401" lon="2.05563">
        <ele>75</ele>
        <time>2021-05-20T10:14:29.149Z</time>
      </trkpt>
      <trkpt lat="48.70402" lon="2.05563">
        <ele>74</ele>
        <time>2021-05-20T10:14:30.149Z</time>
      </trkpt>
      <trkpt lat="48.70402" lon="2.05563">
        <ele>74</ele>
        <time>2021-05-20T10:14:31.149Z</time>
      </trkpt>
      <trkpt lat="48.70403" lon="2.05563">
        <ele>74</ele>
        <time>2021-05-20T10:14:32.149Z</time>
      </trkpt>
      <trkpt lat="48.70403" lon="2.05563">
        <ele>74</ele>
        <time>2021-05-20T10:14:33.149Z</time>
      </trkpt>
      <trkpt lat="48.70404" lon="2.05563">
        <ele>74</ele>
        <time>2021-05-20T10:14:34.149Z</time>
      </trkpt>
      <trkpt lat="48.70404" lon="2.05563">
        <ele>74</ele>
        <time>2021-05-20T10:14:35.149Z</time>
      </trkpt>
      <trkpt lat="48.70405" lon="2.05563">
        <ele>74</ele>
        <time>2021-05-20T10:14:36.149Z</time>
      </trkpt>
      <trkpt lat="48.70405" lon="2.05563">
        <ele>74</ele>
        <time>2021-05-20T10:14:37.149Z</time>
      </trkpt>
      <trkpt lat="48.70406" lon="2.05562">
        <ele>74</ele>
        <time>2021-05-20T10:14:38.149Z</time>
      </trkpt>
      <trkpt lat="48.70407" lon="2.05562">
        <ele>74</ele>
        <time>2021-05-20T10:14:39.149Z</time>
      </trkpt>
      <trkpt lat="48.70408" lon="2.05561">
        <ele>74</ele>
        <time>2021-05-20T10:14:40.149Z</time>
      </trkpt>
      <trkpt lat="48.70408" lon="2.05561">
        <ele>74</ele>
        <time>2021-05-20T10:14:41.149Z</time>
      </trkpt>
      <trkpt lat="48.70409" lon="2.05561">
        <ele>74</ele>
        <time>2021-05-20T10:14:42.149Z</time>
      </trkpt>
      <trkpt lat="48.7041" lon="2.05561">
        <ele>74</ele>
        <time>2021-05-20T10:14:43.149Z</time>
      </trkpt>
      <trkpt lat="48.7041" lon="2.05561">
        <ele>74</ele>
        <time>2021-05-20T10:14:44.149Z</time>
      </trkpt>
      <trkpt lat="48.70412" lon="2.05561">
        <ele>74</ele>
        <time>2021-05-20T10:14:45.149Z</time>
      </trkpt>
      <trkpt lat="48.70413" lon="2.0556">
        <ele>74</ele>
        <time>2021-05-20T10:14:46.149Z</time>
      </trkpt>
      <trkpt lat="48.70414" lon="2.0556">
        <ele>74</ele>
        <time>2021-05-20T10:14:47.149Z</time>
      </trkpt>
      <trkpt lat="48.70415" lon="2.0556">
        <ele>74</ele>
        <time>2021-05-20T10:14:48.149Z</time>
      </trkpt>
      <trkpt lat="48.70416" lon="2.0556">
        <ele>74</ele>
        <time>2021-05-20T10:14:49.149Z</time>
      </trkpt>
      <trkpt lat="48.70417" lon="2.0556">
        <ele>74</ele>
        <time>2021-05-20T10:14:50.149Z</time>
      </trkpt>
      <trkpt lat="48.70418" lon="2.05559">
        <ele>74</ele>
        <time>2021-05-20T10:14:51.149Z</time>
      </trkpt>
      <trkpt lat="48.70419" lon="2.05559">
        <ele>74</ele>
        <time>2021-05-20T10:14:52.149Z</time>
      </trkpt>
      <trkpt lat="48.7042" lon="2.05559">
        <ele>74</ele>
        <time>2021-05-20T10:14:53.149Z</time>
      </trkpt>
      <trkpt lat="48.70421" lon="2.05559">
        <ele>74</ele>
        <time>2021-05-20T10:14:54.149Z</time>
      </trkpt>
      <trkpt lat="48.70422" lon="2.05559">
        <ele>74</ele>
        <time>2021-05-20T10:14:55.149Z</time>
      </trkpt>
      <trkpt lat="48.70423" lon="2.05559">
        <ele>74</ele>
        <time>2021-05-20T10:14:56.149Z</time>
      </trkpt>
      <trkpt lat="48.70424" lon="2.05559">
        <ele>74</ele>
        <time>2021-05-20T10:14:57.149Z</time>
      </trkpt>
      <trkpt lat="48.70425" lon="2.0556">
        <ele>75</ele>
        <time>2021-05-20T10:14:58.149Z</time>
      </trkpt>
      <trkpt lat="48.70427" lon="2.0556">
        <ele>75</ele>
        <time>2021-05-20T10:14:59.149Z</time>
      </trkpt>
      <trkpt lat="48.70427" lon="2.0556">
        <ele>75</ele>
        <time>2021-05-20T10:15:00.149Z</time>
      </trkpt>
      <trkpt lat="48.70429" lon="2.0556">
        <ele>75</ele>
        <time>2021-05-20T10:15:01.149Z</time>
      </trkpt>
      <trkpt lat="48.7043" lon="2.0556">
        <ele>75</ele>
        <time>2021-05-20T10:15:02.149Z</time>
      </trkpt>
      <trkpt lat="48.70431" lon="2.0556">
        <ele>75</ele>
        <time>2021-05-20T10:15:03.149Z</time>
      </trkpt>
      <trkpt lat="48.70432" lon="2.05561">
        <ele>75</ele>
        <time>2021-05-20T10:15:04.149Z</time>
      </trkpt>
      <trkpt lat="48.70433" lon="2.05561">
        <ele>75</ele>
        <time>2021-05-20T10:15:05.149Z</time>
      </trkpt>
      <trkpt lat="48.70434" lon="2.05562">
        <ele>75</ele>
        <time>2021-05-20T10:15:06.149Z</time>
      </trkpt>
      <trkpt lat="48.70435" lon="2.05562">
        <ele>75</ele>
        <time>2021-05-20T10:15:07.149Z</time>
      </trkpt>
      <trkpt lat="48.70436" lon="2.05562">
        <ele>75</ele>
        <time>2021-05-20T10:15:08.149Z</time>
      </trkpt>
      <trkpt lat="48.70437" lon="2.05562">
        <ele>75</ele>
        <time>2021-05-20T10:15:09.149Z</time>
      </trkpt>
      <trkpt lat="48.70438" lon="2.05562">
        <ele>75</ele>
        <time>2021-05-20T10:15:10.149Z</time>
      </trkpt>
      <trkpt lat="48.7044" lon="2.05563">
        <ele>75</ele>
        <time>2021-05-20T10:15:11.149Z</time>
      </trkpt>
      <trkpt lat="48.70441" lon="2.05563">
        <ele>75</ele>
        <time>2021-05-20T10:15:12.149Z</time>
      </trkpt>
      <trkpt lat="48.70442" lon="2.05563">
        <ele>75</ele>
        <time>2021-05-20T10:15:13.149Z</time>
      </trkpt>
      <trkpt lat="48.70443" lon="2.05563">
        <ele>75</ele>
        <time>2021-05-20T10:15:14.149Z</time>
      </trkpt>
      <trkpt lat="48.70444" lon="2.05563">
        <ele>75</ele>
        <time>2021-05-20T10:15:15.149Z</time>
      </trkpt>
      <trkpt lat="48.70445" lon="2.05563">
        <ele>75</ele>
        <time>2021-05-20T10:15:16.149Z</time>
      </trkpt>
      <trkpt lat="48.70446" lon="2.05563">
        <ele>75</ele>
        <time>2021-05-20T10:15:17.149Z</time>
      </trkpt>
      <trkpt lat="48.70448" lon="2.05563">
        <ele>75</ele>
        <time>2021-05-20T10:15:18.149Z</time>
      </trkpt>
      <trkpt lat="48.70449" lon="2.05563">
        <ele>75</ele>
        <time>2021-05-20T10:15:19.149Z</time>
      </trkpt>
      <trkpt lat="48.7045" lon="2.05563">
        <ele>75</ele>
        <time>2021-05-20T10:15:20.149Z</time>
      </trkpt>
      <trkpt lat="48.70451" lon="2.05563">
        <ele>75</ele>
        <time>2021-05-20T10:15:21.149Z</time>
      </trkpt>
      <trkpt lat="48.70452" lon="2.05563">
        <ele>75</ele>
        <time>2021-05-20T10:15:22.149Z</time>
      </trkpt>
      <trkpt lat="48.70454" lon="2.05563">
        <ele>75</ele>
        <time>2021-05-20T10:15:23.149Z</time>
      </trkpt>
      <trkpt lat="48.70455" lon="2.05563">
        <ele>75</ele>
        <time>2021-05-20T10:15:24.149Z</time>
      </trkpt>
      <trkpt lat="48.70456" lon="2.05563">
        <ele>75</ele>
        <time>2021-05-20T10:15:25.149Z</time>
      </trkpt>
      <trkpt lat="48.70457" lon="2.05563">
        <ele>76</ele>
        <time>2021-05-20T10:15:26.149Z</time>
      </trkpt>
      <trkpt lat="48.70458" lon="2.05563">
        <ele>76</ele>
        <time>2021-05-20T10:15:27.149Z</time>
      </trkpt>
      <trkpt lat="48.70459" lon="2.05563">
        <ele>76</ele>
        <time>2021-05-20T10:15:28.149Z</time>
      </trkpt>
      <trkpt lat="48.70461" lon="2.05563">
        <ele>76</ele>
        <time>2021-05-20T10:15:29.149Z</time>
      </trkpt>
      <trkpt lat="48.70462" lon="2.05562">
        <ele>76</ele>
        <time>2021-05-20T10:15:30.149Z</time>
      </trkpt>
      <trkpt lat="48.70463" lon="2.05562">
        <ele>76</ele>
        <time>2021-05-20T10:15:31.149Z</time>
      </trkpt>
      <trkpt lat="48.70464" lon="2.05562">
        <ele>76</ele>
        <time>2021-05-20T10:15:32.149Z</time>
      </trkpt>
      <trkpt lat="48.70465" lon="2.05562">
        <ele>76</ele>
        <time>2021-05-20T10:15:33.149Z</time>
      </trkpt>
      <trkpt lat="48.70466" lon="2.05562">
        <ele>76</ele>
        <time>2021-05-20T10:15:34.149Z</time>
      </trkpt>
      <trkpt lat="48.70467" lon="2.05562">
        <ele>76</ele>
        <time>2021-05-20T10:15:35.149Z</time>
      </trkpt>
      <trkpt lat="48.70468" lon="2.05562">
        <ele>76</ele>
        <time>2021-05-20T10:15:36.149Z</time>
      </trkpt>
      <trkpt lat="48.70469" lon="2.05561">
        <ele>77</ele>
        <time>2021-05-20T10:15:37.149Z</time>
      </trkpt>
      <trkpt lat="48.7047" lon="2.05561">
        <ele>77</ele>
        <time>2021-05-20T10:15:38.149Z</time>
      </trkpt>
      <trkpt lat="48.70471" lon="2.0556">
        <ele>77</ele>
        <time>2021-05-20T10:15:39.149Z</time>
      </trkpt>
      <trkpt lat="48.70472" lon="2.05559">
        <ele>77</ele>
        <time>2021-05-20T10:15:40.149Z</time>
      </trkpt>
      <trkpt lat="48.70473" lon="2.05559">
        <ele>77</ele>
        <time>2021-05-20T10:15:41.149Z</time>
      </trkpt>
      <trkpt lat="48.70474" lon="2.05558">
        <ele>77</ele>
        <time>2021-05-20T10:15:42.149Z</time>
      </trkpt>
      <trkpt lat="48.70475" lon="2.05558">
        <ele>77</ele>
        <time>2021-05-20T10:15:43.149Z</time>
      </trkpt>
      <trkpt lat="48.70477" lon="2.05558">
        <ele>77</ele>
        <time>2021-05-20T10:15:44.149Z</time>
      </trkpt>
      <trkpt lat="48.70478" lon="2.05558">
        <ele>77</ele>
        <time>2021-05-20T10:15:45.149Z</time>
      </trkpt>
      <trkpt lat="48.70479" lon="2.05559">
        <ele>77</ele>
        <time>2021-05-20T10:15:46.149Z</time>
      </trkpt>
      <trkpt lat="48.7048" lon="2.05559">
        <ele>78</ele>
        <time>2021-05-20T10:15:47.149Z</time>
      </trkpt>
      <trkpt lat="48.70481" lon="2.05559">
        <ele>78</ele>
        <time>2021-05-20T10:15:48.149Z</time>
      </trkpt>
      <trkpt lat="48.70482" lon="2.0556">
        <ele>78</ele>
        <time>2021-05-20T10:15:49.149Z</time>
      </trkpt>
      <trkpt lat="48.70483" lon="2.0556">
        <ele>78</ele>
        <time>2021-05-20T10:15:50.149Z</time>
      </trkpt>
      <trkpt lat="48.70484" lon="2.05561">
        <ele>79</ele>
        <time>2021-05-20T10:15:51.149Z</time>
      </trkpt>
      <trkpt lat="48.70485" lon="2.05561">
        <ele>79</ele>
        <time>2021-05-20T10:15:52.149Z</time>
      </trkpt>
      <trkpt lat="48.70486" lon="2.05561">
        <ele>79</ele>
        <time>2021-05-20T10:15:53.149Z</time>
      </trkpt>
      <trkpt lat="48.70487" lon="2.05561">
        <ele>80</ele>
        <time>2021-05-20T10:15:54.149Z</time>
      </trkpt>
      <trkpt lat="48.70488" lon="2.05561">
        <ele>80</ele>
        <time>2021-05-20T10:15:55.149Z</time>
      </trkpt>
      <trkpt lat="48.70489" lon="2.05561">
        <ele>81</ele>
        <time>2021-05-20T10:15:56.149Z</time>
      </trkpt>
      <trkpt lat="48.7049" lon="2.05561">
        <ele>81</ele>
        <time>2021-05-20T10:15:57.149Z</time>
      </trkpt>
      <trkpt lat="48.70491" lon="2.05561">
        <ele>81</ele>
        <time>2021-05-20T10:15:58.149Z</time>
      </trkpt>
      <trkpt lat="48.70492" lon="2.05561">
        <ele>82</ele>
        <time>2021-05-20T10:15:59.149Z</time>
      </trkpt>
      <trkpt lat="48.70493" lon="2.05561">
        <ele>82</ele>
        <time>2021-05-20T10:16:00.149Z</time>
      </trkpt>
      <trkpt lat="48.70494" lon="2.05562">
        <ele>82</ele>
        <time>2021-05-20T10:16:01.149Z</time>
      </trkpt>
      <trkpt lat="48.70495" lon="2.05562">
        <ele>83</ele>
        <time>2021-05-20T10:16:02.149Z</time>
      </trkpt>
      <trkpt lat="48.70497" lon="2.05563">
        <ele>83</ele>
        <time>2021-05-20T10:16:03.149Z</time>
      </trkpt>
      <trkpt lat="48.70498" lon="2.05563">
        <ele>83</ele>
        <time>2021-05-20T10:16:04.149Z</time>
      </trkpt>
      <trkpt lat="48.70499" lon="2.05563">
        <ele>84</ele>
        <time>2021-05-20T10:16:05.149Z</time>
      </trkpt>
      <trkpt lat="48.705" lon="2.05564">
        <ele>84</ele>
        <time>2021-05-20T10:16:06.149Z</time>
      </trkpt>
      <trkpt lat="48.705" lon="2.05564">
        <ele>85</ele>
        <time>2021-05-20T10:16:07.149Z</time>
      </trkpt>
      <trkpt lat="48.70502" lon="2.05565">
        <ele>85</ele>
        <time>2021-05-20T10:16:08.149Z</time>
      </trkpt>
      <trkpt lat="48.70503" lon="2.05565">
        <ele>85</ele>
        <time>2021-05-20T10:16:09.149Z</time>
      </trkpt>
      <trkpt lat="48.70504" lon="2.05565">
        <ele>86</ele>
        <time>2021-05-20T10:16:10.149Z</time>
      </trkpt>
      <trkpt lat="48.70505" lon="2.05566">
        <ele>86</ele>
        <time>2021-05-20T10:16:11.149Z</time>
      </trkpt>
      <trkpt lat="48.70506" lon="2.05566">
        <ele>86</ele>
        <time>2021-05-20T10:16:12.149Z</time>
      </trkpt>
      <trkpt lat="48.70507" lon="2.05567">
        <ele>87</ele>
        <time>2021-05-20T10:16:13.149Z</time>
      </trkpt>
      <trkpt lat="48.70508" lon="2.05567">
        <ele>87</ele>
        <time>2021-05-20T10:16:14.149Z</time>
      </trkpt>
      <trkpt lat="48.70509" lon="2.05568">
        <ele>88</ele>
        <time>2021-05-20T10:16:15.149Z</time>
      </trkpt>
      <trkpt lat="48.7051" lon="2.05568">
        <ele>88</ele>
        <time>2021-05-20T10:16:16.149Z</time>
      </trkpt>
      <trkpt lat="48.70511" lon="2.05568">
        <ele>89</ele>
        <time>2021-05-20T10:16:17.149Z</time>
      </trkpt>
      <trkpt lat="48.70512" lon="2.05569">
        <ele>89</ele>
        <time>2021-05-20T10:16:18.149Z</time>
      </trkpt>
      <trkpt lat="48.70512" lon="2.05569">
        <ele>89</ele>
        <time>2021-05-20T10:16:19.149Z</time>
      </trkpt>
      <trkpt lat="48.70513" lon="2.0557">
        <ele>90</ele>
        <time>2021-05-20T10:16:20.149Z</time>
      </trkpt>
      <trkpt lat="48.70514" lon="2.0557">
        <ele>90</ele>
        <time>2021-05-20T10:16:21.149Z</time>
      </trkpt>
      <trkpt lat="48.70515" lon="2.0557">
        <ele>91</ele>
        <time>2021-05-20T10:16:22.149Z</time>
      </trkpt>
      <trkpt lat="48.70516" lon="2.05571">
        <ele>91</ele>
        <time>2021-05-20T10:16:23.149Z</time>
      </trkpt>
      <trkpt lat="48.70517" lon="2.05572">
        <ele>92</ele>
        <time>2021-05-20T10:16:24.149Z</time>
      </trkpt>
      <trkpt lat="48.70518" lon="2.05572">
        <ele>92</ele>
        <time>2021-05-20T10:16:25.149Z</time>
      </trkpt>
      <trkpt lat="48.70519" lon="2.05572">
        <ele>93</ele>
        <time>2021-05-20T10:16:26.149Z</time>
      </trkpt>
      <trkpt lat="48.70519" lon="2.05573">
        <ele>93</ele>
        <time>2021-05-20T10:16:27.149Z</time>
      </trkpt>
      <trkpt lat="48.7052" lon="2.05573">
        <ele>94</ele>
        <time>2021-05-20T10:16:28.149Z</time>
      </trkpt>
      <trkpt lat="48.70521" lon="2.05574">
        <ele>94</ele>
        <time>2021-05-20T10:16:29.149Z</time>
      </trkpt>
      <trkpt lat="48.70522" lon="2.05574">
        <ele>95</ele>
        <time>2021-05-20T10:16:30.149Z</time>
      </trkpt>
      <trkpt lat="48.70523" lon="2.05575">
        <ele>95</ele>
        <time>2021-05-20T10:16:31.149Z</time>
      </trkpt>
      <trkpt lat="48.70524" lon="2.05575">
        <ele>96</ele>
        <time>2021-05-20T10:16:32.149Z</time>
      </trkpt>
      <trkpt lat="48.70525" lon="2.05576">
        <ele>96</ele>
        <time>2021-05-20T10:16:33.149Z</time>
      </trkpt>
      <trkpt lat="48.70526" lon="2.05577">
        <ele>96</ele>
        <time>2021-05-20T10:16:34.149Z</time>
      </trkpt>
      <trkpt lat="48.70526" lon="2.05577">
        <ele>97</ele>
        <time>2021-05-20T10:16:35.149Z</time>
      </trkpt>
      <trkpt lat="48.70527" lon="2.05578">
        <ele>97</ele>
        <time>2021-05-20T10:16:36.149Z</time>
      </trkpt>
      <trkpt lat="48.70528" lon="2.05579">
        <ele>98</ele>
        <time>2021-05-20T10:16:37.149Z</time>
      </trkpt>
      <trkpt lat="48.70529" lon="2.05579">
        <ele>98</ele>
        <time>2021-05-20T10:16:38.149Z</time>
      </trkpt>
      <trkpt lat="48.7053" lon="2.0558">
        <ele>98</ele>
        <time>2021-05-20T10:16:39.149Z</time>
      </trkpt>
      <trkpt lat="48.70531" lon="2.0558">
        <ele>98</ele>
        <time>2021-05-20T10:16:40.149Z</time>
      </trkpt>
      <trkpt lat="48.70532" lon="2.05581">
        <ele>99</ele>
        <time>2021-05-20T10:16:41.149Z</time>
      </trkpt>
      <trkpt lat="48.70532" lon="2.05581">
        <ele>99</ele>
        <time>2021-05-20T10:16:42.149Z</time>
      </trkpt>
      <trkpt lat="48.70533" lon="2.05582">
        <ele>99</ele>
        <time>2021-05-20T10:16:43.149Z</time>
      </trkpt>
      <trkpt lat="48.70534" lon="2.05582">
        <ele>100</ele>
        <time>2021-05-20T10:16:44.149Z</time>
      </trkpt>
      <trkpt lat="48.70535" lon="2.05582">
        <ele>100</ele>
        <time>2021-05-20T10:16:45.149Z</time>
      </trkpt>
      <trkpt lat="48.70536" lon="2.05583">
        <ele>100</ele>
        <time>2021-05-20T10:16:46.149Z</time>
      </trkpt>
      <trkpt lat="48.70537" lon="2.05583">
        <ele>100</ele>
        <time>2021-05-20T10:16:47.149Z</time>
      </trkpt>
      <trkpt lat="48.70537" lon="2.05583">
        <ele>101</ele>
        <time>2021-05-20T10:16:48.149Z</time>
      </trkpt>
      <trkpt lat="48.70538" lon="2.05584">
        <ele>101</ele>
        <time>2021-05-20T10:16:49.149Z</time>
      </trkpt>
      <trkpt lat="48.70539" lon="2.05584">
        <ele>101</ele>
        <time>2021-05-20T10:16:50.149Z</time>
      </trkpt>
      <trkpt lat="48.7054" lon="2.05585">
        <ele>101</ele>
        <time>2021-05-20T10:16:51.149Z</time>
      </trkpt>
      <trkpt lat="48.70541" lon="2.05585">
        <ele>101</ele>
        <time>2021-05-20T10:16:52.149Z</time>
      </trkpt>
      <trkpt lat="48.70542" lon="2.05585">
        <ele>101</ele>
        <time>2021-05-20T10:16:53.149Z</time>
      </trkpt>
      <trkpt lat="48.70543" lon="2.05586">
        <ele>101</ele>
        <time>2021-05-20T10:16:54.149Z</time>
      </trkpt>
      <trkpt lat="48.70544" lon="2.05587">
        <ele>101</ele>
        <time>2021-05-20T10:16:55.149Z</time>
      </trkpt>
      <trkpt lat="48.70545" lon="2.05587">
        <ele>101</ele>
        <time>2021-05-20T10:16:56.149Z</time>
      </trkpt>
      <trkpt lat="48.70546" lon="2.05588">
        <ele>101</ele>
        <time>2021-05-20T10:16:57.149Z</time>
      </trkpt>
      <trkpt lat="48.70546" lon="2.05589">
        <ele>101</ele>
        <time>2021-05-20T10:16:58.149Z</time>
      </trkpt>
      <trkpt lat="48.70547" lon="2.0559">
        <ele>101</ele>
        <time>2021-05-20T10:16:59.149Z</time>
      </trkpt>
      <trkpt lat="48.70548" lon="2.05591">
        <ele>101</ele>
        <time>2021-05-20T10:17:00.149Z</time>
      </trkpt>
      <trkpt lat="48.70548" lon="2.05592">
        <ele>100</ele>
        <time>2021-05-20T10:17:01.149Z</time>
      </trkpt>
      <trkpt lat="48.70549" lon="2.05593">
        <ele>100</ele>
        <time>2021-05-20T10:17:02.149Z</time>
      </trkpt>
      <trkpt lat="48.7055" lon="2.05594">
        <ele>100</ele>
        <time>2021-05-20T10:17:03.149Z</time>
      </trkpt>
      <trkpt lat="48.7055" lon="2.05595">
        <ele>100</ele>
        <time>2021-05-20T10:17:04.149Z</time>
      </trkpt>
      <trkpt lat="48.70551" lon="2.05596">
        <ele>100</ele>
        <time>2021-05-20T10:17:05.149Z</time>
      </trkpt>
      <trkpt lat="48.70552" lon="2.05596">
        <ele>100</ele>
        <time>2021-05-20T10:17:06.149Z</time>
      </trkpt>
      <trkpt lat="48.70553" lon="2.05597">
        <ele>100</ele>
        <time>2021-05-20T10:17:07.149Z</time>
      </trkpt>
      <trkpt lat="48.70554" lon="2.05598">
        <ele>100</ele>
        <time>2021-05-20T10:17:08.149Z</time>
      </trkpt>
      <trkpt lat="48.70554" lon="2.05598">
        <ele>101</ele>
        <time>2021-05-20T10:17:09.149Z</time>
      </trkpt>
      <trkpt lat="48.70555" lon="2.05599">
        <ele>101</ele>
        <time>2021-05-20T10:17:10.149Z</time>
      </trkpt>
      <trkpt lat="48.70556" lon="2.05599">
        <ele>101</ele>
        <time>2021-05-20T10:17:11.149Z</time>
      </trkpt>
      <trkpt lat="48.70557" lon="2.056">
        <ele>101</ele>
        <time>2021-05-20T10:17:12.149Z</time>
      </trkpt>
      <trkpt lat="48.70559" lon="2.056">
        <ele>101</ele>
        <time>2021-05-20T10:17:13.149Z</time>
      </trkpt>
      <trkpt lat="48.7056" lon="2.05601">
        <ele>101</ele>
        <time>2021-05-20T10:17:14.149Z</time>
      </trkpt>
      <trkpt lat="48.70561" lon="2.05601">
        <ele>101</ele>
        <time>2021-05-20T10:17:15.149Z</time>
      </trkpt>
      <trkpt lat="48.70562" lon="2.05602">
        <ele>101</ele>
        <time>2021-05-20T10:17:16.149Z</time>
      </trkpt>
      <trkpt lat="48.70563" lon="2.05602">
        <ele>101</ele>
        <time>2021-05-20T10:17:17.149Z</time>
      </trkpt>
      <trkpt lat="48.70564" lon="2.05603">
        <ele>101</ele>
        <time>2021-05-20T10:17:18.149Z</time>
      </trkpt>
      <trkpt lat="48.70565" lon="2.05603">
        <ele>101</ele>
        <time>2021-05-20T10:17:19.149Z</time>
      </trkpt>
      <trkpt lat="48.70566" lon="2.05603">
        <ele>101</ele>
        <time>2021-05-20T10:17:20.149Z</time>
      </trkpt>
      <trkpt lat="48.70567" lon="2.05604">
        <ele>100</ele>
        <time>2021-05-20T10:17:21.149Z</time>
      </trkpt>
      <trkpt lat="48.70568" lon="2.05604">
        <ele>100</ele>
        <time>2021-05-20T10:17:22.149Z</time>
      </trkpt>
      <trkpt lat="48.70569" lon="2.05605">
        <ele>100</ele>
        <time>2021-05-20T10:17:23.149Z</time>
      </trkpt>
      <trkpt lat="48.7057" lon="2.05605">
        <ele>100</ele>
        <time>2021-05-20T10:17:24.149Z</time>
      </trkpt>
      <trkpt lat="48.70571" lon="2.05605">
        <ele>100</ele>
        <time>2021-05-20T10:17:25.149Z</time>
      </trkpt>
      <trkpt lat="48.70572" lon="2.05605">
        <ele>100</ele>
        <time>2021-05-20T10:17:26.149Z</time>
      </trkpt>
      <trkpt lat="48.70573" lon="2.05606">
        <ele>100</ele>
        <time>2021-05-20T10:17:27.149Z</time>
      </trkpt>
      <trkpt lat="48.70575" lon="2.05606">
        <ele>100</ele>
        <time>2021-05-20T10:17:28.149Z</time>
      </trkpt>
      <trkpt lat="48.70576" lon="2.05606">
        <ele>99</ele>
        <time>2021-05-20T10:17:29.149Z</time>
      </trkpt>
      <trkpt lat="48.70577" lon="2.05606">
        <ele>99</ele>
        <time>2021-05-20T10:17:30.149Z</time>
      </trkpt>
      <trkpt lat="48.70578" lon="2.05606">
        <ele>99</ele>
        <time>2021-05-20T10:17:31.149Z</time>
      </trkpt>
      <trkpt lat="48.70579" lon="2.05606">
        <ele>99</ele>
        <time>2021-05-20T10:17:32.149Z</time>
      </trkpt>
      <trkpt lat="48.70581" lon="2.05606">
        <ele>99</ele>
        <time>2021-05-20T10:17:33.149Z</time>
      </trkpt>
      <trkpt lat="48.70582" lon="2.05606">
        <ele>99</ele>
        <time>2021-05-20T10:17:34.149Z</time>
      </trkpt>
      <trkpt lat="48.70583" lon="2.05606">
        <ele>98</ele>
        <time>2021-05-20T10:17:35.149Z</time>
      </trkpt>
      <trkpt lat="48.70584" lon="2.05606">
        <ele>98</ele>
        <time>2021-05-20T10:17:36.149Z</time>
      </trkpt>
      <trkpt lat="48.70585" lon="2.05606">
        <ele>98</ele>
        <time>2021-05-20T10:17:37.149Z</time>
      </trkpt>
      <trkpt lat="48.70586" lon="2.05606">
        <ele>98</ele>
        <time>2021-05-20T10:17:38.149Z</time>
      </trkpt>
      <trkpt lat="48.70587" lon="2.05606">
        <ele>97</ele>
        <time>2021-05-20T10:17:39.149Z</time>
      </trkpt>
      <trkpt lat="48.70588" lon="2.05607">
        <ele>97</ele>
        <time>2021-05-20T10:17:40.149Z</time>
      </trkpt>
      <trkpt lat="48.70589" lon="2.05607">
        <ele>97</ele>
        <time>2021-05-20T10:17:41.149Z</time>
      </trkpt>
      <trkpt lat="48.70591" lon="2.05607">
        <ele>97</ele>
        <time>2021-05-20T10:17:42.149Z</time>
      </trkpt>
      <trkpt lat="48.70592" lon="2.05608">
        <ele>97</ele>
        <time>2021-05-20T10:17:43.149Z</time>
      </trkpt>
      <trkpt lat="48.70593" lon="2.05608">
        <ele>97</ele>
        <time>2021-05-20T10:17:44.149Z</time>
      </trkpt>
      <trkpt lat="48.70594" lon="2.05609">
        <ele>97</ele>
        <time>2021-05-20T10:17:45.149Z</time>
      </trkpt>
      <trkpt lat="48.70594" lon="2.05609">
        <ele>97</ele>
        <time>2021-05-20T10:17:46.149Z</time>
      </trkpt>
      <trkpt lat="48.70595" lon="2.0561">
        <ele>97</ele>
        <time>2021-05-20T10:17:47.149Z</time>
      </trkpt>
      <trkpt lat="48.70596" lon="2.0561">
        <ele>97</ele>
        <time>2021-05-20T10:17:48.149Z</time>
      </trkpt>
      <trkpt lat="48.70597" lon="2.05611">
        <ele>98</ele>
        <time>2021-05-20T10:17:49.149Z</time>
      </trkpt>
      <trkpt lat="48.70598" lon="2.05611">
        <ele>98</ele>
        <time>2021-05-20T10:17:50.149Z</time>
      </trkpt>
      <trkpt lat="48.70599" lon="2.05611">
        <ele>98</ele>
        <time>2021-05-20T10:17:51.149Z</time>
      </trkpt>
      <trkpt lat="48.706" lon="2.05612">
        <ele>98</ele>
        <time>2021-05-20T10:17:52.149Z</time>
      </trkpt>
      <trkpt lat="48.70601" lon="2.05612">
        <ele>98</ele>
        <time>2021-05-20T10:17:53.149Z</time>
      </trkpt>
      <trkpt lat="48.70602" lon="2.05612">
        <ele>98</ele>
        <time>2021-05-20T10:17:54.149Z</time>
      </trkpt>
      <trkpt lat="48.70603" lon="2.05613">
        <ele>99</ele>
        <time>2021-05-20T10:17:55.149Z</time>
      </trkpt>
      <trkpt lat="48.70604" lon="2.05613">
        <ele>99</ele>
        <time>2021-05-20T10:17:56.149Z</time>
      </trkpt>
      <trkpt lat="48.70605" lon="2.05613">
        <ele>99</ele>
        <time>2021-05-20T10:17:57.149Z</time>
      </trkpt>
      <trkpt lat="48.70606" lon="2.05614">
        <ele>99</ele>
        <time>2021-05-20T10:17:58.149Z</time>
      </trkpt>
      <trkpt lat="48.70607" lon="2.05614">
        <ele>99</ele>
        <time>2021-05-20T10:17:59.149Z</time>
      </trkpt>
      <trkpt lat="48.70608" lon="2.05614">
        <ele>100</ele>
        <time>2021-05-20T10:18:00.149Z</time>
      </trkpt>
      <trkpt lat="48.70609" lon="2.05615">
        <ele>100</ele>
        <time>2021-05-20T10:18:01.149Z</time>
      </trkpt>
      <trkpt lat="48.7061" lon="2.05615">
        <ele>100</ele>
        <time>2021-05-20T10:18:02.149Z</time>
      </trkpt>
      <trkpt lat="48.70611" lon="2.05616">
        <ele>100</ele>
        <time>2021-05-20T10:18:03.149Z</time>
      </trkpt>
      <trkpt lat="48.70612" lon="2.05616">
        <ele>100</ele>
        <time>2021-05-20T10:18:04.149Z</time>
      </trkpt>
      <trkpt lat="48.70613" lon="2.05617">
        <ele>100</ele>
        <time>2021-05-20T10:18:05.149Z</time>
      </trkpt>
      <trkpt lat="48.70614" lon="2.05617">
        <ele>100</ele>
        <time>2021-05-20T10:18:06.149Z</time>
      </trkpt>
      <trkpt lat="48.70615" lon="2.05618">
        <ele>100</ele>
        <time>2021-05-20T10:18:07.149Z</time>
      </trkpt>
      <trkpt lat="48.70617" lon="2.05618">
        <ele>100</ele>
        <time>2021-05-20T10:18:08.149Z</time>
      </trkpt>
      <trkpt lat="48.70618" lon="2.05618">
        <ele>100</ele>
        <time>2021-05-20T10:18:09.149Z</time>
      </trkpt>
      <trkpt lat="48.70619" lon="2.05618">
        <ele>100</ele>
        <time>2021-05-20T10:18:10.149Z</time>
      </trkpt>
      <trkpt lat="48.7062" lon="2.05619">
        <ele>100</ele>
        <time>2021-05-20T10:18:11.149Z</time>
      </trkpt>
      <trkpt lat="48.7062" lon="2.05619">
        <ele>100</ele>
        <time>2021-05-20T10:18:12.149Z</time>
      </trkpt>
      <trkpt lat="48.70621" lon="2.05619">
        <ele>100</ele>
        <time>2021-05-20T10:18:13.149Z</time>
      </trkpt>
      <trkpt lat="48.70622" lon="2.05619">
        <ele>99</ele>
        <time>2021-05-20T10:18:14.149Z</time>
      </trkpt>
      <trkpt lat="48.70623" lon="2.0562">
        <ele>99</ele>
        <time>2021-05-20T10:18:15.149Z</time>
      </trkpt>
      <trkpt lat="48.70624" lon="2.0562">
        <ele>100</ele>
        <time>2021-05-20T10:18:16.149Z</time>
      </trkpt>
      <trkpt lat="48.70625" lon="2.0562">
        <ele>100</ele>
        <time>2021-05-20T10:18:17.149Z</time>
      </trkpt>
      <trkpt lat="48.70626" lon="2.05621">
        <ele>100</ele>
        <time>2021-05-20T10:18:18.149Z</time>
      </trkpt>
      <trkpt lat="48.70627" lon="2.05621">
        <ele>100</ele>
        <time>2021-05-20T10:18:19.149Z</time>
      </trkpt>
      <trkpt lat="48.70628" lon="2.05622">
        <ele>100</ele>
        <time>2021-05-20T10:18:20.149Z</time>
      </trkpt>
      <trkpt lat="48.70628" lon="2.05622">
        <ele>100</ele>
        <time>2021-05-20T10:18:21.149Z</time>
      </trkpt>
      <trkpt lat="48.70629" lon="2.05623">
        <ele>100</ele>
        <time>2021-05-20T10:18:22.149Z</time>
      </trkpt>
      <trkpt lat="48.7063" lon="2.05623">
        <ele>100</ele>
        <time>2021-05-20T10:18:23.149Z</time>
      </trkpt>
      <trkpt lat="48.70631" lon="2.05625">
        <ele>100</ele>
        <time>2021-05-20T10:18:24.149Z</time>
      </trkpt>
      <trkpt lat="48.70632" lon="2.05626">
        <ele>100</ele>
        <time>2021-05-20T10:18:25.149Z</time>
      </trkpt>
      <trkpt lat="48.70632" lon="2.05626">
        <ele>100</ele>
        <time>2021-05-20T10:18:26.149Z</time>
      </trkpt>
      <trkpt lat="48.70633" lon="2.05627">
        <ele>100</ele>
        <time>2021-05-20T10:18:27.149Z</time>
      </trkpt>
      <trkpt lat="48.70634" lon="2.05628">
        <ele>99</ele>
        <time>2021-05-20T10:18:28.149Z</time>
      </trkpt>
      <trkpt lat="48.70635" lon="2.05628">
        <ele>99</ele>
        <time>2021-05-20T10:18:29.149Z</time>
      </trkpt>
      <trkpt lat="48.70635" lon="2.05629">
        <ele>99</ele>
        <time>2021-05-20T10:18:30.149Z</time>
      </trkpt>
      <trkpt lat="48.70636" lon="2.05629">
        <ele>99</ele>
        <time>2021-05-20T10:18:31.149Z</time>
      </trkpt>
      <trkpt lat="48.70636" lon="2.0563">
        <ele>99</ele>
        <time>2021-05-20T10:18:32.149Z</time>
      </trkpt>
      <trkpt lat="48.70637" lon="2.0563">
        <ele>98</ele>
        <time>2021-05-20T10:18:33.149Z</time>
      </trkpt>
      <trkpt lat="48.70639" lon="2.05632">
        <ele>97</ele>
        <time>2021-05-20T10:18:34.149Z</time>
      </trkpt>
      <trkpt lat="48.7064" lon="2.05631">
        <ele>97</ele>
        <time>2021-05-20T10:18:35.149Z</time>
      </trkpt>
      <trkpt lat="48.70641" lon="2.05631">
        <ele>97</ele>
        <time>2021-05-20T10:18:36.149Z</time>
      </trkpt>
      <trkpt lat="48.70643" lon="2.05632">
        <ele>97</ele>
        <time>2021-05-20T10:18:37.149Z</time>
      </trkpt>
      <trkpt lat="48.70644" lon="2.05633">
        <ele>97</ele>
        <time>2021-05-20T10:18:38.149Z</time>
      </trkpt>
      <trkpt lat="48.70645" lon="2.05634">
        <ele>96</ele>
        <time>2021-05-20T10:18:39.149Z</time>
      </trkpt>
      <trkpt lat="48.70646" lon="2.05636">
        <ele>96</ele>
        <time>2021-05-20T10:18:40.149Z</time>
      </trkpt>
      <trkpt lat="48.70646" lon="2.05638">
        <ele>96</ele>
        <time>2021-05-20T10:18:41.149Z</time>
      </trkpt>
      <trkpt lat="48.70647" lon="2.05639">
        <ele>96</ele>
        <time>2021-05-20T10:18:42.149Z</time>
      </trkpt>
      <trkpt lat="48.70647" lon="2.05641">
        <ele>96</ele>
        <time>2021-05-20T10:18:43.149Z</time>
      </trkpt>
      <trkpt lat="48.70647" lon="2.05642">
        <ele>96</ele>
        <time>2021-05-20T10:18:44.149Z</time>
      </trkpt>
      <trkpt lat="48.70647" lon="2.05644">
        <ele>96</ele>
        <time>2021-05-20T10:18:45.149Z</time>
      </trkpt>
      <trkpt lat="48.70647" lon="2.05646">
        <ele>95</ele>
        <time>2021-05-20T10:18:46.149Z</time>
      </trkpt>
      <trkpt lat="48.70646" lon="2.05647">
        <ele>95</ele>
        <time>2021-05-20T10:18:47.149Z</time>
      </trkpt>
      <trkpt lat="48.70646" lon="2.05649">
        <ele>95</ele>
        <time>2021-05-20T10:18:48.149Z</time>
      </trkpt>
      <trkpt lat="48.70646" lon="2.05651">
        <ele>95</ele>
        <time>2021-05-20T10:18:49.149Z</time>
      </trkpt>
      <trkpt lat="48.70645" lon="2.05653">
        <ele>94</ele>
        <time>2021-05-20T10:18:50.149Z</time>
      </trkpt>
      <trkpt lat="48.70645" lon="2.05654">
        <ele>94</ele>
        <time>2021-05-20T10:18:51.149Z</time>
      </trkpt>
      <trkpt lat="48.70645" lon="2.05656">
        <ele>94</ele>
        <time>2021-05-20T10:18:52.149Z</time>
      </trkpt>
      <trkpt lat="48.70645" lon="2.05658">
        <ele>94</ele>
        <time>2021-05-20T10:18:53.149Z</time>
      </trkpt>
      <trkpt lat="48.70645" lon="2.0566">
        <ele>94</ele>
        <time>2021-05-20T10:18:54.149Z</time>
      </trkpt>
      <trkpt lat="48.70645" lon="2.05662">
        <ele>94</ele>
        <time>2021-05-20T10:18:55.149Z</time>
      </trkpt>
      <trkpt lat="48.70645" lon="2.05664">
        <ele>94</ele>
        <time>2021-05-20T10:18:56.149Z</time>
      </trkpt>
      <trkpt lat="48.70645" lon="2.05666">
        <ele>94</ele>
        <time>2021-05-20T10:18:57.149Z</time>
      </trkpt>
      <trkpt lat="48.70645" lon="2.05667">
        <ele>93</ele>
        <time>2021-05-20T10:18:58.149Z</time>
      </trkpt>
      <trkpt lat="48.70645" lon="2.05669">
        <ele>93</ele>
        <time>2021-05-20T10:18:59.149Z</time>
      </trkpt>
      <trkpt lat="48.70645" lon="2.05671">
        <ele>93</ele>
        <time>2021-05-20T10:19:00.149Z</time>
      </trkpt>
      <trkpt lat="48.70644" lon="2.05673">
        <ele>93</ele>
        <time>2021-05-20T10:19:01.149Z</time>
      </trkpt>
      <trkpt lat="48.70644" lon="2.05675">
        <ele>93</ele>
        <time>2021-05-20T10:19:02.149Z</time>
      </trkpt>
      <trkpt lat="48.70644" lon="2.05677">
        <ele>93</ele>
        <time>2021-05-20T10:19:03.149Z</time>
      </trkpt>
      <trkpt lat="48.70644" lon="2.05679">
        <ele>93</ele>
        <time>2021-05-20T10:19:04.149Z</time>
      </trkpt>
      <trkpt lat="48.70644" lon="2.05681">
        <ele>93</ele>
        <time>2021-05-20T10:19:05.149Z</time>
      </trkpt>
      <trkpt lat="48.70644" lon="2.05683">
        <ele>93</ele>
        <time>2021-05-20T10:19:06.149Z</time>
      </trkpt>
      <trkpt lat="48.70644" lon="2.05685">
        <ele>93</ele>
        <time>2021-05-20T10:19:07.149Z</time>
      </trkpt>
      <trkpt lat="48.70644" lon="2.05687">
        <ele>93</ele>
        <time>2021-05-20T10:19:08.149Z</time>
      </trkpt>
      <trkpt lat="48.70643" lon="2.05689">
        <ele>93</ele>
        <time>2021-05-20T10:19:09.149Z</time>
      </trkpt>
      <trkpt lat="48.70643" lon="2.05691">
        <ele>93</ele>
        <time>2021-05-20T10:19:10.149Z</time>
      </trkpt>
      <trkpt lat="48.70643" lon="2.05693">
        <ele>93</ele>
        <time>2021-05-20T10:19:11.149Z</time>
      </trkpt>
      <trkpt lat="48.70643" lon="2.05694">
        <ele>93</ele>
        <time>2021-05-20T10:19:12.149Z</time>
      </trkpt>
      <trkpt lat="48.70643" lon="2.05696">
        <ele>93</ele>
        <time>2021-05-20T10:19:13.149Z</time>
      </trkpt>
      <trkpt lat="48.70642" lon="2.05698">
        <ele>93</ele>
        <time>2021-05-20T10:19:14.149Z</time>
      </trkpt>
      <trkpt lat="48.70642" lon="2.05699">
        <ele>92</ele>
        <time>2021-05-20T10:19:15.149Z</time>
      </trkpt>
      <trkpt lat="48.70642" lon="2.05701">
        <ele>92</ele>
        <time>2021-05-20T10:19:16.149Z</time>
      </trkpt>
      <trkpt lat="48.70642" lon="2.05702">
        <ele>92</ele>
        <time>2021-05-20T10:19:17.149Z</time>
      </trkpt>
      <trkpt lat="48.70641" lon="2.05703">
        <ele>92</ele>
        <time>2021-05-20T10:19:18.149Z</time>
      </trkpt>
      <trkpt lat="48.70641" lon="2.05705">
        <ele>92</ele>
        <time>2021-05-20T10:19:19.149Z</time>
      </trkpt>
      <trkpt lat="48.70641" lon="2.05707">
        <ele>92</ele>
        <time>2021-05-20T10:19:20.149Z</time>
      </trkpt>
      <trkpt lat="48.7064" lon="2.05708">
        <ele>92</ele>
        <time>2021-05-20T10:19:21.149Z</time>
      </trkpt>
      <trkpt lat="48.7064" lon="2.0571">
        <ele>92</ele>
        <time>2021-05-20T10:19:22.149Z</time>
      </trkpt>
      <trkpt lat="48.7064" lon="2.05711">
        <ele>92</ele>
        <time>2021-05-20T10:19:23.149Z</time>
      </trkpt>
      <trkpt lat="48.7064" lon="2.05713">
        <ele>92</ele>
        <time>2021-05-20T10:19:24.149Z</time>
      </trkpt>
      <trkpt lat="48.7064" lon="2.05715">
        <ele>92</ele>
        <time>2021-05-20T10:19:25.149Z</time>
      </trkpt>
      <trkpt lat="48.7064" lon="2.05716">
        <ele>92</ele>
        <time>2021-05-20T10:19:26.149Z</time>
      </trkpt>
      <trkpt lat="48.70639" lon="2.05718">
        <ele>92</ele>
        <time>2021-05-20T10:19:27.149Z</time>
      </trkpt>
      <trkpt lat="48.70639" lon="2.0572">
        <ele>92</ele>
        <time>2021-05-20T10:19:28.149Z</time>
      </trkpt>
      <trkpt lat="48.70639" lon="2.05722">
        <ele>92</ele>
        <time>2021-05-20T10:19:29.149Z</time>
      </trkpt>
      <trkpt lat="48.70639" lon="2.05724">
        <ele>92</ele>
        <time>2021-05-20T10:19:30.149Z</time>
      </trkpt>
      <trkpt lat="48.70639" lon="2.05725">
        <ele>92</ele>
        <time>2021-05-20T10:19:31.149Z</time>
      </trkpt>
      <trkpt lat="48.70638" lon="2.05727">
        <ele>92</ele>
        <time>2021-05-20T10:19:32.149Z</time>
      </trkpt>
      <trkpt lat="48.70638" lon="2.05729">
        <ele>92</ele>
        <time>2021-05-20T10:19:33.149Z</time>
      </trkpt>
      <trkpt lat="48.70638" lon="2.05731">
        <ele>92</ele>
        <time>2021-05-20T10:19:34.149Z</time>
      </trkpt>
      <trkpt lat="48.70638" lon="2.05733">
        <ele>92</ele>
        <time>2021-05-20T10:19:35.149Z</time>
      </trkpt>
      <trkpt lat="48.70638" lon="2.05735">
        <ele>92</ele>
        <time>2021-05-20T10:19:36.149Z</time>
      </trkpt>
      <trkpt lat="48.70638" lon="2.05737">
        <ele>92</ele>
        <time>2021-05-20T10:19:37.149Z</time>
      </trkpt>
      <trkpt lat="48.70637" lon="2.05739">
        <ele>93</ele>
        <time>2021-05-20T10:19:38.149Z</time>
      </trkpt>
      <trkpt lat="48.70637" lon="2.05741">
        <ele>93</ele>
        <time>2021-05-20T10:19:39.149Z</time>
      </trkpt>
      <trkpt lat="48.70637" lon="2.05743">
        <ele>93</ele>
        <time>2021-05-20T10:19:40.149Z</time>
      </trkpt>
      <trkpt lat="48.70637" lon="2.05745">
        <ele>93</ele>
        <time>2021-05-20T10:19:41.149Z</time>
      </trkpt>
      <trkpt lat="48.70637" lon="2.05747">
        <ele>93</ele>
        <time>2021-05-20T10:19:42.149Z</time>
      </trkpt>
      <trkpt lat="48.70637" lon="2.05749">
        <ele>93</ele>
        <time>2021-05-20T10:19:43.149Z</time>
      </trkpt>
      <trkpt lat="48.70637" lon="2.05751">
        <ele>93</ele>
        <time>2021-05-20T10:19:44.149Z</time>
      </trkpt>
      <trkpt lat="48.70637" lon="2.05753">
        <ele>93</ele>
        <time>2021-05-20T10:19:45.149Z</time>
      </trkpt>
      <trkpt lat="48.70637" lon="2.05756">
        <ele>93</ele>
        <time>2021-05-20T10:19:46.149Z</time>
      </trkpt>
      <trkpt lat="48.70636" lon="2.05757">
        <ele>94</ele>
        <time>2021-05-20T10:19:47.149Z</time>
      </trkpt>
      <trkpt lat="48.70636" lon="2.0576">
        <ele>94</ele>
        <time>2021-05-20T10:19:48.149Z</time>
      </trkpt>
      <trkpt lat="48.70636" lon="2.05762">
        <ele>94</ele>
        <time>2021-05-20T10:19:49.149Z</time>
      </trkpt>
      <trkpt lat="48.70636" lon="2.05763">
        <ele>94</ele>
        <time>2021-05-20T10:19:50.149Z</time>
      </trkpt>
      <trkpt lat="48.70636" lon="2.05765">
        <ele>94</ele>
        <time>2021-05-20T10:19:51.149Z</time>
      </trkpt>
      <trkpt lat="48.70636" lon="2.05767">
        <ele>94</ele>
        <time>2021-05-20T10:19:52.149Z</time>
      </trkpt>
      <trkpt lat="48.70636" lon="2.05768">
        <ele>94</ele>
        <time>2021-05-20T10:19:53.149Z</time>
      </trkpt>
      <trkpt lat="48.70636" lon="2.0577">
        <ele>94</ele>
        <time>2021-05-20T10:19:54.149Z</time>
      </trkpt>
      <trkpt lat="48.70636" lon="2.05771">
        <ele>94</ele>
        <time>2021-05-20T10:19:55.149Z</time>
      </trkpt>
      <trkpt lat="48.70635" lon="2.05772">
        <ele>94</ele>
        <time>2021-05-20T10:19:56.149Z</time>
      </trkpt>
      <trkpt lat="48.70635" lon="2.05774">
        <ele>94</ele>
        <time>2021-05-20T10:19:57.149Z</time>
      </trkpt>
      <trkpt lat="48.70635" lon="2.05775">
        <ele>94</ele>
        <time>2021-05-20T10:19:58.149Z</time>
      </trkpt>
      <trkpt lat="48.70635" lon="2.05777">
        <ele>94</ele>
        <time>2021-05-20T10:19:59.149Z</time>
      </trkpt>
      <trkpt lat="48.70634" lon="2.05779">
        <ele>94</ele>
        <time>2021-05-20T10:20:00.149Z</time>
      </trkpt>
      <trkpt lat="48.70634" lon="2.0578">
        <ele>94</ele>
        <time>2021-05-20T10:20:01.149Z</time>
      </trkpt>
      <trkpt lat="48.70634" lon="2.05782">
        <ele>94</ele>
        <time>2021-05-20T10:20:02.149Z</time>
      </trkpt>
      <trkpt lat="48.70634" lon="2.05783">
        <ele>94</ele>
        <time>2021-05-20T10:20:03.149Z</time>
      </trkpt>
      <trkpt lat="48.70634" lon="2.05785">
        <ele>94</ele>
        <time>2021-05-20T10:20:04.149Z</time>
      </trkpt>
      <trkpt lat="48.70634" lon="2.05786">
        <ele>95</ele>
        <time>2021-05-20T10:20:05.149Z</time>
      </trkpt>
      <trkpt lat="48.70634" lon="2.05788">
        <ele>95</ele>
        <time>2021-05-20T10:20:06.149Z</time>
      </trkpt>
      <trkpt lat="48.70633" lon="2.0579">
        <ele>95</ele>
        <time>2021-05-20T10:20:07.149Z</time>
      </trkpt>
      <trkpt lat="48.70633" lon="2.05792">
        <ele>95</ele>
        <time>2021-05-20T10:20:08.149Z</time>
      </trkpt>
      <trkpt lat="48.70633" lon="2.05793">
        <ele>95</ele>
        <time>2021-05-20T10:20:09.149Z</time>
      </trkpt>
      <trkpt lat="48.70633" lon="2.05795">
        <ele>95</ele>
        <time>2021-05-20T10:20:10.149Z</time>
      </trkpt>
      <trkpt lat="48.70632" lon="2.05797">
        <ele>95</ele>
        <time>2021-05-20T10:20:11.149Z</time>
      </trkpt>
      <trkpt lat="48.70632" lon="2.05798">
        <ele>95</ele>
        <time>2021-05-20T10:20:12.149Z</time>
      </trkpt>
      <trkpt lat="48.70632" lon="2.058">
        <ele>95</ele>
        <time>2021-05-20T10:20:13.149Z</time>
      </trkpt>
      <trkpt lat="48.70632" lon="2.05802">
        <ele>94</ele>
        <time>2021-05-20T10:20:14.149Z</time>
      </trkpt>
      <trkpt lat="48.70631" lon="2.05804">
        <ele>94</ele>
        <time>2021-05-20T10:20:15.149Z</time>
      </trkpt>
      <trkpt lat="48.70631" lon="2.05805">
        <ele>94</ele>
        <time>2021-05-20T10:20:16.149Z</time>
      </trkpt>
      <trkpt lat="48.7063" lon="2.05807">
        <ele>94</ele>
        <time>2021-05-20T10:20:17.149Z</time>
      </trkpt>
      <trkpt lat="48.7063" lon="2.05809">
        <ele>94</ele>
        <time>2021-05-20T10:20:18.149Z</time>
      </trkpt>
      <trkpt lat="48.70629" lon="2.05811">
        <ele>94</ele>
        <time>2021-05-20T10:20:19.149Z</time>
      </trkpt>
      <trkpt lat="48.70629" lon="2.05812">
        <ele>94</ele>
        <time>2021-05-20T10:20:20.149Z</time>
      </trkpt>
      <trkpt lat="48.70628" lon="2.05814">
        <ele>93</ele>
        <time>2021-05-20T10:20:21.149Z</time>
      </trkpt>
      <trkpt lat="48.70628" lon="2.05816">
        <ele>93</ele>
        <time>2021-05-20T10:20:22.149Z</time>
      </trkpt>
      <trkpt lat="48.70627" lon="2.05817">
        <ele>93</ele>
        <time>2021-05-20T10:20:23.149Z</time>
      </trkpt>
      <trkpt lat="48.70626" lon="2.05819">
        <ele>93</ele>
        <time>2021-05-20T10:20:24.149Z</time>
      </trkpt>
      <trkpt lat="48.70626" lon="2.0582">
        <ele>92</ele>
        <time>2021-05-20T10:20:25.149Z</time>
      </trkpt>
      <trkpt lat="48.70625" lon="2.05822">
        <ele>92</ele>
        <time>2021-05-20T10:20:26.149Z</time>
      </trkpt>
      <trkpt lat="48.70625" lon="2.05824">
        <ele>92</ele>
        <time>2021-05-20T10:20:27.149Z</time>
      </trkpt>
      <trkpt lat="48.70625" lon="2.05826">
        <ele>92</ele>
        <time>2021-05-20T10:20:28.149Z</time>
      </trkpt>
      <trkpt lat="48.70624" lon="2.05828">
        <ele>92</ele>
        <time>2021-05-20T10:20:29.149Z</time>
      </trkpt>
      <trkpt lat="48.70624" lon="2.0583">
        <ele>91</ele>
        <time>2021-05-20T10:20:30.149Z</time>
      </trkpt>
      <trkpt lat="48.70624" lon="2.05832">
        <ele>91</ele>
        <time>2021-05-20T10:20:31.149Z</time>
      </trkpt>
      <trkpt lat="48.70624" lon="2.05834">
        <ele>91</ele>
        <time>2021-05-20T10:20:32.149Z</time>
      </trkpt>
      <trkpt lat="48.70623" lon="2.05836">
        <ele>91</ele>
        <time>2021-05-20T10:20:33.149Z</time>
      </trkpt>
      <trkpt lat="48.70623" lon="2.05838">
        <ele>91</ele>
        <time>2021-05-20T10:20:34.149Z</time>
      </trkpt>
      <trkpt lat="48.70623" lon="2.05841">
        <ele>90</ele>
        <time>2021-05-20T10:20:35.149Z</time>
      </trkpt>
      <trkpt lat="48.70623" lon="2.05843">
        <ele>90</ele>
        <time>2021-05-20T10:20:36.149Z</time>
      </trkpt>
      <trkpt lat="48.70623" lon="2.05844">
        <ele>90</ele>
        <time>2021-05-20T10:20:37.149Z</time>
      </trkpt>
      <trkpt lat="48.70623" lon="2.05847">
        <ele>90</ele>
        <time>2021-05-20T10:20:38.149Z</time>
      </trkpt>
      <trkpt lat="48.70623" lon="2.05849">
        <ele>90</ele>
        <time>2021-05-20T10:20:39.149Z</time>
      </trkpt>
      <trkpt lat="48.70623" lon="2.05851">
        <ele>90</ele>
        <time>2021-05-20T10:20:40.149Z</time>
      </trkpt>
      <trkpt lat="48.70623" lon="2.05854">
        <ele>90</ele>
        <time>2021-05-20T10:20:41.149Z</time>
      </trkpt>
      <trkpt lat="48.70623" lon="2.05856">
        <ele>90</ele>
        <time>2021-05-20T10:20:42.149Z</time>
      </trkpt>
      <trkpt lat="48.70624" lon="2.05858">
        <ele>90</ele>
        <time>2021-05-20T10:20:43.149Z</time>
      </trkpt>
      <trkpt lat="48.70624" lon="2.05861">
        <ele>90</ele>
        <time>2021-05-20T10:20:44.149Z</time>
      </trkpt>
      <trkpt lat="48.70624" lon="2.05863">
        <ele>90</ele>
        <time>2021-05-20T10:20:45.149Z</time>
      </trkpt>
      <trkpt lat="48.70624" lon="2.05865">
        <ele>90</ele>
        <time>2021-05-20T10:20:46.149Z</time>
      </trkpt>
      <trkpt lat="48.70625" lon="2.05867">
        <ele>90</ele>
        <time>2021-05-20T10:20:47.149Z</time>
      </trkpt>
      <trkpt lat="48.70625" lon="2.05869">
        <ele>90</ele>
        <time>2021-05-20T10:20:48.149Z</time>
      </trkpt>
      <trkpt lat="48.70626" lon="2.05871">
        <ele>90</ele>
        <time>2021-05-20T10:20:49.149Z</time>
      </trkpt>
      <trkpt lat="48.70626" lon="2.05873">
        <ele>90</ele>
        <time>2021-05-20T10:20:50.149Z</time>
      </trkpt>
      <trkpt lat="48.70627" lon="2.05876">
        <ele>90</ele>
        <time>2021-05-20T10:20:51.149Z</time>
      </trkpt>
      <trkpt lat="48.70627" lon="2.05878">
        <ele>90</ele>
        <time>2021-05-20T10:20:52.149Z</time>
      </trkpt>
      <trkpt lat="48.70628" lon="2.0588">
        <ele>90</ele>
        <time>2021-05-20T10:20:53.149Z</time>
      </trkpt>
      <trkpt lat="48.70628" lon="2.05883">
        <ele>90</ele>
        <time>2021-05-20T10:20:54.149Z</time>
      </trkpt>
      <trkpt lat="48.70629" lon="2.05885">
        <ele>90</ele>
        <time>2021-05-20T10:20:55.149Z</time>
      </trkpt>
      <trkpt lat="48.70629" lon="2.05887">
        <ele>90</ele>
        <time>2021-05-20T10:20:56.149Z</time>
      </trkpt>
      <trkpt lat="48.7063" lon="2.05889">
        <ele>90</ele>
        <time>2021-05-20T10:20:57.149Z</time>
      </trkpt>
      <trkpt lat="48.70631" lon="2.05892">
        <ele>90</ele>
        <time>2021-05-20T10:20:58.149Z</time>
      </trkpt>
      <trkpt lat="48.70631" lon="2.05894">
        <ele>90</ele>
        <time>2021-05-20T10:20:59.149Z</time>
      </trkpt>
      <trkpt lat="48.70632" lon="2.05896">
        <ele>90</ele>
        <time>2021-05-20T10:21:00.149Z</time>
      </trkpt>
      <trkpt lat="48.70633" lon="2.05898">
        <ele>89</ele>
        <time>2021-05-20T10:21:01.149Z</time>
      </trkpt>
      <trkpt lat="48.70634" lon="2.059">
        <ele>89</ele>
        <time>2021-05-20T10:21:02.149Z</time>
      </trkpt>
      <trkpt lat="48.70635" lon="2.05902">
        <ele>89</ele>
        <time>2021-05-20T10:21:03.149Z</time>
      </trkpt>
      <trkpt lat="48.70636" lon="2.05903">
        <ele>89</ele>
        <time>2021-05-20T10:21:04.149Z</time>
      </trkpt>
      <trkpt lat="48.70637" lon="2.05905">
        <ele>89</ele>
        <time>2021-05-20T10:21:05.149Z</time>
      </trkpt>
      <trkpt lat="48.70638" lon="2.05907">
        <ele>89</ele>
        <time>2021-05-20T10:21:06.149Z</time>
      </trkpt>
      <trkpt lat="48.70639" lon="2.05909">
        <ele>89</ele>
        <time>2021-05-20T10:21:07.149Z</time>
      </trkpt>
      <trkpt lat="48.7064" lon="2.05911">
        <ele>89</ele>
        <time>2021-05-20T10:21:08.149Z</time>
      </trkpt>
      <trkpt lat="48.70641" lon="2.05913">
        <ele>89</ele>
        <time>2021-05-20T10:21:09.149Z</time>
      </trkpt>
      <trkpt lat="48.70641" lon="2.05915">
        <ele>89</ele>
        <time>2021-05-20T10:21:10.149Z</time>
      </trkpt>
      <trkpt lat="48.70642" lon="2.05916">
        <ele>89</ele>
        <time>2021-05-20T10:21:11.149Z</time>
      </trkpt>
      <trkpt lat="48.70643" lon="2.05918">
        <ele>90</ele>
        <time>2021-05-20T10:21:12.149Z</time>
      </trkpt>
      <trkpt lat="48.70644" lon="2.0592">
        <ele>90</ele>
        <time>2021-05-20T10:21:13.149Z</time>
      </trkpt>
      <trkpt lat="48.70645" lon="2.05921">
        <ele>90</ele>
        <time>2021-05-20T10:21:14.149Z</time>
      </trkpt>
      <trkpt lat="48.70646" lon="2.05923">
        <ele>90</ele>
        <time>2021-05-20T10:21:15.149Z</time>
      </trkpt>
      <trkpt lat="48.70647" lon="2.05925">
        <ele>90</ele>
        <time>2021-05-20T10:21:16.149Z</time>
      </trkpt>
      <trkpt lat="48.70648" lon="2.05926">
        <ele>90</ele>
        <time>2021-05-20T10:21:17.149Z</time>
      </trkpt>
      <trkpt lat="48.70648" lon="2.05928">
        <ele>90</ele>
        <time>2021-05-20T10:21:18.149Z</time>
      </trkpt>
      <trkpt lat="48.70649" lon="2.05929">
        <ele>90</ele>
        <time>2021-05-20T10:21:19.149Z</time>
      </trkpt>
      <trkpt lat="48.7065" lon="2.05931">
        <ele>90</ele>
        <time>2021-05-20T10:21:20.149Z</time>
      </trkpt>
      <trkpt lat="48.70651" lon="2.05932">
        <ele>91</ele>
        <time>2021-05-20T10:21:21.149Z</time>
      </trkpt>
      <trkpt lat="48.70652" lon="2.05932">
        <ele>91</ele>
        <time>2021-05-20T10:21:22.149Z</time>
      </trkpt>
      <trkpt lat="48.70652" lon="2.05933">
        <ele>91</ele>
        <time>2021-05-20T10:21:23.149Z</time>
      </trkpt>
      <trkpt lat="48.70653" lon="2.05933">
        <ele>91</ele>
        <time>2021-05-20T10:21:24.149Z</time>
      </trkpt>
      <trkpt lat="48.70654" lon="2.05932">
        <ele>91</ele>
        <time>2021-05-20T10:21:25.149Z</time>
      </trkpt>
      <trkpt lat="48.70654" lon="2.05932">
        <ele>91</ele>
        <time>2021-05-20T10:21:26.149Z</time>
      </trkpt>
      <trkpt lat="48.70655" lon="2.05933">
        <ele>91</ele>
        <time>2021-05-20T10:21:27.149Z</time>
      </trkpt>
      <trkpt lat="48.70656" lon="2.05933">
        <ele>91</ele>
        <time>2021-05-20T10:21:28.149Z</time>
      </trkpt>
      <trkpt lat="48.70656" lon="2.05933">
        <ele>92</ele>
        <time>2021-05-20T10:21:29.149Z</time>
      </trkpt>
      <trkpt lat="48.70656" lon="2.05933">
        <ele>92</ele>
        <time>2021-05-20T10:21:30.149Z</time>
      </trkpt>
      <trkpt lat="48.70657" lon="2.05933">
        <ele>92</ele>
        <time>2021-05-20T10:21:31.149Z</time>
      </trkpt>
      <trkpt lat="48.70659" lon="2.05936">
        <ele>93</ele>
        <time>2021-05-20T10:21:32.149Z</time>
      </trkpt>
      <trkpt lat="48.70659" lon="2.05937">
        <ele>93</ele>
        <time>2021-05-20T10:21:33.149Z</time>
      </trkpt>
      <trkpt lat="48.7066" lon="2.05937">
        <ele>93</ele>
        <time>2021-05-20T10:21:34.149Z</time>
      </trkpt>
      <trkpt lat="48.7066" lon="2.05938">
        <ele>93</ele>
        <time>2021-05-20T10:21:35.149Z</time>
      </trkpt>
      <trkpt lat="48.7066" lon="2.05938">
        <ele>93</ele>
        <time>2021-05-20T10:21:36.149Z</time>
      </trkpt>
      <trkpt lat="48.70662" lon="2.0594">
        <ele>94</ele>
        <time>2021-05-20T10:21:37.149Z</time>
      </trkpt>
      <trkpt lat="48.70662" lon="2.05941">
        <ele>94</ele>
        <time>2021-05-20T10:21:38.149Z</time>
      </trkpt>
      <trkpt lat="48.70663" lon="2.05941">
        <ele>94</ele>
        <time>2021-05-20T10:21:39.149Z</time>
      </trkpt>
      <trkpt lat="48.70664" lon="2.05941">
        <ele>94</ele>
        <time>2021-05-20T10:21:40.149Z</time>
      </trkpt>
      <trkpt lat="48.70664" lon="2.05942">
        <ele>94</ele>
        <time>2021-05-20T10:21:41.149Z</time>
      </trkpt>
      <trkpt lat="48.70665" lon="2.05942">
        <ele>95</ele>
        <time>2021-05-20T10:21:42.149Z</time>
      </trkpt>
      <trkpt lat="48.70666" lon="2.05943">
        <ele>95</ele>
        <time>2021-05-20T10:21:43.149Z</time>
      </trkpt>
      <trkpt lat="48.70667" lon="2.05943">
        <ele>95</ele>
        <time>2021-05-20T10:21:44.149Z</time>
      </trkpt>
      <trkpt lat="48.70668" lon="2.05944">
        <ele>95</ele>
        <time>2021-05-20T10:21:45.149Z</time>
      </trkpt>
      <trkpt lat="48.70669" lon="2.05945">
        <ele>95</ele>
        <time>2021-05-20T10:21:46.149Z</time>
      </trkpt>
      <trkpt lat="48.7067" lon="2.05946">
        <ele>96</ele>
        <time>2021-05-20T10:21:47.149Z</time>
      </trkpt>
      <trkpt lat="48.7067" lon="2.05946">
        <ele>96</ele>
        <time>2021-05-20T10:21:48.149Z</time>
      </trkpt>
      <trkpt lat="48.70671" lon="2.05946">
        <ele>96</ele>
        <time>2021-05-20T10:21:49.149Z</time>
      </trkpt>
      <trkpt lat="48.70671" lon="2.05946">
        <ele>96</ele>
        <time>2021-05-20T10:21:50.149Z</time>
      </trkpt>
      <trkpt lat="48.70672" lon="2.05947">
        <ele>96</ele>
        <time>2021-05-20T10:21:51.149Z</time>
      </trkpt>
      <trkpt lat="48.70674" lon="2.05949">
        <ele>98</ele>
        <time>2021-05-20T10:21:52.149Z</time>
      </trkpt>
      <trkpt lat="48.70675" lon="2.0595">
        <ele>98</ele>
        <time>2021-05-20T10:21:53.149Z</time>
      </trkpt>
      <trkpt lat="48.70675" lon="2.05951">
        <ele>98</ele>
        <time>2021-05-20T10:21:54.149Z</time>
      </trkpt>
      <trkpt lat="48.70675" lon="2.05953">
        <ele>98</ele>
        <time>2021-05-20T10:21:55.149Z</time>
      </trkpt>
      <trkpt lat="48.70675" lon="2.05955">
        <ele>98</ele>
        <time>2021-05-20T10:21:56.149Z</time>
      </trkpt>
      <trkpt lat="48.70675" lon="2.05956">
        <ele>98</ele>
        <time>2021-05-20T10:21:57.149Z</time>
      </trkpt>
      <trkpt lat="48.70676" lon="2.05958">
        <ele>98</ele>
        <time>2021-05-20T10:21:58.149Z</time>
      </trkpt>
      <trkpt lat="48.70676" lon="2.0596">
        <ele>98</ele>
        <time>2021-05-20T10:21:59.149Z</time>
      </trkpt>
      <trkpt lat="48.70676" lon="2.05961">
        <ele>98</ele>
        <time>2021-05-20T10:22:00.149Z</time>
      </trkpt>
      <trkpt lat="48.70676" lon="2.05962">
        <ele>98</ele>
        <time>2021-05-20T10:22:01.149Z</time>
      </trkpt>
      <trkpt lat="48.70677" lon="2.05964">
        <ele>98</ele>
        <time>2021-05-20T10:22:02.149Z</time>
      </trkpt>
      <trkpt lat="48.70677" lon="2.05966">
        <ele>98</ele>
        <time>2021-05-20T10:22:03.149Z</time>
      </trkpt>
      <trkpt lat="48.70678" lon="2.05967">
        <ele>98</ele>
        <time>2021-05-20T10:22:04.149Z</time>
      </trkpt>
      <trkpt lat="48.70678" lon="2.05968">
        <ele>98</ele>
        <time>2021-05-20T10:22:05.149Z</time>
      </trkpt>
      <trkpt lat="48.70679" lon="2.0597">
        <ele>98</ele>
        <time>2021-05-20T10:22:06.149Z</time>
      </trkpt>
      <trkpt lat="48.70679" lon="2.05971">
        <ele>98</ele>
        <time>2021-05-20T10:22:07.149Z</time>
      </trkpt>
      <trkpt lat="48.7068" lon="2.05972">
        <ele>99</ele>
        <time>2021-05-20T10:22:08.149Z</time>
      </trkpt>
      <trkpt lat="48.70681" lon="2.05973">
        <ele>99</ele>
        <time>2021-05-20T10:22:09.149Z</time>
      </trkpt>
      <trkpt lat="48.70681" lon="2.05974">
        <ele>99</ele>
        <time>2021-05-20T10:22:10.149Z</time>
      </trkpt>
      <trkpt lat="48.70682" lon="2.05975">
        <ele>99</ele>
        <time>2021-05-20T10:22:11.149Z</time>
      </trkpt>
      <trkpt lat="48.70682" lon="2.05975">
        <ele>99</ele>
        <time>2021-05-20T10:22:12.149Z</time>
      </trkpt>
      <trkpt lat="48.70683" lon="2.05975">
        <ele>99</ele>
        <time>2021-05-20T10:22:13.149Z</time>
      </trkpt>
      <trkpt lat="48.70683" lon="2.05975">
        <ele>99</ele>
        <time>2021-05-20T10:22:14.149Z</time>
      </trkpt>
      <trkpt lat="48.70683" lon="2.05975">
        <ele>99</ele>
        <time>2021-05-20T10:22:15.149Z</time>
      </trkpt>
      <trkpt lat="48.70684" lon="2.05976">
        <ele>99</ele>
        <time>2021-05-20T10:22:16.149Z</time>
      </trkpt>
      <trkpt lat="48.70685" lon="2.05977">
        <ele>99</ele>
        <time>2021-05-20T10:22:17.149Z</time>
      </trkpt>
      <trkpt lat="48.70685" lon="2.05978">
        <ele>99</ele>
        <time>2021-05-20T10:22:18.149Z</time>
      </trkpt>
      <trkpt lat="48.70686" lon="2.05979">
        <ele>100</ele>
        <time>2021-05-20T10:22:19.149Z</time>
      </trkpt>
      <trkpt lat="48.70687" lon="2.0598">
        <ele>100</ele>
        <time>2021-05-20T10:22:20.149Z</time>
      </trkpt>
      <trkpt lat="48.70688" lon="2.05982">
        <ele>100</ele>
        <time>2021-05-20T10:22:21.149Z</time>
      </trkpt>
      <trkpt lat="48.70689" lon="2.05984">
        <ele>100</ele>
        <time>2021-05-20T10:22:22.149Z</time>
      </trkpt>
      <trkpt lat="48.70689" lon="2.05985">
        <ele>100</ele>
        <time>2021-05-20T10:22:23.149Z</time>
      </trkpt>
      <trkpt lat="48.7069" lon="2.05987">
        <ele>100</ele>
        <time>2021-05-20T10:22:24.149Z</time>
      </trkpt>
      <trkpt lat="48.70691" lon="2.05989">
        <ele>100</ele>
        <time>2021-05-20T10:22:25.149Z</time>
      </trkpt>
      <trkpt lat="48.70692" lon="2.05989">
        <ele>100</ele>
        <time>2021-05-20T10:22:26.149Z</time>
      </trkpt>
      <trkpt lat="48.70692" lon="2.0599">
        <ele>100</ele>
        <time>2021-05-20T10:22:27.149Z</time>
      </trkpt>
      <trkpt lat="48.70692" lon="2.05991">
        <ele>101</ele>
        <time>2021-05-20T10:22:28.149Z</time>
      </trkpt>
      <trkpt lat="48.70693" lon="2.05992">
        <ele>101</ele>
        <time>2021-05-20T10:22:29.149Z</time>
      </trkpt>
      <trkpt lat="48.70693" lon="2.05993">
        <ele>101</ele>
        <time>2021-05-20T10:22:30.149Z</time>
      </trkpt>
      <trkpt lat="48.70694" lon="2.05994">
        <ele>101</ele>
        <time>2021-05-20T10:22:31.149Z</time>
      </trkpt>
      <trkpt lat="48.70695" lon="2.05996">
        <ele>101</ele>
        <time>2021-05-20T10:22:32.149Z</time>
      </trkpt>
      <trkpt lat="48.70696" lon="2.05997">
        <ele>101</ele>
        <time>2021-05-20T10:22:33.149Z</time>
      </trkpt>
      <trkpt lat="48.70697" lon="2.05998">
        <ele>101</ele>
        <time>2021-05-20T10:22:34.149Z</time>
      </trkpt>
      <trkpt lat="48.70698" lon="2.05999">
        <ele>102</ele>
        <time>2021-05-20T10:22:35.149Z</time>
      </trkpt>
      <trkpt lat="48.70699" lon="2.05999">
        <ele>102</ele>
        <time>2021-05-20T10:22:36.149Z</time>
      </trkpt>
      <trkpt lat="48.70699" lon="2.05999">
        <ele>102</ele>
        <time>2021-05-20T10:22:37.149Z</time>
      </trkpt>
      <trkpt lat="48.707" lon="2.05999">
        <ele>102</ele>
        <time>2021-05-20T10:22:38.149Z</time>
      </trkpt>
      <trkpt lat="48.70701" lon="2.05999">
        <ele>102</ele>
        <time>2021-05-20T10:22:39.149Z</time>
      </trkpt>
      <trkpt lat="48.70701" lon="2.05999">
        <ele>102</ele>
        <time>2021-05-20T10:22:40.149Z</time>
      </trkpt>
      <trkpt lat="48.70702" lon="2.05998">
        <ele>102</ele>
        <time>2021-05-20T10:22:41.149Z</time>
      </trkpt>
      <trkpt lat="48.70703" lon="2.05998">
        <ele>103</ele>
        <time>2021-05-20T10:22:42.149Z</time>
      </trkpt>
      <trkpt lat="48.70703" lon="2.05997">
        <ele>103</ele>
        <time>2021-05-20T10:22:43.149Z</time>
      </trkpt>
      <trkpt lat="48.70704" lon="2.05997">
        <ele>103</ele>
        <time>2021-05-20T10:22:44.149Z</time>
      </trkpt>
      <trkpt lat="48.70705" lon="2.05998">
        <ele>103</ele>
        <time>2021-05-20T10:22:45.149Z</time>
      </trkpt>
      <trkpt lat="48.70706" lon="2.05998">
        <ele>103</ele>
        <time>2021-05-20T10:22:46.149Z</time>
      </trkpt>
      <trkpt lat="48.70706" lon="2.05998">
        <ele>103</ele>
        <time>2021-05-20T10:22:47.149Z</time>
      </trkpt>
      <trkpt lat="48.70708" lon="2.05998">
        <ele>103</ele>
        <time>2021-05-20T10:22:48.149Z</time>
      </trkpt>
      <trkpt lat="48.70708" lon="2.05999">
        <ele>104</ele>
        <time>2021-05-20T10:22:49.149Z</time>
      </trkpt>
      <trkpt lat="48.70709" lon="2.05999">
        <ele>104</ele>
        <time>2021-05-20T10:22:50.149Z</time>
      </trkpt>
      <trkpt lat="48.7071" lon="2.05999">
        <ele>104</ele>
        <time>2021-05-20T10:22:51.149Z</time>
      </trkpt>
      <trkpt lat="48.70711" lon="2.05999">
        <ele>104</ele>
        <time>2021-05-20T10:22:52.149Z</time>
      </trkpt>
      <trkpt lat="48.70712" lon="2.05999">
        <ele>104</ele>
        <time>2021-05-20T10:22:53.149Z</time>
      </trkpt>
      <trkpt lat="48.70713" lon="2.05999">
        <ele>105</ele>
        <time>2021-05-20T10:22:54.149Z</time>
      </trkpt>
      <trkpt lat="48.70714" lon="2.05999">
        <ele>105</ele>
        <time>2021-05-20T10:22:55.149Z</time>
      </trkpt>
      <trkpt lat="48.70715" lon="2.05999">
        <ele>105</ele>
        <time>2021-05-20T10:22:56.149Z</time>
      </trkpt>
      <trkpt lat="48.70716" lon="2.05999">
        <ele>105</ele>
        <time>2021-05-20T10:22:57.149Z</time>
      </trkpt>
      <trkpt lat="48.70717" lon="2.05999">
        <ele>106</ele>
        <time>2021-05-20T10:22:58.149Z</time>
      </trkpt>
      <trkpt lat="48.70718" lon="2.05999">
        <ele>106</ele>
        <time>2021-05-20T10:22:59.149Z</time>
      </trkpt>
      <trkpt lat="48.70718" lon="2.05999">
        <ele>106</ele>
        <time>2021-05-20T10:23:00.149Z</time>
      </trkpt>
      <trkpt lat="48.70719" lon="2.05998">
        <ele>106</ele>
        <time>2021-05-20T10:23:01.149Z</time>
      </trkpt>
      <trkpt lat="48.70719" lon="2.05998">
        <ele>107</ele>
        <time>2021-05-20T10:23:02.149Z</time>
      </trkpt>
      <trkpt lat="48.7072" lon="2.05998">
        <ele>107</ele>
        <time>2021-05-20T10:23:03.149Z</time>
      </trkpt>
      <trkpt lat="48.70721" lon="2.05997">
        <ele>107</ele>
        <time>2021-05-20T10:23:04.149Z</time>
      </trkpt>
      <trkpt lat="48.70721" lon="2.05997">
        <ele>107</ele>
        <time>2021-05-20T10:23:05.149Z</time>
      </trkpt>
      <trkpt lat="48.70721" lon="2.05997">
        <ele>108</ele>
        <time>2021-05-20T10:23:06.149Z</time>
      </trkpt>
      <trkpt lat="48.70722" lon="2.05997">
        <ele>108</ele>
        <time>2021-05-20T10:23:07.149Z</time>
      </trkpt>
      <trkpt lat="48.70723" lon="2.05997">
        <ele>108</ele>
        <time>2021-05-20T10:23:08.149Z</time>
      </trkpt>
      <trkpt lat="48.70723" lon="2.05997">
        <ele>108</ele>
        <time>2021-05-20T10:23:09.149Z</time>
      </trkpt>
      <trkpt lat="48.70724" lon="2.05997">
        <ele>109</ele>
        <time>2021-05-20T10:23:10.149Z</time>
      </trkpt>
      <trkpt lat="48.70724" lon="2.05997">
        <ele>109</ele>
        <time>2021-05-20T10:23:11.149Z</time>
      </trkpt>
      <trkpt lat="48.70725" lon="2.05997">
        <ele>109</ele>
        <time>2021-05-20T10:23:12.149Z</time>
      </trkpt>
      <trkpt lat="48.70726" lon="2.05998">
        <ele>109</ele>
        <time>2021-05-20T10:23:13.149Z</time>
      </trkpt>
      <trkpt lat="48.70726" lon="2.05998">
        <ele>110</ele>
        <time>2021-05-20T10:23:14.149Z</time>
      </trkpt>
      <trkpt lat="48.70727" lon="2.05998">
        <ele>110</ele>
        <time>2021-05-20T10:23:15.149Z</time>
      </trkpt>
      <trkpt lat="48.70727" lon="2.05998">
        <ele>110</ele>
        <time>2021-05-20T10:23:16.149Z</time>
      </trkpt>
      <trkpt lat="48.70728" lon="2.05997">
        <ele>110</ele>
        <time>2021-05-20T10:23:17.149Z</time>
      </trkpt>
      <trkpt lat="48.70728" lon="2.05997">
        <ele>111</ele>
        <time>2021-05-20T10:23:18.149Z</time>
      </trkpt>
      <trkpt lat="48.70729" lon="2.05997">
        <ele>111</ele>
        <time>2021-05-20T10:23:19.149Z</time>
      </trkpt>
      <trkpt lat="48.70729" lon="2.05997">
        <ele>111</ele>
        <time>2021-05-20T10:23:20.149Z</time>
      </trkpt>
      <trkpt lat="48.7073" lon="2.05997">
        <ele>112</ele>
        <time>2021-05-20T10:23:21.149Z</time>
      </trkpt>
      <trkpt lat="48.70731" lon="2.05997">
        <ele>112</ele>
        <time>2021-05-20T10:23:22.149Z</time>
      </trkpt>
      <trkpt lat="48.70732" lon="2.05996">
        <ele>113</ele>
        <time>2021-05-20T10:23:23.149Z</time>
      </trkpt>
      <trkpt lat="48.70732" lon="2.05996">
        <ele>113</ele>
        <time>2021-05-20T10:23:24.149Z</time>
      </trkpt>
      <trkpt lat="48.70733" lon="2.05995">
        <ele>113</ele>
        <time>2021-05-20T10:23:25.149Z</time>
      </trkpt>
      <trkpt lat="48.70733" lon="2.05995">
        <ele>114</ele>
        <time>2021-05-20T10:23:26.149Z</time>
      </trkpt>
      <trkpt lat="48.70734" lon="2.05995">
        <ele>114</ele>
        <time>2021-05-20T10:23:27.149Z</time>
      </trkpt>
      <trkpt lat="48.70734" lon="2.05995">
        <ele>114</ele>
        <time>2021-05-20T10:23:28.149Z</time>
      </trkpt>
      <trkpt lat="48.70735" lon="2.05992">
        <ele>116</ele>
        <time>2021-05-20T10:23:29.149Z</time>
      </trkpt>
      <trkpt lat="48.70735" lon="2.05991">
        <ele>116</ele>
        <time>2021-05-20T10:23:30.149Z</time>
      </trkpt>
      <trkpt lat="48.70735" lon="2.0599">
        <ele>116</ele>
        <time>2021-05-20T10:23:31.149Z</time>
      </trkpt>
      <trkpt lat="48.70736" lon="2.05989">
        <ele>116</ele>
        <time>2021-05-20T10:23:32.149Z</time>
      </trkpt>
      <trkpt lat="48.70736" lon="2.05989">
        <ele>117</ele>
        <time>2021-05-20T10:23:33.149Z</time>
      </trkpt>
      <trkpt lat="48.70737" lon="2.05988">
        <ele>117</ele>
        <time>2021-05-20T10:23:34.149Z</time>
      </trkpt>
      <trkpt lat="48.70738" lon="2.05988">
        <ele>117</ele>
        <time>2021-05-20T10:23:35.149Z</time>
      </trkpt>
      <trkpt lat="48.70738" lon="2.05987">
        <ele>117</ele>
        <time>2021-05-20T10:23:36.149Z</time>
      </trkpt>
      <trkpt lat="48.70739" lon="2.05986">
        <ele>118</ele>
        <time>2021-05-20T10:23:37.149Z</time>
      </trkpt>
      <trkpt lat="48.7074" lon="2.05986">
        <ele>118</ele>
        <time>2021-05-20T10:23:38.149Z</time>
      </trkpt>
      <trkpt lat="48.7074" lon="2.05986">
        <ele>118</ele>
        <time>2021-05-20T10:23:39.149Z</time>
      </trkpt>
      <trkpt lat="48.70741" lon="2.05986">
        <ele>118</ele>
        <time>2021-05-20T10:23:40.149Z</time>
      </trkpt>
      <trkpt lat="48.70741" lon="2.05985">
        <ele>119</ele>
        <time>2021-05-20T10:23:41.149Z</time>
      </trkpt>
      <trkpt lat="48.70742" lon="2.05985">
        <ele>119</ele>
        <time>2021-05-20T10:23:53.149Z</time>
      </trkpt>
      <trkpt lat="48.70742" lon="2.05984">
        <ele>119</ele>
        <time>2021-05-20T10:23:54.149Z</time>
      </trkpt>
      <trkpt lat="48.70743" lon="2.05984">
        <ele>119</ele>
        <time>2021-05-20T10:23:55.149Z</time>
      </trkpt>
      <trkpt lat="48.70743" lon="2.05985">
        <ele>120</ele>
        <time>2021-05-20T10:23:56.149Z</time>
      </trkpt>
      <trkpt lat="48.70744" lon="2.05984">
        <ele>120</ele>
        <time>2021-05-20T10:23:57.149Z</time>
      </trkpt>
      <trkpt lat="48.70744" lon="2.05984">
        <ele>120</ele>
        <time>2021-05-20T10:23:58.149Z</time>
      </trkpt>
      <trkpt lat="48.70745" lon="2.05982">
        <ele>120</ele>
        <time>2021-05-20T10:23:59.149Z</time>
      </trkpt>
      <trkpt lat="48.70746" lon="2.05981">
        <ele>121</ele>
        <time>2021-05-20T10:24:00.149Z</time>
      </trkpt>
      <trkpt lat="48.70747" lon="2.0598">
        <ele>121</ele>
        <time>2021-05-20T10:24:01.149Z</time>
      </trkpt>
      <trkpt lat="48.70747" lon="2.0598">
        <ele>121</ele>
        <time>2021-05-20T10:24:02.149Z</time>
      </trkpt>
      <trkpt lat="48.70748" lon="2.05978">
        <ele>121</ele>
        <time>2021-05-20T10:24:03.149Z</time>
      </trkpt>
      <trkpt lat="48.70749" lon="2.05977">
        <ele>122</ele>
        <time>2021-05-20T10:24:04.149Z</time>
      </trkpt>
      <trkpt lat="48.70749" lon="2.05977">
        <ele>122</ele>
        <time>2021-05-20T10:24:05.149Z</time>
      </trkpt>
      <trkpt lat="48.70749" lon="2.05976">
        <ele>122</ele>
        <time>2021-05-20T10:24:06.149Z</time>
      </trkpt>
      <trkpt lat="48.7075" lon="2.05975">
        <ele>122</ele>
        <time>2021-05-20T10:24:07.149Z</time>
      </trkpt>
      <trkpt lat="48.7075" lon="2.05975">
        <ele>122</ele>
        <time>2021-05-20T10:24:08.149Z</time>
      </trkpt>
      <trkpt lat="48.7075" lon="2.05974">
        <ele>122</ele>
        <time>2021-05-20T10:24:09.149Z</time>
      </trkpt>
      <trkpt lat="48.70751" lon="2.05973">
        <ele>123</ele>
        <time>2021-05-20T10:24:10.149Z</time>
      </trkpt>
      <trkpt lat="48.70751" lon="2.05973">
        <ele>123</ele>
        <time>2021-05-20T10:24:11.149Z</time>
      </trkpt>
      <trkpt lat="48.70751" lon="2.05972">
        <ele>123</ele>
        <time>2021-05-20T10:24:12.149Z</time>
      </trkpt>
      <trkpt lat="48.70753" lon="2.05973">
        <ele>124</ele>
        <time>2021-05-20T10:24:13.149Z</time>
      </trkpt>
      <trkpt lat="48.70753" lon="2.05973">
        <ele>124</ele>
        <time>2021-05-20T10:24:14.149Z</time>
      </trkpt>
      <trkpt lat="48.70754" lon="2.05974">
        <ele>124</ele>
        <time>2021-05-20T10:24:15.149Z</time>
      </trkpt>
      <trkpt lat="48.70755" lon="2.05974">
        <ele>125</ele>
        <time>2021-05-20T10:24:16.149Z</time>
      </trkpt>
      <trkpt lat="48.70755" lon="2.05974">
        <ele>125</ele>
        <time>2021-05-20T10:24:17.149Z</time>
      </trkpt>
      <trkpt lat="48.70755" lon="2.05974">
        <ele>125</ele>
        <time>2021-05-20T10:24:18.149Z</time>
      </trkpt>
      <trkpt lat="48.70756" lon="2.05974">
        <ele>125</ele>
        <time>2021-05-20T10:24:19.149Z</time>
      </trkpt>
      <trkpt lat="48.70756" lon="2.05974">
        <ele>125</ele>
        <time>2021-05-20T10:24:20.149Z</time>
      </trkpt>
      <trkpt lat="48.70758" lon="2.05974">
        <ele>125</ele>
        <time>2021-05-20T10:24:21.149Z</time>
      </trkpt>
      <trkpt lat="48.70759" lon="2.05974">
        <ele>125</ele>
        <time>2021-05-20T10:24:22.149Z</time>
      </trkpt>
      <trkpt lat="48.7076" lon="2.05975">
        <ele>125</ele>
        <time>2021-05-20T10:24:23.149Z</time>
      </trkpt>
      <trkpt lat="48.70761" lon="2.05975">
        <ele>124</ele>
        <time>2021-05-20T10:24:24.149Z</time>
      </trkpt>
      <trkpt lat="48.70761" lon="2.05975">
        <ele>124</ele>
        <time>2021-05-20T10:24:25.149Z</time>
      </trkpt>
      <trkpt lat="48.70762" lon="2.05975">
        <ele>124</ele>
        <time>2021-05-20T10:24:26.149Z</time>
      </trkpt>
      <trkpt lat="48.70763" lon="2.05976">
        <ele>124</ele>
        <time>2021-05-20T10:24:27.149Z</time>
      </trkpt>
      <trkpt lat="48.70764" lon="2.05976">
        <ele>124</ele>
        <time>2021-05-20T10:24:28.149Z</time>
      </trkpt>
      <trkpt lat="48.70764" lon="2.05976">
        <ele>124</ele>
        <time>2021-05-20T10:24:29.149Z</time>
      </trkpt>
      <trkpt lat="48.70765" lon="2.05977">
        <ele>124</ele>
        <time>2021-05-20T10:24:30.149Z</time>
      </trkpt>
      <trkpt lat="48.70766" lon="2.05977">
        <ele>124</ele>
        <time>2021-05-20T10:24:31.149Z</time>
      </trkpt>
      <trkpt lat="48.70766" lon="2.05977">
        <ele>125</ele>
        <time>2021-05-20T10:24:32.149Z</time>
      </trkpt>
      <trkpt lat="48.70767" lon="2.05977">
        <ele>125</ele>
        <time>2021-05-20T10:24:33.149Z</time>
      </trkpt>
      <trkpt lat="48.70768" lon="2.05977">
        <ele>125</ele>
        <time>2021-05-20T10:24:34.149Z</time>
      </trkpt>
      <trkpt lat="48.70769" lon="2.05978">
        <ele>125</ele>
        <time>2021-05-20T10:24:35.149Z</time>
      </trkpt>
      <trkpt lat="48.70769" lon="2.05978">
        <ele>125</ele>
        <time>2021-05-20T10:24:36.149Z</time>
      </trkpt>
      <trkpt lat="48.7077" lon="2.05979">
        <ele>125</ele>
        <time>2021-05-20T10:24:37.149Z</time>
      </trkpt>
      <trkpt lat="48.70771" lon="2.05979">
        <ele>125</ele>
        <time>2021-05-20T10:24:38.149Z</time>
      </trkpt>
      <trkpt lat="48.70772" lon="2.0598">
        <ele>126</ele>
        <time>2021-05-20T10:24:39.149Z</time>
      </trkpt>
      <trkpt lat="48.70773" lon="2.0598">
        <ele>126</ele>
        <time>2021-05-20T10:24:40.149Z</time>
      </trkpt>
      <trkpt lat="48.70774" lon="2.05981">
        <ele>126</ele>
        <time>2021-05-20T10:24:41.149Z</time>
      </trkpt>
      <trkpt lat="48.70775" lon="2.05981">
        <ele>127</ele>
        <time>2021-05-20T10:24:42.149Z</time>
      </trkpt>
      <trkpt lat="48.70776" lon="2.05981">
        <ele>127</ele>
        <time>2021-05-20T10:24:43.149Z</time>
      </trkpt>
      <trkpt lat="48.70777" lon="2.05981">
        <ele>127</ele>
        <time>2021-05-20T10:24:44.149Z</time>
      </trkpt>
      <trkpt lat="48.70778" lon="2.05981">
        <ele>127</ele>
        <time>2021-05-20T10:24:45.149Z</time>
      </trkpt>
      <trkpt lat="48.70779" lon="2.05981">
        <ele>128</ele>
        <time>2021-05-20T10:24:46.149Z</time>
      </trkpt>
      <trkpt lat="48.7078" lon="2.05981">
        <ele>128</ele>
        <time>2021-05-20T10:24:47.149Z</time>
      </trkpt>
      <trkpt lat="48.70781" lon="2.05981">
        <ele>128</ele>
        <time>2021-05-20T10:24:48.149Z</time>
      </trkpt>
      <trkpt lat="48.70782" lon="2.05981">
        <ele>128</ele>
        <time>2021-05-20T10:24:49.149Z</time>
      </trkpt>
      <trkpt lat="48.70782" lon="2.0598">
        <ele>129</ele>
        <time>2021-05-20T10:24:50.149Z</time>
      </trkpt>
      <trkpt lat="48.70782" lon="2.0598">
        <ele>129</ele>
        <time>2021-05-20T10:24:51.149Z</time>
      </trkpt>
      <trkpt lat="48.70782" lon="2.05978">
        <ele>130</ele>
        <time>2021-05-20T10:24:52.149Z</time>
      </trkpt>
      <trkpt lat="48.70782" lon="2.05978">
        <ele>130</ele>
        <time>2021-05-20T10:24:53.149Z</time>
      </trkpt>
      <trkpt lat="48.70782" lon="2.05978">
        <ele>130</ele>
        <time>2021-05-20T10:24:54.149Z</time>
      </trkpt>
      <trkpt lat="48.70781" lon="2.05977">
        <ele>130</ele>
        <time>2021-05-20T10:24:55.149Z</time>
      </trkpt>
      <trkpt lat="48.70781" lon="2.05977">
        <ele>130</ele>
        <time>2021-05-20T10:24:56.149Z</time>
      </trkpt>
      <trkpt lat="48.70781" lon="2.05976">
        <ele>130</ele>
        <time>2021-05-20T10:24:57.149Z</time>
      </trkpt>
      <trkpt lat="48.70781" lon="2.05976">
        <ele>131</ele>
        <time>2021-05-20T10:24:58.149Z</time>
      </trkpt>
      <trkpt lat="48.70781" lon="2.05975">
        <ele>131</ele>
        <time>2021-05-20T10:24:59.149Z</time>
      </trkpt>
      <trkpt lat="48.70783" lon="2.05976">
        <ele>132</ele>
        <time>2021-05-20T10:25:00.149Z</time>
      </trkpt>
      <trkpt lat="48.70784" lon="2.05976">
        <ele>132</ele>
        <time>2021-05-20T10:25:01.149Z</time>
      </trkpt>
      <trkpt lat="48.70784" lon="2.05976">
        <ele>132</ele>
        <time>2021-05-20T10:25:02.149Z</time>
      </trkpt>
      <trkpt lat="48.70786" lon="2.05975">
        <ele>133</ele>
        <time>2021-05-20T10:25:03.149Z</time>
      </trkpt>
      <trkpt lat="48.70787" lon="2.05975">
        <ele>133</ele>
        <time>2021-05-20T10:25:04.149Z</time>
      </trkpt>
      <trkpt lat="48.70787" lon="2.05975">
        <ele>133</ele>
        <time>2021-05-20T10:25:05.149Z</time>
      </trkpt>
      <trkpt lat="48.7079" lon="2.05976">
        <ele>134</ele>
        <time>2021-05-20T10:25:06.149Z</time>
      </trkpt>
      <trkpt lat="48.7079" lon="2.05976">
        <ele>134</ele>
        <time>2021-05-20T10:25:07.149Z</time>
      </trkpt>
      <trkpt lat="48.70791" lon="2.05976">
        <ele>134</ele>
        <time>2021-05-20T10:25:08.149Z</time>
      </trkpt>
      <trkpt lat="48.70793" lon="2.05976">
        <ele>134</ele>
        <time>2021-05-20T10:25:09.149Z</time>
      </trkpt>
      <trkpt lat="48.70794" lon="2.05976">
        <ele>134</ele>
        <time>2021-05-20T10:25:10.149Z</time>
      </trkpt>
      <trkpt lat="48.70795" lon="2.05976">
        <ele>134</ele>
        <time>2021-05-20T10:25:11.149Z</time>
      </trkpt>
      <trkpt lat="48.70796" lon="2.05976">
        <ele>135</ele>
        <time>2021-05-20T10:25:12.149Z</time>
      </trkpt>
      <trkpt lat="48.70797" lon="2.05977">
        <ele>135</ele>
        <time>2021-05-20T10:25:13.149Z</time>
      </trkpt>
      <trkpt lat="48.70797" lon="2.05976">
        <ele>135</ele>
        <time>2021-05-20T10:25:14.149Z</time>
      </trkpt>
      <trkpt lat="48.70798" lon="2.05976">
        <ele>135</ele>
        <time>2021-05-20T10:25:15.149Z</time>
      </trkpt>
      <trkpt lat="48.70799" lon="2.05976">
        <ele>135</ele>
        <time>2021-05-20T10:25:16.149Z</time>
      </trkpt>
      <trkpt lat="48.70799" lon="2.05975">
        <ele>135</ele>
        <time>2021-05-20T10:25:17.149Z</time>
      </trkpt>
      <trkpt lat="48.70799" lon="2.05975">
        <ele>135</ele>
        <time>2021-05-20T10:25:18.149Z</time>
      </trkpt>
      <trkpt lat="48.70799" lon="2.05974">
        <ele>135</ele>
        <time>2021-05-20T10:25:19.149Z</time>
      </trkpt>
      <trkpt lat="48.70799" lon="2.05973">
        <ele>135</ele>
        <time>2021-05-20T10:25:20.149Z</time>
      </trkpt>
      <trkpt lat="48.70799" lon="2.05973">
        <ele>135</ele>
        <time>2021-05-20T10:25:21.149Z</time>
      </trkpt>
      <trkpt lat="48.70798" lon="2.05972">
        <ele>136</ele>
        <time>2021-05-20T10:25:22.149Z</time>
      </trkpt>
      <trkpt lat="48.70798" lon="2.05972">
        <ele>136</ele>
        <time>2021-05-20T10:25:23.149Z</time>
      </trkpt>
      <trkpt lat="48.70798" lon="2.05971">
        <ele>136</ele>
        <time>2021-05-20T10:25:24.149Z</time>
      </trkpt>
      <trkpt lat="48.70798" lon="2.05969">
        <ele>136</ele>
        <time>2021-05-20T10:25:25.149Z</time>
      </trkpt>
      <trkpt lat="48.70799" lon="2.05968">
        <ele>136</ele>
        <time>2021-05-20T10:25:26.149Z</time>
      </trkpt>
      <trkpt lat="48.708" lon="2.05968">
        <ele>136</ele>
        <time>2021-05-20T10:25:27.149Z</time>
      </trkpt>
      <trkpt lat="48.708" lon="2.05968">
        <ele>136</ele>
        <time>2021-05-20T10:25:28.149Z</time>
      </trkpt>
      <trkpt lat="48.708" lon="2.05968">
        <ele>136</ele>
        <time>2021-05-20T10:25:29.149Z</time>
      </trkpt>
      <trkpt lat="48.70801" lon="2.05968">
        <ele>136</ele>
        <time>2021-05-20T10:25:30.149Z</time>
      </trkpt>
      <trkpt lat="48.70803" lon="2.05968">
        <ele>137</ele>
        <time>2021-05-20T10:25:31.149Z</time>
      </trkpt>
      <trkpt lat="48.70803" lon="2.05968">
        <ele>137</ele>
        <time>2021-05-20T10:25:32.149Z</time>
      </trkpt>
      <trkpt lat="48.70804" lon="2.05968">
        <ele>137</ele>
        <time>2021-05-20T10:25:33.149Z</time>
      </trkpt>
      <trkpt lat="48.70805" lon="2.05968">
        <ele>137</ele>
        <time>2021-05-20T10:25:34.149Z</time>
      </trkpt>
      <trkpt lat="48.70806" lon="2.05968">
        <ele>137</ele>
        <time>2021-05-20T10:25:35.149Z</time>
      </trkpt>
      <trkpt lat="48.70807" lon="2.05968">
        <ele>137</ele>
        <time>2021-05-20T10:25:36.149Z</time>
      </trkpt>
      <trkpt lat="48.70808" lon="2.05967">
        <ele>137</ele>
        <time>2021-05-20T10:25:37.149Z</time>
      </trkpt>
      <trkpt lat="48.70808" lon="2.05966">
        <ele>138</ele>
        <time>2021-05-20T10:25:38.149Z</time>
      </trkpt>
      <trkpt lat="48.70809" lon="2.05966">
        <ele>138</ele>
        <time>2021-05-20T10:25:39.149Z</time>
      </trkpt>
      <trkpt lat="48.70809" lon="2.05965">
        <ele>138</ele>
        <time>2021-05-20T10:25:40.149Z</time>
      </trkpt>
      <trkpt lat="48.7081" lon="2.05964">
        <ele>138</ele>
        <time>2021-05-20T10:25:41.149Z</time>
      </trkpt>
      <trkpt lat="48.70811" lon="2.05963">
        <ele>138</ele>
        <time>2021-05-20T10:25:42.149Z</time>
      </trkpt>
      <trkpt lat="48.70811" lon="2.05963">
        <ele>139</ele>
        <time>2021-05-20T10:25:43.149Z</time>
      </trkpt>
      <trkpt lat="48.70812" lon="2.05962">
        <ele>139</ele>
        <time>2021-05-20T10:25:44.149Z</time>
      </trkpt>
      <trkpt lat="48.70812" lon="2.05961">
        <ele>139</ele>
        <time>2021-05-20T10:25:45.149Z</time>
      </trkpt>
      <trkpt lat="48.70812" lon="2.05961">
        <ele>139</ele>
        <time>2021-05-20T10:25:46.149Z</time>
      </trkpt>
      <trkpt lat="48.70815" lon="2.05959">
        <ele>140</ele>
        <time>2021-05-20T10:25:47.149Z</time>
      </trkpt>
      <trkpt lat="48.70815" lon="2.05958">
        <ele>140</ele>
        <time>2021-05-20T10:25:48.149Z</time>
      </trkpt>
      <trkpt lat="48.70816" lon="2.05958">
        <ele>141</ele>
        <time>2021-05-20T10:25:49.149Z</time>
      </trkpt>
      <trkpt lat="48.70816" lon="2.05958">
        <ele>141</ele>
        <time>2021-05-20T10:25:50.149Z</time>
      </trkpt>
      <trkpt lat="48.70816" lon="2.05957">
        <ele>141</ele>
        <time>2021-05-20T10:25:51.149Z</time>
      </trkpt>
      <trkpt lat="48.70815" lon="2.05955">
        <ele>141</ele>
        <time>2021-05-20T10:25:52.149Z</time>
      </trkpt>
      <trkpt lat="48.70815" lon="2.05955">
        <ele>141</ele>
        <time>2021-05-20T10:25:53.149Z</time>
      </trkpt>
      <trkpt lat="48.70814" lon="2.05954">
        <ele>142</ele>
        <time>2021-05-20T10:25:54.149Z</time>
      </trkpt>
      <trkpt lat="48.70814" lon="2.05953">
        <ele>142</ele>
        <time>2021-05-20T10:25:55.149Z</time>
      </trkpt>
      <trkpt lat="48.70813" lon="2.05953">
        <ele>142</ele>
        <time>2021-05-20T10:25:56.149Z</time>
      </trkpt>
      <trkpt lat="48.70813" lon="2.05953">
        <ele>142</ele>
        <time>2021-05-20T10:25:57.149Z</time>
      </trkpt>
      <trkpt lat="48.70812" lon="2.05953">
        <ele>142</ele>
        <time>2021-05-20T10:25:58.149Z</time>
      </trkpt>
      <trkpt lat="48.70812" lon="2.05953">
        <ele>142</ele>
        <time>2021-05-20T10:25:59.149Z</time>
      </trkpt>
      <trkpt lat="48.70811" lon="2.05952">
        <ele>143</ele>
        <time>2021-05-20T10:26:00.149Z</time>
      </trkpt>
      <trkpt lat="48.70811" lon="2.05952">
        <ele>143</ele>
        <time>2021-05-20T10:26:01.149Z</time>
      </trkpt>
      <trkpt lat="48.7081" lon="2.05952">
        <ele>143</ele>
        <time>2021-05-20T10:26:02.149Z</time>
      </trkpt>
      <trkpt lat="48.7081" lon="2.05951">
        <ele>143</ele>
        <time>2021-05-20T10:26:03.149Z</time>
      </trkpt>
      <trkpt lat="48.70809" lon="2.05951">
        <ele>143</ele>
        <time>2021-05-20T10:26:04.149Z</time>
      </trkpt>
      <trkpt lat="48.70808" lon="2.05951">
        <ele>144</ele>
        <time>2021-05-20T10:26:05.149Z</time>
      </trkpt>
      <trkpt lat="48.70808" lon="2.0595">
        <ele>144</ele>
        <time>2021-05-20T10:26:06.149Z</time>
      </trkpt>
      <trkpt lat="48.70807" lon="2.0595">
        <ele>144</ele>
        <time>2021-05-20T10:26:07.149Z</time>
      </trkpt>
      <trkpt lat="48.70807" lon="2.0595">
        <ele>144</ele>
        <time>2021-05-20T10:26:08.149Z</time>
      </trkpt>
      <trkpt lat="48.70807" lon="2.0595">
        <ele>144</ele>
        <time>2021-05-20T10:26:09.149Z</time>
      </trkpt>
      <trkpt lat="48.70807" lon="2.0595">
        <ele>144</ele>
        <time>2021-05-20T10:26:10.149Z</time>
      </trkpt>
      <trkpt lat="48.70806" lon="2.05949">
        <ele>145</ele>
        <time>2021-05-20T10:26:11.149Z</time>
      </trkpt>
      <trkpt lat="48.70805" lon="2.05949">
        <ele>145</ele>
        <time>2021-05-20T10:26:12.149Z</time>
      </trkpt>
      <trkpt lat="48.70805" lon="2.05948">
        <ele>145</ele>
        <time>2021-05-20T10:26:13.149Z</time>
      </trkpt>
      <trkpt lat="48.70804" lon="2.05948">
        <ele>145</ele>
        <time>2021-05-20T10:26:14.149Z</time>
      </trkpt>
      <trkpt lat="48.70803" lon="2.05947">
        <ele>145</ele>
        <time>2021-05-20T10:26:15.149Z</time>
      </trkpt>
      <trkpt lat="48.70802" lon="2.05946">
        <ele>145</ele>
        <time>2021-05-20T10:26:16.149Z</time>
      </trkpt>
      <trkpt lat="48.70802" lon="2.05946">
        <ele>145</ele>
        <time>2021-05-20T10:26:17.149Z</time>
      </trkpt>
      <trkpt lat="48.70801" lon="2.05945">
        <ele>146</ele>
        <time>2021-05-20T10:26:18.149Z</time>
      </trkpt>
      <trkpt lat="48.708" lon="2.05944">
        <ele>146</ele>
        <time>2021-05-20T10:26:19.149Z</time>
      </trkpt>
      <trkpt lat="48.708" lon="2.05944">
        <ele>146</ele>
        <time>2021-05-20T10:26:20.149Z</time>
      </trkpt>
      <trkpt lat="48.70799" lon="2.05943">
        <ele>146</ele>
        <time>2021-05-20T10:26:21.149Z</time>
      </trkpt>
      <trkpt lat="48.70799" lon="2.05942">
        <ele>146</ele>
        <time>2021-05-20T10:26:22.149Z</time>
      </trkpt>
      <trkpt lat="48.70799" lon="2.05942">
        <ele>146</ele>
        <time>2021-05-20T10:26:23.149Z</time>
      </trkpt>
      <trkpt lat="48.70798" lon="2.05942">
        <ele>146</ele>
        <time>2021-05-20T10:26:24.149Z</time>
      </trkpt>
      <trkpt lat="48.70798" lon="2.05941">
        <ele>147</ele>
        <time>2021-05-20T10:26:25.149Z</time>
      </trkpt>
      <trkpt lat="48.70797" lon="2.05941">
        <ele>147</ele>
        <time>2021-05-20T10:26:26.149Z</time>
      </trkpt>
      <trkpt lat="48.70796" lon="2.0594">
        <ele>147</ele>
        <time>2021-05-20T10:26:27.149Z</time>
      </trkpt>
      <trkpt lat="48.70796" lon="2.0594">
        <ele>147</ele>
        <time>2021-05-20T10:26:28.149Z</time>
      </trkpt>
      <trkpt lat="48.70795" lon="2.05939">
        <ele>147</ele>
        <time>2021-05-20T10:26:29.149Z</time>
      </trkpt>
      <trkpt lat="48.70795" lon="2.05939">
        <ele>147</ele>
        <time>2021-05-20T10:26:30.149Z</time>
      </trkpt>
      <trkpt lat="48.70794" lon="2.05938">
        <ele>147</ele>
        <time>2021-05-20T10:26:31.149Z</time>
      </trkpt>
      <trkpt lat="48.70793" lon="2.05938">
        <ele>147</ele>
        <time>2021-05-20T10:26:32.149Z</time>
      </trkpt>
      <trkpt lat="48.70793" lon="2.05937">
        <ele>147</ele>
        <time>2021-05-20T10:26:33.149Z</time>
      </trkpt>
      <trkpt lat="48.70792" lon="2.05936">
        <ele>147</ele>
        <time>2021-05-20T10:26:34.149Z</time>
      </trkpt>
      <trkpt lat="48.70791" lon="2.05935">
        <ele>147</ele>
        <time>2021-05-20T10:26:35.149Z</time>
      </trkpt>
      <trkpt lat="48.7079" lon="2.05934">
        <ele>148</ele>
        <time>2021-05-20T10:26:36.149Z</time>
      </trkpt>
      <trkpt lat="48.7079" lon="2.05933">
        <ele>148</ele>
        <time>2021-05-20T10:26:37.149Z</time>
      </trkpt>
      <trkpt lat="48.70789" lon="2.05931">
        <ele>148</ele>
        <time>2021-05-20T10:26:38.149Z</time>
      </trkpt>
      <trkpt lat="48.70789" lon="2.0593">
        <ele>148</ele>
        <time>2021-05-20T10:26:39.149Z</time>
      </trkpt>
      <trkpt lat="48.70788" lon="2.05929">
        <ele>148</ele>
        <time>2021-05-20T10:26:40.149Z</time>
      </trkpt>
      <trkpt lat="48.70788" lon="2.05929">
        <ele>148</ele>
        <time>2021-05-20T10:26:41.149Z</time>
      </trkpt>
      <trkpt lat="48.70788" lon="2.05928">
        <ele>148</ele>
        <time>2021-05-20T10:26:42.149Z</time>
      </trkpt>
      <trkpt lat="48.70788" lon="2.05927">
        <ele>148</ele>
        <time>2021-05-20T10:26:43.149Z</time>
      </trkpt>
      <trkpt lat="48.70788" lon="2.05927">
        <ele>148</ele>
        <time>2021-05-20T10:26:44.149Z</time>
      </trkpt>
      <trkpt lat="48.70787" lon="2.05925">
        <ele>149</ele>
        <time>2021-05-20T10:26:45.149Z</time>
      </trkpt>
      <trkpt lat="48.70786" lon="2.05924">
        <ele>149</ele>
        <time>2021-05-20T10:26:46.149Z</time>
      </trkpt>
      <trkpt lat="48.70785" lon="2.05922">
        <ele>149</ele>
        <time>2021-05-20T10:26:47.149Z</time>
      </trkpt>
      <trkpt lat="48.70785" lon="2.0592">
        <ele>150</ele>
        <time>2021-05-20T10:26:48.149Z</time>
      </trkpt>
      <trkpt lat="48.70785" lon="2.0592">
        <ele>150</ele>
        <time>2021-05-20T10:26:49.149Z</time>
      </trkpt>
      <trkpt lat="48.70784" lon="2.05919">
        <ele>150</ele>
        <time>2021-05-20T10:26:50.149Z</time>
      </trkpt>
      <trkpt lat="48.70784" lon="2.05916">
        <ele>149</ele>
        <time>2021-05-20T10:26:51.149Z</time>
      </trkpt>
      <trkpt lat="48.70784" lon="2.05916">
        <ele>149</ele>
        <time>2021-05-20T10:26:52.149Z</time>
      </trkpt>
      <trkpt lat="48.70783" lon="2.05915">
        <ele>149</ele>
        <time>2021-05-20T10:26:53.149Z</time>
      </trkpt>
      <trkpt lat="48.70783" lon="2.05914">
        <ele>149</ele>
        <time>2021-05-20T10:26:54.149Z</time>
      </trkpt>
      <trkpt lat="48.70782" lon="2.05912">
        <ele>149</ele>
        <time>2021-05-20T10:26:55.149Z</time>
      </trkpt>
      <trkpt lat="48.70782" lon="2.05911">
        <ele>149</ele>
        <time>2021-05-20T10:26:56.149Z</time>
      </trkpt>
      <trkpt lat="48.70782" lon="2.0591">
        <ele>149</ele>
        <time>2021-05-20T10:26:57.149Z</time>
      </trkpt>
      <trkpt lat="48.70782" lon="2.05909">
        <ele>150</ele>
        <time>2021-05-20T10:26:58.149Z</time>
      </trkpt>
      <trkpt lat="48.70781" lon="2.05909">
        <ele>150</ele>
        <time>2021-05-20T10:26:59.149Z</time>
      </trkpt>
      <trkpt lat="48.70781" lon="2.05908">
        <ele>150</ele>
        <time>2021-05-20T10:27:00.149Z</time>
      </trkpt>
      <trkpt lat="48.70781" lon="2.05907">
        <ele>150</ele>
        <time>2021-05-20T10:27:01.149Z</time>
      </trkpt>
      <trkpt lat="48.70781" lon="2.05906">
        <ele>150</ele>
        <time>2021-05-20T10:27:02.149Z</time>
      </trkpt>
      <trkpt lat="48.70782" lon="2.05905">
        <ele>150</ele>
        <time>2021-05-20T10:27:03.149Z</time>
      </trkpt>
      <trkpt lat="48.70782" lon="2.05904">
        <ele>150</ele>
        <time>2021-05-20T10:27:04.149Z</time>
      </trkpt>
      <trkpt lat="48.70782" lon="2.05903">
        <ele>150</ele>
        <time>2021-05-20T10:27:05.149Z</time>
      </trkpt>
      <trkpt lat="48.70782" lon="2.05902">
        <ele>150</ele>
        <time>2021-05-20T10:27:06.149Z</time>
      </trkpt>
      <trkpt lat="48.70782" lon="2.05901">
        <ele>150</ele>
        <time>2021-05-20T10:27:07.149Z</time>
      </trkpt>
      <trkpt lat="48.70783" lon="2.059">
        <ele>150</ele>
        <time>2021-05-20T10:27:08.149Z</time>
      </trkpt>
      <trkpt lat="48.70783" lon="2.059">
        <ele>150</ele>
        <time>2021-05-20T10:27:09.149Z</time>
      </trkpt>
      <trkpt lat="48.70783" lon="2.05899">
        <ele>150</ele>
        <time>2021-05-20T10:27:10.149Z</time>
      </trkpt>
      <trkpt lat="48.70783" lon="2.05898">
        <ele>150</ele>
        <time>2021-05-20T10:27:11.149Z</time>
      </trkpt>
      <trkpt lat="48.70788" lon="2.05893">
        <ele>153</ele>
        <time>2021-05-20T10:27:12.149Z</time>
      </trkpt>
      <trkpt lat="48.70789" lon="2.05893">
        <ele>153</ele>
        <time>2021-05-20T10:27:13.149Z</time>
      </trkpt>
      <trkpt lat="48.7079" lon="2.05893">
        <ele>153</ele>
        <time>2021-05-20T10:27:14.149Z</time>
      </trkpt>
      <trkpt lat="48.7079" lon="2.05892">
        <ele>153</ele>
        <time>2021-05-20T10:27:15.149Z</time>
      </trkpt>
      <trkpt lat="48.70791" lon="2.05892">
        <ele>154</ele>
        <time>2021-05-20T10:27:16.149Z</time>
      </trkpt>
      <trkpt lat="48.70792" lon="2.05892">
        <ele>154</ele>
        <time>2021-05-20T10:27:17.149Z</time>
      </trkpt>
      <trkpt lat="48.70793" lon="2.05891">
        <ele>154</ele>
        <time>2021-05-20T10:27:18.149Z</time>
      </trkpt>
      <trkpt lat="48.70794" lon="2.05891">
        <ele>154</ele>
        <time>2021-05-20T10:27:19.149Z</time>
      </trkpt>
      <trkpt lat="48.70795" lon="2.0589">
        <ele>154</ele>
        <time>2021-05-20T10:27:20.149Z</time>
      </trkpt>
      <trkpt lat="48.70796" lon="2.0589">
        <ele>154</ele>
        <time>2021-05-20T10:27:21.149Z</time>
      </trkpt>
      <trkpt lat="48.70797" lon="2.05889">
        <ele>154</ele>
        <time>2021-05-20T10:27:22.149Z</time>
      </trkpt>
      <trkpt lat="48.70798" lon="2.05889">
        <ele>154</ele>
        <time>2021-05-20T10:27:23.149Z</time>
      </trkpt>
      <trkpt lat="48.70799" lon="2.05889">
        <ele>154</ele>
        <time>2021-05-20T10:27:24.149Z</time>
      </trkpt>
      <trkpt lat="48.708" lon="2.05889">
        <ele>155</ele>
        <time>2021-05-20T10:27:25.149Z</time>
      </trkpt>
      <trkpt lat="48.70801" lon="2.05889">
        <ele>155</ele>
        <time>2021-05-20T10:27:26.149Z</time>
      </trkpt>
      <trkpt lat="48.70802" lon="2.0589">
        <ele>155</ele>
        <time>2021-05-20T10:27:27.149Z</time>
      </trkpt>
      <trkpt lat="48.70803" lon="2.0589">
        <ele>155</ele>
        <time>2021-05-20T10:27:28.149Z</time>
      </trkpt>
      <trkpt lat="48.70804" lon="2.0589">
        <ele>155</ele>
        <time>2021-05-20T10:27:29.149Z</time>
      </trkpt>
      <trkpt lat="48.70805" lon="2.05889">
        <ele>156</ele>
        <time>2021-05-20T10:27:30.149Z</time>
      </trkpt>
      <trkpt lat="48.70806" lon="2.05889">
        <ele>156</ele>
        <time>2021-05-20T10:27:31.149Z</time>
      </trkpt>
      <trkpt lat="48.70807" lon="2.05888">
        <ele>156</ele>
        <time>2021-05-20T10:27:32.149Z</time>
      </trkpt>
      <trkpt lat="48.70808" lon="2.05887">
        <ele>156</ele>
        <time>2021-05-20T10:27:33.149Z</time>
      </trkpt>
      <trkpt lat="48.70809" lon="2.05887">
        <ele>156</ele>
        <time>2021-05-20T10:27:34.149Z</time>
      </trkpt>
      <trkpt lat="48.7081" lon="2.05887">
        <ele>156</ele>
        <time>2021-05-20T10:27:35.149Z</time>
      </trkpt>
      <trkpt lat="48.70811" lon="2.05888">
        <ele>156</ele>
        <time>2021-05-20T10:27:36.149Z</time>
      </trkpt>
      <trkpt lat="48.70811" lon="2.05889">
        <ele>156</ele>
        <time>2021-05-20T10:27:37.149Z</time>
      </trkpt>
      <trkpt lat="48.70812" lon="2.0589">
        <ele>156</ele>
        <time>2021-05-20T10:27:38.149Z</time>
      </trkpt>
      <trkpt lat="48.70813" lon="2.05892">
        <ele>156</ele>
        <time>2021-05-20T10:27:39.149Z</time>
      </trkpt>
      <trkpt lat="48.70814" lon="2.05893">
        <ele>156</ele>
        <time>2021-05-20T10:27:40.149Z</time>
      </trkpt>
      <trkpt lat="48.70815" lon="2.05894">
        <ele>156</ele>
        <time>2021-05-20T10:27:41.149Z</time>
      </trkpt>
      <trkpt lat="48.70815" lon="2.05895">
        <ele>156</ele>
        <time>2021-05-20T10:27:42.149Z</time>
      </trkpt>
      <trkpt lat="48.70816" lon="2.05897">
        <ele>156</ele>
        <time>2021-05-20T10:27:43.149Z</time>
      </trkpt>
      <trkpt lat="48.70816" lon="2.05899">
        <ele>157</ele>
        <time>2021-05-20T10:27:44.149Z</time>
      </trkpt>
      <trkpt lat="48.70817" lon="2.059">
        <ele>157</ele>
        <time>2021-05-20T10:27:45.149Z</time>
      </trkpt>
      <trkpt lat="48.70818" lon="2.05902">
        <ele>157</ele>
        <time>2021-05-20T10:27:46.149Z</time>
      </trkpt>
      <trkpt lat="48.70818" lon="2.05903">
        <ele>157</ele>
        <time>2021-05-20T10:27:47.149Z</time>
      </trkpt>
      <trkpt lat="48.70819" lon="2.05904">
        <ele>157</ele>
        <time>2021-05-20T10:27:48.149Z</time>
      </trkpt>
      <trkpt lat="48.70819" lon="2.05906">
        <ele>157</ele>
        <time>2021-05-20T10:27:49.149Z</time>
      </trkpt>
      <trkpt lat="48.7082" lon="2.05908">
        <ele>157</ele>
        <time>2021-05-20T10:27:50.149Z</time>
      </trkpt>
      <trkpt lat="48.7082" lon="2.05909">
        <ele>157</ele>
        <time>2021-05-20T10:27:51.149Z</time>
      </trkpt>
      <trkpt lat="48.70821" lon="2.05909">
        <ele>157</ele>
        <time>2021-05-20T10:27:52.149Z</time>
      </trkpt>
      <trkpt lat="48.70821" lon="2.0591">
        <ele>157</ele>
        <time>2021-05-20T10:27:53.149Z</time>
      </trkpt>
      <trkpt lat="48.70822" lon="2.05911">
        <ele>157</ele>
        <time>2021-05-20T10:27:54.149Z</time>
      </trkpt>
      <trkpt lat="48.70822" lon="2.05912">
        <ele>157</ele>
        <time>2021-05-20T10:27:55.149Z</time>
      </trkpt>
      <trkpt lat="48.70823" lon="2.05913">
        <ele>157</ele>
        <time>2021-05-20T10:27:56.149Z</time>
      </trkpt>
      <trkpt lat="48.70823" lon="2.05914">
        <ele>157</ele>
        <time>2021-05-20T10:27:57.149Z</time>
      </trkpt>
      <trkpt lat="48.70824" lon="2.05914">
        <ele>157</ele>
        <time>2021-05-20T10:27:58.149Z</time>
      </trkpt>
      <trkpt lat="48.70825" lon="2.05915">
        <ele>157</ele>
        <time>2021-05-20T10:27:59.149Z</time>
      </trkpt>
      <trkpt lat="48.70825" lon="2.05915">
        <ele>157</ele>
        <time>2021-05-20T10:28:00.149Z</time>
      </trkpt>
      <trkpt lat="48.70825" lon="2.05915">
        <ele>157</ele>
        <time>2021-05-20T10:28:01.149Z</time>
      </trkpt>
      <trkpt lat="48.70825" lon="2.05915">
        <ele>157</ele>
        <time>2021-05-20T10:28:02.149Z</time>
      </trkpt>
      <trkpt lat="48.70826" lon="2.05916">
        <ele>157</ele>
        <time>2021-05-20T10:28:03.149Z</time>
      </trkpt>
      <trkpt lat="48.70826" lon="2.05917">
        <ele>157</ele>
        <time>2021-05-20T10:28:04.149Z</time>
      </trkpt>
      <trkpt lat="48.70827" lon="2.05917">
        <ele>157</ele>
        <time>2021-05-20T10:28:05.149Z</time>
      </trkpt>
      <trkpt lat="48.70827" lon="2.05917">
        <ele>157</ele>
        <time>2021-05-20T10:28:06.149Z</time>
      </trkpt>
      <trkpt lat="48.70827" lon="2.05918">
        <ele>157</ele>
        <time>2021-05-20T10:28:07.149Z</time>
      </trkpt>
      <trkpt lat="48.70828" lon="2.05918">
        <ele>157</ele>
        <time>2021-05-20T10:28:08.149Z</time>
      </trkpt>
      <trkpt lat="48.70828" lon="2.05919">
        <ele>157</ele>
        <time>2021-05-20T10:28:09.149Z</time>
      </trkpt>
      <trkpt lat="48.70829" lon="2.05924">
        <ele>156</ele>
        <time>2021-05-20T10:28:10.149Z</time>
      </trkpt>
      <trkpt lat="48.70829" lon="2.05924">
        <ele>156</ele>
        <time>2021-05-20T10:28:11.149Z</time>
      </trkpt>
      <trkpt lat="48.70829" lon="2.05924">
        <ele>156</ele>
        <time>2021-05-20T10:28:12.149Z</time>
      </trkpt>
      <trkpt lat="48.70829" lon="2.05924">
        <ele>156</ele>
        <time>2021-05-20T10:28:13.149Z</time>
      </trkpt>
      <trkpt lat="48.70829" lon="2.05924">
        <ele>156</ele>
        <time>2021-05-20T10:28:14.149Z</time>
      </trkpt>
      <trkpt lat="48.70828" lon="2.05924">
        <ele>156</ele>
        <time>2021-05-20T10:28:15.149Z</time>
      </trkpt>
      <trkpt lat="48.7083" lon="2.05924">
        <ele>156</ele>
        <time>2021-05-20T10:28:16.149Z</time>
      </trkpt>
      <trkpt lat="48.7083" lon="2.05924">
        <ele>156</ele>
        <time>2021-05-20T10:28:17.149Z</time>
      </trkpt>
      <trkpt lat="48.70831" lon="2.05924">
        <ele>156</ele>
        <time>2021-05-20T10:28:18.149Z</time>
      </trkpt>
      <trkpt lat="48.70831" lon="2.05924">
        <ele>156</ele>
        <time>2021-05-20T10:28:19.149Z</time>
      </trkpt>
      <trkpt lat="48.70832" lon="2.05925">
        <ele>156</ele>
        <time>2021-05-20T10:28:20.149Z</time>
      </trkpt>
      <trkpt lat="48.70833" lon="2.05926">
        <ele>156</ele>
        <time>2021-05-20T10:28:21.149Z</time>
      </trkpt>
      <trkpt lat="48.70834" lon="2.05926">
        <ele>156</ele>
        <time>2021-05-20T10:28:22.149Z</time>
      </trkpt>
      <trkpt lat="48.70835" lon="2.05927">
        <ele>156</ele>
        <time>2021-05-20T10:28:23.149Z</time>
      </trkpt>
      <trkpt lat="48.70836" lon="2.05928">
        <ele>156</ele>
        <time>2021-05-20T10:28:24.149Z</time>
      </trkpt>
      <trkpt lat="48.70837" lon="2.05929">
        <ele>156</ele>
        <time>2021-05-20T10:28:25.149Z</time>
      </trkpt>
      <trkpt lat="48.70838" lon="2.0593">
        <ele>156</ele>
        <time>2021-05-20T10:28:26.149Z</time>
      </trkpt>
      <trkpt lat="48.70839" lon="2.05931">
        <ele>156</ele>
        <time>2021-05-20T10:28:27.149Z</time>
      </trkpt>
      <trkpt lat="48.70839" lon="2.05932">
        <ele>156</ele>
        <time>2021-05-20T10:28:28.149Z</time>
      </trkpt>
      <trkpt lat="48.7084" lon="2.05933">
        <ele>156</ele>
        <time>2021-05-20T10:28:29.149Z</time>
      </trkpt>
      <trkpt lat="48.7084" lon="2.05933">
        <ele>156</ele>
        <time>2021-05-20T10:28:30.149Z</time>
      </trkpt>
      <trkpt lat="48.70839" lon="2.05933">
        <ele>156</ele>
        <time>2021-05-20T10:28:31.149Z</time>
      </trkpt>
      <trkpt lat="48.70839" lon="2.05933">
        <ele>156</ele>
        <time>2021-05-20T10:28:32.149Z</time>
      </trkpt>
      <trkpt lat="48.70842" lon="2.05937">
        <ele>157</ele>
        <time>2021-05-20T10:28:33.149Z</time>
      </trkpt>
      <trkpt lat="48.70841" lon="2.05938">
        <ele>157</ele>
        <time>2021-05-20T10:28:34.149Z</time>
      </trkpt>
      <trkpt lat="48.70841" lon="2.05938">
        <ele>157</ele>
        <time>2021-05-20T10:28:35.149Z</time>
      </trkpt>
      <trkpt lat="48.70841" lon="2.05938">
        <ele>157</ele>
        <time>2021-05-20T10:28:36.149Z</time>
      </trkpt>
      <trkpt lat="48.70841" lon="2.05938">
        <ele>157</ele>
        <time>2021-05-20T10:28:37.149Z</time>
      </trkpt>
      <trkpt lat="48.7084" lon="2.05938">
        <ele>158</ele>
        <time>2021-05-20T10:28:38.149Z</time>
      </trkpt>
      <trkpt lat="48.7084" lon="2.05938">
        <ele>158</ele>
        <time>2021-05-20T10:28:39.149Z</time>
      </trkpt>
      <trkpt lat="48.70841" lon="2.05937">
        <ele>162</ele>
        <time>2021-05-20T10:28:40.149Z</time>
      </trkpt>
      <trkpt lat="48.70842" lon="2.05937">
        <ele>162</ele>
        <time>2021-05-20T10:28:41.149Z</time>
      </trkpt>
      <trkpt lat="48.70843" lon="2.05938">
        <ele>162</ele>
        <time>2021-05-20T10:28:42.149Z</time>
      </trkpt>
      <trkpt lat="48.70843" lon="2.05938">
        <ele>162</ele>
        <time>2021-05-20T10:28:43.149Z</time>
      </trkpt>
      <trkpt lat="48.70844" lon="2.05938">
        <ele>162</ele>
        <time>2021-05-20T10:28:44.149Z</time>
      </trkpt>
      <trkpt lat="48.70845" lon="2.05938">
        <ele>162</ele>
        <time>2021-05-20T10:28:45.149Z</time>
      </trkpt>
      <trkpt lat="48.70845" lon="2.05938">
        <ele>162</ele>
        <time>2021-05-20T10:28:46.149Z</time>
      </trkpt>
      <trkpt lat="48.70846" lon="2.05939">
        <ele>162</ele>
        <time>2021-05-20T10:28:47.149Z</time>
      </trkpt>
      <trkpt lat="48.70846" lon="2.05939">
        <ele>162</ele>
        <time>2021-05-20T10:28:48.149Z</time>
      </trkpt>
      <trkpt lat="48.70847" lon="2.0594">
        <ele>162</ele>
        <time>2021-05-20T10:28:49.149Z</time>
      </trkpt>
      <trkpt lat="48.70847" lon="2.0594">
        <ele>162</ele>
        <time>2021-05-20T10:28:50.149Z</time>
      </trkpt>
      <trkpt lat="48.70848" lon="2.05941">
        <ele>162</ele>
        <time>2021-05-20T10:28:51.149Z</time>
      </trkpt>
      <trkpt lat="48.70849" lon="2.05941">
        <ele>162</ele>
        <time>2021-05-20T10:28:52.149Z</time>
      </trkpt>
      <trkpt lat="48.7085" lon="2.0594">
        <ele>162</ele>
        <time>2021-05-20T10:28:53.149Z</time>
      </trkpt>
      <trkpt lat="48.70851" lon="2.0594">
        <ele>162</ele>
        <time>2021-05-20T10:28:54.149Z</time>
      </trkpt>
      <trkpt lat="48.70852" lon="2.05939">
        <ele>162</ele>
        <time>2021-05-20T10:28:55.149Z</time>
      </trkpt>
      <trkpt lat="48.70853" lon="2.05939">
        <ele>162</ele>
        <time>2021-05-20T10:28:56.149Z</time>
      </trkpt>
      <trkpt lat="48.70854" lon="2.05939">
        <ele>162</ele>
        <time>2021-05-20T10:28:57.149Z</time>
      </trkpt>
      <trkpt lat="48.70855" lon="2.05939">
        <ele>161</ele>
        <time>2021-05-20T10:28:58.149Z</time>
      </trkpt>
      <trkpt lat="48.70856" lon="2.05938">
        <ele>161</ele>
        <time>2021-05-20T10:28:59.149Z</time>
      </trkpt>
      <trkpt lat="48.70857" lon="2.05938">
        <ele>161</ele>
        <time>2021-05-20T10:29:00.149Z</time>
      </trkpt>
      <trkpt lat="48.70858" lon="2.05938">
        <ele>162</ele>
        <time>2021-05-20T10:29:01.149Z</time>
      </trkpt>
      <trkpt lat="48.70859" lon="2.05937">
        <ele>162</ele>
        <time>2021-05-20T10:29:02.149Z</time>
      </trkpt>
      <trkpt lat="48.7086" lon="2.05937">
        <ele>162</ele>
        <time>2021-05-20T10:29:03.149Z</time>
      </trkpt>
      <trkpt lat="48.70861" lon="2.05937">
        <ele>162</ele>
        <time>2021-05-20T10:29:04.149Z</time>
      </trkpt>
      <trkpt lat="48.70862" lon="2.05936">
        <ele>162</ele>
        <time>2021-05-20T10:29:05.149Z</time>
      </trkpt>
      <trkpt lat="48.70863" lon="2.05936">
        <ele>162</ele>
        <time>2021-05-20T10:29:06.149Z</time>
      </trkpt>
      <trkpt lat="48.70864" lon="2.05936">
        <ele>162</ele>
        <time>2021-05-20T10:29:07.149Z</time>
      </trkpt>
      <trkpt lat="48.70865" lon="2.05935">
        <ele>162</ele>
        <time>2021-05-20T10:29:08.149Z</time>
      </trkpt>
      <trkpt lat="48.70866" lon="2.05935">
        <ele>162</ele>
        <time>2021-05-20T10:29:09.149Z</time>
      </trkpt>
      <trkpt lat="48.70867" lon="2.05935">
        <ele>162</ele>
        <time>2021-05-20T10:29:10.149Z</time>
      </trkpt>
      <trkpt lat="48.70868" lon="2.05935">
        <ele>162</ele>
        <time>2021-05-20T10:29:11.149Z</time>
      </trkpt>
      <trkpt lat="48.70869" lon="2.05934">
        <ele>162</ele>
        <time>2021-05-20T10:29:12.149Z</time>
      </trkpt>
      <trkpt lat="48.7087" lon="2.05934">
        <ele>162</ele>
        <time>2021-05-20T10:29:13.149Z</time>
      </trkpt>
      <trkpt lat="48.70871" lon="2.05934">
        <ele>162</ele>
        <time>2021-05-20T10:29:14.149Z</time>
      </trkpt>
      <trkpt lat="48.70872" lon="2.05934">
        <ele>162</ele>
        <time>2021-05-20T10:29:15.149Z</time>
      </trkpt>
      <trkpt lat="48.70873" lon="2.05934">
        <ele>162</ele>
        <time>2021-05-20T10:29:16.149Z</time>
      </trkpt>
      <trkpt lat="48.70873" lon="2.05934">
        <ele>162</ele>
        <time>2021-05-20T10:29:17.149Z</time>
      </trkpt>
      <trkpt lat="48.70874" lon="2.05934">
        <ele>162</ele>
        <time>2021-05-20T10:29:18.149Z</time>
      </trkpt>
      <trkpt lat="48.70875" lon="2.05934">
        <ele>162</ele>
        <time>2021-05-20T10:29:19.149Z</time>
      </trkpt>
      <trkpt lat="48.70876" lon="2.05933">
        <ele>162</ele>
        <time>2021-05-20T10:29:20.149Z</time>
      </trkpt>
      <trkpt lat="48.70877" lon="2.05933">
        <ele>162</ele>
        <time>2021-05-20T10:29:21.149Z</time>
      </trkpt>
      <trkpt lat="48.70878" lon="2.05933">
        <ele>162</ele>
        <time>2021-05-20T10:29:22.149Z</time>
      </trkpt>
      <trkpt lat="48.7088" lon="2.05934">
        <ele>162</ele>
        <time>2021-05-20T10:29:23.149Z</time>
      </trkpt>
      <trkpt lat="48.70881" lon="2.05934">
        <ele>162</ele>
        <time>2021-05-20T10:29:24.149Z</time>
      </trkpt>
      <trkpt lat="48.70882" lon="2.05933">
        <ele>163</ele>
        <time>2021-05-20T10:29:25.149Z</time>
      </trkpt>
      <trkpt lat="48.70883" lon="2.05933">
        <ele>163</ele>
        <time>2021-05-20T10:29:26.149Z</time>
      </trkpt>
      <trkpt lat="48.70885" lon="2.05933">
        <ele>162</ele>
        <time>2021-05-20T10:29:27.149Z</time>
      </trkpt>
      <trkpt lat="48.70886" lon="2.05933">
        <ele>162</ele>
        <time>2021-05-20T10:29:28.149Z</time>
      </trkpt>
      <trkpt lat="48.70887" lon="2.05933">
        <ele>162</ele>
        <time>2021-05-20T10:29:29.149Z</time>
      </trkpt>
      <trkpt lat="48.70888" lon="2.05932">
        <ele>162</ele>
        <time>2021-05-20T10:29:30.149Z</time>
      </trkpt>
      <trkpt lat="48.7089" lon="2.05932">
        <ele>162</ele>
        <time>2021-05-20T10:29:31.149Z</time>
      </trkpt>
      <trkpt lat="48.70891" lon="2.05932">
        <ele>162</ele>
        <time>2021-05-20T10:29:32.149Z</time>
      </trkpt>
      <trkpt lat="48.70892" lon="2.05931">
        <ele>162</ele>
        <time>2021-05-20T10:29:33.149Z</time>
      </trkpt>
      <trkpt lat="48.70893" lon="2.05931">
        <ele>162</ele>
        <time>2021-05-20T10:29:34.149Z</time>
      </trkpt>
      <trkpt lat="48.70894" lon="2.05931">
        <ele>162</ele>
        <time>2021-05-20T10:29:35.149Z</time>
      </trkpt>
      <trkpt lat="48.70896" lon="2.05931">
        <ele>162</ele>
        <time>2021-05-20T10:29:36.149Z</time>
      </trkpt>
      <trkpt lat="48.70897" lon="2.0593">
        <ele>162</ele>
        <time>2021-05-20T10:29:37.149Z</time>
      </trkpt>
      <trkpt lat="48.70898" lon="2.0593">
        <ele>161</ele>
        <time>2021-05-20T10:29:38.149Z</time>
      </trkpt>
      <trkpt lat="48.70899" lon="2.0593">
        <ele>161</ele>
        <time>2021-05-20T10:29:39.149Z</time>
      </trkpt>
      <trkpt lat="48.709" lon="2.0593">
        <ele>161</ele>
        <time>2021-05-20T10:29:40.149Z</time>
      </trkpt>
      <trkpt lat="48.70901" lon="2.05929">
        <ele>161</ele>
        <time>2021-05-20T10:29:41.149Z</time>
      </trkpt>
      <trkpt lat="48.70902" lon="2.05929">
        <ele>161</ele>
        <time>2021-05-20T10:29:42.149Z</time>
      </trkpt>
      <trkpt lat="48.70904" lon="2.05929">
        <ele>161</ele>
        <time>2021-05-20T10:29:43.149Z</time>
      </trkpt>
      <trkpt lat="48.70905" lon="2.05928">
        <ele>161</ele>
        <time>2021-05-20T10:29:44.149Z</time>
      </trkpt>
      <trkpt lat="48.70906" lon="2.05928">
        <ele>161</ele>
        <time>2021-05-20T10:29:45.149Z</time>
      </trkpt>
      <trkpt lat="48.70907" lon="2.05928">
        <ele>161</ele>
        <time>2021-05-20T10:29:46.149Z</time>
      </trkpt>
      <trkpt lat="48.70908" lon="2.05928">
        <ele>161</ele>
        <time>2021-05-20T10:29:47.149Z</time>
      </trkpt>
      <trkpt lat="48.70909" lon="2.05928">
        <ele>160</ele>
        <time>2021-05-20T10:29:48.149Z</time>
      </trkpt>
      <trkpt lat="48.7091" lon="2.05927">
        <ele>160</ele>
        <time>2021-05-20T10:29:49.149Z</time>
      </trkpt>
      <trkpt lat="48.70911" lon="2.05927">
        <ele>160</ele>
        <time>2021-05-20T10:29:50.149Z</time>
      </trkpt>
      <trkpt lat="48.70912" lon="2.05927">
        <ele>160</ele>
        <time>2021-05-20T10:29:51.149Z</time>
      </trkpt>
      <trkpt lat="48.70913" lon="2.05926">
        <ele>160</ele>
        <time>2021-05-20T10:29:52.149Z</time>
      </trkpt>
      <trkpt lat="48.70914" lon="2.05926">
        <ele>160</ele>
        <time>2021-05-20T10:29:53.149Z</time>
      </trkpt>
      <trkpt lat="48.70915" lon="2.05925">
        <ele>160</ele>
        <time>2021-05-20T10:29:54.149Z</time>
      </trkpt>
      <trkpt lat="48.70916" lon="2.05925">
        <ele>160</ele>
        <time>2021-05-20T10:29:55.149Z</time>
      </trkpt>
      <trkpt lat="48.70917" lon="2.05925">
        <ele>160</ele>
        <time>2021-05-20T10:29:56.149Z</time>
      </trkpt>
      <trkpt lat="48.70919" lon="2.05924">
        <ele>160</ele>
        <time>2021-05-20T10:29:57.149Z</time>
      </trkpt>
      <trkpt lat="48.7092" lon="2.05924">
        <ele>160</ele>
        <time>2021-05-20T10:29:58.149Z</time>
      </trkpt>
      <trkpt lat="48.70921" lon="2.05924">
        <ele>160</ele>
        <time>2021-05-20T10:29:59.149Z</time>
      </trkpt>
      <trkpt lat="48.70922" lon="2.05924">
        <ele>160</ele>
        <time>2021-05-20T10:30:00.149Z</time>
      </trkpt>
      <trkpt lat="48.70923" lon="2.05923">
        <ele>160</ele>
        <time>2021-05-20T10:30:01.149Z</time>
      </trkpt>
      <trkpt lat="48.70925" lon="2.05923">
        <ele>160</ele>
        <time>2021-05-20T10:30:02.149Z</time>
      </trkpt>
      <trkpt lat="48.70926" lon="2.05922">
        <ele>160</ele>
        <time>2021-05-20T10:30:03.149Z</time>
      </trkpt>
      <trkpt lat="48.70928" lon="2.05922">
        <ele>160</ele>
        <time>2021-05-20T10:30:04.149Z</time>
      </trkpt>
      <trkpt lat="48.70929" lon="2.05921">
        <ele>160</ele>
        <time>2021-05-20T10:30:05.149Z</time>
      </trkpt>
      <trkpt lat="48.7093" lon="2.05921">
        <ele>160</ele>
        <time>2021-05-20T10:30:06.149Z</time>
      </trkpt>
      <trkpt lat="48.70931" lon="2.05921">
        <ele>160</ele>
        <time>2021-05-20T10:30:07.149Z</time>
      </trkpt>
      <trkpt lat="48.70933" lon="2.05921">
        <ele>160</ele>
        <time>2021-05-20T10:30:08.149Z</time>
      </trkpt>
      <trkpt lat="48.70934" lon="2.05921">
        <ele>160</ele>
        <time>2021-05-20T10:30:09.149Z</time>
      </trkpt>
      <trkpt lat="48.70935" lon="2.05921">
        <ele>160</ele>
        <time>2021-05-20T10:30:10.149Z</time>
      </trkpt>
      <trkpt lat="48.70936" lon="2.0592">
        <ele>160</ele>
        <time>2021-05-20T10:30:11.149Z</time>
      </trkpt>
      <trkpt lat="48.70937" lon="2.0592">
        <ele>160</ele>
        <time>2021-05-20T10:30:12.149Z</time>
      </trkpt>
      <trkpt lat="48.70938" lon="2.0592">
        <ele>160</ele>
        <time>2021-05-20T10:30:15.421Z</time>
      </trkpt>
      <trkpt lat="48.70939" lon="2.05919">
        <ele>160</ele>
        <time>2021-05-20T10:30:16.421Z</time>
      </trkpt>
      <trkpt lat="48.70939" lon="2.05919">
        <ele>160</ele>
        <time>2021-05-20T10:30:17.421Z</time>
      </trkpt>
      <trkpt lat="48.70941" lon="2.05919">
        <ele>160</ele>
        <time>2021-05-20T10:30:18.421Z</time>
      </trkpt>
      <trkpt lat="48.70942" lon="2.05919">
        <ele>160</ele>
        <time>2021-05-20T10:30:30.430Z</time>
      </trkpt>
      <trkpt lat="48.70943" lon="2.05919">
        <ele>160</ele>
        <time>2021-05-20T10:30:31.430Z</time>
      </trkpt>
      <trkpt lat="48.70944" lon="2.05919">
        <ele>160</ele>
        <time>2021-05-20T10:30:32.430Z</time>
      </trkpt>
      <trkpt lat="48.70944" lon="2.05919">
        <ele>160</ele>
        <time>2021-05-20T10:30:33.430Z</time>
      </trkpt>
      <trkpt lat="48.70946" lon="2.05919">
        <ele>160</ele>
        <time>2021-05-20T10:30:34.430Z</time>
      </trkpt>
      <trkpt lat="48.70947" lon="2.05919">
        <ele>160</ele>
        <time>2021-05-20T10:30:35.430Z</time>
      </trkpt>
      <trkpt lat="48.70948" lon="2.05919">
        <ele>160</ele>
        <time>2021-05-20T10:30:36.430Z</time>
      </trkpt>
      <trkpt lat="48.70949" lon="2.05919">
        <ele>160</ele>
        <time>2021-05-20T10:30:37.430Z</time>
      </trkpt>
      <trkpt lat="48.7095" lon="2.05919">
        <ele>160</ele>
        <time>2021-05-20T10:30:38.430Z</time>
      </trkpt>
      <trkpt lat="48.70951" lon="2.0592">
        <ele>160</ele>
        <time>2021-05-20T10:30:39.430Z</time>
      </trkpt>
      <trkpt lat="48.70952" lon="2.0592">
        <ele>160</ele>
        <time>2021-05-20T10:30:40.430Z</time>
      </trkpt>
      <trkpt lat="48.70953" lon="2.05919">
        <ele>160</ele>
        <time>2021-05-20T10:30:41.430Z</time>
      </trkpt>
      <trkpt lat="48.70954" lon="2.05919">
        <ele>160</ele>
        <time>2021-05-20T10:30:42.430Z</time>
      </trkpt>
      <trkpt lat="48.70955" lon="2.05919">
        <ele>160</ele>
        <time>2021-05-20T10:30:43.430Z</time>
      </trkpt>
      <trkpt lat="48.70956" lon="2.05919">
        <ele>160</ele>
        <time>2021-05-20T10:30:44.430Z</time>
      </trkpt>
      <trkpt lat="48.70957" lon="2.05918">
        <ele>160</ele>
        <time>2021-05-20T10:30:45.430Z</time>
      </trkpt>
      <trkpt lat="48.70958" lon="2.05918">
        <ele>160</ele>
        <time>2021-05-20T10:30:46.430Z</time>
      </trkpt>
      <trkpt lat="48.70959" lon="2.05918">
        <ele>160</ele>
        <time>2021-05-20T10:30:47.430Z</time>
      </trkpt>
      <trkpt lat="48.7096" lon="2.05918">
        <ele>160</ele>
        <time>2021-05-20T10:30:48.430Z</time>
      </trkpt>
      <trkpt lat="48.70961" lon="2.05918">
        <ele>160</ele>
        <time>2021-05-20T10:30:49.430Z</time>
      </trkpt>
      <trkpt lat="48.70962" lon="2.05918">
        <ele>160</ele>
        <time>2021-05-20T10:30:50.430Z</time>
      </trkpt>
      <trkpt lat="48.70963" lon="2.05917">
        <ele>160</ele>
        <time>2021-05-20T10:30:51.430Z</time>
      </trkpt>
      <trkpt lat="48.70964" lon="2.05917">
        <ele>161</ele>
        <time>2021-05-20T10:30:52.430Z</time>
      </trkpt>
      <trkpt lat="48.70965" lon="2.05916">
        <ele>161</ele>
        <time>2021-05-20T10:30:53.430Z</time>
      </trkpt>
      <trkpt lat="48.70966" lon="2.05916">
        <ele>161</ele>
        <time>2021-05-20T10:30:54.430Z</time>
      </trkpt>
      <trkpt lat="48.70967" lon="2.05917">
        <ele>161</ele>
        <time>2021-05-20T10:30:55.430Z</time>
      </trkpt>
      <trkpt lat="48.70968" lon="2.05917">
        <ele>161</ele>
        <time>2021-05-20T10:30:56.430Z</time>
      </trkpt>
      <trkpt lat="48.70969" lon="2.05917">
        <ele>161</ele>
        <time>2021-05-20T10:30:57.430Z</time>
      </trkpt>
      <trkpt lat="48.7097" lon="2.05917">
        <ele>161</ele>
        <time>2021-05-20T10:30:58.430Z</time>
      </trkpt>
      <trkpt lat="48.70971" lon="2.05916">
        <ele>161</ele>
        <time>2021-05-20T10:30:59.430Z</time>
      </trkpt>
      <trkpt lat="48.70972" lon="2.05916">
        <ele>161</ele>
        <time>2021-05-20T10:31:00.430Z</time>
      </trkpt>
      <trkpt lat="48.70973" lon="2.05915">
        <ele>161</ele>
        <time>2021-05-20T10:31:01.430Z</time>
      </trkpt>
      <trkpt lat="48.70974" lon="2.05915">
        <ele>161</ele>
        <time>2021-05-20T10:31:02.430Z</time>
      </trkpt>
      <trkpt lat="48.70975" lon="2.05915">
        <ele>161</ele>
        <time>2021-05-20T10:31:03.430Z</time>
      </trkpt>
      <trkpt lat="48.70976" lon="2.05914">
        <ele>162</ele>
        <time>2021-05-20T10:31:04.430Z</time>
      </trkpt>
      <trkpt lat="48.70977" lon="2.05913">
        <ele>162</ele>
        <time>2021-05-20T10:31:05.430Z</time>
      </trkpt>
      <trkpt lat="48.70979" lon="2.05913">
        <ele>162</ele>
        <time>2021-05-20T10:31:06.430Z</time>
      </trkpt>
      <trkpt lat="48.70979" lon="2.05913">
        <ele>162</ele>
        <time>2021-05-20T10:31:07.430Z</time>
      </trkpt>
      <trkpt lat="48.70979" lon="2.05912">
        <ele>162</ele>
        <time>2021-05-20T10:31:08.430Z</time>
      </trkpt>
      <trkpt lat="48.7098" lon="2.05912">
        <ele>162</ele>
        <time>2021-05-20T10:31:09.430Z</time>
      </trkpt>
      <trkpt lat="48.70981" lon="2.05912">
        <ele>162</ele>
        <time>2021-05-20T10:31:10.430Z</time>
      </trkpt>
      <trkpt lat="48.70982" lon="2.05911">
        <ele>162</ele>
        <time>2021-05-20T10:31:15.441Z</time>
      </trkpt>
      <trkpt lat="48.70982" lon="2.05911">
        <ele>162</ele>
        <time>2021-05-20T10:31:16.441Z</time>
      </trkpt>
      <trkpt lat="48.70983" lon="2.05911">
        <ele>163</ele>
        <time>2021-05-20T10:31:17.441Z</time>
      </trkpt>
      <trkpt lat="48.70985" lon="2.0591">
        <ele>163</ele>
        <time>2021-05-20T10:31:18.441Z</time>
      </trkpt>
      <trkpt lat="48.70986" lon="2.05909">
        <ele>163</ele>
        <time>2021-05-20T10:31:19.441Z</time>
      </trkpt>
      <trkpt lat="48.70987" lon="2.05908">
        <ele>163</ele>
        <time>2021-05-20T10:31:20.441Z</time>
      </trkpt>
      <trkpt lat="48.70988" lon="2.05908">
        <ele>163</ele>
        <time>2021-05-20T10:31:21.441Z</time>
      </trkpt>
      <trkpt lat="48.70989" lon="2.05907">
        <ele>163</ele>
        <time>2021-05-20T10:31:22.441Z</time>
      </trkpt>
      <trkpt lat="48.7099" lon="2.05907">
        <ele>163</ele>
        <time>2021-05-20T10:31:23.441Z</time>
      </trkpt>
      <trkpt lat="48.70991" lon="2.05906">
        <ele>163</ele>
        <time>2021-05-20T10:31:24.441Z</time>
      </trkpt>
      <trkpt lat="48.70992" lon="2.05906">
        <ele>163</ele>
        <time>2021-05-20T10:31:25.441Z</time>
      </trkpt>
      <trkpt lat="48.70993" lon="2.05906">
        <ele>164</ele>
        <time>2021-05-20T10:31:26.441Z</time>
      </trkpt>
      <trkpt lat="48.70994" lon="2.05905">
        <ele>164</ele>
        <time>2021-05-20T10:31:27.441Z</time>
      </trkpt>
      <trkpt lat="48.70995" lon="2.05905">
        <ele>164</ele>
        <time>2021-05-20T10:31:30.714Z</time>
      </trkpt>
      <trkpt lat="48.70996" lon="2.05904">
        <ele>164</ele>
        <time>2021-05-20T10:31:31.714Z</time>
      </trkpt>
      <trkpt lat="48.70997" lon="2.05903">
        <ele>164</ele>
        <time>2021-05-20T10:31:32.714Z</time>
      </trkpt>
      <trkpt lat="48.70999" lon="2.05903">
        <ele>164</ele>
        <time>2021-05-20T10:31:33.714Z</time>
      </trkpt>
      <trkpt lat="48.71" lon="2.05902">
        <ele>164</ele>
        <time>2021-05-20T10:31:34.714Z</time>
      </trkpt>
      <trkpt lat="48.71001" lon="2.05901">
        <ele>164</ele>
        <time>2021-05-20T10:31:35.714Z</time>
      </trkpt>
      <trkpt lat="48.71002" lon="2.059">
        <ele>164</ele>
        <time>2021-05-20T10:31:36.714Z</time>
      </trkpt>
      <trkpt lat="48.71003" lon="2.059">
        <ele>164</ele>
        <time>2021-05-20T10:31:37.714Z</time>
      </trkpt>
      <trkpt lat="48.71004" lon="2.05899">
        <ele>164</ele>
        <time>2021-05-20T10:31:38.714Z</time>
      </trkpt>
      <trkpt lat="48.71005" lon="2.05898">
        <ele>164</ele>
        <time>2021-05-20T10:31:39.714Z</time>
      </trkpt>
      <trkpt lat="48.71006" lon="2.05897">
        <ele>164</ele>
        <time>2021-05-20T10:31:40.714Z</time>
      </trkpt>
      <trkpt lat="48.71007" lon="2.05896">
        <ele>164</ele>
        <time>2021-05-20T10:31:41.714Z</time>
      </trkpt>
      <trkpt lat="48.71008" lon="2.05895">
        <ele>164</ele>
        <time>2021-05-20T10:31:42.714Z</time>
      </trkpt>
      <trkpt lat="48.71009" lon="2.05894">
        <ele>164</ele>
        <time>2021-05-20T10:31:43.714Z</time>
      </trkpt>
      <trkpt lat="48.7101" lon="2.05894">
        <ele>164</ele>
        <time>2021-05-20T10:31:44.714Z</time>
      </trkpt>
      <trkpt lat="48.71011" lon="2.05893">
        <ele>164</ele>
        <time>2021-05-20T10:31:45.714Z</time>
      </trkpt>
      <trkpt lat="48.71012" lon="2.05892">
        <ele>164</ele>
        <time>2021-05-20T10:31:46.714Z</time>
      </trkpt>
      <trkpt lat="48.71014" lon="2.05891">
        <ele>164</ele>
        <time>2021-05-20T10:31:47.714Z</time>
      </trkpt>
      <trkpt lat="48.71015" lon="2.05891">
        <ele>164</ele>
        <time>2021-05-20T10:31:48.714Z</time>
      </trkpt>
      <trkpt lat="48.71016" lon="2.0589">
        <ele>164</ele>
        <time>2021-05-20T10:31:49.714Z</time>
      </trkpt>
      <trkpt lat="48.71017" lon="2.05889">
        <ele>164</ele>
        <time>2021-05-20T10:31:50.714Z</time>
      </trkpt>
      <trkpt lat="48.71018" lon="2.05888">
        <ele>164</ele>
        <time>2021-05-20T10:31:51.714Z</time>
      </trkpt>
      <trkpt lat="48.71019" lon="2.05887">
        <ele>164</ele>
        <time>2021-05-20T10:31:52.714Z</time>
      </trkpt>
      <trkpt lat="48.7102" lon="2.05887">
        <ele>164</ele>
        <time>2021-05-20T10:31:53.714Z</time>
      </trkpt>
      <trkpt lat="48.71021" lon="2.05886">
        <ele>164</ele>
        <time>2021-05-20T10:31:54.714Z</time>
      </trkpt>
      <trkpt lat="48.71022" lon="2.05885">
        <ele>164</ele>
        <time>2021-05-20T10:31:55.714Z</time>
      </trkpt>
      <trkpt lat="48.71023" lon="2.05884">
        <ele>164</ele>
        <time>2021-05-20T10:31:56.714Z</time>
      </trkpt>
      <trkpt lat="48.71024" lon="2.05883">
        <ele>164</ele>
        <time>2021-05-20T10:31:57.714Z</time>
      </trkpt>
      <trkpt lat="48.71025" lon="2.05882">
        <ele>164</ele>
        <time>2021-05-20T10:31:58.714Z</time>
      </trkpt>
      <trkpt lat="48.71027" lon="2.05881">
        <ele>164</ele>
        <time>2021-05-20T10:31:59.714Z</time>
      </trkpt>
      <trkpt lat="48.71028" lon="2.0588">
        <ele>163</ele>
        <time>2021-05-20T10:32:00.714Z</time>
      </trkpt>
      <trkpt lat="48.71029" lon="2.05879">
        <ele>163</ele>
        <time>2021-05-20T10:32:01.714Z</time>
      </trkpt>
      <trkpt lat="48.7103" lon="2.05878">
        <ele>163</ele>
        <time>2021-05-20T10:32:02.714Z</time>
      </trkpt>
      <trkpt lat="48.71032" lon="2.05877">
        <ele>163</ele>
        <time>2021-05-20T10:32:03.714Z</time>
      </trkpt>
      <trkpt lat="48.71033" lon="2.05876">
        <ele>163</ele>
        <time>2021-05-20T10:32:04.714Z</time>
      </trkpt>
      <trkpt lat="48.71035" lon="2.05875">
        <ele>163</ele>
        <time>2021-05-20T10:32:05.714Z</time>
      </trkpt>
      <trkpt lat="48.71036" lon="2.05874">
        <ele>162</ele>
        <time>2021-05-20T10:32:06.714Z</time>
      </trkpt>
      <trkpt lat="48.71037" lon="2.05873">
        <ele>162</ele>
        <time>2021-05-20T10:32:07.714Z</time>
      </trkpt>
      <trkpt lat="48.71038" lon="2.05873">
        <ele>162</ele>
        <time>2021-05-20T10:32:08.714Z</time>
      </trkpt>
      <trkpt lat="48.71039" lon="2.05872">
        <ele>162</ele>
        <time>2021-05-20T10:32:09.714Z</time>
      </trkpt>
      <trkpt lat="48.71041" lon="2.05871">
        <ele>162</ele>
        <time>2021-05-20T10:32:10.714Z</time>
      </trkpt>
      <trkpt lat="48.71042" lon="2.05871">
        <ele>162</ele>
        <time>2021-05-20T10:32:11.714Z</time>
      </trkpt>
      <trkpt lat="48.71043" lon="2.0587">
        <ele>162</ele>
        <time>2021-05-20T10:32:12.714Z</time>
      </trkpt>
      <trkpt lat="48.71045" lon="2.0587">
        <ele>162</ele>
        <time>2021-05-20T10:32:13.714Z</time>
      </trkpt>
      <trkpt lat="48.71046" lon="2.05869">
        <ele>162</ele>
        <time>2021-05-20T10:32:14.714Z</time>
      </trkpt>
      <trkpt lat="48.71047" lon="2.05868">
        <ele>161</ele>
        <time>2021-05-20T10:32:15.714Z</time>
      </trkpt>
      <trkpt lat="48.71047" lon="2.05868">
        <ele>161</ele>
        <time>2021-05-20T10:32:16.714Z</time>
      </trkpt>
      <trkpt lat="48.71048" lon="2.05867">
        <ele>161</ele>
        <time>2021-05-20T10:32:17.714Z</time>
      </trkpt>
      <trkpt lat="48.71049" lon="2.05867">
        <ele>161</ele>
        <time>2021-05-20T10:32:18.714Z</time>
      </trkpt>
      <trkpt lat="48.7105" lon="2.05866">
        <ele>161</ele>
        <time>2021-05-20T10:32:19.714Z</time>
      </trkpt>
      <trkpt lat="48.71052" lon="2.05866">
        <ele>161</ele>
        <time>2021-05-20T10:32:20.714Z</time>
      </trkpt>
      <trkpt lat="48.71053" lon="2.05866">
        <ele>160</ele>
        <time>2021-05-20T10:32:21.714Z</time>
      </trkpt>
      <trkpt lat="48.71054" lon="2.05866">
        <ele>160</ele>
        <time>2021-05-20T10:32:22.714Z</time>
      </trkpt>
      <trkpt lat="48.71055" lon="2.05865">
        <ele>160</ele>
        <time>2021-05-20T10:32:23.714Z</time>
      </trkpt>
      <trkpt lat="48.71057" lon="2.05865">
        <ele>160</ele>
        <time>2021-05-20T10:32:24.714Z</time>
      </trkpt>
      <trkpt lat="48.71058" lon="2.05865">
        <ele>160</ele>
        <time>2021-05-20T10:32:25.714Z</time>
      </trkpt>
      <trkpt lat="48.7106" lon="2.05864">
        <ele>159</ele>
        <time>2021-05-20T10:32:26.714Z</time>
      </trkpt>
      <trkpt lat="48.71062" lon="2.05864">
        <ele>159</ele>
        <time>2021-05-20T10:32:27.714Z</time>
      </trkpt>
      <trkpt lat="48.71063" lon="2.05864">
        <ele>159</ele>
        <time>2021-05-20T10:32:28.714Z</time>
      </trkpt>
      <trkpt lat="48.71065" lon="2.05863">
        <ele>159</ele>
        <time>2021-05-20T10:32:29.714Z</time>
      </trkpt>
      <trkpt lat="48.71066" lon="2.05863">
        <ele>160</ele>
        <time>2021-05-20T10:32:30.714Z</time>
      </trkpt>
      <trkpt lat="48.71067" lon="2.05863">
        <ele>160</ele>
        <time>2021-05-20T10:32:31.714Z</time>
      </trkpt>
      <trkpt lat="48.71069" lon="2.05863">
        <ele>160</ele>
        <time>2021-05-20T10:32:32.714Z</time>
      </trkpt>
      <trkpt lat="48.7107" lon="2.05863">
        <ele>159</ele>
        <time>2021-05-20T10:32:33.714Z</time>
      </trkpt>
      <trkpt lat="48.71071" lon="2.05863">
        <ele>159</ele>
        <time>2021-05-20T10:32:34.714Z</time>
      </trkpt>
      <trkpt lat="48.71073" lon="2.05863">
        <ele>159</ele>
        <time>2021-05-20T10:32:35.714Z</time>
      </trkpt>
      <trkpt lat="48.71074" lon="2.05862">
        <ele>159</ele>
        <time>2021-05-20T10:32:36.714Z</time>
      </trkpt>
      <trkpt lat="48.71075" lon="2.05862">
        <ele>159</ele>
        <time>2021-05-20T10:32:37.714Z</time>
      </trkpt>
      <trkpt lat="48.71077" lon="2.05862">
        <ele>159</ele>
        <time>2021-05-20T10:32:38.714Z</time>
      </trkpt>
      <trkpt lat="48.71078" lon="2.05861">
        <ele>159</ele>
        <time>2021-05-20T10:32:39.714Z</time>
      </trkpt>
      <trkpt lat="48.71079" lon="2.05861">
        <ele>159</ele>
        <time>2021-05-20T10:32:40.714Z</time>
      </trkpt>
      <trkpt lat="48.7108" lon="2.05861">
        <ele>159</ele>
        <time>2021-05-20T10:32:41.714Z</time>
      </trkpt>
      <trkpt lat="48.71081" lon="2.05861">
        <ele>159</ele>
        <time>2021-05-20T10:32:42.714Z</time>
      </trkpt>
      <trkpt lat="48.71082" lon="2.05861">
        <ele>159</ele>
        <time>2021-05-20T10:32:43.714Z</time>
      </trkpt>
      <trkpt lat="48.71084" lon="2.0586">
        <ele>159</ele>
        <time>2021-05-20T10:32:44.714Z</time>
      </trkpt>
      <trkpt lat="48.71085" lon="2.0586">
        <ele>159</ele>
        <time>2021-05-20T10:32:45.714Z</time>
      </trkpt>
      <trkpt lat="48.71086" lon="2.05859">
        <ele>159</ele>
        <time>2021-05-20T10:32:46.714Z</time>
      </trkpt>
      <trkpt lat="48.71087" lon="2.05859">
        <ele>159</ele>
        <time>2021-05-20T10:32:47.714Z</time>
      </trkpt>
      <trkpt lat="48.71088" lon="2.05859">
        <ele>158</ele>
        <time>2021-05-20T10:32:48.714Z</time>
      </trkpt>
      <trkpt lat="48.71089" lon="2.05859">
        <ele>158</ele>
        <time>2021-05-20T10:32:49.714Z</time>
      </trkpt>
      <trkpt lat="48.7109" lon="2.05859">
        <ele>158</ele>
        <time>2021-05-20T10:32:50.714Z</time>
      </trkpt>
      <trkpt lat="48.71091" lon="2.05859">
        <ele>158</ele>
        <time>2021-05-20T10:32:51.714Z</time>
      </trkpt>
      <trkpt lat="48.71092" lon="2.05858">
        <ele>158</ele>
        <time>2021-05-20T10:32:52.714Z</time>
      </trkpt>
      <trkpt lat="48.71094" lon="2.05858">
        <ele>158</ele>
        <time>2021-05-20T10:32:53.714Z</time>
      </trkpt>
      <trkpt lat="48.71095" lon="2.05857">
        <ele>158</ele>
        <time>2021-05-20T10:32:54.714Z</time>
      </trkpt>
      <trkpt lat="48.71096" lon="2.05857">
        <ele>158</ele>
        <time>2021-05-20T10:32:55.714Z</time>
      </trkpt>
      <trkpt lat="48.71097" lon="2.05856">
        <ele>158</ele>
        <time>2021-05-20T10:32:56.714Z</time>
      </trkpt>
      <trkpt lat="48.71099" lon="2.05856">
        <ele>158</ele>
        <time>2021-05-20T10:32:57.714Z</time>
      </trkpt>
      <trkpt lat="48.711" lon="2.05856">
        <ele>158</ele>
        <time>2021-05-20T10:32:58.714Z</time>
      </trkpt>
      <trkpt lat="48.71101" lon="2.05855">
        <ele>158</ele>
        <time>2021-05-20T10:32:59.714Z</time>
      </trkpt>
      <trkpt lat="48.71102" lon="2.05855">
        <ele>158</ele>
        <time>2021-05-20T10:33:00.714Z</time>
      </trkpt>
      <trkpt lat="48.71104" lon="2.05855">
        <ele>158</ele>
        <time>2021-05-20T10:33:01.714Z</time>
      </trkpt>
      <trkpt lat="48.71105" lon="2.05855">
        <ele>158</ele>
        <time>2021-05-20T10:33:02.714Z</time>
      </trkpt>
      <trkpt lat="48.71106" lon="2.05854">
        <ele>158</ele>
        <time>2021-05-20T10:33:03.714Z</time>
      </trkpt>
      <trkpt lat="48.71107" lon="2.05854">
        <ele>158</ele>
        <time>2021-05-20T10:33:04.714Z</time>
      </trkpt>
      <trkpt lat="48.71108" lon="2.05853">
        <ele>158</ele>
        <time>2021-05-20T10:33:05.714Z</time>
      </trkpt>
      <trkpt lat="48.71109" lon="2.05853">
        <ele>158</ele>
        <time>2021-05-20T10:33:06.714Z</time>
      </trkpt>
      <trkpt lat="48.7111" lon="2.05853">
        <ele>158</ele>
        <time>2021-05-20T10:33:07.714Z</time>
      </trkpt>
      <trkpt lat="48.71111" lon="2.05852">
        <ele>158</ele>
        <time>2021-05-20T10:33:08.714Z</time>
      </trkpt>
      <trkpt lat="48.71112" lon="2.05852">
        <ele>158</ele>
        <time>2021-05-20T10:33:09.714Z</time>
      </trkpt>
      <trkpt lat="48.71114" lon="2.05852">
        <ele>158</ele>
        <time>2021-05-20T10:33:10.714Z</time>
      </trkpt>
      <trkpt lat="48.71115" lon="2.05851">
        <ele>158</ele>
        <time>2021-05-20T10:33:11.714Z</time>
      </trkpt>
      <trkpt lat="48.71116" lon="2.05851">
        <ele>158</ele>
        <time>2021-05-20T10:33:12.714Z</time>
      </trkpt>
      <trkpt lat="48.71117" lon="2.0585">
        <ele>158</ele>
        <time>2021-05-20T10:33:13.714Z</time>
      </trkpt>
      <trkpt lat="48.71119" lon="2.05849">
        <ele>158</ele>
        <time>2021-05-20T10:33:14.714Z</time>
      </trkpt>
      <trkpt lat="48.71119" lon="2.05849">
        <ele>158</ele>
        <time>2021-05-20T10:33:15.714Z</time>
      </trkpt>
      <trkpt lat="48.7112" lon="2.05848">
        <ele>158</ele>
        <time>2021-05-20T10:33:16.714Z</time>
      </trkpt>
      <trkpt lat="48.71121" lon="2.05848">
        <ele>158</ele>
        <time>2021-05-20T10:33:17.714Z</time>
      </trkpt>
      <trkpt lat="48.71122" lon="2.05848">
        <ele>158</ele>
        <time>2021-05-20T10:33:18.714Z</time>
      </trkpt>
      <trkpt lat="48.71124" lon="2.05848">
        <ele>158</ele>
        <time>2021-05-20T10:33:19.714Z</time>
      </trkpt>
      <trkpt lat="48.71125" lon="2.05848">
        <ele>158</ele>
        <time>2021-05-20T10:33:20.714Z</time>
      </trkpt>
      <trkpt lat="48.71127" lon="2.05847">
        <ele>158</ele>
        <time>2021-05-20T10:33:21.714Z</time>
      </trkpt>
      <trkpt lat="48.71128" lon="2.05847">
        <ele>158</ele>
        <time>2021-05-20T10:33:22.714Z</time>
      </trkpt>
      <trkpt lat="48.71129" lon="2.05847">
        <ele>158</ele>
        <time>2021-05-20T10:33:23.714Z</time>
      </trkpt>
      <trkpt lat="48.7113" lon="2.05847">
        <ele>158</ele>
        <time>2021-05-20T10:33:24.714Z</time>
      </trkpt>
      <trkpt lat="48.71131" lon="2.05847">
        <ele>158</ele>
        <time>2021-05-20T10:33:25.714Z</time>
      </trkpt>
      <trkpt lat="48.71132" lon="2.05846">
        <ele>158</ele>
        <time>2021-05-20T10:33:26.714Z</time>
      </trkpt>
      <trkpt lat="48.71133" lon="2.05845">
        <ele>158</ele>
        <time>2021-05-20T10:33:27.714Z</time>
      </trkpt>
      <trkpt lat="48.71134" lon="2.05845">
        <ele>158</ele>
        <time>2021-05-20T10:33:28.714Z</time>
      </trkpt>
      <trkpt lat="48.71136" lon="2.05844">
        <ele>158</ele>
        <time>2021-05-20T10:33:29.714Z</time>
      </trkpt>
      <trkpt lat="48.71137" lon="2.05844">
        <ele>158</ele>
        <time>2021-05-20T10:33:30.714Z</time>
      </trkpt>
      <trkpt lat="48.71138" lon="2.05843">
        <ele>158</ele>
        <time>2021-05-20T10:33:31.714Z</time>
      </trkpt>
      <trkpt lat="48.71139" lon="2.05843">
        <ele>157</ele>
        <time>2021-05-20T10:33:32.714Z</time>
      </trkpt>
      <trkpt lat="48.7114" lon="2.05842">
        <ele>157</ele>
        <time>2021-05-20T10:33:33.714Z</time>
      </trkpt>
      <trkpt lat="48.71142" lon="2.05842">
        <ele>157</ele>
        <time>2021-05-20T10:33:34.714Z</time>
      </trkpt>
      <trkpt lat="48.71143" lon="2.05842">
        <ele>157</ele>
        <time>2021-05-20T10:33:35.714Z</time>
      </trkpt>
      <trkpt lat="48.71145" lon="2.05842">
        <ele>157</ele>
        <time>2021-05-20T10:33:36.714Z</time>
      </trkpt>
      <trkpt lat="48.71146" lon="2.05841">
        <ele>157</ele>
        <time>2021-05-20T10:33:37.714Z</time>
      </trkpt>
      <trkpt lat="48.71147" lon="2.05841">
        <ele>157</ele>
        <time>2021-05-20T10:33:38.714Z</time>
      </trkpt>
      <trkpt lat="48.71149" lon="2.05841">
        <ele>157</ele>
        <time>2021-05-20T10:33:39.714Z</time>
      </trkpt>
      <trkpt lat="48.7115" lon="2.0584">
        <ele>157</ele>
        <time>2021-05-20T10:33:40.714Z</time>
      </trkpt>
      <trkpt lat="48.71152" lon="2.0584">
        <ele>157</ele>
        <time>2021-05-20T10:33:41.714Z</time>
      </trkpt>
      <trkpt lat="48.71153" lon="2.0584">
        <ele>157</ele>
        <time>2021-05-20T10:33:44.971Z</time>
      </trkpt>
      <trkpt lat="48.71154" lon="2.05839">
        <ele>157</ele>
        <time>2021-05-20T10:33:45.971Z</time>
      </trkpt>
      <trkpt lat="48.71156" lon="2.05839">
        <ele>157</ele>
        <time>2021-05-20T10:33:46.971Z</time>
      </trkpt>
      <trkpt lat="48.71157" lon="2.05839">
        <ele>157</ele>
        <time>2021-05-20T10:33:47.971Z</time>
      </trkpt>
      <trkpt lat="48.71158" lon="2.05838">
        <ele>156</ele>
        <time>2021-05-20T10:33:48.971Z</time>
      </trkpt>
      <trkpt lat="48.71159" lon="2.05838">
        <ele>156</ele>
        <time>2021-05-20T10:33:49.971Z</time>
      </trkpt>
      <trkpt lat="48.7116" lon="2.05838">
        <ele>157</ele>
        <time>2021-05-20T10:33:50.971Z</time>
      </trkpt>
      <trkpt lat="48.71161" lon="2.05838">
        <ele>157</ele>
        <time>2021-05-20T10:33:51.971Z</time>
      </trkpt>
      <trkpt lat="48.71162" lon="2.05837">
        <ele>157</ele>
        <time>2021-05-20T10:33:52.971Z</time>
      </trkpt>
      <trkpt lat="48.71163" lon="2.05837">
        <ele>157</ele>
        <time>2021-05-20T10:33:53.971Z</time>
      </trkpt>
      <trkpt lat="48.71165" lon="2.05836">
        <ele>157</ele>
        <time>2021-05-20T10:33:54.971Z</time>
      </trkpt>
      <trkpt lat="48.71166" lon="2.05836">
        <ele>157</ele>
        <time>2021-05-20T10:33:55.971Z</time>
      </trkpt>
      <trkpt lat="48.71167" lon="2.05836">
        <ele>157</ele>
        <time>2021-05-20T10:33:56.971Z</time>
      </trkpt>
      <trkpt lat="48.71168" lon="2.05836">
        <ele>157</ele>
        <time>2021-05-20T10:33:57.971Z</time>
      </trkpt>
      <trkpt lat="48.7117" lon="2.05836">
        <ele>157</ele>
        <time>2021-05-20T10:33:58.971Z</time>
      </trkpt>
      <trkpt lat="48.71171" lon="2.05836">
        <ele>157</ele>
        <time>2021-05-20T10:33:59.971Z</time>
      </trkpt>
      <trkpt lat="48.71172" lon="2.05835">
        <ele>158</ele>
        <time>2021-05-20T10:34:00.971Z</time>
      </trkpt>
      <trkpt lat="48.71173" lon="2.05835">
        <ele>158</ele>
        <time>2021-05-20T10:34:01.971Z</time>
      </trkpt>
      <trkpt lat="48.71174" lon="2.05835">
        <ele>158</ele>
        <time>2021-05-20T10:34:02.971Z</time>
      </trkpt>
      <trkpt lat="48.71175" lon="2.05834">
        <ele>158</ele>
        <time>2021-05-20T10:34:03.971Z</time>
      </trkpt>
      <trkpt lat="48.71176" lon="2.05834">
        <ele>158</ele>
        <time>2021-05-20T10:34:04.971Z</time>
      </trkpt>
      <trkpt lat="48.71177" lon="2.05834">
        <ele>158</ele>
        <time>2021-05-20T10:34:05.971Z</time>
      </trkpt>
      <trkpt lat="48.71178" lon="2.05833">
        <ele>158</ele>
        <time>2021-05-20T10:34:06.971Z</time>
      </trkpt>
      <trkpt lat="48.7118" lon="2.05833">
        <ele>159</ele>
        <time>2021-05-20T10:34:07.971Z</time>
      </trkpt>
      <trkpt lat="48.71181" lon="2.05832">
        <ele>159</ele>
        <time>2021-05-20T10:34:08.971Z</time>
      </trkpt>
      <trkpt lat="48.71182" lon="2.05832">
        <ele>159</ele>
        <time>2021-05-20T10:34:09.971Z</time>
      </trkpt>
      <trkpt lat="48.71183" lon="2.05832">
        <ele>159</ele>
        <time>2021-05-20T10:34:10.971Z</time>
      </trkpt>
      <trkpt lat="48.71184" lon="2.05832">
        <ele>159</ele>
        <time>2021-05-20T10:34:11.971Z</time>
      </trkpt>
      <trkpt lat="48.71186" lon="2.05831">
        <ele>159</ele>
        <time>2021-05-20T10:34:12.971Z</time>
      </trkpt>
      <trkpt lat="48.71187" lon="2.05831">
        <ele>159</ele>
        <time>2021-05-20T10:34:13.971Z</time>
      </trkpt>
      <trkpt lat="48.71188" lon="2.05831">
        <ele>159</ele>
        <time>2021-05-20T10:34:14.971Z</time>
      </trkpt>
      <trkpt lat="48.71189" lon="2.0583">
        <ele>159</ele>
        <time>2021-05-20T10:34:15.971Z</time>
      </trkpt>
      <trkpt lat="48.71191" lon="2.0583">
        <ele>160</ele>
        <time>2021-05-20T10:34:16.971Z</time>
      </trkpt>
      <trkpt lat="48.71192" lon="2.0583">
        <ele>160</ele>
        <time>2021-05-20T10:34:17.971Z</time>
      </trkpt>
      <trkpt lat="48.71193" lon="2.05829">
        <ele>160</ele>
        <time>2021-05-20T10:34:18.971Z</time>
      </trkpt>
      <trkpt lat="48.71194" lon="2.05829">
        <ele>160</ele>
        <time>2021-05-20T10:34:19.971Z</time>
      </trkpt>
      <trkpt lat="48.71196" lon="2.05828">
        <ele>160</ele>
        <time>2021-05-20T10:34:20.971Z</time>
      </trkpt>
      <trkpt lat="48.71197" lon="2.05828">
        <ele>160</ele>
        <time>2021-05-20T10:34:21.971Z</time>
      </trkpt>
      <trkpt lat="48.71198" lon="2.05828">
        <ele>160</ele>
        <time>2021-05-20T10:34:22.971Z</time>
      </trkpt>
      <trkpt lat="48.71199" lon="2.05827">
        <ele>160</ele>
        <time>2021-05-20T10:34:23.971Z</time>
      </trkpt>
      <trkpt lat="48.712" lon="2.05827">
        <ele>160</ele>
        <time>2021-05-20T10:34:24.971Z</time>
      </trkpt>
      <trkpt lat="48.71201" lon="2.05826">
        <ele>160</ele>
        <time>2021-05-20T10:34:25.971Z</time>
      </trkpt>
      <trkpt lat="48.71202" lon="2.05826">
        <ele>160</ele>
        <time>2021-05-20T10:34:26.971Z</time>
      </trkpt>
      <trkpt lat="48.71203" lon="2.05825">
        <ele>161</ele>
        <time>2021-05-20T10:34:27.971Z</time>
      </trkpt>
      <trkpt lat="48.71205" lon="2.05824">
        <ele>161</ele>
        <time>2021-05-20T10:34:28.971Z</time>
      </trkpt>
      <trkpt lat="48.71206" lon="2.05823">
        <ele>161</ele>
        <time>2021-05-20T10:34:29.971Z</time>
      </trkpt>
      <trkpt lat="48.71207" lon="2.05823">
        <ele>161</ele>
        <time>2021-05-20T10:34:30.971Z</time>
      </trkpt>
      <trkpt lat="48.71208" lon="2.05822">
        <ele>161</ele>
        <time>2021-05-20T10:34:31.971Z</time>
      </trkpt>
      <trkpt lat="48.71209" lon="2.05821">
        <ele>161</ele>
        <time>2021-05-20T10:34:32.971Z</time>
      </trkpt>
      <trkpt lat="48.7121" lon="2.05821">
        <ele>161</ele>
        <time>2021-05-20T10:34:33.971Z</time>
      </trkpt>
      <trkpt lat="48.71211" lon="2.05821">
        <ele>161</ele>
        <time>2021-05-20T10:34:34.971Z</time>
      </trkpt>
      <trkpt lat="48.71212" lon="2.0582">
        <ele>161</ele>
        <time>2021-05-20T10:34:35.971Z</time>
      </trkpt>
      <trkpt lat="48.71213" lon="2.0582">
        <ele>161</ele>
        <time>2021-05-20T10:34:36.971Z</time>
      </trkpt>
      <trkpt lat="48.71214" lon="2.0582">
        <ele>161</ele>
        <time>2021-05-20T10:34:37.971Z</time>
      </trkpt>
      <trkpt lat="48.71215" lon="2.05819">
        <ele>161</ele>
        <time>2021-05-20T10:34:38.971Z</time>
      </trkpt>
      <trkpt lat="48.71216" lon="2.05818">
        <ele>161</ele>
        <time>2021-05-20T10:34:39.971Z</time>
      </trkpt>
      <trkpt lat="48.71217" lon="2.05818">
        <ele>161</ele>
        <time>2021-05-20T10:34:40.971Z</time>
      </trkpt>
      <trkpt lat="48.71218" lon="2.05818">
        <ele>161</ele>
        <time>2021-05-20T10:34:41.971Z</time>
      </trkpt>
      <trkpt lat="48.71219" lon="2.05817">
        <ele>161</ele>
        <time>2021-05-20T10:34:42.971Z</time>
      </trkpt>
      <trkpt lat="48.7122" lon="2.05817">
        <ele>161</ele>
        <time>2021-05-20T10:34:43.971Z</time>
      </trkpt>
      <trkpt lat="48.71222" lon="2.05817">
        <ele>162</ele>
        <time>2021-05-20T10:34:44.971Z</time>
      </trkpt>
      <trkpt lat="48.71223" lon="2.05816">
        <ele>162</ele>
        <time>2021-05-20T10:34:45.971Z</time>
      </trkpt>
      <trkpt lat="48.71224" lon="2.05816">
        <ele>162</ele>
        <time>2021-05-20T10:34:46.971Z</time>
      </trkpt>
      <trkpt lat="48.71226" lon="2.05815">
        <ele>162</ele>
        <time>2021-05-20T10:34:47.971Z</time>
      </trkpt>
      <trkpt lat="48.71227" lon="2.05815">
        <ele>162</ele>
        <time>2021-05-20T10:34:48.971Z</time>
      </trkpt>
      <trkpt lat="48.71228" lon="2.05815">
        <ele>162</ele>
        <time>2021-05-20T10:34:49.971Z</time>
      </trkpt>
      <trkpt lat="48.71229" lon="2.05814">
        <ele>162</ele>
        <time>2021-05-20T10:34:50.971Z</time>
      </trkpt>
      <trkpt lat="48.71231" lon="2.05814">
        <ele>162</ele>
        <time>2021-05-20T10:34:51.971Z</time>
      </trkpt>
      <trkpt lat="48.71232" lon="2.05813">
        <ele>162</ele>
        <time>2021-05-20T10:34:52.971Z</time>
      </trkpt>
      <trkpt lat="48.71233" lon="2.05813">
        <ele>162</ele>
        <time>2021-05-20T10:34:53.971Z</time>
      </trkpt>
      <trkpt lat="48.71235" lon="2.05813">
        <ele>162</ele>
        <time>2021-05-20T10:34:54.971Z</time>
      </trkpt>
      <trkpt lat="48.71236" lon="2.05812">
        <ele>162</ele>
        <time>2021-05-20T10:34:55.971Z</time>
      </trkpt>
      <trkpt lat="48.71237" lon="2.05812">
        <ele>162</ele>
        <time>2021-05-20T10:34:56.971Z</time>
      </trkpt>
      <trkpt lat="48.71239" lon="2.05812">
        <ele>162</ele>
        <time>2021-05-20T10:34:57.971Z</time>
      </trkpt>
      <trkpt lat="48.7124" lon="2.05811">
        <ele>162</ele>
        <time>2021-05-20T10:34:58.971Z</time>
      </trkpt>
      <trkpt lat="48.71241" lon="2.05811">
        <ele>162</ele>
        <time>2021-05-20T10:34:59.971Z</time>
      </trkpt>
      <trkpt lat="48.71242" lon="2.05811">
        <ele>162</ele>
        <time>2021-05-20T10:35:00.971Z</time>
      </trkpt>
      <trkpt lat="48.71244" lon="2.0581">
        <ele>162</ele>
        <time>2021-05-20T10:35:01.971Z</time>
      </trkpt>
      <trkpt lat="48.71245" lon="2.0581">
        <ele>162</ele>
        <time>2021-05-20T10:35:02.971Z</time>
      </trkpt>
      <trkpt lat="48.71246" lon="2.05809">
        <ele>162</ele>
        <time>2021-05-20T10:35:03.971Z</time>
      </trkpt>
      <trkpt lat="48.71248" lon="2.05809">
        <ele>161</ele>
        <time>2021-05-20T10:35:04.971Z</time>
      </trkpt>
      <trkpt lat="48.71249" lon="2.05809">
        <ele>161</ele>
        <time>2021-05-20T10:35:05.971Z</time>
      </trkpt>
      <trkpt lat="48.7125" lon="2.05808">
        <ele>161</ele>
        <time>2021-05-20T10:35:06.971Z</time>
      </trkpt>
      <trkpt lat="48.71251" lon="2.05808">
        <ele>161</ele>
        <time>2021-05-20T10:35:07.971Z</time>
      </trkpt>
      <trkpt lat="48.71252" lon="2.05808">
        <ele>161</ele>
        <time>2021-05-20T10:35:08.971Z</time>
      </trkpt>
      <trkpt lat="48.71253" lon="2.05807">
        <ele>161</ele>
        <time>2021-05-20T10:35:09.971Z</time>
      </trkpt>
      <trkpt lat="48.71254" lon="2.05807">
        <ele>161</ele>
        <time>2021-05-20T10:35:10.971Z</time>
      </trkpt>
      <trkpt lat="48.71255" lon="2.05806">
        <ele>161</ele>
        <time>2021-05-20T10:35:11.971Z</time>
      </trkpt>
      <trkpt lat="48.71256" lon="2.05806">
        <ele>160</ele>
        <time>2021-05-20T10:35:12.971Z</time>
      </trkpt>
      <trkpt lat="48.71257" lon="2.05805">
        <ele>160</ele>
        <time>2021-05-20T10:35:13.971Z</time>
      </trkpt>
      <trkpt lat="48.71258" lon="2.05804">
        <ele>160</ele>
        <time>2021-05-20T10:35:14.971Z</time>
      </trkpt>
      <trkpt lat="48.71259" lon="2.05803">
        <ele>160</ele>
        <time>2021-05-20T10:35:15.971Z</time>
      </trkpt>
      <trkpt lat="48.71259" lon="2.05803">
        <ele>160</ele>
        <time>2021-05-20T10:35:16.971Z</time>
      </trkpt>
      <trkpt lat="48.7126" lon="2.05802">
        <ele>160</ele>
        <time>2021-05-20T10:35:17.971Z</time>
      </trkpt>
      <trkpt lat="48.71261" lon="2.05802">
        <ele>160</ele>
        <time>2021-05-20T10:35:18.971Z</time>
      </trkpt>
      <trkpt lat="48.71261" lon="2.05801">
        <ele>160</ele>
        <time>2021-05-20T10:35:19.971Z</time>
      </trkpt>
      <trkpt lat="48.71262" lon="2.05801">
        <ele>160</ele>
        <time>2021-05-20T10:35:20.971Z</time>
      </trkpt>
      <trkpt lat="48.71263" lon="2.058">
        <ele>160</ele>
        <time>2021-05-20T10:35:21.971Z</time>
      </trkpt>
      <trkpt lat="48.71264" lon="2.058">
        <ele>160</ele>
        <time>2021-05-20T10:35:22.971Z</time>
      </trkpt>
      <trkpt lat="48.71265" lon="2.05799">
        <ele>160</ele>
        <time>2021-05-20T10:35:23.971Z</time>
      </trkpt>
      <trkpt lat="48.71266" lon="2.05799">
        <ele>160</ele>
        <time>2021-05-20T10:35:24.971Z</time>
      </trkpt>
      <trkpt lat="48.71267" lon="2.05798">
        <ele>160</ele>
        <time>2021-05-20T10:35:25.971Z</time>
      </trkpt>
      <trkpt lat="48.71267" lon="2.05798">
        <ele>160</ele>
        <time>2021-05-20T10:35:26.971Z</time>
      </trkpt>
      <trkpt lat="48.71268" lon="2.05797">
        <ele>160</ele>
        <time>2021-05-20T10:35:27.971Z</time>
      </trkpt>
      <trkpt lat="48.71269" lon="2.05797">
        <ele>160</ele>
        <time>2021-05-20T10:35:28.971Z</time>
      </trkpt>
      <trkpt lat="48.71271" lon="2.05797">
        <ele>160</ele>
        <time>2021-05-20T10:35:29.971Z</time>
      </trkpt>
      <trkpt lat="48.71272" lon="2.05797">
        <ele>160</ele>
        <time>2021-05-20T10:35:30.971Z</time>
      </trkpt>
      <trkpt lat="48.71273" lon="2.05798">
        <ele>160</ele>
        <time>2021-05-20T10:35:31.971Z</time>
      </trkpt>
      <trkpt lat="48.71274" lon="2.05798">
        <ele>159</ele>
        <time>2021-05-20T10:35:32.971Z</time>
      </trkpt>
      <trkpt lat="48.71276" lon="2.05798">
        <ele>159</ele>
        <time>2021-05-20T10:35:33.971Z</time>
      </trkpt>
      <trkpt lat="48.71277" lon="2.05799">
        <ele>159</ele>
        <time>2021-05-20T10:35:34.971Z</time>
      </trkpt>
      <trkpt lat="48.71278" lon="2.05799">
        <ele>159</ele>
        <time>2021-05-20T10:35:35.971Z</time>
      </trkpt>
      <trkpt lat="48.71279" lon="2.05799">
        <ele>158</ele>
        <time>2021-05-20T10:35:36.971Z</time>
      </trkpt>
      <trkpt lat="48.7128" lon="2.058">
        <ele>158</ele>
        <time>2021-05-20T10:35:37.971Z</time>
      </trkpt>
      <trkpt lat="48.71281" lon="2.058">
        <ele>158</ele>
        <time>2021-05-20T10:35:38.971Z</time>
      </trkpt>
      <trkpt lat="48.71282" lon="2.05799">
        <ele>158</ele>
        <time>2021-05-20T10:35:39.971Z</time>
      </trkpt>
      <trkpt lat="48.71283" lon="2.05799">
        <ele>158</ele>
        <time>2021-05-20T10:35:40.971Z</time>
      </trkpt>
      <trkpt lat="48.71284" lon="2.05799">
        <ele>158</ele>
        <time>2021-05-20T10:35:41.971Z</time>
      </trkpt>
      <trkpt lat="48.71285" lon="2.05798">
        <ele>157</ele>
        <time>2021-05-20T10:35:42.971Z</time>
      </trkpt>
      <trkpt lat="48.71285" lon="2.05797">
        <ele>157</ele>
        <time>2021-05-20T10:35:43.971Z</time>
      </trkpt>
      <trkpt lat="48.71286" lon="2.05797">
        <ele>157</ele>
        <time>2021-05-20T10:35:44.971Z</time>
      </trkpt>
      <trkpt lat="48.71287" lon="2.05796">
        <ele>157</ele>
        <time>2021-05-20T10:35:45.971Z</time>
      </trkpt>
      <trkpt lat="48.71288" lon="2.05796">
        <ele>157</ele>
        <time>2021-05-20T10:35:46.971Z</time>
      </trkpt>
      <trkpt lat="48.71289" lon="2.05795">
        <ele>157</ele>
        <time>2021-05-20T10:35:47.971Z</time>
      </trkpt>
      <trkpt lat="48.71289" lon="2.05794">
        <ele>157</ele>
        <time>2021-05-20T10:35:48.971Z</time>
      </trkpt>
      <trkpt lat="48.7129" lon="2.05793">
        <ele>157</ele>
        <time>2021-05-20T10:35:49.971Z</time>
      </trkpt>
      <trkpt lat="48.71291" lon="2.05791">
        <ele>157</ele>
        <time>2021-05-20T10:35:50.971Z</time>
      </trkpt>
      <trkpt lat="48.71291" lon="2.0579">
        <ele>157</ele>
        <time>2021-05-20T10:35:51.971Z</time>
      </trkpt>
      <trkpt lat="48.71292" lon="2.05789">
        <ele>157</ele>
        <time>2021-05-20T10:35:52.971Z</time>
      </trkpt>
      <trkpt lat="48.71293" lon="2.05788">
        <ele>157</ele>
        <time>2021-05-20T10:35:53.971Z</time>
      </trkpt>
      <trkpt lat="48.71294" lon="2.05787">
        <ele>157</ele>
        <time>2021-05-20T10:35:54.971Z</time>
      </trkpt>
      <trkpt lat="48.71295" lon="2.05786">
        <ele>157</ele>
        <time>2021-05-20T10:35:55.971Z</time>
      </trkpt>
      <trkpt lat="48.71296" lon="2.05784">
        <ele>157</ele>
        <time>2021-05-20T10:35:56.971Z</time>
      </trkpt>
      <trkpt lat="48.71297" lon="2.05782">
        <ele>157</ele>
        <time>2021-05-20T10:35:57.971Z</time>
      </trkpt>
      <trkpt lat="48.71297" lon="2.05781">
        <ele>157</ele>
        <time>2021-05-20T10:35:58.971Z</time>
      </trkpt>
      <trkpt lat="48.71298" lon="2.0578">
        <ele>157</ele>
        <time>2021-05-20T10:35:59.971Z</time>
      </trkpt>
      <trkpt lat="48.71299" lon="2.05778">
        <ele>157</ele>
        <time>2021-05-20T10:36:00.971Z</time>
      </trkpt>
      <trkpt lat="48.713" lon="2.05777">
        <ele>157</ele>
        <time>2021-05-20T10:36:01.971Z</time>
      </trkpt>
      <trkpt lat="48.713" lon="2.05775">
        <ele>157</ele>
        <time>2021-05-20T10:36:02.971Z</time>
      </trkpt>
      <trkpt lat="48.71301" lon="2.05774">
        <ele>157</ele>
        <time>2021-05-20T10:36:03.971Z</time>
      </trkpt>
      <trkpt lat="48.71302" lon="2.05773">
        <ele>157</ele>
        <time>2021-05-20T10:36:04.971Z</time>
      </trkpt>
      <trkpt lat="48.71303" lon="2.05772">
        <ele>157</ele>
        <time>2021-05-20T10:36:05.971Z</time>
      </trkpt>
      <trkpt lat="48.71304" lon="2.0577">
        <ele>157</ele>
        <time>2021-05-20T10:36:06.971Z</time>
      </trkpt>
      <trkpt lat="48.71305" lon="2.05769">
        <ele>157</ele>
        <time>2021-05-20T10:36:07.971Z</time>
      </trkpt>
      <trkpt lat="48.71306" lon="2.05768">
        <ele>157</ele>
        <time>2021-05-20T10:36:08.971Z</time>
      </trkpt>
      <trkpt lat="48.71307" lon="2.05767">
        <ele>157</ele>
        <time>2021-05-20T10:36:09.971Z</time>
      </trkpt>
      <trkpt lat="48.71309" lon="2.05766">
        <ele>158</ele>
        <time>2021-05-20T10:36:10.971Z</time>
      </trkpt>
      <trkpt lat="48.7131" lon="2.05765">
        <ele>158</ele>
        <time>2021-05-20T10:36:11.971Z</time>
      </trkpt>
      <trkpt lat="48.71311" lon="2.05764">
        <ele>158</ele>
        <time>2021-05-20T10:36:12.971Z</time>
      </trkpt>
      <trkpt lat="48.71312" lon="2.05764">
        <ele>158</ele>
        <time>2021-05-20T10:36:13.971Z</time>
      </trkpt>
      <trkpt lat="48.71313" lon="2.05763">
        <ele>158</ele>
        <time>2021-05-20T10:36:14.971Z</time>
      </trkpt>
      <trkpt lat="48.71314" lon="2.05762">
        <ele>158</ele>
        <time>2021-05-20T10:36:15.971Z</time>
      </trkpt>
      <trkpt lat="48.71315" lon="2.05762">
        <ele>158</ele>
        <time>2021-05-20T10:36:16.971Z</time>
      </trkpt>
      <trkpt lat="48.71316" lon="2.05761">
        <ele>158</ele>
        <time>2021-05-20T10:36:17.971Z</time>
      </trkpt>
      <trkpt lat="48.71317" lon="2.0576">
        <ele>158</ele>
        <time>2021-05-20T10:36:18.971Z</time>
      </trkpt>
      <trkpt lat="48.71318" lon="2.05759">
        <ele>158</ele>
        <time>2021-05-20T10:36:19.971Z</time>
      </trkpt>
      <trkpt lat="48.71319" lon="2.05759">
        <ele>158</ele>
        <time>2021-05-20T10:36:20.971Z</time>
      </trkpt>
      <trkpt lat="48.7132" lon="2.05759">
        <ele>158</ele>
        <time>2021-05-20T10:36:21.971Z</time>
      </trkpt>
      <trkpt lat="48.71321" lon="2.05758">
        <ele>158</ele>
        <time>2021-05-20T10:36:22.971Z</time>
      </trkpt>
      <trkpt lat="48.71322" lon="2.05758">
        <ele>158</ele>
        <time>2021-05-20T10:36:23.971Z</time>
      </trkpt>
      <trkpt lat="48.71324" lon="2.05758">
        <ele>158</ele>
        <time>2021-05-20T10:36:24.971Z</time>
      </trkpt>
      <trkpt lat="48.71325" lon="2.05757">
        <ele>158</ele>
        <time>2021-05-20T10:36:25.971Z</time>
      </trkpt>
      <trkpt lat="48.71326" lon="2.05757">
        <ele>158</ele>
        <time>2021-05-20T10:36:26.971Z</time>
      </trkpt>
      <trkpt lat="48.71328" lon="2.05757">
        <ele>158</ele>
        <time>2021-05-20T10:36:27.971Z</time>
      </trkpt>
      <trkpt lat="48.71329" lon="2.05756">
        <ele>158</ele>
        <time>2021-05-20T10:36:28.971Z</time>
      </trkpt>
      <trkpt lat="48.7133" lon="2.05756">
        <ele>158</ele>
        <time>2021-05-20T10:36:29.971Z</time>
      </trkpt>
      <trkpt lat="48.71332" lon="2.05756">
        <ele>158</ele>
        <time>2021-05-20T10:36:30.971Z</time>
      </trkpt>
      <trkpt lat="48.71333" lon="2.05756">
        <ele>158</ele>
        <time>2021-05-20T10:36:31.971Z</time>
      </trkpt>
      <trkpt lat="48.71334" lon="2.05755">
        <ele>158</ele>
        <time>2021-05-20T10:36:32.971Z</time>
      </trkpt>
      <trkpt lat="48.71336" lon="2.05755">
        <ele>158</ele>
        <time>2021-05-20T10:36:33.971Z</time>
      </trkpt>
      <trkpt lat="48.71338" lon="2.05754">
        <ele>157</ele>
        <time>2021-05-20T10:36:34.971Z</time>
      </trkpt>
      <trkpt lat="48.71339" lon="2.05754">
        <ele>157</ele>
        <time>2021-05-20T10:36:35.971Z</time>
      </trkpt>
      <trkpt lat="48.7134" lon="2.05754">
        <ele>157</ele>
        <time>2021-05-20T10:36:36.971Z</time>
      </trkpt>
      <trkpt lat="48.71341" lon="2.05753">
        <ele>157</ele>
        <time>2021-05-20T10:36:37.971Z</time>
      </trkpt>
      <trkpt lat="48.71342" lon="2.05753">
        <ele>157</ele>
        <time>2021-05-20T10:36:38.971Z</time>
      </trkpt>
      <trkpt lat="48.71343" lon="2.05753">
        <ele>157</ele>
        <time>2021-05-20T10:36:39.971Z</time>
      </trkpt>
      <trkpt lat="48.71345" lon="2.05753">
        <ele>157</ele>
        <time>2021-05-20T10:36:40.971Z</time>
      </trkpt>
      <trkpt lat="48.71346" lon="2.05753">
        <ele>157</ele>
        <time>2021-05-20T10:36:41.971Z</time>
      </trkpt>
      <trkpt lat="48.71347" lon="2.05752">
        <ele>157</ele>
        <time>2021-05-20T10:36:42.971Z</time>
      </trkpt>
      <trkpt lat="48.71348" lon="2.05752">
        <ele>157</ele>
        <time>2021-05-20T10:36:43.971Z</time>
      </trkpt>
      <trkpt lat="48.71349" lon="2.05751">
        <ele>157</ele>
        <time>2021-05-20T10:36:44.971Z</time>
      </trkpt>
      <trkpt lat="48.7135" lon="2.05751">
        <ele>157</ele>
        <time>2021-05-20T10:36:45.971Z</time>
      </trkpt>
      <trkpt lat="48.71351" lon="2.05751">
        <ele>157</ele>
        <time>2021-05-20T10:36:46.971Z</time>
      </trkpt>
      <trkpt lat="48.71352" lon="2.05751">
        <ele>157</ele>
        <time>2021-05-20T10:36:47.971Z</time>
      </trkpt>
      <trkpt lat="48.71353" lon="2.05751">
        <ele>157</ele>
        <time>2021-05-20T10:36:48.971Z</time>
      </trkpt>
      <trkpt lat="48.71354" lon="2.0575">
        <ele>156</ele>
        <time>2021-05-20T10:36:49.971Z</time>
      </trkpt>
      <trkpt lat="48.71356" lon="2.0575">
        <ele>156</ele>
        <time>2021-05-20T10:36:50.971Z</time>
      </trkpt>
      <trkpt lat="48.71357" lon="2.05749">
        <ele>156</ele>
        <time>2021-05-20T10:36:51.971Z</time>
      </trkpt>
      <trkpt lat="48.71358" lon="2.05749">
        <ele>156</ele>
        <time>2021-05-20T10:36:52.971Z</time>
      </trkpt>
      <trkpt lat="48.71359" lon="2.05748">
        <ele>156</ele>
        <time>2021-05-20T10:36:53.971Z</time>
      </trkpt>
      <trkpt lat="48.7136" lon="2.05748">
        <ele>156</ele>
        <time>2021-05-20T10:36:54.971Z</time>
      </trkpt>
      <trkpt lat="48.71361" lon="2.05747">
        <ele>156</ele>
        <time>2021-05-20T10:36:55.971Z</time>
      </trkpt>
      <trkpt lat="48.71362" lon="2.05747">
        <ele>156</ele>
        <time>2021-05-20T10:36:56.971Z</time>
      </trkpt>
      <trkpt lat="48.71363" lon="2.05747">
        <ele>156</ele>
        <time>2021-05-20T10:36:57.971Z</time>
      </trkpt>
      <trkpt lat="48.71364" lon="2.05747">
        <ele>156</ele>
        <time>2021-05-20T10:36:58.971Z</time>
      </trkpt>
      <trkpt lat="48.71366" lon="2.05746">
        <ele>156</ele>
        <time>2021-05-20T10:36:59.971Z</time>
      </trkpt>
      <trkpt lat="48.71367" lon="2.05746">
        <ele>156</ele>
        <time>2021-05-20T10:37:00.971Z</time>
      </trkpt>
      <trkpt lat="48.71368" lon="2.05746">
        <ele>156</ele>
        <time>2021-05-20T10:37:01.971Z</time>
      </trkpt>
      <trkpt lat="48.71369" lon="2.05746">
        <ele>156</ele>
        <time>2021-05-20T10:37:02.971Z</time>
      </trkpt>
      <trkpt lat="48.7137" lon="2.05746">
        <ele>156</ele>
        <time>2021-05-20T10:37:03.971Z</time>
      </trkpt>
      <trkpt lat="48.71371" lon="2.05745">
        <ele>156</ele>
        <time>2021-05-20T10:37:04.971Z</time>
      </trkpt>
      <trkpt lat="48.71372" lon="2.05745">
        <ele>156</ele>
        <time>2021-05-20T10:37:05.971Z</time>
      </trkpt>
      <trkpt lat="48.71373" lon="2.05746">
        <ele>156</ele>
        <time>2021-05-20T10:37:06.971Z</time>
      </trkpt>
      <trkpt lat="48.71374" lon="2.05746">
        <ele>156</ele>
        <time>2021-05-20T10:37:07.971Z</time>
      </trkpt>
      <trkpt lat="48.71376" lon="2.05746">
        <ele>156</ele>
        <time>2021-05-20T10:37:08.971Z</time>
      </trkpt>
      <trkpt lat="48.71377" lon="2.05747">
        <ele>156</ele>
        <time>2021-05-20T10:37:09.971Z</time>
      </trkpt>
      <trkpt lat="48.71378" lon="2.05747">
        <ele>156</ele>
        <time>2021-05-20T10:37:10.971Z</time>
      </trkpt>
      <trkpt lat="48.71379" lon="2.05748">
        <ele>156</ele>
        <time>2021-05-20T10:37:11.971Z</time>
      </trkpt>
      <trkpt lat="48.71381" lon="2.05748">
        <ele>155</ele>
        <time>2021-05-20T10:37:12.971Z</time>
      </trkpt>
      <trkpt lat="48.71382" lon="2.05749">
        <ele>155</ele>
        <time>2021-05-20T10:37:13.971Z</time>
      </trkpt>
      <trkpt lat="48.71383" lon="2.0575">
        <ele>155</ele>
        <time>2021-05-20T10:37:14.971Z</time>
      </trkpt>
      <trkpt lat="48.71384" lon="2.0575">
        <ele>155</ele>
        <time>2021-05-20T10:37:15.971Z</time>
      </trkpt>
      <trkpt lat="48.71385" lon="2.05751">
        <ele>155</ele>
        <time>2021-05-20T10:37:16.971Z</time>
      </trkpt>
      <trkpt lat="48.71386" lon="2.05753">
        <ele>155</ele>
        <time>2021-05-20T10:37:17.971Z</time>
      </trkpt>
      <trkpt lat="48.71388" lon="2.05754">
        <ele>155</ele>
        <time>2021-05-20T10:37:18.971Z</time>
      </trkpt>
      <trkpt lat="48.71389" lon="2.05755">
        <ele>155</ele>
        <time>2021-05-20T10:37:19.971Z</time>
      </trkpt>
      <trkpt lat="48.7139" lon="2.05756">
        <ele>155</ele>
        <time>2021-05-20T10:37:20.971Z</time>
      </trkpt>
      <trkpt lat="48.71391" lon="2.05757">
        <ele>155</ele>
        <time>2021-05-20T10:37:21.971Z</time>
      </trkpt>
      <trkpt lat="48.71392" lon="2.05758">
        <ele>155</ele>
        <time>2021-05-20T10:37:22.971Z</time>
      </trkpt>
      <trkpt lat="48.71394" lon="2.05758">
        <ele>155</ele>
        <time>2021-05-20T10:37:23.971Z</time>
      </trkpt>
      <trkpt lat="48.71395" lon="2.05758">
        <ele>155</ele>
        <time>2021-05-20T10:37:24.971Z</time>
      </trkpt>
      <trkpt lat="48.71396" lon="2.05759">
        <ele>155</ele>
        <time>2021-05-20T10:37:25.971Z</time>
      </trkpt>
      <trkpt lat="48.71397" lon="2.0576">
        <ele>156</ele>
        <time>2021-05-20T10:37:26.971Z</time>
      </trkpt>
      <trkpt lat="48.71398" lon="2.0576">
        <ele>156</ele>
        <time>2021-05-20T10:37:27.971Z</time>
      </trkpt>
      <trkpt lat="48.71399" lon="2.05761">
        <ele>156</ele>
        <time>2021-05-20T10:37:28.971Z</time>
      </trkpt>
      <trkpt lat="48.714" lon="2.05761">
        <ele>156</ele>
        <time>2021-05-20T10:37:29.971Z</time>
      </trkpt>
      <trkpt lat="48.71401" lon="2.05761">
        <ele>156</ele>
        <time>2021-05-20T10:37:30.971Z</time>
      </trkpt>
      <trkpt lat="48.71402" lon="2.05761">
        <ele>156</ele>
        <time>2021-05-20T10:37:31.971Z</time>
      </trkpt>
      <trkpt lat="48.71403" lon="2.05761">
        <ele>156</ele>
        <time>2021-05-20T10:37:32.971Z</time>
      </trkpt>
      <trkpt lat="48.71404" lon="2.0576">
        <ele>156</ele>
        <time>2021-05-20T10:37:33.971Z</time>
      </trkpt>
      <trkpt lat="48.71406" lon="2.05759">
        <ele>156</ele>
        <time>2021-05-20T10:37:34.971Z</time>
      </trkpt>
      <trkpt lat="48.71407" lon="2.05759">
        <ele>156</ele>
        <time>2021-05-20T10:37:35.971Z</time>
      </trkpt>
      <trkpt lat="48.71408" lon="2.05758">
        <ele>156</ele>
        <time>2021-05-20T10:37:36.971Z</time>
      </trkpt>
      <trkpt lat="48.7141" lon="2.05758">
        <ele>156</ele>
        <time>2021-05-20T10:37:37.971Z</time>
      </trkpt>
      <trkpt lat="48.71411" lon="2.05757">
        <ele>156</ele>
        <time>2021-05-20T10:37:38.971Z</time>
      </trkpt>
      <trkpt lat="48.71413" lon="2.05756">
        <ele>156</ele>
        <time>2021-05-20T10:37:39.971Z</time>
      </trkpt>
      <trkpt lat="48.71414" lon="2.05755">
        <ele>157</ele>
        <time>2021-05-20T10:37:40.971Z</time>
      </trkpt>
      <trkpt lat="48.71415" lon="2.05754">
        <ele>157</ele>
        <time>2021-05-20T10:37:41.971Z</time>
      </trkpt>
      <trkpt lat="48.71416" lon="2.05753">
        <ele>157</ele>
        <time>2021-05-20T10:37:42.971Z</time>
      </trkpt>
      <trkpt lat="48.71417" lon="2.05753">
        <ele>157</ele>
        <time>2021-05-20T10:37:43.971Z</time>
      </trkpt>
      <trkpt lat="48.71418" lon="2.05752">
        <ele>157</ele>
        <time>2021-05-20T10:37:44.971Z</time>
      </trkpt>
      <trkpt lat="48.71419" lon="2.05751">
        <ele>157</ele>
        <time>2021-05-20T10:37:45.971Z</time>
      </trkpt>
      <trkpt lat="48.7142" lon="2.0575">
        <ele>157</ele>
        <time>2021-05-20T10:37:46.971Z</time>
      </trkpt>
      <trkpt lat="48.71421" lon="2.0575">
        <ele>157</ele>
        <time>2021-05-20T10:37:47.971Z</time>
      </trkpt>
      <trkpt lat="48.71422" lon="2.05749">
        <ele>157</ele>
        <time>2021-05-20T10:37:48.971Z</time>
      </trkpt>
      <trkpt lat="48.71423" lon="2.05748">
        <ele>157</ele>
        <time>2021-05-20T10:37:52.974Z</time>
      </trkpt>
      <trkpt lat="48.71424" lon="2.05747">
        <ele>157</ele>
        <time>2021-05-20T10:37:53.974Z</time>
      </trkpt>
      <trkpt lat="48.71425" lon="2.05746">
        <ele>158</ele>
        <time>2021-05-20T10:37:54.974Z</time>
      </trkpt>
      <trkpt lat="48.71426" lon="2.05745">
        <ele>158</ele>
        <time>2021-05-20T10:37:55.974Z</time>
      </trkpt>
      <trkpt lat="48.71427" lon="2.05744">
        <ele>158</ele>
        <time>2021-05-20T10:37:56.974Z</time>
      </trkpt>
      <trkpt lat="48.71428" lon="2.05744">
        <ele>158</ele>
        <time>2021-05-20T10:38:01.979Z</time>
      </trkpt>
      <trkpt lat="48.71429" lon="2.05743">
        <ele>159</ele>
        <time>2021-05-20T10:38:02.979Z</time>
      </trkpt>
      <trkpt lat="48.7143" lon="2.05742">
        <ele>159</ele>
        <time>2021-05-20T10:38:03.979Z</time>
      </trkpt>
      <trkpt lat="48.71431" lon="2.05741">
        <ele>159</ele>
        <time>2021-05-20T10:38:10.983Z</time>
      </trkpt>
      <trkpt lat="48.71432" lon="2.0574">
        <ele>159</ele>
        <time>2021-05-20T10:38:11.983Z</time>
      </trkpt>
      <trkpt lat="48.71432" lon="2.0574">
        <ele>159</ele>
        <time>2021-05-20T10:38:12.983Z</time>
      </trkpt>
      <trkpt lat="48.71433" lon="2.05739">
        <ele>159</ele>
        <time>2021-05-20T10:38:13.983Z</time>
      </trkpt>
      <trkpt lat="48.71434" lon="2.05739">
        <ele>159</ele>
        <time>2021-05-20T10:38:14.983Z</time>
      </trkpt>
      <trkpt lat="48.71435" lon="2.05739">
        <ele>160</ele>
        <time>2021-05-20T10:38:15.983Z</time>
      </trkpt>
      <trkpt lat="48.71435" lon="2.05738">
        <ele>160</ele>
        <time>2021-05-20T10:38:16.983Z</time>
      </trkpt>
      <trkpt lat="48.71436" lon="2.05737">
        <ele>160</ele>
        <time>2021-05-20T10:38:17.983Z</time>
      </trkpt>
      <trkpt lat="48.71437" lon="2.05736">
        <ele>160</ele>
        <time>2021-05-20T10:38:18.983Z</time>
      </trkpt>
      <trkpt lat="48.71438" lon="2.05736">
        <ele>160</ele>
        <time>2021-05-20T10:38:19.983Z</time>
      </trkpt>
      <trkpt lat="48.71439" lon="2.05735">
        <ele>160</ele>
        <time>2021-05-20T10:38:20.983Z</time>
      </trkpt>
      <trkpt lat="48.71439" lon="2.05733">
        <ele>160</ele>
        <time>2021-05-20T10:38:21.983Z</time>
      </trkpt>
      <trkpt lat="48.7144" lon="2.05732">
        <ele>160</ele>
        <time>2021-05-20T10:38:22.983Z</time>
      </trkpt>
      <trkpt lat="48.71441" lon="2.05731">
        <ele>160</ele>
        <time>2021-05-20T10:38:23.983Z</time>
      </trkpt>
      <trkpt lat="48.71442" lon="2.0573">
        <ele>160</ele>
        <time>2021-05-20T10:38:24.983Z</time>
      </trkpt>
      <trkpt lat="48.71443" lon="2.05729">
        <ele>160</ele>
        <time>2021-05-20T10:38:25.983Z</time>
      </trkpt>
      <trkpt lat="48.71443" lon="2.05727">
        <ele>160</ele>
        <time>2021-05-20T10:38:26.983Z</time>
      </trkpt>
      <trkpt lat="48.71444" lon="2.05726">
        <ele>160</ele>
        <time>2021-05-20T10:38:27.983Z</time>
      </trkpt>
      <trkpt lat="48.71444" lon="2.05724">
        <ele>160</ele>
        <time>2021-05-20T10:38:28.983Z</time>
      </trkpt>
      <trkpt lat="48.71444" lon="2.05723">
        <ele>160</ele>
        <time>2021-05-20T10:38:29.983Z</time>
      </trkpt>
      <trkpt lat="48.71445" lon="2.05721">
        <ele>160</ele>
        <time>2021-05-20T10:38:30.983Z</time>
      </trkpt>
      <trkpt lat="48.71445" lon="2.0572">
        <ele>160</ele>
        <time>2021-05-20T10:38:31.983Z</time>
      </trkpt>
      <trkpt lat="48.71445" lon="2.05718">
        <ele>160</ele>
        <time>2021-05-20T10:38:32.983Z</time>
      </trkpt>
      <trkpt lat="48.71445" lon="2.05717">
        <ele>160</ele>
        <time>2021-05-20T10:38:33.983Z</time>
      </trkpt>
      <trkpt lat="48.71446" lon="2.05715">
        <ele>160</ele>
        <time>2021-05-20T10:38:34.983Z</time>
      </trkpt>
      <trkpt lat="48.71446" lon="2.05713">
        <ele>160</ele>
        <time>2021-05-20T10:38:35.983Z</time>
      </trkpt>
      <trkpt lat="48.71446" lon="2.05711">
        <ele>160</ele>
        <time>2021-05-20T10:38:36.983Z</time>
      </trkpt>
      <trkpt lat="48.71446" lon="2.05709">
        <ele>160</ele>
        <time>2021-05-20T10:38:37.983Z</time>
      </trkpt>
      <trkpt lat="48.71446" lon="2.05707">
        <ele>160</ele>
        <time>2021-05-20T10:38:38.983Z</time>
      </trkpt>
      <trkpt lat="48.71447" lon="2.05705">
        <ele>160</ele>
        <time>2021-05-20T10:38:39.983Z</time>
      </trkpt>
      <trkpt lat="48.71447" lon="2.05703">
        <ele>160</ele>
        <time>2021-05-20T10:38:40.983Z</time>
      </trkpt>
      <trkpt lat="48.71447" lon="2.05701">
        <ele>160</ele>
        <time>2021-05-20T10:38:41.983Z</time>
      </trkpt>
      <trkpt lat="48.71447" lon="2.05699">
        <ele>161</ele>
        <time>2021-05-20T10:38:42.983Z</time>
      </trkpt>
      <trkpt lat="48.71447" lon="2.05697">
        <ele>161</ele>
        <time>2021-05-20T10:38:43.983Z</time>
      </trkpt>
      <trkpt lat="48.71447" lon="2.05696">
        <ele>161</ele>
        <time>2021-05-20T10:38:44.983Z</time>
      </trkpt>
      <trkpt lat="48.71448" lon="2.05694">
        <ele>161</ele>
        <time>2021-05-20T10:39:27.987Z</time>
      </trkpt>
      <trkpt lat="48.71448" lon="2.05692">
        <ele>161</ele>
        <time>2021-05-20T10:39:28.987Z</time>
      </trkpt>
      <trkpt lat="48.71448" lon="2.0569">
        <ele>161</ele>
        <time>2021-05-20T10:39:29.987Z</time>
      </trkpt>
      <trkpt lat="48.71449" lon="2.05689">
        <ele>161</ele>
        <time>2021-05-20T10:39:30.987Z</time>
      </trkpt>
      <trkpt lat="48.71449" lon="2.05687">
        <ele>161</ele>
        <time>2021-05-20T10:39:31.987Z</time>
      </trkpt>
      <trkpt lat="48.71449" lon="2.05686">
        <ele>161</ele>
        <time>2021-05-20T10:39:32.987Z</time>
      </trkpt>
      <trkpt lat="48.71449" lon="2.05683">
        <ele>161</ele>
        <time>2021-05-20T10:39:33.987Z</time>
      </trkpt>
      <trkpt lat="48.71449" lon="2.05681">
        <ele>161</ele>
        <time>2021-05-20T10:39:34.987Z</time>
      </trkpt>
      <trkpt lat="48.71449" lon="2.0568">
        <ele>162</ele>
        <time>2021-05-20T10:39:35.987Z</time>
      </trkpt>
      <trkpt lat="48.71449" lon="2.05678">
        <ele>162</ele>
        <time>2021-05-20T10:39:36.987Z</time>
      </trkpt>
      <trkpt lat="48.71449" lon="2.05676">
        <ele>162</ele>
        <time>2021-05-20T10:39:37.987Z</time>
      </trkpt>
      <trkpt lat="48.71449" lon="2.05674">
        <ele>162</ele>
        <time>2021-05-20T10:39:38.987Z</time>
      </trkpt>
      <trkpt lat="48.71449" lon="2.05672">
        <ele>162</ele>
        <time>2021-05-20T10:39:39.987Z</time>
      </trkpt>
      <trkpt lat="48.71449" lon="2.05671">
        <ele>162</ele>
        <time>2021-05-20T10:39:40.987Z</time>
      </trkpt>
      <trkpt lat="48.71449" lon="2.05669">
        <ele>163</ele>
        <time>2021-05-20T10:39:41.987Z</time>
      </trkpt>
      <trkpt lat="48.71449" lon="2.05667">
        <ele>163</ele>
        <time>2021-05-20T10:39:42.987Z</time>
      </trkpt>
      <trkpt lat="48.71449" lon="2.05665">
        <ele>163</ele>
        <time>2021-05-20T10:39:43.987Z</time>
      </trkpt>
      <trkpt lat="48.71449" lon="2.05663">
        <ele>163</ele>
        <time>2021-05-20T10:39:44.987Z</time>
      </trkpt>
      <trkpt lat="48.71449" lon="2.05661">
        <ele>164</ele>
        <time>2021-05-20T10:39:45.987Z</time>
      </trkpt>
      <trkpt lat="48.71449" lon="2.05659">
        <ele>164</ele>
        <time>2021-05-20T10:39:46.987Z</time>
      </trkpt>
      <trkpt lat="48.71448" lon="2.05657">
        <ele>164</ele>
        <time>2021-05-20T10:39:47.987Z</time>
      </trkpt>
      <trkpt lat="48.71448" lon="2.05655">
        <ele>164</ele>
        <time>2021-05-20T10:39:48.987Z</time>
      </trkpt>
      <trkpt lat="48.71448" lon="2.05653">
        <ele>164</ele>
        <time>2021-05-20T10:39:49.987Z</time>
      </trkpt>
      <trkpt lat="48.71448" lon="2.05651">
        <ele>164</ele>
        <time>2021-05-20T10:39:50.987Z</time>
      </trkpt>
      <trkpt lat="48.71448" lon="2.05649">
        <ele>164</ele>
        <time>2021-05-20T10:39:51.987Z</time>
      </trkpt>
      <trkpt lat="48.71448" lon="2.05647">
        <ele>164</ele>
        <time>2021-05-20T10:39:52.987Z</time>
      </trkpt>
      <trkpt lat="48.71448" lon="2.05645">
        <ele>165</ele>
        <time>2021-05-20T10:39:53.987Z</time>
      </trkpt>
      <trkpt lat="48.71448" lon="2.05643">
        <ele>165</ele>
        <time>2021-05-20T10:39:54.987Z</time>
      </trkpt>
      <trkpt lat="48.71448" lon="2.05641">
        <ele>165</ele>
        <time>2021-05-20T10:39:55.987Z</time>
      </trkpt>
      <trkpt lat="48.71448" lon="2.05639">
        <ele>165</ele>
        <time>2021-05-20T10:39:56.987Z</time>
      </trkpt>
      <trkpt lat="48.71448" lon="2.05637">
        <ele>165</ele>
        <time>2021-05-20T10:39:57.987Z</time>
      </trkpt>
      <trkpt lat="48.71448" lon="2.05636">
        <ele>165</ele>
        <time>2021-05-20T10:39:58.987Z</time>
      </trkpt>
      <trkpt lat="48.71447" lon="2.05633">
        <ele>165</ele>
        <time>2021-05-20T10:39:59.987Z</time>
      </trkpt>
      <trkpt lat="48.71446" lon="2.05631">
        <ele>165</ele>
        <time>2021-05-20T10:40:00.987Z</time>
      </trkpt>
      <trkpt lat="48.71446" lon="2.05629">
        <ele>166</ele>
        <time>2021-05-20T10:40:01.987Z</time>
      </trkpt>
      <trkpt lat="48.71446" lon="2.05628">
        <ele>166</ele>
        <time>2021-05-20T10:40:02.987Z</time>
      </trkpt>
      <trkpt lat="48.71445" lon="2.05626">
        <ele>166</ele>
        <time>2021-05-20T10:40:03.987Z</time>
      </trkpt>
      <trkpt lat="48.71445" lon="2.05624">
        <ele>166</ele>
        <time>2021-05-20T10:44:18.991Z</time>
      </trkpt>
      <trkpt lat="48.71444" lon="2.05622">
        <ele>166</ele>
        <time>2021-05-20T10:44:19.991Z</time>
      </trkpt>
      <trkpt lat="48.71444" lon="2.0562">
        <ele>166</ele>
        <time>2021-05-20T10:46:10.996Z</time>
      </trkpt>
      <trkpt lat="48.71443" lon="2.05618">
        <ele>166</ele>
        <time>2021-05-20T10:46:11.996Z</time>
      </trkpt>
      <trkpt lat="48.71443" lon="2.05616">
        <ele>166</ele>
        <time>2021-05-20T10:46:12.996Z</time>
      </trkpt>
      <trkpt lat="48.71442" lon="2.05614">
        <ele>167</ele>
        <time>2021-05-20T10:46:13.996Z</time>
      </trkpt>
      <trkpt lat="48.71442" lon="2.05613">
        <ele>167</ele>
        <time>2021-05-20T10:46:22.001Z</time>
      </trkpt>
      <trkpt lat="48.71442" lon="2.05611">
        <ele>167</ele>
        <time>2021-05-20T10:46:23.001Z</time>
      </trkpt>
      <trkpt lat="48.71441" lon="2.0561">
        <ele>167</ele>
        <time>2021-05-20T10:52:00.012Z</time>
      </trkpt>
      <trkpt lat="48.71441" lon="2.05609">
        <ele>167</ele>
        <time>2021-05-20T10:52:01.012Z</time>
      </trkpt>
      <trkpt lat="48.71441" lon="2.05607">
        <ele>167</ele>
        <time>2021-05-20T10:52:02.012Z</time>
      </trkpt>
      <trkpt lat="48.71441" lon="2.05606">
        <ele>167</ele>
        <time>2021-05-20T10:52:03.012Z</time>
      </trkpt>
      <trkpt lat="48.71441" lon="2.05604">
        <ele>167</ele>
        <time>2021-05-20T10:52:04.012Z</time>
      </trkpt>
      <trkpt lat="48.7144" lon="2.05603">
        <ele>167</ele>
        <time>2021-05-20T10:52:05.012Z</time>
      </trkpt>
      <trkpt lat="48.7144" lon="2.05601">
        <ele>167</ele>
        <time>2021-05-20T10:52:06.012Z</time>
      </trkpt>
      <trkpt lat="48.71439" lon="2.056">
        <ele>167</ele>
        <time>2021-05-20T10:52:07.012Z</time>
      </trkpt>
      <trkpt lat="48.71439" lon="2.05598">
        <ele>167</ele>
        <time>2021-05-20T10:52:08.012Z</time>
      </trkpt>
      <trkpt lat="48.71438" lon="2.05597">
        <ele>167</ele>
        <time>2021-05-20T10:52:09.012Z</time>
      </trkpt>
      <trkpt lat="48.71438" lon="2.05596">
        <ele>167</ele>
        <time>2021-05-20T10:52:10.012Z</time>
      </trkpt>
      <trkpt lat="48.71438" lon="2.05595">
        <ele>167</ele>
        <time>2021-05-20T10:52:11.012Z</time>
      </trkpt>
      <trkpt lat="48.71437" lon="2.05594">
        <ele>167</ele>
        <time>2021-05-20T10:52:12.012Z</time>
      </trkpt>
      <trkpt lat="48.71437" lon="2.05593">
        <ele>167</ele>
        <time>2021-05-20T10:52:13.012Z</time>
      </trkpt>
      <trkpt lat="48.71436" lon="2.05592">
        <ele>167</ele>
        <time>2021-05-20T10:52:14.012Z</time>
      </trkpt>
      <trkpt lat="48.71436" lon="2.0559">
        <ele>167</ele>
        <time>2021-05-20T10:52:15.012Z</time>
      </trkpt>
      <trkpt lat="48.71435" lon="2.05589">
        <ele>168</ele>
        <time>2021-05-20T10:52:16.012Z</time>
      </trkpt>
      <trkpt lat="48.71434" lon="2.05588">
        <ele>168</ele>
        <time>2021-05-20T10:52:17.012Z</time>
      </trkpt>
      <trkpt lat="48.71434" lon="2.05586">
        <ele>168</ele>
        <time>2021-05-20T10:52:18.012Z</time>
      </trkpt>
      <trkpt lat="48.71433" lon="2.05585">
        <ele>168</ele>
        <time>2021-05-20T10:52:19.012Z</time>
      </trkpt>
      <trkpt lat="48.71433" lon="2.05584">
        <ele>168</ele>
        <time>2021-05-20T10:52:20.012Z</time>
      </trkpt>
      <trkpt lat="48.71432" lon="2.05583">
        <ele>168</ele>
        <time>2021-05-20T10:52:21.012Z</time>
      </trkpt>
      <trkpt lat="48.71431" lon="2.05582">
        <ele>168</ele>
        <time>2021-05-20T10:52:22.012Z</time>
      </trkpt>
      <trkpt lat="48.7143" lon="2.0558">
        <ele>168</ele>
        <time>2021-05-20T10:52:23.012Z</time>
      </trkpt>
      <trkpt lat="48.71429" lon="2.05579">
        <ele>168</ele>
        <time>2021-05-20T10:52:24.012Z</time>
      </trkpt>
      <trkpt lat="48.71428" lon="2.05577">
        <ele>168</ele>
        <time>2021-05-20T10:52:25.012Z</time>
      </trkpt>
      <trkpt lat="48.71428" lon="2.05576">
        <ele>168</ele>
        <time>2021-05-20T10:52:26.012Z</time>
      </trkpt>
      <trkpt lat="48.71427" lon="2.05575">
        <ele>168</ele>
        <time>2021-05-20T10:52:27.012Z</time>
      </trkpt>
      <trkpt lat="48.71426" lon="2.05574">
        <ele>168</ele>
        <time>2021-05-20T10:52:28.012Z</time>
      </trkpt>
      <trkpt lat="48.71425" lon="2.05573">
        <ele>168</ele>
        <time>2021-05-20T10:52:29.012Z</time>
      </trkpt>
      <trkpt lat="48.71425" lon="2.05572">
        <ele>168</ele>
        <time>2021-05-20T10:52:30.012Z</time>
      </trkpt>
      <trkpt lat="48.71424" lon="2.05571">
        <ele>169</ele>
        <time>2021-05-20T10:52:31.012Z</time>
      </trkpt>
      <trkpt lat="48.71423" lon="2.05569">
        <ele>169</ele>
        <time>2021-05-20T10:52:32.012Z</time>
      </trkpt>
      <trkpt lat="48.71423" lon="2.05568">
        <ele>169</ele>
        <time>2021-05-20T10:52:33.012Z</time>
      </trkpt>
      <trkpt lat="48.71422" lon="2.05568">
        <ele>169</ele>
        <time>2021-05-20T10:52:34.012Z</time>
      </trkpt>
      <trkpt lat="48.71421" lon="2.05567">
        <ele>169</ele>
        <time>2021-05-20T10:52:35.012Z</time>
      </trkpt>
      <trkpt lat="48.7142" lon="2.05566">
        <ele>169</ele>
        <time>2021-05-20T10:52:36.012Z</time>
      </trkpt>
      <trkpt lat="48.7142" lon="2.05564">
        <ele>169</ele>
        <time>2021-05-20T10:52:37.012Z</time>
      </trkpt>
      <trkpt lat="48.71419" lon="2.05564">
        <ele>169</ele>
        <time>2021-05-20T10:52:38.012Z</time>
      </trkpt>
      <trkpt lat="48.71419" lon="2.05564">
        <ele>169</ele>
        <time>2021-05-20T10:52:39.012Z</time>
      </trkpt>
      <trkpt lat="48.71419" lon="2.05563">
        <ele>169</ele>
        <time>2021-05-20T10:52:40.012Z</time>
      </trkpt>
      <trkpt lat="48.71418" lon="2.05562">
        <ele>169</ele>
        <time>2021-05-20T10:52:41.012Z</time>
      </trkpt>
      <trkpt lat="48.71418" lon="2.05561">
        <ele>169</ele>
        <time>2021-05-20T10:52:42.012Z</time>
      </trkpt>
      <trkpt lat="48.71417" lon="2.0556">
        <ele>169</ele>
        <time>2021-05-20T10:52:43.012Z</time>
      </trkpt>
      <trkpt lat="48.71416" lon="2.05558">
        <ele>169</ele>
        <time>2021-05-20T10:52:44.012Z</time>
      </trkpt>
      <trkpt lat="48.71416" lon="2.05557">
        <ele>169</ele>
        <time>2021-05-20T10:52:45.012Z</time>
      </trkpt>
      <trkpt lat="48.71415" lon="2.05556">
        <ele>169</ele>
        <time>2021-05-20T10:52:46.012Z</time>
      </trkpt>
      <trkpt lat="48.71415" lon="2.05555">
        <ele>169</ele>
        <time>2021-05-20T10:52:47.012Z</time>
      </trkpt>
      <trkpt lat="48.71414" lon="2.05554">
        <ele>169</ele>
        <time>2021-05-20T10:52:48.012Z</time>
      </trkpt>
      <trkpt lat="48.71413" lon="2.05552">
        <ele>169</ele>
        <time>2021-05-20T10:52:49.012Z</time>
      </trkpt>
      <trkpt lat="48.71412" lon="2.0555">
        <ele>170</ele>
        <time>2021-05-20T10:52:50.012Z</time>
      </trkpt>
      <trkpt lat="48.71411" lon="2.05549">
        <ele>170</ele>
        <time>2021-05-20T10:52:51.012Z</time>
      </trkpt>
      <trkpt lat="48.7141" lon="2.05548">
        <ele>170</ele>
        <time>2021-05-20T10:52:52.012Z</time>
      </trkpt>
      <trkpt lat="48.71409" lon="2.05546">
        <ele>170</ele>
        <time>2021-05-20T10:52:53.012Z</time>
      </trkpt>
      <trkpt lat="48.71408" lon="2.05545">
        <ele>170</ele>
        <time>2021-05-20T10:52:54.012Z</time>
      </trkpt>
      <trkpt lat="48.71407" lon="2.05544">
        <ele>170</ele>
        <time>2021-05-20T10:52:55.012Z</time>
      </trkpt>
      <trkpt lat="48.71406" lon="2.05543">
        <ele>170</ele>
        <time>2021-05-20T10:52:56.012Z</time>
      </trkpt>
      <trkpt lat="48.71405" lon="2.05542">
        <ele>170</ele>
        <time>2021-05-20T10:52:57.012Z</time>
      </trkpt>
      <trkpt lat="48.71404" lon="2.0554">
        <ele>170</ele>
        <time>2021-05-20T10:52:58.012Z</time>
      </trkpt>
      <trkpt lat="48.71404" lon="2.05539">
        <ele>170</ele>
        <time>2021-05-20T10:52:59.012Z</time>
      </trkpt>
      <trkpt lat="48.71403" lon="2.05538">
        <ele>170</ele>
        <time>2021-05-20T10:53:00.012Z</time>
      </trkpt>
      <trkpt lat="48.71402" lon="2.05536">
        <ele>170</ele>
        <time>2021-05-20T10:53:01.012Z</time>
      </trkpt>
      <trkpt lat="48.71401" lon="2.05535">
        <ele>170</ele>
        <time>2021-05-20T10:53:02.012Z</time>
      </trkpt>
      <trkpt lat="48.714" lon="2.05534">
        <ele>170</ele>
        <time>2021-05-20T10:53:03.012Z</time>
      </trkpt>
      <trkpt lat="48.71399" lon="2.05532">
        <ele>170</ele>
        <time>2021-05-20T10:53:04.012Z</time>
      </trkpt>
      <trkpt lat="48.71398" lon="2.05531">
        <ele>170</ele>
        <time>2021-05-20T10:53:05.012Z</time>
      </trkpt>
      <trkpt lat="48.71397" lon="2.0553">
        <ele>170</ele>
        <time>2021-05-20T10:53:06.012Z</time>
      </trkpt>
      <trkpt lat="48.71396" lon="2.05529">
        <ele>170</ele>
        <time>2021-05-20T10:53:07.012Z</time>
      </trkpt>
      <trkpt lat="48.71395" lon="2.05528">
        <ele>170</ele>
        <time>2021-05-20T10:53:08.012Z</time>
      </trkpt>
      <trkpt lat="48.71394" lon="2.05527">
        <ele>171</ele>
        <time>2021-05-20T10:53:09.012Z</time>
      </trkpt>
      <trkpt lat="48.71393" lon="2.05525">
        <ele>171</ele>
        <time>2021-05-20T10:53:10.012Z</time>
      </trkpt>
      <trkpt lat="48.71392" lon="2.05524">
        <ele>171</ele>
        <time>2021-05-20T10:53:11.012Z</time>
      </trkpt>
      <trkpt lat="48.71391" lon="2.05522">
        <ele>171</ele>
        <time>2021-05-20T10:53:12.012Z</time>
      </trkpt>
      <trkpt lat="48.71391" lon="2.0552">
        <ele>171</ele>
        <time>2021-05-20T10:53:13.012Z</time>
      </trkpt>
      <trkpt lat="48.7139" lon="2.05519">
        <ele>171</ele>
        <time>2021-05-20T10:53:14.012Z</time>
      </trkpt>
      <trkpt lat="48.71389" lon="2.05517">
        <ele>171</ele>
        <time>2021-05-20T10:53:17.289Z</time>
      </trkpt>
      <trkpt lat="48.71388" lon="2.05515">
        <ele>171</ele>
        <time>2021-05-20T10:53:18.289Z</time>
      </trkpt>
      <trkpt lat="48.71387" lon="2.05514">
        <ele>171</ele>
        <time>2021-05-20T10:53:19.289Z</time>
      </trkpt>
      <trkpt lat="48.71387" lon="2.05512">
        <ele>171</ele>
        <time>2021-05-20T10:53:20.289Z</time>
      </trkpt>
      <trkpt lat="48.71386" lon="2.0551">
        <ele>171</ele>
        <time>2021-05-20T10:53:21.289Z</time>
      </trkpt>
      <trkpt lat="48.71385" lon="2.05509">
        <ele>171</ele>
        <time>2021-05-20T10:53:22.289Z</time>
      </trkpt>
      <trkpt lat="48.71385" lon="2.05507">
        <ele>171</ele>
        <time>2021-05-20T10:53:23.289Z</time>
      </trkpt>
      <trkpt lat="48.71384" lon="2.05506">
        <ele>171</ele>
        <time>2021-05-20T10:53:24.289Z</time>
      </trkpt>
      <trkpt lat="48.71384" lon="2.05505">
        <ele>171</ele>
        <time>2021-05-20T10:53:25.289Z</time>
      </trkpt>
      <trkpt lat="48.71383" lon="2.05504">
        <ele>171</ele>
        <time>2021-05-20T10:53:26.289Z</time>
      </trkpt>
      <trkpt lat="48.71382" lon="2.05502">
        <ele>171</ele>
        <time>2021-05-20T10:53:27.289Z</time>
      </trkpt>
      <trkpt lat="48.71381" lon="2.05501">
        <ele>171</ele>
        <time>2021-05-20T10:53:28.289Z</time>
      </trkpt>
      <trkpt lat="48.7138" lon="2.05499">
        <ele>171</ele>
        <time>2021-05-20T10:53:29.289Z</time>
      </trkpt>
      <trkpt lat="48.7138" lon="2.05498">
        <ele>171</ele>
        <time>2021-05-20T10:53:30.289Z</time>
      </trkpt>
      <trkpt lat="48.71379" lon="2.05496">
        <ele>171</ele>
        <time>2021-05-20T10:53:31.289Z</time>
      </trkpt>
      <trkpt lat="48.71378" lon="2.05495">
        <ele>171</ele>
        <time>2021-05-20T10:53:32.289Z</time>
      </trkpt>
      <trkpt lat="48.71377" lon="2.05493">
        <ele>171</ele>
        <time>2021-05-20T10:53:33.289Z</time>
      </trkpt>
      <trkpt lat="48.71376" lon="2.05492">
        <ele>171</ele>
        <time>2021-05-20T10:53:34.289Z</time>
      </trkpt>
      <trkpt lat="48.71375" lon="2.05491">
        <ele>171</ele>
        <time>2021-05-20T10:53:35.289Z</time>
      </trkpt>
      <trkpt lat="48.71374" lon="2.05489">
        <ele>171</ele>
        <time>2021-05-20T10:53:36.289Z</time>
      </trkpt>
      <trkpt lat="48.71373" lon="2.05488">
        <ele>171</ele>
        <time>2021-05-20T10:53:37.289Z</time>
      </trkpt>
      <trkpt lat="48.71373" lon="2.05486">
        <ele>171</ele>
        <time>2021-05-20T10:53:38.289Z</time>
      </trkpt>
      <trkpt lat="48.71372" lon="2.05485">
        <ele>171</ele>
        <time>2021-05-20T10:53:39.289Z</time>
      </trkpt>
      <trkpt lat="48.7137" lon="2.05484">
        <ele>171</ele>
        <time>2021-05-20T10:53:40.289Z</time>
      </trkpt>
      <trkpt lat="48.7137" lon="2.05483">
        <ele>171</ele>
        <time>2021-05-20T10:53:41.289Z</time>
      </trkpt>
      <trkpt lat="48.71369" lon="2.05481">
        <ele>170</ele>
        <time>2021-05-20T10:53:42.289Z</time>
      </trkpt>
      <trkpt lat="48.71368" lon="2.0548">
        <ele>170</ele>
        <time>2021-05-20T10:53:43.289Z</time>
      </trkpt>
      <trkpt lat="48.71367" lon="2.05478">
        <ele>171</ele>
        <time>2021-05-20T10:53:44.289Z</time>
      </trkpt>
      <trkpt lat="48.71366" lon="2.05477">
        <ele>171</ele>
        <time>2021-05-20T10:53:45.289Z</time>
      </trkpt>
      <trkpt lat="48.71365" lon="2.05475">
        <ele>171</ele>
        <time>2021-05-20T10:53:46.289Z</time>
      </trkpt>
      <trkpt lat="48.71365" lon="2.05474">
        <ele>170</ele>
        <time>2021-05-20T10:53:47.289Z</time>
      </trkpt>
      <trkpt lat="48.71364" lon="2.05473">
        <ele>170</ele>
        <time>2021-05-20T10:53:48.289Z</time>
      </trkpt>
      <trkpt lat="48.71364" lon="2.05472">
        <ele>170</ele>
        <time>2021-05-20T10:53:49.289Z</time>
      </trkpt>
      <trkpt lat="48.71363" lon="2.05472">
        <ele>170</ele>
        <time>2021-05-20T10:53:50.289Z</time>
      </trkpt>
      <trkpt lat="48.71363" lon="2.05471">
        <ele>170</ele>
        <time>2021-05-20T10:53:51.289Z</time>
      </trkpt>
      <trkpt lat="48.71362" lon="2.05469">
        <ele>170</ele>
        <time>2021-05-20T10:53:52.289Z</time>
      </trkpt>
      <trkpt lat="48.71361" lon="2.05468">
        <ele>170</ele>
        <time>2021-05-20T10:53:53.289Z</time>
      </trkpt>
      <trkpt lat="48.71361" lon="2.05467">
        <ele>170</ele>
        <time>2021-05-20T10:53:54.289Z</time>
      </trkpt>
      <trkpt lat="48.71359" lon="2.05466">
        <ele>170</ele>
        <time>2021-05-20T10:53:55.289Z</time>
      </trkpt>
      <trkpt lat="48.71358" lon="2.05464">
        <ele>170</ele>
        <time>2021-05-20T10:53:56.289Z</time>
      </trkpt>
      <trkpt lat="48.71358" lon="2.05463">
        <ele>170</ele>
        <time>2021-05-20T10:53:57.289Z</time>
      </trkpt>
      <trkpt lat="48.71357" lon="2.05461">
        <ele>170</ele>
        <time>2021-05-20T10:53:58.289Z</time>
      </trkpt>
      <trkpt lat="48.71356" lon="2.0546">
        <ele>170</ele>
        <time>2021-05-20T10:53:59.289Z</time>
      </trkpt>
      <trkpt lat="48.71355" lon="2.05459">
        <ele>170</ele>
        <time>2021-05-20T10:54:00.289Z</time>
      </trkpt>
      <trkpt lat="48.71354" lon="2.05458">
        <ele>170</ele>
        <time>2021-05-20T10:54:01.289Z</time>
      </trkpt>
      <trkpt lat="48.71353" lon="2.05456">
        <ele>171</ele>
        <time>2021-05-20T10:54:02.289Z</time>
      </trkpt>
      <trkpt lat="48.71352" lon="2.05455">
        <ele>171</ele>
        <time>2021-05-20T10:54:03.289Z</time>
      </trkpt>
      <trkpt lat="48.71351" lon="2.05454">
        <ele>171</ele>
        <time>2021-05-20T10:54:04.289Z</time>
      </trkpt>
      <trkpt lat="48.7135" lon="2.05452">
        <ele>171</ele>
        <time>2021-05-20T10:54:05.289Z</time>
      </trkpt>
      <trkpt lat="48.71349" lon="2.05451">
        <ele>171</ele>
        <time>2021-05-20T10:54:06.289Z</time>
      </trkpt>
      <trkpt lat="48.71349" lon="2.05449">
        <ele>171</ele>
        <time>2021-05-20T10:54:07.289Z</time>
      </trkpt>
      <trkpt lat="48.71348" lon="2.05448">
        <ele>171</ele>
        <time>2021-05-20T10:54:08.289Z</time>
      </trkpt>
      <trkpt lat="48.71347" lon="2.05446">
        <ele>171</ele>
        <time>2021-05-20T10:54:09.289Z</time>
      </trkpt>
      <trkpt lat="48.71346" lon="2.05445">
        <ele>171</ele>
        <time>2021-05-20T10:54:10.289Z</time>
      </trkpt>
      <trkpt lat="48.71345" lon="2.05444">
        <ele>171</ele>
        <time>2021-05-20T10:54:11.289Z</time>
      </trkpt>
      <trkpt lat="48.71344" lon="2.05442">
        <ele>172</ele>
        <time>2021-05-20T10:54:12.289Z</time>
      </trkpt>
      <trkpt lat="48.71343" lon="2.05441">
        <ele>172</ele>
        <time>2021-05-20T10:54:13.289Z</time>
      </trkpt>
      <trkpt lat="48.71342" lon="2.05439">
        <ele>172</ele>
        <time>2021-05-20T10:54:14.289Z</time>
      </trkpt>
      <trkpt lat="48.71341" lon="2.05438">
        <ele>172</ele>
        <time>2021-05-20T10:54:15.289Z</time>
      </trkpt>
      <trkpt lat="48.7134" lon="2.05437">
        <ele>172</ele>
        <time>2021-05-20T10:54:16.289Z</time>
      </trkpt>
      <trkpt lat="48.71339" lon="2.05435">
        <ele>172</ele>
        <time>2021-05-20T10:54:17.289Z</time>
      </trkpt>
      <trkpt lat="48.71338" lon="2.05434">
        <ele>172</ele>
        <time>2021-05-20T10:54:18.289Z</time>
      </trkpt>
      <trkpt lat="48.71337" lon="2.05433">
        <ele>172</ele>
        <time>2021-05-20T10:54:19.289Z</time>
      </trkpt>
      <trkpt lat="48.71336" lon="2.05431">
        <ele>172</ele>
        <time>2021-05-20T10:54:20.289Z</time>
      </trkpt>
      <trkpt lat="48.71335" lon="2.0543">
        <ele>172</ele>
        <time>2021-05-20T10:54:21.289Z</time>
      </trkpt>
      <trkpt lat="48.71334" lon="2.05428">
        <ele>172</ele>
        <time>2021-05-20T10:54:22.289Z</time>
      </trkpt>
      <trkpt lat="48.71333" lon="2.05426">
        <ele>172</ele>
        <time>2021-05-20T10:54:23.289Z</time>
      </trkpt>
      <trkpt lat="48.71332" lon="2.05425">
        <ele>172</ele>
        <time>2021-05-20T10:54:24.289Z</time>
      </trkpt>
      <trkpt lat="48.71331" lon="2.05423">
        <ele>172</ele>
        <time>2021-05-20T10:54:25.289Z</time>
      </trkpt>
      <trkpt lat="48.7133" lon="2.05422">
        <ele>172</ele>
        <time>2021-05-20T10:54:26.289Z</time>
      </trkpt>
      <trkpt lat="48.71329" lon="2.0542">
        <ele>173</ele>
        <time>2021-05-20T10:54:27.289Z</time>
      </trkpt>
      <trkpt lat="48.71328" lon="2.05418">
        <ele>173</ele>
        <time>2021-05-20T10:54:28.289Z</time>
      </trkpt>
      <trkpt lat="48.71328" lon="2.05417">
        <ele>173</ele>
        <time>2021-05-20T10:54:29.289Z</time>
      </trkpt>
      <trkpt lat="48.71327" lon="2.05416">
        <ele>173</ele>
        <time>2021-05-20T10:54:30.289Z</time>
      </trkpt>
      <trkpt lat="48.71326" lon="2.05415">
        <ele>173</ele>
        <time>2021-05-20T10:54:31.289Z</time>
      </trkpt>
      <trkpt lat="48.71325" lon="2.05414">
        <ele>173</ele>
        <time>2021-05-20T10:54:32.289Z</time>
      </trkpt>
      <trkpt lat="48.71325" lon="2.05413">
        <ele>173</ele>
        <time>2021-05-20T10:54:33.289Z</time>
      </trkpt>
      <trkpt lat="48.71324" lon="2.05412">
        <ele>173</ele>
        <time>2021-05-20T10:54:34.289Z</time>
      </trkpt>
      <trkpt lat="48.71324" lon="2.05411">
        <ele>173</ele>
        <time>2021-05-20T10:54:35.289Z</time>
      </trkpt>
      <trkpt lat="48.71323" lon="2.0541">
        <ele>173</ele>
        <time>2021-05-20T10:54:36.289Z</time>
      </trkpt>
      <trkpt lat="48.71322" lon="2.05408">
        <ele>173</ele>
        <time>2021-05-20T10:54:37.289Z</time>
      </trkpt>
      <trkpt lat="48.71321" lon="2.05407">
        <ele>173</ele>
        <time>2021-05-20T10:54:38.289Z</time>
      </trkpt>
      <trkpt lat="48.7132" lon="2.05405">
        <ele>173</ele>
        <time>2021-05-20T10:54:39.289Z</time>
      </trkpt>
      <trkpt lat="48.71319" lon="2.05404">
        <ele>173</ele>
        <time>2021-05-20T10:54:40.289Z</time>
      </trkpt>
      <trkpt lat="48.71318" lon="2.05402">
        <ele>173</ele>
        <time>2021-05-20T10:54:41.289Z</time>
      </trkpt>
      <trkpt lat="48.71318" lon="2.054">
        <ele>173</ele>
        <time>2021-05-20T10:54:42.289Z</time>
      </trkpt>
      <trkpt lat="48.71317" lon="2.05399">
        <ele>173</ele>
        <time>2021-05-20T10:54:43.289Z</time>
      </trkpt>
      <trkpt lat="48.71317" lon="2.05398">
        <ele>173</ele>
        <time>2021-05-20T10:54:44.289Z</time>
      </trkpt>
      <trkpt lat="48.71316" lon="2.05396">
        <ele>173</ele>
        <time>2021-05-20T10:54:45.289Z</time>
      </trkpt>
      <trkpt lat="48.71315" lon="2.05395">
        <ele>173</ele>
        <time>2021-05-20T10:54:46.289Z</time>
      </trkpt>
      <trkpt lat="48.71314" lon="2.05393">
        <ele>173</ele>
        <time>2021-05-20T10:54:47.289Z</time>
      </trkpt>
      <trkpt lat="48.71313" lon="2.05391">
        <ele>173</ele>
        <time>2021-05-20T10:54:48.289Z</time>
      </trkpt>
      <trkpt lat="48.71312" lon="2.05389">
        <ele>173</ele>
        <time>2021-05-20T10:54:49.289Z</time>
      </trkpt>
      <trkpt lat="48.71311" lon="2.05388">
        <ele>173</ele>
        <time>2021-05-20T10:54:50.289Z</time>
      </trkpt>
      <trkpt lat="48.7131" lon="2.05387">
        <ele>173</ele>
        <time>2021-05-20T10:54:51.289Z</time>
      </trkpt>
      <trkpt lat="48.7131" lon="2.05385">
        <ele>173</ele>
        <time>2021-05-20T10:54:52.289Z</time>
      </trkpt>
      <trkpt lat="48.71309" lon="2.05384">
        <ele>173</ele>
        <time>2021-05-20T10:54:53.289Z</time>
      </trkpt>
      <trkpt lat="48.71308" lon="2.05382">
        <ele>173</ele>
        <time>2021-05-20T10:54:54.289Z</time>
      </trkpt>
      <trkpt lat="48.71308" lon="2.0538">
        <ele>173</ele>
        <time>2021-05-20T10:54:55.289Z</time>
      </trkpt>
      <trkpt lat="48.71307" lon="2.05379">
        <ele>173</ele>
        <time>2021-05-20T10:54:56.289Z</time>
      </trkpt>
      <trkpt lat="48.71306" lon="2.05377">
        <ele>173</ele>
        <time>2021-05-20T10:54:57.289Z</time>
      </trkpt>
      <trkpt lat="48.71305" lon="2.05376">
        <ele>173</ele>
        <time>2021-05-20T10:54:58.289Z</time>
      </trkpt>
      <trkpt lat="48.71304" lon="2.05374">
        <ele>173</ele>
        <time>2021-05-20T10:54:59.289Z</time>
      </trkpt>
      <trkpt lat="48.71303" lon="2.05373">
        <ele>172</ele>
        <time>2021-05-20T10:55:00.289Z</time>
      </trkpt>
      <trkpt lat="48.71302" lon="2.05371">
        <ele>172</ele>
        <time>2021-05-20T10:55:01.289Z</time>
      </trkpt>
      <trkpt lat="48.71301" lon="2.05369">
        <ele>172</ele>
        <time>2021-05-20T10:55:02.289Z</time>
      </trkpt>
      <trkpt lat="48.713" lon="2.05368">
        <ele>172</ele>
        <time>2021-05-20T10:55:03.289Z</time>
      </trkpt>
      <trkpt lat="48.71299" lon="2.05366">
        <ele>172</ele>
        <time>2021-05-20T10:55:04.289Z</time>
      </trkpt>
      <trkpt lat="48.71298" lon="2.05365">
        <ele>172</ele>
        <time>2021-05-20T10:55:05.289Z</time>
      </trkpt>
      <trkpt lat="48.71297" lon="2.05364">
        <ele>172</ele>
        <time>2021-05-20T10:55:06.289Z</time>
      </trkpt>
      <trkpt lat="48.71296" lon="2.05362">
        <ele>172</ele>
        <time>2021-05-20T10:55:07.289Z</time>
      </trkpt>
      <trkpt lat="48.71295" lon="2.05361">
        <ele>172</ele>
        <time>2021-05-20T10:55:08.289Z</time>
      </trkpt>
      <trkpt lat="48.71294" lon="2.05359">
        <ele>172</ele>
        <time>2021-05-20T10:55:09.289Z</time>
      </trkpt>
      <trkpt lat="48.71294" lon="2.05358">
        <ele>172</ele>
        <time>2021-05-20T10:55:10.289Z</time>
      </trkpt>
      <trkpt lat="48.71293" lon="2.05356">
        <ele>172</ele>
        <time>2021-05-20T10:55:11.289Z</time>
      </trkpt>
      <trkpt lat="48.71292" lon="2.05354">
        <ele>172</ele>
        <time>2021-05-20T10:55:12.289Z</time>
      </trkpt>
      <trkpt lat="48.71291" lon="2.05353">
        <ele>172</ele>
        <time>2021-05-20T10:55:13.289Z</time>
      </trkpt>
      <trkpt lat="48.7129" lon="2.05351">
        <ele>172</ele>
        <time>2021-05-20T10:55:14.289Z</time>
      </trkpt>
      <trkpt lat="48.71289" lon="2.0535">
        <ele>172</ele>
        <time>2021-05-20T10:55:15.289Z</time>
      </trkpt>
      <trkpt lat="48.71288" lon="2.05348">
        <ele>172</ele>
        <time>2021-05-20T10:55:16.289Z</time>
      </trkpt>
      <trkpt lat="48.71287" lon="2.05346">
        <ele>172</ele>
        <time>2021-05-20T10:55:17.289Z</time>
      </trkpt>
      <trkpt lat="48.71286" lon="2.05344">
        <ele>172</ele>
        <time>2021-05-20T10:55:18.289Z</time>
      </trkpt>
      <trkpt lat="48.71286" lon="2.05343">
        <ele>172</ele>
        <time>2021-05-20T10:55:19.289Z</time>
      </trkpt>
      <trkpt lat="48.71285" lon="2.05341">
        <ele>172</ele>
        <time>2021-05-20T10:55:20.289Z</time>
      </trkpt>
      <trkpt lat="48.71284" lon="2.0534">
        <ele>172</ele>
        <time>2021-05-20T10:55:21.289Z</time>
      </trkpt>
      <trkpt lat="48.71283" lon="2.05338">
        <ele>172</ele>
        <time>2021-05-20T10:55:22.289Z</time>
      </trkpt>
      <trkpt lat="48.71283" lon="2.05337">
        <ele>172</ele>
        <time>2021-05-20T10:55:23.289Z</time>
      </trkpt>
      <trkpt lat="48.71282" lon="2.05335">
        <ele>172</ele>
        <time>2021-05-20T10:55:24.289Z</time>
      </trkpt>
      <trkpt lat="48.71281" lon="2.05334">
        <ele>172</ele>
        <time>2021-05-20T10:55:25.289Z</time>
      </trkpt>
      <trkpt lat="48.7128" lon="2.05332">
        <ele>172</ele>
        <time>2021-05-20T10:55:26.289Z</time>
      </trkpt>
      <trkpt lat="48.71279" lon="2.05331">
        <ele>172</ele>
        <time>2021-05-20T10:55:27.289Z</time>
      </trkpt>
      <trkpt lat="48.71278" lon="2.0533">
        <ele>172</ele>
        <time>2021-05-20T10:55:28.289Z</time>
      </trkpt>
      <trkpt lat="48.71277" lon="2.05329">
        <ele>172</ele>
        <time>2021-05-20T10:55:29.289Z</time>
      </trkpt>
      <trkpt lat="48.71277" lon="2.05327">
        <ele>172</ele>
        <time>2021-05-20T10:55:30.289Z</time>
      </trkpt>
      <trkpt lat="48.71276" lon="2.05326">
        <ele>172</ele>
        <time>2021-05-20T10:55:31.289Z</time>
      </trkpt>
      <trkpt lat="48.71275" lon="2.05324">
        <ele>172</ele>
        <time>2021-05-20T10:55:32.289Z</time>
      </trkpt>
      <trkpt lat="48.71274" lon="2.05323">
        <ele>172</ele>
        <time>2021-05-20T10:55:33.289Z</time>
      </trkpt>
      <trkpt lat="48.71273" lon="2.05322">
        <ele>172</ele>
        <time>2021-05-20T10:55:34.289Z</time>
      </trkpt>
      <trkpt lat="48.71272" lon="2.0532">
        <ele>173</ele>
        <time>2021-05-20T10:55:35.289Z</time>
      </trkpt>
      <trkpt lat="48.71271" lon="2.05318">
        <ele>173</ele>
        <time>2021-05-20T10:55:36.289Z</time>
      </trkpt>
      <trkpt lat="48.7127" lon="2.05317">
        <ele>173</ele>
        <time>2021-05-20T10:55:37.289Z</time>
      </trkpt>
      <trkpt lat="48.71269" lon="2.05315">
        <ele>173</ele>
        <time>2021-05-20T10:55:38.289Z</time>
      </trkpt>
      <trkpt lat="48.71268" lon="2.05314">
        <ele>172</ele>
        <time>2021-05-20T10:55:39.289Z</time>
      </trkpt>
      <trkpt lat="48.71267" lon="2.05313">
        <ele>172</ele>
        <time>2021-05-20T10:55:40.289Z</time>
      </trkpt>
      <trkpt lat="48.71267" lon="2.05311">
        <ele>172</ele>
        <time>2021-05-20T10:55:41.289Z</time>
      </trkpt>
      <trkpt lat="48.71266" lon="2.0531">
        <ele>172</ele>
        <time>2021-05-20T10:55:42.289Z</time>
      </trkpt>
      <trkpt lat="48.71265" lon="2.05308">
        <ele>172</ele>
        <time>2021-05-20T10:55:43.289Z</time>
      </trkpt>
      <trkpt lat="48.71264" lon="2.05307">
        <ele>172</ele>
        <time>2021-05-20T10:55:44.289Z</time>
      </trkpt>
      <trkpt lat="48.71263" lon="2.05305">
        <ele>172</ele>
        <time>2021-05-20T10:55:45.289Z</time>
      </trkpt>
      <trkpt lat="48.71262" lon="2.05304">
        <ele>172</ele>
        <time>2021-05-20T10:55:46.289Z</time>
      </trkpt>
      <trkpt lat="48.71261" lon="2.05302">
        <ele>172</ele>
        <time>2021-05-20T10:55:47.289Z</time>
      </trkpt>
      <trkpt lat="48.7126" lon="2.05301">
        <ele>172</ele>
        <time>2021-05-20T10:55:48.289Z</time>
      </trkpt>
      <trkpt lat="48.71259" lon="2.053">
        <ele>172</ele>
        <time>2021-05-20T10:55:49.289Z</time>
      </trkpt>
      <trkpt lat="48.71258" lon="2.05299">
        <ele>172</ele>
        <time>2021-05-20T10:55:50.289Z</time>
      </trkpt>
      <trkpt lat="48.71258" lon="2.05297">
        <ele>172</ele>
        <time>2021-05-20T10:55:51.289Z</time>
      </trkpt>
      <trkpt lat="48.71257" lon="2.05296">
        <ele>172</ele>
        <time>2021-05-20T10:55:52.289Z</time>
      </trkpt>
      <trkpt lat="48.71256" lon="2.05295">
        <ele>172</ele>
        <time>2021-05-20T10:55:53.289Z</time>
      </trkpt>
      <trkpt lat="48.71255" lon="2.05293">
        <ele>172</ele>
        <time>2021-05-20T10:55:54.289Z</time>
      </trkpt>
      <trkpt lat="48.71254" lon="2.05292">
        <ele>172</ele>
        <time>2021-05-20T10:55:55.289Z</time>
      </trkpt>
      <trkpt lat="48.71253" lon="2.05291">
        <ele>172</ele>
        <time>2021-05-20T10:55:56.289Z</time>
      </trkpt>
      <trkpt lat="48.71252" lon="2.05289">
        <ele>172</ele>
        <time>2021-05-20T10:55:57.289Z</time>
      </trkpt>
      <trkpt lat="48.71251" lon="2.05288">
        <ele>172</ele>
        <time>2021-05-20T10:55:58.289Z</time>
      </trkpt>
      <trkpt lat="48.7125" lon="2.05286">
        <ele>172</ele>
        <time>2021-05-20T10:55:59.289Z</time>
      </trkpt>
      <trkpt lat="48.71249" lon="2.05285">
        <ele>172</ele>
        <time>2021-05-20T10:56:00.289Z</time>
      </trkpt>
      <trkpt lat="48.71249" lon="2.05283">
        <ele>171</ele>
        <time>2021-05-20T10:56:01.289Z</time>
      </trkpt>
      <trkpt lat="48.71248" lon="2.05282">
        <ele>171</ele>
        <time>2021-05-20T10:56:02.289Z</time>
      </trkpt>
      <trkpt lat="48.71247" lon="2.0528">
        <ele>171</ele>
        <time>2021-05-20T10:56:03.289Z</time>
      </trkpt>
      <trkpt lat="48.71246" lon="2.05279">
        <ele>171</ele>
        <time>2021-05-20T10:56:04.289Z</time>
      </trkpt>
      <trkpt lat="48.71246" lon="2.05278">
        <ele>171</ele>
        <time>2021-05-20T10:56:05.289Z</time>
      </trkpt>
      <trkpt lat="48.71245" lon="2.05277">
        <ele>171</ele>
        <time>2021-05-20T10:56:06.289Z</time>
      </trkpt>
      <trkpt lat="48.71244" lon="2.05275">
        <ele>171</ele>
        <time>2021-05-20T10:56:07.289Z</time>
      </trkpt>
      <trkpt lat="48.71244" lon="2.05274">
        <ele>171</ele>
        <time>2021-05-20T10:56:08.289Z</time>
      </trkpt>
      <trkpt lat="48.71243" lon="2.05273">
        <ele>170</ele>
        <time>2021-05-20T10:56:09.289Z</time>
      </trkpt>
      <trkpt lat="48.71242" lon="2.05271">
        <ele>170</ele>
        <time>2021-05-20T10:56:10.289Z</time>
      </trkpt>
      <trkpt lat="48.71241" lon="2.0527">
        <ele>170</ele>
        <time>2021-05-20T10:56:11.289Z</time>
      </trkpt>
      <trkpt lat="48.7124" lon="2.05268">
        <ele>170</ele>
        <time>2021-05-20T10:56:12.289Z</time>
      </trkpt>
      <trkpt lat="48.71239" lon="2.05267">
        <ele>169</ele>
        <time>2021-05-20T10:56:13.289Z</time>
      </trkpt>
      <trkpt lat="48.71238" lon="2.05266">
        <ele>169</ele>
        <time>2021-05-20T10:56:14.289Z</time>
      </trkpt>
      <trkpt lat="48.71238" lon="2.05264">
        <ele>169</ele>
        <time>2021-05-20T10:56:15.289Z</time>
      </trkpt>
      <trkpt lat="48.71237" lon="2.05262">
        <ele>169</ele>
        <time>2021-05-20T10:56:16.289Z</time>
      </trkpt>
      <trkpt lat="48.71236" lon="2.05261">
        <ele>169</ele>
        <time>2021-05-20T10:56:17.289Z</time>
      </trkpt>
      <trkpt lat="48.71236" lon="2.05259">
        <ele>169</ele>
        <time>2021-05-20T10:56:18.289Z</time>
      </trkpt>
      <trkpt lat="48.71235" lon="2.05258">
        <ele>169</ele>
        <time>2021-05-20T10:56:19.289Z</time>
      </trkpt>
      <trkpt lat="48.71234" lon="2.05257">
        <ele>168</ele>
        <time>2021-05-20T10:56:20.289Z</time>
      </trkpt>
      <trkpt lat="48.71233" lon="2.05255">
        <ele>168</ele>
        <time>2021-05-20T10:56:21.289Z</time>
      </trkpt>
      <trkpt lat="48.71233" lon="2.05254">
        <ele>168</ele>
        <time>2021-05-20T10:56:22.289Z</time>
      </trkpt>
      <trkpt lat="48.71232" lon="2.05252">
        <ele>168</ele>
        <time>2021-05-20T10:56:23.289Z</time>
      </trkpt>
      <trkpt lat="48.71231" lon="2.05251">
        <ele>168</ele>
        <time>2021-05-20T10:56:24.289Z</time>
      </trkpt>
      <trkpt lat="48.7123" lon="2.05249">
        <ele>168</ele>
        <time>2021-05-20T10:56:25.289Z</time>
      </trkpt>
      <trkpt lat="48.71229" lon="2.05248">
        <ele>168</ele>
        <time>2021-05-20T10:56:26.289Z</time>
      </trkpt>
      <trkpt lat="48.71228" lon="2.05247">
        <ele>168</ele>
        <time>2021-05-20T10:56:27.289Z</time>
      </trkpt>
      <trkpt lat="48.71227" lon="2.05246">
        <ele>168</ele>
        <time>2021-05-20T10:56:28.289Z</time>
      </trkpt>
      <trkpt lat="48.71227" lon="2.05245">
        <ele>168</ele>
        <time>2021-05-20T10:56:29.289Z</time>
      </trkpt>
      <trkpt lat="48.71226" lon="2.05243">
        <ele>168</ele>
        <time>2021-05-20T10:56:30.289Z</time>
      </trkpt>
      <trkpt lat="48.71225" lon="2.05242">
        <ele>168</ele>
        <time>2021-05-20T10:56:31.289Z</time>
      </trkpt>
      <trkpt lat="48.71224" lon="2.05241">
        <ele>168</ele>
        <time>2021-05-20T10:56:32.289Z</time>
      </trkpt>
      <trkpt lat="48.71223" lon="2.05239">
        <ele>168</ele>
        <time>2021-05-20T10:56:33.289Z</time>
      </trkpt>
      <trkpt lat="48.71222" lon="2.05238">
        <ele>168</ele>
        <time>2021-05-20T10:56:34.289Z</time>
      </trkpt>
      <trkpt lat="48.71221" lon="2.05237">
        <ele>168</ele>
        <time>2021-05-20T10:56:35.289Z</time>
      </trkpt>
      <trkpt lat="48.7122" lon="2.05237">
        <ele>168</ele>
        <time>2021-05-20T10:56:36.289Z</time>
      </trkpt>
      <trkpt lat="48.71219" lon="2.05236">
        <ele>168</ele>
        <time>2021-05-20T10:56:37.289Z</time>
      </trkpt>
      <trkpt lat="48.71219" lon="2.05235">
        <ele>168</ele>
        <time>2021-05-20T10:56:38.289Z</time>
      </trkpt>
      <trkpt lat="48.71218" lon="2.05233">
        <ele>168</ele>
        <time>2021-05-20T10:56:39.289Z</time>
      </trkpt>
      <trkpt lat="48.71217" lon="2.05232">
        <ele>168</ele>
        <time>2021-05-20T10:56:40.289Z</time>
      </trkpt>
      <trkpt lat="48.71216" lon="2.05231">
        <ele>168</ele>
        <time>2021-05-20T10:56:41.289Z</time>
      </trkpt>
      <trkpt lat="48.71215" lon="2.05229">
        <ele>168</ele>
        <time>2021-05-20T10:56:42.289Z</time>
      </trkpt>
      <trkpt lat="48.71214" lon="2.05228">
        <ele>168</ele>
        <time>2021-05-20T10:56:43.289Z</time>
      </trkpt>
      <trkpt lat="48.71213" lon="2.05226">
        <ele>168</ele>
        <time>2021-05-20T10:56:44.289Z</time>
      </trkpt>
      <trkpt lat="48.71212" lon="2.05224">
        <ele>168</ele>
        <time>2021-05-20T10:56:45.289Z</time>
      </trkpt>
      <trkpt lat="48.71211" lon="2.05223">
        <ele>168</ele>
        <time>2021-05-20T10:56:46.289Z</time>
      </trkpt>
      <trkpt lat="48.7121" lon="2.05221">
        <ele>168</ele>
        <time>2021-05-20T10:56:47.289Z</time>
      </trkpt>
      <trkpt lat="48.71209" lon="2.0522">
        <ele>168</ele>
        <time>2021-05-20T10:56:48.289Z</time>
      </trkpt>
      <trkpt lat="48.71208" lon="2.05218">
        <ele>168</ele>
        <time>2021-05-20T10:56:49.289Z</time>
      </trkpt>
      <trkpt lat="48.71208" lon="2.05217">
        <ele>168</ele>
        <time>2021-05-20T10:56:50.289Z</time>
      </trkpt>
      <trkpt lat="48.71207" lon="2.05215">
        <ele>168</ele>
        <time>2021-05-20T10:56:51.289Z</time>
      </trkpt>
      <trkpt lat="48.71206" lon="2.05214">
        <ele>168</ele>
        <time>2021-05-20T10:56:52.289Z</time>
      </trkpt>
      <trkpt lat="48.71205" lon="2.05212">
        <ele>168</ele>
        <time>2021-05-20T10:56:53.289Z</time>
      </trkpt>
      <trkpt lat="48.71204" lon="2.05211">
        <ele>169</ele>
        <time>2021-05-20T10:56:54.289Z</time>
      </trkpt>
      <trkpt lat="48.71203" lon="2.0521">
        <ele>169</ele>
        <time>2021-05-20T10:56:55.289Z</time>
      </trkpt>
      <trkpt lat="48.71203" lon="2.05209">
        <ele>169</ele>
        <time>2021-05-20T10:56:56.289Z</time>
      </trkpt>
      <trkpt lat="48.71202" lon="2.05208">
        <ele>169</ele>
        <time>2021-05-20T10:56:57.289Z</time>
      </trkpt>
      <trkpt lat="48.71202" lon="2.05207">
        <ele>169</ele>
        <time>2021-05-20T10:56:58.289Z</time>
      </trkpt>
      <trkpt lat="48.71201" lon="2.05206">
        <ele>169</ele>
        <time>2021-05-20T10:56:59.289Z</time>
      </trkpt>
      <trkpt lat="48.712" lon="2.05205">
        <ele>169</ele>
        <time>2021-05-20T10:57:00.289Z</time>
      </trkpt>
      <trkpt lat="48.712" lon="2.05204">
        <ele>169</ele>
        <time>2021-05-20T10:57:01.289Z</time>
      </trkpt>
      <trkpt lat="48.712" lon="2.05204">
        <ele>169</ele>
        <time>2021-05-20T10:57:02.289Z</time>
      </trkpt>
      <trkpt lat="48.712" lon="2.05204">
        <ele>169</ele>
        <time>2021-05-20T10:57:03.289Z</time>
      </trkpt>
      <trkpt lat="48.71199" lon="2.05203">
        <ele>169</ele>
        <time>2021-05-20T10:57:04.289Z</time>
      </trkpt>
      <trkpt lat="48.71198" lon="2.052">
        <ele>170</ele>
        <time>2021-05-20T10:57:05.289Z</time>
      </trkpt>
      <trkpt lat="48.71198" lon="2.05199">
        <ele>170</ele>
        <time>2021-05-20T10:57:06.289Z</time>
      </trkpt>
      <trkpt lat="48.71198" lon="2.05199">
        <ele>170</ele>
        <time>2021-05-20T10:57:07.289Z</time>
      </trkpt>
      <trkpt lat="48.71197" lon="2.05198">
        <ele>170</ele>
        <time>2021-05-20T10:57:08.289Z</time>
      </trkpt>
      <trkpt lat="48.71197" lon="2.05198">
        <ele>170</ele>
        <time>2021-05-20T10:57:09.289Z</time>
      </trkpt>
      <trkpt lat="48.71193" lon="2.0519">
        <ele>174</ele>
        <time>2021-05-20T10:57:10.289Z</time>
      </trkpt>
      <trkpt lat="48.71193" lon="2.05189">
        <ele>174</ele>
        <time>2021-05-20T10:57:11.289Z</time>
      </trkpt>
      <trkpt lat="48.71193" lon="2.05188">
        <ele>174</ele>
        <time>2021-05-20T10:57:12.289Z</time>
      </trkpt>
      <trkpt lat="48.71193" lon="2.05187">
        <ele>174</ele>
        <time>2021-05-20T10:57:13.289Z</time>
      </trkpt>
      <trkpt lat="48.71192" lon="2.05186">
        <ele>174</ele>
        <time>2021-05-20T10:57:14.289Z</time>
      </trkpt>
      <trkpt lat="48.71192" lon="2.05186">
        <ele>174</ele>
        <time>2021-05-20T10:57:15.289Z</time>
      </trkpt>
      <trkpt lat="48.7119" lon="2.05178">
        <ele>177</ele>
        <time>2021-05-20T10:57:16.289Z</time>
      </trkpt>
      <trkpt lat="48.7119" lon="2.05176">
        <ele>176</ele>
        <time>2021-05-20T10:57:17.289Z</time>
      </trkpt>
      <trkpt lat="48.7119" lon="2.05175">
        <ele>176</ele>
        <time>2021-05-20T10:57:18.289Z</time>
      </trkpt>
      <trkpt lat="48.7119" lon="2.05174">
        <ele>176</ele>
        <time>2021-05-20T10:57:19.289Z</time>
      </trkpt>
      <trkpt lat="48.7119" lon="2.05173">
        <ele>176</ele>
        <time>2021-05-20T10:57:20.289Z</time>
      </trkpt>
      <trkpt lat="48.71189" lon="2.05171">
        <ele>176</ele>
        <time>2021-05-20T10:57:21.289Z</time>
      </trkpt>
      <trkpt lat="48.7119" lon="2.0517">
        <ele>176</ele>
        <time>2021-05-20T10:57:22.289Z</time>
      </trkpt>
      <trkpt lat="48.7119" lon="2.05169">
        <ele>176</ele>
        <time>2021-05-20T10:57:23.289Z</time>
      </trkpt>
      <trkpt lat="48.7119" lon="2.05167">
        <ele>176</ele>
        <time>2021-05-20T10:57:24.289Z</time>
      </trkpt>
      <trkpt lat="48.7119" lon="2.05167">
        <ele>176</ele>
        <time>2021-05-20T10:57:25.289Z</time>
      </trkpt>
      <trkpt lat="48.7119" lon="2.05166">
        <ele>175</ele>
        <time>2021-05-20T10:57:26.289Z</time>
      </trkpt>
      <trkpt lat="48.7119" lon="2.05165">
        <ele>175</ele>
        <time>2021-05-20T10:57:27.289Z</time>
      </trkpt>
      <trkpt lat="48.7119" lon="2.05164">
        <ele>175</ele>
        <time>2021-05-20T10:57:28.289Z</time>
      </trkpt>
      <trkpt lat="48.7119" lon="2.05163">
        <ele>175</ele>
        <time>2021-05-20T10:57:29.289Z</time>
      </trkpt>
      <trkpt lat="48.7119" lon="2.05162">
        <ele>175</ele>
        <time>2021-05-20T10:57:30.289Z</time>
      </trkpt>
      <trkpt lat="48.7119" lon="2.05161">
        <ele>175</ele>
        <time>2021-05-20T10:57:31.289Z</time>
      </trkpt>
      <trkpt lat="48.7119" lon="2.0516">
        <ele>175</ele>
        <time>2021-05-20T10:57:32.289Z</time>
      </trkpt>
      <trkpt lat="48.7119" lon="2.05158">
        <ele>175</ele>
        <time>2021-05-20T10:57:33.289Z</time>
      </trkpt>
      <trkpt lat="48.7119" lon="2.05157">
        <ele>175</ele>
        <time>2021-05-20T10:57:34.289Z</time>
      </trkpt>
      <trkpt lat="48.7119" lon="2.05155">
        <ele>175</ele>
        <time>2021-05-20T10:57:35.289Z</time>
      </trkpt>
      <trkpt lat="48.7119" lon="2.05153">
        <ele>175</ele>
        <time>2021-05-20T10:57:36.289Z</time>
      </trkpt>
      <trkpt lat="48.7119" lon="2.05151">
        <ele>175</ele>
        <time>2021-05-20T10:57:37.289Z</time>
      </trkpt>
      <trkpt lat="48.7119" lon="2.05149">
        <ele>175</ele>
        <time>2021-05-20T10:57:38.289Z</time>
      </trkpt>
      <trkpt lat="48.7119" lon="2.05147">
        <ele>175</ele>
        <time>2021-05-20T10:57:39.289Z</time>
      </trkpt>
      <trkpt lat="48.7119" lon="2.05146">
        <ele>175</ele>
        <time>2021-05-20T10:57:40.289Z</time>
      </trkpt>
      <trkpt lat="48.7119" lon="2.05144">
        <ele>175</ele>
        <time>2021-05-20T10:57:41.289Z</time>
      </trkpt>
      <trkpt lat="48.7119" lon="2.05143">
        <ele>175</ele>
        <time>2021-05-20T10:57:42.289Z</time>
      </trkpt>
      <trkpt lat="48.7119" lon="2.05141">
        <ele>175</ele>
        <time>2021-05-20T10:57:43.289Z</time>
      </trkpt>
      <trkpt lat="48.7119" lon="2.05139">
        <ele>175</ele>
        <time>2021-05-20T10:57:44.289Z</time>
      </trkpt>
      <trkpt lat="48.71189" lon="2.05138">
        <ele>175</ele>
        <time>2021-05-20T10:57:45.289Z</time>
      </trkpt>
      <trkpt lat="48.71189" lon="2.05136">
        <ele>175</ele>
        <time>2021-05-20T10:57:46.289Z</time>
      </trkpt>
      <trkpt lat="48.71189" lon="2.05135">
        <ele>175</ele>
        <time>2021-05-20T10:57:47.289Z</time>
      </trkpt>
      <trkpt lat="48.71189" lon="2.05133">
        <ele>175</ele>
        <time>2021-05-20T10:57:48.289Z</time>
      </trkpt>
      <trkpt lat="48.71188" lon="2.05132">
        <ele>175</ele>
        <time>2021-05-20T10:57:49.289Z</time>
      </trkpt>
      <trkpt lat="48.71188" lon="2.0513">
        <ele>175</ele>
        <time>2021-05-20T10:57:50.289Z</time>
      </trkpt>
      <trkpt lat="48.71188" lon="2.05129">
        <ele>175</ele>
        <time>2021-05-20T10:57:51.289Z</time>
      </trkpt>
      <trkpt lat="48.71188" lon="2.05129">
        <ele>175</ele>
        <time>2021-05-20T10:57:52.289Z</time>
      </trkpt>
      <trkpt lat="48.71188" lon="2.05128">
        <ele>175</ele>
        <time>2021-05-20T10:57:53.289Z</time>
      </trkpt>
      <trkpt lat="48.71188" lon="2.05128">
        <ele>175</ele>
        <time>2021-05-20T10:57:54.289Z</time>
      </trkpt>
      <trkpt lat="48.7119" lon="2.05125">
        <ele>174</ele>
        <time>2021-05-20T10:57:55.289Z</time>
      </trkpt>
      <trkpt lat="48.7119" lon="2.05126">
        <ele>173</ele>
        <time>2021-05-20T10:57:56.289Z</time>
      </trkpt>
      <trkpt lat="48.7119" lon="2.05128">
        <ele>173</ele>
        <time>2021-05-20T10:57:57.289Z</time>
      </trkpt>
      <trkpt lat="48.7119" lon="2.05129">
        <ele>173</ele>
        <time>2021-05-20T10:57:58.289Z</time>
      </trkpt>
      <trkpt lat="48.71191" lon="2.0513">
        <ele>173</ele>
        <time>2021-05-20T10:57:59.289Z</time>
      </trkpt>
      <trkpt lat="48.71191" lon="2.05132">
        <ele>173</ele>
        <time>2021-05-20T10:58:00.289Z</time>
      </trkpt>
      <trkpt lat="48.71191" lon="2.05133">
        <ele>172</ele>
        <time>2021-05-20T10:58:01.289Z</time>
      </trkpt>
      <trkpt lat="48.71192" lon="2.05134">
        <ele>172</ele>
        <time>2021-05-20T10:58:02.289Z</time>
      </trkpt>
      <trkpt lat="48.71192" lon="2.05136">
        <ele>172</ele>
        <time>2021-05-20T10:58:03.289Z</time>
      </trkpt>
      <trkpt lat="48.71192" lon="2.05137">
        <ele>172</ele>
        <time>2021-05-20T10:58:04.289Z</time>
      </trkpt>
      <trkpt lat="48.71192" lon="2.05139">
        <ele>172</ele>
        <time>2021-05-20T10:58:05.289Z</time>
      </trkpt>
      <trkpt lat="48.71193" lon="2.0514">
        <ele>172</ele>
        <time>2021-05-20T10:58:06.289Z</time>
      </trkpt>
      <trkpt lat="48.71193" lon="2.05142">
        <ele>172</ele>
        <time>2021-05-20T10:58:07.289Z</time>
      </trkpt>
      <trkpt lat="48.71193" lon="2.05143">
        <ele>172</ele>
        <time>2021-05-20T10:58:08.289Z</time>
      </trkpt>
      <trkpt lat="48.71194" lon="2.05145">
        <ele>172</ele>
        <time>2021-05-20T10:58:09.289Z</time>
      </trkpt>
      <trkpt lat="48.71194" lon="2.05147">
        <ele>172</ele>
        <time>2021-05-20T10:58:10.289Z</time>
      </trkpt>
      <trkpt lat="48.71194" lon="2.05149">
        <ele>172</ele>
        <time>2021-05-20T10:58:11.289Z</time>
      </trkpt>
      <trkpt lat="48.71194" lon="2.0515">
        <ele>171</ele>
        <time>2021-05-20T10:58:12.289Z</time>
      </trkpt>
      <trkpt lat="48.71195" lon="2.05152">
        <ele>171</ele>
        <time>2021-05-20T10:58:13.289Z</time>
      </trkpt>
      <trkpt lat="48.71195" lon="2.05153">
        <ele>171</ele>
        <time>2021-05-20T10:58:14.289Z</time>
      </trkpt>
      <trkpt lat="48.71196" lon="2.05155">
        <ele>171</ele>
        <time>2021-05-20T10:58:15.289Z</time>
      </trkpt>
      <trkpt lat="48.71196" lon="2.05156">
        <ele>171</ele>
        <time>2021-05-20T10:58:16.289Z</time>
      </trkpt>
      <trkpt lat="48.71197" lon="2.05158">
        <ele>171</ele>
        <time>2021-05-20T10:58:17.289Z</time>
      </trkpt>
      <trkpt lat="48.71197" lon="2.0516">
        <ele>171</ele>
        <time>2021-05-20T10:58:18.289Z</time>
      </trkpt>
      <trkpt lat="48.71198" lon="2.05162">
        <ele>170</ele>
        <time>2021-05-20T10:58:19.289Z</time>
      </trkpt>
      <trkpt lat="48.71198" lon="2.05164">
        <ele>170</ele>
        <time>2021-05-20T10:58:20.289Z</time>
      </trkpt>
      <trkpt lat="48.71198" lon="2.05165">
        <ele>170</ele>
        <time>2021-05-20T10:58:21.289Z</time>
      </trkpt>
      <trkpt lat="48.71199" lon="2.05167">
        <ele>170</ele>
        <time>2021-05-20T10:58:22.289Z</time>
      </trkpt>
      <trkpt lat="48.71199" lon="2.05169">
        <ele>170</ele>
        <time>2021-05-20T10:58:23.289Z</time>
      </trkpt>
      <trkpt lat="48.71199" lon="2.05171">
        <ele>170</ele>
        <time>2021-05-20T10:58:24.289Z</time>
      </trkpt>
      <trkpt lat="48.712" lon="2.05173">
        <ele>170</ele>
        <time>2021-05-20T10:58:25.289Z</time>
      </trkpt>
      <trkpt lat="48.712" lon="2.05175">
        <ele>170</ele>
        <time>2021-05-20T10:58:26.289Z</time>
      </trkpt>
      <trkpt lat="48.712" lon="2.05176">
        <ele>170</ele>
        <time>2021-05-20T10:58:27.289Z</time>
      </trkpt>
      <trkpt lat="48.712" lon="2.05178">
        <ele>170</ele>
        <time>2021-05-20T10:58:28.289Z</time>
      </trkpt>
      <trkpt lat="48.71201" lon="2.0518">
        <ele>170</ele>
        <time>2021-05-20T10:58:29.289Z</time>
      </trkpt>
      <trkpt lat="48.71201" lon="2.05182">
        <ele>171</ele>
        <time>2021-05-20T10:58:30.289Z</time>
      </trkpt>
      <trkpt lat="48.71201" lon="2.05183">
        <ele>171</ele>
        <time>2021-05-20T10:58:31.289Z</time>
      </trkpt>
      <trkpt lat="48.71201" lon="2.05185">
        <ele>171</ele>
        <time>2021-05-20T10:58:32.289Z</time>
      </trkpt>
      <trkpt lat="48.71201" lon="2.05186">
        <ele>171</ele>
        <time>2021-05-20T10:58:33.289Z</time>
      </trkpt>
      <trkpt lat="48.71202" lon="2.05187">
        <ele>171</ele>
        <time>2021-05-20T10:58:34.289Z</time>
      </trkpt>
      <trkpt lat="48.71202" lon="2.05188">
        <ele>171</ele>
        <time>2021-05-20T10:58:35.289Z</time>
      </trkpt>
      <trkpt lat="48.71203" lon="2.05189">
        <ele>171</ele>
        <time>2021-05-20T10:58:36.289Z</time>
      </trkpt>
      <trkpt lat="48.71204" lon="2.05189">
        <ele>171</ele>
        <time>2021-05-20T10:58:37.289Z</time>
      </trkpt>
      <trkpt lat="48.71205" lon="2.05189">
        <ele>171</ele>
        <time>2021-05-20T10:58:38.289Z</time>
      </trkpt>
      <trkpt lat="48.71206" lon="2.05189">
        <ele>171</ele>
        <time>2021-05-20T10:58:39.289Z</time>
      </trkpt>
      <trkpt lat="48.71207" lon="2.05189">
        <ele>171</ele>
        <time>2021-05-20T10:58:40.289Z</time>
      </trkpt>
      <trkpt lat="48.71208" lon="2.05189">
        <ele>171</ele>
        <time>2021-05-20T10:58:41.289Z</time>
      </trkpt>
      <trkpt lat="48.71209" lon="2.05188">
        <ele>171</ele>
        <time>2021-05-20T10:58:42.289Z</time>
      </trkpt>
      <trkpt lat="48.71211" lon="2.05188">
        <ele>171</ele>
        <time>2021-05-20T10:58:43.289Z</time>
      </trkpt>
      <trkpt lat="48.71211" lon="2.05187">
        <ele>171</ele>
        <time>2021-05-20T10:58:44.289Z</time>
      </trkpt>
      <trkpt lat="48.71212" lon="2.05187">
        <ele>172</ele>
        <time>2021-05-20T10:58:45.289Z</time>
      </trkpt>
      <trkpt lat="48.71213" lon="2.05186">
        <ele>172</ele>
        <time>2021-05-20T10:58:46.289Z</time>
      </trkpt>
      <trkpt lat="48.71214" lon="2.05186">
        <ele>172</ele>
        <time>2021-05-20T10:58:47.289Z</time>
      </trkpt>
      <trkpt lat="48.71215" lon="2.05185">
        <ele>172</ele>
        <time>2021-05-20T10:58:48.289Z</time>
      </trkpt>
      <trkpt lat="48.71216" lon="2.05184">
        <ele>172</ele>
        <time>2021-05-20T10:58:49.289Z</time>
      </trkpt>
      <trkpt lat="48.71217" lon="2.05184">
        <ele>172</ele>
        <time>2021-05-20T10:58:50.289Z</time>
      </trkpt>
      <trkpt lat="48.71218" lon="2.05183">
        <ele>172</ele>
        <time>2021-05-20T10:58:51.289Z</time>
      </trkpt>
      <trkpt lat="48.71219" lon="2.05182">
        <ele>172</ele>
        <time>2021-05-20T10:58:52.289Z</time>
      </trkpt>
      <trkpt lat="48.7122" lon="2.05181">
        <ele>172</ele>
        <time>2021-05-20T10:58:53.289Z</time>
      </trkpt>
      <trkpt lat="48.7122" lon="2.0518">
        <ele>172</ele>
        <time>2021-05-20T10:58:54.289Z</time>
      </trkpt>
      <trkpt lat="48.71221" lon="2.05179">
        <ele>172</ele>
        <time>2021-05-20T10:58:55.289Z</time>
      </trkpt>
      <trkpt lat="48.71222" lon="2.05178">
        <ele>172</ele>
        <time>2021-05-20T10:58:56.289Z</time>
      </trkpt>
      <trkpt lat="48.71223" lon="2.05177">
        <ele>172</ele>
        <time>2021-05-20T10:58:57.289Z</time>
      </trkpt>
      <trkpt lat="48.71224" lon="2.05176">
        <ele>172</ele>
        <time>2021-05-20T10:58:58.289Z</time>
      </trkpt>
      <trkpt lat="48.71224" lon="2.05175">
        <ele>172</ele>
        <time>2021-05-20T10:58:59.289Z</time>
      </trkpt>
      <trkpt lat="48.71225" lon="2.05175">
        <ele>172</ele>
        <time>2021-05-20T10:59:00.289Z</time>
      </trkpt>
      <trkpt lat="48.71226" lon="2.05174">
        <ele>172</ele>
        <time>2021-05-20T10:59:01.289Z</time>
      </trkpt>
      <trkpt lat="48.71226" lon="2.05173">
        <ele>172</ele>
        <time>2021-05-20T10:59:02.289Z</time>
      </trkpt>
      <trkpt lat="48.71227" lon="2.05172">
        <ele>172</ele>
        <time>2021-05-20T10:59:03.289Z</time>
      </trkpt>
      <trkpt lat="48.71228" lon="2.05172">
        <ele>172</ele>
        <time>2021-05-20T10:59:04.289Z</time>
      </trkpt>
      <trkpt lat="48.71228" lon="2.05171">
        <ele>172</ele>
        <time>2021-05-20T10:59:05.289Z</time>
      </trkpt>
      <trkpt lat="48.71229" lon="2.0517">
        <ele>172</ele>
        <time>2021-05-20T10:59:06.289Z</time>
      </trkpt>
      <trkpt lat="48.7123" lon="2.05169">
        <ele>172</ele>
        <time>2021-05-20T10:59:07.289Z</time>
      </trkpt>
      <trkpt lat="48.7123" lon="2.05168">
        <ele>172</ele>
        <time>2021-05-20T10:59:08.289Z</time>
      </trkpt>
      <trkpt lat="48.71231" lon="2.05166">
        <ele>172</ele>
        <time>2021-05-20T10:59:09.289Z</time>
      </trkpt>
      <trkpt lat="48.71232" lon="2.05165">
        <ele>172</ele>
        <time>2021-05-20T10:59:10.289Z</time>
      </trkpt>
      <trkpt lat="48.71233" lon="2.05165">
        <ele>172</ele>
        <time>2021-05-20T10:59:11.289Z</time>
      </trkpt>
      <trkpt lat="48.71234" lon="2.05164">
        <ele>171</ele>
        <time>2021-05-20T10:59:12.289Z</time>
      </trkpt>
      <trkpt lat="48.71236" lon="2.05163">
        <ele>171</ele>
        <time>2021-05-20T10:59:13.289Z</time>
      </trkpt>
      <trkpt lat="48.71237" lon="2.05162">
        <ele>171</ele>
        <time>2021-05-20T10:59:14.289Z</time>
      </trkpt>
      <trkpt lat="48.71238" lon="2.05162">
        <ele>171</ele>
        <time>2021-05-20T10:59:15.289Z</time>
      </trkpt>
      <trkpt lat="48.71239" lon="2.05161">
        <ele>171</ele>
        <time>2021-05-20T10:59:16.289Z</time>
      </trkpt>
      <trkpt lat="48.7124" lon="2.05161">
        <ele>171</ele>
        <time>2021-05-20T10:59:17.289Z</time>
      </trkpt>
      <trkpt lat="48.7124" lon="2.05161">
        <ele>171</ele>
        <time>2021-05-20T10:59:18.289Z</time>
      </trkpt>
      <trkpt lat="48.7124" lon="2.0516">
        <ele>171</ele>
        <time>2021-05-20T10:59:19.289Z</time>
      </trkpt>
      <trkpt lat="48.71241" lon="2.0516">
        <ele>171</ele>
        <time>2021-05-20T10:59:20.289Z</time>
      </trkpt>
      <trkpt lat="48.71243" lon="2.05157">
        <ele>170</ele>
        <time>2021-05-20T10:59:21.289Z</time>
      </trkpt>
      <trkpt lat="48.71244" lon="2.05156">
        <ele>170</ele>
        <time>2021-05-20T10:59:22.289Z</time>
      </trkpt>
      <trkpt lat="48.71246" lon="2.05156">
        <ele>170</ele>
        <time>2021-05-20T10:59:23.289Z</time>
      </trkpt>
      <trkpt lat="48.71247" lon="2.05157">
        <ele>170</ele>
        <time>2021-05-20T10:59:24.289Z</time>
      </trkpt>
      <trkpt lat="48.71248" lon="2.05158">
        <ele>169</ele>
        <time>2021-05-20T10:59:25.289Z</time>
      </trkpt>
      <trkpt lat="48.71249" lon="2.05159">
        <ele>169</ele>
        <time>2021-05-20T10:59:26.289Z</time>
      </trkpt>
      <trkpt lat="48.7125" lon="2.0516">
        <ele>169</ele>
        <time>2021-05-20T10:59:27.289Z</time>
      </trkpt>
      <trkpt lat="48.7125" lon="2.05161">
        <ele>169</ele>
        <time>2021-05-20T10:59:28.289Z</time>
      </trkpt>
      <trkpt lat="48.71251" lon="2.05163">
        <ele>169</ele>
        <time>2021-05-20T10:59:29.289Z</time>
      </trkpt>
      <trkpt lat="48.71252" lon="2.05165">
        <ele>169</ele>
        <time>2021-05-20T10:59:30.289Z</time>
      </trkpt>
      <trkpt lat="48.71252" lon="2.05167">
        <ele>168</ele>
        <time>2021-05-20T10:59:31.289Z</time>
      </trkpt>
      <trkpt lat="48.71253" lon="2.05169">
        <ele>168</ele>
        <time>2021-05-20T10:59:32.289Z</time>
      </trkpt>
      <trkpt lat="48.71254" lon="2.05171">
        <ele>168</ele>
        <time>2021-05-20T10:59:33.289Z</time>
      </trkpt>
      <trkpt lat="48.71254" lon="2.05173">
        <ele>168</ele>
        <time>2021-05-20T10:59:34.289Z</time>
      </trkpt>
      <trkpt lat="48.71255" lon="2.05175">
        <ele>168</ele>
        <time>2021-05-20T10:59:35.289Z</time>
      </trkpt>
      <trkpt lat="48.71256" lon="2.05177">
        <ele>168</ele>
        <time>2021-05-20T10:59:36.289Z</time>
      </trkpt>
      <trkpt lat="48.71257" lon="2.05178">
        <ele>167</ele>
        <time>2021-05-20T10:59:37.289Z</time>
      </trkpt>
      <trkpt lat="48.71259" lon="2.0518">
        <ele>167</ele>
        <time>2021-05-20T10:59:38.289Z</time>
      </trkpt>
      <trkpt lat="48.7126" lon="2.05182">
        <ele>167</ele>
        <time>2021-05-20T10:59:39.289Z</time>
      </trkpt>
      <trkpt lat="48.71261" lon="2.05184">
        <ele>167</ele>
        <time>2021-05-20T10:59:40.289Z</time>
      </trkpt>
      <trkpt lat="48.71262" lon="2.05186">
        <ele>167</ele>
        <time>2021-05-20T10:59:41.289Z</time>
      </trkpt>
      <trkpt lat="48.71263" lon="2.05188">
        <ele>167</ele>
        <time>2021-05-20T10:59:42.289Z</time>
      </trkpt>
      <trkpt lat="48.71264" lon="2.05191">
        <ele>167</ele>
        <time>2021-05-20T10:59:43.289Z</time>
      </trkpt>
      <trkpt lat="48.71265" lon="2.05192">
        <ele>167</ele>
        <time>2021-05-20T10:59:44.289Z</time>
      </trkpt>
      <trkpt lat="48.71266" lon="2.05194">
        <ele>167</ele>
        <time>2021-05-20T10:59:45.289Z</time>
      </trkpt>
      <trkpt lat="48.71267" lon="2.05196">
        <ele>167</ele>
        <time>2021-05-20T10:59:46.289Z</time>
      </trkpt>
      <trkpt lat="48.71268" lon="2.05197">
        <ele>167</ele>
        <time>2021-05-20T10:59:47.289Z</time>
      </trkpt>
      <trkpt lat="48.71268" lon="2.05199">
        <ele>167</ele>
        <time>2021-05-20T10:59:48.289Z</time>
      </trkpt>
      <trkpt lat="48.71269" lon="2.052">
        <ele>167</ele>
        <time>2021-05-20T10:59:49.289Z</time>
      </trkpt>
      <trkpt lat="48.71269" lon="2.05202">
        <ele>167</ele>
        <time>2021-05-20T10:59:50.289Z</time>
      </trkpt>
      <trkpt lat="48.71269" lon="2.05203">
        <ele>167</ele>
        <time>2021-05-20T10:59:51.289Z</time>
      </trkpt>
      <trkpt lat="48.71269" lon="2.05205">
        <ele>168</ele>
        <time>2021-05-20T10:59:52.289Z</time>
      </trkpt>
      <trkpt lat="48.7127" lon="2.05207">
        <ele>168</ele>
        <time>2021-05-20T10:59:53.289Z</time>
      </trkpt>
      <trkpt lat="48.7127" lon="2.05208">
        <ele>168</ele>
        <time>2021-05-20T10:59:54.289Z</time>
      </trkpt>
      <trkpt lat="48.7127" lon="2.0521">
        <ele>168</ele>
        <time>2021-05-20T10:59:55.289Z</time>
      </trkpt>
      <trkpt lat="48.71271" lon="2.05211">
        <ele>168</ele>
        <time>2021-05-20T10:59:56.289Z</time>
      </trkpt>
      <trkpt lat="48.71272" lon="2.05213">
        <ele>168</ele>
        <time>2021-05-20T10:59:57.289Z</time>
      </trkpt>
      <trkpt lat="48.71272" lon="2.05215">
        <ele>168</ele>
        <time>2021-05-20T10:59:58.289Z</time>
      </trkpt>
      <trkpt lat="48.71273" lon="2.05217">
        <ele>168</ele>
        <time>2021-05-20T10:59:59.289Z</time>
      </trkpt>
      <trkpt lat="48.71274" lon="2.05219">
        <ele>168</ele>
        <time>2021-05-20T11:00:00.289Z</time>
      </trkpt>
      <trkpt lat="48.71275" lon="2.05221">
        <ele>168</ele>
        <time>2021-05-20T11:00:01.289Z</time>
      </trkpt>
      <trkpt lat="48.71275" lon="2.05223">
        <ele>168</ele>
        <time>2021-05-20T11:00:02.289Z</time>
      </trkpt>
      <trkpt lat="48.71276" lon="2.05225">
        <ele>168</ele>
        <time>2021-05-20T11:00:03.289Z</time>
      </trkpt>
      <trkpt lat="48.71276" lon="2.05227">
        <ele>169</ele>
        <time>2021-05-20T11:00:04.289Z</time>
      </trkpt>
      <trkpt lat="48.71277" lon="2.05229">
        <ele>169</ele>
        <time>2021-05-20T11:00:05.289Z</time>
      </trkpt>
      <trkpt lat="48.71278" lon="2.05231">
        <ele>169</ele>
        <time>2021-05-20T11:00:06.289Z</time>
      </trkpt>
      <trkpt lat="48.71278" lon="2.05233">
        <ele>169</ele>
        <time>2021-05-20T11:00:07.289Z</time>
      </trkpt>
      <trkpt lat="48.71279" lon="2.05234">
        <ele>169</ele>
        <time>2021-05-20T11:00:08.289Z</time>
      </trkpt>
      <trkpt lat="48.71279" lon="2.05236">
        <ele>169</ele>
        <time>2021-05-20T11:00:09.289Z</time>
      </trkpt>
      <trkpt lat="48.7128" lon="2.05237">
        <ele>169</ele>
        <time>2021-05-20T11:00:10.289Z</time>
      </trkpt>
      <trkpt lat="48.7128" lon="2.05239">
        <ele>169</ele>
        <time>2021-05-20T11:00:11.289Z</time>
      </trkpt>
      <trkpt lat="48.7128" lon="2.05241">
        <ele>170</ele>
        <time>2021-05-20T11:00:12.289Z</time>
      </trkpt>
      <trkpt lat="48.7128" lon="2.05242">
        <ele>170</ele>
        <time>2021-05-20T11:00:13.289Z</time>
      </trkpt>
      <trkpt lat="48.71281" lon="2.05244">
        <ele>170</ele>
        <time>2021-05-20T11:00:14.289Z</time>
      </trkpt>
      <trkpt lat="48.71281" lon="2.05246">
        <ele>170</ele>
        <time>2021-05-20T11:00:15.289Z</time>
      </trkpt>
      <trkpt lat="48.71281" lon="2.05248">
        <ele>170</ele>
        <time>2021-05-20T11:00:16.289Z</time>
      </trkpt>
      <trkpt lat="48.71282" lon="2.0525">
        <ele>170</ele>
        <time>2021-05-20T11:00:17.289Z</time>
      </trkpt>
      <trkpt lat="48.71282" lon="2.05253">
        <ele>171</ele>
        <time>2021-05-20T11:00:18.289Z</time>
      </trkpt>
      <trkpt lat="48.71283" lon="2.05254">
        <ele>171</ele>
        <time>2021-05-20T11:00:19.289Z</time>
      </trkpt>
      <trkpt lat="48.71284" lon="2.05256">
        <ele>171</ele>
        <time>2021-05-20T11:00:20.289Z</time>
      </trkpt>
      <trkpt lat="48.71285" lon="2.05258">
        <ele>171</ele>
        <time>2021-05-20T11:00:21.289Z</time>
      </trkpt>
      <trkpt lat="48.71286" lon="2.05259">
        <ele>171</ele>
        <time>2021-05-20T11:00:22.289Z</time>
      </trkpt>
      <trkpt lat="48.71287" lon="2.05261">
        <ele>171</ele>
        <time>2021-05-20T11:00:23.289Z</time>
      </trkpt>
      <trkpt lat="48.71288" lon="2.05263">
        <ele>171</ele>
        <time>2021-05-20T11:00:24.289Z</time>
      </trkpt>
      <trkpt lat="48.71289" lon="2.05265">
        <ele>171</ele>
        <time>2021-05-20T11:00:25.289Z</time>
      </trkpt>
      <trkpt lat="48.7129" lon="2.05267">
        <ele>170</ele>
        <time>2021-05-20T11:00:26.289Z</time>
      </trkpt>
      <trkpt lat="48.7129" lon="2.05268">
        <ele>170</ele>
        <time>2021-05-20T11:00:27.289Z</time>
      </trkpt>
      <trkpt lat="48.71291" lon="2.0527">
        <ele>170</ele>
        <time>2021-05-20T11:00:28.289Z</time>
      </trkpt>
      <trkpt lat="48.71292" lon="2.05271">
        <ele>170</ele>
        <time>2021-05-20T11:00:29.289Z</time>
      </trkpt>
      <trkpt lat="48.71293" lon="2.05273">
        <ele>170</ele>
        <time>2021-05-20T11:00:30.289Z</time>
      </trkpt>
      <trkpt lat="48.71295" lon="2.05274">
        <ele>170</ele>
        <time>2021-05-20T11:00:31.289Z</time>
      </trkpt>
      <trkpt lat="48.71295" lon="2.05276">
        <ele>170</ele>
        <time>2021-05-20T11:00:32.289Z</time>
      </trkpt>
      <trkpt lat="48.71296" lon="2.05278">
        <ele>170</ele>
        <time>2021-05-20T11:00:33.289Z</time>
      </trkpt>
      <trkpt lat="48.71297" lon="2.05279">
        <ele>170</ele>
        <time>2021-05-20T11:00:34.289Z</time>
      </trkpt>
      <trkpt lat="48.71298" lon="2.0528">
        <ele>170</ele>
        <time>2021-05-20T11:00:35.289Z</time>
      </trkpt>
      <trkpt lat="48.71299" lon="2.05282">
        <ele>170</ele>
        <time>2021-05-20T11:00:36.289Z</time>
      </trkpt>
      <trkpt lat="48.713" lon="2.05283">
        <ele>170</ele>
        <time>2021-05-20T11:00:37.289Z</time>
      </trkpt>
      <trkpt lat="48.71301" lon="2.05284">
        <ele>170</ele>
        <time>2021-05-20T11:00:38.289Z</time>
      </trkpt>
      <trkpt lat="48.71302" lon="2.05286">
        <ele>170</ele>
        <time>2021-05-20T11:00:39.289Z</time>
      </trkpt>
      <trkpt lat="48.71303" lon="2.05287">
        <ele>170</ele>
        <time>2021-05-20T11:00:40.289Z</time>
      </trkpt>
      <trkpt lat="48.71304" lon="2.05287">
        <ele>170</ele>
        <time>2021-05-20T11:00:41.289Z</time>
      </trkpt>
      <trkpt lat="48.71305" lon="2.05288">
        <ele>170</ele>
        <time>2021-05-20T11:00:42.289Z</time>
      </trkpt>
      <trkpt lat="48.71306" lon="2.05289">
        <ele>170</ele>
        <time>2021-05-20T11:00:43.289Z</time>
      </trkpt>
      <trkpt lat="48.71307" lon="2.0529">
        <ele>170</ele>
        <time>2021-05-20T11:00:44.289Z</time>
      </trkpt>
      <trkpt lat="48.71308" lon="2.05292">
        <ele>170</ele>
        <time>2021-05-20T11:00:45.289Z</time>
      </trkpt>
      <trkpt lat="48.71309" lon="2.05293">
        <ele>170</ele>
        <time>2021-05-20T11:00:46.289Z</time>
      </trkpt>
      <trkpt lat="48.7131" lon="2.05294">
        <ele>171</ele>
        <time>2021-05-20T11:00:47.289Z</time>
      </trkpt>
      <trkpt lat="48.71311" lon="2.05294">
        <ele>171</ele>
        <time>2021-05-20T11:00:48.289Z</time>
      </trkpt>
      <trkpt lat="48.71312" lon="2.05295">
        <ele>171</ele>
        <time>2021-05-20T11:00:49.289Z</time>
      </trkpt>
      <trkpt lat="48.71313" lon="2.05296">
        <ele>171</ele>
        <time>2021-05-20T11:00:50.289Z</time>
      </trkpt>
      <trkpt lat="48.71314" lon="2.05296">
        <ele>171</ele>
        <time>2021-05-20T11:00:51.289Z</time>
      </trkpt>
      <trkpt lat="48.71315" lon="2.05297">
        <ele>171</ele>
        <time>2021-05-20T11:00:52.289Z</time>
      </trkpt>
      <trkpt lat="48.71316" lon="2.05297">
        <ele>171</ele>
        <time>2021-05-20T11:00:53.289Z</time>
      </trkpt>
      <trkpt lat="48.71317" lon="2.05298">
        <ele>171</ele>
        <time>2021-05-20T11:00:54.289Z</time>
      </trkpt>
      <trkpt lat="48.71318" lon="2.05298">
        <ele>171</ele>
        <time>2021-05-20T11:00:55.289Z</time>
      </trkpt>
      <trkpt lat="48.71319" lon="2.05299">
        <ele>171</ele>
        <time>2021-05-20T11:00:56.289Z</time>
      </trkpt>
      <trkpt lat="48.7132" lon="2.05299">
        <ele>171</ele>
        <time>2021-05-20T11:00:57.289Z</time>
      </trkpt>
      <trkpt lat="48.71321" lon="2.053">
        <ele>171</ele>
        <time>2021-05-20T11:00:58.289Z</time>
      </trkpt>
      <trkpt lat="48.71323" lon="2.053">
        <ele>171</ele>
        <time>2021-05-20T11:00:59.289Z</time>
      </trkpt>
      <trkpt lat="48.71324" lon="2.05301">
        <ele>171</ele>
        <time>2021-05-20T11:01:00.289Z</time>
      </trkpt>
      <trkpt lat="48.71325" lon="2.05302">
        <ele>171</ele>
        <time>2021-05-20T11:01:01.289Z</time>
      </trkpt>
      <trkpt lat="48.71326" lon="2.05302">
        <ele>171</ele>
        <time>2021-05-20T11:01:02.289Z</time>
      </trkpt>
      <trkpt lat="48.71327" lon="2.05303">
        <ele>172</ele>
        <time>2021-05-20T11:01:03.289Z</time>
      </trkpt>
      <trkpt lat="48.71328" lon="2.05303">
        <ele>172</ele>
        <time>2021-05-20T11:01:04.289Z</time>
      </trkpt>
      <trkpt lat="48.71329" lon="2.05304">
        <ele>172</ele>
        <time>2021-05-20T11:01:05.289Z</time>
      </trkpt>
      <trkpt lat="48.71331" lon="2.05305">
        <ele>172</ele>
        <time>2021-05-20T11:01:06.289Z</time>
      </trkpt>
      <trkpt lat="48.71332" lon="2.05305">
        <ele>171</ele>
        <time>2021-05-20T11:01:07.289Z</time>
      </trkpt>
      <trkpt lat="48.71333" lon="2.05305">
        <ele>171</ele>
        <time>2021-05-20T11:01:08.289Z</time>
      </trkpt>
      <trkpt lat="48.71335" lon="2.05306">
        <ele>171</ele>
        <time>2021-05-20T11:01:09.289Z</time>
      </trkpt>
      <trkpt lat="48.71336" lon="2.05306">
        <ele>171</ele>
        <time>2021-05-20T11:01:10.289Z</time>
      </trkpt>
      <trkpt lat="48.71338" lon="2.05307">
        <ele>171</ele>
        <time>2021-05-20T11:01:11.289Z</time>
      </trkpt>
      <trkpt lat="48.71339" lon="2.05307">
        <ele>171</ele>
        <time>2021-05-20T11:01:12.289Z</time>
      </trkpt>
      <trkpt lat="48.7134" lon="2.05307">
        <ele>171</ele>
        <time>2021-05-20T11:01:13.289Z</time>
      </trkpt>
      <trkpt lat="48.71341" lon="2.05308">
        <ele>170</ele>
        <time>2021-05-20T11:01:14.289Z</time>
      </trkpt>
      <trkpt lat="48.71343" lon="2.05308">
        <ele>170</ele>
        <time>2021-05-20T11:01:15.289Z</time>
      </trkpt>
      <trkpt lat="48.71344" lon="2.05309">
        <ele>170</ele>
        <time>2021-05-20T11:01:16.289Z</time>
      </trkpt>
      <trkpt lat="48.71345" lon="2.05309">
        <ele>170</ele>
        <time>2021-05-20T11:01:17.289Z</time>
      </trkpt>
      <trkpt lat="48.71346" lon="2.05309">
        <ele>170</ele>
        <time>2021-05-20T11:01:18.289Z</time>
      </trkpt>
      <trkpt lat="48.71348" lon="2.0531">
        <ele>170</ele>
        <time>2021-05-20T11:01:19.289Z</time>
      </trkpt>
      <trkpt lat="48.71349" lon="2.0531">
        <ele>170</ele>
        <time>2021-05-20T11:01:20.289Z</time>
      </trkpt>
      <trkpt lat="48.7135" lon="2.0531">
        <ele>170</ele>
        <time>2021-05-20T11:01:21.289Z</time>
      </trkpt>
      <trkpt lat="48.71351" lon="2.05311">
        <ele>170</ele>
        <time>2021-05-20T11:01:22.289Z</time>
      </trkpt>
      <trkpt lat="48.71353" lon="2.05311">
        <ele>169</ele>
        <time>2021-05-20T11:01:23.289Z</time>
      </trkpt>
      <trkpt lat="48.71354" lon="2.05311">
        <ele>169</ele>
        <time>2021-05-20T11:01:24.289Z</time>
      </trkpt>
      <trkpt lat="48.71356" lon="2.05312">
        <ele>169</ele>
        <time>2021-05-20T11:01:25.289Z</time>
      </trkpt>
      <trkpt lat="48.71357" lon="2.05312">
        <ele>169</ele>
        <time>2021-05-20T11:01:26.289Z</time>
      </trkpt>
      <trkpt lat="48.71358" lon="2.05313">
        <ele>169</ele>
        <time>2021-05-20T11:01:27.289Z</time>
      </trkpt>
      <trkpt lat="48.7136" lon="2.05313">
        <ele>169</ele>
        <time>2021-05-20T11:01:28.289Z</time>
      </trkpt>
      <trkpt lat="48.71361" lon="2.05314">
        <ele>169</ele>
        <time>2021-05-20T11:01:29.289Z</time>
      </trkpt>
      <trkpt lat="48.71362" lon="2.05314">
        <ele>169</ele>
        <time>2021-05-20T11:01:30.289Z</time>
      </trkpt>
      <trkpt lat="48.71363" lon="2.05315">
        <ele>169</ele>
        <time>2021-05-20T11:01:31.289Z</time>
      </trkpt>
      <trkpt lat="48.71364" lon="2.05316">
        <ele>169</ele>
        <time>2021-05-20T11:01:32.289Z</time>
      </trkpt>
      <trkpt lat="48.71366" lon="2.05316">
        <ele>169</ele>
        <time>2021-05-20T11:01:33.289Z</time>
      </trkpt>
      <trkpt lat="48.71367" lon="2.05316">
        <ele>169</ele>
        <time>2021-05-20T11:01:34.289Z</time>
      </trkpt>
      <trkpt lat="48.71368" lon="2.05317">
        <ele>169</ele>
        <time>2021-05-20T11:01:35.289Z</time>
      </trkpt>
      <trkpt lat="48.7137" lon="2.05317">
        <ele>169</ele>
        <time>2021-05-20T11:01:36.289Z</time>
      </trkpt>
      <trkpt lat="48.71371" lon="2.05318">
        <ele>169</ele>
        <time>2021-05-20T11:01:37.289Z</time>
      </trkpt>
      <trkpt lat="48.71372" lon="2.05318">
        <ele>169</ele>
        <time>2021-05-20T11:01:38.289Z</time>
      </trkpt>
      <trkpt lat="48.71373" lon="2.05318">
        <ele>169</ele>
        <time>2021-05-20T11:01:39.289Z</time>
      </trkpt>
      <trkpt lat="48.71375" lon="2.05318">
        <ele>169</ele>
        <time>2021-05-20T11:01:40.289Z</time>
      </trkpt>
      <trkpt lat="48.71375" lon="2.05318">
        <ele>169</ele>
        <time>2021-05-20T11:01:41.289Z</time>
      </trkpt>
      <trkpt lat="48.71376" lon="2.05319">
        <ele>169</ele>
        <time>2021-05-20T11:01:42.289Z</time>
      </trkpt>
      <trkpt lat="48.71377" lon="2.05319">
        <ele>169</ele>
        <time>2021-05-20T11:01:43.289Z</time>
      </trkpt>
      <trkpt lat="48.71379" lon="2.0532">
        <ele>169</ele>
        <time>2021-05-20T11:01:44.289Z</time>
      </trkpt>
      <trkpt lat="48.7138" lon="2.0532">
        <ele>169</ele>
        <time>2021-05-20T11:01:45.289Z</time>
      </trkpt>
      <trkpt lat="48.71381" lon="2.05321">
        <ele>169</ele>
        <time>2021-05-20T11:01:46.289Z</time>
      </trkpt>
      <trkpt lat="48.71382" lon="2.05321">
        <ele>169</ele>
        <time>2021-05-20T11:01:47.289Z</time>
      </trkpt>
      <trkpt lat="48.71383" lon="2.05322">
        <ele>169</ele>
        <time>2021-05-20T11:01:48.289Z</time>
      </trkpt>
      <trkpt lat="48.71384" lon="2.05322">
        <ele>169</ele>
        <time>2021-05-20T11:01:49.289Z</time>
      </trkpt>
      <trkpt lat="48.71386" lon="2.05323">
        <ele>169</ele>
        <time>2021-05-20T11:01:50.289Z</time>
      </trkpt>
      <trkpt lat="48.71387" lon="2.05323">
        <ele>169</ele>
        <time>2021-05-20T11:01:51.289Z</time>
      </trkpt>
      <trkpt lat="48.71389" lon="2.05323">
        <ele>170</ele>
        <time>2021-05-20T11:01:52.289Z</time>
      </trkpt>
      <trkpt lat="48.7139" lon="2.05324">
        <ele>170</ele>
        <time>2021-05-20T11:01:53.289Z</time>
      </trkpt>
      <trkpt lat="48.71392" lon="2.05324">
        <ele>170</ele>
        <time>2021-05-20T11:01:54.289Z</time>
      </trkpt>
      <trkpt lat="48.71393" lon="2.05324">
        <ele>170</ele>
        <time>2021-05-20T11:01:55.289Z</time>
      </trkpt>
      <trkpt lat="48.71394" lon="2.05324">
        <ele>170</ele>
        <time>2021-05-20T11:01:56.289Z</time>
      </trkpt>
      <trkpt lat="48.71396" lon="2.05325">
        <ele>170</ele>
        <time>2021-05-20T11:01:57.289Z</time>
      </trkpt>
      <trkpt lat="48.71397" lon="2.05325">
        <ele>170</ele>
        <time>2021-05-20T11:01:58.289Z</time>
      </trkpt>
      <trkpt lat="48.71399" lon="2.05325">
        <ele>170</ele>
        <time>2021-05-20T11:01:59.289Z</time>
      </trkpt>
      <trkpt lat="48.71401" lon="2.05325">
        <ele>170</ele>
        <time>2021-05-20T11:02:00.289Z</time>
      </trkpt>
      <trkpt lat="48.71402" lon="2.05326">
        <ele>170</ele>
        <time>2021-05-20T11:02:01.289Z</time>
      </trkpt>
      <trkpt lat="48.71404" lon="2.05326">
        <ele>170</ele>
        <time>2021-05-20T11:02:02.289Z</time>
      </trkpt>
      <trkpt lat="48.71405" lon="2.05326">
        <ele>170</ele>
        <time>2021-05-20T11:02:03.289Z</time>
      </trkpt>
      <trkpt lat="48.71407" lon="2.05327">
        <ele>170</ele>
        <time>2021-05-20T11:02:04.289Z</time>
      </trkpt>
      <trkpt lat="48.71409" lon="2.05327">
        <ele>170</ele>
        <time>2021-05-20T11:02:05.289Z</time>
      </trkpt>
      <trkpt lat="48.7141" lon="2.05327">
        <ele>170</ele>
        <time>2021-05-20T11:02:06.289Z</time>
      </trkpt>
      <trkpt lat="48.71412" lon="2.05328">
        <ele>170</ele>
        <time>2021-05-20T11:02:07.289Z</time>
      </trkpt>
      <trkpt lat="48.71413" lon="2.05329">
        <ele>170</ele>
        <time>2021-05-20T11:02:08.289Z</time>
      </trkpt>
      <trkpt lat="48.71414" lon="2.05329">
        <ele>170</ele>
        <time>2021-05-20T11:02:09.289Z</time>
      </trkpt>
      <trkpt lat="48.71415" lon="2.0533">
        <ele>170</ele>
        <time>2021-05-20T11:02:10.289Z</time>
      </trkpt>
      <trkpt lat="48.71416" lon="2.05331">
        <ele>170</ele>
        <time>2021-05-20T11:02:11.289Z</time>
      </trkpt>
      <trkpt lat="48.71417" lon="2.05331">
        <ele>170</ele>
        <time>2021-05-20T11:02:12.289Z</time>
      </trkpt>
      <trkpt lat="48.71418" lon="2.05332">
        <ele>170</ele>
        <time>2021-05-20T11:02:13.289Z</time>
      </trkpt>
      <trkpt lat="48.71419" lon="2.05333">
        <ele>170</ele>
        <time>2021-05-20T11:02:14.289Z</time>
      </trkpt>
      <trkpt lat="48.7142" lon="2.05333">
        <ele>170</ele>
        <time>2021-05-20T11:02:15.289Z</time>
      </trkpt>
      <trkpt lat="48.71421" lon="2.05333">
        <ele>170</ele>
        <time>2021-05-20T11:02:16.289Z</time>
      </trkpt>
      <trkpt lat="48.71421" lon="2.05333">
        <ele>170</ele>
        <time>2021-05-20T11:02:17.289Z</time>
      </trkpt>
      <trkpt lat="48.71422" lon="2.05334">
        <ele>170</ele>
        <time>2021-05-20T11:02:18.289Z</time>
      </trkpt>
      <trkpt lat="48.71423" lon="2.05334">
        <ele>170</ele>
        <time>2021-05-20T11:02:19.289Z</time>
      </trkpt>
      <trkpt lat="48.71425" lon="2.05335">
        <ele>170</ele>
        <time>2021-05-20T11:02:20.289Z</time>
      </trkpt>
      <trkpt lat="48.71426" lon="2.05336">
        <ele>170</ele>
        <time>2021-05-20T11:02:21.289Z</time>
      </trkpt>
      <trkpt lat="48.71427" lon="2.05336">
        <ele>170</ele>
        <time>2021-05-20T11:02:22.289Z</time>
      </trkpt>
      <trkpt lat="48.71428" lon="2.05337">
        <ele>170</ele>
        <time>2021-05-20T11:02:23.289Z</time>
      </trkpt>
      <trkpt lat="48.71429" lon="2.05337">
        <ele>170</ele>
        <time>2021-05-20T11:02:24.289Z</time>
      </trkpt>
      <trkpt lat="48.71431" lon="2.05338">
        <ele>170</ele>
        <time>2021-05-20T11:02:25.289Z</time>
      </trkpt>
      <trkpt lat="48.71432" lon="2.05338">
        <ele>170</ele>
        <time>2021-05-20T11:02:26.289Z</time>
      </trkpt>
      <trkpt lat="48.71433" lon="2.05339">
        <ele>170</ele>
        <time>2021-05-20T11:02:27.289Z</time>
      </trkpt>
      <trkpt lat="48.71434" lon="2.0534">
        <ele>170</ele>
        <time>2021-05-20T11:02:28.289Z</time>
      </trkpt>
      <trkpt lat="48.71436" lon="2.05341">
        <ele>170</ele>
        <time>2021-05-20T11:02:29.289Z</time>
      </trkpt>
      <trkpt lat="48.71437" lon="2.05341">
        <ele>170</ele>
        <time>2021-05-20T11:02:30.289Z</time>
      </trkpt>
      <trkpt lat="48.71439" lon="2.05342">
        <ele>170</ele>
        <time>2021-05-20T11:02:31.289Z</time>
      </trkpt>
      <trkpt lat="48.7144" lon="2.05342">
        <ele>170</ele>
        <time>2021-05-20T11:02:35.305Z</time>
      </trkpt>
      <trkpt lat="48.71441" lon="2.05342">
        <ele>170</ele>
        <time>2021-05-20T11:02:36.305Z</time>
      </trkpt>
      <trkpt lat="48.71443" lon="2.05342">
        <ele>170</ele>
        <time>2021-05-20T11:02:37.305Z</time>
      </trkpt>
      <trkpt lat="48.71444" lon="2.05343">
        <ele>170</ele>
        <time>2021-05-20T11:02:38.305Z</time>
      </trkpt>
      <trkpt lat="48.71445" lon="2.05343">
        <ele>170</ele>
        <time>2021-05-20T11:02:39.305Z</time>
      </trkpt>
      <trkpt lat="48.71446" lon="2.05343">
        <ele>170</ele>
        <time>2021-05-20T11:02:40.305Z</time>
      </trkpt>
      <trkpt lat="48.71448" lon="2.05343">
        <ele>170</ele>
        <time>2021-05-20T11:02:41.305Z</time>
      </trkpt>
      <trkpt lat="48.71449" lon="2.05343">
        <ele>170</ele>
        <time>2021-05-20T11:02:42.305Z</time>
      </trkpt>
      <trkpt lat="48.7145" lon="2.05343">
        <ele>170</ele>
        <time>2021-05-20T11:02:45.566Z</time>
      </trkpt>
      <trkpt lat="48.71451" lon="2.05343">
        <ele>170</ele>
        <time>2021-05-20T11:02:46.566Z</time>
      </trkpt>
      <trkpt lat="48.71452" lon="2.05343">
        <ele>170</ele>
        <time>2021-05-20T11:02:47.566Z</time>
      </trkpt>
      <trkpt lat="48.71453" lon="2.05342">
        <ele>170</ele>
        <time>2021-05-20T11:02:48.566Z</time>
      </trkpt>
      <trkpt lat="48.71455" lon="2.05342">
        <ele>170</ele>
        <time>2021-05-20T11:02:49.566Z</time>
      </trkpt>
      <trkpt lat="48.71456" lon="2.05342">
        <ele>170</ele>
        <time>2021-05-20T11:02:50.566Z</time>
      </trkpt>
      <trkpt lat="48.71457" lon="2.05342">
        <ele>170</ele>
        <time>2021-05-20T11:02:51.566Z</time>
      </trkpt>
      <trkpt lat="48.71458" lon="2.05343">
        <ele>170</ele>
        <time>2021-05-20T11:02:52.566Z</time>
      </trkpt>
      <trkpt lat="48.71459" lon="2.05343">
        <ele>170</ele>
        <time>2021-05-20T11:02:53.566Z</time>
      </trkpt>
      <trkpt lat="48.7146" lon="2.05343">
        <ele>171</ele>
        <time>2021-05-20T11:02:54.566Z</time>
      </trkpt>
      <trkpt lat="48.71462" lon="2.05343">
        <ele>171</ele>
        <time>2021-05-20T11:02:55.566Z</time>
      </trkpt>
      <trkpt lat="48.71463" lon="2.05343">
        <ele>171</ele>
        <time>2021-05-20T11:02:56.566Z</time>
      </trkpt>
      <trkpt lat="48.71464" lon="2.05343">
        <ele>171</ele>
        <time>2021-05-20T11:02:57.566Z</time>
      </trkpt>
      <trkpt lat="48.71466" lon="2.05343">
        <ele>171</ele>
        <time>2021-05-20T11:02:58.566Z</time>
      </trkpt>
      <trkpt lat="48.71468" lon="2.05343">
        <ele>171</ele>
        <time>2021-05-20T11:02:59.566Z</time>
      </trkpt>
      <trkpt lat="48.71469" lon="2.05343">
        <ele>171</ele>
        <time>2021-05-20T11:03:00.566Z</time>
      </trkpt>
      <trkpt lat="48.7147" lon="2.05343">
        <ele>171</ele>
        <time>2021-05-20T11:03:01.566Z</time>
      </trkpt>
      <trkpt lat="48.71472" lon="2.05343">
        <ele>171</ele>
        <time>2021-05-20T11:03:02.566Z</time>
      </trkpt>
      <trkpt lat="48.71473" lon="2.05343">
        <ele>171</ele>
        <time>2021-05-20T11:03:03.566Z</time>
      </trkpt>
      <trkpt lat="48.71474" lon="2.05343">
        <ele>171</ele>
        <time>2021-05-20T11:03:04.566Z</time>
      </trkpt>
      <trkpt lat="48.71475" lon="2.05343">
        <ele>171</ele>
        <time>2021-05-20T11:03:05.566Z</time>
      </trkpt>
      <trkpt lat="48.71476" lon="2.05343">
        <ele>171</ele>
        <time>2021-05-20T11:03:06.566Z</time>
      </trkpt>
      <trkpt lat="48.71477" lon="2.05343">
        <ele>172</ele>
        <time>2021-05-20T11:03:07.566Z</time>
      </trkpt>
      <trkpt lat="48.71478" lon="2.05343">
        <ele>172</ele>
        <time>2021-05-20T11:03:08.566Z</time>
      </trkpt>
      <trkpt lat="48.7148" lon="2.05343">
        <ele>172</ele>
        <time>2021-05-20T11:03:09.566Z</time>
      </trkpt>
      <trkpt lat="48.71481" lon="2.05343">
        <ele>172</ele>
        <time>2021-05-20T11:03:10.566Z</time>
      </trkpt>
      <trkpt lat="48.71483" lon="2.05342">
        <ele>172</ele>
        <time>2021-05-20T11:03:11.566Z</time>
      </trkpt>
      <trkpt lat="48.71484" lon="2.05342">
        <ele>172</ele>
        <time>2021-05-20T11:03:12.566Z</time>
      </trkpt>
      <trkpt lat="48.71486" lon="2.05342">
        <ele>172</ele>
        <time>2021-05-20T11:03:13.566Z</time>
      </trkpt>
      <trkpt lat="48.71487" lon="2.05342">
        <ele>172</ele>
        <time>2021-05-20T11:03:14.566Z</time>
      </trkpt>
      <trkpt lat="48.71489" lon="2.05341">
        <ele>172</ele>
        <time>2021-05-20T11:03:15.566Z</time>
      </trkpt>
      <trkpt lat="48.7149" lon="2.05341">
        <ele>172</ele>
        <time>2021-05-20T11:03:16.566Z</time>
      </trkpt>
      <trkpt lat="48.71491" lon="2.05341">
        <ele>172</ele>
        <time>2021-05-20T11:03:17.566Z</time>
      </trkpt>
      <trkpt lat="48.71493" lon="2.05341">
        <ele>172</ele>
        <time>2021-05-20T11:03:18.566Z</time>
      </trkpt>
      <trkpt lat="48.71494" lon="2.05341">
        <ele>172</ele>
        <time>2021-05-20T11:03:19.566Z</time>
      </trkpt>
      <trkpt lat="48.71495" lon="2.05341">
        <ele>172</ele>
        <time>2021-05-20T11:03:20.566Z</time>
      </trkpt>
      <trkpt lat="48.71496" lon="2.05341">
        <ele>172</ele>
        <time>2021-05-20T11:03:21.566Z</time>
      </trkpt>
      <trkpt lat="48.71498" lon="2.05342">
        <ele>173</ele>
        <time>2021-05-20T11:03:22.566Z</time>
      </trkpt>
      <trkpt lat="48.71499" lon="2.05342">
        <ele>173</ele>
        <time>2021-05-20T11:03:23.566Z</time>
      </trkpt>
      <trkpt lat="48.71501" lon="2.05342">
        <ele>173</ele>
        <time>2021-05-20T11:03:24.566Z</time>
      </trkpt>
      <trkpt lat="48.71502" lon="2.05342">
        <ele>173</ele>
        <time>2021-05-20T11:03:25.566Z</time>
      </trkpt>
      <trkpt lat="48.71504" lon="2.05342">
        <ele>173</ele>
        <time>2021-05-20T11:03:26.566Z</time>
      </trkpt>
      <trkpt lat="48.71505" lon="2.05342">
        <ele>173</ele>
        <time>2021-05-20T11:03:27.566Z</time>
      </trkpt>
      <trkpt lat="48.71507" lon="2.05342">
        <ele>173</ele>
        <time>2021-05-20T11:03:28.566Z</time>
      </trkpt>
      <trkpt lat="48.71508" lon="2.05342">
        <ele>173</ele>
        <time>2021-05-20T11:03:29.566Z</time>
      </trkpt>
      <trkpt lat="48.71509" lon="2.05342">
        <ele>173</ele>
        <time>2021-05-20T11:03:30.566Z</time>
      </trkpt>
      <trkpt lat="48.7151" lon="2.05342">
        <ele>173</ele>
        <time>2021-05-20T11:03:31.566Z</time>
      </trkpt>
      <trkpt lat="48.71512" lon="2.05342">
        <ele>172</ele>
        <time>2021-05-20T11:03:32.566Z</time>
      </trkpt>
      <trkpt lat="48.71513" lon="2.05342">
        <ele>172</ele>
        <time>2021-05-20T11:03:33.566Z</time>
      </trkpt>
      <trkpt lat="48.71514" lon="2.05342">
        <ele>172</ele>
        <time>2021-05-20T11:03:34.566Z</time>
      </trkpt>
      <trkpt lat="48.71515" lon="2.05342">
        <ele>172</ele>
        <time>2021-05-20T11:03:35.566Z</time>
      </trkpt>
      <trkpt lat="48.71516" lon="2.05342">
        <ele>172</ele>
        <time>2021-05-20T11:03:36.566Z</time>
      </trkpt>
      <trkpt lat="48.71517" lon="2.05342">
        <ele>172</ele>
        <time>2021-05-20T11:03:37.566Z</time>
      </trkpt>
      <trkpt lat="48.71519" lon="2.05342">
        <ele>171</ele>
        <time>2021-05-20T11:03:38.566Z</time>
      </trkpt>
      <trkpt lat="48.7152" lon="2.05342">
        <ele>171</ele>
        <time>2021-05-20T11:03:39.566Z</time>
      </trkpt>
      <trkpt lat="48.71521" lon="2.05342">
        <ele>171</ele>
        <time>2021-05-20T11:03:40.566Z</time>
      </trkpt>
      <trkpt lat="48.71523" lon="2.05342">
        <ele>171</ele>
        <time>2021-05-20T11:03:41.566Z</time>
      </trkpt>
      <trkpt lat="48.71524" lon="2.05342">
        <ele>171</ele>
        <time>2021-05-20T11:03:42.566Z</time>
      </trkpt>
      <trkpt lat="48.71525" lon="2.05342">
        <ele>171</ele>
        <time>2021-05-20T11:03:43.566Z</time>
      </trkpt>
      <trkpt lat="48.71526" lon="2.05342">
        <ele>170</ele>
        <time>2021-05-20T11:03:44.566Z</time>
      </trkpt>
      <trkpt lat="48.71528" lon="2.05342">
        <ele>170</ele>
        <time>2021-05-20T11:03:45.566Z</time>
      </trkpt>
      <trkpt lat="48.71529" lon="2.05342">
        <ele>170</ele>
        <time>2021-05-20T11:03:46.566Z</time>
      </trkpt>
      <trkpt lat="48.7153" lon="2.05342">
        <ele>170</ele>
        <time>2021-05-20T11:03:47.566Z</time>
      </trkpt>
      <trkpt lat="48.71531" lon="2.05342">
        <ele>170</ele>
        <time>2021-05-20T11:03:48.566Z</time>
      </trkpt>
      <trkpt lat="48.71532" lon="2.05342">
        <ele>169</ele>
        <time>2021-05-20T11:03:49.566Z</time>
      </trkpt>
      <trkpt lat="48.71533" lon="2.05343">
        <ele>169</ele>
        <time>2021-05-20T11:03:50.566Z</time>
      </trkpt>
      <trkpt lat="48.71534" lon="2.05343">
        <ele>169</ele>
        <time>2021-05-20T11:03:51.566Z</time>
      </trkpt>
      <trkpt lat="48.71535" lon="2.05342">
        <ele>169</ele>
        <time>2021-05-20T11:03:52.566Z</time>
      </trkpt>
      <trkpt lat="48.71537" lon="2.05342">
        <ele>169</ele>
        <time>2021-05-20T11:03:53.566Z</time>
      </trkpt>
      <trkpt lat="48.71538" lon="2.05341">
        <ele>168</ele>
        <time>2021-05-20T11:03:54.566Z</time>
      </trkpt>
      <trkpt lat="48.7154" lon="2.05341">
        <ele>168</ele>
        <time>2021-05-20T11:03:55.566Z</time>
      </trkpt>
      <trkpt lat="48.71541" lon="2.05341">
        <ele>168</ele>
        <time>2021-05-20T11:03:56.566Z</time>
      </trkpt>
      <trkpt lat="48.71542" lon="2.05341">
        <ele>168</ele>
        <time>2021-05-20T11:03:57.566Z</time>
      </trkpt>
      <trkpt lat="48.71544" lon="2.0534">
        <ele>167</ele>
        <time>2021-05-20T11:03:58.566Z</time>
      </trkpt>
      <trkpt lat="48.71545" lon="2.0534">
        <ele>167</ele>
        <time>2021-05-20T11:03:59.566Z</time>
      </trkpt>
      <trkpt lat="48.71547" lon="2.0534">
        <ele>167</ele>
        <time>2021-05-20T11:04:00.566Z</time>
      </trkpt>
      <trkpt lat="48.71548" lon="2.05339">
        <ele>167</ele>
        <time>2021-05-20T11:04:01.566Z</time>
      </trkpt>
      <trkpt lat="48.71549" lon="2.05339">
        <ele>167</ele>
        <time>2021-05-20T11:04:02.566Z</time>
      </trkpt>
      <trkpt lat="48.7155" lon="2.05338">
        <ele>167</ele>
        <time>2021-05-20T11:04:03.566Z</time>
      </trkpt>
      <trkpt lat="48.71552" lon="2.05338">
        <ele>167</ele>
        <time>2021-05-20T11:04:04.566Z</time>
      </trkpt>
      <trkpt lat="48.71553" lon="2.05338">
        <ele>167</ele>
        <time>2021-05-20T11:04:05.566Z</time>
      </trkpt>
      <trkpt lat="48.71554" lon="2.05337">
        <ele>167</ele>
        <time>2021-05-20T11:04:06.566Z</time>
      </trkpt>
      <trkpt lat="48.71556" lon="2.05337">
        <ele>167</ele>
        <time>2021-05-20T11:04:07.566Z</time>
      </trkpt>
      <trkpt lat="48.71557" lon="2.05336">
        <ele>167</ele>
        <time>2021-05-20T11:04:08.566Z</time>
      </trkpt>
      <trkpt lat="48.71558" lon="2.05336">
        <ele>167</ele>
        <time>2021-05-20T11:04:09.566Z</time>
      </trkpt>
      <trkpt lat="48.7156" lon="2.05336">
        <ele>167</ele>
        <time>2021-05-20T11:04:10.566Z</time>
      </trkpt>
      <trkpt lat="48.71561" lon="2.05335">
        <ele>167</ele>
        <time>2021-05-20T11:04:11.566Z</time>
      </trkpt>
      <trkpt lat="48.71562" lon="2.05334">
        <ele>168</ele>
        <time>2021-05-20T11:04:12.566Z</time>
      </trkpt>
      <trkpt lat="48.71563" lon="2.05333">
        <ele>168</ele>
        <time>2021-05-20T11:04:13.566Z</time>
      </trkpt>
      <trkpt lat="48.71564" lon="2.05333">
        <ele>168</ele>
        <time>2021-05-20T11:04:14.566Z</time>
      </trkpt>
      <trkpt lat="48.71565" lon="2.05332">
        <ele>168</ele>
        <time>2021-05-20T11:04:15.566Z</time>
      </trkpt>
      <trkpt lat="48.71566" lon="2.05331">
        <ele>168</ele>
        <time>2021-05-20T11:04:16.566Z</time>
      </trkpt>
      <trkpt lat="48.71568" lon="2.05331">
        <ele>168</ele>
        <time>2021-05-20T11:04:17.566Z</time>
      </trkpt>
      <trkpt lat="48.71569" lon="2.05331">
        <ele>169</ele>
        <time>2021-05-20T11:04:18.566Z</time>
      </trkpt>
      <trkpt lat="48.7157" lon="2.0533">
        <ele>169</ele>
        <time>2021-05-20T11:04:19.566Z</time>
      </trkpt>
      <trkpt lat="48.71571" lon="2.05329">
        <ele>169</ele>
        <time>2021-05-20T11:04:20.566Z</time>
      </trkpt>
      <trkpt lat="48.71572" lon="2.05329">
        <ele>169</ele>
        <time>2021-05-20T11:04:21.566Z</time>
      </trkpt>
      <trkpt lat="48.71573" lon="2.05328">
        <ele>169</ele>
        <time>2021-05-20T11:04:22.566Z</time>
      </trkpt>
      <trkpt lat="48.71574" lon="2.05327">
        <ele>169</ele>
        <time>2021-05-20T11:04:23.566Z</time>
      </trkpt>
      <trkpt lat="48.71575" lon="2.05326">
        <ele>169</ele>
        <time>2021-05-20T11:04:24.566Z</time>
      </trkpt>
      <trkpt lat="48.71576" lon="2.05325">
        <ele>169</ele>
        <time>2021-05-20T11:04:25.566Z</time>
      </trkpt>
      <trkpt lat="48.71577" lon="2.05325">
        <ele>169</ele>
        <time>2021-05-20T11:04:26.566Z</time>
      </trkpt>
      <trkpt lat="48.71579" lon="2.05324">
        <ele>169</ele>
        <time>2021-05-20T11:04:27.566Z</time>
      </trkpt>
      <trkpt lat="48.7158" lon="2.05323">
        <ele>169</ele>
        <time>2021-05-20T11:04:28.566Z</time>
      </trkpt>
      <trkpt lat="48.71582" lon="2.05322">
        <ele>169</ele>
        <time>2021-05-20T11:04:29.566Z</time>
      </trkpt>
      <trkpt lat="48.71583" lon="2.05321">
        <ele>169</ele>
        <time>2021-05-20T11:04:30.566Z</time>
      </trkpt>
      <trkpt lat="48.71585" lon="2.05319">
        <ele>170</ele>
        <time>2021-05-20T11:04:31.566Z</time>
      </trkpt>
      <trkpt lat="48.71587" lon="2.05318">
        <ele>170</ele>
        <time>2021-05-20T11:04:32.566Z</time>
      </trkpt>
      <trkpt lat="48.71588" lon="2.05317">
        <ele>170</ele>
        <time>2021-05-20T11:04:33.566Z</time>
      </trkpt>
      <trkpt lat="48.7159" lon="2.05316">
        <ele>170</ele>
        <time>2021-05-20T11:04:34.566Z</time>
      </trkpt>
      <trkpt lat="48.71591" lon="2.05315">
        <ele>170</ele>
        <time>2021-05-20T11:04:35.566Z</time>
      </trkpt>
      <trkpt lat="48.71593" lon="2.05314">
        <ele>170</ele>
        <time>2021-05-20T11:04:36.566Z</time>
      </trkpt>
      <trkpt lat="48.71594" lon="2.05314">
        <ele>170</ele>
        <time>2021-05-20T11:04:37.566Z</time>
      </trkpt>
      <trkpt lat="48.71595" lon="2.05313">
        <ele>170</ele>
        <time>2021-05-20T11:04:38.566Z</time>
      </trkpt>
      <trkpt lat="48.71596" lon="2.05312">
        <ele>170</ele>
        <time>2021-05-20T11:04:39.566Z</time>
      </trkpt>
      <trkpt lat="48.71597" lon="2.05311">
        <ele>170</ele>
        <time>2021-05-20T11:04:40.566Z</time>
      </trkpt>
      <trkpt lat="48.71598" lon="2.0531">
        <ele>170</ele>
        <time>2021-05-20T11:04:41.566Z</time>
      </trkpt>
      <trkpt lat="48.71599" lon="2.05309">
        <ele>170</ele>
        <time>2021-05-20T11:04:42.566Z</time>
      </trkpt>
      <trkpt lat="48.716" lon="2.05308">
        <ele>170</ele>
        <time>2021-05-20T11:04:43.566Z</time>
      </trkpt>
      <trkpt lat="48.71601" lon="2.05307">
        <ele>169</ele>
        <time>2021-05-20T11:04:44.566Z</time>
      </trkpt>
      <trkpt lat="48.71602" lon="2.05307">
        <ele>169</ele>
        <time>2021-05-20T11:04:45.566Z</time>
      </trkpt>
      <trkpt lat="48.71603" lon="2.05306">
        <ele>169</ele>
        <time>2021-05-20T11:04:46.566Z</time>
      </trkpt>
      <trkpt lat="48.71604" lon="2.05305">
        <ele>169</ele>
        <time>2021-05-20T11:04:47.566Z</time>
      </trkpt>
      <trkpt lat="48.71606" lon="2.05304">
        <ele>169</ele>
        <time>2021-05-20T11:04:48.566Z</time>
      </trkpt>
      <trkpt lat="48.71607" lon="2.05303">
        <ele>169</ele>
        <time>2021-05-20T11:04:49.566Z</time>
      </trkpt>
      <trkpt lat="48.71608" lon="2.05301">
        <ele>169</ele>
        <time>2021-05-20T11:04:50.566Z</time>
      </trkpt>
      <trkpt lat="48.7161" lon="2.053">
        <ele>169</ele>
        <time>2021-05-20T11:04:51.566Z</time>
      </trkpt>
      <trkpt lat="48.71611" lon="2.053">
        <ele>169</ele>
        <time>2021-05-20T11:04:52.566Z</time>
      </trkpt>
      <trkpt lat="48.71612" lon="2.05299">
        <ele>169</ele>
        <time>2021-05-20T11:04:53.566Z</time>
      </trkpt>
      <trkpt lat="48.71613" lon="2.05298">
        <ele>169</ele>
        <time>2021-05-20T11:04:54.566Z</time>
      </trkpt>
      <trkpt lat="48.71614" lon="2.05297">
        <ele>170</ele>
        <time>2021-05-20T11:04:55.566Z</time>
      </trkpt>
      <trkpt lat="48.71616" lon="2.05296">
        <ele>170</ele>
        <time>2021-05-20T11:04:56.566Z</time>
      </trkpt>
      <trkpt lat="48.71617" lon="2.05295">
        <ele>170</ele>
        <time>2021-05-20T11:04:57.566Z</time>
      </trkpt>
      <trkpt lat="48.71618" lon="2.05294">
        <ele>170</ele>
        <time>2021-05-20T11:04:58.566Z</time>
      </trkpt>
      <trkpt lat="48.71619" lon="2.05293">
        <ele>170</ele>
        <time>2021-05-20T11:04:59.566Z</time>
      </trkpt>
      <trkpt lat="48.71621" lon="2.05292">
        <ele>170</ele>
        <time>2021-05-20T11:05:00.566Z</time>
      </trkpt>
      <trkpt lat="48.71622" lon="2.05291">
        <ele>170</ele>
        <time>2021-05-20T11:05:01.566Z</time>
      </trkpt>
      <trkpt lat="48.71623" lon="2.0529">
        <ele>170</ele>
        <time>2021-05-20T11:05:02.566Z</time>
      </trkpt>
      <trkpt lat="48.71625" lon="2.05289">
        <ele>170</ele>
        <time>2021-05-20T11:05:03.566Z</time>
      </trkpt>
      <trkpt lat="48.71626" lon="2.05287">
        <ele>170</ele>
        <time>2021-05-20T11:05:04.566Z</time>
      </trkpt>
      <trkpt lat="48.71627" lon="2.05286">
        <ele>170</ele>
        <time>2021-05-20T11:05:05.566Z</time>
      </trkpt>
      <trkpt lat="48.71629" lon="2.05285">
        <ele>170</ele>
        <time>2021-05-20T11:05:06.566Z</time>
      </trkpt>
      <trkpt lat="48.7163" lon="2.05284">
        <ele>170</ele>
        <time>2021-05-20T11:05:07.566Z</time>
      </trkpt>
      <trkpt lat="48.71631" lon="2.05283">
        <ele>170</ele>
        <time>2021-05-20T11:05:08.566Z</time>
      </trkpt>
      <trkpt lat="48.71632" lon="2.05282">
        <ele>171</ele>
        <time>2021-05-20T11:05:09.566Z</time>
      </trkpt>
      <trkpt lat="48.71633" lon="2.05281">
        <ele>171</ele>
        <time>2021-05-20T11:05:10.566Z</time>
      </trkpt>
      <trkpt lat="48.71634" lon="2.0528">
        <ele>171</ele>
        <time>2021-05-20T11:05:11.566Z</time>
      </trkpt>
      <trkpt lat="48.71636" lon="2.05279">
        <ele>171</ele>
        <time>2021-05-20T11:05:12.566Z</time>
      </trkpt>
      <trkpt lat="48.71637" lon="2.05278">
        <ele>171</ele>
        <time>2021-05-20T11:05:13.566Z</time>
      </trkpt>
      <trkpt lat="48.71638" lon="2.05277">
        <ele>171</ele>
        <time>2021-05-20T11:05:14.566Z</time>
      </trkpt>
      <trkpt lat="48.71639" lon="2.05276">
        <ele>171</ele>
        <time>2021-05-20T11:05:15.566Z</time>
      </trkpt>
      <trkpt lat="48.7164" lon="2.05275">
        <ele>171</ele>
        <time>2021-05-20T11:05:16.566Z</time>
      </trkpt>
      <trkpt lat="48.71641" lon="2.05274">
        <ele>171</ele>
        <time>2021-05-20T11:05:17.566Z</time>
      </trkpt>
      <trkpt lat="48.71643" lon="2.05273">
        <ele>171</ele>
        <time>2021-05-20T11:05:18.566Z</time>
      </trkpt>
      <trkpt lat="48.71644" lon="2.05273">
        <ele>171</ele>
        <time>2021-05-20T11:05:19.566Z</time>
      </trkpt>
      <trkpt lat="48.71645" lon="2.05273">
        <ele>171</ele>
        <time>2021-05-20T11:05:20.566Z</time>
      </trkpt>
      <trkpt lat="48.71647" lon="2.05272">
        <ele>171</ele>
        <time>2021-05-20T11:05:21.566Z</time>
      </trkpt>
      <trkpt lat="48.71648" lon="2.05271">
        <ele>171</ele>
        <time>2021-05-20T11:05:22.566Z</time>
      </trkpt>
      <trkpt lat="48.71649" lon="2.05271">
        <ele>171</ele>
        <time>2021-05-20T11:05:23.566Z</time>
      </trkpt>
      <trkpt lat="48.71651" lon="2.0527">
        <ele>171</ele>
        <time>2021-05-20T11:05:24.566Z</time>
      </trkpt>
      <trkpt lat="48.71652" lon="2.0527">
        <ele>171</ele>
        <time>2021-05-20T11:05:25.566Z</time>
      </trkpt>
      <trkpt lat="48.71653" lon="2.05269">
        <ele>171</ele>
        <time>2021-05-20T11:05:26.566Z</time>
      </trkpt>
      <trkpt lat="48.71654" lon="2.05268">
        <ele>171</ele>
        <time>2021-05-20T11:05:27.566Z</time>
      </trkpt>
      <trkpt lat="48.71655" lon="2.05267">
        <ele>171</ele>
        <time>2021-05-20T11:05:28.566Z</time>
      </trkpt>
      <trkpt lat="48.71656" lon="2.05267">
        <ele>171</ele>
        <time>2021-05-20T11:05:29.566Z</time>
      </trkpt>
      <trkpt lat="48.71657" lon="2.05266">
        <ele>171</ele>
        <time>2021-05-20T11:05:30.566Z</time>
      </trkpt>
      <trkpt lat="48.71658" lon="2.05265">
        <ele>171</ele>
        <time>2021-05-20T11:05:31.566Z</time>
      </trkpt>
      <trkpt lat="48.7166" lon="2.05264">
        <ele>171</ele>
        <time>2021-05-20T11:05:32.566Z</time>
      </trkpt>
      <trkpt lat="48.71661" lon="2.05263">
        <ele>171</ele>
        <time>2021-05-20T11:05:33.566Z</time>
      </trkpt>
      <trkpt lat="48.71662" lon="2.05262">
        <ele>171</ele>
        <time>2021-05-20T11:05:34.566Z</time>
      </trkpt>
      <trkpt lat="48.71664" lon="2.05261">
        <ele>171</ele>
        <time>2021-05-20T11:05:35.566Z</time>
      </trkpt>
      <trkpt lat="48.71665" lon="2.05261">
        <ele>171</ele>
        <time>2021-05-20T11:05:36.566Z</time>
      </trkpt>
      <trkpt lat="48.71666" lon="2.0526">
        <ele>171</ele>
        <time>2021-05-20T11:05:37.566Z</time>
      </trkpt>
      <trkpt lat="48.71667" lon="2.05259">
        <ele>171</ele>
        <time>2021-05-20T11:05:38.566Z</time>
      </trkpt>
      <trkpt lat="48.71669" lon="2.05258">
        <ele>171</ele>
        <time>2021-05-20T11:05:39.566Z</time>
      </trkpt>
      <trkpt lat="48.7167" lon="2.05257">
        <ele>171</ele>
        <time>2021-05-20T11:05:40.566Z</time>
      </trkpt>
      <trkpt lat="48.71671" lon="2.05257">
        <ele>171</ele>
        <time>2021-05-20T11:05:41.566Z</time>
      </trkpt>
      <trkpt lat="48.71672" lon="2.05257">
        <ele>171</ele>
        <time>2021-05-20T11:05:42.566Z</time>
      </trkpt>
      <trkpt lat="48.71673" lon="2.05257">
        <ele>171</ele>
        <time>2021-05-20T11:05:43.566Z</time>
      </trkpt>
      <trkpt lat="48.71674" lon="2.05257">
        <ele>171</ele>
        <time>2021-05-20T11:05:44.566Z</time>
      </trkpt>
      <trkpt lat="48.71675" lon="2.05257">
        <ele>171</ele>
        <time>2021-05-20T11:05:45.566Z</time>
      </trkpt>
      <trkpt lat="48.71677" lon="2.05256">
        <ele>171</ele>
        <time>2021-05-20T11:05:46.566Z</time>
      </trkpt>
      <trkpt lat="48.71678" lon="2.05256">
        <ele>171</ele>
        <time>2021-05-20T11:05:47.566Z</time>
      </trkpt>
      <trkpt lat="48.71679" lon="2.05256">
        <ele>171</ele>
        <time>2021-05-20T11:05:48.566Z</time>
      </trkpt>
      <trkpt lat="48.71681" lon="2.05256">
        <ele>171</ele>
        <time>2021-05-20T11:05:49.566Z</time>
      </trkpt>
      <trkpt lat="48.71682" lon="2.05256">
        <ele>171</ele>
        <time>2021-05-20T11:05:50.566Z</time>
      </trkpt>
      <trkpt lat="48.71684" lon="2.05256">
        <ele>171</ele>
        <time>2021-05-20T11:05:51.566Z</time>
      </trkpt>
      <trkpt lat="48.71685" lon="2.05256">
        <ele>171</ele>
        <time>2021-05-20T11:05:52.566Z</time>
      </trkpt>
      <trkpt lat="48.71687" lon="2.05256">
        <ele>170</ele>
        <time>2021-05-20T11:05:53.566Z</time>
      </trkpt>
      <trkpt lat="48.71688" lon="2.05256">
        <ele>170</ele>
        <time>2021-05-20T11:05:54.566Z</time>
      </trkpt>
      <trkpt lat="48.71689" lon="2.05256">
        <ele>170</ele>
        <time>2021-05-20T11:05:55.566Z</time>
      </trkpt>
      <trkpt lat="48.7169" lon="2.05257">
        <ele>170</ele>
        <time>2021-05-20T11:05:56.566Z</time>
      </trkpt>
      <trkpt lat="48.71692" lon="2.05257">
        <ele>170</ele>
        <time>2021-05-20T11:05:57.566Z</time>
      </trkpt>
      <trkpt lat="48.71693" lon="2.05258">
        <ele>170</ele>
        <time>2021-05-20T11:05:58.566Z</time>
      </trkpt>
      <trkpt lat="48.71694" lon="2.05258">
        <ele>170</ele>
        <time>2021-05-20T11:05:59.566Z</time>
      </trkpt>
      <trkpt lat="48.71695" lon="2.05258">
        <ele>170</ele>
        <time>2021-05-20T11:06:00.566Z</time>
      </trkpt>
      <trkpt lat="48.71697" lon="2.05258">
        <ele>170</ele>
        <time>2021-05-20T11:06:01.566Z</time>
      </trkpt>
      <trkpt lat="48.71698" lon="2.05258">
        <ele>170</ele>
        <time>2021-05-20T11:06:02.566Z</time>
      </trkpt>
      <trkpt lat="48.71699" lon="2.05259">
        <ele>170</ele>
        <time>2021-05-20T11:06:03.566Z</time>
      </trkpt>
      <trkpt lat="48.717" lon="2.05259">
        <ele>170</ele>
        <time>2021-05-20T11:06:04.566Z</time>
      </trkpt>
      <trkpt lat="48.71701" lon="2.05259">
        <ele>170</ele>
        <time>2021-05-20T11:06:05.566Z</time>
      </trkpt>
      <trkpt lat="48.71703" lon="2.05259">
        <ele>170</ele>
        <time>2021-05-20T11:06:06.566Z</time>
      </trkpt>
      <trkpt lat="48.71704" lon="2.05259">
        <ele>169</ele>
        <time>2021-05-20T11:06:07.566Z</time>
      </trkpt>
      <trkpt lat="48.71706" lon="2.05259">
        <ele>169</ele>
        <time>2021-05-20T11:06:08.566Z</time>
      </trkpt>
      <trkpt lat="48.71707" lon="2.05259">
        <ele>168</ele>
        <time>2021-05-20T11:06:09.566Z</time>
      </trkpt>
      <trkpt lat="48.71709" lon="2.05259">
        <ele>168</ele>
        <time>2021-05-20T11:06:10.566Z</time>
      </trkpt>
      <trkpt lat="48.71711" lon="2.05259">
        <ele>167</ele>
        <time>2021-05-20T11:06:11.566Z</time>
      </trkpt>
      <trkpt lat="48.71712" lon="2.05259">
        <ele>166</ele>
        <time>2021-05-20T11:06:12.566Z</time>
      </trkpt>
      <trkpt lat="48.71714" lon="2.05259">
        <ele>166</ele>
        <time>2021-05-20T11:06:13.566Z</time>
      </trkpt>
      <trkpt lat="48.71716" lon="2.05258">
        <ele>165</ele>
        <time>2021-05-20T11:06:14.566Z</time>
      </trkpt>
      <trkpt lat="48.71718" lon="2.05258">
        <ele>165</ele>
        <time>2021-05-20T11:06:15.566Z</time>
      </trkpt>
      <trkpt lat="48.71719" lon="2.05258">
        <ele>165</ele>
        <time>2021-05-20T11:06:16.566Z</time>
      </trkpt>
      <trkpt lat="48.71721" lon="2.05257">
        <ele>164</ele>
        <time>2021-05-20T11:06:17.566Z</time>
      </trkpt>
      <trkpt lat="48.71722" lon="2.05257">
        <ele>164</ele>
        <time>2021-05-20T11:06:18.566Z</time>
      </trkpt>
      <trkpt lat="48.71724" lon="2.05257">
        <ele>164</ele>
        <time>2021-05-20T11:06:19.566Z</time>
      </trkpt>
      <trkpt lat="48.71725" lon="2.05257">
        <ele>163</ele>
        <time>2021-05-20T11:06:20.566Z</time>
      </trkpt>
      <trkpt lat="48.71727" lon="2.05256">
        <ele>163</ele>
        <time>2021-05-20T11:06:21.566Z</time>
      </trkpt>
      <trkpt lat="48.71728" lon="2.05256">
        <ele>163</ele>
        <time>2021-05-20T11:06:22.566Z</time>
      </trkpt>
      <trkpt lat="48.7173" lon="2.05256">
        <ele>163</ele>
        <time>2021-05-20T11:06:23.566Z</time>
      </trkpt>
      <trkpt lat="48.71731" lon="2.05255">
        <ele>163</ele>
        <time>2021-05-20T11:06:24.566Z</time>
      </trkpt>
      <trkpt lat="48.71733" lon="2.05255">
        <ele>163</ele>
        <time>2021-05-20T11:06:25.566Z</time>
      </trkpt>
      <trkpt lat="48.71734" lon="2.05255">
        <ele>162</ele>
        <time>2021-05-20T11:06:26.566Z</time>
      </trkpt>
      <trkpt lat="48.71735" lon="2.05254">
        <ele>162</ele>
        <time>2021-05-20T11:06:27.566Z</time>
      </trkpt>
      <trkpt lat="48.71737" lon="2.05254">
        <ele>162</ele>
        <time>2021-05-20T11:06:28.566Z</time>
      </trkpt>
      <trkpt lat="48.71738" lon="2.05253">
        <ele>162</ele>
        <time>2021-05-20T11:06:29.566Z</time>
      </trkpt>
      <trkpt lat="48.71739" lon="2.05253">
        <ele>162</ele>
        <time>2021-05-20T11:06:30.566Z</time>
      </trkpt>
      <trkpt lat="48.7174" lon="2.05252">
        <ele>162</ele>
        <time>2021-05-20T11:06:31.566Z</time>
      </trkpt>
      <trkpt lat="48.71741" lon="2.05252">
        <ele>162</ele>
        <time>2021-05-20T11:06:32.566Z</time>
      </trkpt>
      <trkpt lat="48.71742" lon="2.05251">
        <ele>162</ele>
        <time>2021-05-20T11:06:33.566Z</time>
      </trkpt>
      <trkpt lat="48.71744" lon="2.05251">
        <ele>162</ele>
        <time>2021-05-20T11:06:34.566Z</time>
      </trkpt>
      <trkpt lat="48.71744" lon="2.05251">
        <ele>162</ele>
        <time>2021-05-20T11:06:35.566Z</time>
      </trkpt>
      <trkpt lat="48.71745" lon="2.0525">
        <ele>162</ele>
        <time>2021-05-20T11:06:36.566Z</time>
      </trkpt>
      <trkpt lat="48.71746" lon="2.0525">
        <ele>162</ele>
        <time>2021-05-20T11:06:37.566Z</time>
      </trkpt>
      <trkpt lat="48.71747" lon="2.05249">
        <ele>162</ele>
        <time>2021-05-20T11:06:38.566Z</time>
      </trkpt>
      <trkpt lat="48.71748" lon="2.05249">
        <ele>162</ele>
        <time>2021-05-20T11:06:39.566Z</time>
      </trkpt>
      <trkpt lat="48.71749" lon="2.05249">
        <ele>162</ele>
        <time>2021-05-20T11:06:40.566Z</time>
      </trkpt>
      <trkpt lat="48.7175" lon="2.05248">
        <ele>162</ele>
        <time>2021-05-20T11:06:41.566Z</time>
      </trkpt>
      <trkpt lat="48.71752" lon="2.05247">
        <ele>162</ele>
        <time>2021-05-20T11:06:42.566Z</time>
      </trkpt>
      <trkpt lat="48.71753" lon="2.05247">
        <ele>162</ele>
        <time>2021-05-20T11:06:43.566Z</time>
      </trkpt>
      <trkpt lat="48.71754" lon="2.05247">
        <ele>162</ele>
        <time>2021-05-20T11:06:44.566Z</time>
      </trkpt>
      <trkpt lat="48.71755" lon="2.05246">
        <ele>162</ele>
        <time>2021-05-20T11:06:45.566Z</time>
      </trkpt>
      <trkpt lat="48.71756" lon="2.05246">
        <ele>162</ele>
        <time>2021-05-20T11:06:46.566Z</time>
      </trkpt>
      <trkpt lat="48.71757" lon="2.05245">
        <ele>162</ele>
        <time>2021-05-20T11:06:47.566Z</time>
      </trkpt>
      <trkpt lat="48.71758" lon="2.05245">
        <ele>162</ele>
        <time>2021-05-20T11:06:48.566Z</time>
      </trkpt>
      <trkpt lat="48.71759" lon="2.05245">
        <ele>162</ele>
        <time>2021-05-20T11:06:49.566Z</time>
      </trkpt>
      <trkpt lat="48.7176" lon="2.05245">
        <ele>162</ele>
        <time>2021-05-20T11:06:50.566Z</time>
      </trkpt>
      <trkpt lat="48.71761" lon="2.05245">
        <ele>163</ele>
        <time>2021-05-20T11:06:51.566Z</time>
      </trkpt>
      <trkpt lat="48.71762" lon="2.05245">
        <ele>163</ele>
        <time>2021-05-20T11:06:52.566Z</time>
      </trkpt>
      <trkpt lat="48.71763" lon="2.05244">
        <ele>163</ele>
        <time>2021-05-20T11:06:53.566Z</time>
      </trkpt>
      <trkpt lat="48.71765" lon="2.05244">
        <ele>163</ele>
        <time>2021-05-20T11:06:54.566Z</time>
      </trkpt>
      <trkpt lat="48.71766" lon="2.05243">
        <ele>163</ele>
        <time>2021-05-20T11:06:55.566Z</time>
      </trkpt>
      <trkpt lat="48.71767" lon="2.05243">
        <ele>163</ele>
        <time>2021-05-20T11:06:56.566Z</time>
      </trkpt>
      <trkpt lat="48.71768" lon="2.05243">
        <ele>164</ele>
        <time>2021-05-20T11:06:57.566Z</time>
      </trkpt>
      <trkpt lat="48.71769" lon="2.05242">
        <ele>164</ele>
        <time>2021-05-20T11:06:58.566Z</time>
      </trkpt>
      <trkpt lat="48.7177" lon="2.05242">
        <ele>164</ele>
        <time>2021-05-20T11:06:59.566Z</time>
      </trkpt>
      <trkpt lat="48.71771" lon="2.05242">
        <ele>164</ele>
        <time>2021-05-20T11:07:00.566Z</time>
      </trkpt>
      <trkpt lat="48.71772" lon="2.05242">
        <ele>165</ele>
        <time>2021-05-20T11:07:01.566Z</time>
      </trkpt>
      <trkpt lat="48.71773" lon="2.05242">
        <ele>165</ele>
        <time>2021-05-20T11:07:02.566Z</time>
      </trkpt>
      <trkpt lat="48.71774" lon="2.05242">
        <ele>165</ele>
        <time>2021-05-20T11:07:03.566Z</time>
      </trkpt>
      <trkpt lat="48.71776" lon="2.05242">
        <ele>165</ele>
        <time>2021-05-20T11:07:04.566Z</time>
      </trkpt>
      <trkpt lat="48.71777" lon="2.05241">
        <ele>165</ele>
        <time>2021-05-20T11:07:05.566Z</time>
      </trkpt>
      <trkpt lat="48.71778" lon="2.05241">
        <ele>166</ele>
        <time>2021-05-20T11:07:06.566Z</time>
      </trkpt>
      <trkpt lat="48.71779" lon="2.05241">
        <ele>166</ele>
        <time>2021-05-20T11:07:07.566Z</time>
      </trkpt>
      <trkpt lat="48.71781" lon="2.0524">
        <ele>166</ele>
        <time>2021-05-20T11:07:08.566Z</time>
      </trkpt>
      <trkpt lat="48.71782" lon="2.0524">
        <ele>166</ele>
        <time>2021-05-20T11:07:09.566Z</time>
      </trkpt>
      <trkpt lat="48.71783" lon="2.0524">
        <ele>166</ele>
        <time>2021-05-20T11:07:10.566Z</time>
      </trkpt>
      <trkpt lat="48.71784" lon="2.0524">
        <ele>166</ele>
        <time>2021-05-20T11:07:11.566Z</time>
      </trkpt>
      <trkpt lat="48.71785" lon="2.05239">
        <ele>166</ele>
        <time>2021-05-20T11:07:12.566Z</time>
      </trkpt>
      <trkpt lat="48.71786" lon="2.05239">
        <ele>166</ele>
        <time>2021-05-20T11:07:13.566Z</time>
      </trkpt>
      <trkpt lat="48.71788" lon="2.05239">
        <ele>166</ele>
        <time>2021-05-20T11:07:14.566Z</time>
      </trkpt>
      <trkpt lat="48.71789" lon="2.05238">
        <ele>166</ele>
        <time>2021-05-20T11:07:15.566Z</time>
      </trkpt>
      <trkpt lat="48.7179" lon="2.05238">
        <ele>166</ele>
        <time>2021-05-20T11:07:16.566Z</time>
      </trkpt>
      <trkpt lat="48.71792" lon="2.05238">
        <ele>166</ele>
        <time>2021-05-20T11:07:17.566Z</time>
      </trkpt>
      <trkpt lat="48.71793" lon="2.05238">
        <ele>166</ele>
        <time>2021-05-20T11:07:18.566Z</time>
      </trkpt>
      <trkpt lat="48.71794" lon="2.05237">
        <ele>166</ele>
        <time>2021-05-20T11:07:19.566Z</time>
      </trkpt>
      <trkpt lat="48.71796" lon="2.05237">
        <ele>166</ele>
        <time>2021-05-20T11:07:20.566Z</time>
      </trkpt>
      <trkpt lat="48.71797" lon="2.05237">
        <ele>166</ele>
        <time>2021-05-20T11:07:21.566Z</time>
      </trkpt>
      <trkpt lat="48.71798" lon="2.05237">
        <ele>166</ele>
        <time>2021-05-20T11:07:22.566Z</time>
      </trkpt>
      <trkpt lat="48.71799" lon="2.05237">
        <ele>167</ele>
        <time>2021-05-20T11:07:23.566Z</time>
      </trkpt>
      <trkpt lat="48.718" lon="2.05237">
        <ele>167</ele>
        <time>2021-05-20T11:07:24.566Z</time>
      </trkpt>
      <trkpt lat="48.71801" lon="2.05236">
        <ele>167</ele>
        <time>2021-05-20T11:07:25.566Z</time>
      </trkpt>
      <trkpt lat="48.71802" lon="2.05236">
        <ele>167</ele>
        <time>2021-05-20T11:07:26.566Z</time>
      </trkpt>
      <trkpt lat="48.71804" lon="2.05235">
        <ele>168</ele>
        <time>2021-05-20T11:07:27.566Z</time>
      </trkpt>
      <trkpt lat="48.71805" lon="2.05235">
        <ele>168</ele>
        <time>2021-05-20T11:07:28.566Z</time>
      </trkpt>
      <trkpt lat="48.71806" lon="2.05235">
        <ele>168</ele>
        <time>2021-05-20T11:07:29.566Z</time>
      </trkpt>
      <trkpt lat="48.71808" lon="2.05235">
        <ele>168</ele>
        <time>2021-05-20T11:07:30.566Z</time>
      </trkpt>
      <trkpt lat="48.71809" lon="2.05235">
        <ele>168</ele>
        <time>2021-05-20T11:07:31.566Z</time>
      </trkpt>
      <trkpt lat="48.7181" lon="2.05234">
        <ele>168</ele>
        <time>2021-05-20T11:07:32.566Z</time>
      </trkpt>
      <trkpt lat="48.71811" lon="2.05234">
        <ele>168</ele>
        <time>2021-05-20T11:07:33.566Z</time>
      </trkpt>
      <trkpt lat="48.71812" lon="2.05234">
        <ele>168</ele>
        <time>2021-05-20T11:07:34.566Z</time>
      </trkpt>
      <trkpt lat="48.71814" lon="2.05234">
        <ele>168</ele>
        <time>2021-05-20T11:07:35.566Z</time>
      </trkpt>
      <trkpt lat="48.71815" lon="2.05234">
        <ele>168</ele>
        <time>2021-05-20T11:07:36.566Z</time>
      </trkpt>
      <trkpt lat="48.71816" lon="2.05234">
        <ele>168</ele>
        <time>2021-05-20T11:07:37.566Z</time>
      </trkpt>
      <trkpt lat="48.71818" lon="2.05234">
        <ele>168</ele>
        <time>2021-05-20T11:07:38.566Z</time>
      </trkpt>
      <trkpt lat="48.71819" lon="2.05234">
        <ele>167</ele>
        <time>2021-05-20T11:07:39.566Z</time>
      </trkpt>
      <trkpt lat="48.7182" lon="2.05234">
        <ele>167</ele>
        <time>2021-05-20T11:07:40.566Z</time>
      </trkpt>
      <trkpt lat="48.71822" lon="2.05234">
        <ele>167</ele>
        <time>2021-05-20T11:07:41.566Z</time>
      </trkpt>
      <trkpt lat="48.71823" lon="2.05234">
        <ele>167</ele>
        <time>2021-05-20T11:07:42.566Z</time>
      </trkpt>
      <trkpt lat="48.71824" lon="2.05235">
        <ele>167</ele>
        <time>2021-05-20T11:07:43.566Z</time>
      </trkpt>
      <trkpt lat="48.71825" lon="2.05235">
        <ele>167</ele>
        <time>2021-05-20T11:07:44.566Z</time>
      </trkpt>
      <trkpt lat="48.71827" lon="2.05236">
        <ele>167</ele>
        <time>2021-05-20T11:07:45.566Z</time>
      </trkpt>
      <trkpt lat="48.71828" lon="2.05236">
        <ele>167</ele>
        <time>2021-05-20T11:07:46.566Z</time>
      </trkpt>
      <trkpt lat="48.71829" lon="2.05237">
        <ele>167</ele>
        <time>2021-05-20T11:07:47.566Z</time>
      </trkpt>
      <trkpt lat="48.7183" lon="2.05238">
        <ele>167</ele>
        <time>2021-05-20T11:07:48.566Z</time>
      </trkpt>
      <trkpt lat="48.71832" lon="2.05238">
        <ele>167</ele>
        <time>2021-05-20T11:07:49.566Z</time>
      </trkpt>
      <trkpt lat="48.71833" lon="2.05239">
        <ele>166</ele>
        <time>2021-05-20T11:07:50.566Z</time>
      </trkpt>
      <trkpt lat="48.71835" lon="2.05239">
        <ele>166</ele>
        <time>2021-05-20T11:07:51.566Z</time>
      </trkpt>
      <trkpt lat="48.71837" lon="2.0524">
        <ele>165</ele>
        <time>2021-05-20T11:07:52.566Z</time>
      </trkpt>
      <trkpt lat="48.71838" lon="2.0524">
        <ele>165</ele>
        <time>2021-05-20T11:07:53.566Z</time>
      </trkpt>
      <trkpt lat="48.7184" lon="2.05241">
        <ele>165</ele>
        <time>2021-05-20T11:07:54.566Z</time>
      </trkpt>
      <trkpt lat="48.71841" lon="2.05241">
        <ele>164</ele>
        <time>2021-05-20T11:07:55.566Z</time>
      </trkpt>
      <trkpt lat="48.71843" lon="2.05242">
        <ele>164</ele>
        <time>2021-05-20T11:07:56.566Z</time>
      </trkpt>
      <trkpt lat="48.71844" lon="2.05243">
        <ele>164</ele>
        <time>2021-05-20T11:07:57.566Z</time>
      </trkpt>
      <trkpt lat="48.71846" lon="2.05243">
        <ele>163</ele>
        <time>2021-05-20T11:07:58.566Z</time>
      </trkpt>
      <trkpt lat="48.71847" lon="2.05244">
        <ele>163</ele>
        <time>2021-05-20T11:07:59.566Z</time>
      </trkpt>
      <trkpt lat="48.71848" lon="2.05245">
        <ele>163</ele>
        <time>2021-05-20T11:08:00.566Z</time>
      </trkpt>
      <trkpt lat="48.71849" lon="2.05245">
        <ele>163</ele>
        <time>2021-05-20T11:08:01.566Z</time>
      </trkpt>
      <trkpt lat="48.71851" lon="2.05246">
        <ele>162</ele>
        <time>2021-05-20T11:08:02.566Z</time>
      </trkpt>
      <trkpt lat="48.71852" lon="2.05246">
        <ele>162</ele>
        <time>2021-05-20T11:08:03.566Z</time>
      </trkpt>
      <trkpt lat="48.71854" lon="2.05247">
        <ele>162</ele>
        <time>2021-05-20T11:08:04.566Z</time>
      </trkpt>
      <trkpt lat="48.71855" lon="2.05248">
        <ele>161</ele>
        <time>2021-05-20T11:08:05.566Z</time>
      </trkpt>
      <trkpt lat="48.71857" lon="2.05248">
        <ele>161</ele>
        <time>2021-05-20T11:08:06.566Z</time>
      </trkpt>
      <trkpt lat="48.71858" lon="2.05249">
        <ele>161</ele>
        <time>2021-05-20T11:08:07.566Z</time>
      </trkpt>
      <trkpt lat="48.7186" lon="2.05249">
        <ele>161</ele>
        <time>2021-05-20T11:08:08.566Z</time>
      </trkpt>
      <trkpt lat="48.71861" lon="2.0525">
        <ele>161</ele>
        <time>2021-05-20T11:08:09.566Z</time>
      </trkpt>
      <trkpt lat="48.71863" lon="2.0525">
        <ele>161</ele>
        <time>2021-05-20T11:08:10.566Z</time>
      </trkpt>
      <trkpt lat="48.71864" lon="2.0525">
        <ele>161</ele>
        <time>2021-05-20T11:08:11.566Z</time>
      </trkpt>
      <trkpt lat="48.71865" lon="2.05251">
        <ele>161</ele>
        <time>2021-05-20T11:08:12.566Z</time>
      </trkpt>
      <trkpt lat="48.71866" lon="2.05251">
        <ele>160</ele>
        <time>2021-05-20T11:08:13.566Z</time>
      </trkpt>
      <trkpt lat="48.71867" lon="2.05252">
        <ele>160</ele>
        <time>2021-05-20T11:08:14.566Z</time>
      </trkpt>
      <trkpt lat="48.71868" lon="2.05253">
        <ele>160</ele>
        <time>2021-05-20T11:08:15.566Z</time>
      </trkpt>
      <trkpt lat="48.7187" lon="2.05253">
        <ele>160</ele>
        <time>2021-05-20T11:08:16.566Z</time>
      </trkpt>
      <trkpt lat="48.71871" lon="2.05254">
        <ele>160</ele>
        <time>2021-05-20T11:08:17.566Z</time>
      </trkpt>
      <trkpt lat="48.71873" lon="2.05255">
        <ele>160</ele>
        <time>2021-05-20T11:08:18.566Z</time>
      </trkpt>
      <trkpt lat="48.71875" lon="2.05256">
        <ele>160</ele>
        <time>2021-05-20T11:08:19.566Z</time>
      </trkpt>
      <trkpt lat="48.71876" lon="2.05256">
        <ele>159</ele>
        <time>2021-05-20T11:08:20.566Z</time>
      </trkpt>
      <trkpt lat="48.71878" lon="2.05257">
        <ele>159</ele>
        <time>2021-05-20T11:08:21.566Z</time>
      </trkpt>
      <trkpt lat="48.71879" lon="2.05257">
        <ele>159</ele>
        <time>2021-05-20T11:08:22.566Z</time>
      </trkpt>
      <trkpt lat="48.71881" lon="2.05258">
        <ele>159</ele>
        <time>2021-05-20T11:08:32.573Z</time>
      </trkpt>
      <trkpt lat="48.71883" lon="2.05258">
        <ele>159</ele>
        <time>2021-05-20T11:08:33.573Z</time>
      </trkpt>
      <trkpt lat="48.71884" lon="2.05259">
        <ele>158</ele>
        <time>2021-05-20T11:08:34.573Z</time>
      </trkpt>
      <trkpt lat="48.71886" lon="2.05259">
        <ele>158</ele>
        <time>2021-05-20T11:08:35.573Z</time>
      </trkpt>
      <trkpt lat="48.71887" lon="2.05259">
        <ele>158</ele>
        <time>2021-05-20T11:08:36.573Z</time>
      </trkpt>
      <trkpt lat="48.71889" lon="2.0526">
        <ele>158</ele>
        <time>2021-05-20T11:08:37.573Z</time>
      </trkpt>
      <trkpt lat="48.7189" lon="2.0526">
        <ele>158</ele>
        <time>2021-05-20T11:08:38.573Z</time>
      </trkpt>
      <trkpt lat="48.71892" lon="2.0526">
        <ele>158</ele>
        <time>2021-05-20T11:08:39.573Z</time>
      </trkpt>
      <trkpt lat="48.71893" lon="2.0526">
        <ele>158</ele>
        <time>2021-05-20T11:08:40.573Z</time>
      </trkpt>
      <trkpt lat="48.71895" lon="2.05261">
        <ele>158</ele>
        <time>2021-05-20T11:08:41.573Z</time>
      </trkpt>
      <trkpt lat="48.71896" lon="2.05261">
        <ele>158</ele>
        <time>2021-05-20T11:08:42.573Z</time>
      </trkpt>
      <trkpt lat="48.71898" lon="2.05261">
        <ele>158</ele>
        <time>2021-05-20T11:08:43.573Z</time>
      </trkpt>
      <trkpt lat="48.71899" lon="2.05261">
        <ele>158</ele>
        <time>2021-05-20T11:08:44.573Z</time>
      </trkpt>
      <trkpt lat="48.71901" lon="2.05261">
        <ele>158</ele>
        <time>2021-05-20T11:08:45.573Z</time>
      </trkpt>
      <trkpt lat="48.71902" lon="2.05261">
        <ele>158</ele>
        <time>2021-05-20T11:08:46.573Z</time>
      </trkpt>
      <trkpt lat="48.71904" lon="2.05261">
        <ele>158</ele>
        <time>2021-05-20T11:08:47.573Z</time>
      </trkpt>
      <trkpt lat="48.71905" lon="2.05262">
        <ele>158</ele>
        <time>2021-05-20T11:08:48.573Z</time>
      </trkpt>
      <trkpt lat="48.71906" lon="2.05262">
        <ele>158</ele>
        <time>2021-05-20T11:08:49.573Z</time>
      </trkpt>
      <trkpt lat="48.71907" lon="2.05262">
        <ele>158</ele>
        <time>2021-05-20T11:08:50.573Z</time>
      </trkpt>
      <trkpt lat="48.71909" lon="2.05262">
        <ele>158</ele>
        <time>2021-05-20T11:08:51.573Z</time>
      </trkpt>
      <trkpt lat="48.7191" lon="2.05262">
        <ele>158</ele>
        <time>2021-05-20T11:08:52.573Z</time>
      </trkpt>
      <trkpt lat="48.71912" lon="2.05263">
        <ele>158</ele>
        <time>2021-05-20T11:08:53.573Z</time>
      </trkpt>
      <trkpt lat="48.71913" lon="2.05262">
        <ele>158</ele>
        <time>2021-05-20T11:08:54.573Z</time>
      </trkpt>
      <trkpt lat="48.71914" lon="2.05263">
        <ele>158</ele>
        <time>2021-05-20T11:08:55.573Z</time>
      </trkpt>
      <trkpt lat="48.71915" lon="2.05263">
        <ele>158</ele>
        <time>2021-05-20T11:08:56.573Z</time>
      </trkpt>
      <trkpt lat="48.71917" lon="2.05263">
        <ele>158</ele>
        <time>2021-05-20T11:08:57.573Z</time>
      </trkpt>
      <trkpt lat="48.71918" lon="2.05263">
        <ele>158</ele>
        <time>2021-05-20T11:08:58.573Z</time>
      </trkpt>
      <trkpt lat="48.71919" lon="2.05262">
        <ele>158</ele>
        <time>2021-05-20T11:08:59.573Z</time>
      </trkpt>
      <trkpt lat="48.71921" lon="2.05262">
        <ele>158</ele>
        <time>2021-05-20T11:09:00.573Z</time>
      </trkpt>
      <trkpt lat="48.71922" lon="2.05262">
        <ele>158</ele>
        <time>2021-05-20T11:09:01.573Z</time>
      </trkpt>
      <trkpt lat="48.71923" lon="2.05262">
        <ele>158</ele>
        <time>2021-05-20T11:09:02.573Z</time>
      </trkpt>
      <trkpt lat="48.71925" lon="2.05261">
        <ele>158</ele>
        <time>2021-05-20T11:09:03.573Z</time>
      </trkpt>
      <trkpt lat="48.71926" lon="2.05261">
        <ele>158</ele>
        <time>2021-05-20T11:09:04.573Z</time>
      </trkpt>
      <trkpt lat="48.71927" lon="2.05261">
        <ele>158</ele>
        <time>2021-05-20T11:09:05.573Z</time>
      </trkpt>
      <trkpt lat="48.71929" lon="2.0526">
        <ele>158</ele>
        <time>2021-05-20T11:09:06.573Z</time>
      </trkpt>
      <trkpt lat="48.7193" lon="2.0526">
        <ele>158</ele>
        <time>2021-05-20T11:09:07.573Z</time>
      </trkpt>
      <trkpt lat="48.71932" lon="2.05259">
        <ele>159</ele>
        <time>2021-05-20T11:09:08.573Z</time>
      </trkpt>
      <trkpt lat="48.71933" lon="2.05258">
        <ele>159</ele>
        <time>2021-05-20T11:09:09.573Z</time>
      </trkpt>
      <trkpt lat="48.71934" lon="2.05257">
        <ele>159</ele>
        <time>2021-05-20T11:09:10.573Z</time>
      </trkpt>
      <trkpt lat="48.71935" lon="2.05256">
        <ele>159</ele>
        <time>2021-05-20T11:09:11.573Z</time>
      </trkpt>
      <trkpt lat="48.71936" lon="2.05255">
        <ele>159</ele>
        <time>2021-05-20T11:09:12.573Z</time>
      </trkpt>
      <trkpt lat="48.71938" lon="2.05255">
        <ele>159</ele>
        <time>2021-05-20T11:09:13.573Z</time>
      </trkpt>
      <trkpt lat="48.71939" lon="2.05254">
        <ele>159</ele>
        <time>2021-05-20T11:09:14.573Z</time>
      </trkpt>
      <trkpt lat="48.7194" lon="2.05253">
        <ele>159</ele>
        <time>2021-05-20T11:09:15.573Z</time>
      </trkpt>
      <trkpt lat="48.71941" lon="2.05251">
        <ele>159</ele>
        <time>2021-05-20T11:09:16.573Z</time>
      </trkpt>
      <trkpt lat="48.71942" lon="2.0525">
        <ele>159</ele>
        <time>2021-05-20T11:09:17.573Z</time>
      </trkpt>
      <trkpt lat="48.71942" lon="2.05249">
        <ele>159</ele>
        <time>2021-05-20T11:09:18.573Z</time>
      </trkpt>
      <trkpt lat="48.71943" lon="2.05248">
        <ele>159</ele>
        <time>2021-05-20T11:09:19.573Z</time>
      </trkpt>
      <trkpt lat="48.71943" lon="2.05246">
        <ele>159</ele>
        <time>2021-05-20T11:09:20.573Z</time>
      </trkpt>
      <trkpt lat="48.71944" lon="2.05245">
        <ele>159</ele>
        <time>2021-05-20T11:09:21.573Z</time>
      </trkpt>
      <trkpt lat="48.71945" lon="2.05244">
        <ele>160</ele>
        <time>2021-05-20T11:09:22.573Z</time>
      </trkpt>
      <trkpt lat="48.71945" lon="2.05242">
        <ele>160</ele>
        <time>2021-05-20T11:09:23.573Z</time>
      </trkpt>
      <trkpt lat="48.71946" lon="2.0524">
        <ele>160</ele>
        <time>2021-05-20T11:09:24.573Z</time>
      </trkpt>
      <trkpt lat="48.71947" lon="2.05238">
        <ele>160</ele>
        <time>2021-05-20T11:09:25.573Z</time>
      </trkpt>
      <trkpt lat="48.71948" lon="2.05236">
        <ele>160</ele>
        <time>2021-05-20T11:09:26.573Z</time>
      </trkpt>
      <trkpt lat="48.71949" lon="2.05235">
        <ele>160</ele>
        <time>2021-05-20T11:09:27.573Z</time>
      </trkpt>
      <trkpt lat="48.7195" lon="2.05233">
        <ele>161</ele>
        <time>2021-05-20T11:09:28.573Z</time>
      </trkpt>
      <trkpt lat="48.7195" lon="2.05232">
        <ele>161</ele>
        <time>2021-05-20T11:09:29.573Z</time>
      </trkpt>
      <trkpt lat="48.71951" lon="2.0523">
        <ele>161</ele>
        <time>2021-05-20T11:09:30.573Z</time>
      </trkpt>
      <trkpt lat="48.71952" lon="2.05229">
        <ele>162</ele>
        <time>2021-05-20T11:09:31.573Z</time>
      </trkpt>
      <trkpt lat="48.71953" lon="2.05227">
        <ele>162</ele>
        <time>2021-05-20T11:09:32.573Z</time>
      </trkpt>
      <trkpt lat="48.71954" lon="2.05225">
        <ele>162</ele>
        <time>2021-05-20T11:09:33.573Z</time>
      </trkpt>
      <trkpt lat="48.71955" lon="2.05224">
        <ele>162</ele>
        <time>2021-05-20T11:09:34.573Z</time>
      </trkpt>
      <trkpt lat="48.71955" lon="2.05222">
        <ele>163</ele>
        <time>2021-05-20T11:09:35.573Z</time>
      </trkpt>
      <trkpt lat="48.71956" lon="2.05221">
        <ele>163</ele>
        <time>2021-05-20T11:09:36.573Z</time>
      </trkpt>
      <trkpt lat="48.71956" lon="2.05219">
        <ele>163</ele>
        <time>2021-05-20T11:09:37.573Z</time>
      </trkpt>
      <trkpt lat="48.71957" lon="2.05217">
        <ele>163</ele>
        <time>2021-05-20T11:09:38.573Z</time>
      </trkpt>
      <trkpt lat="48.71958" lon="2.05216">
        <ele>164</ele>
        <time>2021-05-20T11:09:39.573Z</time>
      </trkpt>
      <trkpt lat="48.71958" lon="2.05214">
        <ele>164</ele>
        <time>2021-05-20T11:09:40.573Z</time>
      </trkpt>
      <trkpt lat="48.71959" lon="2.05212">
        <ele>164</ele>
        <time>2021-05-20T11:09:41.573Z</time>
      </trkpt>
      <trkpt lat="48.7196" lon="2.05211">
        <ele>164</ele>
        <time>2021-05-20T11:09:42.573Z</time>
      </trkpt>
      <trkpt lat="48.71961" lon="2.05209">
        <ele>164</ele>
        <time>2021-05-20T11:09:43.573Z</time>
      </trkpt>
      <trkpt lat="48.71961" lon="2.05208">
        <ele>165</ele>
        <time>2021-05-20T11:09:44.573Z</time>
      </trkpt>
      <trkpt lat="48.71962" lon="2.05206">
        <ele>165</ele>
        <time>2021-05-20T11:09:45.573Z</time>
      </trkpt>
      <trkpt lat="48.71963" lon="2.05205">
        <ele>165</ele>
        <time>2021-05-20T11:09:46.573Z</time>
      </trkpt>
      <trkpt lat="48.71964" lon="2.05203">
        <ele>165</ele>
        <time>2021-05-20T11:09:47.573Z</time>
      </trkpt>
      <trkpt lat="48.71965" lon="2.05202">
        <ele>165</ele>
        <time>2021-05-20T11:09:48.573Z</time>
      </trkpt>
      <trkpt lat="48.71966" lon="2.052">
        <ele>166</ele>
        <time>2021-05-20T11:09:49.573Z</time>
      </trkpt>
      <trkpt lat="48.71967" lon="2.05199">
        <ele>166</ele>
        <time>2021-05-20T11:09:50.573Z</time>
      </trkpt>
      <trkpt lat="48.71968" lon="2.05197">
        <ele>166</ele>
        <time>2021-05-20T11:09:51.573Z</time>
      </trkpt>
      <trkpt lat="48.71969" lon="2.05196">
        <ele>166</ele>
        <time>2021-05-20T11:09:52.573Z</time>
      </trkpt>
      <trkpt lat="48.7197" lon="2.05194">
        <ele>166</ele>
        <time>2021-05-20T11:09:53.573Z</time>
      </trkpt>
      <trkpt lat="48.71971" lon="2.05192">
        <ele>166</ele>
        <time>2021-05-20T11:09:54.573Z</time>
      </trkpt>
      <trkpt lat="48.71972" lon="2.05191">
        <ele>166</ele>
        <time>2021-05-20T11:09:55.573Z</time>
      </trkpt>
      <trkpt lat="48.71972" lon="2.05189">
        <ele>167</ele>
        <time>2021-05-20T11:09:56.573Z</time>
      </trkpt>
      <trkpt lat="48.71973" lon="2.05187">
        <ele>167</ele>
        <time>2021-05-20T11:09:57.573Z</time>
      </trkpt>
      <trkpt lat="48.71974" lon="2.05186">
        <ele>167</ele>
        <time>2021-05-20T11:09:58.573Z</time>
      </trkpt>
      <trkpt lat="48.71975" lon="2.05184">
        <ele>167</ele>
        <time>2021-05-20T11:09:59.573Z</time>
      </trkpt>
      <trkpt lat="48.71976" lon="2.05182">
        <ele>166</ele>
        <time>2021-05-20T11:10:00.573Z</time>
      </trkpt>
      <trkpt lat="48.71977" lon="2.0518">
        <ele>166</ele>
        <time>2021-05-20T11:10:01.573Z</time>
      </trkpt>
      <trkpt lat="48.71978" lon="2.05178">
        <ele>166</ele>
        <time>2021-05-20T11:10:02.573Z</time>
      </trkpt>
      <trkpt lat="48.71978" lon="2.05177">
        <ele>166</ele>
        <time>2021-05-20T11:10:03.573Z</time>
      </trkpt>
      <trkpt lat="48.71979" lon="2.05175">
        <ele>166</ele>
        <time>2021-05-20T11:10:04.573Z</time>
      </trkpt>
      <trkpt lat="48.7198" lon="2.05173">
        <ele>166</ele>
        <time>2021-05-20T11:10:05.573Z</time>
      </trkpt>
      <trkpt lat="48.71981" lon="2.05171">
        <ele>166</ele>
        <time>2021-05-20T11:10:06.573Z</time>
      </trkpt>
      <trkpt lat="48.71981" lon="2.05169">
        <ele>166</ele>
        <time>2021-05-20T11:10:07.573Z</time>
      </trkpt>
      <trkpt lat="48.71982" lon="2.05168">
        <ele>166</ele>
        <time>2021-05-20T11:10:08.573Z</time>
      </trkpt>
      <trkpt lat="48.71983" lon="2.05166">
        <ele>166</ele>
        <time>2021-05-20T11:10:09.573Z</time>
      </trkpt>
      <trkpt lat="48.71984" lon="2.05164">
        <ele>166</ele>
        <time>2021-05-20T11:10:10.573Z</time>
      </trkpt>
      <trkpt lat="48.71985" lon="2.05162">
        <ele>166</ele>
        <time>2021-05-20T11:10:11.573Z</time>
      </trkpt>
      <trkpt lat="48.71986" lon="2.05161">
        <ele>166</ele>
        <time>2021-05-20T11:10:12.573Z</time>
      </trkpt>
      <trkpt lat="48.71986" lon="2.05159">
        <ele>166</ele>
        <time>2021-05-20T11:10:13.573Z</time>
      </trkpt>
      <trkpt lat="48.71987" lon="2.05157">
        <ele>166</ele>
        <time>2021-05-20T11:10:14.573Z</time>
      </trkpt>
      <trkpt lat="48.71988" lon="2.05155">
        <ele>166</ele>
        <time>2021-05-20T11:10:15.573Z</time>
      </trkpt>
      <trkpt lat="48.71989" lon="2.05154">
        <ele>166</ele>
        <time>2021-05-20T11:10:16.573Z</time>
      </trkpt>
      <trkpt lat="48.71989" lon="2.05152">
        <ele>166</ele>
        <time>2021-05-20T11:10:17.573Z</time>
      </trkpt>
      <trkpt lat="48.7199" lon="2.0515">
        <ele>166</ele>
        <time>2021-05-20T11:10:18.573Z</time>
      </trkpt>
      <trkpt lat="48.71991" lon="2.05149">
        <ele>166</ele>
        <time>2021-05-20T11:10:19.573Z</time>
      </trkpt>
      <trkpt lat="48.71992" lon="2.05147">
        <ele>166</ele>
        <time>2021-05-20T11:10:20.573Z</time>
      </trkpt>
      <trkpt lat="48.71993" lon="2.05146">
        <ele>166</ele>
        <time>2021-05-20T11:10:21.573Z</time>
      </trkpt>
      <trkpt lat="48.71994" lon="2.05144">
        <ele>166</ele>
        <time>2021-05-20T11:10:22.573Z</time>
      </trkpt>
      <trkpt lat="48.71994" lon="2.05142">
        <ele>166</ele>
        <time>2021-05-20T11:10:23.573Z</time>
      </trkpt>
      <trkpt lat="48.71995" lon="2.0514">
        <ele>165</ele>
        <time>2021-05-20T11:10:24.573Z</time>
      </trkpt>
      <trkpt lat="48.71996" lon="2.05139">
        <ele>165</ele>
        <time>2021-05-20T11:10:25.573Z</time>
      </trkpt>
      <trkpt lat="48.71998" lon="2.05137">
        <ele>165</ele>
        <time>2021-05-20T11:10:26.573Z</time>
      </trkpt>
      <trkpt lat="48.71999" lon="2.05136">
        <ele>165</ele>
        <time>2021-05-20T11:10:27.573Z</time>
      </trkpt>
      <trkpt lat="48.71999" lon="2.05134">
        <ele>165</ele>
        <time>2021-05-20T11:10:28.573Z</time>
      </trkpt>
      <trkpt lat="48.72" lon="2.05133">
        <ele>165</ele>
        <time>2021-05-20T11:10:29.573Z</time>
      </trkpt>
      <trkpt lat="48.72001" lon="2.05131">
        <ele>165</ele>
        <time>2021-05-20T11:10:30.573Z</time>
      </trkpt>
      <trkpt lat="48.72002" lon="2.05129">
        <ele>166</ele>
        <time>2021-05-20T11:10:31.573Z</time>
      </trkpt>
      <trkpt lat="48.72002" lon="2.05128">
        <ele>166</ele>
        <time>2021-05-20T11:10:32.573Z</time>
      </trkpt>
      <trkpt lat="48.72003" lon="2.05126">
        <ele>166</ele>
        <time>2021-05-20T11:10:33.573Z</time>
      </trkpt>
      <trkpt lat="48.72004" lon="2.05124">
        <ele>166</ele>
        <time>2021-05-20T11:10:34.573Z</time>
      </trkpt>
      <trkpt lat="48.72004" lon="2.05123">
        <ele>166</ele>
        <time>2021-05-20T11:10:35.573Z</time>
      </trkpt>
      <trkpt lat="48.72005" lon="2.05121">
        <ele>166</ele>
        <time>2021-05-20T11:10:36.573Z</time>
      </trkpt>
      <trkpt lat="48.72005" lon="2.0512">
        <ele>166</ele>
        <time>2021-05-20T11:10:37.573Z</time>
      </trkpt>
      <trkpt lat="48.72006" lon="2.05118">
        <ele>166</ele>
        <time>2021-05-20T11:10:38.573Z</time>
      </trkpt>
      <trkpt lat="48.72007" lon="2.05117">
        <ele>166</ele>
        <time>2021-05-20T11:10:39.573Z</time>
      </trkpt>
      <trkpt lat="48.72007" lon="2.05115">
        <ele>166</ele>
        <time>2021-05-20T11:10:40.573Z</time>
      </trkpt>
      <trkpt lat="48.72008" lon="2.05114">
        <ele>166</ele>
        <time>2021-05-20T11:10:41.573Z</time>
      </trkpt>
      <trkpt lat="48.72008" lon="2.05112">
        <ele>166</ele>
        <time>2021-05-20T11:10:42.573Z</time>
      </trkpt>
      <trkpt lat="48.72009" lon="2.05111">
        <ele>167</ele>
        <time>2021-05-20T11:10:43.573Z</time>
      </trkpt>
      <trkpt lat="48.72009" lon="2.05109">
        <ele>167</ele>
        <time>2021-05-20T11:10:44.573Z</time>
      </trkpt>
      <trkpt lat="48.7201" lon="2.05107">
        <ele>167</ele>
        <time>2021-05-20T11:10:45.573Z</time>
      </trkpt>
      <trkpt lat="48.72011" lon="2.05106">
        <ele>167</ele>
        <time>2021-05-20T11:10:46.573Z</time>
      </trkpt>
      <trkpt lat="48.72012" lon="2.05105">
        <ele>167</ele>
        <time>2021-05-20T11:10:47.573Z</time>
      </trkpt>
      <trkpt lat="48.72012" lon="2.05103">
        <ele>167</ele>
        <time>2021-05-20T11:10:48.573Z</time>
      </trkpt>
      <trkpt lat="48.72013" lon="2.05101">
        <ele>167</ele>
        <time>2021-05-20T11:10:49.573Z</time>
      </trkpt>
      <trkpt lat="48.72014" lon="2.051">
        <ele>167</ele>
        <time>2021-05-20T11:10:50.573Z</time>
      </trkpt>
      <trkpt lat="48.72014" lon="2.05098">
        <ele>167</ele>
        <time>2021-05-20T11:10:51.573Z</time>
      </trkpt>
      <trkpt lat="48.72015" lon="2.05096">
        <ele>167</ele>
        <time>2021-05-20T11:10:52.573Z</time>
      </trkpt>
      <trkpt lat="48.72016" lon="2.05094">
        <ele>168</ele>
        <time>2021-05-20T11:10:53.573Z</time>
      </trkpt>
      <trkpt lat="48.72017" lon="2.05092">
        <ele>168</ele>
        <time>2021-05-20T11:10:54.573Z</time>
      </trkpt>
      <trkpt lat="48.72018" lon="2.0509">
        <ele>168</ele>
        <time>2021-05-20T11:10:55.573Z</time>
      </trkpt>
      <trkpt lat="48.72019" lon="2.05088">
        <ele>168</ele>
        <time>2021-05-20T11:10:56.573Z</time>
      </trkpt>
      <trkpt lat="48.7202" lon="2.05087">
        <ele>168</ele>
        <time>2021-05-20T11:10:57.573Z</time>
      </trkpt>
      <trkpt lat="48.72021" lon="2.05085">
        <ele>168</ele>
        <time>2021-05-20T11:10:58.573Z</time>
      </trkpt>
      <trkpt lat="48.72023" lon="2.05084">
        <ele>169</ele>
        <time>2021-05-20T11:10:59.573Z</time>
      </trkpt>
      <trkpt lat="48.72024" lon="2.05082">
        <ele>169</ele>
        <time>2021-05-20T11:11:00.573Z</time>
      </trkpt>
      <trkpt lat="48.72025" lon="2.0508">
        <ele>169</ele>
        <time>2021-05-20T11:11:01.573Z</time>
      </trkpt>
      <trkpt lat="48.72026" lon="2.05078">
        <ele>169</ele>
        <time>2021-05-20T11:11:02.573Z</time>
      </trkpt>
      <trkpt lat="48.72027" lon="2.05077">
        <ele>169</ele>
        <time>2021-05-20T11:11:03.573Z</time>
      </trkpt>
      <trkpt lat="48.72028" lon="2.05075">
        <ele>170</ele>
        <time>2021-05-20T11:11:04.573Z</time>
      </trkpt>
      <trkpt lat="48.72029" lon="2.05074">
        <ele>170</ele>
        <time>2021-05-20T11:11:05.573Z</time>
      </trkpt>
      <trkpt lat="48.72029" lon="2.05073">
        <ele>170</ele>
        <time>2021-05-20T11:11:06.573Z</time>
      </trkpt>
      <trkpt lat="48.7203" lon="2.05071">
        <ele>170</ele>
        <time>2021-05-20T11:11:07.573Z</time>
      </trkpt>
      <trkpt lat="48.72031" lon="2.0507">
        <ele>170</ele>
        <time>2021-05-20T11:11:08.573Z</time>
      </trkpt>
      <trkpt lat="48.72032" lon="2.05068">
        <ele>170</ele>
        <time>2021-05-20T11:11:09.573Z</time>
      </trkpt>
      <trkpt lat="48.72033" lon="2.05067">
        <ele>170</ele>
        <time>2021-05-20T11:11:10.573Z</time>
      </trkpt>
      <trkpt lat="48.72034" lon="2.05065">
        <ele>170</ele>
        <time>2021-05-20T11:11:11.573Z</time>
      </trkpt>
      <trkpt lat="48.72034" lon="2.05064">
        <ele>170</ele>
        <time>2021-05-20T11:11:12.573Z</time>
      </trkpt>
      <trkpt lat="48.72035" lon="2.05062">
        <ele>169</ele>
        <time>2021-05-20T11:11:13.573Z</time>
      </trkpt>
      <trkpt lat="48.72035" lon="2.05061">
        <ele>169</ele>
        <time>2021-05-20T11:11:14.573Z</time>
      </trkpt>
      <trkpt lat="48.72036" lon="2.05059">
        <ele>169</ele>
        <time>2021-05-20T11:11:15.573Z</time>
      </trkpt>
      <trkpt lat="48.72037" lon="2.05058">
        <ele>169</ele>
        <time>2021-05-20T11:11:16.573Z</time>
      </trkpt>
      <trkpt lat="48.72037" lon="2.05056">
        <ele>169</ele>
        <time>2021-05-20T11:11:17.573Z</time>
      </trkpt>
      <trkpt lat="48.72038" lon="2.05054">
        <ele>169</ele>
        <time>2021-05-20T11:11:18.573Z</time>
      </trkpt>
      <trkpt lat="48.72038" lon="2.05053">
        <ele>169</ele>
        <time>2021-05-20T11:11:19.573Z</time>
      </trkpt>
      <trkpt lat="48.72039" lon="2.05051">
        <ele>169</ele>
        <time>2021-05-20T11:11:20.573Z</time>
      </trkpt>
      <trkpt lat="48.72039" lon="2.05049">
        <ele>168</ele>
        <time>2021-05-20T11:11:21.573Z</time>
      </trkpt>
      <trkpt lat="48.7204" lon="2.05047">
        <ele>168</ele>
        <time>2021-05-20T11:11:22.573Z</time>
      </trkpt>
      <trkpt lat="48.7204" lon="2.05045">
        <ele>168</ele>
        <time>2021-05-20T11:11:23.573Z</time>
      </trkpt>
      <trkpt lat="48.72041" lon="2.05044">
        <ele>168</ele>
        <time>2021-05-20T11:11:24.573Z</time>
      </trkpt>
      <trkpt lat="48.72041" lon="2.05043">
        <ele>168</ele>
        <time>2021-05-20T11:11:25.573Z</time>
      </trkpt>
      <trkpt lat="48.72042" lon="2.05041">
        <ele>168</ele>
        <time>2021-05-20T11:11:26.573Z</time>
      </trkpt>
      <trkpt lat="48.72043" lon="2.0504">
        <ele>168</ele>
        <time>2021-05-20T11:11:27.573Z</time>
      </trkpt>
      <trkpt lat="48.72043" lon="2.05038">
        <ele>168</ele>
        <time>2021-05-20T11:11:28.573Z</time>
      </trkpt>
      <trkpt lat="48.72044" lon="2.05036">
        <ele>168</ele>
        <time>2021-05-20T11:11:29.573Z</time>
      </trkpt>
      <trkpt lat="48.72045" lon="2.05034">
        <ele>168</ele>
        <time>2021-05-20T11:11:30.573Z</time>
      </trkpt>
      <trkpt lat="48.72046" lon="2.05032">
        <ele>168</ele>
        <time>2021-05-20T11:11:31.573Z</time>
      </trkpt>
      <trkpt lat="48.72047" lon="2.0503">
        <ele>168</ele>
        <time>2021-05-20T11:11:32.573Z</time>
      </trkpt>
      <trkpt lat="48.72048" lon="2.05029">
        <ele>168</ele>
        <time>2021-05-20T11:11:33.573Z</time>
      </trkpt>
      <trkpt lat="48.72048" lon="2.05027">
        <ele>168</ele>
        <time>2021-05-20T11:11:34.573Z</time>
      </trkpt>
      <trkpt lat="48.72049" lon="2.05026">
        <ele>168</ele>
        <time>2021-05-20T11:11:35.573Z</time>
      </trkpt>
      <trkpt lat="48.7205" lon="2.05024">
        <ele>169</ele>
        <time>2021-05-20T11:11:36.573Z</time>
      </trkpt>
      <trkpt lat="48.7205" lon="2.05023">
        <ele>169</ele>
        <time>2021-05-20T11:11:37.573Z</time>
      </trkpt>
      <trkpt lat="48.72051" lon="2.05021">
        <ele>169</ele>
        <time>2021-05-20T11:11:38.573Z</time>
      </trkpt>
      <trkpt lat="48.72052" lon="2.0502">
        <ele>169</ele>
        <time>2021-05-20T11:11:39.573Z</time>
      </trkpt>
      <trkpt lat="48.72053" lon="2.05018">
        <ele>169</ele>
        <time>2021-05-20T11:11:40.573Z</time>
      </trkpt>
      <trkpt lat="48.72053" lon="2.05016">
        <ele>169</ele>
        <time>2021-05-20T11:11:41.573Z</time>
      </trkpt>
      <trkpt lat="48.72054" lon="2.05014">
        <ele>169</ele>
        <time>2021-05-20T11:11:42.573Z</time>
      </trkpt>
      <trkpt lat="48.72055" lon="2.05012">
        <ele>169</ele>
        <time>2021-05-20T11:11:43.573Z</time>
      </trkpt>
      <trkpt lat="48.72056" lon="2.05011">
        <ele>169</ele>
        <time>2021-05-20T11:11:44.573Z</time>
      </trkpt>
      <trkpt lat="48.72056" lon="2.05009">
        <ele>169</ele>
        <time>2021-05-20T11:11:45.573Z</time>
      </trkpt>
      <trkpt lat="48.72057" lon="2.05008">
        <ele>169</ele>
        <time>2021-05-20T11:11:46.573Z</time>
      </trkpt>
      <trkpt lat="48.72058" lon="2.05006">
        <ele>169</ele>
        <time>2021-05-20T11:11:47.573Z</time>
      </trkpt>
      <trkpt lat="48.72059" lon="2.05004">
        <ele>169</ele>
        <time>2021-05-20T11:11:48.573Z</time>
      </trkpt>
      <trkpt lat="48.7206" lon="2.05003">
        <ele>169</ele>
        <time>2021-05-20T11:11:49.573Z</time>
      </trkpt>
      <trkpt lat="48.72061" lon="2.05001">
        <ele>169</ele>
        <time>2021-05-20T11:11:50.573Z</time>
      </trkpt>
      <trkpt lat="48.72061" lon="2.05">
        <ele>169</ele>
        <time>2021-05-20T11:11:51.573Z</time>
      </trkpt>
      <trkpt lat="48.72062" lon="2.04998">
        <ele>169</ele>
        <time>2021-05-20T11:11:52.573Z</time>
      </trkpt>
      <trkpt lat="48.72062" lon="2.04997">
        <ele>169</ele>
        <time>2021-05-20T11:11:53.573Z</time>
      </trkpt>
      <trkpt lat="48.72063" lon="2.04995">
        <ele>169</ele>
        <time>2021-05-20T11:11:54.573Z</time>
      </trkpt>
      <trkpt lat="48.72064" lon="2.04994">
        <ele>169</ele>
        <time>2021-05-20T11:11:55.573Z</time>
      </trkpt>
      <trkpt lat="48.72064" lon="2.04992">
        <ele>169</ele>
        <time>2021-05-20T11:11:56.573Z</time>
      </trkpt>
      <trkpt lat="48.72065" lon="2.0499">
        <ele>169</ele>
        <time>2021-05-20T11:11:57.573Z</time>
      </trkpt>
      <trkpt lat="48.72066" lon="2.04988">
        <ele>169</ele>
        <time>2021-05-20T11:11:58.573Z</time>
      </trkpt>
      <trkpt lat="48.72066" lon="2.04986">
        <ele>169</ele>
        <time>2021-05-20T11:11:59.573Z</time>
      </trkpt>
      <trkpt lat="48.72067" lon="2.04984">
        <ele>169</ele>
        <time>2021-05-20T11:12:00.573Z</time>
      </trkpt>
      <trkpt lat="48.72068" lon="2.04981">
        <ele>169</ele>
        <time>2021-05-20T11:12:01.573Z</time>
      </trkpt>
      <trkpt lat="48.72069" lon="2.0498">
        <ele>169</ele>
        <time>2021-05-20T11:12:02.573Z</time>
      </trkpt>
      <trkpt lat="48.7207" lon="2.04978">
        <ele>169</ele>
        <time>2021-05-20T11:12:03.573Z</time>
      </trkpt>
      <trkpt lat="48.72071" lon="2.04977">
        <ele>169</ele>
        <time>2021-05-20T11:12:04.573Z</time>
      </trkpt>
      <trkpt lat="48.72072" lon="2.04975">
        <ele>169</ele>
        <time>2021-05-20T11:12:05.573Z</time>
      </trkpt>
      <trkpt lat="48.72072" lon="2.04974">
        <ele>169</ele>
        <time>2021-05-20T11:12:06.573Z</time>
      </trkpt>
      <trkpt lat="48.72073" lon="2.04972">
        <ele>169</ele>
        <time>2021-05-20T11:12:07.573Z</time>
      </trkpt>
      <trkpt lat="48.72074" lon="2.04971">
        <ele>169</ele>
        <time>2021-05-20T11:12:08.573Z</time>
      </trkpt>
      <trkpt lat="48.72075" lon="2.04969">
        <ele>169</ele>
        <time>2021-05-20T11:12:09.573Z</time>
      </trkpt>
      <trkpt lat="48.72076" lon="2.04967">
        <ele>169</ele>
        <time>2021-05-20T11:12:10.573Z</time>
      </trkpt>
      <trkpt lat="48.72076" lon="2.04966">
        <ele>169</ele>
        <time>2021-05-20T11:12:11.573Z</time>
      </trkpt>
      <trkpt lat="48.72077" lon="2.04964">
        <ele>169</ele>
        <time>2021-05-20T11:12:12.573Z</time>
      </trkpt>
      <trkpt lat="48.72078" lon="2.04962">
        <ele>169</ele>
        <time>2021-05-20T11:12:13.573Z</time>
      </trkpt>
      <trkpt lat="48.72079" lon="2.04961">
        <ele>169</ele>
        <time>2021-05-20T11:12:14.573Z</time>
      </trkpt>
      <trkpt lat="48.7208" lon="2.04959">
        <ele>169</ele>
        <time>2021-05-20T11:12:15.573Z</time>
      </trkpt>
      <trkpt lat="48.7208" lon="2.04958">
        <ele>170</ele>
        <time>2021-05-20T11:12:16.573Z</time>
      </trkpt>
      <trkpt lat="48.72081" lon="2.04956">
        <ele>170</ele>
        <time>2021-05-20T11:12:17.573Z</time>
      </trkpt>
      <trkpt lat="48.72082" lon="2.04955">
        <ele>170</ele>
        <time>2021-05-20T11:12:18.573Z</time>
      </trkpt>
      <trkpt lat="48.72083" lon="2.04954">
        <ele>170</ele>
        <time>2021-05-20T11:12:19.573Z</time>
      </trkpt>
      <trkpt lat="48.72083" lon="2.04952">
        <ele>170</ele>
        <time>2021-05-20T11:12:20.573Z</time>
      </trkpt>
      <trkpt lat="48.72084" lon="2.04951">
        <ele>170</ele>
        <time>2021-05-20T11:12:21.573Z</time>
      </trkpt>
      <trkpt lat="48.72085" lon="2.0495">
        <ele>170</ele>
        <time>2021-05-20T11:12:22.573Z</time>
      </trkpt>
      <trkpt lat="48.72086" lon="2.04949">
        <ele>170</ele>
        <time>2021-05-20T11:12:23.573Z</time>
      </trkpt>
      <trkpt lat="48.72087" lon="2.04947">
        <ele>170</ele>
        <time>2021-05-20T11:12:24.573Z</time>
      </trkpt>
      <trkpt lat="48.72088" lon="2.04945">
        <ele>170</ele>
        <time>2021-05-20T11:12:25.573Z</time>
      </trkpt>
      <trkpt lat="48.72089" lon="2.04943">
        <ele>170</ele>
        <time>2021-05-20T11:12:26.573Z</time>
      </trkpt>
      <trkpt lat="48.72089" lon="2.04941">
        <ele>170</ele>
        <time>2021-05-20T11:12:27.573Z</time>
      </trkpt>
      <trkpt lat="48.7209" lon="2.0494">
        <ele>170</ele>
        <time>2021-05-20T11:12:28.573Z</time>
      </trkpt>
      <trkpt lat="48.7209" lon="2.04938">
        <ele>170</ele>
        <time>2021-05-20T11:12:29.573Z</time>
      </trkpt>
      <trkpt lat="48.72091" lon="2.04936">
        <ele>170</ele>
        <time>2021-05-20T11:12:30.573Z</time>
      </trkpt>
      <trkpt lat="48.72091" lon="2.04934">
        <ele>170</ele>
        <time>2021-05-20T11:12:31.573Z</time>
      </trkpt>
      <trkpt lat="48.72092" lon="2.04933">
        <ele>170</ele>
        <time>2021-05-20T11:12:32.573Z</time>
      </trkpt>
      <trkpt lat="48.72093" lon="2.04931">
        <ele>171</ele>
        <time>2021-05-20T11:12:33.573Z</time>
      </trkpt>
      <trkpt lat="48.72094" lon="2.04929">
        <ele>171</ele>
        <time>2021-05-20T11:12:34.573Z</time>
      </trkpt>
      <trkpt lat="48.72095" lon="2.04928">
        <ele>171</ele>
        <time>2021-05-20T11:12:35.573Z</time>
      </trkpt>
      <trkpt lat="48.72096" lon="2.04926">
        <ele>171</ele>
        <time>2021-05-20T11:12:36.573Z</time>
      </trkpt>
      <trkpt lat="48.72096" lon="2.04924">
        <ele>171</ele>
        <time>2021-05-20T11:12:37.573Z</time>
      </trkpt>
      <trkpt lat="48.72097" lon="2.04922">
        <ele>171</ele>
        <time>2021-05-20T11:12:38.573Z</time>
      </trkpt>
      <trkpt lat="48.72098" lon="2.0492">
        <ele>171</ele>
        <time>2021-05-20T11:12:39.573Z</time>
      </trkpt>
      <trkpt lat="48.72098" lon="2.04918">
        <ele>171</ele>
        <time>2021-05-20T11:12:40.573Z</time>
      </trkpt>
      <trkpt lat="48.72099" lon="2.04917">
        <ele>171</ele>
        <time>2021-05-20T11:12:41.573Z</time>
      </trkpt>
      <trkpt lat="48.72099" lon="2.04915">
        <ele>171</ele>
        <time>2021-05-20T11:12:42.573Z</time>
      </trkpt>
      <trkpt lat="48.72099" lon="2.04913">
        <ele>171</ele>
        <time>2021-05-20T11:12:43.573Z</time>
      </trkpt>
      <trkpt lat="48.72099" lon="2.04912">
        <ele>171</ele>
        <time>2021-05-20T11:12:44.573Z</time>
      </trkpt>
      <trkpt lat="48.721" lon="2.0491">
        <ele>171</ele>
        <time>2021-05-20T11:12:45.573Z</time>
      </trkpt>
      <trkpt lat="48.721" lon="2.04909">
        <ele>170</ele>
        <time>2021-05-20T11:12:46.573Z</time>
      </trkpt>
      <trkpt lat="48.721" lon="2.04907">
        <ele>170</ele>
        <time>2021-05-20T11:12:47.573Z</time>
      </trkpt>
      <trkpt lat="48.721" lon="2.04906">
        <ele>170</ele>
        <time>2021-05-20T11:12:48.573Z</time>
      </trkpt>
      <trkpt lat="48.721" lon="2.04906">
        <ele>170</ele>
        <time>2021-05-20T11:12:49.573Z</time>
      </trkpt>
      <trkpt lat="48.721" lon="2.04905">
        <ele>170</ele>
        <time>2021-05-20T11:12:50.573Z</time>
      </trkpt>
      <trkpt lat="48.72099" lon="2.04893">
        <ele>169</ele>
        <time>2021-05-20T11:12:51.573Z</time>
      </trkpt>
      <trkpt lat="48.72099" lon="2.04892">
        <ele>169</ele>
        <time>2021-05-20T11:12:52.573Z</time>
      </trkpt>
      <trkpt lat="48.721" lon="2.04891">
        <ele>169</ele>
        <time>2021-05-20T11:12:53.573Z</time>
      </trkpt>
      <trkpt lat="48.721" lon="2.0489">
        <ele>169</ele>
        <time>2021-05-20T11:12:54.573Z</time>
      </trkpt>
      <trkpt lat="48.721" lon="2.04889">
        <ele>169</ele>
        <time>2021-05-20T11:12:55.573Z</time>
      </trkpt>
      <trkpt lat="48.721" lon="2.04887">
        <ele>169</ele>
        <time>2021-05-20T11:12:56.573Z</time>
      </trkpt>
      <trkpt lat="48.721" lon="2.04886">
        <ele>168</ele>
        <time>2021-05-20T11:12:57.573Z</time>
      </trkpt>
      <trkpt lat="48.721" lon="2.04885">
        <ele>168</ele>
        <time>2021-05-20T11:12:58.573Z</time>
      </trkpt>
      <trkpt lat="48.721" lon="2.04883">
        <ele>168</ele>
        <time>2021-05-20T11:12:59.573Z</time>
      </trkpt>
      <trkpt lat="48.721" lon="2.04881">
        <ele>168</ele>
        <time>2021-05-20T11:13:00.573Z</time>
      </trkpt>
      <trkpt lat="48.721" lon="2.04879">
        <ele>167</ele>
        <time>2021-05-20T11:13:01.573Z</time>
      </trkpt>
      <trkpt lat="48.721" lon="2.04878">
        <ele>167</ele>
        <time>2021-05-20T11:13:02.573Z</time>
      </trkpt>
      <trkpt lat="48.721" lon="2.04877">
        <ele>167</ele>
        <time>2021-05-20T11:13:03.573Z</time>
      </trkpt>
      <trkpt lat="48.721" lon="2.04876">
        <ele>166</ele>
        <time>2021-05-20T11:13:04.573Z</time>
      </trkpt>
      <trkpt lat="48.721" lon="2.04874">
        <ele>166</ele>
        <time>2021-05-20T11:13:05.573Z</time>
      </trkpt>
      <trkpt lat="48.72101" lon="2.04872">
        <ele>166</ele>
        <time>2021-05-20T11:13:06.573Z</time>
      </trkpt>
      <trkpt lat="48.72101" lon="2.04871">
        <ele>165</ele>
        <time>2021-05-20T11:13:07.573Z</time>
      </trkpt>
      <trkpt lat="48.72101" lon="2.04869">
        <ele>165</ele>
        <time>2021-05-20T11:13:08.573Z</time>
      </trkpt>
      <trkpt lat="48.72101" lon="2.04867">
        <ele>165</ele>
        <time>2021-05-20T11:13:09.573Z</time>
      </trkpt>
      <trkpt lat="48.72101" lon="2.04865">
        <ele>165</ele>
        <time>2021-05-20T11:13:10.573Z</time>
      </trkpt>
      <trkpt lat="48.72101" lon="2.04863">
        <ele>165</ele>
        <time>2021-05-20T11:13:11.573Z</time>
      </trkpt>
      <trkpt lat="48.72101" lon="2.04862">
        <ele>165</ele>
        <time>2021-05-20T11:13:12.573Z</time>
      </trkpt>
      <trkpt lat="48.72102" lon="2.04861">
        <ele>165</ele>
        <time>2021-05-20T11:13:13.573Z</time>
      </trkpt>
      <trkpt lat="48.72102" lon="2.04859">
        <ele>165</ele>
        <time>2021-05-20T11:13:14.573Z</time>
      </trkpt>
      <trkpt lat="48.72102" lon="2.04858">
        <ele>165</ele>
        <time>2021-05-20T11:13:15.573Z</time>
      </trkpt>
      <trkpt lat="48.72102" lon="2.04857">
        <ele>165</ele>
        <time>2021-05-20T11:13:16.573Z</time>
      </trkpt>
      <trkpt lat="48.72102" lon="2.04856">
        <ele>165</ele>
        <time>2021-05-20T11:13:17.573Z</time>
      </trkpt>
      <trkpt lat="48.72101" lon="2.04855">
        <ele>165</ele>
        <time>2021-05-20T11:13:18.573Z</time>
      </trkpt>
      <trkpt lat="48.72101" lon="2.04854">
        <ele>165</ele>
        <time>2021-05-20T11:13:19.573Z</time>
      </trkpt>
      <trkpt lat="48.72101" lon="2.04852">
        <ele>165</ele>
        <time>2021-05-20T11:13:20.573Z</time>
      </trkpt>
      <trkpt lat="48.721" lon="2.04851">
        <ele>165</ele>
        <time>2021-05-20T11:13:21.573Z</time>
      </trkpt>
      <trkpt lat="48.721" lon="2.0485">
        <ele>165</ele>
        <time>2021-05-20T11:13:22.573Z</time>
      </trkpt>
      <trkpt lat="48.721" lon="2.04849">
        <ele>165</ele>
        <time>2021-05-20T11:13:23.573Z</time>
      </trkpt>
      <trkpt lat="48.72099" lon="2.04847">
        <ele>165</ele>
        <time>2021-05-20T11:13:24.573Z</time>
      </trkpt>
      <trkpt lat="48.72099" lon="2.04846">
        <ele>165</ele>
        <time>2021-05-20T11:13:25.573Z</time>
      </trkpt>
      <trkpt lat="48.72098" lon="2.04844">
        <ele>165</ele>
        <time>2021-05-20T11:13:26.573Z</time>
      </trkpt>
      <trkpt lat="48.72098" lon="2.04842">
        <ele>165</ele>
        <time>2021-05-20T11:13:27.573Z</time>
      </trkpt>
      <trkpt lat="48.72097" lon="2.04841">
        <ele>165</ele>
        <time>2021-05-20T11:13:28.573Z</time>
      </trkpt>
      <trkpt lat="48.72097" lon="2.04839">
        <ele>165</ele>
        <time>2021-05-20T11:13:29.573Z</time>
      </trkpt>
      <trkpt lat="48.72097" lon="2.04837">
        <ele>165</ele>
        <time>2021-05-20T11:13:30.573Z</time>
      </trkpt>
      <trkpt lat="48.72096" lon="2.04835">
        <ele>165</ele>
        <time>2021-05-20T11:13:31.573Z</time>
      </trkpt>
      <trkpt lat="48.72097" lon="2.04833">
        <ele>165</ele>
        <time>2021-05-20T11:13:32.573Z</time>
      </trkpt>
      <trkpt lat="48.72096" lon="2.04831">
        <ele>164</ele>
        <time>2021-05-20T11:13:33.573Z</time>
      </trkpt>
      <trkpt lat="48.72096" lon="2.04829">
        <ele>164</ele>
        <time>2021-05-20T11:13:34.573Z</time>
      </trkpt>
      <trkpt lat="48.72096" lon="2.04827">
        <ele>164</ele>
        <time>2021-05-20T11:13:35.573Z</time>
      </trkpt>
      <trkpt lat="48.72095" lon="2.04826">
        <ele>164</ele>
        <time>2021-05-20T11:13:36.573Z</time>
      </trkpt>
      <trkpt lat="48.72095" lon="2.04824">
        <ele>164</ele>
        <time>2021-05-20T11:13:37.573Z</time>
      </trkpt>
      <trkpt lat="48.72094" lon="2.04821">
        <ele>163</ele>
        <time>2021-05-20T11:13:38.573Z</time>
      </trkpt>
      <trkpt lat="48.72094" lon="2.04819">
        <ele>163</ele>
        <time>2021-05-20T11:13:39.573Z</time>
      </trkpt>
      <trkpt lat="48.72093" lon="2.04816">
        <ele>163</ele>
        <time>2021-05-20T11:13:40.573Z</time>
      </trkpt>
      <trkpt lat="48.72093" lon="2.04814">
        <ele>163</ele>
        <time>2021-05-20T11:13:41.573Z</time>
      </trkpt>
      <trkpt lat="48.72093" lon="2.04812">
        <ele>163</ele>
        <time>2021-05-20T11:13:42.573Z</time>
      </trkpt>
      <trkpt lat="48.72093" lon="2.0481">
        <ele>163</ele>
        <time>2021-05-20T11:13:43.573Z</time>
      </trkpt>
      <trkpt lat="48.72093" lon="2.04809">
        <ele>163</ele>
        <time>2021-05-20T11:13:44.573Z</time>
      </trkpt>
      <trkpt lat="48.72093" lon="2.04807">
        <ele>163</ele>
        <time>2021-05-20T11:13:45.573Z</time>
      </trkpt>
      <trkpt lat="48.72092" lon="2.04806">
        <ele>163</ele>
        <time>2021-05-20T11:13:46.573Z</time>
      </trkpt>
      <trkpt lat="48.72092" lon="2.04804">
        <ele>163</ele>
        <time>2021-05-20T11:13:47.573Z</time>
      </trkpt>
      <trkpt lat="48.72092" lon="2.04802">
        <ele>163</ele>
        <time>2021-05-20T11:13:48.573Z</time>
      </trkpt>
      <trkpt lat="48.72091" lon="2.048">
        <ele>163</ele>
        <time>2021-05-20T11:13:49.573Z</time>
      </trkpt>
      <trkpt lat="48.72091" lon="2.04798">
        <ele>163</ele>
        <time>2021-05-20T11:13:50.573Z</time>
      </trkpt>
      <trkpt lat="48.72092" lon="2.04796">
        <ele>162</ele>
        <time>2021-05-20T11:13:51.573Z</time>
      </trkpt>
      <trkpt lat="48.72092" lon="2.04794">
        <ele>162</ele>
        <time>2021-05-20T11:13:52.573Z</time>
      </trkpt>
      <trkpt lat="48.72091" lon="2.04793">
        <ele>162</ele>
        <time>2021-05-20T11:13:53.573Z</time>
      </trkpt>
      <trkpt lat="48.72091" lon="2.04792">
        <ele>162</ele>
        <time>2021-05-20T11:13:54.573Z</time>
      </trkpt>
      <trkpt lat="48.72091" lon="2.04791">
        <ele>162</ele>
        <time>2021-05-20T11:13:55.573Z</time>
      </trkpt>
      <trkpt lat="48.72091" lon="2.0479">
        <ele>162</ele>
        <time>2021-05-20T11:13:56.573Z</time>
      </trkpt>
      <trkpt lat="48.72091" lon="2.04788">
        <ele>162</ele>
        <time>2021-05-20T11:13:57.573Z</time>
      </trkpt>
      <trkpt lat="48.72091" lon="2.04787">
        <ele>162</ele>
        <time>2021-05-20T11:13:58.573Z</time>
      </trkpt>
      <trkpt lat="48.72091" lon="2.04785">
        <ele>162</ele>
        <time>2021-05-20T11:13:59.573Z</time>
      </trkpt>
      <trkpt lat="48.72091" lon="2.04783">
        <ele>162</ele>
        <time>2021-05-20T11:14:00.573Z</time>
      </trkpt>
      <trkpt lat="48.72092" lon="2.0478">
        <ele>162</ele>
        <time>2021-05-20T11:14:01.573Z</time>
      </trkpt>
      <trkpt lat="48.72092" lon="2.04778">
        <ele>162</ele>
        <time>2021-05-20T11:14:02.573Z</time>
      </trkpt>
      <trkpt lat="48.72092" lon="2.04776">
        <ele>162</ele>
        <time>2021-05-20T11:14:03.573Z</time>
      </trkpt>
      <trkpt lat="48.72092" lon="2.04774">
        <ele>162</ele>
        <time>2021-05-20T11:14:04.573Z</time>
      </trkpt>
      <trkpt lat="48.72092" lon="2.04773">
        <ele>162</ele>
        <time>2021-05-20T11:14:05.573Z</time>
      </trkpt>
      <trkpt lat="48.72092" lon="2.04771">
        <ele>161</ele>
        <time>2021-05-20T11:14:06.573Z</time>
      </trkpt>
      <trkpt lat="48.72092" lon="2.04769">
        <ele>161</ele>
        <time>2021-05-20T11:14:07.573Z</time>
      </trkpt>
      <trkpt lat="48.72092" lon="2.04767">
        <ele>161</ele>
        <time>2021-05-20T11:14:08.573Z</time>
      </trkpt>
      <trkpt lat="48.72092" lon="2.04765">
        <ele>161</ele>
        <time>2021-05-20T11:14:09.573Z</time>
      </trkpt>
      <trkpt lat="48.72092" lon="2.04764">
        <ele>161</ele>
        <time>2021-05-20T11:14:10.573Z</time>
      </trkpt>
      <trkpt lat="48.72092" lon="2.04762">
        <ele>161</ele>
        <time>2021-05-20T11:14:11.573Z</time>
      </trkpt>
      <trkpt lat="48.72092" lon="2.0476">
        <ele>161</ele>
        <time>2021-05-20T11:14:12.573Z</time>
      </trkpt>
      <trkpt lat="48.72092" lon="2.04758">
        <ele>161</ele>
        <time>2021-05-20T11:14:13.573Z</time>
      </trkpt>
      <trkpt lat="48.72092" lon="2.04757">
        <ele>161</ele>
        <time>2021-05-20T11:14:14.573Z</time>
      </trkpt>
      <trkpt lat="48.72093" lon="2.04755">
        <ele>161</ele>
        <time>2021-05-20T11:14:15.573Z</time>
      </trkpt>
      <trkpt lat="48.72093" lon="2.04753">
        <ele>160</ele>
        <time>2021-05-20T11:14:16.573Z</time>
      </trkpt>
      <trkpt lat="48.72093" lon="2.0475">
        <ele>160</ele>
        <time>2021-05-20T11:14:17.573Z</time>
      </trkpt>
      <trkpt lat="48.72093" lon="2.04748">
        <ele>160</ele>
        <time>2021-05-20T11:14:18.573Z</time>
      </trkpt>
      <trkpt lat="48.72093" lon="2.04746">
        <ele>160</ele>
        <time>2021-05-20T11:14:19.573Z</time>
      </trkpt>
      <trkpt lat="48.72093" lon="2.04744">
        <ele>160</ele>
        <time>2021-05-20T11:14:20.573Z</time>
      </trkpt>
      <trkpt lat="48.72092" lon="2.04742">
        <ele>160</ele>
        <time>2021-05-20T11:14:21.573Z</time>
      </trkpt>
      <trkpt lat="48.72092" lon="2.0474">
        <ele>160</ele>
        <time>2021-05-20T11:14:22.573Z</time>
      </trkpt>
      <trkpt lat="48.72092" lon="2.04738">
        <ele>160</ele>
        <time>2021-05-20T11:14:23.573Z</time>
      </trkpt>
      <trkpt lat="48.72092" lon="2.04736">
        <ele>160</ele>
        <time>2021-05-20T11:14:24.573Z</time>
      </trkpt>
      <trkpt lat="48.72092" lon="2.04734">
        <ele>160</ele>
        <time>2021-05-20T11:14:25.573Z</time>
      </trkpt>
      <trkpt lat="48.72091" lon="2.04733">
        <ele>160</ele>
        <time>2021-05-20T11:14:26.573Z</time>
      </trkpt>
      <trkpt lat="48.72091" lon="2.04731">
        <ele>160</ele>
        <time>2021-05-20T11:14:27.573Z</time>
      </trkpt>
      <trkpt lat="48.72091" lon="2.04729">
        <ele>160</ele>
        <time>2021-05-20T11:14:28.573Z</time>
      </trkpt>
      <trkpt lat="48.72091" lon="2.04727">
        <ele>160</ele>
        <time>2021-05-20T11:14:29.573Z</time>
      </trkpt>
      <trkpt lat="48.7209" lon="2.04725">
        <ele>160</ele>
        <time>2021-05-20T11:14:30.573Z</time>
      </trkpt>
      <trkpt lat="48.7209" lon="2.04723">
        <ele>160</ele>
        <time>2021-05-20T11:14:31.573Z</time>
      </trkpt>
      <trkpt lat="48.7209" lon="2.04721">
        <ele>160</ele>
        <time>2021-05-20T11:14:32.573Z</time>
      </trkpt>
      <trkpt lat="48.7209" lon="2.04718">
        <ele>160</ele>
        <time>2021-05-20T11:14:33.573Z</time>
      </trkpt>
      <trkpt lat="48.72089" lon="2.04717">
        <ele>160</ele>
        <time>2021-05-20T11:14:34.573Z</time>
      </trkpt>
      <trkpt lat="48.72088" lon="2.04715">
        <ele>160</ele>
        <time>2021-05-20T11:14:35.573Z</time>
      </trkpt>
      <trkpt lat="48.72088" lon="2.04713">
        <ele>160</ele>
        <time>2021-05-20T11:14:36.573Z</time>
      </trkpt>
      <trkpt lat="48.72087" lon="2.04712">
        <ele>160</ele>
        <time>2021-05-20T11:14:37.573Z</time>
      </trkpt>
      <trkpt lat="48.72087" lon="2.0471">
        <ele>160</ele>
        <time>2021-05-20T11:14:38.573Z</time>
      </trkpt>
      <trkpt lat="48.72087" lon="2.04708">
        <ele>160</ele>
        <time>2021-05-20T11:14:39.573Z</time>
      </trkpt>
      <trkpt lat="48.72087" lon="2.04706">
        <ele>160</ele>
        <time>2021-05-20T11:14:40.573Z</time>
      </trkpt>
      <trkpt lat="48.72086" lon="2.04704">
        <ele>160</ele>
        <time>2021-05-20T11:14:41.573Z</time>
      </trkpt>
      <trkpt lat="48.72086" lon="2.04702">
        <ele>159</ele>
        <time>2021-05-20T11:14:42.573Z</time>
      </trkpt>
      <trkpt lat="48.72086" lon="2.047">
        <ele>159</ele>
        <time>2021-05-20T11:14:43.573Z</time>
      </trkpt>
      <trkpt lat="48.72086" lon="2.04698">
        <ele>159</ele>
        <time>2021-05-20T11:14:44.573Z</time>
      </trkpt>
      <trkpt lat="48.72086" lon="2.04696">
        <ele>159</ele>
        <time>2021-05-20T11:14:45.573Z</time>
      </trkpt>
      <trkpt lat="48.72086" lon="2.04695">
        <ele>159</ele>
        <time>2021-05-20T11:14:46.573Z</time>
      </trkpt>
      <trkpt lat="48.72085" lon="2.04693">
        <ele>159</ele>
        <time>2021-05-20T11:14:47.573Z</time>
      </trkpt>
      <trkpt lat="48.72085" lon="2.04691">
        <ele>159</ele>
        <time>2021-05-20T11:14:48.573Z</time>
      </trkpt>
      <trkpt lat="48.72085" lon="2.04689">
        <ele>158</ele>
        <time>2021-05-20T11:14:49.573Z</time>
      </trkpt>
      <trkpt lat="48.72085" lon="2.04687">
        <ele>158</ele>
        <time>2021-05-20T11:14:50.573Z</time>
      </trkpt>
      <trkpt lat="48.72084" lon="2.04685">
        <ele>158</ele>
        <time>2021-05-20T11:14:51.573Z</time>
      </trkpt>
      <trkpt lat="48.72084" lon="2.04683">
        <ele>158</ele>
        <time>2021-05-20T11:14:52.573Z</time>
      </trkpt>
      <trkpt lat="48.72084" lon="2.04681">
        <ele>158</ele>
        <time>2021-05-20T11:14:53.573Z</time>
      </trkpt>
      <trkpt lat="48.72083" lon="2.04679">
        <ele>158</ele>
        <time>2021-05-20T11:14:54.573Z</time>
      </trkpt>
      <trkpt lat="48.72083" lon="2.04678">
        <ele>158</ele>
        <time>2021-05-20T11:14:55.573Z</time>
      </trkpt>
      <trkpt lat="48.72083" lon="2.04676">
        <ele>158</ele>
        <time>2021-05-20T11:14:56.573Z</time>
      </trkpt>
      <trkpt lat="48.72082" lon="2.04674">
        <ele>159</ele>
        <time>2021-05-20T11:14:57.573Z</time>
      </trkpt>
      <trkpt lat="48.72082" lon="2.04673">
        <ele>159</ele>
        <time>2021-05-20T11:14:58.573Z</time>
      </trkpt>
      <trkpt lat="48.72082" lon="2.04671">
        <ele>159</ele>
        <time>2021-05-20T11:14:59.573Z</time>
      </trkpt>
      <trkpt lat="48.72081" lon="2.04669">
        <ele>159</ele>
        <time>2021-05-20T11:15:00.573Z</time>
      </trkpt>
      <trkpt lat="48.72081" lon="2.04667">
        <ele>159</ele>
        <time>2021-05-20T11:15:01.573Z</time>
      </trkpt>
      <trkpt lat="48.7208" lon="2.04665">
        <ele>159</ele>
        <time>2021-05-20T11:15:02.573Z</time>
      </trkpt>
      <trkpt lat="48.7208" lon="2.04663">
        <ele>159</ele>
        <time>2021-05-20T11:15:03.573Z</time>
      </trkpt>
      <trkpt lat="48.7208" lon="2.0466">
        <ele>159</ele>
        <time>2021-05-20T11:15:04.573Z</time>
      </trkpt>
      <trkpt lat="48.72079" lon="2.04658">
        <ele>159</ele>
        <time>2021-05-20T11:15:05.573Z</time>
      </trkpt>
      <trkpt lat="48.72079" lon="2.04656">
        <ele>159</ele>
        <time>2021-05-20T11:15:06.573Z</time>
      </trkpt>
      <trkpt lat="48.72079" lon="2.04654">
        <ele>159</ele>
        <time>2021-05-20T11:15:07.573Z</time>
      </trkpt>
      <trkpt lat="48.72078" lon="2.04652">
        <ele>159</ele>
        <time>2021-05-20T11:15:08.573Z</time>
      </trkpt>
      <trkpt lat="48.72078" lon="2.0465">
        <ele>159</ele>
        <time>2021-05-20T11:15:09.573Z</time>
      </trkpt>
      <trkpt lat="48.72077" lon="2.04648">
        <ele>159</ele>
        <time>2021-05-20T11:15:10.573Z</time>
      </trkpt>
      <trkpt lat="48.72077" lon="2.04646">
        <ele>159</ele>
        <time>2021-05-20T11:15:11.573Z</time>
      </trkpt>
      <trkpt lat="48.72076" lon="2.04645">
        <ele>159</ele>
        <time>2021-05-20T11:15:12.573Z</time>
      </trkpt>
      <trkpt lat="48.72076" lon="2.04644">
        <ele>159</ele>
        <time>2021-05-20T11:15:13.573Z</time>
      </trkpt>
      <trkpt lat="48.72076" lon="2.04642">
        <ele>159</ele>
        <time>2021-05-20T11:15:14.573Z</time>
      </trkpt>
      <trkpt lat="48.72075" lon="2.0464">
        <ele>159</ele>
        <time>2021-05-20T11:15:15.573Z</time>
      </trkpt>
      <trkpt lat="48.72075" lon="2.04638">
        <ele>159</ele>
        <time>2021-05-20T11:15:16.573Z</time>
      </trkpt>
      <trkpt lat="48.72075" lon="2.04636">
        <ele>159</ele>
        <time>2021-05-20T11:15:17.573Z</time>
      </trkpt>
      <trkpt lat="48.72075" lon="2.04635">
        <ele>159</ele>
        <time>2021-05-20T11:15:18.573Z</time>
      </trkpt>
      <trkpt lat="48.72074" lon="2.04633">
        <ele>159</ele>
        <time>2021-05-20T11:15:19.573Z</time>
      </trkpt>
      <trkpt lat="48.72074" lon="2.04631">
        <ele>159</ele>
        <time>2021-05-20T11:15:20.573Z</time>
      </trkpt>
      <trkpt lat="48.72074" lon="2.0463">
        <ele>159</ele>
        <time>2021-05-20T11:15:21.573Z</time>
      </trkpt>
      <trkpt lat="48.72074" lon="2.04628">
        <ele>159</ele>
        <time>2021-05-20T11:15:22.573Z</time>
      </trkpt>
      <trkpt lat="48.72073" lon="2.04627">
        <ele>159</ele>
        <time>2021-05-20T11:15:23.573Z</time>
      </trkpt>
      <trkpt lat="48.72073" lon="2.04625">
        <ele>159</ele>
        <time>2021-05-20T11:15:24.573Z</time>
      </trkpt>
      <trkpt lat="48.72073" lon="2.04623">
        <ele>160</ele>
        <time>2021-05-20T11:15:25.573Z</time>
      </trkpt>
      <trkpt lat="48.72073" lon="2.04622">
        <ele>160</ele>
        <time>2021-05-20T11:15:26.573Z</time>
      </trkpt>
      <trkpt lat="48.72073" lon="2.04621">
        <ele>160</ele>
        <time>2021-05-20T11:15:27.573Z</time>
      </trkpt>
      <trkpt lat="48.72073" lon="2.04619">
        <ele>160</ele>
        <time>2021-05-20T11:15:28.573Z</time>
      </trkpt>
      <trkpt lat="48.72073" lon="2.04617">
        <ele>160</ele>
        <time>2021-05-20T11:15:29.573Z</time>
      </trkpt>
      <trkpt lat="48.72073" lon="2.04615">
        <ele>160</ele>
        <time>2021-05-20T11:15:30.573Z</time>
      </trkpt>
      <trkpt lat="48.72073" lon="2.04613">
        <ele>160</ele>
        <time>2021-05-20T11:15:31.573Z</time>
      </trkpt>
      <trkpt lat="48.72073" lon="2.04612">
        <ele>160</ele>
        <time>2021-05-20T11:15:32.573Z</time>
      </trkpt>
      <trkpt lat="48.72072" lon="2.0461">
        <ele>159</ele>
        <time>2021-05-20T11:15:33.573Z</time>
      </trkpt>
      <trkpt lat="48.72072" lon="2.04608">
        <ele>159</ele>
        <time>2021-05-20T11:15:34.573Z</time>
      </trkpt>
      <trkpt lat="48.72072" lon="2.04606">
        <ele>159</ele>
        <time>2021-05-20T11:15:35.573Z</time>
      </trkpt>
      <trkpt lat="48.72071" lon="2.04603">
        <ele>159</ele>
        <time>2021-05-20T11:15:36.573Z</time>
      </trkpt>
      <trkpt lat="48.72071" lon="2.04601">
        <ele>159</ele>
        <time>2021-05-20T11:15:37.573Z</time>
      </trkpt>
      <trkpt lat="48.7207" lon="2.04598">
        <ele>159</ele>
        <time>2021-05-20T11:15:38.573Z</time>
      </trkpt>
      <trkpt lat="48.7207" lon="2.04596">
        <ele>158</ele>
        <time>2021-05-20T11:15:39.573Z</time>
      </trkpt>
      <trkpt lat="48.72069" lon="2.04594">
        <ele>158</ele>
        <time>2021-05-20T11:15:40.573Z</time>
      </trkpt>
      <trkpt lat="48.72069" lon="2.04592">
        <ele>158</ele>
        <time>2021-05-20T11:15:41.573Z</time>
      </trkpt>
      <trkpt lat="48.72069" lon="2.0459">
        <ele>158</ele>
        <time>2021-05-20T11:15:42.573Z</time>
      </trkpt>
      <trkpt lat="48.72069" lon="2.04588">
        <ele>158</ele>
        <time>2021-05-20T11:15:43.573Z</time>
      </trkpt>
      <trkpt lat="48.72068" lon="2.04586">
        <ele>158</ele>
        <time>2021-05-20T11:15:44.573Z</time>
      </trkpt>
      <trkpt lat="48.72068" lon="2.04584">
        <ele>158</ele>
        <time>2021-05-20T11:15:45.573Z</time>
      </trkpt>
      <trkpt lat="48.72068" lon="2.04582">
        <ele>158</ele>
        <time>2021-05-20T11:15:46.573Z</time>
      </trkpt>
      <trkpt lat="48.72068" lon="2.04581">
        <ele>158</ele>
        <time>2021-05-20T11:15:47.573Z</time>
      </trkpt>
      <trkpt lat="48.72067" lon="2.04579">
        <ele>158</ele>
        <time>2021-05-20T11:15:48.573Z</time>
      </trkpt>
      <trkpt lat="48.72067" lon="2.04577">
        <ele>158</ele>
        <time>2021-05-20T11:15:49.573Z</time>
      </trkpt>
      <trkpt lat="48.72067" lon="2.04575">
        <ele>158</ele>
        <time>2021-05-20T11:15:50.573Z</time>
      </trkpt>
      <trkpt lat="48.72067" lon="2.04573">
        <ele>158</ele>
        <time>2021-05-20T11:15:51.573Z</time>
      </trkpt>
      <trkpt lat="48.72067" lon="2.04571">
        <ele>158</ele>
        <time>2021-05-20T11:15:52.573Z</time>
      </trkpt>
      <trkpt lat="48.72067" lon="2.0457">
        <ele>158</ele>
        <time>2021-05-20T11:15:53.573Z</time>
      </trkpt>
      <trkpt lat="48.72067" lon="2.04568">
        <ele>158</ele>
        <time>2021-05-20T11:15:54.573Z</time>
      </trkpt>
      <trkpt lat="48.72067" lon="2.04566">
        <ele>158</ele>
        <time>2021-05-20T11:15:55.573Z</time>
      </trkpt>
      <trkpt lat="48.72066" lon="2.04564">
        <ele>158</ele>
        <time>2021-05-20T11:15:56.573Z</time>
      </trkpt>
      <trkpt lat="48.72066" lon="2.04562">
        <ele>158</ele>
        <time>2021-05-20T11:15:57.573Z</time>
      </trkpt>
      <trkpt lat="48.72065" lon="2.0456">
        <ele>158</ele>
        <time>2021-05-20T11:15:58.573Z</time>
      </trkpt>
      <trkpt lat="48.72065" lon="2.04559">
        <ele>157</ele>
        <time>2021-05-20T11:15:59.573Z</time>
      </trkpt>
      <trkpt lat="48.72065" lon="2.04557">
        <ele>157</ele>
        <time>2021-05-20T11:16:00.573Z</time>
      </trkpt>
      <trkpt lat="48.72065" lon="2.04556">
        <ele>157</ele>
        <time>2021-05-20T11:16:01.573Z</time>
      </trkpt>
      <trkpt lat="48.72065" lon="2.04554">
        <ele>157</ele>
        <time>2021-05-20T11:16:02.573Z</time>
      </trkpt>
      <trkpt lat="48.72065" lon="2.04552">
        <ele>157</ele>
        <time>2021-05-20T11:16:03.573Z</time>
      </trkpt>
      <trkpt lat="48.72065" lon="2.0455">
        <ele>157</ele>
        <time>2021-05-20T11:16:04.573Z</time>
      </trkpt>
      <trkpt lat="48.72065" lon="2.04549">
        <ele>157</ele>
        <time>2021-05-20T11:16:05.573Z</time>
      </trkpt>
      <trkpt lat="48.72065" lon="2.04547">
        <ele>157</ele>
        <time>2021-05-20T11:16:06.573Z</time>
      </trkpt>
      <trkpt lat="48.72065" lon="2.04545">
        <ele>157</ele>
        <time>2021-05-20T11:16:07.573Z</time>
      </trkpt>
      <trkpt lat="48.72065" lon="2.04543">
        <ele>157</ele>
        <time>2021-05-20T11:16:08.573Z</time>
      </trkpt>
      <trkpt lat="48.72066" lon="2.04541">
        <ele>157</ele>
        <time>2021-05-20T11:16:09.573Z</time>
      </trkpt>
      <trkpt lat="48.72066" lon="2.04539">
        <ele>157</ele>
        <time>2021-05-20T11:16:10.573Z</time>
      </trkpt>
      <trkpt lat="48.72066" lon="2.04537">
        <ele>157</ele>
        <time>2021-05-20T11:16:11.573Z</time>
      </trkpt>
      <trkpt lat="48.72066" lon="2.04535">
        <ele>157</ele>
        <time>2021-05-20T11:16:12.573Z</time>
      </trkpt>
      <trkpt lat="48.72067" lon="2.04533">
        <ele>157</ele>
        <time>2021-05-20T11:16:13.573Z</time>
      </trkpt>
      <trkpt lat="48.72067" lon="2.0453">
        <ele>157</ele>
        <time>2021-05-20T11:16:14.573Z</time>
      </trkpt>
      <trkpt lat="48.72068" lon="2.04528">
        <ele>157</ele>
        <time>2021-05-20T11:16:15.573Z</time>
      </trkpt>
      <trkpt lat="48.72068" lon="2.04526">
        <ele>157</ele>
        <time>2021-05-20T11:16:16.573Z</time>
      </trkpt>
      <trkpt lat="48.72069" lon="2.04524">
        <ele>157</ele>
        <time>2021-05-20T11:16:17.573Z</time>
      </trkpt>
      <trkpt lat="48.72069" lon="2.04522">
        <ele>157</ele>
        <time>2021-05-20T11:16:18.573Z</time>
      </trkpt>
      <trkpt lat="48.72069" lon="2.04521">
        <ele>158</ele>
        <time>2021-05-20T11:16:19.573Z</time>
      </trkpt>
      <trkpt lat="48.72069" lon="2.04519">
        <ele>158</ele>
        <time>2021-05-20T11:16:20.573Z</time>
      </trkpt>
      <trkpt lat="48.7207" lon="2.04517">
        <ele>158</ele>
        <time>2021-05-20T11:16:21.573Z</time>
      </trkpt>
      <trkpt lat="48.7207" lon="2.04515">
        <ele>158</ele>
        <time>2021-05-20T11:16:22.573Z</time>
      </trkpt>
      <trkpt lat="48.7207" lon="2.04513">
        <ele>158</ele>
        <time>2021-05-20T11:16:23.573Z</time>
      </trkpt>
      <trkpt lat="48.7207" lon="2.04511">
        <ele>158</ele>
        <time>2021-05-20T11:16:24.573Z</time>
      </trkpt>
      <trkpt lat="48.72071" lon="2.04509">
        <ele>159</ele>
        <time>2021-05-20T11:16:25.573Z</time>
      </trkpt>
      <trkpt lat="48.72071" lon="2.04508">
        <ele>159</ele>
        <time>2021-05-20T11:16:26.573Z</time>
      </trkpt>
      <trkpt lat="48.72071" lon="2.04506">
        <ele>159</ele>
        <time>2021-05-20T11:16:27.573Z</time>
      </trkpt>
      <trkpt lat="48.72071" lon="2.04505">
        <ele>159</ele>
        <time>2021-05-20T11:16:28.573Z</time>
      </trkpt>
      <trkpt lat="48.72072" lon="2.04503">
        <ele>159</ele>
        <time>2021-05-20T11:16:29.573Z</time>
      </trkpt>
      <trkpt lat="48.72072" lon="2.04502">
        <ele>160</ele>
        <time>2021-05-20T11:16:30.573Z</time>
      </trkpt>
      <trkpt lat="48.72072" lon="2.04501">
        <ele>160</ele>
        <time>2021-05-20T11:16:31.573Z</time>
      </trkpt>
      <trkpt lat="48.72073" lon="2.04499">
        <ele>160</ele>
        <time>2021-05-20T11:16:32.573Z</time>
      </trkpt>
      <trkpt lat="48.72073" lon="2.04498">
        <ele>160</ele>
        <time>2021-05-20T11:16:33.573Z</time>
      </trkpt>
      <trkpt lat="48.72073" lon="2.04497">
        <ele>160</ele>
        <time>2021-05-20T11:16:34.573Z</time>
      </trkpt>
      <trkpt lat="48.72074" lon="2.04495">
        <ele>160</ele>
        <time>2021-05-20T11:16:35.573Z</time>
      </trkpt>
      <trkpt lat="48.72074" lon="2.04493">
        <ele>160</ele>
        <time>2021-05-20T11:16:36.573Z</time>
      </trkpt>
      <trkpt lat="48.72074" lon="2.04492">
        <ele>160</ele>
        <time>2021-05-20T11:16:37.573Z</time>
      </trkpt>
      <trkpt lat="48.72075" lon="2.0449">
        <ele>161</ele>
        <time>2021-05-20T11:16:38.573Z</time>
      </trkpt>
      <trkpt lat="48.72075" lon="2.04487">
        <ele>161</ele>
        <time>2021-05-20T11:16:39.573Z</time>
      </trkpt>
      <trkpt lat="48.72076" lon="2.04484">
        <ele>161</ele>
        <time>2021-05-20T11:16:40.573Z</time>
      </trkpt>
      <trkpt lat="48.72076" lon="2.04482">
        <ele>161</ele>
        <time>2021-05-20T11:16:41.573Z</time>
      </trkpt>
      <trkpt lat="48.72077" lon="2.0448">
        <ele>161</ele>
        <time>2021-05-20T11:16:42.573Z</time>
      </trkpt>
      <trkpt lat="48.72077" lon="2.04478">
        <ele>161</ele>
        <time>2021-05-20T11:16:43.573Z</time>
      </trkpt>
      <trkpt lat="48.72077" lon="2.04476">
        <ele>161</ele>
        <time>2021-05-20T11:16:44.573Z</time>
      </trkpt>
      <trkpt lat="48.72078" lon="2.04474">
        <ele>161</ele>
        <time>2021-05-20T11:16:45.573Z</time>
      </trkpt>
      <trkpt lat="48.72079" lon="2.04472">
        <ele>162</ele>
        <time>2021-05-20T11:16:46.573Z</time>
      </trkpt>
      <trkpt lat="48.72079" lon="2.0447">
        <ele>162</ele>
        <time>2021-05-20T11:16:47.573Z</time>
      </trkpt>
      <trkpt lat="48.7208" lon="2.04468">
        <ele>162</ele>
        <time>2021-05-20T11:16:48.573Z</time>
      </trkpt>
      <trkpt lat="48.7208" lon="2.04466">
        <ele>162</ele>
        <time>2021-05-20T11:16:49.573Z</time>
      </trkpt>
      <trkpt lat="48.72081" lon="2.04464">
        <ele>162</ele>
        <time>2021-05-20T11:16:50.573Z</time>
      </trkpt>
      <trkpt lat="48.72081" lon="2.04463">
        <ele>162</ele>
        <time>2021-05-20T11:16:51.573Z</time>
      </trkpt>
      <trkpt lat="48.72082" lon="2.04461">
        <ele>162</ele>
        <time>2021-05-20T11:16:52.573Z</time>
      </trkpt>
      <trkpt lat="48.72082" lon="2.04459">
        <ele>162</ele>
        <time>2021-05-20T11:16:53.573Z</time>
      </trkpt>
      <trkpt lat="48.72082" lon="2.04457">
        <ele>162</ele>
        <time>2021-05-20T11:16:54.573Z</time>
      </trkpt>
      <trkpt lat="48.72083" lon="2.04456">
        <ele>162</ele>
        <time>2021-05-20T11:16:55.573Z</time>
      </trkpt>
      <trkpt lat="48.72083" lon="2.04454">
        <ele>163</ele>
        <time>2021-05-20T11:16:56.573Z</time>
      </trkpt>
      <trkpt lat="48.72084" lon="2.04452">
        <ele>163</ele>
        <time>2021-05-20T11:16:57.573Z</time>
      </trkpt>
      <trkpt lat="48.72084" lon="2.0445">
        <ele>163</ele>
        <time>2021-05-20T11:16:58.573Z</time>
      </trkpt>
      <trkpt lat="48.72084" lon="2.04449">
        <ele>163</ele>
        <time>2021-05-20T11:16:59.573Z</time>
      </trkpt>
      <trkpt lat="48.72085" lon="2.04447">
        <ele>163</ele>
        <time>2021-05-20T11:17:00.573Z</time>
      </trkpt>
      <trkpt lat="48.72086" lon="2.04445">
        <ele>163</ele>
        <time>2021-05-20T11:17:01.573Z</time>
      </trkpt>
      <trkpt lat="48.72086" lon="2.04443">
        <ele>163</ele>
        <time>2021-05-20T11:17:02.573Z</time>
      </trkpt>
      <trkpt lat="48.72087" lon="2.04441">
        <ele>163</ele>
        <time>2021-05-20T11:17:03.573Z</time>
      </trkpt>
      <trkpt lat="48.72088" lon="2.04439">
        <ele>163</ele>
        <time>2021-05-20T11:17:04.573Z</time>
      </trkpt>
      <trkpt lat="48.72088" lon="2.04438">
        <ele>163</ele>
        <time>2021-05-20T11:17:05.573Z</time>
      </trkpt>
      <trkpt lat="48.72089" lon="2.04436">
        <ele>163</ele>
        <time>2021-05-20T11:17:06.573Z</time>
      </trkpt>
      <trkpt lat="48.72089" lon="2.04434">
        <ele>163</ele>
        <time>2021-05-20T11:17:07.573Z</time>
      </trkpt>
      <trkpt lat="48.72089" lon="2.04432">
        <ele>163</ele>
        <time>2021-05-20T11:17:08.573Z</time>
      </trkpt>
      <trkpt lat="48.7209" lon="2.0443">
        <ele>163</ele>
        <time>2021-05-20T11:17:09.573Z</time>
      </trkpt>
      <trkpt lat="48.7209" lon="2.04428">
        <ele>163</ele>
        <time>2021-05-20T11:17:10.573Z</time>
      </trkpt>
      <trkpt lat="48.7209" lon="2.04426">
        <ele>163</ele>
        <time>2021-05-20T11:17:11.573Z</time>
      </trkpt>
      <trkpt lat="48.7209" lon="2.04424">
        <ele>163</ele>
        <time>2021-05-20T11:17:12.573Z</time>
      </trkpt>
      <trkpt lat="48.7209" lon="2.04423">
        <ele>163</ele>
        <time>2021-05-20T11:17:13.573Z</time>
      </trkpt>
      <trkpt lat="48.7209" lon="2.04421">
        <ele>164</ele>
        <time>2021-05-20T11:17:14.573Z</time>
      </trkpt>
      <trkpt lat="48.7209" lon="2.04419">
        <ele>164</ele>
        <time>2021-05-20T11:17:15.573Z</time>
      </trkpt>
      <trkpt lat="48.7209" lon="2.04417">
        <ele>164</ele>
        <time>2021-05-20T11:17:16.573Z</time>
      </trkpt>
      <trkpt lat="48.7209" lon="2.04415">
        <ele>164</ele>
        <time>2021-05-20T11:17:17.573Z</time>
      </trkpt>
      <trkpt lat="48.7209" lon="2.04414">
        <ele>164</ele>
        <time>2021-05-20T11:17:18.573Z</time>
      </trkpt>
      <trkpt lat="48.7209" lon="2.04412">
        <ele>163</ele>
        <time>2021-05-20T11:17:19.573Z</time>
      </trkpt>
      <trkpt lat="48.7209" lon="2.0441">
        <ele>163</ele>
        <time>2021-05-20T11:17:20.573Z</time>
      </trkpt>
      <trkpt lat="48.7209" lon="2.04407">
        <ele>164</ele>
        <time>2021-05-20T11:17:21.573Z</time>
      </trkpt>
      <trkpt lat="48.7209" lon="2.04405">
        <ele>164</ele>
        <time>2021-05-20T11:17:22.573Z</time>
      </trkpt>
      <trkpt lat="48.7209" lon="2.04403">
        <ele>164</ele>
        <time>2021-05-20T11:17:23.573Z</time>
      </trkpt>
      <trkpt lat="48.72089" lon="2.04401">
        <ele>164</ele>
        <time>2021-05-20T11:17:24.573Z</time>
      </trkpt>
      <trkpt lat="48.72089" lon="2.04399">
        <ele>164</ele>
        <time>2021-05-20T11:17:25.573Z</time>
      </trkpt>
      <trkpt lat="48.72089" lon="2.04396">
        <ele>164</ele>
        <time>2021-05-20T11:17:26.573Z</time>
      </trkpt>
      <trkpt lat="48.7209" lon="2.04394">
        <ele>163</ele>
        <time>2021-05-20T11:17:27.573Z</time>
      </trkpt>
      <trkpt lat="48.72089" lon="2.04392">
        <ele>163</ele>
        <time>2021-05-20T11:17:28.573Z</time>
      </trkpt>
      <trkpt lat="48.72089" lon="2.0439">
        <ele>163</ele>
        <time>2021-05-20T11:17:29.573Z</time>
      </trkpt>
      <trkpt lat="48.72089" lon="2.04389">
        <ele>163</ele>
        <time>2021-05-20T11:17:30.573Z</time>
      </trkpt>
      <trkpt lat="48.7209" lon="2.04387">
        <ele>163</ele>
        <time>2021-05-20T11:17:31.573Z</time>
      </trkpt>
      <trkpt lat="48.7209" lon="2.04386">
        <ele>163</ele>
        <time>2021-05-20T11:17:32.573Z</time>
      </trkpt>
      <trkpt lat="48.7209" lon="2.04384">
        <ele>163</ele>
        <time>2021-05-20T11:17:33.573Z</time>
      </trkpt>
      <trkpt lat="48.72091" lon="2.04382">
        <ele>163</ele>
        <time>2021-05-20T11:17:34.573Z</time>
      </trkpt>
      <trkpt lat="48.72091" lon="2.04381">
        <ele>163</ele>
        <time>2021-05-20T11:17:35.573Z</time>
      </trkpt>
      <trkpt lat="48.72092" lon="2.04379">
        <ele>163</ele>
        <time>2021-05-20T11:17:36.573Z</time>
      </trkpt>
      <trkpt lat="48.72093" lon="2.04377">
        <ele>164</ele>
        <time>2021-05-20T11:17:37.573Z</time>
      </trkpt>
      <trkpt lat="48.72093" lon="2.04375">
        <ele>164</ele>
        <time>2021-05-20T11:17:38.573Z</time>
      </trkpt>
      <trkpt lat="48.72094" lon="2.04374">
        <ele>164</ele>
        <time>2021-05-20T11:17:39.573Z</time>
      </trkpt>
      <trkpt lat="48.72095" lon="2.04373">
        <ele>164</ele>
        <time>2021-05-20T11:17:40.573Z</time>
      </trkpt>
      <trkpt lat="48.72095" lon="2.04371">
        <ele>164</ele>
        <time>2021-05-20T11:17:41.573Z</time>
      </trkpt>
      <trkpt lat="48.72096" lon="2.0437">
        <ele>164</ele>
        <time>2021-05-20T11:17:42.573Z</time>
      </trkpt>
      <trkpt lat="48.72096" lon="2.04368">
        <ele>164</ele>
        <time>2021-05-20T11:17:43.573Z</time>
      </trkpt>
      <trkpt lat="48.72097" lon="2.04366">
        <ele>165</ele>
        <time>2021-05-20T11:17:44.573Z</time>
      </trkpt>
      <trkpt lat="48.72097" lon="2.04364">
        <ele>165</ele>
        <time>2021-05-20T11:17:45.573Z</time>
      </trkpt>
      <trkpt lat="48.72098" lon="2.04362">
        <ele>165</ele>
        <time>2021-05-20T11:17:46.573Z</time>
      </trkpt>
      <trkpt lat="48.72098" lon="2.0436">
        <ele>165</ele>
        <time>2021-05-20T11:17:47.573Z</time>
      </trkpt>
      <trkpt lat="48.72098" lon="2.04358">
        <ele>165</ele>
        <time>2021-05-20T11:17:48.573Z</time>
      </trkpt>
      <trkpt lat="48.72098" lon="2.04356">
        <ele>165</ele>
        <time>2021-05-20T11:17:49.573Z</time>
      </trkpt>
      <trkpt lat="48.72099" lon="2.04354">
        <ele>166</ele>
        <time>2021-05-20T11:17:50.573Z</time>
      </trkpt>
      <trkpt lat="48.72099" lon="2.04352">
        <ele>166</ele>
        <time>2021-05-20T11:17:51.573Z</time>
      </trkpt>
      <trkpt lat="48.72099" lon="2.0435">
        <ele>166</ele>
        <time>2021-05-20T11:17:52.573Z</time>
      </trkpt>
      <trkpt lat="48.72099" lon="2.04348">
        <ele>166</ele>
        <time>2021-05-20T11:17:53.573Z</time>
      </trkpt>
      <trkpt lat="48.72099" lon="2.04346">
        <ele>166</ele>
        <time>2021-05-20T11:17:54.573Z</time>
      </trkpt>
      <trkpt lat="48.721" lon="2.04344">
        <ele>166</ele>
        <time>2021-05-20T11:17:55.573Z</time>
      </trkpt>
      <trkpt lat="48.721" lon="2.04343">
        <ele>167</ele>
        <time>2021-05-20T11:17:56.573Z</time>
      </trkpt>
      <trkpt lat="48.72101" lon="2.04341">
        <ele>167</ele>
        <time>2021-05-20T11:17:57.573Z</time>
      </trkpt>
      <trkpt lat="48.72101" lon="2.04339">
        <ele>167</ele>
        <time>2021-05-20T11:17:58.573Z</time>
      </trkpt>
      <trkpt lat="48.72101" lon="2.04337">
        <ele>167</ele>
        <time>2021-05-20T11:17:59.573Z</time>
      </trkpt>
      <trkpt lat="48.72102" lon="2.04335">
        <ele>167</ele>
        <time>2021-05-20T11:18:00.573Z</time>
      </trkpt>
      <trkpt lat="48.72102" lon="2.04334">
        <ele>167</ele>
        <time>2021-05-20T11:18:01.573Z</time>
      </trkpt>
      <trkpt lat="48.72102" lon="2.04332">
        <ele>167</ele>
        <time>2021-05-20T11:18:02.573Z</time>
      </trkpt>
      <trkpt lat="48.72103" lon="2.0433">
        <ele>167</ele>
        <time>2021-05-20T11:18:03.573Z</time>
      </trkpt>
      <trkpt lat="48.72103" lon="2.04328">
        <ele>166</ele>
        <time>2021-05-20T11:18:04.573Z</time>
      </trkpt>
      <trkpt lat="48.72103" lon="2.04326">
        <ele>166</ele>
        <time>2021-05-20T11:18:05.573Z</time>
      </trkpt>
      <trkpt lat="48.72103" lon="2.04324">
        <ele>166</ele>
        <time>2021-05-20T11:18:06.573Z</time>
      </trkpt>
      <trkpt lat="48.72103" lon="2.04322">
        <ele>166</ele>
        <time>2021-05-20T11:18:07.573Z</time>
      </trkpt>
      <trkpt lat="48.72104" lon="2.0432">
        <ele>166</ele>
        <time>2021-05-20T11:18:08.573Z</time>
      </trkpt>
      <trkpt lat="48.72104" lon="2.04318">
        <ele>166</ele>
        <time>2021-05-20T11:18:09.573Z</time>
      </trkpt>
      <trkpt lat="48.72104" lon="2.04317">
        <ele>166</ele>
        <time>2021-05-20T11:18:10.573Z</time>
      </trkpt>
      <trkpt lat="48.72104" lon="2.04315">
        <ele>166</ele>
        <time>2021-05-20T11:18:11.573Z</time>
      </trkpt>
      <trkpt lat="48.72104" lon="2.04313">
        <ele>166</ele>
        <time>2021-05-20T11:18:12.573Z</time>
      </trkpt>
      <trkpt lat="48.72104" lon="2.04312">
        <ele>166</ele>
        <time>2021-05-20T11:18:13.573Z</time>
      </trkpt>
      <trkpt lat="48.72104" lon="2.04309">
        <ele>166</ele>
        <time>2021-05-20T11:18:14.573Z</time>
      </trkpt>
      <trkpt lat="48.72104" lon="2.04308">
        <ele>166</ele>
        <time>2021-05-20T11:18:15.573Z</time>
      </trkpt>
      <trkpt lat="48.72105" lon="2.04306">
        <ele>166</ele>
        <time>2021-05-20T11:18:16.573Z</time>
      </trkpt>
      <trkpt lat="48.72105" lon="2.04305">
        <ele>166</ele>
        <time>2021-05-20T11:18:17.573Z</time>
      </trkpt>
      <trkpt lat="48.72104" lon="2.04303">
        <ele>166</ele>
        <time>2021-05-20T11:18:18.573Z</time>
      </trkpt>
      <trkpt lat="48.72104" lon="2.04302">
        <ele>166</ele>
        <time>2021-05-20T11:18:19.573Z</time>
      </trkpt>
      <trkpt lat="48.72105" lon="2.043">
        <ele>166</ele>
        <time>2021-05-20T11:18:20.573Z</time>
      </trkpt>
      <trkpt lat="48.72105" lon="2.04298">
        <ele>166</ele>
        <time>2021-05-20T11:18:21.573Z</time>
      </trkpt>
      <trkpt lat="48.72105" lon="2.04296">
        <ele>166</ele>
        <time>2021-05-20T11:18:22.573Z</time>
      </trkpt>
      <trkpt lat="48.72105" lon="2.04294">
        <ele>166</ele>
        <time>2021-05-20T11:18:23.573Z</time>
      </trkpt>
      <trkpt lat="48.72104" lon="2.04292">
        <ele>166</ele>
        <time>2021-05-20T11:18:24.573Z</time>
      </trkpt>
      <trkpt lat="48.72104" lon="2.04291">
        <ele>166</ele>
        <time>2021-05-20T11:18:25.573Z</time>
      </trkpt>
      <trkpt lat="48.72104" lon="2.04289">
        <ele>166</ele>
        <time>2021-05-20T11:18:26.573Z</time>
      </trkpt>
      <trkpt lat="48.72104" lon="2.04287">
        <ele>166</ele>
        <time>2021-05-20T11:18:27.573Z</time>
      </trkpt>
      <trkpt lat="48.72104" lon="2.04286">
        <ele>166</ele>
        <time>2021-05-20T11:18:28.573Z</time>
      </trkpt>
      <trkpt lat="48.72105" lon="2.04284">
        <ele>166</ele>
        <time>2021-05-20T11:18:29.573Z</time>
      </trkpt>
      <trkpt lat="48.72105" lon="2.04282">
        <ele>166</ele>
        <time>2021-05-20T11:18:30.573Z</time>
      </trkpt>
      <trkpt lat="48.72105" lon="2.0428">
        <ele>166</ele>
        <time>2021-05-20T11:18:31.573Z</time>
      </trkpt>
      <trkpt lat="48.72105" lon="2.04278">
        <ele>166</ele>
        <time>2021-05-20T11:18:32.573Z</time>
      </trkpt>
      <trkpt lat="48.72105" lon="2.04276">
        <ele>166</ele>
        <time>2021-05-20T11:18:33.573Z</time>
      </trkpt>
      <trkpt lat="48.72106" lon="2.04275">
        <ele>166</ele>
        <time>2021-05-20T11:18:34.573Z</time>
      </trkpt>
      <trkpt lat="48.72106" lon="2.04273">
        <ele>166</ele>
        <time>2021-05-20T11:18:35.573Z</time>
      </trkpt>
      <trkpt lat="48.72107" lon="2.04271">
        <ele>166</ele>
        <time>2021-05-20T11:18:36.573Z</time>
      </trkpt>
      <trkpt lat="48.72107" lon="2.04269">
        <ele>166</ele>
        <time>2021-05-20T11:18:37.573Z</time>
      </trkpt>
      <trkpt lat="48.72107" lon="2.04267">
        <ele>166</ele>
        <time>2021-05-20T11:18:38.573Z</time>
      </trkpt>
      <trkpt lat="48.72107" lon="2.04265">
        <ele>166</ele>
        <time>2021-05-20T11:18:39.573Z</time>
      </trkpt>
      <trkpt lat="48.72108" lon="2.04264">
        <ele>166</ele>
        <time>2021-05-20T11:18:40.573Z</time>
      </trkpt>
      <trkpt lat="48.72108" lon="2.04262">
        <ele>166</ele>
        <time>2021-05-20T11:18:41.573Z</time>
      </trkpt>
      <trkpt lat="48.72108" lon="2.0426">
        <ele>167</ele>
        <time>2021-05-20T11:18:42.573Z</time>
      </trkpt>
      <trkpt lat="48.72108" lon="2.04258">
        <ele>167</ele>
        <time>2021-05-20T11:18:43.573Z</time>
      </trkpt>
      <trkpt lat="48.72108" lon="2.04257">
        <ele>167</ele>
        <time>2021-05-20T11:18:44.573Z</time>
      </trkpt>
      <trkpt lat="48.72109" lon="2.04255">
        <ele>167</ele>
        <time>2021-05-20T11:18:45.573Z</time>
      </trkpt>
      <trkpt lat="48.72109" lon="2.04254">
        <ele>167</ele>
        <time>2021-05-20T11:18:46.573Z</time>
      </trkpt>
      <trkpt lat="48.7211" lon="2.04253">
        <ele>167</ele>
        <time>2021-05-20T11:18:47.573Z</time>
      </trkpt>
      <trkpt lat="48.7211" lon="2.04251">
        <ele>167</ele>
        <time>2021-05-20T11:18:48.573Z</time>
      </trkpt>
      <trkpt lat="48.7211" lon="2.0425">
        <ele>167</ele>
        <time>2021-05-20T11:18:49.573Z</time>
      </trkpt>
      <trkpt lat="48.72111" lon="2.04248">
        <ele>167</ele>
        <time>2021-05-20T11:18:50.573Z</time>
      </trkpt>
      <trkpt lat="48.72111" lon="2.04246">
        <ele>167</ele>
        <time>2021-05-20T11:18:51.573Z</time>
      </trkpt>
      <trkpt lat="48.72112" lon="2.04244">
        <ele>167</ele>
        <time>2021-05-20T11:18:52.573Z</time>
      </trkpt>
      <trkpt lat="48.72112" lon="2.04243">
        <ele>167</ele>
        <time>2021-05-20T11:18:53.573Z</time>
      </trkpt>
      <trkpt lat="48.72113" lon="2.04241">
        <ele>167</ele>
        <time>2021-05-20T11:18:54.573Z</time>
      </trkpt>
      <trkpt lat="48.72114" lon="2.04239">
        <ele>167</ele>
        <time>2021-05-20T11:18:55.573Z</time>
      </trkpt>
      <trkpt lat="48.72114" lon="2.04237">
        <ele>167</ele>
        <time>2021-05-20T11:18:56.573Z</time>
      </trkpt>
      <trkpt lat="48.72115" lon="2.04236">
        <ele>167</ele>
        <time>2021-05-20T11:18:57.573Z</time>
      </trkpt>
      <trkpt lat="48.72116" lon="2.04234">
        <ele>167</ele>
        <time>2021-05-20T11:18:58.573Z</time>
      </trkpt>
      <trkpt lat="48.72116" lon="2.04232">
        <ele>167</ele>
        <time>2021-05-20T11:18:59.573Z</time>
      </trkpt>
      <trkpt lat="48.72117" lon="2.0423">
        <ele>167</ele>
        <time>2021-05-20T11:19:00.573Z</time>
      </trkpt>
      <trkpt lat="48.72118" lon="2.04228">
        <ele>167</ele>
        <time>2021-05-20T11:19:01.573Z</time>
      </trkpt>
      <trkpt lat="48.72118" lon="2.04227">
        <ele>167</ele>
        <time>2021-05-20T11:19:02.573Z</time>
      </trkpt>
      <trkpt lat="48.72119" lon="2.04226">
        <ele>167</ele>
        <time>2021-05-20T11:19:03.573Z</time>
      </trkpt>
      <trkpt lat="48.7212" lon="2.04225">
        <ele>167</ele>
        <time>2021-05-20T11:19:04.573Z</time>
      </trkpt>
      <trkpt lat="48.72121" lon="2.04223">
        <ele>167</ele>
        <time>2021-05-20T11:19:05.573Z</time>
      </trkpt>
      <trkpt lat="48.72121" lon="2.04222">
        <ele>167</ele>
        <time>2021-05-20T11:19:06.573Z</time>
      </trkpt>
      <trkpt lat="48.72122" lon="2.0422">
        <ele>167</ele>
        <time>2021-05-20T11:19:07.573Z</time>
      </trkpt>
      <trkpt lat="48.72123" lon="2.04219">
        <ele>167</ele>
        <time>2021-05-20T11:19:08.573Z</time>
      </trkpt>
      <trkpt lat="48.72124" lon="2.04217">
        <ele>167</ele>
        <time>2021-05-20T11:19:09.573Z</time>
      </trkpt>
      <trkpt lat="48.72124" lon="2.04215">
        <ele>167</ele>
        <time>2021-05-20T11:19:10.573Z</time>
      </trkpt>
      <trkpt lat="48.72125" lon="2.04214">
        <ele>167</ele>
        <time>2021-05-20T11:19:11.573Z</time>
      </trkpt>
      <trkpt lat="48.72126" lon="2.04212">
        <ele>167</ele>
        <time>2021-05-20T11:19:12.573Z</time>
      </trkpt>
      <trkpt lat="48.72126" lon="2.04211">
        <ele>167</ele>
        <time>2021-05-20T11:19:13.573Z</time>
      </trkpt>
      <trkpt lat="48.72127" lon="2.0421">
        <ele>167</ele>
        <time>2021-05-20T11:19:14.573Z</time>
      </trkpt>
      <trkpt lat="48.72127" lon="2.04209">
        <ele>167</ele>
        <time>2021-05-20T11:19:15.573Z</time>
      </trkpt>
      <trkpt lat="48.72128" lon="2.04207">
        <ele>167</ele>
        <time>2021-05-20T11:19:16.573Z</time>
      </trkpt>
      <trkpt lat="48.72129" lon="2.04206">
        <ele>167</ele>
        <time>2021-05-20T11:19:17.573Z</time>
      </trkpt>
      <trkpt lat="48.7213" lon="2.04204">
        <ele>167</ele>
        <time>2021-05-20T11:19:18.573Z</time>
      </trkpt>
      <trkpt lat="48.72131" lon="2.04203">
        <ele>167</ele>
        <time>2021-05-20T11:19:19.573Z</time>
      </trkpt>
      <trkpt lat="48.72131" lon="2.04201">
        <ele>167</ele>
        <time>2021-05-20T11:19:20.573Z</time>
      </trkpt>
      <trkpt lat="48.72132" lon="2.042">
        <ele>167</ele>
        <time>2021-05-20T11:19:21.573Z</time>
      </trkpt>
      <trkpt lat="48.72133" lon="2.04199">
        <ele>167</ele>
        <time>2021-05-20T11:19:22.573Z</time>
      </trkpt>
      <trkpt lat="48.72134" lon="2.04197">
        <ele>168</ele>
        <time>2021-05-20T11:19:23.573Z</time>
      </trkpt>
      <trkpt lat="48.72135" lon="2.04196">
        <ele>168</ele>
        <time>2021-05-20T11:19:24.573Z</time>
      </trkpt>
      <trkpt lat="48.72136" lon="2.04195">
        <ele>168</ele>
        <time>2021-05-20T11:19:25.573Z</time>
      </trkpt>
      <trkpt lat="48.72137" lon="2.04194">
        <ele>168</ele>
        <time>2021-05-20T11:19:26.573Z</time>
      </trkpt>
      <trkpt lat="48.72139" lon="2.04192">
        <ele>168</ele>
        <time>2021-05-20T11:19:27.573Z</time>
      </trkpt>
      <trkpt lat="48.7214" lon="2.04191">
        <ele>168</ele>
        <time>2021-05-20T11:19:28.573Z</time>
      </trkpt>
      <trkpt lat="48.72141" lon="2.0419">
        <ele>168</ele>
        <time>2021-05-20T11:19:29.573Z</time>
      </trkpt>
      <trkpt lat="48.72142" lon="2.04189">
        <ele>168</ele>
        <time>2021-05-20T11:19:30.573Z</time>
      </trkpt>
      <trkpt lat="48.72143" lon="2.04188">
        <ele>168</ele>
        <time>2021-05-20T11:19:31.573Z</time>
      </trkpt>
      <trkpt lat="48.72144" lon="2.04186">
        <ele>168</ele>
        <time>2021-05-20T11:19:32.573Z</time>
      </trkpt>
      <trkpt lat="48.72145" lon="2.04185">
        <ele>168</ele>
        <time>2021-05-20T11:19:33.573Z</time>
      </trkpt>
      <trkpt lat="48.72146" lon="2.04183">
        <ele>168</ele>
        <time>2021-05-20T11:19:34.573Z</time>
      </trkpt>
      <trkpt lat="48.72148" lon="2.04182">
        <ele>168</ele>
        <time>2021-05-20T11:19:35.573Z</time>
      </trkpt>
      <trkpt lat="48.72149" lon="2.0418">
        <ele>168</ele>
        <time>2021-05-20T11:19:36.573Z</time>
      </trkpt>
      <trkpt lat="48.7215" lon="2.04179">
        <ele>168</ele>
        <time>2021-05-20T11:19:37.573Z</time>
      </trkpt>
      <trkpt lat="48.72151" lon="2.04177">
        <ele>168</ele>
        <time>2021-05-20T11:19:38.573Z</time>
      </trkpt>
      <trkpt lat="48.72152" lon="2.04175">
        <ele>168</ele>
        <time>2021-05-20T11:19:39.573Z</time>
      </trkpt>
      <trkpt lat="48.72153" lon="2.04174">
        <ele>168</ele>
        <time>2021-05-20T11:19:40.573Z</time>
      </trkpt>
      <trkpt lat="48.72154" lon="2.04173">
        <ele>168</ele>
        <time>2021-05-20T11:19:41.573Z</time>
      </trkpt>
      <trkpt lat="48.72154" lon="2.04172">
        <ele>168</ele>
        <time>2021-05-20T11:19:42.573Z</time>
      </trkpt>
      <trkpt lat="48.72155" lon="2.04171">
        <ele>169</ele>
        <time>2021-05-20T11:19:43.573Z</time>
      </trkpt>
      <trkpt lat="48.72156" lon="2.0417">
        <ele>169</ele>
        <time>2021-05-20T11:19:44.573Z</time>
      </trkpt>
      <trkpt lat="48.72157" lon="2.04168">
        <ele>169</ele>
        <time>2021-05-20T11:19:45.573Z</time>
      </trkpt>
      <trkpt lat="48.72157" lon="2.04167">
        <ele>169</ele>
        <time>2021-05-20T11:19:46.573Z</time>
      </trkpt>
      <trkpt lat="48.72158" lon="2.04165">
        <ele>169</ele>
        <time>2021-05-20T11:19:47.573Z</time>
      </trkpt>
      <trkpt lat="48.72159" lon="2.04163">
        <ele>169</ele>
        <time>2021-05-20T11:19:48.573Z</time>
      </trkpt>
      <trkpt lat="48.7216" lon="2.04162">
        <ele>169</ele>
        <time>2021-05-20T11:19:49.573Z</time>
      </trkpt>
      <trkpt lat="48.72161" lon="2.0416">
        <ele>169</ele>
        <time>2021-05-20T11:19:50.573Z</time>
      </trkpt>
      <trkpt lat="48.72162" lon="2.04158">
        <ele>169</ele>
        <time>2021-05-20T11:19:51.573Z</time>
      </trkpt>
      <trkpt lat="48.72163" lon="2.04157">
        <ele>169</ele>
        <time>2021-05-20T11:19:52.573Z</time>
      </trkpt>
      <trkpt lat="48.72164" lon="2.04155">
        <ele>169</ele>
        <time>2021-05-20T11:19:53.573Z</time>
      </trkpt>
      <trkpt lat="48.72165" lon="2.04154">
        <ele>169</ele>
        <time>2021-05-20T11:19:54.573Z</time>
      </trkpt>
      <trkpt lat="48.72166" lon="2.04152">
        <ele>169</ele>
        <time>2021-05-20T11:19:55.573Z</time>
      </trkpt>
      <trkpt lat="48.72166" lon="2.0415">
        <ele>169</ele>
        <time>2021-05-20T11:19:56.573Z</time>
      </trkpt>
      <trkpt lat="48.72167" lon="2.04149">
        <ele>169</ele>
        <time>2021-05-20T11:19:57.573Z</time>
      </trkpt>
      <trkpt lat="48.72168" lon="2.04147">
        <ele>169</ele>
        <time>2021-05-20T11:19:58.573Z</time>
      </trkpt>
      <trkpt lat="48.72169" lon="2.04145">
        <ele>169</ele>
        <time>2021-05-20T11:19:59.573Z</time>
      </trkpt>
      <trkpt lat="48.72169" lon="2.04143">
        <ele>169</ele>
        <time>2021-05-20T11:20:00.573Z</time>
      </trkpt>
      <trkpt lat="48.7217" lon="2.04141">
        <ele>169</ele>
        <time>2021-05-20T11:20:01.573Z</time>
      </trkpt>
      <trkpt lat="48.72171" lon="2.0414">
        <ele>168</ele>
        <time>2021-05-20T11:20:02.573Z</time>
      </trkpt>
      <trkpt lat="48.72172" lon="2.04138">
        <ele>168</ele>
        <time>2021-05-20T11:20:03.573Z</time>
      </trkpt>
      <trkpt lat="48.72172" lon="2.04136">
        <ele>168</ele>
        <time>2021-05-20T11:20:04.573Z</time>
      </trkpt>
      <trkpt lat="48.72173" lon="2.04134">
        <ele>168</ele>
        <time>2021-05-20T11:20:05.573Z</time>
      </trkpt>
      <trkpt lat="48.72173" lon="2.04131">
        <ele>168</ele>
        <time>2021-05-20T11:20:06.573Z</time>
      </trkpt>
      <trkpt lat="48.72174" lon="2.04129">
        <ele>168</ele>
        <time>2021-05-20T11:20:07.573Z</time>
      </trkpt>
      <trkpt lat="48.72174" lon="2.04128">
        <ele>168</ele>
        <time>2021-05-20T11:20:08.573Z</time>
      </trkpt>
      <trkpt lat="48.72175" lon="2.04126">
        <ele>168</ele>
        <time>2021-05-20T11:20:09.573Z</time>
      </trkpt>
      <trkpt lat="48.72175" lon="2.04124">
        <ele>168</ele>
        <time>2021-05-20T11:20:10.573Z</time>
      </trkpt>
      <trkpt lat="48.72175" lon="2.04122">
        <ele>168</ele>
        <time>2021-05-20T11:20:11.573Z</time>
      </trkpt>
      <trkpt lat="48.72176" lon="2.0412">
        <ele>168</ele>
        <time>2021-05-20T11:20:12.573Z</time>
      </trkpt>
      <trkpt lat="48.72176" lon="2.04119">
        <ele>167</ele>
        <time>2021-05-20T11:20:13.573Z</time>
      </trkpt>
      <trkpt lat="48.72177" lon="2.04117">
        <ele>167</ele>
        <time>2021-05-20T11:20:14.573Z</time>
      </trkpt>
      <trkpt lat="48.72177" lon="2.04115">
        <ele>167</ele>
        <time>2021-05-20T11:20:15.573Z</time>
      </trkpt>
      <trkpt lat="48.72178" lon="2.04113">
        <ele>167</ele>
        <time>2021-05-20T11:20:16.573Z</time>
      </trkpt>
      <trkpt lat="48.72178" lon="2.04112">
        <ele>167</ele>
        <time>2021-05-20T11:20:17.573Z</time>
      </trkpt>
      <trkpt lat="48.72179" lon="2.0411">
        <ele>167</ele>
        <time>2021-05-20T11:20:18.573Z</time>
      </trkpt>
      <trkpt lat="48.72179" lon="2.04108">
        <ele>167</ele>
        <time>2021-05-20T11:20:19.573Z</time>
      </trkpt>
      <trkpt lat="48.7218" lon="2.04107">
        <ele>167</ele>
        <time>2021-05-20T11:20:20.573Z</time>
      </trkpt>
      <trkpt lat="48.72181" lon="2.04105">
        <ele>167</ele>
        <time>2021-05-20T11:20:21.573Z</time>
      </trkpt>
      <trkpt lat="48.72181" lon="2.04104">
        <ele>167</ele>
        <time>2021-05-20T11:20:22.573Z</time>
      </trkpt>
      <trkpt lat="48.72182" lon="2.04103">
        <ele>167</ele>
        <time>2021-05-20T11:20:23.573Z</time>
      </trkpt>
      <trkpt lat="48.72183" lon="2.04101">
        <ele>167</ele>
        <time>2021-05-20T11:20:24.573Z</time>
      </trkpt>
      <trkpt lat="48.72183" lon="2.041">
        <ele>167</ele>
        <time>2021-05-20T11:20:25.573Z</time>
      </trkpt>
      <trkpt lat="48.72184" lon="2.04098">
        <ele>167</ele>
        <time>2021-05-20T11:20:26.573Z</time>
      </trkpt>
      <trkpt lat="48.72185" lon="2.04096">
        <ele>167</ele>
        <time>2021-05-20T11:20:27.573Z</time>
      </trkpt>
      <trkpt lat="48.72185" lon="2.04095">
        <ele>167</ele>
        <time>2021-05-20T11:20:28.573Z</time>
      </trkpt>
      <trkpt lat="48.72186" lon="2.04093">
        <ele>167</ele>
        <time>2021-05-20T11:20:29.573Z</time>
      </trkpt>
      <trkpt lat="48.72187" lon="2.04092">
        <ele>167</ele>
        <time>2021-05-20T11:20:30.573Z</time>
      </trkpt>
      <trkpt lat="48.72187" lon="2.0409">
        <ele>167</ele>
        <time>2021-05-20T11:20:31.573Z</time>
      </trkpt>
      <trkpt lat="48.72188" lon="2.04089">
        <ele>167</ele>
        <time>2021-05-20T11:20:32.573Z</time>
      </trkpt>
      <trkpt lat="48.72189" lon="2.04087">
        <ele>167</ele>
        <time>2021-05-20T11:20:33.573Z</time>
      </trkpt>
      <trkpt lat="48.7219" lon="2.04086">
        <ele>167</ele>
        <time>2021-05-20T11:20:34.573Z</time>
      </trkpt>
      <trkpt lat="48.72191" lon="2.04084">
        <ele>167</ele>
        <time>2021-05-20T11:20:35.573Z</time>
      </trkpt>
      <trkpt lat="48.72192" lon="2.04083">
        <ele>167</ele>
        <time>2021-05-20T11:20:36.573Z</time>
      </trkpt>
      <trkpt lat="48.72193" lon="2.04081">
        <ele>167</ele>
        <time>2021-05-20T11:20:37.573Z</time>
      </trkpt>
      <trkpt lat="48.72194" lon="2.0408">
        <ele>167</ele>
        <time>2021-05-20T11:20:38.573Z</time>
      </trkpt>
      <trkpt lat="48.72195" lon="2.04078">
        <ele>167</ele>
        <time>2021-05-20T11:20:39.573Z</time>
      </trkpt>
      <trkpt lat="48.72195" lon="2.04077">
        <ele>167</ele>
        <time>2021-05-20T11:20:40.573Z</time>
      </trkpt>
      <trkpt lat="48.72196" lon="2.04075">
        <ele>167</ele>
        <time>2021-05-20T11:20:41.573Z</time>
      </trkpt>
      <trkpt lat="48.72197" lon="2.04074">
        <ele>167</ele>
        <time>2021-05-20T11:20:42.573Z</time>
      </trkpt>
      <trkpt lat="48.72198" lon="2.04073">
        <ele>167</ele>
        <time>2021-05-20T11:20:43.573Z</time>
      </trkpt>
      <trkpt lat="48.72198" lon="2.04072">
        <ele>167</ele>
        <time>2021-05-20T11:20:44.573Z</time>
      </trkpt>
      <trkpt lat="48.72199" lon="2.04071">
        <ele>167</ele>
        <time>2021-05-20T11:20:45.573Z</time>
      </trkpt>
      <trkpt lat="48.722" lon="2.0407">
        <ele>168</ele>
        <time>2021-05-20T11:20:46.573Z</time>
      </trkpt>
      <trkpt lat="48.722" lon="2.04069">
        <ele>168</ele>
        <time>2021-05-20T11:20:47.573Z</time>
      </trkpt>
      <trkpt lat="48.72201" lon="2.04068">
        <ele>168</ele>
        <time>2021-05-20T11:20:48.573Z</time>
      </trkpt>
      <trkpt lat="48.72202" lon="2.04067">
        <ele>168</ele>
        <time>2021-05-20T11:20:49.573Z</time>
      </trkpt>
      <trkpt lat="48.72203" lon="2.04065">
        <ele>168</ele>
        <time>2021-05-20T11:20:50.573Z</time>
      </trkpt>
      <trkpt lat="48.72204" lon="2.04064">
        <ele>168</ele>
        <time>2021-05-20T11:20:51.573Z</time>
      </trkpt>
      <trkpt lat="48.72205" lon="2.04063">
        <ele>168</ele>
        <time>2021-05-20T11:20:52.573Z</time>
      </trkpt>
      <trkpt lat="48.72205" lon="2.04062">
        <ele>168</ele>
        <time>2021-05-20T11:20:53.573Z</time>
      </trkpt>
      <trkpt lat="48.72206" lon="2.04061">
        <ele>168</ele>
        <time>2021-05-20T11:20:54.573Z</time>
      </trkpt>
      <trkpt lat="48.72207" lon="2.0406">
        <ele>168</ele>
        <time>2021-05-20T11:20:55.573Z</time>
      </trkpt>
      <trkpt lat="48.72208" lon="2.0406">
        <ele>168</ele>
        <time>2021-05-20T11:20:56.573Z</time>
      </trkpt>
      <trkpt lat="48.72209" lon="2.04058">
        <ele>168</ele>
        <time>2021-05-20T11:20:57.573Z</time>
      </trkpt>
      <trkpt lat="48.7221" lon="2.04057">
        <ele>168</ele>
        <time>2021-05-20T11:20:58.573Z</time>
      </trkpt>
      <trkpt lat="48.72211" lon="2.04056">
        <ele>168</ele>
        <time>2021-05-20T11:20:59.573Z</time>
      </trkpt>
      <trkpt lat="48.72212" lon="2.04054">
        <ele>168</ele>
        <time>2021-05-20T11:21:00.573Z</time>
      </trkpt>
      <trkpt lat="48.72213" lon="2.04053">
        <ele>168</ele>
        <time>2021-05-20T11:21:01.573Z</time>
      </trkpt>
      <trkpt lat="48.72214" lon="2.04051">
        <ele>167</ele>
        <time>2021-05-20T11:21:02.573Z</time>
      </trkpt>
      <trkpt lat="48.72215" lon="2.04049">
        <ele>167</ele>
        <time>2021-05-20T11:21:03.573Z</time>
      </trkpt>
      <trkpt lat="48.72216" lon="2.04048">
        <ele>167</ele>
        <time>2021-05-20T11:21:04.573Z</time>
      </trkpt>
      <trkpt lat="48.72217" lon="2.04047">
        <ele>167</ele>
        <time>2021-05-20T11:21:05.573Z</time>
      </trkpt>
      <trkpt lat="48.72219" lon="2.04046">
        <ele>167</ele>
        <time>2021-05-20T11:21:06.573Z</time>
      </trkpt>
      <trkpt lat="48.7222" lon="2.04044">
        <ele>167</ele>
        <time>2021-05-20T11:21:07.573Z</time>
      </trkpt>
      <trkpt lat="48.72221" lon="2.04043">
        <ele>168</ele>
        <time>2021-05-20T11:21:08.573Z</time>
      </trkpt>
      <trkpt lat="48.72223" lon="2.04041">
        <ele>168</ele>
        <time>2021-05-20T11:21:09.573Z</time>
      </trkpt>
      <trkpt lat="48.72224" lon="2.0404">
        <ele>168</ele>
        <time>2021-05-20T11:21:10.573Z</time>
      </trkpt>
      <trkpt lat="48.72225" lon="2.04039">
        <ele>168</ele>
        <time>2021-05-20T11:21:11.573Z</time>
      </trkpt>
      <trkpt lat="48.72226" lon="2.04037">
        <ele>168</ele>
        <time>2021-05-20T11:21:12.573Z</time>
      </trkpt>
      <trkpt lat="48.72226" lon="2.04036">
        <ele>168</ele>
        <time>2021-05-20T11:21:13.573Z</time>
      </trkpt>
      <trkpt lat="48.72227" lon="2.04035">
        <ele>168</ele>
        <time>2021-05-20T11:21:14.573Z</time>
      </trkpt>
      <trkpt lat="48.72228" lon="2.04033">
        <ele>169</ele>
        <time>2021-05-20T11:21:15.573Z</time>
      </trkpt>
      <trkpt lat="48.72229" lon="2.04032">
        <ele>169</ele>
        <time>2021-05-20T11:21:16.573Z</time>
      </trkpt>
      <trkpt lat="48.7223" lon="2.04032">
        <ele>169</ele>
        <time>2021-05-20T11:21:17.573Z</time>
      </trkpt>
      <trkpt lat="48.7223" lon="2.04031">
        <ele>169</ele>
        <time>2021-05-20T11:21:18.573Z</time>
      </trkpt>
      <trkpt lat="48.72231" lon="2.0403">
        <ele>169</ele>
        <time>2021-05-20T11:21:19.573Z</time>
      </trkpt>
      <trkpt lat="48.72232" lon="2.04028">
        <ele>169</ele>
        <time>2021-05-20T11:21:20.573Z</time>
      </trkpt>
      <trkpt lat="48.72233" lon="2.04027">
        <ele>169</ele>
        <time>2021-05-20T11:21:21.573Z</time>
      </trkpt>
      <trkpt lat="48.72234" lon="2.04025">
        <ele>169</ele>
        <time>2021-05-20T11:21:22.573Z</time>
      </trkpt>
      <trkpt lat="48.72234" lon="2.04024">
        <ele>169</ele>
        <time>2021-05-20T11:21:23.573Z</time>
      </trkpt>
      <trkpt lat="48.72235" lon="2.04023">
        <ele>169</ele>
        <time>2021-05-20T11:21:24.573Z</time>
      </trkpt>
      <trkpt lat="48.72235" lon="2.04022">
        <ele>169</ele>
        <time>2021-05-20T11:21:25.573Z</time>
      </trkpt>
      <trkpt lat="48.72236" lon="2.04021">
        <ele>169</ele>
        <time>2021-05-20T11:21:26.573Z</time>
      </trkpt>
      <trkpt lat="48.72237" lon="2.0402">
        <ele>170</ele>
        <time>2021-05-20T11:21:27.573Z</time>
      </trkpt>
      <trkpt lat="48.72238" lon="2.04019">
        <ele>170</ele>
        <time>2021-05-20T11:21:28.573Z</time>
      </trkpt>
      <trkpt lat="48.72239" lon="2.04018">
        <ele>170</ele>
        <time>2021-05-20T11:21:29.573Z</time>
      </trkpt>
      <trkpt lat="48.7224" lon="2.04017">
        <ele>170</ele>
        <time>2021-05-20T11:21:30.573Z</time>
      </trkpt>
      <trkpt lat="48.72241" lon="2.04016">
        <ele>170</ele>
        <time>2021-05-20T11:21:31.573Z</time>
      </trkpt>
      <trkpt lat="48.72243" lon="2.04015">
        <ele>170</ele>
        <time>2021-05-20T11:21:32.573Z</time>
      </trkpt>
      <trkpt lat="48.72244" lon="2.04014">
        <ele>170</ele>
        <time>2021-05-20T11:21:33.573Z</time>
      </trkpt>
      <trkpt lat="48.72245" lon="2.04013">
        <ele>170</ele>
        <time>2021-05-20T11:21:34.573Z</time>
      </trkpt>
      <trkpt lat="48.72246" lon="2.04012">
        <ele>170</ele>
        <time>2021-05-20T11:21:35.573Z</time>
      </trkpt>
      <trkpt lat="48.72247" lon="2.04011">
        <ele>170</ele>
        <time>2021-05-20T11:21:36.573Z</time>
      </trkpt>
      <trkpt lat="48.72248" lon="2.04009">
        <ele>171</ele>
        <time>2021-05-20T11:21:37.573Z</time>
      </trkpt>
      <trkpt lat="48.72249" lon="2.04008">
        <ele>171</ele>
        <time>2021-05-20T11:21:38.573Z</time>
      </trkpt>
      <trkpt lat="48.7225" lon="2.04007">
        <ele>171</ele>
        <time>2021-05-20T11:21:39.573Z</time>
      </trkpt>
      <trkpt lat="48.72251" lon="2.04005">
        <ele>171</ele>
        <time>2021-05-20T11:21:40.573Z</time>
      </trkpt>
      <trkpt lat="48.72252" lon="2.04004">
        <ele>171</ele>
        <time>2021-05-20T11:21:41.573Z</time>
      </trkpt>
      <trkpt lat="48.72253" lon="2.04003">
        <ele>171</ele>
        <time>2021-05-20T11:21:42.573Z</time>
      </trkpt>
      <trkpt lat="48.72254" lon="2.04001">
        <ele>171</ele>
        <time>2021-05-20T11:21:43.573Z</time>
      </trkpt>
      <trkpt lat="48.72255" lon="2.04">
        <ele>171</ele>
        <time>2021-05-20T11:21:44.573Z</time>
      </trkpt>
      <trkpt lat="48.72256" lon="2.03999">
        <ele>171</ele>
        <time>2021-05-20T11:21:45.573Z</time>
      </trkpt>
      <trkpt lat="48.72257" lon="2.03998">
        <ele>172</ele>
        <time>2021-05-20T11:21:46.573Z</time>
      </trkpt>
      <trkpt lat="48.72259" lon="2.03996">
        <ele>172</ele>
        <time>2021-05-20T11:21:47.573Z</time>
      </trkpt>
      <trkpt lat="48.7226" lon="2.03994">
        <ele>172</ele>
        <time>2021-05-20T11:21:48.573Z</time>
      </trkpt>
      <trkpt lat="48.72261" lon="2.03993">
        <ele>172</ele>
        <time>2021-05-20T11:21:49.573Z</time>
      </trkpt>
      <trkpt lat="48.72262" lon="2.03991">
        <ele>172</ele>
        <time>2021-05-20T11:21:50.573Z</time>
      </trkpt>
      <trkpt lat="48.72263" lon="2.0399">
        <ele>172</ele>
        <time>2021-05-20T11:21:51.573Z</time>
      </trkpt>
      <trkpt lat="48.72264" lon="2.03989">
        <ele>172</ele>
        <time>2021-05-20T11:21:52.573Z</time>
      </trkpt>
      <trkpt lat="48.72264" lon="2.03988">
        <ele>172</ele>
        <time>2021-05-20T11:21:53.573Z</time>
      </trkpt>
      <trkpt lat="48.72265" lon="2.03987">
        <ele>172</ele>
        <time>2021-05-20T11:21:54.573Z</time>
      </trkpt>
      <trkpt lat="48.72266" lon="2.03986">
        <ele>172</ele>
        <time>2021-05-20T11:21:55.573Z</time>
      </trkpt>
      <trkpt lat="48.72266" lon="2.03985">
        <ele>172</ele>
        <time>2021-05-20T11:21:56.573Z</time>
      </trkpt>
      <trkpt lat="48.72267" lon="2.03984">
        <ele>172</ele>
        <time>2021-05-20T11:21:57.573Z</time>
      </trkpt>
      <trkpt lat="48.72268" lon="2.03982">
        <ele>172</ele>
        <time>2021-05-20T11:21:58.573Z</time>
      </trkpt>
      <trkpt lat="48.72269" lon="2.03981">
        <ele>172</ele>
        <time>2021-05-20T11:21:59.573Z</time>
      </trkpt>
      <trkpt lat="48.7227" lon="2.0398">
        <ele>172</ele>
        <time>2021-05-20T11:22:00.573Z</time>
      </trkpt>
      <trkpt lat="48.72271" lon="2.03978">
        <ele>172</ele>
        <time>2021-05-20T11:22:01.573Z</time>
      </trkpt>
      <trkpt lat="48.72272" lon="2.03977">
        <ele>172</ele>
        <time>2021-05-20T11:22:02.573Z</time>
      </trkpt>
      <trkpt lat="48.72274" lon="2.03976">
        <ele>172</ele>
        <time>2021-05-20T11:22:03.573Z</time>
      </trkpt>
      <trkpt lat="48.72275" lon="2.03975">
        <ele>173</ele>
        <time>2021-05-20T11:22:04.573Z</time>
      </trkpt>
      <trkpt lat="48.72276" lon="2.03974">
        <ele>173</ele>
        <time>2021-05-20T11:22:05.573Z</time>
      </trkpt>
      <trkpt lat="48.72278" lon="2.03973">
        <ele>173</ele>
        <time>2021-05-20T11:22:06.573Z</time>
      </trkpt>
      <trkpt lat="48.72279" lon="2.03972">
        <ele>173</ele>
        <time>2021-05-20T11:22:07.573Z</time>
      </trkpt>
      <trkpt lat="48.72281" lon="2.0397">
        <ele>173</ele>
        <time>2021-05-20T11:22:08.573Z</time>
      </trkpt>
      <trkpt lat="48.72283" lon="2.03969">
        <ele>173</ele>
        <time>2021-05-20T11:22:09.573Z</time>
      </trkpt>
      <trkpt lat="48.72284" lon="2.03967">
        <ele>173</ele>
        <time>2021-05-20T11:22:10.573Z</time>
      </trkpt>
      <trkpt lat="48.72285" lon="2.03966">
        <ele>173</ele>
        <time>2021-05-20T11:22:11.573Z</time>
      </trkpt>
      <trkpt lat="48.72286" lon="2.03965">
        <ele>173</ele>
        <time>2021-05-20T11:22:12.573Z</time>
      </trkpt>
      <trkpt lat="48.72288" lon="2.03963">
        <ele>173</ele>
        <time>2021-05-20T11:22:13.573Z</time>
      </trkpt>
      <trkpt lat="48.72289" lon="2.03963">
        <ele>173</ele>
        <time>2021-05-20T11:22:14.573Z</time>
      </trkpt>
      <trkpt lat="48.7229" lon="2.03961">
        <ele>173</ele>
        <time>2021-05-20T11:22:15.573Z</time>
      </trkpt>
      <trkpt lat="48.72291" lon="2.0396">
        <ele>173</ele>
        <time>2021-05-20T11:22:16.573Z</time>
      </trkpt>
      <trkpt lat="48.72292" lon="2.03959">
        <ele>173</ele>
        <time>2021-05-20T11:22:17.573Z</time>
      </trkpt>
      <trkpt lat="48.72293" lon="2.03958">
        <ele>173</ele>
        <time>2021-05-20T11:22:18.573Z</time>
      </trkpt>
      <trkpt lat="48.72295" lon="2.03957">
        <ele>173</ele>
        <time>2021-05-20T11:22:19.573Z</time>
      </trkpt>
      <trkpt lat="48.72296" lon="2.03956">
        <ele>173</ele>
        <time>2021-05-20T11:22:20.573Z</time>
      </trkpt>
      <trkpt lat="48.72297" lon="2.03955">
        <ele>173</ele>
        <time>2021-05-20T11:22:21.573Z</time>
      </trkpt>
      <trkpt lat="48.72298" lon="2.03954">
        <ele>173</ele>
        <time>2021-05-20T11:22:22.573Z</time>
      </trkpt>
      <trkpt lat="48.72299" lon="2.03953">
        <ele>173</ele>
        <time>2021-05-20T11:22:23.573Z</time>
      </trkpt>
      <trkpt lat="48.72299" lon="2.03952">
        <ele>173</ele>
        <time>2021-05-20T11:22:24.573Z</time>
      </trkpt>
      <trkpt lat="48.723" lon="2.03951">
        <ele>173</ele>
        <time>2021-05-20T11:22:25.573Z</time>
      </trkpt>
      <trkpt lat="48.72301" lon="2.0395">
        <ele>173</ele>
        <time>2021-05-20T11:22:26.573Z</time>
      </trkpt>
      <trkpt lat="48.72302" lon="2.03949">
        <ele>173</ele>
        <time>2021-05-20T11:22:27.573Z</time>
      </trkpt>
      <trkpt lat="48.72303" lon="2.03947">
        <ele>172</ele>
        <time>2021-05-20T11:22:28.573Z</time>
      </trkpt>
      <trkpt lat="48.72304" lon="2.03946">
        <ele>172</ele>
        <time>2021-05-20T11:22:29.573Z</time>
      </trkpt>
      <trkpt lat="48.72305" lon="2.03944">
        <ele>172</ele>
        <time>2021-05-20T11:22:30.573Z</time>
      </trkpt>
      <trkpt lat="48.72306" lon="2.03943">
        <ele>172</ele>
        <time>2021-05-20T11:22:31.573Z</time>
      </trkpt>
      <trkpt lat="48.72307" lon="2.03941">
        <ele>172</ele>
        <time>2021-05-20T11:22:32.573Z</time>
      </trkpt>
      <trkpt lat="48.72308" lon="2.0394">
        <ele>172</ele>
        <time>2021-05-20T11:22:33.573Z</time>
      </trkpt>
      <trkpt lat="48.72309" lon="2.03938">
        <ele>172</ele>
        <time>2021-05-20T11:22:34.573Z</time>
      </trkpt>
      <trkpt lat="48.72309" lon="2.03937">
        <ele>172</ele>
        <time>2021-05-20T11:22:35.573Z</time>
      </trkpt>
      <trkpt lat="48.7231" lon="2.03935">
        <ele>172</ele>
        <time>2021-05-20T11:22:36.573Z</time>
      </trkpt>
      <trkpt lat="48.72311" lon="2.03933">
        <ele>172</ele>
        <time>2021-05-20T11:22:37.573Z</time>
      </trkpt>
      <trkpt lat="48.72312" lon="2.03932">
        <ele>172</ele>
        <time>2021-05-20T11:22:38.573Z</time>
      </trkpt>
      <trkpt lat="48.72313" lon="2.0393">
        <ele>172</ele>
        <time>2021-05-20T11:22:39.573Z</time>
      </trkpt>
      <trkpt lat="48.72314" lon="2.03928">
        <ele>172</ele>
        <time>2021-05-20T11:22:40.573Z</time>
      </trkpt>
      <trkpt lat="48.72314" lon="2.03926">
        <ele>172</ele>
        <time>2021-05-20T11:22:41.573Z</time>
      </trkpt>
      <trkpt lat="48.72315" lon="2.03924">
        <ele>171</ele>
        <time>2021-05-20T11:22:42.573Z</time>
      </trkpt>
      <trkpt lat="48.72316" lon="2.03922">
        <ele>171</ele>
        <time>2021-05-20T11:22:43.573Z</time>
      </trkpt>
      <trkpt lat="48.72317" lon="2.03921">
        <ele>171</ele>
        <time>2021-05-20T11:22:44.573Z</time>
      </trkpt>
      <trkpt lat="48.72317" lon="2.03919">
        <ele>171</ele>
        <time>2021-05-20T11:22:45.573Z</time>
      </trkpt>
      <trkpt lat="48.72318" lon="2.03917">
        <ele>171</ele>
        <time>2021-05-20T11:22:46.573Z</time>
      </trkpt>
      <trkpt lat="48.72319" lon="2.03915">
        <ele>171</ele>
        <time>2021-05-20T11:22:47.573Z</time>
      </trkpt>
      <trkpt lat="48.7232" lon="2.03914">
        <ele>171</ele>
        <time>2021-05-20T11:22:48.573Z</time>
      </trkpt>
      <trkpt lat="48.7232" lon="2.03912">
        <ele>171</ele>
        <time>2021-05-20T11:22:49.573Z</time>
      </trkpt>
      <trkpt lat="48.72321" lon="2.0391">
        <ele>171</ele>
        <time>2021-05-20T11:22:50.573Z</time>
      </trkpt>
      <trkpt lat="48.72321" lon="2.03908">
        <ele>171</ele>
        <time>2021-05-20T11:22:51.573Z</time>
      </trkpt>
      <trkpt lat="48.72322" lon="2.03906">
        <ele>172</ele>
        <time>2021-05-20T11:22:52.573Z</time>
      </trkpt>
      <trkpt lat="48.72323" lon="2.03905">
        <ele>172</ele>
        <time>2021-05-20T11:22:53.573Z</time>
      </trkpt>
      <trkpt lat="48.72324" lon="2.03903">
        <ele>172</ele>
        <time>2021-05-20T11:22:54.573Z</time>
      </trkpt>
      <trkpt lat="48.72325" lon="2.03902">
        <ele>172</ele>
        <time>2021-05-20T11:22:55.573Z</time>
      </trkpt>
      <trkpt lat="48.72326" lon="2.039">
        <ele>172</ele>
        <time>2021-05-20T11:22:56.573Z</time>
      </trkpt>
      <trkpt lat="48.72326" lon="2.03898">
        <ele>172</ele>
        <time>2021-05-20T11:22:57.573Z</time>
      </trkpt>
      <trkpt lat="48.72327" lon="2.03896">
        <ele>172</ele>
        <time>2021-05-20T11:22:58.573Z</time>
      </trkpt>
      <trkpt lat="48.72328" lon="2.03895">
        <ele>172</ele>
        <time>2021-05-20T11:22:59.573Z</time>
      </trkpt>
      <trkpt lat="48.72328" lon="2.03893">
        <ele>172</ele>
        <time>2021-05-20T11:23:00.573Z</time>
      </trkpt>
      <trkpt lat="48.72329" lon="2.03891">
        <ele>172</ele>
        <time>2021-05-20T11:23:01.573Z</time>
      </trkpt>
      <trkpt lat="48.7233" lon="2.03889">
        <ele>172</ele>
        <time>2021-05-20T11:23:02.573Z</time>
      </trkpt>
      <trkpt lat="48.7233" lon="2.03887">
        <ele>172</ele>
        <time>2021-05-20T11:23:03.573Z</time>
      </trkpt>
      <trkpt lat="48.72331" lon="2.03886">
        <ele>172</ele>
        <time>2021-05-20T11:23:04.573Z</time>
      </trkpt>
      <trkpt lat="48.72331" lon="2.03883">
        <ele>172</ele>
        <time>2021-05-20T11:23:05.573Z</time>
      </trkpt>
      <trkpt lat="48.72332" lon="2.03881">
        <ele>172</ele>
        <time>2021-05-20T11:23:06.573Z</time>
      </trkpt>
      <trkpt lat="48.72332" lon="2.03879">
        <ele>172</ele>
        <time>2021-05-20T11:23:07.573Z</time>
      </trkpt>
      <trkpt lat="48.72333" lon="2.03877">
        <ele>172</ele>
        <time>2021-05-20T11:23:08.573Z</time>
      </trkpt>
      <trkpt lat="48.72334" lon="2.03875">
        <ele>172</ele>
        <time>2021-05-20T11:23:09.573Z</time>
      </trkpt>
      <trkpt lat="48.72334" lon="2.03873">
        <ele>172</ele>
        <time>2021-05-20T11:23:10.573Z</time>
      </trkpt>
      <trkpt lat="48.72335" lon="2.03871">
        <ele>171</ele>
        <time>2021-05-20T11:23:11.573Z</time>
      </trkpt>
      <trkpt lat="48.72335" lon="2.03869">
        <ele>171</ele>
        <time>2021-05-20T11:23:12.573Z</time>
      </trkpt>
      <trkpt lat="48.72336" lon="2.03868">
        <ele>171</ele>
        <time>2021-05-20T11:23:13.573Z</time>
      </trkpt>
      <trkpt lat="48.72336" lon="2.03866">
        <ele>171</ele>
        <time>2021-05-20T11:23:14.573Z</time>
      </trkpt>
      <trkpt lat="48.72337" lon="2.03864">
        <ele>171</ele>
        <time>2021-05-20T11:23:15.573Z</time>
      </trkpt>
      <trkpt lat="48.72338" lon="2.03863">
        <ele>171</ele>
        <time>2021-05-20T11:23:16.573Z</time>
      </trkpt>
      <trkpt lat="48.72338" lon="2.03861">
        <ele>171</ele>
        <time>2021-05-20T11:23:17.573Z</time>
      </trkpt>
      <trkpt lat="48.72339" lon="2.03859">
        <ele>171</ele>
        <time>2021-05-20T11:23:18.573Z</time>
      </trkpt>
      <trkpt lat="48.72339" lon="2.03857">
        <ele>171</ele>
        <time>2021-05-20T11:23:19.573Z</time>
      </trkpt>
      <trkpt lat="48.7234" lon="2.03855">
        <ele>171</ele>
        <time>2021-05-20T11:23:20.573Z</time>
      </trkpt>
      <trkpt lat="48.7234" lon="2.03853">
        <ele>171</ele>
        <time>2021-05-20T11:23:21.573Z</time>
      </trkpt>
      <trkpt lat="48.72341" lon="2.03851">
        <ele>171</ele>
        <time>2021-05-20T11:23:22.573Z</time>
      </trkpt>
      <trkpt lat="48.72341" lon="2.03849">
        <ele>170</ele>
        <time>2021-05-20T11:23:23.573Z</time>
      </trkpt>
      <trkpt lat="48.72341" lon="2.03847">
        <ele>170</ele>
        <time>2021-05-20T11:23:24.573Z</time>
      </trkpt>
      <trkpt lat="48.72342" lon="2.03845">
        <ele>170</ele>
        <time>2021-05-20T11:23:25.573Z</time>
      </trkpt>
      <trkpt lat="48.72342" lon="2.03843">
        <ele>170</ele>
        <time>2021-05-20T11:23:26.573Z</time>
      </trkpt>
      <trkpt lat="48.72343" lon="2.03842">
        <ele>170</ele>
        <time>2021-05-20T11:23:27.573Z</time>
      </trkpt>
      <trkpt lat="48.72343" lon="2.0384">
        <ele>170</ele>
        <time>2021-05-20T11:23:28.573Z</time>
      </trkpt>
      <trkpt lat="48.72343" lon="2.03838">
        <ele>170</ele>
        <time>2021-05-20T11:23:29.573Z</time>
      </trkpt>
      <trkpt lat="48.72344" lon="2.03837">
        <ele>170</ele>
        <time>2021-05-20T11:23:30.573Z</time>
      </trkpt>
      <trkpt lat="48.72344" lon="2.03835">
        <ele>170</ele>
        <time>2021-05-20T11:23:31.573Z</time>
      </trkpt>
      <trkpt lat="48.72345" lon="2.03833">
        <ele>170</ele>
        <time>2021-05-20T11:23:32.573Z</time>
      </trkpt>
      <trkpt lat="48.72345" lon="2.03831">
        <ele>170</ele>
        <time>2021-05-20T11:23:33.573Z</time>
      </trkpt>
      <trkpt lat="48.72346" lon="2.0383">
        <ele>170</ele>
        <time>2021-05-20T11:23:34.573Z</time>
      </trkpt>
      <trkpt lat="48.72346" lon="2.03828">
        <ele>170</ele>
        <time>2021-05-20T11:23:35.573Z</time>
      </trkpt>
      <trkpt lat="48.72346" lon="2.03827">
        <ele>170</ele>
        <time>2021-05-20T11:23:36.573Z</time>
      </trkpt>
      <trkpt lat="48.72346" lon="2.03825">
        <ele>170</ele>
        <time>2021-05-20T11:23:37.573Z</time>
      </trkpt>
      <trkpt lat="48.72346" lon="2.03823">
        <ele>170</ele>
        <time>2021-05-20T11:23:38.573Z</time>
      </trkpt>
      <trkpt lat="48.72347" lon="2.03821">
        <ele>170</ele>
        <time>2021-05-20T11:23:39.573Z</time>
      </trkpt>
      <trkpt lat="48.72347" lon="2.0382">
        <ele>170</ele>
        <time>2021-05-20T11:23:40.573Z</time>
      </trkpt>
      <trkpt lat="48.72347" lon="2.03818">
        <ele>170</ele>
        <time>2021-05-20T11:23:41.573Z</time>
      </trkpt>
      <trkpt lat="48.72348" lon="2.03816">
        <ele>170</ele>
        <time>2021-05-20T11:23:42.573Z</time>
      </trkpt>
      <trkpt lat="48.72348" lon="2.03814">
        <ele>170</ele>
        <time>2021-05-20T11:23:43.573Z</time>
      </trkpt>
      <trkpt lat="48.72349" lon="2.03812">
        <ele>170</ele>
        <time>2021-05-20T11:23:44.573Z</time>
      </trkpt>
      <trkpt lat="48.72349" lon="2.03809">
        <ele>170</ele>
        <time>2021-05-20T11:23:45.573Z</time>
      </trkpt>
      <trkpt lat="48.72349" lon="2.03807">
        <ele>170</ele>
        <time>2021-05-20T11:23:46.573Z</time>
      </trkpt>
      <trkpt lat="48.7235" lon="2.03806">
        <ele>170</ele>
        <time>2021-05-20T11:23:47.573Z</time>
      </trkpt>
      <trkpt lat="48.72349" lon="2.03804">
        <ele>170</ele>
        <time>2021-05-20T11:23:48.573Z</time>
      </trkpt>
      <trkpt lat="48.7235" lon="2.03804">
        <ele>170</ele>
        <time>2021-05-20T11:23:49.573Z</time>
      </trkpt>
      <trkpt lat="48.7235" lon="2.03802">
        <ele>170</ele>
        <time>2021-05-20T11:23:50.573Z</time>
      </trkpt>
      <trkpt lat="48.7235" lon="2.03801">
        <ele>170</ele>
        <time>2021-05-20T11:23:51.573Z</time>
      </trkpt>
      <trkpt lat="48.7235" lon="2.03799">
        <ele>170</ele>
        <time>2021-05-20T11:23:52.573Z</time>
      </trkpt>
      <trkpt lat="48.7235" lon="2.03797">
        <ele>170</ele>
        <time>2021-05-20T11:23:53.573Z</time>
      </trkpt>
      <trkpt lat="48.7235" lon="2.03795">
        <ele>170</ele>
        <time>2021-05-20T11:23:54.573Z</time>
      </trkpt>
      <trkpt lat="48.72351" lon="2.03792">
        <ele>170</ele>
        <time>2021-05-20T11:23:55.573Z</time>
      </trkpt>
      <trkpt lat="48.72351" lon="2.0379">
        <ele>170</ele>
        <time>2021-05-20T11:23:56.573Z</time>
      </trkpt>
      <trkpt lat="48.72351" lon="2.03788">
        <ele>169</ele>
        <time>2021-05-20T11:23:57.573Z</time>
      </trkpt>
      <trkpt lat="48.72351" lon="2.03786">
        <ele>169</ele>
        <time>2021-05-20T11:23:58.573Z</time>
      </trkpt>
      <trkpt lat="48.72351" lon="2.03784">
        <ele>169</ele>
        <time>2021-05-20T11:23:59.573Z</time>
      </trkpt>
      <trkpt lat="48.72352" lon="2.03782">
        <ele>169</ele>
        <time>2021-05-20T11:24:00.573Z</time>
      </trkpt>
      <trkpt lat="48.72352" lon="2.03781">
        <ele>169</ele>
        <time>2021-05-20T11:24:01.573Z</time>
      </trkpt>
      <trkpt lat="48.72352" lon="2.03779">
        <ele>169</ele>
        <time>2021-05-20T11:24:02.573Z</time>
      </trkpt>
      <trkpt lat="48.72352" lon="2.03777">
        <ele>169</ele>
        <time>2021-05-20T11:24:03.573Z</time>
      </trkpt>
      <trkpt lat="48.72352" lon="2.03775">
        <ele>168</ele>
        <time>2021-05-20T11:24:04.573Z</time>
      </trkpt>
      <trkpt lat="48.72352" lon="2.03773">
        <ele>168</ele>
        <time>2021-05-20T11:24:05.573Z</time>
      </trkpt>
      <trkpt lat="48.72353" lon="2.03771">
        <ele>168</ele>
        <time>2021-05-20T11:24:06.573Z</time>
      </trkpt>
      <trkpt lat="48.72353" lon="2.03769">
        <ele>168</ele>
        <time>2021-05-20T11:24:07.573Z</time>
      </trkpt>
      <trkpt lat="48.72353" lon="2.03767">
        <ele>168</ele>
        <time>2021-05-20T11:24:08.573Z</time>
      </trkpt>
      <trkpt lat="48.72353" lon="2.03765">
        <ele>168</ele>
        <time>2021-05-20T11:24:09.573Z</time>
      </trkpt>
      <trkpt lat="48.72353" lon="2.03763">
        <ele>168</ele>
        <time>2021-05-20T11:24:10.573Z</time>
      </trkpt>
      <trkpt lat="48.72353" lon="2.03761">
        <ele>168</ele>
        <time>2021-05-20T11:24:11.573Z</time>
      </trkpt>
      <trkpt lat="48.72353" lon="2.03759">
        <ele>167</ele>
        <time>2021-05-20T11:24:12.573Z</time>
      </trkpt>
      <trkpt lat="48.72353" lon="2.03758">
        <ele>167</ele>
        <time>2021-05-20T11:24:13.573Z</time>
      </trkpt>
      <trkpt lat="48.72354" lon="2.03756">
        <ele>167</ele>
        <time>2021-05-20T11:24:14.573Z</time>
      </trkpt>
      <trkpt lat="48.72354" lon="2.03754">
        <ele>167</ele>
        <time>2021-05-20T11:24:15.573Z</time>
      </trkpt>
      <trkpt lat="48.72354" lon="2.03752">
        <ele>167</ele>
        <time>2021-05-20T11:24:16.573Z</time>
      </trkpt>
      <trkpt lat="48.72354" lon="2.0375">
        <ele>167</ele>
        <time>2021-05-20T11:24:17.573Z</time>
      </trkpt>
      <trkpt lat="48.72354" lon="2.03748">
        <ele>166</ele>
        <time>2021-05-20T11:24:18.573Z</time>
      </trkpt>
      <trkpt lat="48.72354" lon="2.03747">
        <ele>166</ele>
        <time>2021-05-20T11:24:19.573Z</time>
      </trkpt>
      <trkpt lat="48.72354" lon="2.03745">
        <ele>166</ele>
        <time>2021-05-20T11:24:20.573Z</time>
      </trkpt>
      <trkpt lat="48.72354" lon="2.03743">
        <ele>166</ele>
        <time>2021-05-20T11:24:21.573Z</time>
      </trkpt>
      <trkpt lat="48.72354" lon="2.03741">
        <ele>165</ele>
        <time>2021-05-20T11:24:22.573Z</time>
      </trkpt>
      <trkpt lat="48.72354" lon="2.03739">
        <ele>165</ele>
        <time>2021-05-20T11:24:23.573Z</time>
      </trkpt>
      <trkpt lat="48.72354" lon="2.03737">
        <ele>165</ele>
        <time>2021-05-20T11:24:24.573Z</time>
      </trkpt>
      <trkpt lat="48.72354" lon="2.03735">
        <ele>165</ele>
        <time>2021-05-20T11:24:25.573Z</time>
      </trkpt>
      <trkpt lat="48.72354" lon="2.03732">
        <ele>165</ele>
        <time>2021-05-20T11:24:26.573Z</time>
      </trkpt>
      <trkpt lat="48.72354" lon="2.0373">
        <ele>165</ele>
        <time>2021-05-20T11:24:27.573Z</time>
      </trkpt>
      <trkpt lat="48.72354" lon="2.03728">
        <ele>165</ele>
        <time>2021-05-20T11:24:28.573Z</time>
      </trkpt>
      <trkpt lat="48.72354" lon="2.03726">
        <ele>165</ele>
        <time>2021-05-20T11:24:29.573Z</time>
      </trkpt>
      <trkpt lat="48.72354" lon="2.03723">
        <ele>164</ele>
        <time>2021-05-20T11:24:30.573Z</time>
      </trkpt>
      <trkpt lat="48.72354" lon="2.03721">
        <ele>164</ele>
        <time>2021-05-20T11:24:31.573Z</time>
      </trkpt>
      <trkpt lat="48.72354" lon="2.03719">
        <ele>164</ele>
        <time>2021-05-20T11:24:32.573Z</time>
      </trkpt>
      <trkpt lat="48.72354" lon="2.03716">
        <ele>164</ele>
        <time>2021-05-20T11:24:33.573Z</time>
      </trkpt>
      <trkpt lat="48.72354" lon="2.03714">
        <ele>164</ele>
        <time>2021-05-20T11:24:34.573Z</time>
      </trkpt>
      <trkpt lat="48.72354" lon="2.03712">
        <ele>164</ele>
        <time>2021-05-20T11:24:35.573Z</time>
      </trkpt>
      <trkpt lat="48.72354" lon="2.0371">
        <ele>163</ele>
        <time>2021-05-20T11:24:36.573Z</time>
      </trkpt>
      <trkpt lat="48.72353" lon="2.03708">
        <ele>163</ele>
        <time>2021-05-20T11:24:37.573Z</time>
      </trkpt>
      <trkpt lat="48.72353" lon="2.03706">
        <ele>163</ele>
        <time>2021-05-20T11:24:38.573Z</time>
      </trkpt>
      <trkpt lat="48.72353" lon="2.03704">
        <ele>163</ele>
        <time>2021-05-20T11:24:39.573Z</time>
      </trkpt>
      <trkpt lat="48.72353" lon="2.03701">
        <ele>163</ele>
        <time>2021-05-20T11:24:40.573Z</time>
      </trkpt>
      <trkpt lat="48.72352" lon="2.03699">
        <ele>163</ele>
        <time>2021-05-20T11:24:41.573Z</time>
      </trkpt>
      <trkpt lat="48.72352" lon="2.03697">
        <ele>163</ele>
        <time>2021-05-20T11:24:42.573Z</time>
      </trkpt>
      <trkpt lat="48.72352" lon="2.03694">
        <ele>163</ele>
        <time>2021-05-20T11:24:43.573Z</time>
      </trkpt>
      <trkpt lat="48.72351" lon="2.03692">
        <ele>163</ele>
        <time>2021-05-20T11:24:44.573Z</time>
      </trkpt>
      <trkpt lat="48.72351" lon="2.03689">
        <ele>164</ele>
        <time>2021-05-20T11:24:45.573Z</time>
      </trkpt>
      <trkpt lat="48.72351" lon="2.03687">
        <ele>164</ele>
        <time>2021-05-20T11:24:46.573Z</time>
      </trkpt>
      <trkpt lat="48.72351" lon="2.03685">
        <ele>164</ele>
        <time>2021-05-20T11:24:47.573Z</time>
      </trkpt>
      <trkpt lat="48.7235" lon="2.03682">
        <ele>164</ele>
        <time>2021-05-20T11:24:48.573Z</time>
      </trkpt>
      <trkpt lat="48.7235" lon="2.0368">
        <ele>164</ele>
        <time>2021-05-20T11:24:49.573Z</time>
      </trkpt>
      <trkpt lat="48.7235" lon="2.03678">
        <ele>165</ele>
        <time>2021-05-20T11:24:50.573Z</time>
      </trkpt>
      <trkpt lat="48.72349" lon="2.03676">
        <ele>165</ele>
        <time>2021-05-20T11:24:51.573Z</time>
      </trkpt>
      <trkpt lat="48.72349" lon="2.03674">
        <ele>165</ele>
        <time>2021-05-20T11:24:52.573Z</time>
      </trkpt>
      <trkpt lat="48.72349" lon="2.03672">
        <ele>165</ele>
        <time>2021-05-20T11:24:53.573Z</time>
      </trkpt>
      <trkpt lat="48.72349" lon="2.0367">
        <ele>165</ele>
        <time>2021-05-20T11:24:54.573Z</time>
      </trkpt>
      <trkpt lat="48.72349" lon="2.03668">
        <ele>165</ele>
        <time>2021-05-20T11:24:55.573Z</time>
      </trkpt>
      <trkpt lat="48.72348" lon="2.03666">
        <ele>166</ele>
        <time>2021-05-20T11:24:56.573Z</time>
      </trkpt>
      <trkpt lat="48.72348" lon="2.03664">
        <ele>166</ele>
        <time>2021-05-20T11:24:57.573Z</time>
      </trkpt>
      <trkpt lat="48.72348" lon="2.03662">
        <ele>166</ele>
        <time>2021-05-20T11:24:58.573Z</time>
      </trkpt>
      <trkpt lat="48.72348" lon="2.03661">
        <ele>166</ele>
        <time>2021-05-20T11:24:59.573Z</time>
      </trkpt>
      <trkpt lat="48.72348" lon="2.03659">
        <ele>166</ele>
        <time>2021-05-20T11:25:00.573Z</time>
      </trkpt>
      <trkpt lat="48.72349" lon="2.03657">
        <ele>166</ele>
        <time>2021-05-20T11:25:01.573Z</time>
      </trkpt>
      <trkpt lat="48.72349" lon="2.03655">
        <ele>166</ele>
        <time>2021-05-20T11:25:02.573Z</time>
      </trkpt>
      <trkpt lat="48.72349" lon="2.03652">
        <ele>166</ele>
        <time>2021-05-20T11:25:03.573Z</time>
      </trkpt>
      <trkpt lat="48.72349" lon="2.0365">
        <ele>166</ele>
        <time>2021-05-20T11:25:04.573Z</time>
      </trkpt>
      <trkpt lat="48.7235" lon="2.03648">
        <ele>166</ele>
        <time>2021-05-20T11:25:05.573Z</time>
      </trkpt>
      <trkpt lat="48.7235" lon="2.03646">
        <ele>166</ele>
        <time>2021-05-20T11:25:06.573Z</time>
      </trkpt>
      <trkpt lat="48.7235" lon="2.03644">
        <ele>165</ele>
        <time>2021-05-20T11:25:07.573Z</time>
      </trkpt>
      <trkpt lat="48.7235" lon="2.03642">
        <ele>165</ele>
        <time>2021-05-20T11:25:08.573Z</time>
      </trkpt>
      <trkpt lat="48.7235" lon="2.0364">
        <ele>165</ele>
        <time>2021-05-20T11:25:09.573Z</time>
      </trkpt>
      <trkpt lat="48.7235" lon="2.03639">
        <ele>165</ele>
        <time>2021-05-20T11:25:10.573Z</time>
      </trkpt>
      <trkpt lat="48.7235" lon="2.03637">
        <ele>164</ele>
        <time>2021-05-20T11:25:11.573Z</time>
      </trkpt>
      <trkpt lat="48.7235" lon="2.03635">
        <ele>164</ele>
        <time>2021-05-20T11:25:12.573Z</time>
      </trkpt>
      <trkpt lat="48.7235" lon="2.03633">
        <ele>164</ele>
        <time>2021-05-20T11:25:13.573Z</time>
      </trkpt>
      <trkpt lat="48.7235" lon="2.03631">
        <ele>164</ele>
        <time>2021-05-20T11:25:14.573Z</time>
      </trkpt>
      <trkpt lat="48.7235" lon="2.03629">
        <ele>163</ele>
        <time>2021-05-20T11:25:15.573Z</time>
      </trkpt>
      <trkpt lat="48.72349" lon="2.03627">
        <ele>163</ele>
        <time>2021-05-20T11:25:16.573Z</time>
      </trkpt>
      <trkpt lat="48.72349" lon="2.03626">
        <ele>163</ele>
        <time>2021-05-20T11:25:17.573Z</time>
      </trkpt>
      <trkpt lat="48.72349" lon="2.03624">
        <ele>163</ele>
        <time>2021-05-20T11:25:18.573Z</time>
      </trkpt>
      <trkpt lat="48.72348" lon="2.03623">
        <ele>163</ele>
        <time>2021-05-20T11:25:19.573Z</time>
      </trkpt>
      <trkpt lat="48.72348" lon="2.03622">
        <ele>163</ele>
        <time>2021-05-20T11:25:20.573Z</time>
      </trkpt>
      <trkpt lat="48.72347" lon="2.03621">
        <ele>163</ele>
        <time>2021-05-20T11:25:21.573Z</time>
      </trkpt>
      <trkpt lat="48.72347" lon="2.0362">
        <ele>162</ele>
        <time>2021-05-20T11:25:22.573Z</time>
      </trkpt>
      <trkpt lat="48.72346" lon="2.03618">
        <ele>162</ele>
        <time>2021-05-20T11:25:23.573Z</time>
      </trkpt>
      <trkpt lat="48.72346" lon="2.03617">
        <ele>162</ele>
        <time>2021-05-20T11:25:24.573Z</time>
      </trkpt>
      <trkpt lat="48.72345" lon="2.03615">
        <ele>162</ele>
        <time>2021-05-20T11:25:25.573Z</time>
      </trkpt>
      <trkpt lat="48.72344" lon="2.03613">
        <ele>162</ele>
        <time>2021-05-20T11:25:26.573Z</time>
      </trkpt>
      <trkpt lat="48.72343" lon="2.03612">
        <ele>162</ele>
        <time>2021-05-20T11:25:27.573Z</time>
      </trkpt>
      <trkpt lat="48.72343" lon="2.0361">
        <ele>162</ele>
        <time>2021-05-20T11:25:28.573Z</time>
      </trkpt>
      <trkpt lat="48.72342" lon="2.03609">
        <ele>162</ele>
        <time>2021-05-20T11:25:29.573Z</time>
      </trkpt>
      <trkpt lat="48.72342" lon="2.03607">
        <ele>162</ele>
        <time>2021-05-20T11:25:30.573Z</time>
      </trkpt>
      <trkpt lat="48.72341" lon="2.03606">
        <ele>162</ele>
        <time>2021-05-20T11:25:31.573Z</time>
      </trkpt>
      <trkpt lat="48.72341" lon="2.03604">
        <ele>162</ele>
        <time>2021-05-20T11:25:32.573Z</time>
      </trkpt>
      <trkpt lat="48.7234" lon="2.03602">
        <ele>162</ele>
        <time>2021-05-20T11:25:33.573Z</time>
      </trkpt>
      <trkpt lat="48.72339" lon="2.03601">
        <ele>162</ele>
        <time>2021-05-20T11:25:34.573Z</time>
      </trkpt>
      <trkpt lat="48.72339" lon="2.03599">
        <ele>162</ele>
        <time>2021-05-20T11:25:35.573Z</time>
      </trkpt>
      <trkpt lat="48.72338" lon="2.03598">
        <ele>162</ele>
        <time>2021-05-20T11:25:36.573Z</time>
      </trkpt>
      <trkpt lat="48.72337" lon="2.03597">
        <ele>162</ele>
        <time>2021-05-20T11:25:37.573Z</time>
      </trkpt>
      <trkpt lat="48.72336" lon="2.03595">
        <ele>162</ele>
        <time>2021-05-20T11:25:38.573Z</time>
      </trkpt>
      <trkpt lat="48.72335" lon="2.03594">
        <ele>162</ele>
        <time>2021-05-20T11:25:39.573Z</time>
      </trkpt>
      <trkpt lat="48.72334" lon="2.03593">
        <ele>162</ele>
        <time>2021-05-20T11:25:40.573Z</time>
      </trkpt>
      <trkpt lat="48.72334" lon="2.03592">
        <ele>162</ele>
        <time>2021-05-20T11:25:41.573Z</time>
      </trkpt>
      <trkpt lat="48.72333" lon="2.0359">
        <ele>163</ele>
        <time>2021-05-20T11:25:42.573Z</time>
      </trkpt>
      <trkpt lat="48.72332" lon="2.03588">
        <ele>163</ele>
        <time>2021-05-20T11:25:43.573Z</time>
      </trkpt>
      <trkpt lat="48.72332" lon="2.03586">
        <ele>163</ele>
        <time>2021-05-20T11:25:44.573Z</time>
      </trkpt>
      <trkpt lat="48.72331" lon="2.03584">
        <ele>163</ele>
        <time>2021-05-20T11:25:45.573Z</time>
      </trkpt>
      <trkpt lat="48.7233" lon="2.03583">
        <ele>163</ele>
        <time>2021-05-20T11:25:46.573Z</time>
      </trkpt>
      <trkpt lat="48.7233" lon="2.03581">
        <ele>163</ele>
        <time>2021-05-20T11:25:47.573Z</time>
      </trkpt>
      <trkpt lat="48.7233" lon="2.03579">
        <ele>163</ele>
        <time>2021-05-20T11:25:48.573Z</time>
      </trkpt>
      <trkpt lat="48.72329" lon="2.03577">
        <ele>163</ele>
        <time>2021-05-20T11:25:49.573Z</time>
      </trkpt>
      <trkpt lat="48.72329" lon="2.03575">
        <ele>163</ele>
        <time>2021-05-20T11:25:50.573Z</time>
      </trkpt>
      <trkpt lat="48.72329" lon="2.03574">
        <ele>163</ele>
        <time>2021-05-20T11:25:51.573Z</time>
      </trkpt>
      <trkpt lat="48.72328" lon="2.03572">
        <ele>163</ele>
        <time>2021-05-20T11:25:52.573Z</time>
      </trkpt>
      <trkpt lat="48.72328" lon="2.0357">
        <ele>163</ele>
        <time>2021-05-20T11:25:53.573Z</time>
      </trkpt>
      <trkpt lat="48.72328" lon="2.03568">
        <ele>164</ele>
        <time>2021-05-20T11:25:54.573Z</time>
      </trkpt>
      <trkpt lat="48.72328" lon="2.03565">
        <ele>164</ele>
        <time>2021-05-20T11:25:55.573Z</time>
      </trkpt>
      <trkpt lat="48.72328" lon="2.03563">
        <ele>164</ele>
        <time>2021-05-20T11:25:56.573Z</time>
      </trkpt>
      <trkpt lat="48.72328" lon="2.0356">
        <ele>164</ele>
        <time>2021-05-20T11:25:57.573Z</time>
      </trkpt>
      <trkpt lat="48.72328" lon="2.03558">
        <ele>164</ele>
        <time>2021-05-20T11:25:58.573Z</time>
      </trkpt>
      <trkpt lat="48.72329" lon="2.03555">
        <ele>164</ele>
        <time>2021-05-20T11:25:59.573Z</time>
      </trkpt>
      <trkpt lat="48.72329" lon="2.03553">
        <ele>164</ele>
        <time>2021-05-20T11:26:00.573Z</time>
      </trkpt>
      <trkpt lat="48.72329" lon="2.03551">
        <ele>165</ele>
        <time>2021-05-20T11:26:01.573Z</time>
      </trkpt>
      <trkpt lat="48.72329" lon="2.03549">
        <ele>165</ele>
        <time>2021-05-20T11:26:02.573Z</time>
      </trkpt>
      <trkpt lat="48.72329" lon="2.03548">
        <ele>165</ele>
        <time>2021-05-20T11:26:03.573Z</time>
      </trkpt>
      <trkpt lat="48.72329" lon="2.03546">
        <ele>165</ele>
        <time>2021-05-20T11:26:04.573Z</time>
      </trkpt>
      <trkpt lat="48.72329" lon="2.03544">
        <ele>165</ele>
        <time>2021-05-20T11:26:05.573Z</time>
      </trkpt>
      <trkpt lat="48.72329" lon="2.03542">
        <ele>165</ele>
        <time>2021-05-20T11:26:06.573Z</time>
      </trkpt>
      <trkpt lat="48.72329" lon="2.03539">
        <ele>165</ele>
        <time>2021-05-20T11:26:07.573Z</time>
      </trkpt>
      <trkpt lat="48.72329" lon="2.03537">
        <ele>165</ele>
        <time>2021-05-20T11:26:08.573Z</time>
      </trkpt>
      <trkpt lat="48.72329" lon="2.03534">
        <ele>165</ele>
        <time>2021-05-20T11:26:09.573Z</time>
      </trkpt>
      <trkpt lat="48.72329" lon="2.03532">
        <ele>166</ele>
        <time>2021-05-20T11:26:10.573Z</time>
      </trkpt>
      <trkpt lat="48.72329" lon="2.0353">
        <ele>166</ele>
        <time>2021-05-20T11:26:11.573Z</time>
      </trkpt>
      <trkpt lat="48.72329" lon="2.03528">
        <ele>166</ele>
        <time>2021-05-20T11:26:12.573Z</time>
      </trkpt>
      <trkpt lat="48.72329" lon="2.03526">
        <ele>166</ele>
        <time>2021-05-20T11:26:13.573Z</time>
      </trkpt>
      <trkpt lat="48.72329" lon="2.03525">
        <ele>166</ele>
        <time>2021-05-20T11:26:14.573Z</time>
      </trkpt>
      <trkpt lat="48.7233" lon="2.03522">
        <ele>167</ele>
        <time>2021-05-20T11:26:15.573Z</time>
      </trkpt>
      <trkpt lat="48.7233" lon="2.0352">
        <ele>167</ele>
        <time>2021-05-20T11:26:16.573Z</time>
      </trkpt>
      <trkpt lat="48.7233" lon="2.03518">
        <ele>167</ele>
        <time>2021-05-20T11:26:17.573Z</time>
      </trkpt>
      <trkpt lat="48.7233" lon="2.03516">
        <ele>167</ele>
        <time>2021-05-20T11:26:18.573Z</time>
      </trkpt>
      <trkpt lat="48.72331" lon="2.03514">
        <ele>167</ele>
        <time>2021-05-20T11:26:19.573Z</time>
      </trkpt>
      <trkpt lat="48.72331" lon="2.03511">
        <ele>167</ele>
        <time>2021-05-20T11:26:20.573Z</time>
      </trkpt>
      <trkpt lat="48.72332" lon="2.03509">
        <ele>167</ele>
        <time>2021-05-20T11:26:21.573Z</time>
      </trkpt>
      <trkpt lat="48.72333" lon="2.03507">
        <ele>168</ele>
        <time>2021-05-20T11:26:22.573Z</time>
      </trkpt>
      <trkpt lat="48.72333" lon="2.03505">
        <ele>168</ele>
        <time>2021-05-20T11:26:23.573Z</time>
      </trkpt>
      <trkpt lat="48.72333" lon="2.03503">
        <ele>168</ele>
        <time>2021-05-20T11:26:24.573Z</time>
      </trkpt>
      <trkpt lat="48.72333" lon="2.03501">
        <ele>168</ele>
        <time>2021-05-20T11:26:25.573Z</time>
      </trkpt>
      <trkpt lat="48.72333" lon="2.03499">
        <ele>168</ele>
        <time>2021-05-20T11:26:26.573Z</time>
      </trkpt>
      <trkpt lat="48.72334" lon="2.03497">
        <ele>168</ele>
        <time>2021-05-20T11:26:27.573Z</time>
      </trkpt>
      <trkpt lat="48.72334" lon="2.03495">
        <ele>168</ele>
        <time>2021-05-20T11:26:28.573Z</time>
      </trkpt>
      <trkpt lat="48.72334" lon="2.03494">
        <ele>168</ele>
        <time>2021-05-20T11:26:29.573Z</time>
      </trkpt>
      <trkpt lat="48.72334" lon="2.03492">
        <ele>168</ele>
        <time>2021-05-20T11:26:30.573Z</time>
      </trkpt>
      <trkpt lat="48.72334" lon="2.0349">
        <ele>168</ele>
        <time>2021-05-20T11:26:31.573Z</time>
      </trkpt>
      <trkpt lat="48.72334" lon="2.03488">
        <ele>168</ele>
        <time>2021-05-20T11:26:32.573Z</time>
      </trkpt>
      <trkpt lat="48.72335" lon="2.03486">
        <ele>168</ele>
        <time>2021-05-20T11:26:33.573Z</time>
      </trkpt>
      <trkpt lat="48.72335" lon="2.03484">
        <ele>168</ele>
        <time>2021-05-20T11:26:34.573Z</time>
      </trkpt>
      <trkpt lat="48.72335" lon="2.03483">
        <ele>168</ele>
        <time>2021-05-20T11:26:35.573Z</time>
      </trkpt>
      <trkpt lat="48.72335" lon="2.03481">
        <ele>168</ele>
        <time>2021-05-20T11:26:36.573Z</time>
      </trkpt>
      <trkpt lat="48.72336" lon="2.0348">
        <ele>169</ele>
        <time>2021-05-20T11:26:37.573Z</time>
      </trkpt>
      <trkpt lat="48.72336" lon="2.03478">
        <ele>169</ele>
        <time>2021-05-20T11:26:38.573Z</time>
      </trkpt>
      <trkpt lat="48.72336" lon="2.03476">
        <ele>169</ele>
        <time>2021-05-20T11:26:39.573Z</time>
      </trkpt>
      <trkpt lat="48.72337" lon="2.03474">
        <ele>169</ele>
        <time>2021-05-20T11:26:40.573Z</time>
      </trkpt>
      <trkpt lat="48.72337" lon="2.03473">
        <ele>169</ele>
        <time>2021-05-20T11:26:41.573Z</time>
      </trkpt>
      <trkpt lat="48.72337" lon="2.03471">
        <ele>169</ele>
        <time>2021-05-20T11:26:42.573Z</time>
      </trkpt>
      <trkpt lat="48.72338" lon="2.03469">
        <ele>169</ele>
        <time>2021-05-20T11:26:43.573Z</time>
      </trkpt>
      <trkpt lat="48.72338" lon="2.03468">
        <ele>170</ele>
        <time>2021-05-20T11:26:44.573Z</time>
      </trkpt>
      <trkpt lat="48.72338" lon="2.03466">
        <ele>170</ele>
        <time>2021-05-20T11:26:45.573Z</time>
      </trkpt>
      <trkpt lat="48.72338" lon="2.03464">
        <ele>170</ele>
        <time>2021-05-20T11:26:46.573Z</time>
      </trkpt>
      <trkpt lat="48.72338" lon="2.03463">
        <ele>170</ele>
        <time>2021-05-20T11:26:47.573Z</time>
      </trkpt>
      <trkpt lat="48.72338" lon="2.03461">
        <ele>170</ele>
        <time>2021-05-20T11:26:48.573Z</time>
      </trkpt>
      <trkpt lat="48.72338" lon="2.03459">
        <ele>171</ele>
        <time>2021-05-20T11:26:49.573Z</time>
      </trkpt>
      <trkpt lat="48.72338" lon="2.03457">
        <ele>171</ele>
        <time>2021-05-20T11:26:50.573Z</time>
      </trkpt>
      <trkpt lat="48.72338" lon="2.03455">
        <ele>171</ele>
        <time>2021-05-20T11:26:51.573Z</time>
      </trkpt>
      <trkpt lat="48.72337" lon="2.03452">
        <ele>171</ele>
        <time>2021-05-20T11:26:52.573Z</time>
      </trkpt>
      <trkpt lat="48.72337" lon="2.0345">
        <ele>171</ele>
        <time>2021-05-20T11:26:53.573Z</time>
      </trkpt>
      <trkpt lat="48.72336" lon="2.03447">
        <ele>171</ele>
        <time>2021-05-20T11:26:54.573Z</time>
      </trkpt>
      <trkpt lat="48.72336" lon="2.03444">
        <ele>171</ele>
        <time>2021-05-20T11:26:55.573Z</time>
      </trkpt>
      <trkpt lat="48.72335" lon="2.03442">
        <ele>171</ele>
        <time>2021-05-20T11:26:56.573Z</time>
      </trkpt>
      <trkpt lat="48.72335" lon="2.0344">
        <ele>171</ele>
        <time>2021-05-20T11:26:57.573Z</time>
      </trkpt>
      <trkpt lat="48.72335" lon="2.03438">
        <ele>171</ele>
        <time>2021-05-20T11:26:58.573Z</time>
      </trkpt>
      <trkpt lat="48.72335" lon="2.03436">
        <ele>171</ele>
        <time>2021-05-20T11:26:59.573Z</time>
      </trkpt>
      <trkpt lat="48.72335" lon="2.03434">
        <ele>171</ele>
        <time>2021-05-20T11:27:00.573Z</time>
      </trkpt>
      <trkpt lat="48.72335" lon="2.03432">
        <ele>171</ele>
        <time>2021-05-20T11:27:01.573Z</time>
      </trkpt>
      <trkpt lat="48.72336" lon="2.0343">
        <ele>171</ele>
        <time>2021-05-20T11:27:02.573Z</time>
      </trkpt>
      <trkpt lat="48.72336" lon="2.03428">
        <ele>171</ele>
        <time>2021-05-20T11:27:03.573Z</time>
      </trkpt>
      <trkpt lat="48.72337" lon="2.03426">
        <ele>171</ele>
        <time>2021-05-20T11:27:04.573Z</time>
      </trkpt>
      <trkpt lat="48.72337" lon="2.03424">
        <ele>171</ele>
        <time>2021-05-20T11:27:05.573Z</time>
      </trkpt>
      <trkpt lat="48.72337" lon="2.03422">
        <ele>171</ele>
        <time>2021-05-20T11:27:06.573Z</time>
      </trkpt>
      <trkpt lat="48.72338" lon="2.0342">
        <ele>171</ele>
        <time>2021-05-20T11:27:07.573Z</time>
      </trkpt>
      <trkpt lat="48.72338" lon="2.03418">
        <ele>171</ele>
        <time>2021-05-20T11:27:08.573Z</time>
      </trkpt>
      <trkpt lat="48.72338" lon="2.03416">
        <ele>171</ele>
        <time>2021-05-20T11:27:09.573Z</time>
      </trkpt>
      <trkpt lat="48.72339" lon="2.03414">
        <ele>171</ele>
        <time>2021-05-20T11:27:10.573Z</time>
      </trkpt>
      <trkpt lat="48.72339" lon="2.03412">
        <ele>171</ele>
        <time>2021-05-20T11:27:11.573Z</time>
      </trkpt>
      <trkpt lat="48.72338" lon="2.0341">
        <ele>171</ele>
        <time>2021-05-20T11:27:12.573Z</time>
      </trkpt>
      <trkpt lat="48.72338" lon="2.03408">
        <ele>171</ele>
        <time>2021-05-20T11:27:13.573Z</time>
      </trkpt>
      <trkpt lat="48.72338" lon="2.03406">
        <ele>171</ele>
        <time>2021-05-20T11:27:14.573Z</time>
      </trkpt>
      <trkpt lat="48.72337" lon="2.03403">
        <ele>171</ele>
        <time>2021-05-20T11:27:15.573Z</time>
      </trkpt>
      <trkpt lat="48.72337" lon="2.03401">
        <ele>171</ele>
        <time>2021-05-20T11:27:16.573Z</time>
      </trkpt>
      <trkpt lat="48.72337" lon="2.03399">
        <ele>171</ele>
        <time>2021-05-20T11:27:17.573Z</time>
      </trkpt>
      <trkpt lat="48.72337" lon="2.03396">
        <ele>171</ele>
        <time>2021-05-20T11:27:18.573Z</time>
      </trkpt>
      <trkpt lat="48.72337" lon="2.03394">
        <ele>171</ele>
        <time>2021-05-20T11:27:19.573Z</time>
      </trkpt>
      <trkpt lat="48.72337" lon="2.03392">
        <ele>171</ele>
        <time>2021-05-20T11:27:20.573Z</time>
      </trkpt>
      <trkpt lat="48.72337" lon="2.03391">
        <ele>171</ele>
        <time>2021-05-20T11:27:21.573Z</time>
      </trkpt>
      <trkpt lat="48.72337" lon="2.03389">
        <ele>171</ele>
        <time>2021-05-20T11:27:22.573Z</time>
      </trkpt>
      <trkpt lat="48.72337" lon="2.03387">
        <ele>171</ele>
        <time>2021-05-20T11:27:23.573Z</time>
      </trkpt>
      <trkpt lat="48.72337" lon="2.03385">
        <ele>171</ele>
        <time>2021-05-20T11:27:24.573Z</time>
      </trkpt>
      <trkpt lat="48.72337" lon="2.03383">
        <ele>171</ele>
        <time>2021-05-20T11:27:25.573Z</time>
      </trkpt>
      <trkpt lat="48.72337" lon="2.03381">
        <ele>171</ele>
        <time>2021-05-20T11:27:26.573Z</time>
      </trkpt>
      <trkpt lat="48.72337" lon="2.03379">
        <ele>171</ele>
        <time>2021-05-20T11:27:27.573Z</time>
      </trkpt>
      <trkpt lat="48.72338" lon="2.03377">
        <ele>171</ele>
        <time>2021-05-20T11:27:28.573Z</time>
      </trkpt>
      <trkpt lat="48.72338" lon="2.03375">
        <ele>171</ele>
        <time>2021-05-20T11:27:29.573Z</time>
      </trkpt>
      <trkpt lat="48.72338" lon="2.03373">
        <ele>171</ele>
        <time>2021-05-20T11:27:30.573Z</time>
      </trkpt>
      <trkpt lat="48.72338" lon="2.03371">
        <ele>171</ele>
        <time>2021-05-20T11:27:31.573Z</time>
      </trkpt>
      <trkpt lat="48.72338" lon="2.0337">
        <ele>171</ele>
        <time>2021-05-20T11:27:32.573Z</time>
      </trkpt>
      <trkpt lat="48.72338" lon="2.03368">
        <ele>171</ele>
        <time>2021-05-20T11:27:33.573Z</time>
      </trkpt>
      <trkpt lat="48.72338" lon="2.03366">
        <ele>171</ele>
        <time>2021-05-20T11:27:34.573Z</time>
      </trkpt>
      <trkpt lat="48.72337" lon="2.03364">
        <ele>171</ele>
        <time>2021-05-20T11:27:35.573Z</time>
      </trkpt>
      <trkpt lat="48.72337" lon="2.03363">
        <ele>171</ele>
        <time>2021-05-20T11:27:36.573Z</time>
      </trkpt>
      <trkpt lat="48.72337" lon="2.03361">
        <ele>171</ele>
        <time>2021-05-20T11:27:37.573Z</time>
      </trkpt>
      <trkpt lat="48.72336" lon="2.03359">
        <ele>171</ele>
        <time>2021-05-20T11:27:38.573Z</time>
      </trkpt>
      <trkpt lat="48.72336" lon="2.03357">
        <ele>171</ele>
        <time>2021-05-20T11:27:39.573Z</time>
      </trkpt>
      <trkpt lat="48.72335" lon="2.03355">
        <ele>171</ele>
        <time>2021-05-20T11:27:40.573Z</time>
      </trkpt>
      <trkpt lat="48.72334" lon="2.03353">
        <ele>171</ele>
        <time>2021-05-20T11:27:41.573Z</time>
      </trkpt>
      <trkpt lat="48.72334" lon="2.03351">
        <ele>171</ele>
        <time>2021-05-20T11:27:42.573Z</time>
      </trkpt>
      <trkpt lat="48.72333" lon="2.0335">
        <ele>171</ele>
        <time>2021-05-20T11:27:43.573Z</time>
      </trkpt>
      <trkpt lat="48.72332" lon="2.03348">
        <ele>171</ele>
        <time>2021-05-20T11:27:44.573Z</time>
      </trkpt>
      <trkpt lat="48.72332" lon="2.03347">
        <ele>171</ele>
        <time>2021-05-20T11:27:45.573Z</time>
      </trkpt>
      <trkpt lat="48.72331" lon="2.03345">
        <ele>171</ele>
        <time>2021-05-20T11:27:46.573Z</time>
      </trkpt>
      <trkpt lat="48.72331" lon="2.03344">
        <ele>171</ele>
        <time>2021-05-20T11:27:47.573Z</time>
      </trkpt>
      <trkpt lat="48.7233" lon="2.03342">
        <ele>171</ele>
        <time>2021-05-20T11:27:48.573Z</time>
      </trkpt>
      <trkpt lat="48.7233" lon="2.0334">
        <ele>171</ele>
        <time>2021-05-20T11:27:49.573Z</time>
      </trkpt>
      <trkpt lat="48.72329" lon="2.03338">
        <ele>171</ele>
        <time>2021-05-20T11:27:50.573Z</time>
      </trkpt>
      <trkpt lat="48.72329" lon="2.03337">
        <ele>171</ele>
        <time>2021-05-20T11:27:51.573Z</time>
      </trkpt>
      <trkpt lat="48.72328" lon="2.03335">
        <ele>171</ele>
        <time>2021-05-20T11:27:52.573Z</time>
      </trkpt>
      <trkpt lat="48.72328" lon="2.03334">
        <ele>170</ele>
        <time>2021-05-20T11:27:53.573Z</time>
      </trkpt>
      <trkpt lat="48.72327" lon="2.03332">
        <ele>170</ele>
        <time>2021-05-20T11:27:54.573Z</time>
      </trkpt>
      <trkpt lat="48.72327" lon="2.03331">
        <ele>170</ele>
        <time>2021-05-20T11:27:55.573Z</time>
      </trkpt>
      <trkpt lat="48.72326" lon="2.03329">
        <ele>170</ele>
        <time>2021-05-20T11:27:56.573Z</time>
      </trkpt>
      <trkpt lat="48.72326" lon="2.03327">
        <ele>170</ele>
        <time>2021-05-20T11:27:57.573Z</time>
      </trkpt>
      <trkpt lat="48.72325" lon="2.03326">
        <ele>170</ele>
        <time>2021-05-20T11:27:58.573Z</time>
      </trkpt>
      <trkpt lat="48.72324" lon="2.03324">
        <ele>170</ele>
        <time>2021-05-20T11:27:59.573Z</time>
      </trkpt>
      <trkpt lat="48.72323" lon="2.03322">
        <ele>169</ele>
        <time>2021-05-20T11:28:00.573Z</time>
      </trkpt>
      <trkpt lat="48.72322" lon="2.03321">
        <ele>169</ele>
        <time>2021-05-20T11:28:01.573Z</time>
      </trkpt>
      <trkpt lat="48.72322" lon="2.03319">
        <ele>169</ele>
        <time>2021-05-20T11:28:02.573Z</time>
      </trkpt>
      <trkpt lat="48.72321" lon="2.03317">
        <ele>169</ele>
        <time>2021-05-20T11:28:03.573Z</time>
      </trkpt>
      <trkpt lat="48.7232" lon="2.03316">
        <ele>169</ele>
        <time>2021-05-20T11:28:04.573Z</time>
      </trkpt>
      <trkpt lat="48.7232" lon="2.03315">
        <ele>169</ele>
        <time>2021-05-20T11:28:05.573Z</time>
      </trkpt>
      <trkpt lat="48.72319" lon="2.03313">
        <ele>169</ele>
        <time>2021-05-20T11:28:06.573Z</time>
      </trkpt>
      <trkpt lat="48.72318" lon="2.03311">
        <ele>169</ele>
        <time>2021-05-20T11:28:07.573Z</time>
      </trkpt>
      <trkpt lat="48.72317" lon="2.03309">
        <ele>169</ele>
        <time>2021-05-20T11:28:08.573Z</time>
      </trkpt>
      <trkpt lat="48.72316" lon="2.03307">
        <ele>169</ele>
        <time>2021-05-20T11:28:09.573Z</time>
      </trkpt>
      <trkpt lat="48.72316" lon="2.03305">
        <ele>169</ele>
        <time>2021-05-20T11:28:10.573Z</time>
      </trkpt>
      <trkpt lat="48.72315" lon="2.03303">
        <ele>169</ele>
        <time>2021-05-20T11:28:11.573Z</time>
      </trkpt>
      <trkpt lat="48.72315" lon="2.03302">
        <ele>169</ele>
        <time>2021-05-20T11:28:12.573Z</time>
      </trkpt>
      <trkpt lat="48.72314" lon="2.033">
        <ele>169</ele>
        <time>2021-05-20T11:28:13.573Z</time>
      </trkpt>
      <trkpt lat="48.72313" lon="2.03298">
        <ele>169</ele>
        <time>2021-05-20T11:28:14.573Z</time>
      </trkpt>
      <trkpt lat="48.72313" lon="2.03296">
        <ele>169</ele>
        <time>2021-05-20T11:28:15.573Z</time>
      </trkpt>
      <trkpt lat="48.72312" lon="2.03294">
        <ele>169</ele>
        <time>2021-05-20T11:28:16.573Z</time>
      </trkpt>
      <trkpt lat="48.72311" lon="2.03292">
        <ele>169</ele>
        <time>2021-05-20T11:28:17.573Z</time>
      </trkpt>
      <trkpt lat="48.7231" lon="2.0329">
        <ele>170</ele>
        <time>2021-05-20T11:28:18.573Z</time>
      </trkpt>
      <trkpt lat="48.7231" lon="2.03288">
        <ele>170</ele>
        <time>2021-05-20T11:28:19.573Z</time>
      </trkpt>
      <trkpt lat="48.7231" lon="2.03286">
        <ele>170</ele>
        <time>2021-05-20T11:28:20.573Z</time>
      </trkpt>
      <trkpt lat="48.72309" lon="2.03285">
        <ele>170</ele>
        <time>2021-05-20T11:28:21.573Z</time>
      </trkpt>
      <trkpt lat="48.72309" lon="2.03283">
        <ele>170</ele>
        <time>2021-05-20T11:28:22.573Z</time>
      </trkpt>
      <trkpt lat="48.72308" lon="2.03281">
        <ele>170</ele>
        <time>2021-05-20T11:28:23.573Z</time>
      </trkpt>
      <trkpt lat="48.72308" lon="2.03279">
        <ele>170</ele>
        <time>2021-05-20T11:28:24.573Z</time>
      </trkpt>
      <trkpt lat="48.72307" lon="2.03278">
        <ele>170</ele>
        <time>2021-05-20T11:28:25.573Z</time>
      </trkpt>
      <trkpt lat="48.72307" lon="2.03276">
        <ele>170</ele>
        <time>2021-05-20T11:28:26.573Z</time>
      </trkpt>
      <trkpt lat="48.72306" lon="2.03274">
        <ele>170</ele>
        <time>2021-05-20T11:28:27.573Z</time>
      </trkpt>
      <trkpt lat="48.72305" lon="2.03273">
        <ele>170</ele>
        <time>2021-05-20T11:28:28.573Z</time>
      </trkpt>
      <trkpt lat="48.72305" lon="2.03271">
        <ele>170</ele>
        <time>2021-05-20T11:28:29.573Z</time>
      </trkpt>
      <trkpt lat="48.72304" lon="2.03269">
        <ele>170</ele>
        <time>2021-05-20T11:28:30.573Z</time>
      </trkpt>
      <trkpt lat="48.72303" lon="2.03267">
        <ele>170</ele>
        <time>2021-05-20T11:28:31.573Z</time>
      </trkpt>
      <trkpt lat="48.72302" lon="2.03265">
        <ele>170</ele>
        <time>2021-05-20T11:28:32.573Z</time>
      </trkpt>
      <trkpt lat="48.72302" lon="2.03264">
        <ele>169</ele>
        <time>2021-05-20T11:28:33.573Z</time>
      </trkpt>
      <trkpt lat="48.72301" lon="2.03263">
        <ele>169</ele>
        <time>2021-05-20T11:28:39.572Z</time>
      </trkpt>
      <trkpt lat="48.723" lon="2.03261">
        <ele>170</ele>
        <time>2021-05-20T11:28:40.572Z</time>
      </trkpt>
      <trkpt lat="48.72299" lon="2.0326">
        <ele>170</ele>
        <time>2021-05-20T11:28:41.572Z</time>
      </trkpt>
      <trkpt lat="48.72299" lon="2.03259">
        <ele>170</ele>
        <time>2021-05-20T11:28:42.572Z</time>
      </trkpt>
      <trkpt lat="48.72298" lon="2.03257">
        <ele>170</ele>
        <time>2021-05-20T11:28:43.572Z</time>
      </trkpt>
      <trkpt lat="48.72298" lon="2.03256">
        <ele>170</ele>
        <time>2021-05-20T11:28:44.572Z</time>
      </trkpt>
      <trkpt lat="48.72298" lon="2.03254">
        <ele>170</ele>
        <time>2021-05-20T11:28:45.572Z</time>
      </trkpt>
      <trkpt lat="48.72297" lon="2.03253">
        <ele>170</ele>
        <time>2021-05-20T11:28:46.572Z</time>
      </trkpt>
      <trkpt lat="48.72297" lon="2.03251">
        <ele>170</ele>
        <time>2021-05-20T11:28:47.572Z</time>
      </trkpt>
      <trkpt lat="48.72297" lon="2.03249">
        <ele>170</ele>
        <time>2021-05-20T11:28:48.572Z</time>
      </trkpt>
      <trkpt lat="48.72297" lon="2.03248">
        <ele>170</ele>
        <time>2021-05-20T11:28:49.572Z</time>
      </trkpt>
      <trkpt lat="48.72297" lon="2.03246">
        <ele>171</ele>
        <time>2021-05-20T11:28:50.572Z</time>
      </trkpt>
      <trkpt lat="48.72297" lon="2.03244">
        <ele>171</ele>
        <time>2021-05-20T11:28:51.572Z</time>
      </trkpt>
      <trkpt lat="48.72297" lon="2.03242">
        <ele>171</ele>
        <time>2021-05-20T11:28:52.572Z</time>
      </trkpt>
      <trkpt lat="48.72297" lon="2.0324">
        <ele>171</ele>
        <time>2021-05-20T11:28:53.572Z</time>
      </trkpt>
      <trkpt lat="48.72297" lon="2.03238">
        <ele>171</ele>
        <time>2021-05-20T11:28:54.572Z</time>
      </trkpt>
      <trkpt lat="48.72297" lon="2.03235">
        <ele>171</ele>
        <time>2021-05-20T11:28:55.572Z</time>
      </trkpt>
      <trkpt lat="48.72297" lon="2.03233">
        <ele>171</ele>
        <time>2021-05-20T11:28:56.572Z</time>
      </trkpt>
      <trkpt lat="48.72297" lon="2.03231">
        <ele>171</ele>
        <time>2021-05-20T11:28:57.572Z</time>
      </trkpt>
      <trkpt lat="48.72297" lon="2.03229">
        <ele>171</ele>
        <time>2021-05-20T11:28:58.572Z</time>
      </trkpt>
      <trkpt lat="48.72297" lon="2.03228">
        <ele>170</ele>
        <time>2021-05-20T11:28:59.572Z</time>
      </trkpt>
      <trkpt lat="48.72297" lon="2.03225">
        <ele>170</ele>
        <time>2021-05-20T11:29:00.572Z</time>
      </trkpt>
      <trkpt lat="48.72298" lon="2.03223">
        <ele>170</ele>
        <time>2021-05-20T11:29:01.572Z</time>
      </trkpt>
      <trkpt lat="48.72298" lon="2.03221">
        <ele>170</ele>
        <time>2021-05-20T11:29:02.572Z</time>
      </trkpt>
      <trkpt lat="48.72298" lon="2.03219">
        <ele>170</ele>
        <time>2021-05-20T11:29:03.572Z</time>
      </trkpt>
      <trkpt lat="48.72298" lon="2.03217">
        <ele>170</ele>
        <time>2021-05-20T11:29:04.572Z</time>
      </trkpt>
      <trkpt lat="48.72299" lon="2.03215">
        <ele>170</ele>
        <time>2021-05-20T11:29:05.572Z</time>
      </trkpt>
      <trkpt lat="48.72299" lon="2.03213">
        <ele>170</ele>
        <time>2021-05-20T11:29:06.572Z</time>
      </trkpt>
      <trkpt lat="48.72299" lon="2.03211">
        <ele>170</ele>
        <time>2021-05-20T11:29:07.572Z</time>
      </trkpt>
      <trkpt lat="48.72299" lon="2.03209">
        <ele>170</ele>
        <time>2021-05-20T11:29:08.572Z</time>
      </trkpt>
      <trkpt lat="48.72299" lon="2.03208">
        <ele>170</ele>
        <time>2021-05-20T11:29:09.572Z</time>
      </trkpt>
      <trkpt lat="48.72299" lon="2.03206">
        <ele>170</ele>
        <time>2021-05-20T11:29:10.572Z</time>
      </trkpt>
      <trkpt lat="48.72299" lon="2.03204">
        <ele>170</ele>
        <time>2021-05-20T11:29:11.572Z</time>
      </trkpt>
      <trkpt lat="48.723" lon="2.03202">
        <ele>170</ele>
        <time>2021-05-20T11:29:12.572Z</time>
      </trkpt>
      <trkpt lat="48.723" lon="2.032">
        <ele>170</ele>
        <time>2021-05-20T11:29:13.572Z</time>
      </trkpt>
      <trkpt lat="48.72301" lon="2.03198">
        <ele>169</ele>
        <time>2021-05-20T11:29:14.572Z</time>
      </trkpt>
      <trkpt lat="48.72301" lon="2.03196">
        <ele>169</ele>
        <time>2021-05-20T11:29:15.572Z</time>
      </trkpt>
      <trkpt lat="48.72301" lon="2.03194">
        <ele>169</ele>
        <time>2021-05-20T11:29:16.572Z</time>
      </trkpt>
      <trkpt lat="48.72302" lon="2.03192">
        <ele>169</ele>
        <time>2021-05-20T11:29:17.572Z</time>
      </trkpt>
      <trkpt lat="48.72302" lon="2.0319">
        <ele>169</ele>
        <time>2021-05-20T11:29:18.572Z</time>
      </trkpt>
      <trkpt lat="48.72302" lon="2.03188">
        <ele>169</ele>
        <time>2021-05-20T11:29:19.572Z</time>
      </trkpt>
      <trkpt lat="48.72302" lon="2.03187">
        <ele>169</ele>
        <time>2021-05-20T11:29:20.572Z</time>
      </trkpt>
      <trkpt lat="48.72303" lon="2.03185">
        <ele>169</ele>
        <time>2021-05-20T11:29:21.572Z</time>
      </trkpt>
      <trkpt lat="48.72303" lon="2.03184">
        <ele>170</ele>
        <time>2021-05-20T11:29:22.572Z</time>
      </trkpt>
      <trkpt lat="48.72303" lon="2.03182">
        <ele>170</ele>
        <time>2021-05-20T11:29:23.572Z</time>
      </trkpt>
      <trkpt lat="48.72303" lon="2.0318">
        <ele>170</ele>
        <time>2021-05-20T11:29:24.572Z</time>
      </trkpt>
      <trkpt lat="48.72303" lon="2.03178">
        <ele>170</ele>
        <time>2021-05-20T11:29:25.572Z</time>
      </trkpt>
      <trkpt lat="48.72303" lon="2.03176">
        <ele>170</ele>
        <time>2021-05-20T11:29:26.572Z</time>
      </trkpt>
      <trkpt lat="48.72303" lon="2.03175">
        <ele>170</ele>
        <time>2021-05-20T11:29:27.572Z</time>
      </trkpt>
      <trkpt lat="48.72303" lon="2.03172">
        <ele>170</ele>
        <time>2021-05-20T11:29:28.572Z</time>
      </trkpt>
      <trkpt lat="48.72303" lon="2.0317">
        <ele>170</ele>
        <time>2021-05-20T11:29:29.572Z</time>
      </trkpt>
      <trkpt lat="48.72302" lon="2.03168">
        <ele>170</ele>
        <time>2021-05-20T11:29:30.572Z</time>
      </trkpt>
      <trkpt lat="48.72302" lon="2.03165">
        <ele>170</ele>
        <time>2021-05-20T11:29:31.572Z</time>
      </trkpt>
      <trkpt lat="48.72302" lon="2.03163">
        <ele>169</ele>
        <time>2021-05-20T11:29:32.572Z</time>
      </trkpt>
      <trkpt lat="48.72302" lon="2.03161">
        <ele>169</ele>
        <time>2021-05-20T11:29:33.572Z</time>
      </trkpt>
      <trkpt lat="48.72303" lon="2.03159">
        <ele>169</ele>
        <time>2021-05-20T11:29:34.572Z</time>
      </trkpt>
      <trkpt lat="48.72303" lon="2.03158">
        <ele>169</ele>
        <time>2021-05-20T11:29:35.572Z</time>
      </trkpt>
      <trkpt lat="48.72303" lon="2.03156">
        <ele>169</ele>
        <time>2021-05-20T11:29:36.572Z</time>
      </trkpt>
      <trkpt lat="48.72303" lon="2.03154">
        <ele>169</ele>
        <time>2021-05-20T11:29:37.572Z</time>
      </trkpt>
      <trkpt lat="48.72304" lon="2.03153">
        <ele>169</ele>
        <time>2021-05-20T11:29:38.572Z</time>
      </trkpt>
      <trkpt lat="48.72304" lon="2.03151">
        <ele>169</ele>
        <time>2021-05-20T11:29:39.572Z</time>
      </trkpt>
      <trkpt lat="48.72304" lon="2.03148">
        <ele>169</ele>
        <time>2021-05-20T11:29:40.572Z</time>
      </trkpt>
      <trkpt lat="48.72304" lon="2.03146">
        <ele>169</ele>
        <time>2021-05-20T11:29:41.572Z</time>
      </trkpt>
      <trkpt lat="48.72304" lon="2.03144">
        <ele>168</ele>
        <time>2021-05-20T11:29:42.572Z</time>
      </trkpt>
      <trkpt lat="48.72304" lon="2.03142">
        <ele>168</ele>
        <time>2021-05-20T11:29:43.572Z</time>
      </trkpt>
      <trkpt lat="48.72303" lon="2.03141">
        <ele>168</ele>
        <time>2021-05-20T11:29:44.572Z</time>
      </trkpt>
      <trkpt lat="48.72303" lon="2.03139">
        <ele>168</ele>
        <time>2021-05-20T11:29:45.572Z</time>
      </trkpt>
      <trkpt lat="48.72302" lon="2.03137">
        <ele>168</ele>
        <time>2021-05-20T11:29:46.572Z</time>
      </trkpt>
      <trkpt lat="48.72302" lon="2.03135">
        <ele>168</ele>
        <time>2021-05-20T11:29:47.572Z</time>
      </trkpt>
      <trkpt lat="48.72302" lon="2.03133">
        <ele>168</ele>
        <time>2021-05-20T11:29:48.572Z</time>
      </trkpt>
      <trkpt lat="48.72301" lon="2.03132">
        <ele>169</ele>
        <time>2021-05-20T11:29:49.572Z</time>
      </trkpt>
      <trkpt lat="48.72301" lon="2.0313">
        <ele>169</ele>
        <time>2021-05-20T11:29:50.572Z</time>
      </trkpt>
      <trkpt lat="48.723" lon="2.03128">
        <ele>169</ele>
        <time>2021-05-20T11:29:51.572Z</time>
      </trkpt>
      <trkpt lat="48.72299" lon="2.03127">
        <ele>169</ele>
        <time>2021-05-20T11:29:52.572Z</time>
      </trkpt>
      <trkpt lat="48.72298" lon="2.03126">
        <ele>169</ele>
        <time>2021-05-20T11:29:53.572Z</time>
      </trkpt>
      <trkpt lat="48.72298" lon="2.03124">
        <ele>169</ele>
        <time>2021-05-20T11:29:54.572Z</time>
      </trkpt>
      <trkpt lat="48.72297" lon="2.03123">
        <ele>170</ele>
        <time>2021-05-20T11:29:55.572Z</time>
      </trkpt>
      <trkpt lat="48.72296" lon="2.03121">
        <ele>170</ele>
        <time>2021-05-20T11:29:56.572Z</time>
      </trkpt>
      <trkpt lat="48.72296" lon="2.03119">
        <ele>170</ele>
        <time>2021-05-20T11:29:57.572Z</time>
      </trkpt>
      <trkpt lat="48.72295" lon="2.03117">
        <ele>170</ele>
        <time>2021-05-20T11:29:58.572Z</time>
      </trkpt>
      <trkpt lat="48.72294" lon="2.03116">
        <ele>170</ele>
        <time>2021-05-20T11:29:59.572Z</time>
      </trkpt>
      <trkpt lat="48.72293" lon="2.03114">
        <ele>170</ele>
        <time>2021-05-20T11:30:00.572Z</time>
      </trkpt>
      <trkpt lat="48.72293" lon="2.03113">
        <ele>170</ele>
        <time>2021-05-20T11:30:01.572Z</time>
      </trkpt>
      <trkpt lat="48.72292" lon="2.03113">
        <ele>171</ele>
        <time>2021-05-20T11:30:02.572Z</time>
      </trkpt>
      <trkpt lat="48.72292" lon="2.03112">
        <ele>171</ele>
        <time>2021-05-20T11:30:03.572Z</time>
      </trkpt>
      <trkpt lat="48.72292" lon="2.03111">
        <ele>171</ele>
        <time>2021-05-20T11:30:04.572Z</time>
      </trkpt>
      <trkpt lat="48.7229" lon="2.03107">
        <ele>171</ele>
        <time>2021-05-20T11:30:05.572Z</time>
      </trkpt>
      <trkpt lat="48.72289" lon="2.03105">
        <ele>171</ele>
        <time>2021-05-20T11:30:06.572Z</time>
      </trkpt>
      <trkpt lat="48.72288" lon="2.03103">
        <ele>171</ele>
        <time>2021-05-20T11:30:07.572Z</time>
      </trkpt>
      <trkpt lat="48.72287" lon="2.03102">
        <ele>171</ele>
        <time>2021-05-20T11:30:08.572Z</time>
      </trkpt>
      <trkpt lat="48.72287" lon="2.031">
        <ele>171</ele>
        <time>2021-05-20T11:30:09.572Z</time>
      </trkpt>
      <trkpt lat="48.72286" lon="2.03098">
        <ele>171</ele>
        <time>2021-05-20T11:30:10.572Z</time>
      </trkpt>
      <trkpt lat="48.72285" lon="2.03096">
        <ele>171</ele>
        <time>2021-05-20T11:30:11.572Z</time>
      </trkpt>
      <trkpt lat="48.72284" lon="2.03094">
        <ele>171</ele>
        <time>2021-05-20T11:30:12.572Z</time>
      </trkpt>
      <trkpt lat="48.72284" lon="2.03092">
        <ele>171</ele>
        <time>2021-05-20T11:30:13.572Z</time>
      </trkpt>
      <trkpt lat="48.72283" lon="2.0309">
        <ele>171</ele>
        <time>2021-05-20T11:30:14.572Z</time>
      </trkpt>
      <trkpt lat="48.72282" lon="2.03088">
        <ele>171</ele>
        <time>2021-05-20T11:30:15.572Z</time>
      </trkpt>
      <trkpt lat="48.72281" lon="2.03086">
        <ele>171</ele>
        <time>2021-05-20T11:30:16.572Z</time>
      </trkpt>
      <trkpt lat="48.7228" lon="2.03084">
        <ele>171</ele>
        <time>2021-05-20T11:30:17.572Z</time>
      </trkpt>
      <trkpt lat="48.72279" lon="2.03082">
        <ele>171</ele>
        <time>2021-05-20T11:30:18.572Z</time>
      </trkpt>
      <trkpt lat="48.72278" lon="2.0308">
        <ele>170</ele>
        <time>2021-05-20T11:30:19.572Z</time>
      </trkpt>
      <trkpt lat="48.72277" lon="2.03078">
        <ele>170</ele>
        <time>2021-05-20T11:30:20.572Z</time>
      </trkpt>
      <trkpt lat="48.72276" lon="2.03077">
        <ele>170</ele>
        <time>2021-05-20T11:30:21.572Z</time>
      </trkpt>
      <trkpt lat="48.72275" lon="2.03076">
        <ele>170</ele>
        <time>2021-05-20T11:30:22.572Z</time>
      </trkpt>
      <trkpt lat="48.72274" lon="2.03075">
        <ele>170</ele>
        <time>2021-05-20T11:30:23.572Z</time>
      </trkpt>
      <trkpt lat="48.72273" lon="2.03073">
        <ele>170</ele>
        <time>2021-05-20T11:30:24.572Z</time>
      </trkpt>
      <trkpt lat="48.72272" lon="2.03072">
        <ele>170</ele>
        <time>2021-05-20T11:30:25.572Z</time>
      </trkpt>
      <trkpt lat="48.72271" lon="2.0307">
        <ele>170</ele>
        <time>2021-05-20T11:30:26.572Z</time>
      </trkpt>
      <trkpt lat="48.7227" lon="2.03068">
        <ele>170</ele>
        <time>2021-05-20T11:30:27.572Z</time>
      </trkpt>
      <trkpt lat="48.7227" lon="2.03067">
        <ele>170</ele>
        <time>2021-05-20T11:30:28.572Z</time>
      </trkpt>
      <trkpt lat="48.72269" lon="2.03064">
        <ele>169</ele>
        <time>2021-05-20T11:30:29.572Z</time>
      </trkpt>
      <trkpt lat="48.72268" lon="2.03062">
        <ele>169</ele>
        <time>2021-05-20T11:30:30.572Z</time>
      </trkpt>
      <trkpt lat="48.72268" lon="2.0306">
        <ele>169</ele>
        <time>2021-05-20T11:30:31.572Z</time>
      </trkpt>
      <trkpt lat="48.72267" lon="2.03057">
        <ele>169</ele>
        <time>2021-05-20T11:30:32.572Z</time>
      </trkpt>
      <trkpt lat="48.72267" lon="2.03055">
        <ele>169</ele>
        <time>2021-05-20T11:30:33.572Z</time>
      </trkpt>
      <trkpt lat="48.72266" lon="2.03053">
        <ele>169</ele>
        <time>2021-05-20T11:30:34.572Z</time>
      </trkpt>
      <trkpt lat="48.72266" lon="2.03052">
        <ele>169</ele>
        <time>2021-05-20T11:30:35.572Z</time>
      </trkpt>
      <trkpt lat="48.72265" lon="2.0305">
        <ele>169</ele>
        <time>2021-05-20T11:30:36.572Z</time>
      </trkpt>
      <trkpt lat="48.72265" lon="2.03048">
        <ele>168</ele>
        <time>2021-05-20T11:30:37.572Z</time>
      </trkpt>
      <trkpt lat="48.72264" lon="2.03047">
        <ele>168</ele>
        <time>2021-05-20T11:30:38.572Z</time>
      </trkpt>
      <trkpt lat="48.72264" lon="2.03045">
        <ele>168</ele>
        <time>2021-05-20T11:30:39.572Z</time>
      </trkpt>
      <trkpt lat="48.72263" lon="2.03043">
        <ele>168</ele>
        <time>2021-05-20T11:30:40.572Z</time>
      </trkpt>
      <trkpt lat="48.72263" lon="2.03041">
        <ele>168</ele>
        <time>2021-05-20T11:30:41.572Z</time>
      </trkpt>
      <trkpt lat="48.72262" lon="2.03039">
        <ele>168</ele>
        <time>2021-05-20T11:30:42.572Z</time>
      </trkpt>
      <trkpt lat="48.72262" lon="2.03038">
        <ele>168</ele>
        <time>2021-05-20T11:30:43.572Z</time>
      </trkpt>
      <trkpt lat="48.72261" lon="2.03036">
        <ele>168</ele>
        <time>2021-05-20T11:30:44.572Z</time>
      </trkpt>
      <trkpt lat="48.7226" lon="2.03034">
        <ele>168</ele>
        <time>2021-05-20T11:30:45.572Z</time>
      </trkpt>
      <trkpt lat="48.7226" lon="2.03033">
        <ele>167</ele>
        <time>2021-05-20T11:30:46.572Z</time>
      </trkpt>
      <trkpt lat="48.72259" lon="2.03031">
        <ele>167</ele>
        <time>2021-05-20T11:30:47.572Z</time>
      </trkpt>
      <trkpt lat="48.72259" lon="2.0303">
        <ele>167</ele>
        <time>2021-05-20T11:30:48.572Z</time>
      </trkpt>
      <trkpt lat="48.72258" lon="2.03028">
        <ele>167</ele>
        <time>2021-05-20T11:30:49.572Z</time>
      </trkpt>
      <trkpt lat="48.72258" lon="2.03026">
        <ele>167</ele>
        <time>2021-05-20T11:30:50.572Z</time>
      </trkpt>
      <trkpt lat="48.72257" lon="2.03024">
        <ele>167</ele>
        <time>2021-05-20T11:30:51.572Z</time>
      </trkpt>
      <trkpt lat="48.72257" lon="2.03023">
        <ele>167</ele>
        <time>2021-05-20T11:30:52.572Z</time>
      </trkpt>
      <trkpt lat="48.72256" lon="2.03021">
        <ele>167</ele>
        <time>2021-05-20T11:30:53.572Z</time>
      </trkpt>
      <trkpt lat="48.72255" lon="2.0302">
        <ele>167</ele>
        <time>2021-05-20T11:30:54.572Z</time>
      </trkpt>
      <trkpt lat="48.72254" lon="2.03018">
        <ele>167</ele>
        <time>2021-05-20T11:30:55.572Z</time>
      </trkpt>
      <trkpt lat="48.72253" lon="2.03016">
        <ele>166</ele>
        <time>2021-05-20T11:30:56.572Z</time>
      </trkpt>
      <trkpt lat="48.72253" lon="2.03014">
        <ele>166</ele>
        <time>2021-05-20T11:30:57.572Z</time>
      </trkpt>
      <trkpt lat="48.72252" lon="2.03012">
        <ele>166</ele>
        <time>2021-05-20T11:30:58.572Z</time>
      </trkpt>
      <trkpt lat="48.72252" lon="2.03011">
        <ele>166</ele>
        <time>2021-05-20T11:30:59.572Z</time>
      </trkpt>
      <trkpt lat="48.72251" lon="2.03009">
        <ele>166</ele>
        <time>2021-05-20T11:31:00.572Z</time>
      </trkpt>
      <trkpt lat="48.72251" lon="2.03007">
        <ele>166</ele>
        <time>2021-05-20T11:31:01.572Z</time>
      </trkpt>
      <trkpt lat="48.7225" lon="2.03006">
        <ele>165</ele>
        <time>2021-05-20T11:31:02.572Z</time>
      </trkpt>
      <trkpt lat="48.72249" lon="2.03004">
        <ele>165</ele>
        <time>2021-05-20T11:31:03.572Z</time>
      </trkpt>
      <trkpt lat="48.72249" lon="2.03002">
        <ele>165</ele>
        <time>2021-05-20T11:31:04.572Z</time>
      </trkpt>
      <trkpt lat="48.72248" lon="2.03">
        <ele>165</ele>
        <time>2021-05-20T11:31:05.572Z</time>
      </trkpt>
      <trkpt lat="48.72248" lon="2.02999">
        <ele>165</ele>
        <time>2021-05-20T11:31:06.572Z</time>
      </trkpt>
      <trkpt lat="48.72247" lon="2.02997">
        <ele>165</ele>
        <time>2021-05-20T11:31:07.572Z</time>
      </trkpt>
      <trkpt lat="48.72247" lon="2.02995">
        <ele>165</ele>
        <time>2021-05-20T11:31:08.572Z</time>
      </trkpt>
      <trkpt lat="48.72246" lon="2.02994">
        <ele>165</ele>
        <time>2021-05-20T11:31:09.572Z</time>
      </trkpt>
      <trkpt lat="48.72245" lon="2.02992">
        <ele>165</ele>
        <time>2021-05-20T11:31:10.572Z</time>
      </trkpt>
      <trkpt lat="48.72245" lon="2.02991">
        <ele>165</ele>
        <time>2021-05-20T11:31:11.572Z</time>
      </trkpt>
      <trkpt lat="48.72244" lon="2.02989">
        <ele>165</ele>
        <time>2021-05-20T11:31:12.572Z</time>
      </trkpt>
      <trkpt lat="48.72243" lon="2.02988">
        <ele>165</ele>
        <time>2021-05-20T11:31:13.572Z</time>
      </trkpt>
      <trkpt lat="48.72242" lon="2.02986">
        <ele>165</ele>
        <time>2021-05-20T11:31:14.572Z</time>
      </trkpt>
      <trkpt lat="48.72242" lon="2.02984">
        <ele>165</ele>
        <time>2021-05-20T11:31:15.572Z</time>
      </trkpt>
      <trkpt lat="48.72242" lon="2.02983">
        <ele>165</ele>
        <time>2021-05-20T11:31:16.572Z</time>
      </trkpt>
      <trkpt lat="48.72241" lon="2.02982">
        <ele>165</ele>
        <time>2021-05-20T11:31:17.572Z</time>
      </trkpt>
      <trkpt lat="48.72241" lon="2.0298">
        <ele>165</ele>
        <time>2021-05-20T11:31:18.572Z</time>
      </trkpt>
      <trkpt lat="48.7224" lon="2.02979">
        <ele>165</ele>
        <time>2021-05-20T11:31:19.572Z</time>
      </trkpt>
      <trkpt lat="48.7224" lon="2.02977">
        <ele>165</ele>
        <time>2021-05-20T11:31:20.572Z</time>
      </trkpt>
      <trkpt lat="48.7224" lon="2.02976">
        <ele>165</ele>
        <time>2021-05-20T11:31:21.572Z</time>
      </trkpt>
      <trkpt lat="48.72239" lon="2.02974">
        <ele>165</ele>
        <time>2021-05-20T11:31:22.572Z</time>
      </trkpt>
      <trkpt lat="48.72238" lon="2.02972">
        <ele>165</ele>
        <time>2021-05-20T11:31:23.572Z</time>
      </trkpt>
      <trkpt lat="48.72237" lon="2.0297">
        <ele>165</ele>
        <time>2021-05-20T11:31:24.572Z</time>
      </trkpt>
      <trkpt lat="48.72236" lon="2.02968">
        <ele>165</ele>
        <time>2021-05-20T11:31:25.572Z</time>
      </trkpt>
      <trkpt lat="48.72235" lon="2.02967">
        <ele>165</ele>
        <time>2021-05-20T11:31:26.572Z</time>
      </trkpt>
      <trkpt lat="48.72234" lon="2.02965">
        <ele>165</ele>
        <time>2021-05-20T11:31:27.572Z</time>
      </trkpt>
      <trkpt lat="48.72234" lon="2.02963">
        <ele>165</ele>
        <time>2021-05-20T11:31:28.572Z</time>
      </trkpt>
      <trkpt lat="48.72233" lon="2.02961">
        <ele>165</ele>
        <time>2021-05-20T11:31:29.572Z</time>
      </trkpt>
      <trkpt lat="48.72232" lon="2.0296">
        <ele>165</ele>
        <time>2021-05-20T11:31:30.572Z</time>
      </trkpt>
      <trkpt lat="48.72232" lon="2.02958">
        <ele>165</ele>
        <time>2021-05-20T11:31:31.572Z</time>
      </trkpt>
      <trkpt lat="48.72231" lon="2.02956">
        <ele>165</ele>
        <time>2021-05-20T11:31:32.572Z</time>
      </trkpt>
      <trkpt lat="48.72231" lon="2.02954">
        <ele>165</ele>
        <time>2021-05-20T11:31:33.572Z</time>
      </trkpt>
      <trkpt lat="48.7223" lon="2.02952">
        <ele>165</ele>
        <time>2021-05-20T11:31:34.572Z</time>
      </trkpt>
      <trkpt lat="48.7223" lon="2.0295">
        <ele>165</ele>
        <time>2021-05-20T11:31:35.572Z</time>
      </trkpt>
      <trkpt lat="48.72229" lon="2.02948">
        <ele>165</ele>
        <time>2021-05-20T11:31:36.572Z</time>
      </trkpt>
      <trkpt lat="48.72229" lon="2.02947">
        <ele>165</ele>
        <time>2021-05-20T11:31:37.572Z</time>
      </trkpt>
      <trkpt lat="48.72228" lon="2.02945">
        <ele>165</ele>
        <time>2021-05-20T11:31:38.572Z</time>
      </trkpt>
      <trkpt lat="48.72228" lon="2.02945">
        <ele>165</ele>
        <time>2021-05-20T11:31:42.580Z</time>
      </trkpt>
      <trkpt lat="48.72227" lon="2.02944">
        <ele>165</ele>
        <time>2021-05-20T11:31:43.580Z</time>
      </trkpt>
      <trkpt lat="48.72227" lon="2.02944">
        <ele>165</ele>
        <time>2021-05-20T11:31:44.580Z</time>
      </trkpt>
      <trkpt lat="48.72226" lon="2.02943">
        <ele>165</ele>
        <time>2021-05-20T11:31:45.580Z</time>
      </trkpt>
      <trkpt lat="48.72225" lon="2.02943">
        <ele>166</ele>
        <time>2021-05-20T11:31:46.580Z</time>
      </trkpt>
      <trkpt lat="48.72224" lon="2.02943">
        <ele>166</ele>
        <time>2021-05-20T11:31:47.580Z</time>
      </trkpt>
      <trkpt lat="48.72223" lon="2.02939">
        <ele>167</ele>
        <time>2021-05-20T11:32:33.588Z</time>
      </trkpt>
      <trkpt lat="48.72222" lon="2.02938">
        <ele>167</ele>
        <time>2021-05-20T11:32:34.588Z</time>
      </trkpt>
      <trkpt lat="48.72222" lon="2.02938">
        <ele>167</ele>
        <time>2021-05-20T11:32:35.588Z</time>
      </trkpt>
      <trkpt lat="48.72221" lon="2.02937">
        <ele>167</ele>
        <time>2021-05-20T11:32:36.588Z</time>
      </trkpt>
      <trkpt lat="48.72221" lon="2.02936">
        <ele>167</ele>
        <time>2021-05-20T11:32:37.588Z</time>
      </trkpt>
      <trkpt lat="48.72221" lon="2.02935">
        <ele>167</ele>
        <time>2021-05-20T11:34:17.598Z</time>
      </trkpt>
      <trkpt lat="48.72221" lon="2.02934">
        <ele>167</ele>
        <time>2021-05-20T11:34:18.598Z</time>
      </trkpt>
      <trkpt lat="48.72221" lon="2.02933">
        <ele>167</ele>
        <time>2021-05-20T11:34:19.598Z</time>
      </trkpt>
      <trkpt lat="48.72221" lon="2.02933">
        <ele>167</ele>
        <time>2021-05-20T11:34:20.598Z</time>
      </trkpt>
      <trkpt lat="48.72221" lon="2.02932">
        <ele>167</ele>
        <time>2021-05-20T11:34:21.598Z</time>
      </trkpt>
      <trkpt lat="48.72221" lon="2.02931">
        <ele>167</ele>
        <time>2021-05-20T11:34:22.598Z</time>
      </trkpt>
      <trkpt lat="48.72221" lon="2.02931">
        <ele>167</ele>
        <time>2021-05-20T11:34:23.598Z</time>
      </trkpt>
      <trkpt lat="48.72221" lon="2.0293">
        <ele>167</ele>
        <time>2021-05-20T11:34:24.598Z</time>
      </trkpt>
      <trkpt lat="48.72224" lon="2.02949">
        <ele>177</ele>
        <time>2021-05-20T11:34:25.598Z</time>
      </trkpt>
      <trkpt lat="48.72224" lon="2.02949">
        <ele>177</ele>
        <time>2021-05-20T11:34:26.598Z</time>
      </trkpt>
      <trkpt lat="48.72224" lon="2.02949">
        <ele>177</ele>
        <time>2021-05-20T11:34:27.598Z</time>
      </trkpt>
      <trkpt lat="48.72216" lon="2.02942">
        <ele>174</ele>
        <time>2021-05-20T11:34:28.598Z</time>
      </trkpt>
      <trkpt lat="48.72216" lon="2.02942">
        <ele>173</ele>
        <time>2021-05-20T11:34:29.598Z</time>
      </trkpt>
      <trkpt lat="48.72216" lon="2.02941">
        <ele>173</ele>
        <time>2021-05-20T11:34:30.598Z</time>
      </trkpt>
      <trkpt lat="48.72216" lon="2.0294">
        <ele>173</ele>
        <time>2021-05-20T11:34:31.598Z</time>
      </trkpt>
      <trkpt lat="48.72216" lon="2.02939">
        <ele>173</ele>
        <time>2021-05-20T11:34:32.598Z</time>
      </trkpt>
      <trkpt lat="48.72216" lon="2.02938">
        <ele>173</ele>
        <time>2021-05-20T11:34:33.598Z</time>
      </trkpt>
      <trkpt lat="48.72216" lon="2.02937">
        <ele>172</ele>
        <time>2021-05-20T11:34:34.598Z</time>
      </trkpt>
      <trkpt lat="48.72216" lon="2.02935">
        <ele>172</ele>
        <time>2021-05-20T11:34:35.598Z</time>
      </trkpt>
      <trkpt lat="48.72216" lon="2.02934">
        <ele>172</ele>
        <time>2021-05-20T11:34:36.598Z</time>
      </trkpt>
      <trkpt lat="48.72216" lon="2.02933">
        <ele>172</ele>
        <time>2021-05-20T11:34:37.598Z</time>
      </trkpt>
      <trkpt lat="48.72217" lon="2.02932">
        <ele>172</ele>
        <time>2021-05-20T11:34:38.598Z</time>
      </trkpt>
      <trkpt lat="48.72217" lon="2.02931">
        <ele>171</ele>
        <time>2021-05-20T11:34:39.598Z</time>
      </trkpt>
      <trkpt lat="48.72217" lon="2.0293">
        <ele>171</ele>
        <time>2021-05-20T11:34:40.598Z</time>
      </trkpt>
      <trkpt lat="48.72217" lon="2.02926">
        <ele>170</ele>
        <time>2021-05-20T11:34:41.598Z</time>
      </trkpt>
      <trkpt lat="48.72217" lon="2.02925">
        <ele>170</ele>
        <time>2021-05-20T11:34:42.598Z</time>
      </trkpt>
      <trkpt lat="48.72218" lon="2.02925">
        <ele>170</ele>
        <time>2021-05-20T11:34:43.598Z</time>
      </trkpt>
      <trkpt lat="48.72218" lon="2.02924">
        <ele>170</ele>
        <time>2021-05-20T11:34:44.598Z</time>
      </trkpt>
      <trkpt lat="48.72218" lon="2.02922">
        <ele>170</ele>
        <time>2021-05-20T11:34:45.598Z</time>
      </trkpt>
      <trkpt lat="48.72219" lon="2.02921">
        <ele>169</ele>
        <time>2021-05-20T11:34:46.598Z</time>
      </trkpt>
      <trkpt lat="48.72219" lon="2.0292">
        <ele>169</ele>
        <time>2021-05-20T11:34:47.598Z</time>
      </trkpt>
      <trkpt lat="48.7222" lon="2.02919">
        <ele>169</ele>
        <time>2021-05-20T11:34:48.598Z</time>
      </trkpt>
      <trkpt lat="48.7222" lon="2.02919">
        <ele>169</ele>
        <time>2021-05-20T11:34:49.598Z</time>
      </trkpt>
      <trkpt lat="48.7222" lon="2.02917">
        <ele>169</ele>
        <time>2021-05-20T11:34:50.598Z</time>
      </trkpt>
      <trkpt lat="48.72221" lon="2.02916">
        <ele>169</ele>
        <time>2021-05-20T11:34:51.598Z</time>
      </trkpt>
      <trkpt lat="48.72221" lon="2.02914">
        <ele>168</ele>
        <time>2021-05-20T11:34:52.598Z</time>
      </trkpt>
      <trkpt lat="48.72221" lon="2.02913">
        <ele>168</ele>
        <time>2021-05-20T11:34:53.598Z</time>
      </trkpt>
      <trkpt lat="48.7222" lon="2.02912">
        <ele>167</ele>
        <time>2021-05-20T11:34:54.598Z</time>
      </trkpt>
      <trkpt lat="48.7222" lon="2.02911">
        <ele>167</ele>
        <time>2021-05-20T11:34:55.598Z</time>
      </trkpt>
      <trkpt lat="48.7222" lon="2.0291">
        <ele>167</ele>
        <time>2021-05-20T11:34:56.598Z</time>
      </trkpt>
      <trkpt lat="48.7222" lon="2.02908">
        <ele>167</ele>
        <time>2021-05-20T11:34:57.598Z</time>
      </trkpt>
      <trkpt lat="48.7222" lon="2.02907">
        <ele>167</ele>
        <time>2021-05-20T11:34:58.598Z</time>
      </trkpt>
      <trkpt lat="48.7222" lon="2.02905">
        <ele>166</ele>
        <time>2021-05-20T11:34:59.598Z</time>
      </trkpt>
      <trkpt lat="48.7222" lon="2.02904">
        <ele>166</ele>
        <time>2021-05-20T11:35:00.598Z</time>
      </trkpt>
      <trkpt lat="48.72219" lon="2.02903">
        <ele>166</ele>
        <time>2021-05-20T11:35:01.598Z</time>
      </trkpt>
      <trkpt lat="48.72219" lon="2.02901">
        <ele>166</ele>
        <time>2021-05-20T11:35:02.598Z</time>
      </trkpt>
      <trkpt lat="48.72219" lon="2.029">
        <ele>166</ele>
        <time>2021-05-20T11:35:03.598Z</time>
      </trkpt>
      <trkpt lat="48.72219" lon="2.02899">
        <ele>166</ele>
        <time>2021-05-20T11:35:04.598Z</time>
      </trkpt>
      <trkpt lat="48.72219" lon="2.02897">
        <ele>165</ele>
        <time>2021-05-20T11:35:05.598Z</time>
      </trkpt>
      <trkpt lat="48.72219" lon="2.02895">
        <ele>165</ele>
        <time>2021-05-20T11:35:06.598Z</time>
      </trkpt>
      <trkpt lat="48.72219" lon="2.02894">
        <ele>165</ele>
        <time>2021-05-20T11:35:07.598Z</time>
      </trkpt>
      <trkpt lat="48.7222" lon="2.02892">
        <ele>165</ele>
        <time>2021-05-20T11:35:08.598Z</time>
      </trkpt>
      <trkpt lat="48.7222" lon="2.0289">
        <ele>165</ele>
        <time>2021-05-20T11:35:09.598Z</time>
      </trkpt>
      <trkpt lat="48.7222" lon="2.02888">
        <ele>164</ele>
        <time>2021-05-20T11:35:10.598Z</time>
      </trkpt>
      <trkpt lat="48.7222" lon="2.02887">
        <ele>164</ele>
        <time>2021-05-20T11:35:11.598Z</time>
      </trkpt>
      <trkpt lat="48.7222" lon="2.02885">
        <ele>164</ele>
        <time>2021-05-20T11:35:12.598Z</time>
      </trkpt>
      <trkpt lat="48.72219" lon="2.02884">
        <ele>164</ele>
        <time>2021-05-20T11:35:13.598Z</time>
      </trkpt>
      <trkpt lat="48.72219" lon="2.02883">
        <ele>164</ele>
        <time>2021-05-20T11:35:14.598Z</time>
      </trkpt>
      <trkpt lat="48.72219" lon="2.02882">
        <ele>164</ele>
        <time>2021-05-20T11:35:15.598Z</time>
      </trkpt>
      <trkpt lat="48.72219" lon="2.0288">
        <ele>164</ele>
        <time>2021-05-20T11:35:16.598Z</time>
      </trkpt>
      <trkpt lat="48.72219" lon="2.02879">
        <ele>164</ele>
        <time>2021-05-20T11:35:17.598Z</time>
      </trkpt>
      <trkpt lat="48.72218" lon="2.02877">
        <ele>164</ele>
        <time>2021-05-20T11:35:18.598Z</time>
      </trkpt>
      <trkpt lat="48.72218" lon="2.02875">
        <ele>164</ele>
        <time>2021-05-20T11:35:19.598Z</time>
      </trkpt>
      <trkpt lat="48.72219" lon="2.02874">
        <ele>164</ele>
        <time>2021-05-20T11:35:20.598Z</time>
      </trkpt>
      <trkpt lat="48.72219" lon="2.02873">
        <ele>164</ele>
        <time>2021-05-20T11:35:21.598Z</time>
      </trkpt>
      <trkpt lat="48.72219" lon="2.02872">
        <ele>164</ele>
        <time>2021-05-20T11:35:22.598Z</time>
      </trkpt>
      <trkpt lat="48.72219" lon="2.0287">
        <ele>164</ele>
        <time>2021-05-20T11:35:23.598Z</time>
      </trkpt>
      <trkpt lat="48.72219" lon="2.02869">
        <ele>164</ele>
        <time>2021-05-20T11:35:24.598Z</time>
      </trkpt>
      <trkpt lat="48.72219" lon="2.02868">
        <ele>164</ele>
        <time>2021-05-20T11:35:25.598Z</time>
      </trkpt>
      <trkpt lat="48.72218" lon="2.02866">
        <ele>164</ele>
        <time>2021-05-20T11:35:26.598Z</time>
      </trkpt>
      <trkpt lat="48.72218" lon="2.02865">
        <ele>164</ele>
        <time>2021-05-20T11:35:27.598Z</time>
      </trkpt>
      <trkpt lat="48.72218" lon="2.02864">
        <ele>164</ele>
        <time>2021-05-20T11:35:28.598Z</time>
      </trkpt>
      <trkpt lat="48.72218" lon="2.02861">
        <ele>164</ele>
        <time>2021-05-20T11:35:29.598Z</time>
      </trkpt>
      <trkpt lat="48.72218" lon="2.0286">
        <ele>164</ele>
        <time>2021-05-20T11:35:30.598Z</time>
      </trkpt>
      <trkpt lat="48.72218" lon="2.02858">
        <ele>164</ele>
        <time>2021-05-20T11:35:31.598Z</time>
      </trkpt>
      <trkpt lat="48.72218" lon="2.02857">
        <ele>164</ele>
        <time>2021-05-20T11:35:32.598Z</time>
      </trkpt>
      <trkpt lat="48.72218" lon="2.02856">
        <ele>164</ele>
        <time>2021-05-20T11:35:33.598Z</time>
      </trkpt>
      <trkpt lat="48.72218" lon="2.02854">
        <ele>164</ele>
        <time>2021-05-20T11:35:34.598Z</time>
      </trkpt>
      <trkpt lat="48.72218" lon="2.02852">
        <ele>164</ele>
        <time>2021-05-20T11:35:35.598Z</time>
      </trkpt>
      <trkpt lat="48.72218" lon="2.0285">
        <ele>164</ele>
        <time>2021-05-20T11:35:36.598Z</time>
      </trkpt>
      <trkpt lat="48.72218" lon="2.02848">
        <ele>164</ele>
        <time>2021-05-20T11:35:37.598Z</time>
      </trkpt>
      <trkpt lat="48.72217" lon="2.02846">
        <ele>164</ele>
        <time>2021-05-20T11:35:38.598Z</time>
      </trkpt>
      <trkpt lat="48.72218" lon="2.02845">
        <ele>164</ele>
        <time>2021-05-20T11:35:39.598Z</time>
      </trkpt>
      <trkpt lat="48.72218" lon="2.02843">
        <ele>164</ele>
        <time>2021-05-20T11:35:40.598Z</time>
      </trkpt>
      <trkpt lat="48.72219" lon="2.02842">
        <ele>164</ele>
        <time>2021-05-20T11:35:41.598Z</time>
      </trkpt>
      <trkpt lat="48.72219" lon="2.02842">
        <ele>164</ele>
        <time>2021-05-20T11:35:42.598Z</time>
      </trkpt>
      <trkpt lat="48.7222" lon="2.02841">
        <ele>164</ele>
        <time>2021-05-20T11:35:43.598Z</time>
      </trkpt>
      <trkpt lat="48.72221" lon="2.0284">
        <ele>164</ele>
        <time>2021-05-20T11:35:44.598Z</time>
      </trkpt>
      <trkpt lat="48.72221" lon="2.02839">
        <ele>164</ele>
        <time>2021-05-20T11:35:45.598Z</time>
      </trkpt>
      <trkpt lat="48.72222" lon="2.02838">
        <ele>164</ele>
        <time>2021-05-20T11:35:46.598Z</time>
      </trkpt>
      <trkpt lat="48.72222" lon="2.02837">
        <ele>164</ele>
        <time>2021-05-20T11:35:47.598Z</time>
      </trkpt>
      <trkpt lat="48.72223" lon="2.02835">
        <ele>164</ele>
        <time>2021-05-20T11:35:48.598Z</time>
      </trkpt>
      <trkpt lat="48.72223" lon="2.02834">
        <ele>164</ele>
        <time>2021-05-20T11:35:49.598Z</time>
      </trkpt>
      <trkpt lat="48.72224" lon="2.02832">
        <ele>164</ele>
        <time>2021-05-20T11:35:50.598Z</time>
      </trkpt>
      <trkpt lat="48.72224" lon="2.02831">
        <ele>164</ele>
        <time>2021-05-20T11:35:51.598Z</time>
      </trkpt>
      <trkpt lat="48.72225" lon="2.0283">
        <ele>164</ele>
        <time>2021-05-20T11:35:52.598Z</time>
      </trkpt>
      <trkpt lat="48.72225" lon="2.02828">
        <ele>164</ele>
        <time>2021-05-20T11:35:53.598Z</time>
      </trkpt>
      <trkpt lat="48.72226" lon="2.02827">
        <ele>164</ele>
        <time>2021-05-20T11:36:19.608Z</time>
      </trkpt>
      <trkpt lat="48.72226" lon="2.02825">
        <ele>164</ele>
        <time>2021-05-20T11:36:20.608Z</time>
      </trkpt>
      <trkpt lat="48.72226" lon="2.02824">
        <ele>164</ele>
        <time>2021-05-20T11:36:21.608Z</time>
      </trkpt>
      <trkpt lat="48.72226" lon="2.02823">
        <ele>164</ele>
        <time>2021-05-20T11:36:22.608Z</time>
      </trkpt>
      <trkpt lat="48.72226" lon="2.02823">
        <ele>164</ele>
        <time>2021-05-20T11:36:23.608Z</time>
      </trkpt>
      <trkpt lat="48.72226" lon="2.02822">
        <ele>164</ele>
        <time>2021-05-20T11:36:24.608Z</time>
      </trkpt>
      <trkpt lat="48.72226" lon="2.02822">
        <ele>164</ele>
        <time>2021-05-20T11:36:25.608Z</time>
      </trkpt>
      <trkpt lat="48.72225" lon="2.02821">
        <ele>164</ele>
        <time>2021-05-20T11:36:26.608Z</time>
      </trkpt>
      <trkpt lat="48.72225" lon="2.02821">
        <ele>164</ele>
        <time>2021-05-20T11:36:27.608Z</time>
      </trkpt>
      <trkpt lat="48.72225" lon="2.0282">
        <ele>164</ele>
        <time>2021-05-20T11:36:28.608Z</time>
      </trkpt>
      <trkpt lat="48.72224" lon="2.02819">
        <ele>164</ele>
        <time>2021-05-20T11:36:29.608Z</time>
      </trkpt>
      <trkpt lat="48.72223" lon="2.02817">
        <ele>164</ele>
        <time>2021-05-20T11:36:30.608Z</time>
      </trkpt>
      <trkpt lat="48.72223" lon="2.02816">
        <ele>164</ele>
        <time>2021-05-20T11:36:31.608Z</time>
      </trkpt>
      <trkpt lat="48.72223" lon="2.02814">
        <ele>165</ele>
        <time>2021-05-20T11:36:32.608Z</time>
      </trkpt>
      <trkpt lat="48.72222" lon="2.02812">
        <ele>165</ele>
        <time>2021-05-20T11:36:33.608Z</time>
      </trkpt>
      <trkpt lat="48.72222" lon="2.0281">
        <ele>165</ele>
        <time>2021-05-20T11:36:34.608Z</time>
      </trkpt>
      <trkpt lat="48.72222" lon="2.02808">
        <ele>165</ele>
        <time>2021-05-20T11:36:35.608Z</time>
      </trkpt>
      <trkpt lat="48.72222" lon="2.02807">
        <ele>165</ele>
        <time>2021-05-20T11:36:36.608Z</time>
      </trkpt>
      <trkpt lat="48.72222" lon="2.02806">
        <ele>165</ele>
        <time>2021-05-20T11:36:37.608Z</time>
      </trkpt>
      <trkpt lat="48.72222" lon="2.02804">
        <ele>165</ele>
        <time>2021-05-20T11:36:38.608Z</time>
      </trkpt>
      <trkpt lat="48.72223" lon="2.02803">
        <ele>165</ele>
        <time>2021-05-20T11:36:39.608Z</time>
      </trkpt>
      <trkpt lat="48.72223" lon="2.02802">
        <ele>165</ele>
        <time>2021-05-20T11:36:40.608Z</time>
      </trkpt>
      <trkpt lat="48.72223" lon="2.028">
        <ele>165</ele>
        <time>2021-05-20T11:36:41.608Z</time>
      </trkpt>
      <trkpt lat="48.72223" lon="2.02799">
        <ele>165</ele>
        <time>2021-05-20T11:36:42.608Z</time>
      </trkpt>
      <trkpt lat="48.72223" lon="2.02797">
        <ele>165</ele>
        <time>2021-05-20T11:36:43.608Z</time>
      </trkpt>
      <trkpt lat="48.72224" lon="2.02795">
        <ele>165</ele>
        <time>2021-05-20T11:36:44.608Z</time>
      </trkpt>
      <trkpt lat="48.72224" lon="2.02794">
        <ele>165</ele>
        <time>2021-05-20T11:36:45.608Z</time>
      </trkpt>
      <trkpt lat="48.72224" lon="2.02793">
        <ele>165</ele>
        <time>2021-05-20T11:36:46.608Z</time>
      </trkpt>
      <trkpt lat="48.72224" lon="2.02791">
        <ele>165</ele>
        <time>2021-05-20T11:36:47.608Z</time>
      </trkpt>
      <trkpt lat="48.72224" lon="2.02789">
        <ele>165</ele>
        <time>2021-05-20T11:36:48.608Z</time>
      </trkpt>
      <trkpt lat="48.72225" lon="2.02788">
        <ele>165</ele>
        <time>2021-05-20T11:36:49.608Z</time>
      </trkpt>
      <trkpt lat="48.72225" lon="2.02787">
        <ele>165</ele>
        <time>2021-05-20T11:36:50.608Z</time>
      </trkpt>
      <trkpt lat="48.72225" lon="2.02785">
        <ele>165</ele>
        <time>2021-05-20T11:36:51.608Z</time>
      </trkpt>
      <trkpt lat="48.72226" lon="2.02784">
        <ele>165</ele>
        <time>2021-05-20T11:36:52.608Z</time>
      </trkpt>
      <trkpt lat="48.72226" lon="2.02782">
        <ele>165</ele>
        <time>2021-05-20T11:36:53.608Z</time>
      </trkpt>
      <trkpt lat="48.72226" lon="2.02781">
        <ele>165</ele>
        <time>2021-05-20T11:36:54.608Z</time>
      </trkpt>
      <trkpt lat="48.72227" lon="2.02779">
        <ele>165</ele>
        <time>2021-05-20T11:36:55.608Z</time>
      </trkpt>
      <trkpt lat="48.72227" lon="2.02778">
        <ele>165</ele>
        <time>2021-05-20T11:36:56.608Z</time>
      </trkpt>
      <trkpt lat="48.72227" lon="2.02777">
        <ele>165</ele>
        <time>2021-05-20T11:36:57.608Z</time>
      </trkpt>
      <trkpt lat="48.72227" lon="2.02775">
        <ele>165</ele>
        <time>2021-05-20T11:36:58.608Z</time>
      </trkpt>
      <trkpt lat="48.72228" lon="2.02774">
        <ele>165</ele>
        <time>2021-05-20T11:36:59.608Z</time>
      </trkpt>
      <trkpt lat="48.72228" lon="2.02773">
        <ele>166</ele>
        <time>2021-05-20T11:37:00.608Z</time>
      </trkpt>
      <trkpt lat="48.72228" lon="2.02771">
        <ele>166</ele>
        <time>2021-05-20T11:37:01.608Z</time>
      </trkpt>
      <trkpt lat="48.72228" lon="2.0277">
        <ele>165</ele>
        <time>2021-05-20T11:37:02.608Z</time>
      </trkpt>
      <trkpt lat="48.72228" lon="2.02768">
        <ele>165</ele>
        <time>2021-05-20T11:37:03.608Z</time>
      </trkpt>
      <trkpt lat="48.72229" lon="2.02767">
        <ele>165</ele>
        <time>2021-05-20T11:37:04.608Z</time>
      </trkpt>
      <trkpt lat="48.72229" lon="2.02765">
        <ele>165</ele>
        <time>2021-05-20T11:37:05.608Z</time>
      </trkpt>
      <trkpt lat="48.72229" lon="2.02764">
        <ele>165</ele>
        <time>2021-05-20T11:37:06.608Z</time>
      </trkpt>
      <trkpt lat="48.72229" lon="2.02762">
        <ele>165</ele>
        <time>2021-05-20T11:37:07.608Z</time>
      </trkpt>
      <trkpt lat="48.72229" lon="2.02761">
        <ele>165</ele>
        <time>2021-05-20T11:37:08.608Z</time>
      </trkpt>
      <trkpt lat="48.7223" lon="2.0276">
        <ele>165</ele>
        <time>2021-05-20T11:37:09.608Z</time>
      </trkpt>
      <trkpt lat="48.7223" lon="2.02759">
        <ele>165</ele>
        <time>2021-05-20T11:37:10.608Z</time>
      </trkpt>
      <trkpt lat="48.7223" lon="2.02757">
        <ele>165</ele>
        <time>2021-05-20T11:37:11.608Z</time>
      </trkpt>
      <trkpt lat="48.72231" lon="2.02755">
        <ele>165</ele>
        <time>2021-05-20T11:37:12.608Z</time>
      </trkpt>
      <trkpt lat="48.72231" lon="2.02753">
        <ele>165</ele>
        <time>2021-05-20T11:37:13.608Z</time>
      </trkpt>
      <trkpt lat="48.72232" lon="2.02752">
        <ele>165</ele>
        <time>2021-05-20T11:37:14.608Z</time>
      </trkpt>
      <trkpt lat="48.72232" lon="2.02751">
        <ele>165</ele>
        <time>2021-05-20T11:37:15.608Z</time>
      </trkpt>
      <trkpt lat="48.72232" lon="2.02749">
        <ele>165</ele>
        <time>2021-05-20T11:37:16.608Z</time>
      </trkpt>
      <trkpt lat="48.72233" lon="2.02747">
        <ele>165</ele>
        <time>2021-05-20T11:37:17.608Z</time>
      </trkpt>
      <trkpt lat="48.72233" lon="2.02745">
        <ele>165</ele>
        <time>2021-05-20T11:37:18.608Z</time>
      </trkpt>
      <trkpt lat="48.72234" lon="2.02743">
        <ele>165</ele>
        <time>2021-05-20T11:37:19.608Z</time>
      </trkpt>
      <trkpt lat="48.72234" lon="2.02742">
        <ele>165</ele>
        <time>2021-05-20T11:37:20.608Z</time>
      </trkpt>
      <trkpt lat="48.72234" lon="2.0274">
        <ele>165</ele>
        <time>2021-05-20T11:37:21.608Z</time>
      </trkpt>
      <trkpt lat="48.72234" lon="2.02739">
        <ele>165</ele>
        <time>2021-05-20T11:37:22.608Z</time>
      </trkpt>
      <trkpt lat="48.72235" lon="2.02737">
        <ele>165</ele>
        <time>2021-05-20T11:37:23.608Z</time>
      </trkpt>
      <trkpt lat="48.72235" lon="2.02736">
        <ele>165</ele>
        <time>2021-05-20T11:37:24.608Z</time>
      </trkpt>
      <trkpt lat="48.72235" lon="2.02734">
        <ele>165</ele>
        <time>2021-05-20T11:37:25.608Z</time>
      </trkpt>
      <trkpt lat="48.72235" lon="2.02733">
        <ele>165</ele>
        <time>2021-05-20T11:37:26.608Z</time>
      </trkpt>
      <trkpt lat="48.72235" lon="2.02731">
        <ele>165</ele>
        <time>2021-05-20T11:37:27.608Z</time>
      </trkpt>
      <trkpt lat="48.72236" lon="2.0273">
        <ele>165</ele>
        <time>2021-05-20T11:37:28.608Z</time>
      </trkpt>
      <trkpt lat="48.72236" lon="2.02728">
        <ele>165</ele>
        <time>2021-05-20T11:37:29.608Z</time>
      </trkpt>
      <trkpt lat="48.72237" lon="2.02727">
        <ele>165</ele>
        <time>2021-05-20T11:37:30.608Z</time>
      </trkpt>
      <trkpt lat="48.72237" lon="2.02726">
        <ele>165</ele>
        <time>2021-05-20T11:37:31.608Z</time>
      </trkpt>
      <trkpt lat="48.72238" lon="2.02724">
        <ele>165</ele>
        <time>2021-05-20T11:37:32.608Z</time>
      </trkpt>
      <trkpt lat="48.72238" lon="2.02723">
        <ele>165</ele>
        <time>2021-05-20T11:37:33.608Z</time>
      </trkpt>
      <trkpt lat="48.72239" lon="2.02722">
        <ele>165</ele>
        <time>2021-05-20T11:37:34.608Z</time>
      </trkpt>
      <trkpt lat="48.72239" lon="2.02721">
        <ele>165</ele>
        <time>2021-05-20T11:37:35.608Z</time>
      </trkpt>
      <trkpt lat="48.72239" lon="2.0272">
        <ele>165</ele>
        <time>2021-05-20T11:37:36.608Z</time>
      </trkpt>
      <trkpt lat="48.72239" lon="2.02719">
        <ele>165</ele>
        <time>2021-05-20T11:37:37.608Z</time>
      </trkpt>
      <trkpt lat="48.7224" lon="2.02717">
        <ele>165</ele>
        <time>2021-05-20T11:37:38.608Z</time>
      </trkpt>
      <trkpt lat="48.7224" lon="2.02716">
        <ele>165</ele>
        <time>2021-05-20T11:37:39.608Z</time>
      </trkpt>
      <trkpt lat="48.7224" lon="2.02714">
        <ele>165</ele>
        <time>2021-05-20T11:37:40.608Z</time>
      </trkpt>
      <trkpt lat="48.7224" lon="2.02713">
        <ele>165</ele>
        <time>2021-05-20T11:37:41.608Z</time>
      </trkpt>
      <trkpt lat="48.7224" lon="2.02712">
        <ele>165</ele>
        <time>2021-05-20T11:37:42.608Z</time>
      </trkpt>
      <trkpt lat="48.72241" lon="2.0271">
        <ele>165</ele>
        <time>2021-05-20T11:37:43.608Z</time>
      </trkpt>
      <trkpt lat="48.72241" lon="2.02709">
        <ele>165</ele>
        <time>2021-05-20T11:37:44.608Z</time>
      </trkpt>
      <trkpt lat="48.72242" lon="2.02707">
        <ele>165</ele>
        <time>2021-05-20T11:37:45.608Z</time>
      </trkpt>
      <trkpt lat="48.72242" lon="2.02706">
        <ele>165</ele>
        <time>2021-05-20T11:37:46.608Z</time>
      </trkpt>
      <trkpt lat="48.72242" lon="2.02704">
        <ele>165</ele>
        <time>2021-05-20T11:37:47.608Z</time>
      </trkpt>
      <trkpt lat="48.72243" lon="2.02702">
        <ele>165</ele>
        <time>2021-05-20T11:37:48.608Z</time>
      </trkpt>
      <trkpt lat="48.72243" lon="2.027">
        <ele>165</ele>
        <time>2021-05-20T11:37:49.608Z</time>
      </trkpt>
      <trkpt lat="48.72243" lon="2.02699">
        <ele>165</ele>
        <time>2021-05-20T11:37:50.608Z</time>
      </trkpt>
      <trkpt lat="48.72243" lon="2.02697">
        <ele>165</ele>
        <time>2021-05-20T11:37:51.608Z</time>
      </trkpt>
      <trkpt lat="48.72243" lon="2.02696">
        <ele>165</ele>
        <time>2021-05-20T11:37:52.608Z</time>
      </trkpt>
      <trkpt lat="48.72243" lon="2.02694">
        <ele>165</ele>
        <time>2021-05-20T11:37:53.608Z</time>
      </trkpt>
      <trkpt lat="48.72243" lon="2.02694">
        <ele>165</ele>
        <time>2021-05-20T11:37:54.608Z</time>
      </trkpt>
      <trkpt lat="48.72243" lon="2.02693">
        <ele>165</ele>
        <time>2021-05-20T11:37:55.608Z</time>
      </trkpt>
      <trkpt lat="48.72243" lon="2.02692">
        <ele>165</ele>
        <time>2021-05-20T11:37:56.608Z</time>
      </trkpt>
      <trkpt lat="48.72243" lon="2.02691">
        <ele>165</ele>
        <time>2021-05-20T11:37:57.608Z</time>
      </trkpt>
      <trkpt lat="48.72244" lon="2.02689">
        <ele>165</ele>
        <time>2021-05-20T11:37:58.608Z</time>
      </trkpt>
      <trkpt lat="48.72244" lon="2.02688">
        <ele>165</ele>
        <time>2021-05-20T11:37:59.608Z</time>
      </trkpt>
      <trkpt lat="48.72245" lon="2.02686">
        <ele>166</ele>
        <time>2021-05-20T11:38:00.608Z</time>
      </trkpt>
      <trkpt lat="48.72245" lon="2.02685">
        <ele>166</ele>
        <time>2021-05-20T11:38:01.608Z</time>
      </trkpt>
      <trkpt lat="48.72246" lon="2.02684">
        <ele>166</ele>
        <time>2021-05-20T11:38:02.608Z</time>
      </trkpt>
      <trkpt lat="48.72246" lon="2.02682">
        <ele>166</ele>
        <time>2021-05-20T11:38:03.608Z</time>
      </trkpt>
      <trkpt lat="48.72247" lon="2.0268">
        <ele>166</ele>
        <time>2021-05-20T11:38:04.608Z</time>
      </trkpt>
      <trkpt lat="48.72247" lon="2.02679">
        <ele>166</ele>
        <time>2021-05-20T11:38:05.608Z</time>
      </trkpt>
      <trkpt lat="48.72248" lon="2.02677">
        <ele>167</ele>
        <time>2021-05-20T11:38:06.608Z</time>
      </trkpt>
      <trkpt lat="48.72248" lon="2.02676">
        <ele>167</ele>
        <time>2021-05-20T11:38:07.608Z</time>
      </trkpt>
      <trkpt lat="48.72248" lon="2.02674">
        <ele>167</ele>
        <time>2021-05-20T11:38:08.608Z</time>
      </trkpt>
      <trkpt lat="48.72249" lon="2.02673">
        <ele>167</ele>
        <time>2021-05-20T11:38:09.608Z</time>
      </trkpt>
      <trkpt lat="48.72249" lon="2.02671">
        <ele>167</ele>
        <time>2021-05-20T11:38:10.608Z</time>
      </trkpt>
      <trkpt lat="48.7225" lon="2.02669">
        <ele>167</ele>
        <time>2021-05-20T11:38:11.608Z</time>
      </trkpt>
      <trkpt lat="48.7225" lon="2.02667">
        <ele>167</ele>
        <time>2021-05-20T11:38:12.608Z</time>
      </trkpt>
      <trkpt lat="48.7225" lon="2.02665">
        <ele>167</ele>
        <time>2021-05-20T11:38:13.608Z</time>
      </trkpt>
      <trkpt lat="48.72251" lon="2.02663">
        <ele>166</ele>
        <time>2021-05-20T11:38:14.608Z</time>
      </trkpt>
      <trkpt lat="48.72251" lon="2.02662">
        <ele>166</ele>
        <time>2021-05-20T11:38:15.608Z</time>
      </trkpt>
      <trkpt lat="48.72251" lon="2.02659">
        <ele>166</ele>
        <time>2021-05-20T11:38:16.608Z</time>
      </trkpt>
      <trkpt lat="48.72251" lon="2.02657">
        <ele>166</ele>
        <time>2021-05-20T11:38:17.608Z</time>
      </trkpt>
      <trkpt lat="48.72252" lon="2.02655">
        <ele>166</ele>
        <time>2021-05-20T11:38:18.608Z</time>
      </trkpt>
      <trkpt lat="48.72252" lon="2.02654">
        <ele>166</ele>
        <time>2021-05-20T11:38:19.608Z</time>
      </trkpt>
      <trkpt lat="48.72253" lon="2.02652">
        <ele>166</ele>
        <time>2021-05-20T11:38:20.608Z</time>
      </trkpt>
      <trkpt lat="48.72253" lon="2.02651">
        <ele>166</ele>
        <time>2021-05-20T11:38:21.608Z</time>
      </trkpt>
      <trkpt lat="48.72254" lon="2.02649">
        <ele>166</ele>
        <time>2021-05-20T11:38:22.608Z</time>
      </trkpt>
      <trkpt lat="48.72254" lon="2.02647">
        <ele>166</ele>
        <time>2021-05-20T11:38:23.608Z</time>
      </trkpt>
      <trkpt lat="48.72254" lon="2.02645">
        <ele>166</ele>
        <time>2021-05-20T11:38:24.608Z</time>
      </trkpt>
      <trkpt lat="48.72255" lon="2.02643">
        <ele>166</ele>
        <time>2021-05-20T11:38:25.608Z</time>
      </trkpt>
      <trkpt lat="48.72255" lon="2.02641">
        <ele>166</ele>
        <time>2021-05-20T11:38:26.608Z</time>
      </trkpt>
      <trkpt lat="48.72255" lon="2.0264">
        <ele>166</ele>
        <time>2021-05-20T11:38:27.608Z</time>
      </trkpt>
      <trkpt lat="48.72256" lon="2.02638">
        <ele>166</ele>
        <time>2021-05-20T11:38:28.608Z</time>
      </trkpt>
      <trkpt lat="48.72256" lon="2.02636">
        <ele>166</ele>
        <time>2021-05-20T11:38:29.608Z</time>
      </trkpt>
      <trkpt lat="48.72256" lon="2.02634">
        <ele>166</ele>
        <time>2021-05-20T11:38:30.608Z</time>
      </trkpt>
      <trkpt lat="48.72256" lon="2.02632">
        <ele>166</ele>
        <time>2021-05-20T11:38:31.608Z</time>
      </trkpt>
      <trkpt lat="48.72256" lon="2.02631">
        <ele>166</ele>
        <time>2021-05-20T11:38:32.608Z</time>
      </trkpt>
      <trkpt lat="48.72256" lon="2.0263">
        <ele>166</ele>
        <time>2021-05-20T11:38:33.608Z</time>
      </trkpt>
      <trkpt lat="48.72257" lon="2.02628">
        <ele>166</ele>
        <time>2021-05-20T11:38:34.608Z</time>
      </trkpt>
      <trkpt lat="48.72257" lon="2.02626">
        <ele>166</ele>
        <time>2021-05-20T11:38:35.608Z</time>
      </trkpt>
      <trkpt lat="48.72258" lon="2.02625">
        <ele>165</ele>
        <time>2021-05-20T11:38:36.608Z</time>
      </trkpt>
      <trkpt lat="48.72258" lon="2.02623">
        <ele>165</ele>
        <time>2021-05-20T11:38:37.608Z</time>
      </trkpt>
      <trkpt lat="48.72259" lon="2.02621">
        <ele>165</ele>
        <time>2021-05-20T11:38:38.608Z</time>
      </trkpt>
      <trkpt lat="48.72259" lon="2.0262">
        <ele>165</ele>
        <time>2021-05-20T11:38:39.608Z</time>
      </trkpt>
      <trkpt lat="48.7226" lon="2.02618">
        <ele>165</ele>
        <time>2021-05-20T11:38:40.608Z</time>
      </trkpt>
      <trkpt lat="48.7226" lon="2.02617">
        <ele>165</ele>
        <time>2021-05-20T11:38:41.608Z</time>
      </trkpt>
      <trkpt lat="48.72261" lon="2.02615">
        <ele>165</ele>
        <time>2021-05-20T11:38:42.608Z</time>
      </trkpt>
      <trkpt lat="48.72261" lon="2.02613">
        <ele>165</ele>
        <time>2021-05-20T11:38:43.608Z</time>
      </trkpt>
      <trkpt lat="48.72261" lon="2.02612">
        <ele>165</ele>
        <time>2021-05-20T11:38:44.608Z</time>
      </trkpt>
      <trkpt lat="48.72262" lon="2.0261">
        <ele>165</ele>
        <time>2021-05-20T11:38:45.608Z</time>
      </trkpt>
      <trkpt lat="48.72262" lon="2.02609">
        <ele>165</ele>
        <time>2021-05-20T11:38:46.608Z</time>
      </trkpt>
      <trkpt lat="48.72262" lon="2.02608">
        <ele>165</ele>
        <time>2021-05-20T11:38:47.608Z</time>
      </trkpt>
      <trkpt lat="48.72262" lon="2.02607">
        <ele>165</ele>
        <time>2021-05-20T11:38:48.608Z</time>
      </trkpt>
      <trkpt lat="48.72262" lon="2.02606">
        <ele>165</ele>
        <time>2021-05-20T11:38:49.608Z</time>
      </trkpt>
      <trkpt lat="48.72262" lon="2.02604">
        <ele>165</ele>
        <time>2021-05-20T11:38:50.608Z</time>
      </trkpt>
      <trkpt lat="48.72261" lon="2.02603">
        <ele>165</ele>
        <time>2021-05-20T11:38:51.608Z</time>
      </trkpt>
      <trkpt lat="48.72261" lon="2.02602">
        <ele>165</ele>
        <time>2021-05-20T11:38:52.608Z</time>
      </trkpt>
      <trkpt lat="48.72261" lon="2.026">
        <ele>165</ele>
        <time>2021-05-20T11:38:53.608Z</time>
      </trkpt>
      <trkpt lat="48.72262" lon="2.02599">
        <ele>165</ele>
        <time>2021-05-20T11:38:54.608Z</time>
      </trkpt>
      <trkpt lat="48.72262" lon="2.02597">
        <ele>165</ele>
        <time>2021-05-20T11:38:55.608Z</time>
      </trkpt>
      <trkpt lat="48.72263" lon="2.02596">
        <ele>165</ele>
        <time>2021-05-20T11:38:56.608Z</time>
      </trkpt>
      <trkpt lat="48.72264" lon="2.02594">
        <ele>165</ele>
        <time>2021-05-20T11:38:57.608Z</time>
      </trkpt>
      <trkpt lat="48.72264" lon="2.02593">
        <ele>165</ele>
        <time>2021-05-20T11:38:58.608Z</time>
      </trkpt>
      <trkpt lat="48.72264" lon="2.02592">
        <ele>165</ele>
        <time>2021-05-20T11:38:59.608Z</time>
      </trkpt>
      <trkpt lat="48.72265" lon="2.0259">
        <ele>165</ele>
        <time>2021-05-20T11:39:00.608Z</time>
      </trkpt>
      <trkpt lat="48.72265" lon="2.02588">
        <ele>165</ele>
        <time>2021-05-20T11:39:01.608Z</time>
      </trkpt>
      <trkpt lat="48.72265" lon="2.02586">
        <ele>165</ele>
        <time>2021-05-20T11:39:02.608Z</time>
      </trkpt>
      <trkpt lat="48.72265" lon="2.02584">
        <ele>166</ele>
        <time>2021-05-20T11:39:03.608Z</time>
      </trkpt>
      <trkpt lat="48.72265" lon="2.02582">
        <ele>166</ele>
        <time>2021-05-20T11:39:04.608Z</time>
      </trkpt>
      <trkpt lat="48.72266" lon="2.0258">
        <ele>166</ele>
        <time>2021-05-20T11:39:05.608Z</time>
      </trkpt>
      <trkpt lat="48.72266" lon="2.02578">
        <ele>166</ele>
        <time>2021-05-20T11:39:06.608Z</time>
      </trkpt>
      <trkpt lat="48.72266" lon="2.02576">
        <ele>166</ele>
        <time>2021-05-20T11:39:07.608Z</time>
      </trkpt>
      <trkpt lat="48.72266" lon="2.02574">
        <ele>166</ele>
        <time>2021-05-20T11:39:08.608Z</time>
      </trkpt>
      <trkpt lat="48.72267" lon="2.02573">
        <ele>167</ele>
        <time>2021-05-20T11:39:09.608Z</time>
      </trkpt>
      <trkpt lat="48.72267" lon="2.02571">
        <ele>167</ele>
        <time>2021-05-20T11:39:10.608Z</time>
      </trkpt>
      <trkpt lat="48.72267" lon="2.0257">
        <ele>167</ele>
        <time>2021-05-20T11:39:11.608Z</time>
      </trkpt>
      <trkpt lat="48.72268" lon="2.02568">
        <ele>167</ele>
        <time>2021-05-20T11:39:12.608Z</time>
      </trkpt>
      <trkpt lat="48.72268" lon="2.02566">
        <ele>167</ele>
        <time>2021-05-20T11:39:13.608Z</time>
      </trkpt>
      <trkpt lat="48.72268" lon="2.02565">
        <ele>167</ele>
        <time>2021-05-20T11:39:14.608Z</time>
      </trkpt>
      <trkpt lat="48.72268" lon="2.02563">
        <ele>168</ele>
        <time>2021-05-20T11:39:15.608Z</time>
      </trkpt>
      <trkpt lat="48.72269" lon="2.02561">
        <ele>168</ele>
        <time>2021-05-20T11:39:16.608Z</time>
      </trkpt>
      <trkpt lat="48.72269" lon="2.02559">
        <ele>168</ele>
        <time>2021-05-20T11:39:17.608Z</time>
      </trkpt>
      <trkpt lat="48.7227" lon="2.02558">
        <ele>168</ele>
        <time>2021-05-20T11:39:18.608Z</time>
      </trkpt>
      <trkpt lat="48.7227" lon="2.02557">
        <ele>168</ele>
        <time>2021-05-20T11:39:19.608Z</time>
      </trkpt>
      <trkpt lat="48.72271" lon="2.02555">
        <ele>168</ele>
        <time>2021-05-20T11:39:20.608Z</time>
      </trkpt>
      <trkpt lat="48.72271" lon="2.02554">
        <ele>168</ele>
        <time>2021-05-20T11:39:21.608Z</time>
      </trkpt>
      <trkpt lat="48.72271" lon="2.02553">
        <ele>168</ele>
        <time>2021-05-20T11:39:22.608Z</time>
      </trkpt>
      <trkpt lat="48.72272" lon="2.02551">
        <ele>168</ele>
        <time>2021-05-20T11:39:23.608Z</time>
      </trkpt>
      <trkpt lat="48.72272" lon="2.0255">
        <ele>168</ele>
        <time>2021-05-20T11:39:24.608Z</time>
      </trkpt>
      <trkpt lat="48.72272" lon="2.02549">
        <ele>168</ele>
        <time>2021-05-20T11:39:25.608Z</time>
      </trkpt>
      <trkpt lat="48.72272" lon="2.02547">
        <ele>168</ele>
        <time>2021-05-20T11:39:26.608Z</time>
      </trkpt>
      <trkpt lat="48.72273" lon="2.02545">
        <ele>168</ele>
        <time>2021-05-20T11:39:27.608Z</time>
      </trkpt>
      <trkpt lat="48.72273" lon="2.02544">
        <ele>168</ele>
        <time>2021-05-20T11:39:28.608Z</time>
      </trkpt>
      <trkpt lat="48.72274" lon="2.02542">
        <ele>167</ele>
        <time>2021-05-20T11:39:29.608Z</time>
      </trkpt>
      <trkpt lat="48.72274" lon="2.02541">
        <ele>167</ele>
        <time>2021-05-20T11:39:30.608Z</time>
      </trkpt>
      <trkpt lat="48.72274" lon="2.02539">
        <ele>167</ele>
        <time>2021-05-20T11:39:31.608Z</time>
      </trkpt>
      <trkpt lat="48.72275" lon="2.02537">
        <ele>167</ele>
        <time>2021-05-20T11:39:32.608Z</time>
      </trkpt>
      <trkpt lat="48.72275" lon="2.02536">
        <ele>167</ele>
        <time>2021-05-20T11:39:33.608Z</time>
      </trkpt>
      <trkpt lat="48.72275" lon="2.02534">
        <ele>167</ele>
        <time>2021-05-20T11:39:34.608Z</time>
      </trkpt>
      <trkpt lat="48.72276" lon="2.02533">
        <ele>167</ele>
        <time>2021-05-20T11:39:35.608Z</time>
      </trkpt>
      <trkpt lat="48.72276" lon="2.02531">
        <ele>167</ele>
        <time>2021-05-20T11:39:36.608Z</time>
      </trkpt>
      <trkpt lat="48.72276" lon="2.0253">
        <ele>167</ele>
        <time>2021-05-20T11:39:37.608Z</time>
      </trkpt>
      <trkpt lat="48.72276" lon="2.02529">
        <ele>167</ele>
        <time>2021-05-20T11:39:38.608Z</time>
      </trkpt>
      <trkpt lat="48.72276" lon="2.02527">
        <ele>167</ele>
        <time>2021-05-20T11:39:39.608Z</time>
      </trkpt>
      <trkpt lat="48.72277" lon="2.02526">
        <ele>167</ele>
        <time>2021-05-20T11:39:40.608Z</time>
      </trkpt>
      <trkpt lat="48.72277" lon="2.02525">
        <ele>167</ele>
        <time>2021-05-20T11:39:41.608Z</time>
      </trkpt>
      <trkpt lat="48.72277" lon="2.02523">
        <ele>167</ele>
        <time>2021-05-20T11:39:47.619Z</time>
      </trkpt>
      <trkpt lat="48.72277" lon="2.02522">
        <ele>168</ele>
        <time>2021-05-20T11:39:48.619Z</time>
      </trkpt>
      <trkpt lat="48.72277" lon="2.0252">
        <ele>168</ele>
        <time>2021-05-20T11:39:49.619Z</time>
      </trkpt>
      <trkpt lat="48.72277" lon="2.02518">
        <ele>168</ele>
        <time>2021-05-20T11:39:50.619Z</time>
      </trkpt>
      <trkpt lat="48.72278" lon="2.02516">
        <ele>168</ele>
        <time>2021-05-20T11:39:51.619Z</time>
      </trkpt>
      <trkpt lat="48.72278" lon="2.02514">
        <ele>168</ele>
        <time>2021-05-20T11:39:52.619Z</time>
      </trkpt>
      <trkpt lat="48.72278" lon="2.02513">
        <ele>168</ele>
        <time>2021-05-20T11:39:53.619Z</time>
      </trkpt>
      <trkpt lat="48.72278" lon="2.02511">
        <ele>169</ele>
        <time>2021-05-20T11:39:54.619Z</time>
      </trkpt>
      <trkpt lat="48.72278" lon="2.02509">
        <ele>169</ele>
        <time>2021-05-20T11:39:55.619Z</time>
      </trkpt>
      <trkpt lat="48.72279" lon="2.02507">
        <ele>169</ele>
        <time>2021-05-20T11:39:56.619Z</time>
      </trkpt>
      <trkpt lat="48.72279" lon="2.02505">
        <ele>169</ele>
        <time>2021-05-20T11:39:57.619Z</time>
      </trkpt>
      <trkpt lat="48.72279" lon="2.02503">
        <ele>169</ele>
        <time>2021-05-20T11:39:58.619Z</time>
      </trkpt>
      <trkpt lat="48.72279" lon="2.02501">
        <ele>169</ele>
        <time>2021-05-20T11:39:59.619Z</time>
      </trkpt>
      <trkpt lat="48.7228" lon="2.02499">
        <ele>169</ele>
        <time>2021-05-20T11:40:00.619Z</time>
      </trkpt>
      <trkpt lat="48.7228" lon="2.02497">
        <ele>169</ele>
        <time>2021-05-20T11:40:01.619Z</time>
      </trkpt>
      <trkpt lat="48.7228" lon="2.02496">
        <ele>169</ele>
        <time>2021-05-20T11:40:02.619Z</time>
      </trkpt>
      <trkpt lat="48.72281" lon="2.02494">
        <ele>169</ele>
        <time>2021-05-20T11:40:03.619Z</time>
      </trkpt>
      <trkpt lat="48.72281" lon="2.02491">
        <ele>169</ele>
        <time>2021-05-20T11:40:04.619Z</time>
      </trkpt>
      <trkpt lat="48.72281" lon="2.02489">
        <ele>169</ele>
        <time>2021-05-20T11:40:05.619Z</time>
      </trkpt>
      <trkpt lat="48.72281" lon="2.02487">
        <ele>169</ele>
        <time>2021-05-20T11:40:06.619Z</time>
      </trkpt>
      <trkpt lat="48.72281" lon="2.02486">
        <ele>169</ele>
        <time>2021-05-20T11:40:07.619Z</time>
      </trkpt>
      <trkpt lat="48.72282" lon="2.02484">
        <ele>169</ele>
        <time>2021-05-20T11:40:08.619Z</time>
      </trkpt>
      <trkpt lat="48.72282" lon="2.02482">
        <ele>169</ele>
        <time>2021-05-20T11:40:09.619Z</time>
      </trkpt>
      <trkpt lat="48.72282" lon="2.0248">
        <ele>169</ele>
        <time>2021-05-20T11:40:10.619Z</time>
      </trkpt>
      <trkpt lat="48.72282" lon="2.02478">
        <ele>169</ele>
        <time>2021-05-20T11:40:11.619Z</time>
      </trkpt>
      <trkpt lat="48.72282" lon="2.02477">
        <ele>169</ele>
        <time>2021-05-20T11:40:12.619Z</time>
      </trkpt>
      <trkpt lat="48.72283" lon="2.02475">
        <ele>169</ele>
        <time>2021-05-20T11:40:13.619Z</time>
      </trkpt>
      <trkpt lat="48.72283" lon="2.02473">
        <ele>169</ele>
        <time>2021-05-20T11:40:14.619Z</time>
      </trkpt>
      <trkpt lat="48.72283" lon="2.02471">
        <ele>169</ele>
        <time>2021-05-20T11:40:15.619Z</time>
      </trkpt>
      <trkpt lat="48.72284" lon="2.02469">
        <ele>169</ele>
        <time>2021-05-20T11:40:16.619Z</time>
      </trkpt>
      <trkpt lat="48.72284" lon="2.02468">
        <ele>169</ele>
        <time>2021-05-20T11:40:17.619Z</time>
      </trkpt>
      <trkpt lat="48.72285" lon="2.02465">
        <ele>169</ele>
        <time>2021-05-20T11:40:18.619Z</time>
      </trkpt>
      <trkpt lat="48.72285" lon="2.02463">
        <ele>169</ele>
        <time>2021-05-20T11:40:19.619Z</time>
      </trkpt>
      <trkpt lat="48.72286" lon="2.02461">
        <ele>169</ele>
        <time>2021-05-20T11:40:20.619Z</time>
      </trkpt>
      <trkpt lat="48.72286" lon="2.02459">
        <ele>169</ele>
        <time>2021-05-20T11:40:21.619Z</time>
      </trkpt>
      <trkpt lat="48.72286" lon="2.02458">
        <ele>169</ele>
        <time>2021-05-20T11:40:22.619Z</time>
      </trkpt>
      <trkpt lat="48.72287" lon="2.02456">
        <ele>169</ele>
        <time>2021-05-20T11:40:23.619Z</time>
      </trkpt>
      <trkpt lat="48.72287" lon="2.02454">
        <ele>169</ele>
        <time>2021-05-20T11:40:24.619Z</time>
      </trkpt>
      <trkpt lat="48.72287" lon="2.02451">
        <ele>169</ele>
        <time>2021-05-20T11:40:25.619Z</time>
      </trkpt>
      <trkpt lat="48.72287" lon="2.02449">
        <ele>169</ele>
        <time>2021-05-20T11:40:26.619Z</time>
      </trkpt>
      <trkpt lat="48.72288" lon="2.02447">
        <ele>169</ele>
        <time>2021-05-20T11:40:27.619Z</time>
      </trkpt>
      <trkpt lat="48.72288" lon="2.02446">
        <ele>169</ele>
        <time>2021-05-20T11:40:28.619Z</time>
      </trkpt>
      <trkpt lat="48.72289" lon="2.02444">
        <ele>169</ele>
        <time>2021-05-20T11:40:29.619Z</time>
      </trkpt>
      <trkpt lat="48.7229" lon="2.02443">
        <ele>169</ele>
        <time>2021-05-20T11:40:30.619Z</time>
      </trkpt>
      <trkpt lat="48.72291" lon="2.02441">
        <ele>169</ele>
        <time>2021-05-20T11:40:31.619Z</time>
      </trkpt>
      <trkpt lat="48.72291" lon="2.0244">
        <ele>169</ele>
        <time>2021-05-20T11:40:32.619Z</time>
      </trkpt>
      <trkpt lat="48.72292" lon="2.02438">
        <ele>169</ele>
        <time>2021-05-20T11:40:33.619Z</time>
      </trkpt>
      <trkpt lat="48.72292" lon="2.02436">
        <ele>169</ele>
        <time>2021-05-20T11:40:34.619Z</time>
      </trkpt>
      <trkpt lat="48.72292" lon="2.02435">
        <ele>169</ele>
        <time>2021-05-20T11:40:35.619Z</time>
      </trkpt>
      <trkpt lat="48.72293" lon="2.02433">
        <ele>169</ele>
        <time>2021-05-20T11:40:36.619Z</time>
      </trkpt>
      <trkpt lat="48.72293" lon="2.02431">
        <ele>169</ele>
        <time>2021-05-20T11:40:37.619Z</time>
      </trkpt>
      <trkpt lat="48.72293" lon="2.02429">
        <ele>169</ele>
        <time>2021-05-20T11:40:38.619Z</time>
      </trkpt>
      <trkpt lat="48.72293" lon="2.02427">
        <ele>169</ele>
        <time>2021-05-20T11:40:49.632Z</time>
      </trkpt>
      <trkpt lat="48.72293" lon="2.02425">
        <ele>169</ele>
        <time>2021-05-20T11:40:50.632Z</time>
      </trkpt>
      <trkpt lat="48.72293" lon="2.02423">
        <ele>169</ele>
        <time>2021-05-20T11:40:51.632Z</time>
      </trkpt>
      <trkpt lat="48.72293" lon="2.02422">
        <ele>169</ele>
        <time>2021-05-20T11:40:52.632Z</time>
      </trkpt>
      <trkpt lat="48.72293" lon="2.0242">
        <ele>169</ele>
        <time>2021-05-20T11:40:53.632Z</time>
      </trkpt>
      <trkpt lat="48.72293" lon="2.02418">
        <ele>169</ele>
        <time>2021-05-20T11:40:54.632Z</time>
      </trkpt>
      <trkpt lat="48.72294" lon="2.02416">
        <ele>169</ele>
        <time>2021-05-20T11:40:55.632Z</time>
      </trkpt>
      <trkpt lat="48.72294" lon="2.02414">
        <ele>169</ele>
        <time>2021-05-20T11:40:56.632Z</time>
      </trkpt>
      <trkpt lat="48.72294" lon="2.02412">
        <ele>169</ele>
        <time>2021-05-20T11:40:57.632Z</time>
      </trkpt>
      <trkpt lat="48.72294" lon="2.0241">
        <ele>169</ele>
        <time>2021-05-20T11:40:58.632Z</time>
      </trkpt>
      <trkpt lat="48.72295" lon="2.02408">
        <ele>169</ele>
        <time>2021-05-20T11:40:59.632Z</time>
      </trkpt>
      <trkpt lat="48.72295" lon="2.02406">
        <ele>169</ele>
        <time>2021-05-20T11:41:00.632Z</time>
      </trkpt>
      <trkpt lat="48.72295" lon="2.02404">
        <ele>169</ele>
        <time>2021-05-20T11:41:01.632Z</time>
      </trkpt>
      <trkpt lat="48.72295" lon="2.02402">
        <ele>169</ele>
        <time>2021-05-20T11:41:02.632Z</time>
      </trkpt>
      <trkpt lat="48.72296" lon="2.02401">
        <ele>169</ele>
        <time>2021-05-20T11:41:15.644Z</time>
      </trkpt>
      <trkpt lat="48.72296" lon="2.02399">
        <ele>168</ele>
        <time>2021-05-20T11:41:16.644Z</time>
      </trkpt>
      <trkpt lat="48.72297" lon="2.02397">
        <ele>168</ele>
        <time>2021-05-20T11:41:17.644Z</time>
      </trkpt>
      <trkpt lat="48.72297" lon="2.02395">
        <ele>168</ele>
        <time>2021-05-20T11:41:18.644Z</time>
      </trkpt>
      <trkpt lat="48.72298" lon="2.02394">
        <ele>168</ele>
        <time>2021-05-20T11:41:19.644Z</time>
      </trkpt>
      <trkpt lat="48.72298" lon="2.02392">
        <ele>168</ele>
        <time>2021-05-20T11:41:20.644Z</time>
      </trkpt>
      <trkpt lat="48.72298" lon="2.02391">
        <ele>168</ele>
        <time>2021-05-20T11:41:21.644Z</time>
      </trkpt>
      <trkpt lat="48.72299" lon="2.02389">
        <ele>168</ele>
        <time>2021-05-20T11:41:22.644Z</time>
      </trkpt>
      <trkpt lat="48.72299" lon="2.02387">
        <ele>168</ele>
        <time>2021-05-20T11:41:23.644Z</time>
      </trkpt>
      <trkpt lat="48.723" lon="2.02385">
        <ele>167</ele>
        <time>2021-05-20T11:41:24.644Z</time>
      </trkpt>
      <trkpt lat="48.723" lon="2.02384">
        <ele>167</ele>
        <time>2021-05-20T11:41:25.644Z</time>
      </trkpt>
      <trkpt lat="48.72301" lon="2.02382">
        <ele>167</ele>
        <time>2021-05-20T11:41:26.644Z</time>
      </trkpt>
      <trkpt lat="48.72301" lon="2.02381">
        <ele>167</ele>
        <time>2021-05-20T11:41:27.644Z</time>
      </trkpt>
      <trkpt lat="48.72302" lon="2.02379">
        <ele>167</ele>
        <time>2021-05-20T11:41:28.644Z</time>
      </trkpt>
      <trkpt lat="48.72302" lon="2.02377">
        <ele>167</ele>
        <time>2021-05-20T11:41:29.644Z</time>
      </trkpt>
      <trkpt lat="48.72303" lon="2.02375">
        <ele>167</ele>
        <time>2021-05-20T11:41:30.644Z</time>
      </trkpt>
      <trkpt lat="48.72303" lon="2.02373">
        <ele>167</ele>
        <time>2021-05-20T11:41:31.644Z</time>
      </trkpt>
      <trkpt lat="48.72304" lon="2.02371">
        <ele>167</ele>
        <time>2021-05-20T11:41:32.644Z</time>
      </trkpt>
      <trkpt lat="48.72304" lon="2.0237">
        <ele>166</ele>
        <time>2021-05-20T11:41:33.644Z</time>
      </trkpt>
      <trkpt lat="48.72305" lon="2.02369">
        <ele>166</ele>
        <time>2021-05-20T11:41:34.644Z</time>
      </trkpt>
      <trkpt lat="48.72305" lon="2.02367">
        <ele>166</ele>
        <time>2021-05-20T11:41:35.644Z</time>
      </trkpt>
      <trkpt lat="48.72306" lon="2.02365">
        <ele>166</ele>
        <time>2021-05-20T11:41:36.644Z</time>
      </trkpt>
      <trkpt lat="48.72307" lon="2.02364">
        <ele>166</ele>
        <time>2021-05-20T11:41:37.644Z</time>
      </trkpt>
      <trkpt lat="48.72308" lon="2.02363">
        <ele>166</ele>
        <time>2021-05-20T11:41:38.644Z</time>
      </trkpt>
      <trkpt lat="48.72308" lon="2.02361">
        <ele>166</ele>
        <time>2021-05-20T11:41:39.644Z</time>
      </trkpt>
      <trkpt lat="48.72309" lon="2.0236">
        <ele>166</ele>
        <time>2021-05-20T11:41:40.644Z</time>
      </trkpt>
      <trkpt lat="48.72309" lon="2.02359">
        <ele>166</ele>
        <time>2021-05-20T11:41:41.644Z</time>
      </trkpt>
      <trkpt lat="48.7231" lon="2.02357">
        <ele>166</ele>
        <time>2021-05-20T11:41:42.644Z</time>
      </trkpt>
      <trkpt lat="48.7231" lon="2.02356">
        <ele>165</ele>
        <time>2021-05-20T11:41:43.644Z</time>
      </trkpt>
      <trkpt lat="48.72311" lon="2.02355">
        <ele>165</ele>
        <time>2021-05-20T11:41:44.644Z</time>
      </trkpt>
      <trkpt lat="48.72311" lon="2.02353">
        <ele>165</ele>
        <time>2021-05-20T11:41:45.644Z</time>
      </trkpt>
      <trkpt lat="48.72311" lon="2.02351">
        <ele>165</ele>
        <time>2021-05-20T11:41:46.644Z</time>
      </trkpt>
      <trkpt lat="48.72312" lon="2.0235">
        <ele>165</ele>
        <time>2021-05-20T11:41:47.644Z</time>
      </trkpt>
      <trkpt lat="48.72312" lon="2.02348">
        <ele>165</ele>
        <time>2021-05-20T11:41:48.644Z</time>
      </trkpt>
      <trkpt lat="48.72312" lon="2.02346">
        <ele>165</ele>
        <time>2021-05-20T11:41:49.644Z</time>
      </trkpt>
      <trkpt lat="48.72313" lon="2.02345">
        <ele>165</ele>
        <time>2021-05-20T11:41:50.644Z</time>
      </trkpt>
      <trkpt lat="48.72313" lon="2.02342">
        <ele>165</ele>
        <time>2021-05-20T11:41:51.644Z</time>
      </trkpt>
      <trkpt lat="48.72314" lon="2.0234">
        <ele>165</ele>
        <time>2021-05-20T11:41:52.644Z</time>
      </trkpt>
      <trkpt lat="48.72314" lon="2.02338">
        <ele>165</ele>
        <time>2021-05-20T11:41:53.644Z</time>
      </trkpt>
      <trkpt lat="48.72314" lon="2.02336">
        <ele>165</ele>
        <time>2021-05-20T11:41:54.644Z</time>
      </trkpt>
      <trkpt lat="48.72315" lon="2.02334">
        <ele>165</ele>
        <time>2021-05-20T11:41:55.644Z</time>
      </trkpt>
      <trkpt lat="48.72315" lon="2.02333">
        <ele>165</ele>
        <time>2021-05-20T11:41:56.644Z</time>
      </trkpt>
      <trkpt lat="48.72315" lon="2.02331">
        <ele>165</ele>
        <time>2021-05-20T11:41:57.644Z</time>
      </trkpt>
      <trkpt lat="48.72316" lon="2.0233">
        <ele>165</ele>
        <time>2021-05-20T11:41:58.644Z</time>
      </trkpt>
      <trkpt lat="48.72316" lon="2.02329">
        <ele>165</ele>
        <time>2021-05-20T11:41:59.644Z</time>
      </trkpt>
      <trkpt lat="48.72317" lon="2.02328">
        <ele>165</ele>
        <time>2021-05-20T11:42:00.644Z</time>
      </trkpt>
      <trkpt lat="48.72318" lon="2.02326">
        <ele>165</ele>
        <time>2021-05-20T11:42:01.644Z</time>
      </trkpt>
      <trkpt lat="48.72319" lon="2.02326">
        <ele>165</ele>
        <time>2021-05-20T11:42:02.644Z</time>
      </trkpt>
      <trkpt lat="48.7232" lon="2.02325">
        <ele>165</ele>
        <time>2021-05-20T11:42:03.644Z</time>
      </trkpt>
      <trkpt lat="48.72321" lon="2.02324">
        <ele>165</ele>
        <time>2021-05-20T11:42:04.644Z</time>
      </trkpt>
      <trkpt lat="48.72322" lon="2.02323">
        <ele>165</ele>
        <time>2021-05-20T11:42:05.644Z</time>
      </trkpt>
      <trkpt lat="48.72323" lon="2.02322">
        <ele>165</ele>
        <time>2021-05-20T11:42:06.644Z</time>
      </trkpt>
      <trkpt lat="48.72324" lon="2.02322">
        <ele>165</ele>
        <time>2021-05-20T11:42:07.644Z</time>
      </trkpt>
      <trkpt lat="48.72325" lon="2.02321">
        <ele>165</ele>
        <time>2021-05-20T11:42:08.644Z</time>
      </trkpt>
      <trkpt lat="48.72326" lon="2.0232">
        <ele>165</ele>
        <time>2021-05-20T11:42:09.644Z</time>
      </trkpt>
      <trkpt lat="48.72327" lon="2.0232">
        <ele>165</ele>
        <time>2021-05-20T11:42:10.644Z</time>
      </trkpt>
      <trkpt lat="48.72329" lon="2.02319">
        <ele>165</ele>
        <time>2021-05-20T11:42:11.644Z</time>
      </trkpt>
      <trkpt lat="48.7233" lon="2.02318">
        <ele>165</ele>
        <time>2021-05-20T11:42:12.644Z</time>
      </trkpt>
      <trkpt lat="48.72332" lon="2.02317">
        <ele>165</ele>
        <time>2021-05-20T11:42:13.644Z</time>
      </trkpt>
      <trkpt lat="48.72333" lon="2.02316">
        <ele>166</ele>
        <time>2021-05-20T11:42:14.644Z</time>
      </trkpt>
      <trkpt lat="48.72335" lon="2.02316">
        <ele>166</ele>
        <time>2021-05-20T11:42:15.644Z</time>
      </trkpt>
      <trkpt lat="48.72336" lon="2.02315">
        <ele>166</ele>
        <time>2021-05-20T11:42:16.644Z</time>
      </trkpt>
      <trkpt lat="48.72337" lon="2.02314">
        <ele>166</ele>
        <time>2021-05-20T11:42:17.644Z</time>
      </trkpt>
      <trkpt lat="48.72338" lon="2.02313">
        <ele>166</ele>
        <time>2021-05-20T11:42:18.644Z</time>
      </trkpt>
      <trkpt lat="48.72339" lon="2.02312">
        <ele>166</ele>
        <time>2021-05-20T11:42:19.644Z</time>
      </trkpt>
      <trkpt lat="48.7234" lon="2.02311">
        <ele>166</ele>
        <time>2021-05-20T11:42:20.644Z</time>
      </trkpt>
      <trkpt lat="48.72341" lon="2.0231">
        <ele>166</ele>
        <time>2021-05-20T11:42:21.644Z</time>
      </trkpt>
      <trkpt lat="48.72341" lon="2.02309">
        <ele>166</ele>
        <time>2021-05-20T11:42:22.644Z</time>
      </trkpt>
      <trkpt lat="48.72342" lon="2.02309">
        <ele>167</ele>
        <time>2021-05-20T11:42:23.644Z</time>
      </trkpt>
      <trkpt lat="48.72343" lon="2.02308">
        <ele>167</ele>
        <time>2021-05-20T11:42:24.644Z</time>
      </trkpt>
      <trkpt lat="48.72344" lon="2.02308">
        <ele>167</ele>
        <time>2021-05-20T11:42:25.644Z</time>
      </trkpt>
      <trkpt lat="48.72345" lon="2.02307">
        <ele>167</ele>
        <time>2021-05-20T11:42:26.644Z</time>
      </trkpt>
      <trkpt lat="48.72346" lon="2.02307">
        <ele>167</ele>
        <time>2021-05-20T11:42:27.644Z</time>
      </trkpt>
      <trkpt lat="48.72347" lon="2.02306">
        <ele>167</ele>
        <time>2021-05-20T11:42:28.644Z</time>
      </trkpt>
      <trkpt lat="48.72348" lon="2.02305">
        <ele>168</ele>
        <time>2021-05-20T11:42:29.644Z</time>
      </trkpt>
      <trkpt lat="48.72349" lon="2.02304">
        <ele>168</ele>
        <time>2021-05-20T11:42:30.644Z</time>
      </trkpt>
      <trkpt lat="48.72351" lon="2.02303">
        <ele>168</ele>
        <time>2021-05-20T11:42:31.644Z</time>
      </trkpt>
      <trkpt lat="48.72352" lon="2.02303">
        <ele>168</ele>
        <time>2021-05-20T11:42:32.644Z</time>
      </trkpt>
      <trkpt lat="48.72353" lon="2.02302">
        <ele>168</ele>
        <time>2021-05-20T11:42:33.644Z</time>
      </trkpt>
      <trkpt lat="48.72354" lon="2.02301">
        <ele>168</ele>
        <time>2021-05-20T11:42:34.644Z</time>
      </trkpt>
      <trkpt lat="48.72355" lon="2.023">
        <ele>169</ele>
        <time>2021-05-20T11:42:35.644Z</time>
      </trkpt>
      <trkpt lat="48.72356" lon="2.023">
        <ele>169</ele>
        <time>2021-05-20T11:42:36.644Z</time>
      </trkpt>
      <trkpt lat="48.72357" lon="2.02298">
        <ele>169</ele>
        <time>2021-05-20T11:42:37.644Z</time>
      </trkpt>
      <trkpt lat="48.72358" lon="2.02297">
        <ele>169</ele>
        <time>2021-05-20T11:42:38.644Z</time>
      </trkpt>
      <trkpt lat="48.72359" lon="2.02296">
        <ele>169</ele>
        <time>2021-05-20T11:42:39.644Z</time>
      </trkpt>
      <trkpt lat="48.7236" lon="2.02295">
        <ele>169</ele>
        <time>2021-05-20T11:42:40.644Z</time>
      </trkpt>
      <trkpt lat="48.7236" lon="2.02294">
        <ele>169</ele>
        <time>2021-05-20T11:42:41.644Z</time>
      </trkpt>
      <trkpt lat="48.72362" lon="2.02293">
        <ele>169</ele>
        <time>2021-05-20T11:42:42.644Z</time>
      </trkpt>
      <trkpt lat="48.72363" lon="2.02293">
        <ele>169</ele>
        <time>2021-05-20T11:42:43.644Z</time>
      </trkpt>
      <trkpt lat="48.72364" lon="2.02292">
        <ele>170</ele>
        <time>2021-05-20T11:42:44.644Z</time>
      </trkpt>
      <trkpt lat="48.72364" lon="2.02291">
        <ele>170</ele>
        <time>2021-05-20T11:42:45.644Z</time>
      </trkpt>
      <trkpt lat="48.72365" lon="2.02291">
        <ele>170</ele>
        <time>2021-05-20T11:42:46.644Z</time>
      </trkpt>
      <trkpt lat="48.72366" lon="2.0229">
        <ele>170</ele>
        <time>2021-05-20T11:42:47.644Z</time>
      </trkpt>
      <trkpt lat="48.72367" lon="2.0229">
        <ele>170</ele>
        <time>2021-05-20T11:42:48.644Z</time>
      </trkpt>
      <trkpt lat="48.72368" lon="2.02289">
        <ele>170</ele>
        <time>2021-05-20T11:42:49.644Z</time>
      </trkpt>
      <trkpt lat="48.72369" lon="2.02288">
        <ele>170</ele>
        <time>2021-05-20T11:42:50.644Z</time>
      </trkpt>
      <trkpt lat="48.72369" lon="2.02287">
        <ele>171</ele>
        <time>2021-05-20T11:42:51.644Z</time>
      </trkpt>
      <trkpt lat="48.7237" lon="2.02286">
        <ele>171</ele>
        <time>2021-05-20T11:42:52.644Z</time>
      </trkpt>
      <trkpt lat="48.72371" lon="2.02286">
        <ele>171</ele>
        <time>2021-05-20T11:42:53.644Z</time>
      </trkpt>
      <trkpt lat="48.72372" lon="2.02285">
        <ele>171</ele>
        <time>2021-05-20T11:42:54.644Z</time>
      </trkpt>
      <trkpt lat="48.72373" lon="2.02284">
        <ele>171</ele>
        <time>2021-05-20T11:42:55.644Z</time>
      </trkpt>
      <trkpt lat="48.72374" lon="2.02283">
        <ele>171</ele>
        <time>2021-05-20T11:42:56.644Z</time>
      </trkpt>
      <trkpt lat="48.72375" lon="2.02282">
        <ele>171</ele>
        <time>2021-05-20T11:42:57.644Z</time>
      </trkpt>
      <trkpt lat="48.72376" lon="2.0228">
        <ele>171</ele>
        <time>2021-05-20T11:42:58.644Z</time>
      </trkpt>
      <trkpt lat="48.72377" lon="2.02279">
        <ele>171</ele>
        <time>2021-05-20T11:42:59.644Z</time>
      </trkpt>
      <trkpt lat="48.72377" lon="2.02279">
        <ele>171</ele>
        <time>2021-05-20T11:43:00.644Z</time>
      </trkpt>
      <trkpt lat="48.72378" lon="2.02277">
        <ele>171</ele>
        <time>2021-05-20T11:43:01.644Z</time>
      </trkpt>
      <trkpt lat="48.72379" lon="2.02276">
        <ele>171</ele>
        <time>2021-05-20T11:43:02.644Z</time>
      </trkpt>
      <trkpt lat="48.72379" lon="2.02275">
        <ele>171</ele>
        <time>2021-05-20T11:43:03.644Z</time>
      </trkpt>
      <trkpt lat="48.72379" lon="2.02274">
        <ele>171</ele>
        <time>2021-05-20T11:43:04.644Z</time>
      </trkpt>
      <trkpt lat="48.72379" lon="2.02273">
        <ele>170</ele>
        <time>2021-05-20T11:43:05.644Z</time>
      </trkpt>
      <trkpt lat="48.72379" lon="2.02272">
        <ele>170</ele>
        <time>2021-05-20T11:43:06.644Z</time>
      </trkpt>
      <trkpt lat="48.72379" lon="2.02269">
        <ele>170</ele>
        <time>2021-05-20T11:43:07.644Z</time>
      </trkpt>
      <trkpt lat="48.7238" lon="2.02267">
        <ele>170</ele>
        <time>2021-05-20T11:43:08.644Z</time>
      </trkpt>
      <trkpt lat="48.7238" lon="2.02266">
        <ele>169</ele>
        <time>2021-05-20T11:43:09.644Z</time>
      </trkpt>
      <trkpt lat="48.7238" lon="2.02265">
        <ele>169</ele>
        <time>2021-05-20T11:43:10.644Z</time>
      </trkpt>
      <trkpt lat="48.7238" lon="2.02264">
        <ele>169</ele>
        <time>2021-05-20T11:43:11.644Z</time>
      </trkpt>
      <trkpt lat="48.7238" lon="2.02262">
        <ele>169</ele>
        <time>2021-05-20T11:43:12.644Z</time>
      </trkpt>
      <trkpt lat="48.7238" lon="2.02261">
        <ele>169</ele>
        <time>2021-05-20T11:43:13.644Z</time>
      </trkpt>
      <trkpt lat="48.7238" lon="2.0226">
        <ele>170</ele>
        <time>2021-05-20T11:43:14.644Z</time>
      </trkpt>
      <trkpt lat="48.72379" lon="2.02259">
        <ele>170</ele>
        <time>2021-05-20T11:43:15.644Z</time>
      </trkpt>
      <trkpt lat="48.72379" lon="2.02258">
        <ele>170</ele>
        <time>2021-05-20T11:43:16.644Z</time>
      </trkpt>
      <trkpt lat="48.72378" lon="2.02256">
        <ele>169</ele>
        <time>2021-05-20T11:43:17.644Z</time>
      </trkpt>
      <trkpt lat="48.72377" lon="2.02255">
        <ele>169</ele>
        <time>2021-05-20T11:43:18.644Z</time>
      </trkpt>
      <trkpt lat="48.72377" lon="2.02254">
        <ele>169</ele>
        <time>2021-05-20T11:43:19.644Z</time>
      </trkpt>
      <trkpt lat="48.72376" lon="2.02253">
        <ele>169</ele>
        <time>2021-05-20T11:43:20.644Z</time>
      </trkpt>
      <trkpt lat="48.72375" lon="2.02252">
        <ele>169</ele>
        <time>2021-05-20T11:43:21.644Z</time>
      </trkpt>
      <trkpt lat="48.72374" lon="2.02251">
        <ele>169</ele>
        <time>2021-05-20T11:43:22.644Z</time>
      </trkpt>
      <trkpt lat="48.72373" lon="2.0225">
        <ele>169</ele>
        <time>2021-05-20T11:43:23.644Z</time>
      </trkpt>
      <trkpt lat="48.72373" lon="2.02248">
        <ele>169</ele>
        <time>2021-05-20T11:43:24.644Z</time>
      </trkpt>
      <trkpt lat="48.72372" lon="2.02247">
        <ele>169</ele>
        <time>2021-05-20T11:43:25.644Z</time>
      </trkpt>
      <trkpt lat="48.72372" lon="2.02245">
        <ele>170</ele>
        <time>2021-05-20T11:43:26.644Z</time>
      </trkpt>
      <trkpt lat="48.72372" lon="2.02243">
        <ele>170</ele>
        <time>2021-05-20T11:43:27.644Z</time>
      </trkpt>
      <trkpt lat="48.72372" lon="2.02242">
        <ele>170</ele>
        <time>2021-05-20T11:43:28.644Z</time>
      </trkpt>
      <trkpt lat="48.72372" lon="2.0224">
        <ele>169</ele>
        <time>2021-05-20T11:43:29.644Z</time>
      </trkpt>
      <trkpt lat="48.72372" lon="2.02238">
        <ele>169</ele>
        <time>2021-05-20T11:43:30.644Z</time>
      </trkpt>
      <trkpt lat="48.72372" lon="2.02237">
        <ele>169</ele>
        <time>2021-05-20T11:43:31.644Z</time>
      </trkpt>
      <trkpt lat="48.72373" lon="2.02235">
        <ele>169</ele>
        <time>2021-05-20T11:43:32.644Z</time>
      </trkpt>
      <trkpt lat="48.72373" lon="2.02233">
        <ele>169</ele>
        <time>2021-05-20T11:43:33.644Z</time>
      </trkpt>
      <trkpt lat="48.72373" lon="2.02232">
        <ele>169</ele>
        <time>2021-05-20T11:43:34.644Z</time>
      </trkpt>
      <trkpt lat="48.72372" lon="2.0223">
        <ele>169</ele>
        <time>2021-05-20T11:43:35.644Z</time>
      </trkpt>
      <trkpt lat="48.72372" lon="2.02228">
        <ele>169</ele>
        <time>2021-05-20T11:43:36.644Z</time>
      </trkpt>
      <trkpt lat="48.72372" lon="2.02227">
        <ele>169</ele>
        <time>2021-05-20T11:43:37.644Z</time>
      </trkpt>
      <trkpt lat="48.72372" lon="2.02226">
        <ele>169</ele>
        <time>2021-05-20T11:43:38.644Z</time>
      </trkpt>
      <trkpt lat="48.72373" lon="2.02224">
        <ele>168</ele>
        <time>2021-05-20T11:43:39.644Z</time>
      </trkpt>
      <trkpt lat="48.72373" lon="2.02223">
        <ele>168</ele>
        <time>2021-05-20T11:43:40.644Z</time>
      </trkpt>
      <trkpt lat="48.72373" lon="2.02222">
        <ele>168</ele>
        <time>2021-05-20T11:43:41.644Z</time>
      </trkpt>
      <trkpt lat="48.72374" lon="2.02221">
        <ele>168</ele>
        <time>2021-05-20T11:43:42.644Z</time>
      </trkpt>
      <trkpt lat="48.72374" lon="2.02219">
        <ele>168</ele>
        <time>2021-05-20T11:43:43.644Z</time>
      </trkpt>
      <trkpt lat="48.72374" lon="2.02217">
        <ele>169</ele>
        <time>2021-05-20T11:43:44.644Z</time>
      </trkpt>
      <trkpt lat="48.72374" lon="2.02216">
        <ele>169</ele>
        <time>2021-05-20T11:43:45.644Z</time>
      </trkpt>
      <trkpt lat="48.72373" lon="2.02214">
        <ele>169</ele>
        <time>2021-05-20T11:43:46.644Z</time>
      </trkpt>
      <trkpt lat="48.72373" lon="2.02213">
        <ele>169</ele>
        <time>2021-05-20T11:43:47.644Z</time>
      </trkpt>
      <trkpt lat="48.72372" lon="2.02212">
        <ele>169</ele>
        <time>2021-05-20T11:43:48.644Z</time>
      </trkpt>
      <trkpt lat="48.72371" lon="2.0221">
        <ele>169</ele>
        <time>2021-05-20T11:43:49.644Z</time>
      </trkpt>
      <trkpt lat="48.7237" lon="2.02209">
        <ele>169</ele>
        <time>2021-05-20T11:43:50.644Z</time>
      </trkpt>
      <trkpt lat="48.72369" lon="2.02208">
        <ele>169</ele>
        <time>2021-05-20T11:43:51.644Z</time>
      </trkpt>
      <trkpt lat="48.72368" lon="2.02207">
        <ele>169</ele>
        <time>2021-05-20T11:43:52.644Z</time>
      </trkpt>
      <trkpt lat="48.72367" lon="2.02206">
        <ele>170</ele>
        <time>2021-05-20T11:43:53.644Z</time>
      </trkpt>
      <trkpt lat="48.72365" lon="2.02204">
        <ele>170</ele>
        <time>2021-05-20T11:43:54.644Z</time>
      </trkpt>
      <trkpt lat="48.72364" lon="2.02203">
        <ele>170</ele>
        <time>2021-05-20T11:43:55.644Z</time>
      </trkpt>
      <trkpt lat="48.72363" lon="2.02203">
        <ele>170</ele>
        <time>2021-05-20T11:43:56.644Z</time>
      </trkpt>
      <trkpt lat="48.72362" lon="2.02202">
        <ele>170</ele>
        <time>2021-05-20T11:43:57.644Z</time>
      </trkpt>
      <trkpt lat="48.72361" lon="2.02201">
        <ele>170</ele>
        <time>2021-05-20T11:43:58.644Z</time>
      </trkpt>
      <trkpt lat="48.7236" lon="2.022">
        <ele>170</ele>
        <time>2021-05-20T11:43:59.644Z</time>
      </trkpt>
      <trkpt lat="48.72359" lon="2.02199">
        <ele>171</ele>
        <time>2021-05-20T11:44:00.644Z</time>
      </trkpt>
      <trkpt lat="48.72359" lon="2.02197">
        <ele>171</ele>
        <time>2021-05-20T11:44:01.644Z</time>
      </trkpt>
      <trkpt lat="48.72358" lon="2.02196">
        <ele>171</ele>
        <time>2021-05-20T11:44:02.644Z</time>
      </trkpt>
      <trkpt lat="48.72357" lon="2.02194">
        <ele>171</ele>
        <time>2021-05-20T11:44:03.644Z</time>
      </trkpt>
      <trkpt lat="48.72357" lon="2.02192">
        <ele>171</ele>
        <time>2021-05-20T11:44:04.644Z</time>
      </trkpt>
      <trkpt lat="48.72356" lon="2.02191">
        <ele>172</ele>
        <time>2021-05-20T11:44:05.644Z</time>
      </trkpt>
      <trkpt lat="48.72356" lon="2.02189">
        <ele>172</ele>
        <time>2021-05-20T11:44:06.644Z</time>
      </trkpt>
      <trkpt lat="48.72356" lon="2.02187">
        <ele>172</ele>
        <time>2021-05-20T11:44:07.644Z</time>
      </trkpt>
      <trkpt lat="48.72355" lon="2.02186">
        <ele>172</ele>
        <time>2021-05-20T11:44:08.644Z</time>
      </trkpt>
      <trkpt lat="48.72355" lon="2.02185">
        <ele>172</ele>
        <time>2021-05-20T11:44:09.644Z</time>
      </trkpt>
      <trkpt lat="48.72354" lon="2.02183">
        <ele>172</ele>
        <time>2021-05-20T11:44:10.644Z</time>
      </trkpt>
      <trkpt lat="48.72354" lon="2.02182">
        <ele>172</ele>
        <time>2021-05-20T11:44:11.644Z</time>
      </trkpt>
      <trkpt lat="48.72354" lon="2.02181">
        <ele>172</ele>
        <time>2021-05-20T11:44:12.644Z</time>
      </trkpt>
      <trkpt lat="48.72353" lon="2.02179">
        <ele>172</ele>
        <time>2021-05-20T11:44:13.644Z</time>
      </trkpt>
      <trkpt lat="48.72353" lon="2.02178">
        <ele>172</ele>
        <time>2021-05-20T11:44:14.644Z</time>
      </trkpt>
      <trkpt lat="48.72352" lon="2.02176">
        <ele>172</ele>
        <time>2021-05-20T11:44:15.644Z</time>
      </trkpt>
      <trkpt lat="48.72352" lon="2.02175">
        <ele>172</ele>
        <time>2021-05-20T11:44:16.644Z</time>
      </trkpt>
      <trkpt lat="48.72352" lon="2.02174">
        <ele>172</ele>
        <time>2021-05-20T11:44:17.644Z</time>
      </trkpt>
      <trkpt lat="48.72352" lon="2.02174">
        <ele>172</ele>
        <time>2021-05-20T11:44:18.644Z</time>
      </trkpt>
      <trkpt lat="48.72352" lon="2.02174">
        <ele>172</ele>
        <time>2021-05-20T11:44:19.644Z</time>
      </trkpt>
      <trkpt lat="48.72352" lon="2.02174">
        <ele>172</ele>
        <time>2021-05-20T11:44:20.644Z</time>
      </trkpt>
      <trkpt lat="48.72353" lon="2.02173">
        <ele>172</ele>
        <time>2021-05-20T11:44:21.644Z</time>
      </trkpt>
      <trkpt lat="48.72353" lon="2.02172">
        <ele>172</ele>
        <time>2021-05-20T11:44:22.644Z</time>
      </trkpt>
      <trkpt lat="48.72354" lon="2.0217">
        <ele>172</ele>
        <time>2021-05-20T11:44:23.644Z</time>
      </trkpt>
      <trkpt lat="48.72355" lon="2.0217">
        <ele>172</ele>
        <time>2021-05-20T11:44:24.644Z</time>
      </trkpt>
      <trkpt lat="48.72355" lon="2.02169">
        <ele>172</ele>
        <time>2021-05-20T11:44:25.644Z</time>
      </trkpt>
      <trkpt lat="48.72356" lon="2.02168">
        <ele>172</ele>
        <time>2021-05-20T11:44:26.644Z</time>
      </trkpt>
      <trkpt lat="48.72356" lon="2.02167">
        <ele>172</ele>
        <time>2021-05-20T11:44:27.644Z</time>
      </trkpt>
      <trkpt lat="48.72357" lon="2.02166">
        <ele>172</ele>
        <time>2021-05-20T11:44:28.644Z</time>
      </trkpt>
      <trkpt lat="48.72358" lon="2.02165">
        <ele>172</ele>
        <time>2021-05-20T11:44:29.644Z</time>
      </trkpt>
      <trkpt lat="48.72358" lon="2.02164">
        <ele>172</ele>
        <time>2021-05-20T11:44:30.644Z</time>
      </trkpt>
      <trkpt lat="48.72359" lon="2.02163">
        <ele>172</ele>
        <time>2021-05-20T11:44:31.644Z</time>
      </trkpt>
      <trkpt lat="48.7236" lon="2.02161">
        <ele>172</ele>
        <time>2021-05-20T11:44:32.644Z</time>
      </trkpt>
      <trkpt lat="48.72361" lon="2.0216">
        <ele>172</ele>
        <time>2021-05-20T11:44:33.644Z</time>
      </trkpt>
      <trkpt lat="48.72362" lon="2.02159">
        <ele>172</ele>
        <time>2021-05-20T11:44:34.644Z</time>
      </trkpt>
      <trkpt lat="48.72362" lon="2.02158">
        <ele>172</ele>
        <time>2021-05-20T11:44:35.644Z</time>
      </trkpt>
      <trkpt lat="48.72363" lon="2.02157">
        <ele>173</ele>
        <time>2021-05-20T11:44:36.644Z</time>
      </trkpt>
      <trkpt lat="48.72364" lon="2.02155">
        <ele>173</ele>
        <time>2021-05-20T11:44:37.644Z</time>
      </trkpt>
      <trkpt lat="48.72365" lon="2.02154">
        <ele>173</ele>
        <time>2021-05-20T11:44:38.644Z</time>
      </trkpt>
      <trkpt lat="48.72366" lon="2.02153">
        <ele>173</ele>
        <time>2021-05-20T11:44:39.644Z</time>
      </trkpt>
      <trkpt lat="48.72366" lon="2.02152">
        <ele>173</ele>
        <time>2021-05-20T11:44:40.644Z</time>
      </trkpt>
      <trkpt lat="48.72367" lon="2.0215">
        <ele>173</ele>
        <time>2021-05-20T11:44:41.644Z</time>
      </trkpt>
      <trkpt lat="48.72368" lon="2.02149">
        <ele>173</ele>
        <time>2021-05-20T11:44:42.644Z</time>
      </trkpt>
      <trkpt lat="48.72369" lon="2.02147">
        <ele>174</ele>
        <time>2021-05-20T11:44:43.644Z</time>
      </trkpt>
      <trkpt lat="48.72369" lon="2.02146">
        <ele>174</ele>
        <time>2021-05-20T11:44:44.644Z</time>
      </trkpt>
      <trkpt lat="48.7237" lon="2.02145">
        <ele>174</ele>
        <time>2021-05-20T11:44:45.644Z</time>
      </trkpt>
      <trkpt lat="48.72371" lon="2.02143">
        <ele>174</ele>
        <time>2021-05-20T11:44:46.644Z</time>
      </trkpt>
      <trkpt lat="48.72372" lon="2.02142">
        <ele>174</ele>
        <time>2021-05-20T11:44:47.644Z</time>
      </trkpt>
      <trkpt lat="48.72372" lon="2.0214">
        <ele>174</ele>
        <time>2021-05-20T11:44:48.644Z</time>
      </trkpt>
      <trkpt lat="48.72373" lon="2.02139">
        <ele>175</ele>
        <time>2021-05-20T11:44:49.644Z</time>
      </trkpt>
      <trkpt lat="48.72374" lon="2.02138">
        <ele>175</ele>
        <time>2021-05-20T11:44:50.644Z</time>
      </trkpt>
      <trkpt lat="48.72375" lon="2.02137">
        <ele>175</ele>
        <time>2021-05-20T11:44:51.644Z</time>
      </trkpt>
      <trkpt lat="48.72375" lon="2.02136">
        <ele>175</ele>
        <time>2021-05-20T11:44:52.644Z</time>
      </trkpt>
      <trkpt lat="48.72376" lon="2.02134">
        <ele>175</ele>
        <time>2021-05-20T11:44:53.644Z</time>
      </trkpt>
      <trkpt lat="48.72377" lon="2.02133">
        <ele>175</ele>
        <time>2021-05-20T11:44:54.644Z</time>
      </trkpt>
      <trkpt lat="48.72378" lon="2.02132">
        <ele>176</ele>
        <time>2021-05-20T11:44:55.644Z</time>
      </trkpt>
      <trkpt lat="48.72378" lon="2.02131">
        <ele>176</ele>
        <time>2021-05-20T11:44:56.644Z</time>
      </trkpt>
      <trkpt lat="48.72379" lon="2.02129">
        <ele>176</ele>
        <time>2021-05-20T11:44:57.644Z</time>
      </trkpt>
      <trkpt lat="48.7238" lon="2.02128">
        <ele>176</ele>
        <time>2021-05-20T11:44:58.644Z</time>
      </trkpt>
      <trkpt lat="48.7238" lon="2.02127">
        <ele>176</ele>
        <time>2021-05-20T11:44:59.644Z</time>
      </trkpt>
      <trkpt lat="48.72381" lon="2.02125">
        <ele>177</ele>
        <time>2021-05-20T11:45:00.644Z</time>
      </trkpt>
      <trkpt lat="48.72382" lon="2.02124">
        <ele>177</ele>
        <time>2021-05-20T11:45:01.644Z</time>
      </trkpt>
      <trkpt lat="48.72383" lon="2.02123">
        <ele>177</ele>
        <time>2021-05-20T11:45:02.644Z</time>
      </trkpt>
      <trkpt lat="48.72384" lon="2.02122">
        <ele>177</ele>
        <time>2021-05-20T11:45:03.644Z</time>
      </trkpt>
      <trkpt lat="48.72385" lon="2.02121">
        <ele>177</ele>
        <time>2021-05-20T11:45:04.644Z</time>
      </trkpt>
      <trkpt lat="48.72386" lon="2.0212">
        <ele>177</ele>
        <time>2021-05-20T11:45:05.644Z</time>
      </trkpt>
      <trkpt lat="48.72387" lon="2.02119">
        <ele>177</ele>
        <time>2021-05-20T11:45:06.644Z</time>
      </trkpt>
      <trkpt lat="48.72388" lon="2.02118">
        <ele>177</ele>
        <time>2021-05-20T11:45:07.644Z</time>
      </trkpt>
      <trkpt lat="48.72389" lon="2.02118">
        <ele>177</ele>
        <time>2021-05-20T11:45:08.644Z</time>
      </trkpt>
      <trkpt lat="48.7239" lon="2.02117">
        <ele>177</ele>
        <time>2021-05-20T11:45:09.644Z</time>
      </trkpt>
      <trkpt lat="48.72391" lon="2.02116">
        <ele>177</ele>
        <time>2021-05-20T11:45:10.644Z</time>
      </trkpt>
      <trkpt lat="48.72392" lon="2.02115">
        <ele>177</ele>
        <time>2021-05-20T11:45:11.644Z</time>
      </trkpt>
      <trkpt lat="48.72393" lon="2.02114">
        <ele>177</ele>
        <time>2021-05-20T11:45:12.644Z</time>
      </trkpt>
      <trkpt lat="48.72394" lon="2.02113">
        <ele>177</ele>
        <time>2021-05-20T11:45:13.644Z</time>
      </trkpt>
      <trkpt lat="48.72395" lon="2.02113">
        <ele>177</ele>
        <time>2021-05-20T11:45:14.644Z</time>
      </trkpt>
      <trkpt lat="48.72396" lon="2.02112">
        <ele>177</ele>
        <time>2021-05-20T11:45:15.644Z</time>
      </trkpt>
      <trkpt lat="48.72397" lon="2.02112">
        <ele>177</ele>
        <time>2021-05-20T11:45:16.644Z</time>
      </trkpt>
      <trkpt lat="48.72398" lon="2.02111">
        <ele>177</ele>
        <time>2021-05-20T11:45:17.644Z</time>
      </trkpt>
      <trkpt lat="48.724" lon="2.02111">
        <ele>177</ele>
        <time>2021-05-20T11:45:18.644Z</time>
      </trkpt>
      <trkpt lat="48.72401" lon="2.0211">
        <ele>177</ele>
        <time>2021-05-20T11:45:19.644Z</time>
      </trkpt>
      <trkpt lat="48.72402" lon="2.02109">
        <ele>177</ele>
        <time>2021-05-20T11:45:20.644Z</time>
      </trkpt>
      <trkpt lat="48.72402" lon="2.02108">
        <ele>177</ele>
        <time>2021-05-20T11:45:21.644Z</time>
      </trkpt>
      <trkpt lat="48.72403" lon="2.02108">
        <ele>176</ele>
        <time>2021-05-20T11:45:22.644Z</time>
      </trkpt>
      <trkpt lat="48.72404" lon="2.02107">
        <ele>176</ele>
        <time>2021-05-20T11:45:23.644Z</time>
      </trkpt>
      <trkpt lat="48.72405" lon="2.02105">
        <ele>176</ele>
        <time>2021-05-20T11:45:24.644Z</time>
      </trkpt>
      <trkpt lat="48.72405" lon="2.02104">
        <ele>176</ele>
        <time>2021-05-20T11:45:25.644Z</time>
      </trkpt>
      <trkpt lat="48.72406" lon="2.02103">
        <ele>176</ele>
        <time>2021-05-20T11:45:26.644Z</time>
      </trkpt>
      <trkpt lat="48.72407" lon="2.02102">
        <ele>176</ele>
        <time>2021-05-20T11:45:27.644Z</time>
      </trkpt>
      <trkpt lat="48.72408" lon="2.02102">
        <ele>176</ele>
        <time>2021-05-20T11:45:28.644Z</time>
      </trkpt>
      <trkpt lat="48.72408" lon="2.02101">
        <ele>176</ele>
        <time>2021-05-20T11:45:29.644Z</time>
      </trkpt>
      <trkpt lat="48.72409" lon="2.021">
        <ele>176</ele>
        <time>2021-05-20T11:45:30.644Z</time>
      </trkpt>
      <trkpt lat="48.7241" lon="2.02099">
        <ele>176</ele>
        <time>2021-05-20T11:45:31.644Z</time>
      </trkpt>
      <trkpt lat="48.72411" lon="2.02098">
        <ele>176</ele>
        <time>2021-05-20T11:45:32.644Z</time>
      </trkpt>
      <trkpt lat="48.72411" lon="2.02098">
        <ele>176</ele>
        <time>2021-05-20T11:45:33.644Z</time>
      </trkpt>
      <trkpt lat="48.72412" lon="2.02097">
        <ele>176</ele>
        <time>2021-05-20T11:45:34.644Z</time>
      </trkpt>
      <trkpt lat="48.72413" lon="2.02096">
        <ele>176</ele>
        <time>2021-05-20T11:45:35.644Z</time>
      </trkpt>
      <trkpt lat="48.72414" lon="2.02096">
        <ele>176</ele>
        <time>2021-05-20T11:45:36.644Z</time>
      </trkpt>
      <trkpt lat="48.72415" lon="2.02095">
        <ele>176</ele>
        <time>2021-05-20T11:45:37.644Z</time>
      </trkpt>
      <trkpt lat="48.72416" lon="2.02096">
        <ele>176</ele>
        <time>2021-05-20T11:45:38.644Z</time>
      </trkpt>
      <trkpt lat="48.72417" lon="2.02095">
        <ele>177</ele>
        <time>2021-05-20T11:45:39.644Z</time>
      </trkpt>
      <trkpt lat="48.72417" lon="2.02095">
        <ele>177</ele>
        <time>2021-05-20T11:45:40.644Z</time>
      </trkpt>
      <trkpt lat="48.72418" lon="2.02094">
        <ele>177</ele>
        <time>2021-05-20T11:45:41.644Z</time>
      </trkpt>
      <trkpt lat="48.72419" lon="2.02093">
        <ele>177</ele>
        <time>2021-05-20T11:45:42.644Z</time>
      </trkpt>
      <trkpt lat="48.7242" lon="2.02091">
        <ele>177</ele>
        <time>2021-05-20T11:45:43.644Z</time>
      </trkpt>
      <trkpt lat="48.72422" lon="2.02091">
        <ele>177</ele>
        <time>2021-05-20T11:45:44.644Z</time>
      </trkpt>
      <trkpt lat="48.72423" lon="2.0209">
        <ele>177</ele>
        <time>2021-05-20T11:45:45.644Z</time>
      </trkpt>
      <trkpt lat="48.72424" lon="2.02089">
        <ele>176</ele>
        <time>2021-05-20T11:45:46.644Z</time>
      </trkpt>
      <trkpt lat="48.72425" lon="2.02087">
        <ele>176</ele>
        <time>2021-05-20T11:45:47.644Z</time>
      </trkpt>
      <trkpt lat="48.72426" lon="2.02086">
        <ele>176</ele>
        <time>2021-05-20T11:45:48.644Z</time>
      </trkpt>
      <trkpt lat="48.72427" lon="2.02085">
        <ele>176</ele>
        <time>2021-05-20T11:45:49.644Z</time>
      </trkpt>
      <trkpt lat="48.72428" lon="2.02083">
        <ele>176</ele>
        <time>2021-05-20T11:45:50.644Z</time>
      </trkpt>
      <trkpt lat="48.72428" lon="2.02081">
        <ele>176</ele>
        <time>2021-05-20T11:45:51.644Z</time>
      </trkpt>
      <trkpt lat="48.72429" lon="2.02079">
        <ele>176</ele>
        <time>2021-05-20T11:45:52.644Z</time>
      </trkpt>
      <trkpt lat="48.7243" lon="2.02078">
        <ele>176</ele>
        <time>2021-05-20T11:45:53.644Z</time>
      </trkpt>
      <trkpt lat="48.72431" lon="2.02076">
        <ele>176</ele>
        <time>2021-05-20T11:45:54.644Z</time>
      </trkpt>
      <trkpt lat="48.72432" lon="2.02075">
        <ele>176</ele>
        <time>2021-05-20T11:45:55.644Z</time>
      </trkpt>
      <trkpt lat="48.72432" lon="2.02074">
        <ele>176</ele>
        <time>2021-05-20T11:45:56.644Z</time>
      </trkpt>
      <trkpt lat="48.72434" lon="2.02073">
        <ele>176</ele>
        <time>2021-05-20T11:45:57.644Z</time>
      </trkpt>
      <trkpt lat="48.72435" lon="2.02072">
        <ele>176</ele>
        <time>2021-05-20T11:45:58.644Z</time>
      </trkpt>
      <trkpt lat="48.72436" lon="2.02071">
        <ele>176</ele>
        <time>2021-05-20T11:45:59.644Z</time>
      </trkpt>
      <trkpt lat="48.72437" lon="2.0207">
        <ele>176</ele>
        <time>2021-05-20T11:46:00.644Z</time>
      </trkpt>
      <trkpt lat="48.72437" lon="2.02069">
        <ele>176</ele>
        <time>2021-05-20T11:46:01.644Z</time>
      </trkpt>
      <trkpt lat="48.72438" lon="2.02068">
        <ele>176</ele>
        <time>2021-05-20T11:46:02.644Z</time>
      </trkpt>
      <trkpt lat="48.72439" lon="2.02067">
        <ele>176</ele>
        <time>2021-05-20T11:46:03.644Z</time>
      </trkpt>
      <trkpt lat="48.7244" lon="2.02066">
        <ele>176</ele>
        <time>2021-05-20T11:46:04.644Z</time>
      </trkpt>
      <trkpt lat="48.72441" lon="2.02065">
        <ele>176</ele>
        <time>2021-05-20T11:46:05.644Z</time>
      </trkpt>
      <trkpt lat="48.72442" lon="2.02065">
        <ele>176</ele>
        <time>2021-05-20T11:46:06.644Z</time>
      </trkpt>
      <trkpt lat="48.72443" lon="2.02065">
        <ele>176</ele>
        <time>2021-05-20T11:46:07.644Z</time>
      </trkpt>
      <trkpt lat="48.72443" lon="2.02064">
        <ele>175</ele>
        <time>2021-05-20T11:46:08.644Z</time>
      </trkpt>
      <trkpt lat="48.72444" lon="2.02063">
        <ele>175</ele>
        <time>2021-05-20T11:46:09.644Z</time>
      </trkpt>
      <trkpt lat="48.72445" lon="2.02063">
        <ele>175</ele>
        <time>2021-05-20T11:46:10.644Z</time>
      </trkpt>
      <trkpt lat="48.72445" lon="2.02062">
        <ele>175</ele>
        <time>2021-05-20T11:46:11.644Z</time>
      </trkpt>
      <trkpt lat="48.72446" lon="2.02061">
        <ele>175</ele>
        <time>2021-05-20T11:46:12.644Z</time>
      </trkpt>
      <trkpt lat="48.72447" lon="2.0206">
        <ele>175</ele>
        <time>2021-05-20T11:46:13.644Z</time>
      </trkpt>
      <trkpt lat="48.72448" lon="2.02059">
        <ele>175</ele>
        <time>2021-05-20T11:46:14.644Z</time>
      </trkpt>
      <trkpt lat="48.72449" lon="2.02058">
        <ele>174</ele>
        <time>2021-05-20T11:46:15.644Z</time>
      </trkpt>
      <trkpt lat="48.7245" lon="2.02057">
        <ele>174</ele>
        <time>2021-05-20T11:46:16.644Z</time>
      </trkpt>
      <trkpt lat="48.72451" lon="2.02056">
        <ele>174</ele>
        <time>2021-05-20T11:46:17.644Z</time>
      </trkpt>
      <trkpt lat="48.72451" lon="2.02055">
        <ele>174</ele>
        <time>2021-05-20T11:46:18.644Z</time>
      </trkpt>
      <trkpt lat="48.72453" lon="2.02054">
        <ele>174</ele>
        <time>2021-05-20T11:46:19.644Z</time>
      </trkpt>
      <trkpt lat="48.72453" lon="2.02053">
        <ele>174</ele>
        <time>2021-05-20T11:46:20.644Z</time>
      </trkpt>
      <trkpt lat="48.72454" lon="2.02052">
        <ele>174</ele>
        <time>2021-05-20T11:46:21.644Z</time>
      </trkpt>
      <trkpt lat="48.72455" lon="2.02051">
        <ele>174</ele>
        <time>2021-05-20T11:46:22.644Z</time>
      </trkpt>
      <trkpt lat="48.72456" lon="2.02051">
        <ele>174</ele>
        <time>2021-05-20T11:46:23.644Z</time>
      </trkpt>
      <trkpt lat="48.72457" lon="2.0205">
        <ele>174</ele>
        <time>2021-05-20T11:46:24.644Z</time>
      </trkpt>
      <trkpt lat="48.72457" lon="2.02049">
        <ele>174</ele>
        <time>2021-05-20T11:46:25.644Z</time>
      </trkpt>
      <trkpt lat="48.72458" lon="2.02048">
        <ele>174</ele>
        <time>2021-05-20T11:46:26.644Z</time>
      </trkpt>
      <trkpt lat="48.72459" lon="2.02047">
        <ele>174</ele>
        <time>2021-05-20T11:46:27.644Z</time>
      </trkpt>
      <trkpt lat="48.7246" lon="2.02047">
        <ele>174</ele>
        <time>2021-05-20T11:46:28.644Z</time>
      </trkpt>
      <trkpt lat="48.7246" lon="2.02047">
        <ele>174</ele>
        <time>2021-05-20T11:46:29.644Z</time>
      </trkpt>
      <trkpt lat="48.72461" lon="2.02046">
        <ele>174</ele>
        <time>2021-05-20T11:46:30.644Z</time>
      </trkpt>
      <trkpt lat="48.72462" lon="2.02046">
        <ele>174</ele>
        <time>2021-05-20T11:46:31.644Z</time>
      </trkpt>
      <trkpt lat="48.72463" lon="2.02045">
        <ele>174</ele>
        <time>2021-05-20T11:46:32.644Z</time>
      </trkpt>
      <trkpt lat="48.72464" lon="2.02044">
        <ele>175</ele>
        <time>2021-05-20T11:46:33.644Z</time>
      </trkpt>
      <trkpt lat="48.72464" lon="2.02043">
        <ele>175</ele>
        <time>2021-05-20T11:46:34.644Z</time>
      </trkpt>
      <trkpt lat="48.72465" lon="2.02041">
        <ele>175</ele>
        <time>2021-05-20T11:46:35.644Z</time>
      </trkpt>
      <trkpt lat="48.72466" lon="2.0204">
        <ele>175</ele>
        <time>2021-05-20T11:46:36.644Z</time>
      </trkpt>
      <trkpt lat="48.72466" lon="2.02039">
        <ele>175</ele>
        <time>2021-05-20T11:46:37.644Z</time>
      </trkpt>
      <trkpt lat="48.72467" lon="2.02038">
        <ele>175</ele>
        <time>2021-05-20T11:46:38.644Z</time>
      </trkpt>
      <trkpt lat="48.72469" lon="2.02037">
        <ele>175</ele>
        <time>2021-05-20T11:46:39.644Z</time>
      </trkpt>
      <trkpt lat="48.7247" lon="2.02036">
        <ele>175</ele>
        <time>2021-05-20T11:46:40.644Z</time>
      </trkpt>
      <trkpt lat="48.72471" lon="2.02035">
        <ele>175</ele>
        <time>2021-05-20T11:46:41.644Z</time>
      </trkpt>
      <trkpt lat="48.72472" lon="2.02035">
        <ele>175</ele>
        <time>2021-05-20T11:46:42.644Z</time>
      </trkpt>
      <trkpt lat="48.72473" lon="2.02034">
        <ele>175</ele>
        <time>2021-05-20T11:46:43.644Z</time>
      </trkpt>
      <trkpt lat="48.72474" lon="2.02033">
        <ele>175</ele>
        <time>2021-05-20T11:46:44.644Z</time>
      </trkpt>
      <trkpt lat="48.72475" lon="2.02032">
        <ele>175</ele>
        <time>2021-05-20T11:46:45.644Z</time>
      </trkpt>
      <trkpt lat="48.72475" lon="2.02031">
        <ele>175</ele>
        <time>2021-05-20T11:46:46.644Z</time>
      </trkpt>
      <trkpt lat="48.72476" lon="2.0203">
        <ele>176</ele>
        <time>2021-05-20T11:46:47.644Z</time>
      </trkpt>
      <trkpt lat="48.72477" lon="2.02028">
        <ele>176</ele>
        <time>2021-05-20T11:46:48.644Z</time>
      </trkpt>
      <trkpt lat="48.72478" lon="2.02027">
        <ele>176</ele>
        <time>2021-05-20T11:46:49.644Z</time>
      </trkpt>
      <trkpt lat="48.72479" lon="2.02026">
        <ele>176</ele>
        <time>2021-05-20T11:46:50.644Z</time>
      </trkpt>
      <trkpt lat="48.7248" lon="2.02025">
        <ele>176</ele>
        <time>2021-05-20T11:46:51.644Z</time>
      </trkpt>
      <trkpt lat="48.72481" lon="2.02024">
        <ele>176</ele>
        <time>2021-05-20T11:46:52.644Z</time>
      </trkpt>
      <trkpt lat="48.72482" lon="2.02023">
        <ele>176</ele>
        <time>2021-05-20T11:46:53.644Z</time>
      </trkpt>
      <trkpt lat="48.72483" lon="2.02022">
        <ele>176</ele>
        <time>2021-05-20T11:46:54.644Z</time>
      </trkpt>
      <trkpt lat="48.72483" lon="2.02021">
        <ele>176</ele>
        <time>2021-05-20T11:46:55.644Z</time>
      </trkpt>
      <trkpt lat="48.72484" lon="2.02019">
        <ele>176</ele>
        <time>2021-05-20T11:46:56.644Z</time>
      </trkpt>
      <trkpt lat="48.72485" lon="2.02019">
        <ele>176</ele>
        <time>2021-05-20T11:46:57.644Z</time>
      </trkpt>
      <trkpt lat="48.72486" lon="2.02018">
        <ele>176</ele>
        <time>2021-05-20T11:46:58.644Z</time>
      </trkpt>
      <trkpt lat="48.72487" lon="2.02017">
        <ele>176</ele>
        <time>2021-05-20T11:46:59.644Z</time>
      </trkpt>
      <trkpt lat="48.72488" lon="2.02016">
        <ele>176</ele>
        <time>2021-05-20T11:47:00.644Z</time>
      </trkpt>
      <trkpt lat="48.72489" lon="2.02015">
        <ele>176</ele>
        <time>2021-05-20T11:47:01.644Z</time>
      </trkpt>
      <trkpt lat="48.7249" lon="2.02014">
        <ele>176</ele>
        <time>2021-05-20T11:47:02.644Z</time>
      </trkpt>
      <trkpt lat="48.72491" lon="2.02013">
        <ele>176</ele>
        <time>2021-05-20T11:47:03.644Z</time>
      </trkpt>
      <trkpt lat="48.72492" lon="2.02011">
        <ele>176</ele>
        <time>2021-05-20T11:47:04.644Z</time>
      </trkpt>
      <trkpt lat="48.72493" lon="2.0201">
        <ele>176</ele>
        <time>2021-05-20T11:47:05.644Z</time>
      </trkpt>
      <trkpt lat="48.72494" lon="2.02008">
        <ele>176</ele>
        <time>2021-05-20T11:47:06.644Z</time>
      </trkpt>
      <trkpt lat="48.72494" lon="2.02007">
        <ele>176</ele>
        <time>2021-05-20T11:47:07.644Z</time>
      </trkpt>
      <trkpt lat="48.72495" lon="2.02006">
        <ele>176</ele>
        <time>2021-05-20T11:47:08.644Z</time>
      </trkpt>
      <trkpt lat="48.72496" lon="2.02005">
        <ele>176</ele>
        <time>2021-05-20T11:47:09.644Z</time>
      </trkpt>
      <trkpt lat="48.72497" lon="2.02005">
        <ele>176</ele>
        <time>2021-05-20T11:47:10.644Z</time>
      </trkpt>
      <trkpt lat="48.72498" lon="2.02004">
        <ele>176</ele>
        <time>2021-05-20T11:47:11.644Z</time>
      </trkpt>
      <trkpt lat="48.72499" lon="2.02003">
        <ele>176</ele>
        <time>2021-05-20T11:47:12.644Z</time>
      </trkpt>
      <trkpt lat="48.725" lon="2.02002">
        <ele>176</ele>
        <time>2021-05-20T11:47:13.644Z</time>
      </trkpt>
      <trkpt lat="48.72501" lon="2.02001">
        <ele>176</ele>
        <time>2021-05-20T11:47:14.644Z</time>
      </trkpt>
      <trkpt lat="48.72502" lon="2.02">
        <ele>176</ele>
        <time>2021-05-20T11:47:15.644Z</time>
      </trkpt>
      <trkpt lat="48.72503" lon="2.02">
        <ele>176</ele>
        <time>2021-05-20T11:47:16.644Z</time>
      </trkpt>
      <trkpt lat="48.72504" lon="2.01999">
        <ele>176</ele>
        <time>2021-05-20T11:47:17.644Z</time>
      </trkpt>
      <trkpt lat="48.72505" lon="2.01998">
        <ele>176</ele>
        <time>2021-05-20T11:47:18.644Z</time>
      </trkpt>
      <trkpt lat="48.72507" lon="2.01997">
        <ele>176</ele>
        <time>2021-05-20T11:47:19.644Z</time>
      </trkpt>
      <trkpt lat="48.72508" lon="2.01996">
        <ele>176</ele>
        <time>2021-05-20T11:47:20.644Z</time>
      </trkpt>
      <trkpt lat="48.72509" lon="2.01994">
        <ele>176</ele>
        <time>2021-05-20T11:47:21.644Z</time>
      </trkpt>
      <trkpt lat="48.7251" lon="2.01993">
        <ele>176</ele>
        <time>2021-05-20T11:47:22.644Z</time>
      </trkpt>
      <trkpt lat="48.7251" lon="2.01992">
        <ele>176</ele>
        <time>2021-05-20T11:47:23.644Z</time>
      </trkpt>
      <trkpt lat="48.72512" lon="2.01991">
        <ele>176</ele>
        <time>2021-05-20T11:47:24.644Z</time>
      </trkpt>
      <trkpt lat="48.72513" lon="2.0199">
        <ele>176</ele>
        <time>2021-05-20T11:47:25.644Z</time>
      </trkpt>
      <trkpt lat="48.72514" lon="2.01989">
        <ele>176</ele>
        <time>2021-05-20T11:47:26.644Z</time>
      </trkpt>
      <trkpt lat="48.72515" lon="2.01988">
        <ele>176</ele>
        <time>2021-05-20T11:47:27.644Z</time>
      </trkpt>
      <trkpt lat="48.72516" lon="2.01987">
        <ele>175</ele>
        <time>2021-05-20T11:47:28.644Z</time>
      </trkpt>
      <trkpt lat="48.72517" lon="2.01985">
        <ele>175</ele>
        <time>2021-05-20T11:47:29.644Z</time>
      </trkpt>
      <trkpt lat="48.72519" lon="2.01984">
        <ele>175</ele>
        <time>2021-05-20T11:47:30.644Z</time>
      </trkpt>
      <trkpt lat="48.7252" lon="2.01983">
        <ele>175</ele>
        <time>2021-05-20T11:47:31.644Z</time>
      </trkpt>
      <trkpt lat="48.72521" lon="2.01982">
        <ele>175</ele>
        <time>2021-05-20T11:47:32.644Z</time>
      </trkpt>
      <trkpt lat="48.72521" lon="2.01981">
        <ele>174</ele>
        <time>2021-05-20T11:47:33.644Z</time>
      </trkpt>
      <trkpt lat="48.72522" lon="2.0198">
        <ele>174</ele>
        <time>2021-05-20T11:47:34.644Z</time>
      </trkpt>
      <trkpt lat="48.72523" lon="2.01979">
        <ele>174</ele>
        <time>2021-05-20T11:47:35.644Z</time>
      </trkpt>
      <trkpt lat="48.72524" lon="2.01978">
        <ele>174</ele>
        <time>2021-05-20T11:47:36.644Z</time>
      </trkpt>
      <trkpt lat="48.72525" lon="2.01977">
        <ele>174</ele>
        <time>2021-05-20T11:47:37.644Z</time>
      </trkpt>
      <trkpt lat="48.72526" lon="2.01976">
        <ele>174</ele>
        <time>2021-05-20T11:47:38.644Z</time>
      </trkpt>
      <trkpt lat="48.72527" lon="2.01975">
        <ele>174</ele>
        <time>2021-05-20T11:47:39.644Z</time>
      </trkpt>
      <trkpt lat="48.72528" lon="2.01974">
        <ele>174</ele>
        <time>2021-05-20T11:47:40.644Z</time>
      </trkpt>
      <trkpt lat="48.72529" lon="2.01973">
        <ele>174</ele>
        <time>2021-05-20T11:47:41.644Z</time>
      </trkpt>
      <trkpt lat="48.7253" lon="2.01972">
        <ele>174</ele>
        <time>2021-05-20T11:47:42.644Z</time>
      </trkpt>
      <trkpt lat="48.72531" lon="2.01971">
        <ele>174</ele>
        <time>2021-05-20T11:47:43.644Z</time>
      </trkpt>
      <trkpt lat="48.72532" lon="2.0197">
        <ele>174</ele>
        <time>2021-05-20T11:47:44.644Z</time>
      </trkpt>
      <trkpt lat="48.72533" lon="2.0197">
        <ele>174</ele>
        <time>2021-05-20T11:47:45.644Z</time>
      </trkpt>
      <trkpt lat="48.72535" lon="2.01969">
        <ele>174</ele>
        <time>2021-05-20T11:47:46.644Z</time>
      </trkpt>
      <trkpt lat="48.72536" lon="2.01967">
        <ele>174</ele>
        <time>2021-05-20T11:47:47.644Z</time>
      </trkpt>
      <trkpt lat="48.72537" lon="2.01966">
        <ele>174</ele>
        <time>2021-05-20T11:47:48.644Z</time>
      </trkpt>
      <trkpt lat="48.72538" lon="2.01965">
        <ele>174</ele>
        <time>2021-05-20T11:47:49.644Z</time>
      </trkpt>
      <trkpt lat="48.72539" lon="2.01964">
        <ele>174</ele>
        <time>2021-05-20T11:47:50.644Z</time>
      </trkpt>
      <trkpt lat="48.72541" lon="2.01963">
        <ele>173</ele>
        <time>2021-05-20T11:47:51.644Z</time>
      </trkpt>
      <trkpt lat="48.72542" lon="2.01962">
        <ele>173</ele>
        <time>2021-05-20T11:47:52.644Z</time>
      </trkpt>
      <trkpt lat="48.72543" lon="2.0196">
        <ele>173</ele>
        <time>2021-05-20T11:47:53.644Z</time>
      </trkpt>
      <trkpt lat="48.72544" lon="2.0196">
        <ele>172</ele>
        <time>2021-05-20T11:47:54.644Z</time>
      </trkpt>
      <trkpt lat="48.72544" lon="2.01959">
        <ele>172</ele>
        <time>2021-05-20T11:47:55.644Z</time>
      </trkpt>
      <trkpt lat="48.72545" lon="2.01959">
        <ele>172</ele>
        <time>2021-05-20T11:47:56.644Z</time>
      </trkpt>
      <trkpt lat="48.72545" lon="2.01958">
        <ele>172</ele>
        <time>2021-05-20T11:47:57.644Z</time>
      </trkpt>
      <trkpt lat="48.72551" lon="2.01953">
        <ele>172</ele>
        <time>2021-05-20T11:47:58.644Z</time>
      </trkpt>
      <trkpt lat="48.72551" lon="2.01953">
        <ele>172</ele>
        <time>2021-05-20T11:47:59.644Z</time>
      </trkpt>
      <trkpt lat="48.72552" lon="2.01952">
        <ele>172</ele>
        <time>2021-05-20T11:48:00.644Z</time>
      </trkpt>
      <trkpt lat="48.72553" lon="2.01951">
        <ele>172</ele>
        <time>2021-05-20T11:48:01.644Z</time>
      </trkpt>
      <trkpt lat="48.72553" lon="2.01951">
        <ele>172</ele>
        <time>2021-05-20T11:48:02.644Z</time>
      </trkpt>
      <trkpt lat="48.72554" lon="2.0195">
        <ele>172</ele>
        <time>2021-05-20T11:48:03.644Z</time>
      </trkpt>
      <trkpt lat="48.72555" lon="2.0195">
        <ele>172</ele>
        <time>2021-05-20T11:48:04.644Z</time>
      </trkpt>
      <trkpt lat="48.72556" lon="2.01949">
        <ele>172</ele>
        <time>2021-05-20T11:48:05.644Z</time>
      </trkpt>
      <trkpt lat="48.72556" lon="2.01949">
        <ele>172</ele>
        <time>2021-05-20T11:48:06.644Z</time>
      </trkpt>
      <trkpt lat="48.72557" lon="2.01949">
        <ele>172</ele>
        <time>2021-05-20T11:48:07.644Z</time>
      </trkpt>
      <trkpt lat="48.72558" lon="2.01948">
        <ele>172</ele>
        <time>2021-05-20T11:48:08.644Z</time>
      </trkpt>
      <trkpt lat="48.72559" lon="2.01948">
        <ele>172</ele>
        <time>2021-05-20T11:48:09.644Z</time>
      </trkpt>
      <trkpt lat="48.7256" lon="2.01948">
        <ele>172</ele>
        <time>2021-05-20T11:48:10.644Z</time>
      </trkpt>
      <trkpt lat="48.72561" lon="2.01947">
        <ele>172</ele>
        <time>2021-05-20T11:48:11.644Z</time>
      </trkpt>
      <trkpt lat="48.72562" lon="2.01947">
        <ele>172</ele>
        <time>2021-05-20T11:48:12.644Z</time>
      </trkpt>
      <trkpt lat="48.72563" lon="2.01946">
        <ele>172</ele>
        <time>2021-05-20T11:48:13.644Z</time>
      </trkpt>
      <trkpt lat="48.72563" lon="2.01946">
        <ele>172</ele>
        <time>2021-05-20T11:48:14.644Z</time>
      </trkpt>
      <trkpt lat="48.72564" lon="2.01945">
        <ele>172</ele>
        <time>2021-05-20T11:48:15.644Z</time>
      </trkpt>
      <trkpt lat="48.72565" lon="2.01944">
        <ele>173</ele>
        <time>2021-05-20T11:48:16.644Z</time>
      </trkpt>
      <trkpt lat="48.72565" lon="2.01943">
        <ele>173</ele>
        <time>2021-05-20T11:48:17.644Z</time>
      </trkpt>
      <trkpt lat="48.72566" lon="2.01942">
        <ele>173</ele>
        <time>2021-05-20T11:48:18.644Z</time>
      </trkpt>
      <trkpt lat="48.72567" lon="2.01941">
        <ele>173</ele>
        <time>2021-05-20T11:48:19.644Z</time>
      </trkpt>
      <trkpt lat="48.72567" lon="2.0194">
        <ele>172</ele>
        <time>2021-05-20T11:48:20.644Z</time>
      </trkpt>
      <trkpt lat="48.72568" lon="2.01939">
        <ele>172</ele>
        <time>2021-05-20T11:48:21.644Z</time>
      </trkpt>
      <trkpt lat="48.72569" lon="2.01939">
        <ele>172</ele>
        <time>2021-05-20T11:48:22.644Z</time>
      </trkpt>
      <trkpt lat="48.7257" lon="2.01938">
        <ele>172</ele>
        <time>2021-05-20T11:48:23.644Z</time>
      </trkpt>
      <trkpt lat="48.72571" lon="2.01937">
        <ele>172</ele>
        <time>2021-05-20T11:48:24.644Z</time>
      </trkpt>
      <trkpt lat="48.72572" lon="2.01936">
        <ele>172</ele>
        <time>2021-05-20T11:48:25.644Z</time>
      </trkpt>
      <trkpt lat="48.72573" lon="2.01934">
        <ele>172</ele>
        <time>2021-05-20T11:48:26.644Z</time>
      </trkpt>
      <trkpt lat="48.72573" lon="2.01933">
        <ele>172</ele>
        <time>2021-05-20T11:48:27.644Z</time>
      </trkpt>
      <trkpt lat="48.72574" lon="2.01932">
        <ele>172</ele>
        <time>2021-05-20T11:48:28.644Z</time>
      </trkpt>
      <trkpt lat="48.72575" lon="2.01931">
        <ele>172</ele>
        <time>2021-05-20T11:48:29.644Z</time>
      </trkpt>
      <trkpt lat="48.72576" lon="2.0193">
        <ele>172</ele>
        <time>2021-05-20T11:48:30.644Z</time>
      </trkpt>
      <trkpt lat="48.72577" lon="2.01929">
        <ele>172</ele>
        <time>2021-05-20T11:48:31.644Z</time>
      </trkpt>
      <trkpt lat="48.72578" lon="2.01928">
        <ele>172</ele>
        <time>2021-05-20T11:48:32.644Z</time>
      </trkpt>
      <trkpt lat="48.72578" lon="2.01927">
        <ele>172</ele>
        <time>2021-05-20T11:48:33.644Z</time>
      </trkpt>
      <trkpt lat="48.72579" lon="2.01926">
        <ele>172</ele>
        <time>2021-05-20T11:48:34.644Z</time>
      </trkpt>
      <trkpt lat="48.7258" lon="2.01925">
        <ele>172</ele>
        <time>2021-05-20T11:48:35.644Z</time>
      </trkpt>
      <trkpt lat="48.72581" lon="2.01924">
        <ele>172</ele>
        <time>2021-05-20T11:48:36.644Z</time>
      </trkpt>
      <trkpt lat="48.72582" lon="2.01923">
        <ele>172</ele>
        <time>2021-05-20T11:48:37.644Z</time>
      </trkpt>
      <trkpt lat="48.72583" lon="2.01922">
        <ele>172</ele>
        <time>2021-05-20T11:48:38.644Z</time>
      </trkpt>
      <trkpt lat="48.72584" lon="2.0192">
        <ele>172</ele>
        <time>2021-05-20T11:48:39.644Z</time>
      </trkpt>
      <trkpt lat="48.72585" lon="2.0192">
        <ele>172</ele>
        <time>2021-05-20T11:48:40.644Z</time>
      </trkpt>
      <trkpt lat="48.72586" lon="2.01919">
        <ele>172</ele>
        <time>2021-05-20T11:48:41.644Z</time>
      </trkpt>
      <trkpt lat="48.72586" lon="2.01918">
        <ele>172</ele>
        <time>2021-05-20T11:48:42.644Z</time>
      </trkpt>
      <trkpt lat="48.72587" lon="2.01917">
        <ele>172</ele>
        <time>2021-05-20T11:48:43.644Z</time>
      </trkpt>
      <trkpt lat="48.72588" lon="2.01916">
        <ele>172</ele>
        <time>2021-05-20T11:48:44.644Z</time>
      </trkpt>
      <trkpt lat="48.72589" lon="2.01914">
        <ele>172</ele>
        <time>2021-05-20T11:48:45.644Z</time>
      </trkpt>
      <trkpt lat="48.7259" lon="2.01913">
        <ele>172</ele>
        <time>2021-05-20T11:48:46.644Z</time>
      </trkpt>
      <trkpt lat="48.72591" lon="2.01912">
        <ele>172</ele>
        <time>2021-05-20T11:48:47.644Z</time>
      </trkpt>
      <trkpt lat="48.72592" lon="2.01911">
        <ele>172</ele>
        <time>2021-05-20T11:48:48.644Z</time>
      </trkpt>
      <trkpt lat="48.72593" lon="2.0191">
        <ele>172</ele>
        <time>2021-05-20T11:48:49.644Z</time>
      </trkpt>
      <trkpt lat="48.72594" lon="2.01908">
        <ele>171</ele>
        <time>2021-05-20T11:48:50.644Z</time>
      </trkpt>
      <trkpt lat="48.72595" lon="2.01907">
        <ele>171</ele>
        <time>2021-05-20T11:48:51.644Z</time>
      </trkpt>
      <trkpt lat="48.72596" lon="2.01906">
        <ele>171</ele>
        <time>2021-05-20T11:48:52.644Z</time>
      </trkpt>
      <trkpt lat="48.72597" lon="2.01905">
        <ele>171</ele>
        <time>2021-05-20T11:48:53.644Z</time>
      </trkpt>
      <trkpt lat="48.72598" lon="2.01904">
        <ele>171</ele>
        <time>2021-05-20T11:48:54.644Z</time>
      </trkpt>
      <trkpt lat="48.72599" lon="2.01903">
        <ele>171</ele>
        <time>2021-05-20T11:48:55.644Z</time>
      </trkpt>
      <trkpt lat="48.72599" lon="2.01902">
        <ele>171</ele>
        <time>2021-05-20T11:48:56.644Z</time>
      </trkpt>
      <trkpt lat="48.726" lon="2.01901">
        <ele>171</ele>
        <time>2021-05-20T11:48:57.644Z</time>
      </trkpt>
      <trkpt lat="48.72601" lon="2.019">
        <ele>172</ele>
        <time>2021-05-20T11:48:58.644Z</time>
      </trkpt>
      <trkpt lat="48.72601" lon="2.01899">
        <ele>172</ele>
        <time>2021-05-20T11:48:59.644Z</time>
      </trkpt>
      <trkpt lat="48.72602" lon="2.01898">
        <ele>172</ele>
        <time>2021-05-20T11:49:00.644Z</time>
      </trkpt>
      <trkpt lat="48.72603" lon="2.01897">
        <ele>172</ele>
        <time>2021-05-20T11:49:01.644Z</time>
      </trkpt>
      <trkpt lat="48.72604" lon="2.01896">
        <ele>172</ele>
        <time>2021-05-20T11:49:02.644Z</time>
      </trkpt>
      <trkpt lat="48.72605" lon="2.01895">
        <ele>172</ele>
        <time>2021-05-20T11:49:03.644Z</time>
      </trkpt>
      <trkpt lat="48.72606" lon="2.01895">
        <ele>172</ele>
        <time>2021-05-20T11:49:04.644Z</time>
      </trkpt>
      <trkpt lat="48.72607" lon="2.01894">
        <ele>171</ele>
        <time>2021-05-20T11:49:05.644Z</time>
      </trkpt>
      <trkpt lat="48.72608" lon="2.01893">
        <ele>171</ele>
        <time>2021-05-20T11:49:06.644Z</time>
      </trkpt>
      <trkpt lat="48.72609" lon="2.01892">
        <ele>172</ele>
        <time>2021-05-20T11:49:07.644Z</time>
      </trkpt>
      <trkpt lat="48.7261" lon="2.01891">
        <ele>172</ele>
        <time>2021-05-20T11:49:08.644Z</time>
      </trkpt>
      <trkpt lat="48.72611" lon="2.0189">
        <ele>172</ele>
        <time>2021-05-20T11:49:09.644Z</time>
      </trkpt>
      <trkpt lat="48.72612" lon="2.01889">
        <ele>171</ele>
        <time>2021-05-20T11:49:10.644Z</time>
      </trkpt>
      <trkpt lat="48.72613" lon="2.01888">
        <ele>171</ele>
        <time>2021-05-20T11:49:11.644Z</time>
      </trkpt>
      <trkpt lat="48.72615" lon="2.01887">
        <ele>171</ele>
        <time>2021-05-20T11:49:12.644Z</time>
      </trkpt>
      <trkpt lat="48.72616" lon="2.01886">
        <ele>171</ele>
        <time>2021-05-20T11:49:13.644Z</time>
      </trkpt>
      <trkpt lat="48.72617" lon="2.01885">
        <ele>171</ele>
        <time>2021-05-20T11:49:14.644Z</time>
      </trkpt>
      <trkpt lat="48.72618" lon="2.01884">
        <ele>171</ele>
        <time>2021-05-20T11:49:15.644Z</time>
      </trkpt>
      <trkpt lat="48.72619" lon="2.01883">
        <ele>171</ele>
        <time>2021-05-20T11:49:16.644Z</time>
      </trkpt>
      <trkpt lat="48.7262" lon="2.01882">
        <ele>171</ele>
        <time>2021-05-20T11:49:17.644Z</time>
      </trkpt>
      <trkpt lat="48.72621" lon="2.01881">
        <ele>171</ele>
        <time>2021-05-20T11:49:18.644Z</time>
      </trkpt>
      <trkpt lat="48.72622" lon="2.0188">
        <ele>171</ele>
        <time>2021-05-20T11:49:19.644Z</time>
      </trkpt>
      <trkpt lat="48.72623" lon="2.01879">
        <ele>171</ele>
        <time>2021-05-20T11:49:20.644Z</time>
      </trkpt>
      <trkpt lat="48.72624" lon="2.01878">
        <ele>171</ele>
        <time>2021-05-20T11:49:21.644Z</time>
      </trkpt>
      <trkpt lat="48.72625" lon="2.01877">
        <ele>171</ele>
        <time>2021-05-20T11:49:22.644Z</time>
      </trkpt>
      <trkpt lat="48.72625" lon="2.01876">
        <ele>171</ele>
        <time>2021-05-20T11:49:23.644Z</time>
      </trkpt>
      <trkpt lat="48.72627" lon="2.01875">
        <ele>171</ele>
        <time>2021-05-20T11:49:24.644Z</time>
      </trkpt>
      <trkpt lat="48.72628" lon="2.01874">
        <ele>171</ele>
        <time>2021-05-20T11:49:25.644Z</time>
      </trkpt>
      <trkpt lat="48.72628" lon="2.01873">
        <ele>171</ele>
        <time>2021-05-20T11:49:26.644Z</time>
      </trkpt>
      <trkpt lat="48.72629" lon="2.01872">
        <ele>171</ele>
        <time>2021-05-20T11:49:27.644Z</time>
      </trkpt>
      <trkpt lat="48.7263" lon="2.01872">
        <ele>171</ele>
        <time>2021-05-20T11:49:28.644Z</time>
      </trkpt>
      <trkpt lat="48.72631" lon="2.01871">
        <ele>171</ele>
        <time>2021-05-20T11:49:29.644Z</time>
      </trkpt>
      <trkpt lat="48.72631" lon="2.0187">
        <ele>171</ele>
        <time>2021-05-20T11:49:30.644Z</time>
      </trkpt>
      <trkpt lat="48.72632" lon="2.01869">
        <ele>171</ele>
        <time>2021-05-20T11:49:31.644Z</time>
      </trkpt>
      <trkpt lat="48.72633" lon="2.01868">
        <ele>171</ele>
        <time>2021-05-20T11:49:32.644Z</time>
      </trkpt>
      <trkpt lat="48.72633" lon="2.01868">
        <ele>171</ele>
        <time>2021-05-20T11:49:33.644Z</time>
      </trkpt>
      <trkpt lat="48.72634" lon="2.01867">
        <ele>171</ele>
        <time>2021-05-20T11:49:34.644Z</time>
      </trkpt>
      <trkpt lat="48.72635" lon="2.01866">
        <ele>171</ele>
        <time>2021-05-20T11:49:35.644Z</time>
      </trkpt>
      <trkpt lat="48.72636" lon="2.01865">
        <ele>171</ele>
        <time>2021-05-20T11:49:36.644Z</time>
      </trkpt>
      <trkpt lat="48.72637" lon="2.01865">
        <ele>170</ele>
        <time>2021-05-20T11:49:37.644Z</time>
      </trkpt>
      <trkpt lat="48.72638" lon="2.01864">
        <ele>170</ele>
        <time>2021-05-20T11:49:38.644Z</time>
      </trkpt>
      <trkpt lat="48.72638" lon="2.01863">
        <ele>170</ele>
        <time>2021-05-20T11:49:39.644Z</time>
      </trkpt>
      <trkpt lat="48.7264" lon="2.01862">
        <ele>170</ele>
        <time>2021-05-20T11:49:40.644Z</time>
      </trkpt>
      <trkpt lat="48.72641" lon="2.01862">
        <ele>170</ele>
        <time>2021-05-20T11:49:41.644Z</time>
      </trkpt>
      <trkpt lat="48.72642" lon="2.01861">
        <ele>170</ele>
        <time>2021-05-20T11:49:42.644Z</time>
      </trkpt>
      <trkpt lat="48.72643" lon="2.0186">
        <ele>170</ele>
        <time>2021-05-20T11:49:43.644Z</time>
      </trkpt>
      <trkpt lat="48.72644" lon="2.01859">
        <ele>170</ele>
        <time>2021-05-20T11:49:44.644Z</time>
      </trkpt>
      <trkpt lat="48.72645" lon="2.01858">
        <ele>170</ele>
        <time>2021-05-20T11:49:45.644Z</time>
      </trkpt>
      <trkpt lat="48.72647" lon="2.01857">
        <ele>170</ele>
        <time>2021-05-20T11:49:46.644Z</time>
      </trkpt>
      <trkpt lat="48.72648" lon="2.01856">
        <ele>171</ele>
        <time>2021-05-20T11:49:47.644Z</time>
      </trkpt>
      <trkpt lat="48.72649" lon="2.01855">
        <ele>171</ele>
        <time>2021-05-20T11:49:48.644Z</time>
      </trkpt>
      <trkpt lat="48.7265" lon="2.01854">
        <ele>171</ele>
        <time>2021-05-20T11:49:49.644Z</time>
      </trkpt>
      <trkpt lat="48.72651" lon="2.01853">
        <ele>171</ele>
        <time>2021-05-20T11:49:50.644Z</time>
      </trkpt>
      <trkpt lat="48.72652" lon="2.01852">
        <ele>171</ele>
        <time>2021-05-20T11:49:51.644Z</time>
      </trkpt>
      <trkpt lat="48.72653" lon="2.01851">
        <ele>171</ele>
        <time>2021-05-20T11:49:52.644Z</time>
      </trkpt>
      <trkpt lat="48.72654" lon="2.0185">
        <ele>171</ele>
        <time>2021-05-20T11:49:53.644Z</time>
      </trkpt>
      <trkpt lat="48.72656" lon="2.01848">
        <ele>171</ele>
        <time>2021-05-20T11:49:54.644Z</time>
      </trkpt>
      <trkpt lat="48.72657" lon="2.01847">
        <ele>171</ele>
        <time>2021-05-20T11:49:55.644Z</time>
      </trkpt>
      <trkpt lat="48.72658" lon="2.01846">
        <ele>171</ele>
        <time>2021-05-20T11:49:56.644Z</time>
      </trkpt>
      <trkpt lat="48.72659" lon="2.01844">
        <ele>171</ele>
        <time>2021-05-20T11:49:57.644Z</time>
      </trkpt>
      <trkpt lat="48.7266" lon="2.01843">
        <ele>171</ele>
        <time>2021-05-20T11:49:58.644Z</time>
      </trkpt>
      <trkpt lat="48.72661" lon="2.01842">
        <ele>171</ele>
        <time>2021-05-20T11:49:59.644Z</time>
      </trkpt>
      <trkpt lat="48.72662" lon="2.01841">
        <ele>171</ele>
        <time>2021-05-20T11:50:00.644Z</time>
      </trkpt>
      <trkpt lat="48.72663" lon="2.0184">
        <ele>171</ele>
        <time>2021-05-20T11:50:01.644Z</time>
      </trkpt>
      <trkpt lat="48.72664" lon="2.01838">
        <ele>170</ele>
        <time>2021-05-20T11:50:02.644Z</time>
      </trkpt>
      <trkpt lat="48.72665" lon="2.01837">
        <ele>170</ele>
        <time>2021-05-20T11:50:03.644Z</time>
      </trkpt>
      <trkpt lat="48.72666" lon="2.01836">
        <ele>170</ele>
        <time>2021-05-20T11:50:04.644Z</time>
      </trkpt>
      <trkpt lat="48.72667" lon="2.01834">
        <ele>170</ele>
        <time>2021-05-20T11:50:05.644Z</time>
      </trkpt>
      <trkpt lat="48.72668" lon="2.01833">
        <ele>170</ele>
        <time>2021-05-20T11:50:06.644Z</time>
      </trkpt>
      <trkpt lat="48.72669" lon="2.01831">
        <ele>170</ele>
        <time>2021-05-20T11:50:07.644Z</time>
      </trkpt>
      <trkpt lat="48.72669" lon="2.01829">
        <ele>169</ele>
        <time>2021-05-20T11:50:08.644Z</time>
      </trkpt>
      <trkpt lat="48.7267" lon="2.01828">
        <ele>169</ele>
        <time>2021-05-20T11:50:09.644Z</time>
      </trkpt>
      <trkpt lat="48.72671" lon="2.01826">
        <ele>169</ele>
        <time>2021-05-20T11:50:10.644Z</time>
      </trkpt>
      <trkpt lat="48.72671" lon="2.01825">
        <ele>169</ele>
        <time>2021-05-20T11:50:11.644Z</time>
      </trkpt>
      <trkpt lat="48.72672" lon="2.01823">
        <ele>169</ele>
        <time>2021-05-20T11:50:12.644Z</time>
      </trkpt>
      <trkpt lat="48.72672" lon="2.01822">
        <ele>169</ele>
        <time>2021-05-20T11:50:13.644Z</time>
      </trkpt>
      <trkpt lat="48.72672" lon="2.0182">
        <ele>169</ele>
        <time>2021-05-20T11:50:14.644Z</time>
      </trkpt>
      <trkpt lat="48.72672" lon="2.01819">
        <ele>169</ele>
        <time>2021-05-20T11:50:15.644Z</time>
      </trkpt>
      <trkpt lat="48.72672" lon="2.01817">
        <ele>168</ele>
        <time>2021-05-20T11:50:16.644Z</time>
      </trkpt>
      <trkpt lat="48.72673" lon="2.01816">
        <ele>168</ele>
        <time>2021-05-20T11:50:17.644Z</time>
      </trkpt>
      <trkpt lat="48.72673" lon="2.01814">
        <ele>168</ele>
        <time>2021-05-20T11:50:18.644Z</time>
      </trkpt>
      <trkpt lat="48.72673" lon="2.01812">
        <ele>168</ele>
        <time>2021-05-20T11:50:19.644Z</time>
      </trkpt>
      <trkpt lat="48.72673" lon="2.01811">
        <ele>168</ele>
        <time>2021-05-20T11:50:20.644Z</time>
      </trkpt>
      <trkpt lat="48.72674" lon="2.0181">
        <ele>168</ele>
        <time>2021-05-20T11:50:21.644Z</time>
      </trkpt>
      <trkpt lat="48.72674" lon="2.01809">
        <ele>168</ele>
        <time>2021-05-20T11:50:22.644Z</time>
      </trkpt>
      <trkpt lat="48.72674" lon="2.01808">
        <ele>169</ele>
        <time>2021-05-20T11:50:23.644Z</time>
      </trkpt>
      <trkpt lat="48.72674" lon="2.01807">
        <ele>169</ele>
        <time>2021-05-20T11:50:24.644Z</time>
      </trkpt>
      <trkpt lat="48.72675" lon="2.01805">
        <ele>169</ele>
        <time>2021-05-20T11:50:25.644Z</time>
      </trkpt>
      <trkpt lat="48.72675" lon="2.01804">
        <ele>169</ele>
        <time>2021-05-20T11:50:26.644Z</time>
      </trkpt>
      <trkpt lat="48.72675" lon="2.01803">
        <ele>169</ele>
        <time>2021-05-20T11:50:27.644Z</time>
      </trkpt>
      <trkpt lat="48.72675" lon="2.01801">
        <ele>169</ele>
        <time>2021-05-20T11:50:28.644Z</time>
      </trkpt>
      <trkpt lat="48.72675" lon="2.018">
        <ele>169</ele>
        <time>2021-05-20T11:50:29.644Z</time>
      </trkpt>
      <trkpt lat="48.72675" lon="2.01798">
        <ele>169</ele>
        <time>2021-05-20T11:50:30.644Z</time>
      </trkpt>
      <trkpt lat="48.72675" lon="2.01797">
        <ele>169</ele>
        <time>2021-05-20T11:50:31.644Z</time>
      </trkpt>
      <trkpt lat="48.72676" lon="2.01796">
        <ele>169</ele>
        <time>2021-05-20T11:50:32.644Z</time>
      </trkpt>
      <trkpt lat="48.72676" lon="2.01794">
        <ele>169</ele>
        <time>2021-05-20T11:50:33.644Z</time>
      </trkpt>
      <trkpt lat="48.72676" lon="2.01793">
        <ele>169</ele>
        <time>2021-05-20T11:50:34.644Z</time>
      </trkpt>
      <trkpt lat="48.72675" lon="2.01792">
        <ele>169</ele>
        <time>2021-05-20T11:50:35.644Z</time>
      </trkpt>
      <trkpt lat="48.72675" lon="2.0179">
        <ele>169</ele>
        <time>2021-05-20T11:50:36.644Z</time>
      </trkpt>
      <trkpt lat="48.72675" lon="2.01789">
        <ele>169</ele>
        <time>2021-05-20T11:50:37.644Z</time>
      </trkpt>
      <trkpt lat="48.72675" lon="2.01788">
        <ele>169</ele>
        <time>2021-05-20T11:50:38.644Z</time>
      </trkpt>
      <trkpt lat="48.72675" lon="2.01786">
        <ele>169</ele>
        <time>2021-05-20T11:50:39.644Z</time>
      </trkpt>
      <trkpt lat="48.72675" lon="2.01784">
        <ele>169</ele>
        <time>2021-05-20T11:50:40.644Z</time>
      </trkpt>
      <trkpt lat="48.72674" lon="2.01782">
        <ele>169</ele>
        <time>2021-05-20T11:50:41.644Z</time>
      </trkpt>
      <trkpt lat="48.72674" lon="2.0178">
        <ele>169</ele>
        <time>2021-05-20T11:50:42.644Z</time>
      </trkpt>
      <trkpt lat="48.72674" lon="2.01779">
        <ele>169</ele>
        <time>2021-05-20T11:50:43.644Z</time>
      </trkpt>
      <trkpt lat="48.72674" lon="2.01777">
        <ele>168</ele>
        <time>2021-05-20T11:50:44.644Z</time>
      </trkpt>
      <trkpt lat="48.72674" lon="2.01776">
        <ele>168</ele>
        <time>2021-05-20T11:50:45.644Z</time>
      </trkpt>
      <trkpt lat="48.72674" lon="2.01774">
        <ele>168</ele>
        <time>2021-05-20T11:50:46.644Z</time>
      </trkpt>
      <trkpt lat="48.72675" lon="2.01772">
        <ele>168</ele>
        <time>2021-05-20T11:50:47.644Z</time>
      </trkpt>
      <trkpt lat="48.72675" lon="2.01771">
        <ele>168</ele>
        <time>2021-05-20T11:50:48.644Z</time>
      </trkpt>
      <trkpt lat="48.72675" lon="2.0177">
        <ele>168</ele>
        <time>2021-05-20T11:50:49.644Z</time>
      </trkpt>
      <trkpt lat="48.72675" lon="2.01769">
        <ele>168</ele>
        <time>2021-05-20T11:50:50.644Z</time>
      </trkpt>
      <trkpt lat="48.72676" lon="2.01768">
        <ele>168</ele>
        <time>2021-05-20T11:50:51.644Z</time>
      </trkpt>
      <trkpt lat="48.72676" lon="2.01766">
        <ele>168</ele>
        <time>2021-05-20T11:50:52.644Z</time>
      </trkpt>
      <trkpt lat="48.72677" lon="2.01765">
        <ele>168</ele>
        <time>2021-05-20T11:50:53.644Z</time>
      </trkpt>
      <trkpt lat="48.72678" lon="2.01764">
        <ele>168</ele>
        <time>2021-05-20T11:50:54.644Z</time>
      </trkpt>
      <trkpt lat="48.72679" lon="2.01763">
        <ele>169</ele>
        <time>2021-05-20T11:50:55.644Z</time>
      </trkpt>
      <trkpt lat="48.7268" lon="2.01762">
        <ele>169</ele>
        <time>2021-05-20T11:50:56.644Z</time>
      </trkpt>
      <trkpt lat="48.72681" lon="2.01761">
        <ele>169</ele>
        <time>2021-05-20T11:50:57.644Z</time>
      </trkpt>
      <trkpt lat="48.72682" lon="2.01759">
        <ele>169</ele>
        <time>2021-05-20T11:50:58.644Z</time>
      </trkpt>
      <trkpt lat="48.72683" lon="2.01758">
        <ele>169</ele>
        <time>2021-05-20T11:50:59.644Z</time>
      </trkpt>
      <trkpt lat="48.72683" lon="2.01757">
        <ele>169</ele>
        <time>2021-05-20T11:51:00.644Z</time>
      </trkpt>
      <trkpt lat="48.72685" lon="2.01756">
        <ele>169</ele>
        <time>2021-05-20T11:51:01.644Z</time>
      </trkpt>
      <trkpt lat="48.72685" lon="2.01754">
        <ele>170</ele>
        <time>2021-05-20T11:51:02.644Z</time>
      </trkpt>
      <trkpt lat="48.72686" lon="2.01754">
        <ele>170</ele>
        <time>2021-05-20T11:51:03.644Z</time>
      </trkpt>
      <trkpt lat="48.72687" lon="2.01753">
        <ele>170</ele>
        <time>2021-05-20T11:51:04.644Z</time>
      </trkpt>
      <trkpt lat="48.72687" lon="2.01751">
        <ele>170</ele>
        <time>2021-05-20T11:51:05.644Z</time>
      </trkpt>
      <trkpt lat="48.72688" lon="2.0175">
        <ele>170</ele>
        <time>2021-05-20T11:51:06.644Z</time>
      </trkpt>
      <trkpt lat="48.72689" lon="2.01749">
        <ele>170</ele>
        <time>2021-05-20T11:51:07.644Z</time>
      </trkpt>
      <trkpt lat="48.72689" lon="2.01748">
        <ele>170</ele>
        <time>2021-05-20T11:51:08.644Z</time>
      </trkpt>
      <trkpt lat="48.7269" lon="2.01746">
        <ele>170</ele>
        <time>2021-05-20T11:51:09.644Z</time>
      </trkpt>
      <trkpt lat="48.7269" lon="2.01745">
        <ele>171</ele>
        <time>2021-05-20T11:51:10.644Z</time>
      </trkpt>
      <trkpt lat="48.72691" lon="2.01743">
        <ele>171</ele>
        <time>2021-05-20T11:51:11.644Z</time>
      </trkpt>
      <trkpt lat="48.72691" lon="2.01742">
        <ele>171</ele>
        <time>2021-05-20T11:51:12.644Z</time>
      </trkpt>
      <trkpt lat="48.72692" lon="2.0174">
        <ele>171</ele>
        <time>2021-05-20T11:51:13.644Z</time>
      </trkpt>
      <trkpt lat="48.72693" lon="2.01739">
        <ele>171</ele>
        <time>2021-05-20T11:51:14.644Z</time>
      </trkpt>
      <trkpt lat="48.72693" lon="2.01738">
        <ele>171</ele>
        <time>2021-05-20T11:51:15.644Z</time>
      </trkpt>
      <trkpt lat="48.72694" lon="2.01736">
        <ele>171</ele>
        <time>2021-05-20T11:51:16.644Z</time>
      </trkpt>
      <trkpt lat="48.72694" lon="2.01735">
        <ele>171</ele>
        <time>2021-05-20T11:51:17.644Z</time>
      </trkpt>
      <trkpt lat="48.72695" lon="2.01734">
        <ele>171</ele>
        <time>2021-05-20T11:51:18.644Z</time>
      </trkpt>
      <trkpt lat="48.72695" lon="2.01733">
        <ele>171</ele>
        <time>2021-05-20T11:51:19.644Z</time>
      </trkpt>
      <trkpt lat="48.72696" lon="2.01732">
        <ele>171</ele>
        <time>2021-05-20T11:51:20.644Z</time>
      </trkpt>
      <trkpt lat="48.72696" lon="2.01731">
        <ele>171</ele>
        <time>2021-05-20T11:51:21.644Z</time>
      </trkpt>
      <trkpt lat="48.72697" lon="2.0173">
        <ele>171</ele>
        <time>2021-05-20T11:51:22.644Z</time>
      </trkpt>
      <trkpt lat="48.72697" lon="2.0173">
        <ele>171</ele>
        <time>2021-05-20T11:51:23.644Z</time>
      </trkpt>
      <trkpt lat="48.72698" lon="2.01729">
        <ele>171</ele>
        <time>2021-05-20T11:51:24.644Z</time>
      </trkpt>
      <trkpt lat="48.727" lon="2.01726">
        <ele>171</ele>
        <time>2021-05-20T11:51:25.644Z</time>
      </trkpt>
      <trkpt lat="48.72701" lon="2.01725">
        <ele>171</ele>
        <time>2021-05-20T11:51:26.644Z</time>
      </trkpt>
      <trkpt lat="48.72702" lon="2.01725">
        <ele>171</ele>
        <time>2021-05-20T11:51:27.644Z</time>
      </trkpt>
      <trkpt lat="48.72702" lon="2.01725">
        <ele>171</ele>
        <time>2021-05-20T11:51:28.644Z</time>
      </trkpt>
      <trkpt lat="48.72704" lon="2.01725">
        <ele>171</ele>
        <time>2021-05-20T11:51:29.644Z</time>
      </trkpt>
      <trkpt lat="48.72705" lon="2.01726">
        <ele>171</ele>
        <time>2021-05-20T11:51:30.644Z</time>
      </trkpt>
      <trkpt lat="48.72706" lon="2.01727">
        <ele>171</ele>
        <time>2021-05-20T11:51:31.644Z</time>
      </trkpt>
      <trkpt lat="48.72707" lon="2.01727">
        <ele>171</ele>
        <time>2021-05-20T11:51:32.644Z</time>
      </trkpt>
      <trkpt lat="48.72709" lon="2.01727">
        <ele>171</ele>
        <time>2021-05-20T11:51:33.644Z</time>
      </trkpt>
      <trkpt lat="48.7271" lon="2.01728">
        <ele>171</ele>
        <time>2021-05-20T11:51:34.644Z</time>
      </trkpt>
      <trkpt lat="48.7271" lon="2.01728">
        <ele>171</ele>
        <time>2021-05-20T11:51:35.644Z</time>
      </trkpt>
      <trkpt lat="48.72713" lon="2.01729">
        <ele>171</ele>
        <time>2021-05-20T11:51:36.644Z</time>
      </trkpt>
      <trkpt lat="48.72714" lon="2.0173">
        <ele>171</ele>
        <time>2021-05-20T11:51:37.644Z</time>
      </trkpt>
      <trkpt lat="48.72716" lon="2.01731">
        <ele>171</ele>
        <time>2021-05-20T11:51:38.644Z</time>
      </trkpt>
      <trkpt lat="48.72716" lon="2.01731">
        <ele>171</ele>
        <time>2021-05-20T11:51:39.644Z</time>
      </trkpt>
      <trkpt lat="48.72718" lon="2.01732">
        <ele>170</ele>
        <time>2021-05-20T11:51:40.644Z</time>
      </trkpt>
      <trkpt lat="48.7272" lon="2.01732">
        <ele>170</ele>
        <time>2021-05-20T11:51:41.644Z</time>
      </trkpt>
      <trkpt lat="48.72721" lon="2.01732">
        <ele>170</ele>
        <time>2021-05-20T11:51:42.644Z</time>
      </trkpt>
      <trkpt lat="48.72722" lon="2.01732">
        <ele>170</ele>
        <time>2021-05-20T11:51:43.644Z</time>
      </trkpt>
      <trkpt lat="48.72724" lon="2.01732">
        <ele>170</ele>
        <time>2021-05-20T11:51:44.644Z</time>
      </trkpt>
      <trkpt lat="48.72724" lon="2.01732">
        <ele>170</ele>
        <time>2021-05-20T11:51:45.644Z</time>
      </trkpt>
      <trkpt lat="48.72726" lon="2.01731">
        <ele>171</ele>
        <time>2021-05-20T11:51:46.644Z</time>
      </trkpt>
      <trkpt lat="48.72727" lon="2.01731">
        <ele>171</ele>
        <time>2021-05-20T11:51:47.644Z</time>
      </trkpt>
      <trkpt lat="48.72727" lon="2.0173">
        <ele>171</ele>
        <time>2021-05-20T11:51:48.644Z</time>
      </trkpt>
      <trkpt lat="48.72728" lon="2.0173">
        <ele>171</ele>
        <time>2021-05-20T11:51:49.644Z</time>
      </trkpt>
      <trkpt lat="48.72729" lon="2.0173">
        <ele>171</ele>
        <time>2021-05-20T11:51:50.644Z</time>
      </trkpt>
      <trkpt lat="48.7273" lon="2.0173">
        <ele>171</ele>
        <time>2021-05-20T11:51:51.644Z</time>
      </trkpt>
      <trkpt lat="48.72731" lon="2.0173">
        <ele>171</ele>
        <time>2021-05-20T11:51:52.644Z</time>
      </trkpt>
      <trkpt lat="48.72731" lon="2.0173">
        <ele>171</ele>
        <time>2021-05-20T11:51:53.644Z</time>
      </trkpt>
      <trkpt lat="48.72733" lon="2.0173">
        <ele>171</ele>
        <time>2021-05-20T11:51:54.644Z</time>
      </trkpt>
      <trkpt lat="48.72733" lon="2.0173">
        <ele>171</ele>
        <time>2021-05-20T11:51:55.644Z</time>
      </trkpt>
      <trkpt lat="48.72735" lon="2.01731">
        <ele>171</ele>
        <time>2021-05-20T11:51:56.644Z</time>
      </trkpt>
      <trkpt lat="48.72736" lon="2.01731">
        <ele>171</ele>
        <time>2021-05-20T11:51:57.644Z</time>
      </trkpt>
      <trkpt lat="48.72736" lon="2.01731">
        <ele>172</ele>
        <time>2021-05-20T11:51:58.644Z</time>
      </trkpt>
      <trkpt lat="48.72737" lon="2.01731">
        <ele>172</ele>
        <time>2021-05-20T11:51:59.644Z</time>
      </trkpt>
      <trkpt lat="48.72738" lon="2.01731">
        <ele>172</ele>
        <time>2021-05-20T11:52:00.644Z</time>
      </trkpt>
      <trkpt lat="48.72738" lon="2.01731">
        <ele>172</ele>
        <time>2021-05-20T11:52:01.644Z</time>
      </trkpt>
      <trkpt lat="48.72739" lon="2.01731">
        <ele>172</ele>
        <time>2021-05-20T11:52:02.644Z</time>
      </trkpt>
      <trkpt lat="48.7274" lon="2.0173">
        <ele>172</ele>
        <time>2021-05-20T11:52:03.644Z</time>
      </trkpt>
      <trkpt lat="48.72741" lon="2.0173">
        <ele>172</ele>
        <time>2021-05-20T11:52:04.644Z</time>
      </trkpt>
      <trkpt lat="48.72741" lon="2.0173">
        <ele>172</ele>
        <time>2021-05-20T11:52:05.644Z</time>
      </trkpt>
      <trkpt lat="48.72744" lon="2.0173">
        <ele>172</ele>
        <time>2021-05-20T11:52:06.644Z</time>
      </trkpt>
      <trkpt lat="48.72745" lon="2.0173">
        <ele>172</ele>
        <time>2021-05-20T11:52:07.644Z</time>
      </trkpt>
      <trkpt lat="48.72746" lon="2.01729">
        <ele>172</ele>
        <time>2021-05-20T11:52:08.644Z</time>
      </trkpt>
      <trkpt lat="48.72747" lon="2.01729">
        <ele>173</ele>
        <time>2021-05-20T11:52:09.644Z</time>
      </trkpt>
      <trkpt lat="48.72748" lon="2.01729">
        <ele>173</ele>
        <time>2021-05-20T11:52:10.644Z</time>
      </trkpt>
      <trkpt lat="48.72749" lon="2.0173">
        <ele>173</ele>
        <time>2021-05-20T11:52:11.644Z</time>
      </trkpt>
      <trkpt lat="48.72749" lon="2.0173">
        <ele>173</ele>
        <time>2021-05-20T11:52:12.644Z</time>
      </trkpt>
      <trkpt lat="48.72751" lon="2.01732">
        <ele>173</ele>
        <time>2021-05-20T11:52:13.644Z</time>
      </trkpt>
      <trkpt lat="48.72751" lon="2.01732">
        <ele>173</ele>
        <time>2021-05-20T11:52:14.644Z</time>
      </trkpt>
      <trkpt lat="48.72752" lon="2.01733">
        <ele>173</ele>
        <time>2021-05-20T11:52:15.644Z</time>
      </trkpt>
      <trkpt lat="48.72752" lon="2.01734">
        <ele>173</ele>
        <time>2021-05-20T11:52:16.644Z</time>
      </trkpt>
      <trkpt lat="48.72753" lon="2.01735">
        <ele>173</ele>
        <time>2021-05-20T11:52:17.644Z</time>
      </trkpt>
      <trkpt lat="48.72753" lon="2.01735">
        <ele>173</ele>
        <time>2021-05-20T11:52:18.644Z</time>
      </trkpt>
      <trkpt lat="48.72754" lon="2.01737">
        <ele>173</ele>
        <time>2021-05-20T11:52:19.644Z</time>
      </trkpt>
      <trkpt lat="48.72754" lon="2.01737">
        <ele>173</ele>
        <time>2021-05-20T11:52:20.644Z</time>
      </trkpt>
      <trkpt lat="48.72754" lon="2.01738">
        <ele>173</ele>
        <time>2021-05-20T11:52:21.644Z</time>
      </trkpt>
      <trkpt lat="48.72754" lon="2.01738">
        <ele>173</ele>
        <time>2021-05-20T11:52:22.644Z</time>
      </trkpt>
      <trkpt lat="48.72754" lon="2.01738">
        <ele>173</ele>
        <time>2021-05-20T11:52:23.644Z</time>
      </trkpt>
      <trkpt lat="48.72756" lon="2.01739">
        <ele>173</ele>
        <time>2021-05-20T11:52:24.644Z</time>
      </trkpt>
      <trkpt lat="48.72756" lon="2.01739">
        <ele>173</ele>
        <time>2021-05-20T11:52:25.644Z</time>
      </trkpt>
      <trkpt lat="48.72757" lon="2.01744">
        <ele>171</ele>
        <time>2021-05-20T11:52:26.644Z</time>
      </trkpt>
      <trkpt lat="48.72757" lon="2.01745">
        <ele>171</ele>
        <time>2021-05-20T11:52:27.644Z</time>
      </trkpt>
      <trkpt lat="48.72757" lon="2.01746">
        <ele>171</ele>
        <time>2021-05-20T11:52:28.644Z</time>
      </trkpt>
      <trkpt lat="48.72757" lon="2.01746">
        <ele>171</ele>
        <time>2021-05-20T11:52:29.644Z</time>
      </trkpt>
      <trkpt lat="48.72757" lon="2.01746">
        <ele>171</ele>
        <time>2021-05-20T11:52:30.644Z</time>
      </trkpt>
      <trkpt lat="48.72757" lon="2.01746">
        <ele>171</ele>
        <time>2021-05-20T11:52:31.644Z</time>
      </trkpt>
      <trkpt lat="48.7276" lon="2.01747">
        <ele>170</ele>
        <time>2021-05-20T11:52:32.644Z</time>
      </trkpt>
      <trkpt lat="48.7276" lon="2.01746">
        <ele>170</ele>
        <time>2021-05-20T11:52:33.644Z</time>
      </trkpt>
      <trkpt lat="48.72761" lon="2.01746">
        <ele>170</ele>
        <time>2021-05-20T11:52:34.644Z</time>
      </trkpt>
      <trkpt lat="48.72762" lon="2.01745">
        <ele>170</ele>
        <time>2021-05-20T11:52:35.644Z</time>
      </trkpt>
      <trkpt lat="48.72763" lon="2.01744">
        <ele>170</ele>
        <time>2021-05-20T11:52:36.644Z</time>
      </trkpt>
      <trkpt lat="48.72764" lon="2.01743">
        <ele>170</ele>
        <time>2021-05-20T11:52:37.644Z</time>
      </trkpt>
      <trkpt lat="48.72765" lon="2.01742">
        <ele>170</ele>
        <time>2021-05-20T11:52:38.644Z</time>
      </trkpt>
      <trkpt lat="48.72766" lon="2.01742">
        <ele>170</ele>
        <time>2021-05-20T11:52:39.644Z</time>
      </trkpt>
      <trkpt lat="48.72767" lon="2.01741">
        <ele>170</ele>
        <time>2021-05-20T11:52:40.644Z</time>
      </trkpt>
      <trkpt lat="48.72767" lon="2.0174">
        <ele>170</ele>
        <time>2021-05-20T11:52:41.644Z</time>
      </trkpt>
      <trkpt lat="48.72768" lon="2.01739">
        <ele>170</ele>
        <time>2021-05-20T11:52:42.644Z</time>
      </trkpt>
      <trkpt lat="48.72769" lon="2.01738">
        <ele>170</ele>
        <time>2021-05-20T11:52:43.644Z</time>
      </trkpt>
      <trkpt lat="48.7277" lon="2.01737">
        <ele>170</ele>
        <time>2021-05-20T11:52:44.644Z</time>
      </trkpt>
      <trkpt lat="48.7277" lon="2.01737">
        <ele>170</ele>
        <time>2021-05-20T11:52:45.644Z</time>
      </trkpt>
      <trkpt lat="48.72771" lon="2.01736">
        <ele>170</ele>
        <time>2021-05-20T11:52:46.644Z</time>
      </trkpt>
      <trkpt lat="48.72772" lon="2.01735">
        <ele>170</ele>
        <time>2021-05-20T11:52:47.644Z</time>
      </trkpt>
      <trkpt lat="48.72773" lon="2.01735">
        <ele>171</ele>
        <time>2021-05-20T11:52:48.644Z</time>
      </trkpt>
      <trkpt lat="48.72774" lon="2.01733">
        <ele>171</ele>
        <time>2021-05-20T11:52:49.644Z</time>
      </trkpt>
      <trkpt lat="48.72775" lon="2.01732">
        <ele>171</ele>
        <time>2021-05-20T11:52:50.644Z</time>
      </trkpt>
      <trkpt lat="48.72776" lon="2.01731">
        <ele>171</ele>
        <time>2021-05-20T11:52:51.644Z</time>
      </trkpt>
      <trkpt lat="48.72777" lon="2.0173">
        <ele>171</ele>
        <time>2021-05-20T11:52:52.644Z</time>
      </trkpt>
      <trkpt lat="48.72777" lon="2.01729">
        <ele>171</ele>
        <time>2021-05-20T11:52:53.644Z</time>
      </trkpt>
      <trkpt lat="48.72778" lon="2.01728">
        <ele>171</ele>
        <time>2021-05-20T11:52:54.644Z</time>
      </trkpt>
      <trkpt lat="48.72779" lon="2.01726">
        <ele>171</ele>
        <time>2021-05-20T11:52:55.644Z</time>
      </trkpt>
      <trkpt lat="48.7278" lon="2.01725">
        <ele>171</ele>
        <time>2021-05-20T11:52:56.644Z</time>
      </trkpt>
      <trkpt lat="48.72781" lon="2.01725">
        <ele>171</ele>
        <time>2021-05-20T11:52:57.644Z</time>
      </trkpt>
      <trkpt lat="48.72782" lon="2.01724">
        <ele>172</ele>
        <time>2021-05-20T11:52:58.644Z</time>
      </trkpt>
      <trkpt lat="48.72783" lon="2.01722">
        <ele>172</ele>
        <time>2021-05-20T11:52:59.644Z</time>
      </trkpt>
      <trkpt lat="48.72784" lon="2.01721">
        <ele>172</ele>
        <time>2021-05-20T11:53:00.644Z</time>
      </trkpt>
      <trkpt lat="48.72784" lon="2.0172">
        <ele>172</ele>
        <time>2021-05-20T11:53:01.644Z</time>
      </trkpt>
      <trkpt lat="48.72785" lon="2.01719">
        <ele>172</ele>
        <time>2021-05-20T11:53:02.644Z</time>
      </trkpt>
      <trkpt lat="48.72786" lon="2.01717">
        <ele>172</ele>
        <time>2021-05-20T11:53:03.644Z</time>
      </trkpt>
      <trkpt lat="48.72787" lon="2.01716">
        <ele>172</ele>
        <time>2021-05-20T11:53:04.644Z</time>
      </trkpt>
      <trkpt lat="48.72787" lon="2.01715">
        <ele>172</ele>
        <time>2021-05-20T11:53:05.644Z</time>
      </trkpt>
      <trkpt lat="48.72788" lon="2.01713">
        <ele>172</ele>
        <time>2021-05-20T11:53:06.644Z</time>
      </trkpt>
      <trkpt lat="48.72789" lon="2.01712">
        <ele>173</ele>
        <time>2021-05-20T11:53:07.644Z</time>
      </trkpt>
      <trkpt lat="48.7279" lon="2.01711">
        <ele>173</ele>
        <time>2021-05-20T11:53:08.644Z</time>
      </trkpt>
      <trkpt lat="48.72791" lon="2.0171">
        <ele>173</ele>
        <time>2021-05-20T11:53:09.644Z</time>
      </trkpt>
      <trkpt lat="48.72792" lon="2.01709">
        <ele>173</ele>
        <time>2021-05-20T11:53:10.644Z</time>
      </trkpt>
      <trkpt lat="48.72793" lon="2.01708">
        <ele>173</ele>
        <time>2021-05-20T11:53:11.644Z</time>
      </trkpt>
      <trkpt lat="48.72794" lon="2.01706">
        <ele>173</ele>
        <time>2021-05-20T11:53:12.644Z</time>
      </trkpt>
      <trkpt lat="48.72795" lon="2.01705">
        <ele>173</ele>
        <time>2021-05-20T11:53:13.644Z</time>
      </trkpt>
      <trkpt lat="48.72796" lon="2.01703">
        <ele>173</ele>
        <time>2021-05-20T11:53:14.644Z</time>
      </trkpt>
      <trkpt lat="48.72797" lon="2.01702">
        <ele>173</ele>
        <time>2021-05-20T11:53:40.647Z</time>
      </trkpt>
      <trkpt lat="48.72798" lon="2.017">
        <ele>172</ele>
        <time>2021-05-20T11:53:41.647Z</time>
      </trkpt>
      <trkpt lat="48.72799" lon="2.01699">
        <ele>172</ele>
        <time>2021-05-20T11:53:42.647Z</time>
      </trkpt>
      <trkpt lat="48.728" lon="2.01698">
        <ele>172</ele>
        <time>2021-05-20T11:53:43.647Z</time>
      </trkpt>
      <trkpt lat="48.72801" lon="2.01697">
        <ele>172</ele>
        <time>2021-05-20T11:53:44.647Z</time>
      </trkpt>
      <trkpt lat="48.72801" lon="2.01696">
        <ele>172</ele>
        <time>2021-05-20T11:53:45.647Z</time>
      </trkpt>
      <trkpt lat="48.72802" lon="2.01694">
        <ele>172</ele>
        <time>2021-05-20T11:53:46.647Z</time>
      </trkpt>
      <trkpt lat="48.72803" lon="2.01693">
        <ele>172</ele>
        <time>2021-05-20T11:53:47.647Z</time>
      </trkpt>
      <trkpt lat="48.72804" lon="2.01692">
        <ele>172</ele>
        <time>2021-05-20T11:53:48.647Z</time>
      </trkpt>
      <trkpt lat="48.72805" lon="2.01691">
        <ele>172</ele>
        <time>2021-05-20T11:53:49.647Z</time>
      </trkpt>
      <trkpt lat="48.72805" lon="2.01689">
        <ele>172</ele>
        <time>2021-05-20T11:53:50.647Z</time>
      </trkpt>
      <trkpt lat="48.72806" lon="2.01688">
        <ele>172</ele>
        <time>2021-05-20T11:53:51.647Z</time>
      </trkpt>
      <trkpt lat="48.72807" lon="2.01687">
        <ele>172</ele>
        <time>2021-05-20T11:53:52.647Z</time>
      </trkpt>
      <trkpt lat="48.72808" lon="2.01686">
        <ele>173</ele>
        <time>2021-05-20T11:53:53.647Z</time>
      </trkpt>
      <trkpt lat="48.72809" lon="2.01685">
        <ele>173</ele>
        <time>2021-05-20T11:53:54.647Z</time>
      </trkpt>
      <trkpt lat="48.72811" lon="2.01684">
        <ele>173</ele>
        <time>2021-05-20T11:53:55.647Z</time>
      </trkpt>
      <trkpt lat="48.72812" lon="2.01683">
        <ele>173</ele>
        <time>2021-05-20T11:53:56.647Z</time>
      </trkpt>
      <trkpt lat="48.72813" lon="2.01682">
        <ele>173</ele>
        <time>2021-05-20T11:53:57.647Z</time>
      </trkpt>
      <trkpt lat="48.72814" lon="2.0168">
        <ele>173</ele>
        <time>2021-05-20T11:53:58.647Z</time>
      </trkpt>
      <trkpt lat="48.72815" lon="2.01679">
        <ele>173</ele>
        <time>2021-05-20T11:53:59.647Z</time>
      </trkpt>
      <trkpt lat="48.72816" lon="2.01678">
        <ele>173</ele>
        <time>2021-05-20T11:54:00.647Z</time>
      </trkpt>
      <trkpt lat="48.72817" lon="2.01677">
        <ele>173</ele>
        <time>2021-05-20T11:54:01.647Z</time>
      </trkpt>
      <trkpt lat="48.72818" lon="2.01676">
        <ele>174</ele>
        <time>2021-05-20T11:54:02.647Z</time>
      </trkpt>
      <trkpt lat="48.72819" lon="2.01675">
        <ele>174</ele>
        <time>2021-05-20T11:54:03.647Z</time>
      </trkpt>
      <trkpt lat="48.7282" lon="2.01675">
        <ele>174</ele>
        <time>2021-05-20T11:54:04.647Z</time>
      </trkpt>
      <trkpt lat="48.72821" lon="2.01674">
        <ele>174</ele>
        <time>2021-05-20T11:54:05.647Z</time>
      </trkpt>
      <trkpt lat="48.72822" lon="2.01673">
        <ele>174</ele>
        <time>2021-05-20T11:54:06.647Z</time>
      </trkpt>
      <trkpt lat="48.72823" lon="2.01672">
        <ele>174</ele>
        <time>2021-05-20T11:54:07.647Z</time>
      </trkpt>
      <trkpt lat="48.72824" lon="2.0167">
        <ele>174</ele>
        <time>2021-05-20T11:54:08.647Z</time>
      </trkpt>
      <trkpt lat="48.72825" lon="2.01669">
        <ele>174</ele>
        <time>2021-05-20T11:54:09.647Z</time>
      </trkpt>
      <trkpt lat="48.72826" lon="2.01668">
        <ele>174</ele>
        <time>2021-05-20T11:54:10.647Z</time>
      </trkpt>
      <trkpt lat="48.72827" lon="2.01668">
        <ele>174</ele>
        <time>2021-05-20T11:54:11.647Z</time>
      </trkpt>
      <trkpt lat="48.72828" lon="2.01667">
        <ele>174</ele>
        <time>2021-05-20T11:54:12.647Z</time>
      </trkpt>
      <trkpt lat="48.72828" lon="2.01667">
        <ele>174</ele>
        <time>2021-05-20T11:54:13.647Z</time>
      </trkpt>
      <trkpt lat="48.72829" lon="2.01666">
        <ele>174</ele>
        <time>2021-05-20T11:54:14.647Z</time>
      </trkpt>
      <trkpt lat="48.72831" lon="2.01665">
        <ele>174</ele>
        <time>2021-05-20T11:54:15.647Z</time>
      </trkpt>
      <trkpt lat="48.72832" lon="2.01664">
        <ele>174</ele>
        <time>2021-05-20T11:54:16.647Z</time>
      </trkpt>
      <trkpt lat="48.72833" lon="2.01663">
        <ele>174</ele>
        <time>2021-05-20T11:54:17.647Z</time>
      </trkpt>
      <trkpt lat="48.72834" lon="2.01662">
        <ele>174</ele>
        <time>2021-05-20T11:54:18.647Z</time>
      </trkpt>
      <trkpt lat="48.72835" lon="2.01661">
        <ele>174</ele>
        <time>2021-05-20T11:54:19.647Z</time>
      </trkpt>
      <trkpt lat="48.72836" lon="2.0166">
        <ele>175</ele>
        <time>2021-05-20T11:54:20.647Z</time>
      </trkpt>
      <trkpt lat="48.72837" lon="2.01659">
        <ele>175</ele>
        <time>2021-05-20T11:54:21.647Z</time>
      </trkpt>
      <trkpt lat="48.72838" lon="2.01658">
        <ele>175</ele>
        <time>2021-05-20T11:54:22.647Z</time>
      </trkpt>
      <trkpt lat="48.72839" lon="2.01656">
        <ele>175</ele>
        <time>2021-05-20T11:54:23.647Z</time>
      </trkpt>
      <trkpt lat="48.7284" lon="2.01655">
        <ele>175</ele>
        <time>2021-05-20T11:54:24.647Z</time>
      </trkpt>
      <trkpt lat="48.72841" lon="2.01654">
        <ele>175</ele>
        <time>2021-05-20T11:54:25.647Z</time>
      </trkpt>
      <trkpt lat="48.72842" lon="2.01653">
        <ele>175</ele>
        <time>2021-05-20T11:54:26.647Z</time>
      </trkpt>
      <trkpt lat="48.72843" lon="2.01652">
        <ele>175</ele>
        <time>2021-05-20T11:54:27.647Z</time>
      </trkpt>
      <trkpt lat="48.72844" lon="2.01651">
        <ele>175</ele>
        <time>2021-05-20T11:54:28.647Z</time>
      </trkpt>
      <trkpt lat="48.72845" lon="2.0165">
        <ele>176</ele>
        <time>2021-05-20T11:54:29.647Z</time>
      </trkpt>
      <trkpt lat="48.72845" lon="2.01649">
        <ele>176</ele>
        <time>2021-05-20T11:54:30.647Z</time>
      </trkpt>
      <trkpt lat="48.72846" lon="2.01648">
        <ele>176</ele>
        <time>2021-05-20T11:54:31.647Z</time>
      </trkpt>
      <trkpt lat="48.72847" lon="2.01648">
        <ele>176</ele>
        <time>2021-05-20T11:54:32.647Z</time>
      </trkpt>
      <trkpt lat="48.72849" lon="2.01647">
        <ele>176</ele>
        <time>2021-05-20T11:54:33.647Z</time>
      </trkpt>
      <trkpt lat="48.7285" lon="2.01646">
        <ele>176</ele>
        <time>2021-05-20T11:54:34.647Z</time>
      </trkpt>
      <trkpt lat="48.72851" lon="2.01645">
        <ele>176</ele>
        <time>2021-05-20T11:54:35.647Z</time>
      </trkpt>
      <trkpt lat="48.72853" lon="2.01644">
        <ele>176</ele>
        <time>2021-05-20T11:54:36.647Z</time>
      </trkpt>
      <trkpt lat="48.72854" lon="2.01643">
        <ele>176</ele>
        <time>2021-05-20T11:54:37.647Z</time>
      </trkpt>
      <trkpt lat="48.72856" lon="2.01642">
        <ele>176</ele>
        <time>2021-05-20T11:54:38.647Z</time>
      </trkpt>
      <trkpt lat="48.72857" lon="2.0164">
        <ele>175</ele>
        <time>2021-05-20T11:54:39.647Z</time>
      </trkpt>
      <trkpt lat="48.72858" lon="2.01639">
        <ele>175</ele>
        <time>2021-05-20T11:54:40.647Z</time>
      </trkpt>
      <trkpt lat="48.72859" lon="2.01638">
        <ele>175</ele>
        <time>2021-05-20T11:54:41.647Z</time>
      </trkpt>
      <trkpt lat="48.7286" lon="2.01637">
        <ele>175</ele>
        <time>2021-05-20T11:54:42.647Z</time>
      </trkpt>
      <trkpt lat="48.72861" lon="2.01636">
        <ele>175</ele>
        <time>2021-05-20T11:54:43.647Z</time>
      </trkpt>
      <trkpt lat="48.72862" lon="2.01635">
        <ele>175</ele>
        <time>2021-05-20T11:54:44.647Z</time>
      </trkpt>
      <trkpt lat="48.72862" lon="2.01634">
        <ele>175</ele>
        <time>2021-05-20T11:54:45.647Z</time>
      </trkpt>
      <trkpt lat="48.72863" lon="2.01633">
        <ele>175</ele>
        <time>2021-05-20T11:54:46.647Z</time>
      </trkpt>
      <trkpt lat="48.72864" lon="2.01632">
        <ele>175</ele>
        <time>2021-05-20T11:54:47.647Z</time>
      </trkpt>
      <trkpt lat="48.72864" lon="2.01631">
        <ele>175</ele>
        <time>2021-05-20T11:54:48.647Z</time>
      </trkpt>
      <trkpt lat="48.72865" lon="2.0163">
        <ele>175</ele>
        <time>2021-05-20T11:54:49.647Z</time>
      </trkpt>
      <trkpt lat="48.72866" lon="2.01629">
        <ele>175</ele>
        <time>2021-05-20T11:54:50.647Z</time>
      </trkpt>
      <trkpt lat="48.72866" lon="2.01628">
        <ele>175</ele>
        <time>2021-05-20T11:54:51.647Z</time>
      </trkpt>
      <trkpt lat="48.72867" lon="2.01626">
        <ele>174</ele>
        <time>2021-05-20T11:54:52.647Z</time>
      </trkpt>
      <trkpt lat="48.72868" lon="2.01625">
        <ele>174</ele>
        <time>2021-05-20T11:54:53.647Z</time>
      </trkpt>
      <trkpt lat="48.72869" lon="2.01625">
        <ele>174</ele>
        <time>2021-05-20T11:54:54.647Z</time>
      </trkpt>
      <trkpt lat="48.72869" lon="2.01625">
        <ele>174</ele>
        <time>2021-05-20T11:54:55.647Z</time>
      </trkpt>
      <trkpt lat="48.7287" lon="2.01625">
        <ele>174</ele>
        <time>2021-05-20T11:54:56.647Z</time>
      </trkpt>
      <trkpt lat="48.72871" lon="2.01626">
        <ele>174</ele>
        <time>2021-05-20T11:54:57.647Z</time>
      </trkpt>
      <trkpt lat="48.72871" lon="2.01626">
        <ele>174</ele>
        <time>2021-05-20T11:54:58.647Z</time>
      </trkpt>
      <trkpt lat="48.72872" lon="2.01626">
        <ele>174</ele>
        <time>2021-05-20T11:54:59.647Z</time>
      </trkpt>
      <trkpt lat="48.72872" lon="2.01627">
        <ele>174</ele>
        <time>2021-05-20T11:55:00.647Z</time>
      </trkpt>
      <trkpt lat="48.72873" lon="2.01628">
        <ele>174</ele>
        <time>2021-05-20T11:55:01.647Z</time>
      </trkpt>
      <trkpt lat="48.72874" lon="2.01628">
        <ele>174</ele>
        <time>2021-05-20T11:55:02.647Z</time>
      </trkpt>
      <trkpt lat="48.72875" lon="2.01629">
        <ele>173</ele>
        <time>2021-05-20T11:55:03.647Z</time>
      </trkpt>
      <trkpt lat="48.72876" lon="2.0163">
        <ele>173</ele>
        <time>2021-05-20T11:55:04.647Z</time>
      </trkpt>
      <trkpt lat="48.72877" lon="2.0163">
        <ele>173</ele>
        <time>2021-05-20T11:55:05.647Z</time>
      </trkpt>
      <trkpt lat="48.72877" lon="2.01631">
        <ele>173</ele>
        <time>2021-05-20T11:55:06.647Z</time>
      </trkpt>
      <trkpt lat="48.72878" lon="2.01632">
        <ele>173</ele>
        <time>2021-05-20T11:55:07.647Z</time>
      </trkpt>
      <trkpt lat="48.72878" lon="2.01633">
        <ele>173</ele>
        <time>2021-05-20T11:55:08.647Z</time>
      </trkpt>
      <trkpt lat="48.72878" lon="2.01633">
        <ele>172</ele>
        <time>2021-05-20T11:55:09.647Z</time>
      </trkpt>
      <trkpt lat="48.72878" lon="2.01633">
        <ele>172</ele>
        <time>2021-05-20T11:55:10.647Z</time>
      </trkpt>
      <trkpt lat="48.72878" lon="2.01633">
        <ele>172</ele>
        <time>2021-05-20T11:55:11.647Z</time>
      </trkpt>
      <trkpt lat="48.7288" lon="2.01635">
        <ele>173</ele>
        <time>2021-05-20T11:55:12.647Z</time>
      </trkpt>
      <trkpt lat="48.7288" lon="2.01635">
        <ele>173</ele>
        <time>2021-05-20T11:55:13.647Z</time>
      </trkpt>
      <trkpt lat="48.7288" lon="2.01634">
        <ele>173</ele>
        <time>2021-05-20T11:55:14.647Z</time>
      </trkpt>
      <trkpt lat="48.7288" lon="2.01633">
        <ele>173</ele>
        <time>2021-05-20T11:55:15.647Z</time>
      </trkpt>
      <trkpt lat="48.7288" lon="2.01631">
        <ele>172</ele>
        <time>2021-05-20T11:55:16.647Z</time>
      </trkpt>
      <trkpt lat="48.7288" lon="2.0163">
        <ele>172</ele>
        <time>2021-05-20T11:55:17.647Z</time>
      </trkpt>
      <trkpt lat="48.7288" lon="2.01629">
        <ele>172</ele>
        <time>2021-05-20T11:55:18.647Z</time>
      </trkpt>
      <trkpt lat="48.7288" lon="2.01628">
        <ele>172</ele>
        <time>2021-05-20T11:55:19.647Z</time>
      </trkpt>
      <trkpt lat="48.7288" lon="2.01628">
        <ele>172</ele>
        <time>2021-05-20T11:55:20.647Z</time>
      </trkpt>
      <trkpt lat="48.72879" lon="2.01627">
        <ele>171</ele>
        <time>2021-05-20T11:55:21.647Z</time>
      </trkpt>
      <trkpt lat="48.72879" lon="2.01626">
        <ele>171</ele>
        <time>2021-05-20T11:55:22.647Z</time>
      </trkpt>
      <trkpt lat="48.72879" lon="2.01625">
        <ele>171</ele>
        <time>2021-05-20T11:55:23.647Z</time>
      </trkpt>
      <trkpt lat="48.7288" lon="2.01624">
        <ele>171</ele>
        <time>2021-05-20T11:55:24.647Z</time>
      </trkpt>
      <trkpt lat="48.7288" lon="2.01623">
        <ele>170</ele>
        <time>2021-05-20T11:55:25.647Z</time>
      </trkpt>
      <trkpt lat="48.7288" lon="2.01623">
        <ele>170</ele>
        <time>2021-05-20T11:55:26.647Z</time>
      </trkpt>
      <trkpt lat="48.72878" lon="2.01621">
        <ele>169</ele>
        <time>2021-05-20T11:55:27.647Z</time>
      </trkpt>
      <trkpt lat="48.72877" lon="2.01622">
        <ele>169</ele>
        <time>2021-05-20T11:55:28.647Z</time>
      </trkpt>
      <trkpt lat="48.72877" lon="2.01623">
        <ele>169</ele>
        <time>2021-05-20T11:55:29.647Z</time>
      </trkpt>
      <trkpt lat="48.72877" lon="2.01624">
        <ele>169</ele>
        <time>2021-05-20T11:55:52.659Z</time>
      </trkpt>
      <trkpt lat="48.72877" lon="2.01624">
        <ele>169</ele>
        <time>2021-05-20T11:55:53.659Z</time>
      </trkpt>
      <trkpt lat="48.72877" lon="2.01624">
        <ele>169</ele>
        <time>2021-05-20T11:55:54.659Z</time>
      </trkpt>
      <trkpt lat="48.72877" lon="2.01624">
        <ele>168</ele>
        <time>2021-05-20T11:55:55.659Z</time>
      </trkpt>
      <trkpt lat="48.72877" lon="2.01621">
        <ele>166</ele>
        <time>2021-05-20T11:55:56.659Z</time>
      </trkpt>
      <trkpt lat="48.72878" lon="2.0162">
        <ele>166</ele>
        <time>2021-05-20T11:55:57.659Z</time>
      </trkpt>
      <trkpt lat="48.72879" lon="2.0162">
        <ele>166</ele>
        <time>2021-05-20T11:56:22.671Z</time>
      </trkpt>
      <trkpt lat="48.72879" lon="2.01619">
        <ele>166</ele>
        <time>2021-05-20T11:56:23.671Z</time>
      </trkpt>
      <trkpt lat="48.72879" lon="2.01619">
        <ele>166</ele>
        <time>2021-05-20T11:56:24.671Z</time>
      </trkpt>
      <trkpt lat="48.7288" lon="2.01618">
        <ele>166</ele>
        <time>2021-05-20T11:56:25.671Z</time>
      </trkpt>
      <trkpt lat="48.7288" lon="2.01618">
        <ele>166</ele>
        <time>2021-05-20T11:56:26.671Z</time>
      </trkpt>
      <trkpt lat="48.7288" lon="2.01617">
        <ele>166</ele>
        <time>2021-05-20T11:56:27.671Z</time>
      </trkpt>
      <trkpt lat="48.72881" lon="2.01616">
        <ele>166</ele>
        <time>2021-05-20T11:56:28.671Z</time>
      </trkpt>
      <trkpt lat="48.72882" lon="2.01616">
        <ele>166</ele>
        <time>2021-05-20T11:56:29.671Z</time>
      </trkpt>
      <trkpt lat="48.72883" lon="2.01616">
        <ele>166</ele>
        <time>2021-05-20T11:56:30.671Z</time>
      </trkpt>
      <trkpt lat="48.72884" lon="2.01615">
        <ele>166</ele>
        <time>2021-05-20T11:56:31.671Z</time>
      </trkpt>
      <trkpt lat="48.72884" lon="2.01614">
        <ele>166</ele>
        <time>2021-05-20T11:56:32.671Z</time>
      </trkpt>
      <trkpt lat="48.72885" lon="2.01613">
        <ele>166</ele>
        <time>2021-05-20T11:56:33.671Z</time>
      </trkpt>
      <trkpt lat="48.72886" lon="2.01612">
        <ele>166</ele>
        <time>2021-05-20T11:56:34.671Z</time>
      </trkpt>
      <trkpt lat="48.72887" lon="2.01611">
        <ele>166</ele>
        <time>2021-05-20T11:56:45.671Z</time>
      </trkpt>
      <trkpt lat="48.72887" lon="2.0161">
        <ele>166</ele>
        <time>2021-05-20T11:56:46.671Z</time>
      </trkpt>
      <trkpt lat="48.72888" lon="2.01609">
        <ele>166</ele>
        <time>2021-05-20T11:56:47.671Z</time>
      </trkpt>
      <trkpt lat="48.72888" lon="2.01609">
        <ele>166</ele>
        <time>2021-05-20T11:57:07.673Z</time>
      </trkpt>
      <trkpt lat="48.72889" lon="2.01608">
        <ele>166</ele>
        <time>2021-05-20T11:57:08.673Z</time>
      </trkpt>
      <trkpt lat="48.7289" lon="2.01607">
        <ele>166</ele>
        <time>2021-05-20T11:57:09.673Z</time>
      </trkpt>
      <trkpt lat="48.72891" lon="2.01606">
        <ele>166</ele>
        <time>2021-05-20T11:57:10.673Z</time>
      </trkpt>
      <trkpt lat="48.72891" lon="2.01605">
        <ele>166</ele>
        <time>2021-05-20T11:57:11.673Z</time>
      </trkpt>
      <trkpt lat="48.72892" lon="2.01604">
        <ele>166</ele>
        <time>2021-05-20T11:57:12.673Z</time>
      </trkpt>
      <trkpt lat="48.72893" lon="2.01603">
        <ele>166</ele>
        <time>2021-05-20T11:57:13.673Z</time>
      </trkpt>
      <trkpt lat="48.72893" lon="2.01602">
        <ele>166</ele>
        <time>2021-05-20T11:57:14.673Z</time>
      </trkpt>
      <trkpt lat="48.72894" lon="2.01602">
        <ele>166</ele>
        <time>2021-05-20T11:57:15.673Z</time>
      </trkpt>
      <trkpt lat="48.72894" lon="2.01601">
        <ele>166</ele>
        <time>2021-05-20T11:57:16.673Z</time>
      </trkpt>
      <trkpt lat="48.72895" lon="2.01601">
        <ele>166</ele>
        <time>2021-05-20T11:57:17.673Z</time>
      </trkpt>
      <trkpt lat="48.72896" lon="2.016">
        <ele>166</ele>
        <time>2021-05-20T11:57:18.673Z</time>
      </trkpt>
      <trkpt lat="48.72897" lon="2.01599">
        <ele>166</ele>
        <time>2021-05-20T11:57:19.673Z</time>
      </trkpt>
      <trkpt lat="48.72897" lon="2.01598">
        <ele>166</ele>
        <time>2021-05-20T11:57:20.673Z</time>
      </trkpt>
      <trkpt lat="48.72898" lon="2.01598">
        <ele>166</ele>
        <time>2021-05-20T11:57:21.673Z</time>
      </trkpt>
      <trkpt lat="48.72898" lon="2.01597">
        <ele>166</ele>
        <time>2021-05-20T11:57:22.673Z</time>
      </trkpt>
      <trkpt lat="48.72899" lon="2.01596">
        <ele>166</ele>
        <time>2021-05-20T11:57:23.673Z</time>
      </trkpt>
      <trkpt lat="48.729" lon="2.01595">
        <ele>166</ele>
        <time>2021-05-20T11:57:24.673Z</time>
      </trkpt>
      <trkpt lat="48.729" lon="2.01595">
        <ele>166</ele>
        <time>2021-05-20T11:57:25.673Z</time>
      </trkpt>
      <trkpt lat="48.72901" lon="2.01594">
        <ele>166</ele>
        <time>2021-05-20T11:57:26.673Z</time>
      </trkpt>
      <trkpt lat="48.72902" lon="2.01593">
        <ele>166</ele>
        <time>2021-05-20T11:57:27.673Z</time>
      </trkpt>
      <trkpt lat="48.72902" lon="2.01592">
        <ele>166</ele>
        <time>2021-05-20T11:57:28.673Z</time>
      </trkpt>
      <trkpt lat="48.72903" lon="2.01592">
        <ele>166</ele>
        <time>2021-05-20T11:57:29.673Z</time>
      </trkpt>
      <trkpt lat="48.72904" lon="2.01591">
        <ele>166</ele>
        <time>2021-05-20T11:57:30.673Z</time>
      </trkpt>
      <trkpt lat="48.72905" lon="2.0159">
        <ele>166</ele>
        <time>2021-05-20T11:57:31.673Z</time>
      </trkpt>
      <trkpt lat="48.72906" lon="2.01589">
        <ele>166</ele>
        <time>2021-05-20T11:57:32.673Z</time>
      </trkpt>
      <trkpt lat="48.72907" lon="2.01588">
        <ele>166</ele>
        <time>2021-05-20T11:57:33.673Z</time>
      </trkpt>
      <trkpt lat="48.72908" lon="2.01587">
        <ele>166</ele>
        <time>2021-05-20T11:57:34.673Z</time>
      </trkpt>
      <trkpt lat="48.72909" lon="2.01586">
        <ele>166</ele>
        <time>2021-05-20T11:57:35.673Z</time>
      </trkpt>
      <trkpt lat="48.7291" lon="2.01585">
        <ele>166</ele>
        <time>2021-05-20T11:57:36.673Z</time>
      </trkpt>
      <trkpt lat="48.72911" lon="2.01584">
        <ele>166</ele>
        <time>2021-05-20T11:57:37.673Z</time>
      </trkpt>
      <trkpt lat="48.72912" lon="2.01584">
        <ele>166</ele>
        <time>2021-05-20T11:57:38.673Z</time>
      </trkpt>
      <trkpt lat="48.72913" lon="2.01583">
        <ele>166</ele>
        <time>2021-05-20T11:57:39.673Z</time>
      </trkpt>
      <trkpt lat="48.72914" lon="2.01582">
        <ele>166</ele>
        <time>2021-05-20T11:57:40.673Z</time>
      </trkpt>
      <trkpt lat="48.72915" lon="2.01581">
        <ele>166</ele>
        <time>2021-05-20T11:57:41.673Z</time>
      </trkpt>
      <trkpt lat="48.72915" lon="2.0158">
        <ele>166</ele>
        <time>2021-05-20T11:57:42.673Z</time>
      </trkpt>
      <trkpt lat="48.72916" lon="2.01579">
        <ele>166</ele>
        <time>2021-05-20T11:57:43.673Z</time>
      </trkpt>
      <trkpt lat="48.72917" lon="2.01578">
        <ele>166</ele>
        <time>2021-05-20T11:57:44.673Z</time>
      </trkpt>
      <trkpt lat="48.72917" lon="2.01577">
        <ele>166</ele>
        <time>2021-05-20T11:57:45.673Z</time>
      </trkpt>
      <trkpt lat="48.72918" lon="2.01576">
        <ele>166</ele>
        <time>2021-05-20T11:57:46.673Z</time>
      </trkpt>
      <trkpt lat="48.72919" lon="2.01576">
        <ele>166</ele>
        <time>2021-05-20T11:57:47.673Z</time>
      </trkpt>
      <trkpt lat="48.7292" lon="2.01575">
        <ele>166</ele>
        <time>2021-05-20T11:57:48.673Z</time>
      </trkpt>
      <trkpt lat="48.7292" lon="2.01574">
        <ele>166</ele>
        <time>2021-05-20T11:57:49.673Z</time>
      </trkpt>
      <trkpt lat="48.72921" lon="2.01573">
        <ele>166</ele>
        <time>2021-05-20T11:57:50.673Z</time>
      </trkpt>
      <trkpt lat="48.72922" lon="2.01572">
        <ele>166</ele>
        <time>2021-05-20T11:57:51.673Z</time>
      </trkpt>
      <trkpt lat="48.72922" lon="2.01571">
        <ele>166</ele>
        <time>2021-05-20T11:57:52.673Z</time>
      </trkpt>
      <trkpt lat="48.72923" lon="2.01571">
        <ele>166</ele>
        <time>2021-05-20T11:57:53.673Z</time>
      </trkpt>
      <trkpt lat="48.72923" lon="2.0157">
        <ele>166</ele>
        <time>2021-05-20T11:57:54.673Z</time>
      </trkpt>
      <trkpt lat="48.72924" lon="2.01569">
        <ele>166</ele>
        <time>2021-05-20T11:57:55.673Z</time>
      </trkpt>
      <trkpt lat="48.72925" lon="2.01568">
        <ele>166</ele>
        <time>2021-05-20T11:57:56.673Z</time>
      </trkpt>
      <trkpt lat="48.72925" lon="2.01567">
        <ele>166</ele>
        <time>2021-05-20T11:57:57.673Z</time>
      </trkpt>
      <trkpt lat="48.72925" lon="2.01567">
        <ele>166</ele>
        <time>2021-05-20T11:57:58.673Z</time>
      </trkpt>
      <trkpt lat="48.72926" lon="2.01567">
        <ele>166</ele>
        <time>2021-05-20T11:57:59.673Z</time>
      </trkpt>
      <trkpt lat="48.72926" lon="2.01566">
        <ele>166</ele>
        <time>2021-05-20T11:58:00.673Z</time>
      </trkpt>
      <trkpt lat="48.72928" lon="2.01563">
        <ele>166</ele>
        <time>2021-05-20T11:58:01.673Z</time>
      </trkpt>
      <trkpt lat="48.72929" lon="2.01562">
        <ele>166</ele>
        <time>2021-05-20T11:58:02.673Z</time>
      </trkpt>
      <trkpt lat="48.72929" lon="2.01561">
        <ele>166</ele>
        <time>2021-05-20T11:58:03.673Z</time>
      </trkpt>
      <trkpt lat="48.7293" lon="2.0156">
        <ele>166</ele>
        <time>2021-05-20T11:58:04.673Z</time>
      </trkpt>
      <trkpt lat="48.7293" lon="2.01559">
        <ele>166</ele>
        <time>2021-05-20T11:58:05.673Z</time>
      </trkpt>
      <trkpt lat="48.72931" lon="2.01558">
        <ele>166</ele>
        <time>2021-05-20T11:58:16.677Z</time>
      </trkpt>
      <trkpt lat="48.72932" lon="2.01557">
        <ele>166</ele>
        <time>2021-05-20T11:58:17.677Z</time>
      </trkpt>
      <trkpt lat="48.72932" lon="2.01556">
        <ele>166</ele>
        <time>2021-05-20T11:58:18.677Z</time>
      </trkpt>
      <trkpt lat="48.72933" lon="2.01555">
        <ele>166</ele>
        <time>2021-05-20T11:58:19.677Z</time>
      </trkpt>
      <trkpt lat="48.72934" lon="2.01554">
        <ele>166</ele>
        <time>2021-05-20T11:58:20.677Z</time>
      </trkpt>
      <trkpt lat="48.72934" lon="2.01553">
        <ele>166</ele>
        <time>2021-05-20T11:58:21.677Z</time>
      </trkpt>
      <trkpt lat="48.72935" lon="2.01552">
        <ele>166</ele>
        <time>2021-05-20T11:58:22.677Z</time>
      </trkpt>
      <trkpt lat="48.72936" lon="2.01551">
        <ele>166</ele>
        <time>2021-05-20T11:58:23.677Z</time>
      </trkpt>
      <trkpt lat="48.72937" lon="2.0155">
        <ele>166</ele>
        <time>2021-05-20T11:58:24.677Z</time>
      </trkpt>
      <trkpt lat="48.72938" lon="2.01549">
        <ele>166</ele>
        <time>2021-05-20T11:58:25.677Z</time>
      </trkpt>
      <trkpt lat="48.72939" lon="2.01548">
        <ele>166</ele>
        <time>2021-05-20T11:58:26.677Z</time>
      </trkpt>
      <trkpt lat="48.7294" lon="2.01547">
        <ele>166</ele>
        <time>2021-05-20T11:58:27.677Z</time>
      </trkpt>
      <trkpt lat="48.72941" lon="2.01547">
        <ele>165</ele>
        <time>2021-05-20T11:58:28.677Z</time>
      </trkpt>
      <trkpt lat="48.72942" lon="2.01546">
        <ele>165</ele>
        <time>2021-05-20T11:58:29.677Z</time>
      </trkpt>
      <trkpt lat="48.72943" lon="2.01545">
        <ele>165</ele>
        <time>2021-05-20T11:58:30.677Z</time>
      </trkpt>
      <trkpt lat="48.72943" lon="2.01544">
        <ele>165</ele>
        <time>2021-05-20T11:58:31.677Z</time>
      </trkpt>
      <trkpt lat="48.72944" lon="2.01543">
        <ele>165</ele>
        <time>2021-05-20T11:58:32.677Z</time>
      </trkpt>
      <trkpt lat="48.72945" lon="2.01542">
        <ele>165</ele>
        <time>2021-05-20T11:58:33.677Z</time>
      </trkpt>
      <trkpt lat="48.72946" lon="2.01541">
        <ele>165</ele>
        <time>2021-05-20T11:58:34.677Z</time>
      </trkpt>
      <trkpt lat="48.72947" lon="2.0154">
        <ele>165</ele>
        <time>2021-05-20T11:58:35.677Z</time>
      </trkpt>
      <trkpt lat="48.72948" lon="2.0154">
        <ele>165</ele>
        <time>2021-05-20T11:58:36.677Z</time>
      </trkpt>
      <trkpt lat="48.72949" lon="2.01538">
        <ele>165</ele>
        <time>2021-05-20T11:58:37.677Z</time>
      </trkpt>
      <trkpt lat="48.72951" lon="2.01537">
        <ele>165</ele>
        <time>2021-05-20T11:58:38.677Z</time>
      </trkpt>
      <trkpt lat="48.72952" lon="2.01536">
        <ele>165</ele>
        <time>2021-05-20T11:58:39.677Z</time>
      </trkpt>
      <trkpt lat="48.72954" lon="2.01535">
        <ele>165</ele>
        <time>2021-05-20T11:58:40.677Z</time>
      </trkpt>
      <trkpt lat="48.72956" lon="2.01534">
        <ele>165</ele>
        <time>2021-05-20T11:58:41.677Z</time>
      </trkpt>
      <trkpt lat="48.72957" lon="2.01533">
        <ele>165</ele>
        <time>2021-05-20T11:58:42.677Z</time>
      </trkpt>
      <trkpt lat="48.72959" lon="2.01531">
        <ele>165</ele>
        <time>2021-05-20T11:58:43.677Z</time>
      </trkpt>
      <trkpt lat="48.72961" lon="2.0153">
        <ele>165</ele>
        <time>2021-05-20T11:58:44.677Z</time>
      </trkpt>
      <trkpt lat="48.72962" lon="2.01529">
        <ele>165</ele>
        <time>2021-05-20T11:58:45.677Z</time>
      </trkpt>
      <trkpt lat="48.72964" lon="2.01527">
        <ele>165</ele>
        <time>2021-05-20T11:58:46.677Z</time>
      </trkpt>
      <trkpt lat="48.72965" lon="2.01526">
        <ele>165</ele>
        <time>2021-05-20T11:58:47.677Z</time>
      </trkpt>
      <trkpt lat="48.72967" lon="2.01524">
        <ele>165</ele>
        <time>2021-05-20T11:58:48.677Z</time>
      </trkpt>
      <trkpt lat="48.72968" lon="2.01524">
        <ele>165</ele>
        <time>2021-05-20T11:58:49.677Z</time>
      </trkpt>
      <trkpt lat="48.72969" lon="2.01522">
        <ele>165</ele>
        <time>2021-05-20T11:58:50.677Z</time>
      </trkpt>
      <trkpt lat="48.72971" lon="2.01521">
        <ele>165</ele>
        <time>2021-05-20T11:58:51.677Z</time>
      </trkpt>
      <trkpt lat="48.72972" lon="2.0152">
        <ele>166</ele>
        <time>2021-05-20T11:58:52.677Z</time>
      </trkpt>
      <trkpt lat="48.72973" lon="2.01519">
        <ele>166</ele>
        <time>2021-05-20T11:58:53.677Z</time>
      </trkpt>
      <trkpt lat="48.72974" lon="2.01518">
        <ele>166</ele>
        <time>2021-05-20T11:59:28.684Z</time>
      </trkpt>
      <trkpt lat="48.72976" lon="2.01517">
        <ele>166</ele>
        <time>2021-05-20T11:59:29.684Z</time>
      </trkpt>
      <trkpt lat="48.72977" lon="2.01515">
        <ele>166</ele>
        <time>2021-05-20T11:59:30.684Z</time>
      </trkpt>
      <trkpt lat="48.72978" lon="2.01514">
        <ele>166</ele>
        <time>2021-05-20T11:59:31.684Z</time>
      </trkpt>
      <trkpt lat="48.72979" lon="2.01513">
        <ele>166</ele>
        <time>2021-05-20T11:59:32.684Z</time>
      </trkpt>
      <trkpt lat="48.7298" lon="2.01512">
        <ele>166</ele>
        <time>2021-05-20T11:59:33.684Z</time>
      </trkpt>
      <trkpt lat="48.72981" lon="2.01511">
        <ele>166</ele>
        <time>2021-05-20T11:59:34.684Z</time>
      </trkpt>
      <trkpt lat="48.72982" lon="2.0151">
        <ele>166</ele>
        <time>2021-05-20T11:59:35.684Z</time>
      </trkpt>
      <trkpt lat="48.72983" lon="2.01509">
        <ele>167</ele>
        <time>2021-05-20T11:59:36.684Z</time>
      </trkpt>
      <trkpt lat="48.72984" lon="2.01508">
        <ele>166</ele>
        <time>2021-05-20T11:59:37.684Z</time>
      </trkpt>
      <trkpt lat="48.72985" lon="2.01507">
        <ele>166</ele>
        <time>2021-05-20T11:59:38.684Z</time>
      </trkpt>
      <trkpt lat="48.72987" lon="2.01506">
        <ele>166</ele>
        <time>2021-05-20T11:59:39.684Z</time>
      </trkpt>
      <trkpt lat="48.72988" lon="2.01504">
        <ele>166</ele>
        <time>2021-05-20T11:59:40.684Z</time>
      </trkpt>
      <trkpt lat="48.7299" lon="2.01502">
        <ele>167</ele>
        <time>2021-05-20T11:59:41.684Z</time>
      </trkpt>
      <trkpt lat="48.72991" lon="2.015">
        <ele>167</ele>
        <time>2021-05-20T11:59:42.684Z</time>
      </trkpt>
      <trkpt lat="48.72993" lon="2.01499">
        <ele>167</ele>
        <time>2021-05-20T11:59:43.684Z</time>
      </trkpt>
      <trkpt lat="48.72994" lon="2.01497">
        <ele>167</ele>
        <time>2021-05-20T11:59:44.684Z</time>
      </trkpt>
      <trkpt lat="48.72995" lon="2.01496">
        <ele>167</ele>
        <time>2021-05-20T11:59:45.684Z</time>
      </trkpt>
      <trkpt lat="48.72997" lon="2.01495">
        <ele>167</ele>
        <time>2021-05-20T11:59:46.684Z</time>
      </trkpt>
      <trkpt lat="48.72997" lon="2.01494">
        <ele>167</ele>
        <time>2021-05-20T11:59:47.684Z</time>
      </trkpt>
      <trkpt lat="48.72998" lon="2.01493">
        <ele>168</ele>
        <time>2021-05-20T11:59:48.684Z</time>
      </trkpt>
      <trkpt lat="48.72999" lon="2.01492">
        <ele>168</ele>
        <time>2021-05-20T11:59:49.684Z</time>
      </trkpt>
      <trkpt lat="48.73" lon="2.01491">
        <ele>168</ele>
        <time>2021-05-20T11:59:50.684Z</time>
      </trkpt>
      <trkpt lat="48.73002" lon="2.0149">
        <ele>168</ele>
        <time>2021-05-20T11:59:51.684Z</time>
      </trkpt>
      <trkpt lat="48.73003" lon="2.01489">
        <ele>168</ele>
        <time>2021-05-20T11:59:52.684Z</time>
      </trkpt>
      <trkpt lat="48.73004" lon="2.01488">
        <ele>169</ele>
        <time>2021-05-20T11:59:53.684Z</time>
      </trkpt>
      <trkpt lat="48.73004" lon="2.01487">
        <ele>169</ele>
        <time>2021-05-20T11:59:54.684Z</time>
      </trkpt>
      <trkpt lat="48.73005" lon="2.01486">
        <ele>169</ele>
        <time>2021-05-20T11:59:55.684Z</time>
      </trkpt>
      <trkpt lat="48.73006" lon="2.01485">
        <ele>169</ele>
        <time>2021-05-20T11:59:56.684Z</time>
      </trkpt>
      <trkpt lat="48.73007" lon="2.01484">
        <ele>169</ele>
        <time>2021-05-20T11:59:57.684Z</time>
      </trkpt>
      <trkpt lat="48.73008" lon="2.01484">
        <ele>170</ele>
        <time>2021-05-20T11:59:58.684Z</time>
      </trkpt>
      <trkpt lat="48.73009" lon="2.01483">
        <ele>170</ele>
        <time>2021-05-20T11:59:59.684Z</time>
      </trkpt>
      <trkpt lat="48.7301" lon="2.01482">
        <ele>170</ele>
        <time>2021-05-20T12:00:00.684Z</time>
      </trkpt>
      <trkpt lat="48.73011" lon="2.01481">
        <ele>170</ele>
        <time>2021-05-20T12:00:01.684Z</time>
      </trkpt>
      <trkpt lat="48.73012" lon="2.0148">
        <ele>171</ele>
        <time>2021-05-20T12:00:02.684Z</time>
      </trkpt>
      <trkpt lat="48.73012" lon="2.0148">
        <ele>171</ele>
        <time>2021-05-20T12:00:03.684Z</time>
      </trkpt>
      <trkpt lat="48.73013" lon="2.01479">
        <ele>171</ele>
        <time>2021-05-20T12:00:04.684Z</time>
      </trkpt>
      <trkpt lat="48.73014" lon="2.01478">
        <ele>172</ele>
        <time>2021-05-20T12:00:05.684Z</time>
      </trkpt>
      <trkpt lat="48.73015" lon="2.01476">
        <ele>172</ele>
        <time>2021-05-20T12:00:06.684Z</time>
      </trkpt>
      <trkpt lat="48.73016" lon="2.01475">
        <ele>172</ele>
        <time>2021-05-20T12:00:07.684Z</time>
      </trkpt>
      <trkpt lat="48.73016" lon="2.01474">
        <ele>172</ele>
        <time>2021-05-20T12:00:08.684Z</time>
      </trkpt>
      <trkpt lat="48.73017" lon="2.01474">
        <ele>172</ele>
        <time>2021-05-20T12:00:32.696Z</time>
      </trkpt>
      <trkpt lat="48.73018" lon="2.01473">
        <ele>173</ele>
        <time>2021-05-20T12:00:33.696Z</time>
      </trkpt>
      <trkpt lat="48.73019" lon="2.01472">
        <ele>173</ele>
        <time>2021-05-20T12:00:34.696Z</time>
      </trkpt>
      <trkpt lat="48.7302" lon="2.01471">
        <ele>173</ele>
        <time>2021-05-20T12:00:35.696Z</time>
      </trkpt>
      <trkpt lat="48.73021" lon="2.0147">
        <ele>173</ele>
        <time>2021-05-20T12:00:36.696Z</time>
      </trkpt>
      <trkpt lat="48.73022" lon="2.01469">
        <ele>173</ele>
        <time>2021-05-20T12:00:37.696Z</time>
      </trkpt>
      <trkpt lat="48.73024" lon="2.01468">
        <ele>173</ele>
        <time>2021-05-20T12:00:38.696Z</time>
      </trkpt>
      <trkpt lat="48.73025" lon="2.01467">
        <ele>173</ele>
        <time>2021-05-20T12:00:39.696Z</time>
      </trkpt>
      <trkpt lat="48.73026" lon="2.01466">
        <ele>173</ele>
        <time>2021-05-20T12:00:40.696Z</time>
      </trkpt>
      <trkpt lat="48.73027" lon="2.01464">
        <ele>173</ele>
        <time>2021-05-20T12:00:41.696Z</time>
      </trkpt>
      <trkpt lat="48.73027" lon="2.01463">
        <ele>173</ele>
        <time>2021-05-20T12:00:42.696Z</time>
      </trkpt>
      <trkpt lat="48.73028" lon="2.01462">
        <ele>173</ele>
        <time>2021-05-20T12:00:43.696Z</time>
      </trkpt>
      <trkpt lat="48.73029" lon="2.01461">
        <ele>173</ele>
        <time>2021-05-20T12:00:44.696Z</time>
      </trkpt>
      <trkpt lat="48.7303" lon="2.01459">
        <ele>174</ele>
        <time>2021-05-20T12:00:45.696Z</time>
      </trkpt>
      <trkpt lat="48.73032" lon="2.01458">
        <ele>174</ele>
        <time>2021-05-20T12:00:46.696Z</time>
      </trkpt>
      <trkpt lat="48.73032" lon="2.01457">
        <ele>174</ele>
        <time>2021-05-20T12:00:47.696Z</time>
      </trkpt>
      <trkpt lat="48.73033" lon="2.01456">
        <ele>174</ele>
        <time>2021-05-20T12:00:48.696Z</time>
      </trkpt>
      <trkpt lat="48.73034" lon="2.01455">
        <ele>174</ele>
        <time>2021-05-20T12:00:49.696Z</time>
      </trkpt>
      <trkpt lat="48.73035" lon="2.01454">
        <ele>174</ele>
        <time>2021-05-20T12:00:50.696Z</time>
      </trkpt>
      <trkpt lat="48.73036" lon="2.01453">
        <ele>174</ele>
        <time>2021-05-20T12:00:51.696Z</time>
      </trkpt>
      <trkpt lat="48.73037" lon="2.01452">
        <ele>174</ele>
        <time>2021-05-20T12:00:52.696Z</time>
      </trkpt>
      <trkpt lat="48.73038" lon="2.01451">
        <ele>174</ele>
        <time>2021-05-20T12:00:53.696Z</time>
      </trkpt>
      <trkpt lat="48.73039" lon="2.0145">
        <ele>174</ele>
        <time>2021-05-20T12:00:54.696Z</time>
      </trkpt>
      <trkpt lat="48.7304" lon="2.01449">
        <ele>174</ele>
        <time>2021-05-20T12:00:55.696Z</time>
      </trkpt>
      <trkpt lat="48.73041" lon="2.01448">
        <ele>174</ele>
        <time>2021-05-20T12:00:56.696Z</time>
      </trkpt>
      <trkpt lat="48.73042" lon="2.01447">
        <ele>174</ele>
        <time>2021-05-20T12:00:57.696Z</time>
      </trkpt>
      <trkpt lat="48.73043" lon="2.01446">
        <ele>174</ele>
        <time>2021-05-20T12:00:58.696Z</time>
      </trkpt>
      <trkpt lat="48.73043" lon="2.01445">
        <ele>174</ele>
        <time>2021-05-20T12:00:59.696Z</time>
      </trkpt>
      <trkpt lat="48.73044" lon="2.01443">
        <ele>174</ele>
        <time>2021-05-20T12:01:00.696Z</time>
      </trkpt>
      <trkpt lat="48.73045" lon="2.01442">
        <ele>174</ele>
        <time>2021-05-20T12:01:01.696Z</time>
      </trkpt>
      <trkpt lat="48.73045" lon="2.01441">
        <ele>174</ele>
        <time>2021-05-20T12:01:02.696Z</time>
      </trkpt>
      <trkpt lat="48.73046" lon="2.0144">
        <ele>174</ele>
        <time>2021-05-20T12:01:03.696Z</time>
      </trkpt>
      <trkpt lat="48.73047" lon="2.01438">
        <ele>174</ele>
        <time>2021-05-20T12:01:04.696Z</time>
      </trkpt>
      <trkpt lat="48.73048" lon="2.01437">
        <ele>174</ele>
        <time>2021-05-20T12:01:05.696Z</time>
      </trkpt>
      <trkpt lat="48.73048" lon="2.01436">
        <ele>174</ele>
        <time>2021-05-20T12:01:06.696Z</time>
      </trkpt>
      <trkpt lat="48.73049" lon="2.01435">
        <ele>174</ele>
        <time>2021-05-20T12:01:07.696Z</time>
      </trkpt>
      <trkpt lat="48.7305" lon="2.01434">
        <ele>174</ele>
        <time>2021-05-20T12:01:08.696Z</time>
      </trkpt>
      <trkpt lat="48.73051" lon="2.01433">
        <ele>174</ele>
        <time>2021-05-20T12:01:09.696Z</time>
      </trkpt>
      <trkpt lat="48.73052" lon="2.01432">
        <ele>174</ele>
        <time>2021-05-20T12:01:10.696Z</time>
      </trkpt>
      <trkpt lat="48.73052" lon="2.01431">
        <ele>174</ele>
        <time>2021-05-20T12:01:11.696Z</time>
      </trkpt>
      <trkpt lat="48.73053" lon="2.0143">
        <ele>174</ele>
        <time>2021-05-20T12:01:22.710Z</time>
      </trkpt>
      <trkpt lat="48.73054" lon="2.01429">
        <ele>174</ele>
        <time>2021-05-20T12:01:23.710Z</time>
      </trkpt>
      <trkpt lat="48.73054" lon="2.01428">
        <ele>174</ele>
        <time>2021-05-20T12:01:24.710Z</time>
      </trkpt>
      <trkpt lat="48.73055" lon="2.01427">
        <ele>174</ele>
        <time>2021-05-20T12:01:28.720Z</time>
      </trkpt>
      <trkpt lat="48.73056" lon="2.01426">
        <ele>174</ele>
        <time>2021-05-20T12:01:29.720Z</time>
      </trkpt>
      <trkpt lat="48.73057" lon="2.01425">
        <ele>174</ele>
        <time>2021-05-20T12:01:30.720Z</time>
      </trkpt>
      <trkpt lat="48.73058" lon="2.01424">
        <ele>173</ele>
        <time>2021-05-20T12:01:31.720Z</time>
      </trkpt>
      <trkpt lat="48.73059" lon="2.01423">
        <ele>173</ele>
        <time>2021-05-20T12:01:32.720Z</time>
      </trkpt>
      <trkpt lat="48.7306" lon="2.01421">
        <ele>173</ele>
        <time>2021-05-20T12:01:33.720Z</time>
      </trkpt>
      <trkpt lat="48.73061" lon="2.0142">
        <ele>173</ele>
        <time>2021-05-20T12:01:34.720Z</time>
      </trkpt>
      <trkpt lat="48.73062" lon="2.01419">
        <ele>173</ele>
        <time>2021-05-20T12:01:35.720Z</time>
      </trkpt>
      <trkpt lat="48.73064" lon="2.01417">
        <ele>173</ele>
        <time>2021-05-20T12:01:36.720Z</time>
      </trkpt>
      <trkpt lat="48.73065" lon="2.01416">
        <ele>173</ele>
        <time>2021-05-20T12:01:37.720Z</time>
      </trkpt>
      <trkpt lat="48.73066" lon="2.01414">
        <ele>173</ele>
        <time>2021-05-20T12:01:38.720Z</time>
      </trkpt>
      <trkpt lat="48.73068" lon="2.01413">
        <ele>173</ele>
        <time>2021-05-20T12:01:39.720Z</time>
      </trkpt>
      <trkpt lat="48.73069" lon="2.01411">
        <ele>172</ele>
        <time>2021-05-20T12:01:40.720Z</time>
      </trkpt>
      <trkpt lat="48.73071" lon="2.01409">
        <ele>172</ele>
        <time>2021-05-20T12:01:46.731Z</time>
      </trkpt>
      <trkpt lat="48.73072" lon="2.01408">
        <ele>172</ele>
        <time>2021-05-20T12:01:47.731Z</time>
      </trkpt>
      <trkpt lat="48.73073" lon="2.01407">
        <ele>172</ele>
        <time>2021-05-20T12:01:48.731Z</time>
      </trkpt>
      <trkpt lat="48.73074" lon="2.01405">
        <ele>172</ele>
        <time>2021-05-20T12:01:49.731Z</time>
      </trkpt>
      <trkpt lat="48.73075" lon="2.01404">
        <ele>171</ele>
        <time>2021-05-20T12:01:50.731Z</time>
      </trkpt>
      <trkpt lat="48.73076" lon="2.01403">
        <ele>171</ele>
        <time>2021-05-20T12:01:51.731Z</time>
      </trkpt>
      <trkpt lat="48.73078" lon="2.01402">
        <ele>171</ele>
        <time>2021-05-20T12:01:52.731Z</time>
      </trkpt>
      <trkpt lat="48.73079" lon="2.01401">
        <ele>171</ele>
        <time>2021-05-20T12:01:53.731Z</time>
      </trkpt>
      <trkpt lat="48.73079" lon="2.014">
        <ele>171</ele>
        <time>2021-05-20T12:01:54.731Z</time>
      </trkpt>
      <trkpt lat="48.7308" lon="2.014">
        <ele>171</ele>
        <time>2021-05-20T12:01:55.731Z</time>
      </trkpt>
      <trkpt lat="48.73082" lon="2.014">
        <ele>171</ele>
        <time>2021-05-20T12:01:56.731Z</time>
      </trkpt>
      <trkpt lat="48.73083" lon="2.014">
        <ele>171</ele>
        <time>2021-05-20T12:01:57.731Z</time>
      </trkpt>
      <trkpt lat="48.73083" lon="2.01401">
        <ele>171</ele>
        <time>2021-05-20T12:01:58.731Z</time>
      </trkpt>
      <trkpt lat="48.73084" lon="2.014">
        <ele>171</ele>
        <time>2021-05-20T12:01:59.731Z</time>
      </trkpt>
      <trkpt lat="48.73085" lon="2.014">
        <ele>171</ele>
        <time>2021-05-20T12:02:00.731Z</time>
      </trkpt>
      <trkpt lat="48.73086" lon="2.014">
        <ele>171</ele>
        <time>2021-05-20T12:02:01.731Z</time>
      </trkpt>
      <trkpt lat="48.73087" lon="2.014">
        <ele>171</ele>
        <time>2021-05-20T12:02:02.731Z</time>
      </trkpt>
      <trkpt lat="48.73088" lon="2.014">
        <ele>171</ele>
        <time>2021-05-20T12:02:03.731Z</time>
      </trkpt>
      <trkpt lat="48.73098" lon="2.01404">
        <ele>175</ele>
        <time>2021-05-20T12:02:04.731Z</time>
      </trkpt>
      <trkpt lat="48.73099" lon="2.01405">
        <ele>175</ele>
        <time>2021-05-20T12:02:05.731Z</time>
      </trkpt>
      <trkpt lat="48.73099" lon="2.01406">
        <ele>175</ele>
        <time>2021-05-20T12:02:06.731Z</time>
      </trkpt>
      <trkpt lat="48.73099" lon="2.01406">
        <ele>175</ele>
        <time>2021-05-20T12:02:07.731Z</time>
      </trkpt>
      <trkpt lat="48.73099" lon="2.01407">
        <ele>175</ele>
        <time>2021-05-20T12:02:08.731Z</time>
      </trkpt>
      <trkpt lat="48.73099" lon="2.01408">
        <ele>175</ele>
        <time>2021-05-20T12:02:17.741Z</time>
      </trkpt>
      <trkpt lat="48.73099" lon="2.01409">
        <ele>176</ele>
        <time>2021-05-20T12:02:18.741Z</time>
      </trkpt>
      <trkpt lat="48.731" lon="2.0141">
        <ele>176</ele>
        <time>2021-05-20T12:02:22.148Z</time>
      </trkpt>
      <trkpt lat="48.731" lon="2.01411">
        <ele>176</ele>
        <time>2021-05-20T12:02:23.148Z</time>
      </trkpt>
      <trkpt lat="48.731" lon="2.01411">
        <ele>176</ele>
        <time>2021-05-20T12:02:24.148Z</time>
      </trkpt>
      <trkpt lat="48.73101" lon="2.01412">
        <ele>176</ele>
        <time>2021-05-20T12:02:25.148Z</time>
      </trkpt>
      <trkpt lat="48.73101" lon="2.01412">
        <ele>176</ele>
        <time>2021-05-20T12:02:26.148Z</time>
      </trkpt>
      <trkpt lat="48.73102" lon="2.01413">
        <ele>176</ele>
        <time>2021-05-20T12:02:27.148Z</time>
      </trkpt>
      <trkpt lat="48.73103" lon="2.01413">
        <ele>176</ele>
        <time>2021-05-20T12:02:28.148Z</time>
      </trkpt>
      <trkpt lat="48.73104" lon="2.01413">
        <ele>176</ele>
        <time>2021-05-20T12:02:29.148Z</time>
      </trkpt>
      <trkpt lat="48.73105" lon="2.01413">
        <ele>176</ele>
        <time>2021-05-20T12:02:30.148Z</time>
      </trkpt>
      <trkpt lat="48.73105" lon="2.01413">
        <ele>176</ele>
        <time>2021-05-20T12:02:31.148Z</time>
      </trkpt>
      <trkpt lat="48.73107" lon="2.01414">
        <ele>176</ele>
        <time>2021-05-20T12:02:32.148Z</time>
      </trkpt>
      <trkpt lat="48.73108" lon="2.01414">
        <ele>176</ele>
        <time>2021-05-20T12:02:33.148Z</time>
      </trkpt>
      <trkpt lat="48.73109" lon="2.01415">
        <ele>176</ele>
        <time>2021-05-20T12:02:34.148Z</time>
      </trkpt>
      <trkpt lat="48.73109" lon="2.01416">
        <ele>176</ele>
        <time>2021-05-20T12:02:35.148Z</time>
      </trkpt>
      <trkpt lat="48.7311" lon="2.01418">
        <ele>176</ele>
        <time>2021-05-20T12:02:36.148Z</time>
      </trkpt>
      <trkpt lat="48.73111" lon="2.01419">
        <ele>176</ele>
        <time>2021-05-20T12:02:37.148Z</time>
      </trkpt>
      <trkpt lat="48.73111" lon="2.01421">
        <ele>176</ele>
        <time>2021-05-20T12:02:38.148Z</time>
      </trkpt>
      <trkpt lat="48.73111" lon="2.01423">
        <ele>176</ele>
        <time>2021-05-20T12:02:39.148Z</time>
      </trkpt>
      <trkpt lat="48.73112" lon="2.01425">
        <ele>176</ele>
        <time>2021-05-20T12:02:40.148Z</time>
      </trkpt>
      <trkpt lat="48.73112" lon="2.01427">
        <ele>176</ele>
        <time>2021-05-20T12:02:41.148Z</time>
      </trkpt>
      <trkpt lat="48.73113" lon="2.01429">
        <ele>176</ele>
        <time>2021-05-20T12:02:42.148Z</time>
      </trkpt>
      <trkpt lat="48.73114" lon="2.01431">
        <ele>176</ele>
        <time>2021-05-20T12:02:43.148Z</time>
      </trkpt>
      <trkpt lat="48.73114" lon="2.01433">
        <ele>176</ele>
        <time>2021-05-20T12:02:44.148Z</time>
      </trkpt>
      <trkpt lat="48.73115" lon="2.01435">
        <ele>176</ele>
        <time>2021-05-20T12:02:45.148Z</time>
      </trkpt>
      <trkpt lat="48.73116" lon="2.01437">
        <ele>176</ele>
        <time>2021-05-20T12:02:46.148Z</time>
      </trkpt>
      <trkpt lat="48.73116" lon="2.01439">
        <ele>176</ele>
        <time>2021-05-20T12:02:47.148Z</time>
      </trkpt>
      <trkpt lat="48.73116" lon="2.01441">
        <ele>176</ele>
        <time>2021-05-20T12:02:48.148Z</time>
      </trkpt>
      <trkpt lat="48.73117" lon="2.01443">
        <ele>175</ele>
        <time>2021-05-20T12:02:49.148Z</time>
      </trkpt>
      <trkpt lat="48.73117" lon="2.01445">
        <ele>175</ele>
        <time>2021-05-20T12:02:50.148Z</time>
      </trkpt>
      <trkpt lat="48.73118" lon="2.01448">
        <ele>175</ele>
        <time>2021-05-20T12:02:51.148Z</time>
      </trkpt>
      <trkpt lat="48.73118" lon="2.01449">
        <ele>175</ele>
        <time>2021-05-20T12:02:52.148Z</time>
      </trkpt>
      <trkpt lat="48.73119" lon="2.01451">
        <ele>175</ele>
        <time>2021-05-20T12:02:53.148Z</time>
      </trkpt>
      <trkpt lat="48.7312" lon="2.01453">
        <ele>174</ele>
        <time>2021-05-20T12:02:54.148Z</time>
      </trkpt>
      <trkpt lat="48.7312" lon="2.01454">
        <ele>174</ele>
        <time>2021-05-20T12:02:55.148Z</time>
      </trkpt>
      <trkpt lat="48.73121" lon="2.01456">
        <ele>174</ele>
        <time>2021-05-20T12:02:56.148Z</time>
      </trkpt>
      <trkpt lat="48.73121" lon="2.01457">
        <ele>173</ele>
        <time>2021-05-20T12:02:57.148Z</time>
      </trkpt>
      <trkpt lat="48.73121" lon="2.01459">
        <ele>173</ele>
        <time>2021-05-20T12:02:58.148Z</time>
      </trkpt>
      <trkpt lat="48.73121" lon="2.01461">
        <ele>172</ele>
        <time>2021-05-20T12:02:59.148Z</time>
      </trkpt>
      <trkpt lat="48.73121" lon="2.01463">
        <ele>172</ele>
        <time>2021-05-20T12:03:00.148Z</time>
      </trkpt>
      <trkpt lat="48.73122" lon="2.01465">
        <ele>172</ele>
        <time>2021-05-20T12:03:01.148Z</time>
      </trkpt>
      <trkpt lat="48.73122" lon="2.01466">
        <ele>171</ele>
        <time>2021-05-20T12:03:02.148Z</time>
      </trkpt>
      <trkpt lat="48.73122" lon="2.01468">
        <ele>171</ele>
        <time>2021-05-20T12:03:03.148Z</time>
      </trkpt>
      <trkpt lat="48.73122" lon="2.01469">
        <ele>171</ele>
        <time>2021-05-20T12:03:04.148Z</time>
      </trkpt>
      <trkpt lat="48.73122" lon="2.01471">
        <ele>170</ele>
        <time>2021-05-20T12:03:05.148Z</time>
      </trkpt>
      <trkpt lat="48.73123" lon="2.01473">
        <ele>170</ele>
        <time>2021-05-20T12:03:06.148Z</time>
      </trkpt>
      <trkpt lat="48.73123" lon="2.01475">
        <ele>170</ele>
        <time>2021-05-20T12:03:07.148Z</time>
      </trkpt>
      <trkpt lat="48.73123" lon="2.01476">
        <ele>169</ele>
        <time>2021-05-20T12:03:08.148Z</time>
      </trkpt>
      <trkpt lat="48.73124" lon="2.01477">
        <ele>169</ele>
        <time>2021-05-20T12:03:09.148Z</time>
      </trkpt>
      <trkpt lat="48.73124" lon="2.01479">
        <ele>169</ele>
        <time>2021-05-20T12:03:10.148Z</time>
      </trkpt>
      <trkpt lat="48.73125" lon="2.0148">
        <ele>169</ele>
        <time>2021-05-20T12:03:11.148Z</time>
      </trkpt>
      <trkpt lat="48.73125" lon="2.01481">
        <ele>169</ele>
        <time>2021-05-20T12:03:12.148Z</time>
      </trkpt>
      <trkpt lat="48.73125" lon="2.01483">
        <ele>169</ele>
        <time>2021-05-20T12:03:13.148Z</time>
      </trkpt>
      <trkpt lat="48.73126" lon="2.01484">
        <ele>168</ele>
        <time>2021-05-20T12:03:14.148Z</time>
      </trkpt>
      <trkpt lat="48.73126" lon="2.01486">
        <ele>168</ele>
        <time>2021-05-20T12:03:15.148Z</time>
      </trkpt>
      <trkpt lat="48.73127" lon="2.01487">
        <ele>168</ele>
        <time>2021-05-20T12:03:16.148Z</time>
      </trkpt>
      <trkpt lat="48.73128" lon="2.01489">
        <ele>168</ele>
        <time>2021-05-20T12:03:17.148Z</time>
      </trkpt>
      <trkpt lat="48.73128" lon="2.0149">
        <ele>168</ele>
        <time>2021-05-20T12:03:18.148Z</time>
      </trkpt>
      <trkpt lat="48.73129" lon="2.01491">
        <ele>168</ele>
        <time>2021-05-20T12:03:19.148Z</time>
      </trkpt>
      <trkpt lat="48.73129" lon="2.01493">
        <ele>168</ele>
        <time>2021-05-20T12:03:27.144Z</time>
      </trkpt>
      <trkpt lat="48.7313" lon="2.01495">
        <ele>168</ele>
        <time>2021-05-20T12:03:28.144Z</time>
      </trkpt>
      <trkpt lat="48.73131" lon="2.01496">
        <ele>168</ele>
        <time>2021-05-20T12:03:29.144Z</time>
      </trkpt>
      <trkpt lat="48.73131" lon="2.01498">
        <ele>168</ele>
        <time>2021-05-20T12:03:30.144Z</time>
      </trkpt>
      <trkpt lat="48.73131" lon="2.015">
        <ele>167</ele>
        <time>2021-05-20T12:03:31.144Z</time>
      </trkpt>
      <trkpt lat="48.73132" lon="2.01501">
        <ele>167</ele>
        <time>2021-05-20T12:03:32.144Z</time>
      </trkpt>
      <trkpt lat="48.73132" lon="2.01502">
        <ele>167</ele>
        <time>2021-05-20T12:03:33.144Z</time>
      </trkpt>
      <trkpt lat="48.73132" lon="2.01503">
        <ele>167</ele>
        <time>2021-05-20T12:03:34.144Z</time>
      </trkpt>
      <trkpt lat="48.73133" lon="2.01505">
        <ele>167</ele>
        <time>2021-05-20T12:03:35.144Z</time>
      </trkpt>
      <trkpt lat="48.73134" lon="2.01506">
        <ele>166</ele>
        <time>2021-05-20T12:03:36.144Z</time>
      </trkpt>
      <trkpt lat="48.73134" lon="2.01508">
        <ele>166</ele>
        <time>2021-05-20T12:03:37.144Z</time>
      </trkpt>
      <trkpt lat="48.73135" lon="2.01509">
        <ele>166</ele>
        <time>2021-05-20T12:03:38.144Z</time>
      </trkpt>
      <trkpt lat="48.73135" lon="2.01511">
        <ele>166</ele>
        <time>2021-05-20T12:03:39.144Z</time>
      </trkpt>
      <trkpt lat="48.73135" lon="2.01513">
        <ele>165</ele>
        <time>2021-05-20T12:03:40.144Z</time>
      </trkpt>
      <trkpt lat="48.73136" lon="2.01514">
        <ele>165</ele>
        <time>2021-05-20T12:03:41.144Z</time>
      </trkpt>
      <trkpt lat="48.73136" lon="2.01516">
        <ele>165</ele>
        <time>2021-05-20T12:03:42.144Z</time>
      </trkpt>
      <trkpt lat="48.73137" lon="2.01517">
        <ele>165</ele>
        <time>2021-05-20T12:03:43.144Z</time>
      </trkpt>
      <trkpt lat="48.73138" lon="2.01519">
        <ele>165</ele>
        <time>2021-05-20T12:03:44.144Z</time>
      </trkpt>
      <trkpt lat="48.73138" lon="2.0152">
        <ele>164</ele>
        <time>2021-05-20T12:03:45.144Z</time>
      </trkpt>
      <trkpt lat="48.73139" lon="2.01522">
        <ele>164</ele>
        <time>2021-05-20T12:03:46.144Z</time>
      </trkpt>
      <trkpt lat="48.73139" lon="2.01523">
        <ele>164</ele>
        <time>2021-05-20T12:03:47.144Z</time>
      </trkpt>
      <trkpt lat="48.7314" lon="2.01524">
        <ele>164</ele>
        <time>2021-05-20T12:03:48.144Z</time>
      </trkpt>
      <trkpt lat="48.7314" lon="2.01524">
        <ele>164</ele>
        <time>2021-05-20T12:03:49.144Z</time>
      </trkpt>
      <trkpt lat="48.7314" lon="2.01525">
        <ele>164</ele>
        <time>2021-05-20T12:03:50.144Z</time>
      </trkpt>
      <trkpt lat="48.7314" lon="2.01526">
        <ele>164</ele>
        <time>2021-05-20T12:03:51.144Z</time>
      </trkpt>
      <trkpt lat="48.73141" lon="2.01527">
        <ele>164</ele>
        <time>2021-05-20T12:03:52.144Z</time>
      </trkpt>
      <trkpt lat="48.73142" lon="2.01528">
        <ele>164</ele>
        <time>2021-05-20T12:03:53.144Z</time>
      </trkpt>
      <trkpt lat="48.73142" lon="2.01529">
        <ele>164</ele>
        <time>2021-05-20T12:03:54.144Z</time>
      </trkpt>
      <trkpt lat="48.73143" lon="2.01531">
        <ele>164</ele>
        <time>2021-05-20T12:03:55.144Z</time>
      </trkpt>
      <trkpt lat="48.73143" lon="2.01531">
        <ele>164</ele>
        <time>2021-05-20T12:03:56.144Z</time>
      </trkpt>
      <trkpt lat="48.73144" lon="2.01533">
        <ele>164</ele>
        <time>2021-05-20T12:03:57.144Z</time>
      </trkpt>
      <trkpt lat="48.73145" lon="2.01534">
        <ele>163</ele>
        <time>2021-05-20T12:03:58.144Z</time>
      </trkpt>
      <trkpt lat="48.73145" lon="2.01536">
        <ele>163</ele>
        <time>2021-05-20T12:03:59.144Z</time>
      </trkpt>
      <trkpt lat="48.73145" lon="2.01537">
        <ele>163</ele>
        <time>2021-05-20T12:04:00.144Z</time>
      </trkpt>
      <trkpt lat="48.73146" lon="2.01538">
        <ele>163</ele>
        <time>2021-05-20T12:04:01.144Z</time>
      </trkpt>
      <trkpt lat="48.73146" lon="2.01539">
        <ele>163</ele>
        <time>2021-05-20T12:04:02.144Z</time>
      </trkpt>
      <trkpt lat="48.73147" lon="2.0154">
        <ele>163</ele>
        <time>2021-05-20T12:04:03.144Z</time>
      </trkpt>
      <trkpt lat="48.73148" lon="2.01541">
        <ele>163</ele>
        <time>2021-05-20T12:04:04.144Z</time>
      </trkpt>
      <trkpt lat="48.73149" lon="2.01542">
        <ele>163</ele>
        <time>2021-05-20T12:04:05.144Z</time>
      </trkpt>
      <trkpt lat="48.73149" lon="2.01543">
        <ele>163</ele>
        <time>2021-05-20T12:04:06.144Z</time>
      </trkpt>
      <trkpt lat="48.7315" lon="2.01544">
        <ele>162</ele>
        <time>2021-05-20T12:04:07.144Z</time>
      </trkpt>
      <trkpt lat="48.7315" lon="2.01546">
        <ele>162</ele>
        <time>2021-05-20T12:04:08.144Z</time>
      </trkpt>
      <trkpt lat="48.73151" lon="2.01547">
        <ele>162</ele>
        <time>2021-05-20T12:04:09.144Z</time>
      </trkpt>
      <trkpt lat="48.73152" lon="2.01549">
        <ele>162</ele>
        <time>2021-05-20T12:04:10.144Z</time>
      </trkpt>
      <trkpt lat="48.73153" lon="2.0155">
        <ele>161</ele>
        <time>2021-05-20T12:04:11.144Z</time>
      </trkpt>
      <trkpt lat="48.73153" lon="2.0155">
        <ele>161</ele>
        <time>2021-05-20T12:04:12.144Z</time>
      </trkpt>
      <trkpt lat="48.73154" lon="2.01552">
        <ele>161</ele>
        <time>2021-05-20T12:04:13.144Z</time>
      </trkpt>
      <trkpt lat="48.73154" lon="2.01553">
        <ele>160</ele>
        <time>2021-05-20T12:04:14.144Z</time>
      </trkpt>
      <trkpt lat="48.73155" lon="2.01554">
        <ele>160</ele>
        <time>2021-05-20T12:04:15.144Z</time>
      </trkpt>
      <trkpt lat="48.73155" lon="2.01555">
        <ele>160</ele>
        <time>2021-05-20T12:04:16.144Z</time>
      </trkpt>
      <trkpt lat="48.73156" lon="2.01556">
        <ele>159</ele>
        <time>2021-05-20T12:04:17.144Z</time>
      </trkpt>
      <trkpt lat="48.73157" lon="2.01557">
        <ele>159</ele>
        <time>2021-05-20T12:04:18.144Z</time>
      </trkpt>
      <trkpt lat="48.73157" lon="2.01558">
        <ele>158</ele>
        <time>2021-05-20T12:04:19.144Z</time>
      </trkpt>
      <trkpt lat="48.73158" lon="2.01559">
        <ele>158</ele>
        <time>2021-05-20T12:04:20.144Z</time>
      </trkpt>
      <trkpt lat="48.73159" lon="2.0156">
        <ele>158</ele>
        <time>2021-05-20T12:04:21.144Z</time>
      </trkpt>
      <trkpt lat="48.73159" lon="2.01561">
        <ele>157</ele>
        <time>2021-05-20T12:04:22.144Z</time>
      </trkpt>
      <trkpt lat="48.7316" lon="2.01563">
        <ele>157</ele>
        <time>2021-05-20T12:04:39.157Z</time>
      </trkpt>
      <trkpt lat="48.7316" lon="2.01564">
        <ele>156</ele>
        <time>2021-05-20T12:04:40.157Z</time>
      </trkpt>
      <trkpt lat="48.73161" lon="2.01565">
        <ele>156</ele>
        <time>2021-05-20T12:04:41.157Z</time>
      </trkpt>
      <trkpt lat="48.73161" lon="2.01566">
        <ele>155</ele>
        <time>2021-05-20T12:04:42.157Z</time>
      </trkpt>
      <trkpt lat="48.73162" lon="2.01567">
        <ele>155</ele>
        <time>2021-05-20T12:04:43.157Z</time>
      </trkpt>
      <trkpt lat="48.73162" lon="2.01568">
        <ele>155</ele>
        <time>2021-05-20T12:04:49.172Z</time>
      </trkpt>
      <trkpt lat="48.73163" lon="2.0157">
        <ele>154</ele>
        <time>2021-05-20T12:04:50.172Z</time>
      </trkpt>
      <trkpt lat="48.73163" lon="2.01571">
        <ele>154</ele>
        <time>2021-05-20T12:04:51.172Z</time>
      </trkpt>
      <trkpt lat="48.73164" lon="2.01572">
        <ele>154</ele>
        <time>2021-05-20T12:04:52.172Z</time>
      </trkpt>
      <trkpt lat="48.73164" lon="2.01574">
        <ele>153</ele>
        <time>2021-05-20T12:04:53.172Z</time>
      </trkpt>
      <trkpt lat="48.73165" lon="2.01575">
        <ele>153</ele>
        <time>2021-05-20T12:04:54.172Z</time>
      </trkpt>
      <trkpt lat="48.73166" lon="2.01577">
        <ele>153</ele>
        <time>2021-05-20T12:04:55.172Z</time>
      </trkpt>
      <trkpt lat="48.73166" lon="2.01578">
        <ele>152</ele>
        <time>2021-05-20T12:04:56.172Z</time>
      </trkpt>
      <trkpt lat="48.73167" lon="2.01579">
        <ele>152</ele>
        <time>2021-05-20T12:04:57.172Z</time>
      </trkpt>
      <trkpt lat="48.73167" lon="2.0158">
        <ele>152</ele>
        <time>2021-05-20T12:04:58.172Z</time>
      </trkpt>
      <trkpt lat="48.73167" lon="2.01582">
        <ele>151</ele>
        <time>2021-05-20T12:04:59.172Z</time>
      </trkpt>
      <trkpt lat="48.73168" lon="2.01583">
        <ele>151</ele>
        <time>2021-05-20T12:05:00.172Z</time>
      </trkpt>
      <trkpt lat="48.73169" lon="2.01584">
        <ele>151</ele>
        <time>2021-05-20T12:05:01.172Z</time>
      </trkpt>
      <trkpt lat="48.73169" lon="2.01586">
        <ele>151</ele>
        <time>2021-05-20T12:05:02.172Z</time>
      </trkpt>
      <trkpt lat="48.7317" lon="2.01587">
        <ele>150</ele>
        <time>2021-05-20T12:05:03.172Z</time>
      </trkpt>
      <trkpt lat="48.7317" lon="2.01589">
        <ele>150</ele>
        <time>2021-05-20T12:05:04.172Z</time>
      </trkpt>
      <trkpt lat="48.73171" lon="2.01591">
        <ele>150</ele>
        <time>2021-05-20T12:05:05.172Z</time>
      </trkpt>
      <trkpt lat="48.73171" lon="2.01592">
        <ele>149</ele>
        <time>2021-05-20T12:05:06.172Z</time>
      </trkpt>
      <trkpt lat="48.73172" lon="2.01593">
        <ele>149</ele>
        <time>2021-05-20T12:05:09.445Z</time>
      </trkpt>
      <trkpt lat="48.73172" lon="2.01594">
        <ele>148</ele>
        <time>2021-05-20T12:05:10.445Z</time>
      </trkpt>
      <trkpt lat="48.73173" lon="2.01596">
        <ele>148</ele>
        <time>2021-05-20T12:05:11.445Z</time>
      </trkpt>
      <trkpt lat="48.73174" lon="2.01597">
        <ele>148</ele>
        <time>2021-05-20T12:05:12.445Z</time>
      </trkpt>
      <trkpt lat="48.73174" lon="2.01599">
        <ele>148</ele>
        <time>2021-05-20T12:05:13.445Z</time>
      </trkpt>
      <trkpt lat="48.73175" lon="2.016">
        <ele>147</ele>
        <time>2021-05-20T12:05:14.445Z</time>
      </trkpt>
      <trkpt lat="48.73175" lon="2.01601">
        <ele>147</ele>
        <time>2021-05-20T12:05:15.445Z</time>
      </trkpt>
      <trkpt lat="48.73176" lon="2.01603">
        <ele>147</ele>
        <time>2021-05-20T12:05:16.445Z</time>
      </trkpt>
      <trkpt lat="48.73176" lon="2.01604">
        <ele>147</ele>
        <time>2021-05-20T12:05:17.445Z</time>
      </trkpt>
      <trkpt lat="48.73177" lon="2.01605">
        <ele>146</ele>
        <time>2021-05-20T12:05:18.445Z</time>
      </trkpt>
      <trkpt lat="48.73178" lon="2.01607">
        <ele>146</ele>
        <time>2021-05-20T12:05:19.445Z</time>
      </trkpt>
      <trkpt lat="48.73179" lon="2.01608">
        <ele>146</ele>
        <time>2021-05-20T12:05:20.445Z</time>
      </trkpt>
      <trkpt lat="48.73179" lon="2.0161">
        <ele>146</ele>
        <time>2021-05-20T12:05:21.445Z</time>
      </trkpt>
      <trkpt lat="48.7318" lon="2.01611">
        <ele>145</ele>
        <time>2021-05-20T12:05:25.460Z</time>
      </trkpt>
      <trkpt lat="48.7318" lon="2.01613">
        <ele>145</ele>
        <time>2021-05-20T12:05:26.460Z</time>
      </trkpt>
      <trkpt lat="48.73181" lon="2.01615">
        <ele>145</ele>
        <time>2021-05-20T12:05:27.460Z</time>
      </trkpt>
      <trkpt lat="48.73181" lon="2.01616">
        <ele>145</ele>
        <time>2021-05-20T12:05:28.460Z</time>
      </trkpt>
      <trkpt lat="48.73182" lon="2.01618">
        <ele>145</ele>
        <time>2021-05-20T12:05:29.460Z</time>
      </trkpt>
      <trkpt lat="48.73182" lon="2.0162">
        <ele>145</ele>
        <time>2021-05-20T12:05:30.460Z</time>
      </trkpt>
      <trkpt lat="48.73183" lon="2.01621">
        <ele>144</ele>
        <time>2021-05-20T12:05:31.460Z</time>
      </trkpt>
      <trkpt lat="48.73183" lon="2.01623">
        <ele>144</ele>
        <time>2021-05-20T12:05:32.460Z</time>
      </trkpt>
      <trkpt lat="48.73184" lon="2.01625">
        <ele>144</ele>
        <time>2021-05-20T12:05:33.460Z</time>
      </trkpt>
      <trkpt lat="48.73184" lon="2.01626">
        <ele>144</ele>
        <time>2021-05-20T12:05:34.460Z</time>
      </trkpt>
      <trkpt lat="48.73185" lon="2.01628">
        <ele>144</ele>
        <time>2021-05-20T12:05:35.460Z</time>
      </trkpt>
      <trkpt lat="48.73185" lon="2.0163">
        <ele>144</ele>
        <time>2021-05-20T12:05:36.460Z</time>
      </trkpt>
      <trkpt lat="48.73186" lon="2.01632">
        <ele>144</ele>
        <time>2021-05-20T12:05:37.460Z</time>
      </trkpt>
      <trkpt lat="48.73187" lon="2.01633">
        <ele>143</ele>
        <time>2021-05-20T12:05:38.460Z</time>
      </trkpt>
      <trkpt lat="48.73188" lon="2.01634">
        <ele>143</ele>
        <time>2021-05-20T12:05:39.460Z</time>
      </trkpt>
      <trkpt lat="48.73189" lon="2.01635">
        <ele>143</ele>
        <time>2021-05-20T12:05:40.460Z</time>
      </trkpt>
      <trkpt lat="48.73189" lon="2.01637">
        <ele>143</ele>
        <time>2021-05-20T12:05:41.460Z</time>
      </trkpt>
      <trkpt lat="48.7319" lon="2.01638">
        <ele>143</ele>
        <time>2021-05-20T12:05:42.460Z</time>
      </trkpt>
      <trkpt lat="48.7319" lon="2.01639">
        <ele>143</ele>
        <time>2021-05-20T12:05:43.460Z</time>
      </trkpt>
      <trkpt lat="48.73191" lon="2.01641">
        <ele>143</ele>
        <time>2021-05-20T12:05:44.460Z</time>
      </trkpt>
      <trkpt lat="48.73192" lon="2.01643">
        <ele>143</ele>
        <time>2021-05-20T12:05:45.460Z</time>
      </trkpt>
      <trkpt lat="48.73192" lon="2.01645">
        <ele>143</ele>
        <time>2021-05-20T12:05:46.460Z</time>
      </trkpt>
      <trkpt lat="48.73193" lon="2.01646">
        <ele>143</ele>
        <time>2021-05-20T12:05:47.460Z</time>
      </trkpt>
      <trkpt lat="48.73193" lon="2.01648">
        <ele>143</ele>
        <time>2021-05-20T12:05:48.460Z</time>
      </trkpt>
      <trkpt lat="48.73194" lon="2.01649">
        <ele>142</ele>
        <time>2021-05-20T12:05:49.460Z</time>
      </trkpt>
      <trkpt lat="48.73195" lon="2.0165">
        <ele>142</ele>
        <time>2021-05-20T12:05:50.460Z</time>
      </trkpt>
      <trkpt lat="48.73195" lon="2.01652">
        <ele>142</ele>
        <time>2021-05-20T12:05:51.460Z</time>
      </trkpt>
      <trkpt lat="48.73196" lon="2.01653">
        <ele>142</ele>
        <time>2021-05-20T12:05:52.460Z</time>
      </trkpt>
      <trkpt lat="48.73197" lon="2.01655">
        <ele>142</ele>
        <time>2021-05-20T12:05:53.460Z</time>
      </trkpt>
      <trkpt lat="48.73197" lon="2.01657">
        <ele>142</ele>
        <time>2021-05-20T12:05:54.460Z</time>
      </trkpt>
      <trkpt lat="48.73198" lon="2.01658">
        <ele>142</ele>
        <time>2021-05-20T12:05:55.460Z</time>
      </trkpt>
      <trkpt lat="48.73198" lon="2.0166">
        <ele>141</ele>
        <time>2021-05-20T12:05:56.460Z</time>
      </trkpt>
      <trkpt lat="48.73199" lon="2.01662">
        <ele>141</ele>
        <time>2021-05-20T12:05:57.460Z</time>
      </trkpt>
      <trkpt lat="48.73199" lon="2.01664">
        <ele>141</ele>
        <time>2021-05-20T12:05:58.460Z</time>
      </trkpt>
      <trkpt lat="48.732" lon="2.01666">
        <ele>141</ele>
        <time>2021-05-20T12:05:59.460Z</time>
      </trkpt>
      <trkpt lat="48.732" lon="2.01668">
        <ele>141</ele>
        <time>2021-05-20T12:06:00.460Z</time>
      </trkpt>
      <trkpt lat="48.73201" lon="2.0167">
        <ele>141</ele>
        <time>2021-05-20T12:06:01.460Z</time>
      </trkpt>
      <trkpt lat="48.73201" lon="2.01672">
        <ele>141</ele>
        <time>2021-05-20T12:06:02.460Z</time>
      </trkpt>
      <trkpt lat="48.73202" lon="2.01673">
        <ele>140</ele>
        <time>2021-05-20T12:06:03.460Z</time>
      </trkpt>
      <trkpt lat="48.73202" lon="2.01675">
        <ele>140</ele>
        <time>2021-05-20T12:06:04.460Z</time>
      </trkpt>
      <trkpt lat="48.73202" lon="2.01677">
        <ele>140</ele>
        <time>2021-05-20T12:06:05.460Z</time>
      </trkpt>
      <trkpt lat="48.73202" lon="2.01679">
        <ele>140</ele>
        <time>2021-05-20T12:06:06.460Z</time>
      </trkpt>
      <trkpt lat="48.73203" lon="2.01681">
        <ele>140</ele>
        <time>2021-05-20T12:06:07.460Z</time>
      </trkpt>
      <trkpt lat="48.73203" lon="2.01682">
        <ele>139</ele>
        <time>2021-05-20T12:06:08.460Z</time>
      </trkpt>
      <trkpt lat="48.73203" lon="2.01684">
        <ele>139</ele>
        <time>2021-05-20T12:06:09.460Z</time>
      </trkpt>
      <trkpt lat="48.73204" lon="2.01686">
        <ele>139</ele>
        <time>2021-05-20T12:06:10.460Z</time>
      </trkpt>
      <trkpt lat="48.73204" lon="2.01688">
        <ele>139</ele>
        <time>2021-05-20T12:06:11.460Z</time>
      </trkpt>
      <trkpt lat="48.73204" lon="2.01689">
        <ele>139</ele>
        <time>2021-05-20T12:06:12.460Z</time>
      </trkpt>
      <trkpt lat="48.73204" lon="2.01691">
        <ele>138</ele>
        <time>2021-05-20T12:06:13.460Z</time>
      </trkpt>
      <trkpt lat="48.73205" lon="2.01693">
        <ele>138</ele>
        <time>2021-05-20T12:06:14.460Z</time>
      </trkpt>
      <trkpt lat="48.73205" lon="2.01695">
        <ele>138</ele>
        <time>2021-05-20T12:06:15.460Z</time>
      </trkpt>
      <trkpt lat="48.73205" lon="2.01697">
        <ele>138</ele>
        <time>2021-05-20T12:06:16.460Z</time>
      </trkpt>
      <trkpt lat="48.73206" lon="2.01699">
        <ele>138</ele>
        <time>2021-05-20T12:06:17.460Z</time>
      </trkpt>
      <trkpt lat="48.73206" lon="2.01701">
        <ele>138</ele>
        <time>2021-05-20T12:06:18.460Z</time>
      </trkpt>
      <trkpt lat="48.73207" lon="2.01704">
        <ele>137</ele>
        <time>2021-05-20T12:06:19.460Z</time>
      </trkpt>
      <trkpt lat="48.73207" lon="2.01706">
        <ele>137</ele>
        <time>2021-05-20T12:06:22.732Z</time>
      </trkpt>
      <trkpt lat="48.73207" lon="2.01708">
        <ele>137</ele>
        <time>2021-05-20T12:06:23.732Z</time>
      </trkpt>
      <trkpt lat="48.73207" lon="2.0171">
        <ele>137</ele>
        <time>2021-05-20T12:06:24.732Z</time>
      </trkpt>
      <trkpt lat="48.73208" lon="2.01712">
        <ele>136</ele>
        <time>2021-05-20T12:06:25.732Z</time>
      </trkpt>
      <trkpt lat="48.73208" lon="2.01714">
        <ele>136</ele>
        <time>2021-05-20T12:06:31.747Z</time>
      </trkpt>
      <trkpt lat="48.73208" lon="2.01716">
        <ele>136</ele>
        <time>2021-05-20T12:06:32.747Z</time>
      </trkpt>
      <trkpt lat="48.73208" lon="2.01718">
        <ele>136</ele>
        <time>2021-05-20T12:06:33.747Z</time>
      </trkpt>
      <trkpt lat="48.73208" lon="2.0172">
        <ele>135</ele>
        <time>2021-05-20T12:06:34.747Z</time>
      </trkpt>
      <trkpt lat="48.73208" lon="2.01722">
        <ele>135</ele>
        <time>2021-05-20T12:06:35.747Z</time>
      </trkpt>
      <trkpt lat="48.73208" lon="2.01724">
        <ele>135</ele>
        <time>2021-05-20T12:06:36.747Z</time>
      </trkpt>
      <trkpt lat="48.73208" lon="2.01726">
        <ele>135</ele>
        <time>2021-05-20T12:06:37.747Z</time>
      </trkpt>
      <trkpt lat="48.73208" lon="2.01728">
        <ele>134</ele>
        <time>2021-05-20T12:06:38.747Z</time>
      </trkpt>
      <trkpt lat="48.73208" lon="2.0173">
        <ele>134</ele>
        <time>2021-05-20T12:06:39.747Z</time>
      </trkpt>
      <trkpt lat="48.73208" lon="2.01732">
        <ele>133</ele>
        <time>2021-05-20T12:06:40.747Z</time>
      </trkpt>
      <trkpt lat="48.73208" lon="2.01734">
        <ele>133</ele>
        <time>2021-05-20T12:06:41.747Z</time>
      </trkpt>
      <trkpt lat="48.73208" lon="2.01736">
        <ele>133</ele>
        <time>2021-05-20T12:06:42.747Z</time>
      </trkpt>
      <trkpt lat="48.73209" lon="2.01738">
        <ele>132</ele>
        <time>2021-05-20T12:06:43.747Z</time>
      </trkpt>
      <trkpt lat="48.73209" lon="2.0174">
        <ele>132</ele>
        <time>2021-05-20T12:06:44.747Z</time>
      </trkpt>
      <trkpt lat="48.7321" lon="2.01741">
        <ele>132</ele>
        <time>2021-05-20T12:06:45.747Z</time>
      </trkpt>
      <trkpt lat="48.7321" lon="2.01743">
        <ele>132</ele>
        <time>2021-05-20T12:06:46.747Z</time>
      </trkpt>
      <trkpt lat="48.7321" lon="2.01745">
        <ele>131</ele>
        <time>2021-05-20T12:06:47.747Z</time>
      </trkpt>
      <trkpt lat="48.7321" lon="2.01747">
        <ele>131</ele>
        <time>2021-05-20T12:06:48.747Z</time>
      </trkpt>
      <trkpt lat="48.73211" lon="2.01749">
        <ele>131</ele>
        <time>2021-05-20T12:06:49.747Z</time>
      </trkpt>
      <trkpt lat="48.73211" lon="2.01751">
        <ele>131</ele>
        <time>2021-05-20T12:06:50.747Z</time>
      </trkpt>
      <trkpt lat="48.73211" lon="2.01753">
        <ele>130</ele>
        <time>2021-05-20T12:06:51.747Z</time>
      </trkpt>
      <trkpt lat="48.73211" lon="2.01755">
        <ele>130</ele>
        <time>2021-05-20T12:06:52.747Z</time>
      </trkpt>
      <trkpt lat="48.73211" lon="2.01757">
        <ele>130</ele>
        <time>2021-05-20T12:06:53.747Z</time>
      </trkpt>
      <trkpt lat="48.73211" lon="2.0176">
        <ele>130</ele>
        <time>2021-05-20T12:06:54.747Z</time>
      </trkpt>
      <trkpt lat="48.73211" lon="2.01762">
        <ele>129</ele>
        <time>2021-05-20T12:06:55.747Z</time>
      </trkpt>
      <trkpt lat="48.73211" lon="2.01764">
        <ele>129</ele>
        <time>2021-05-20T12:06:56.747Z</time>
      </trkpt>
      <trkpt lat="48.73211" lon="2.01766">
        <ele>129</ele>
        <time>2021-05-20T12:06:57.747Z</time>
      </trkpt>
      <trkpt lat="48.73211" lon="2.01768">
        <ele>128</ele>
        <time>2021-05-20T12:06:58.747Z</time>
      </trkpt>
      <trkpt lat="48.73211" lon="2.0177">
        <ele>128</ele>
        <time>2021-05-20T12:06:59.747Z</time>
      </trkpt>
      <trkpt lat="48.73212" lon="2.01772">
        <ele>127</ele>
        <time>2021-05-20T12:07:00.747Z</time>
      </trkpt>
      <trkpt lat="48.73212" lon="2.01774">
        <ele>127</ele>
        <time>2021-05-20T12:07:01.747Z</time>
      </trkpt>
      <trkpt lat="48.73213" lon="2.01776">
        <ele>127</ele>
        <time>2021-05-20T12:07:02.747Z</time>
      </trkpt>
      <trkpt lat="48.73214" lon="2.01778">
        <ele>127</ele>
        <time>2021-05-20T12:07:03.747Z</time>
      </trkpt>
      <trkpt lat="48.73214" lon="2.0178">
        <ele>126</ele>
        <time>2021-05-20T12:07:04.747Z</time>
      </trkpt>
      <trkpt lat="48.73215" lon="2.01782">
        <ele>126</ele>
        <time>2021-05-20T12:07:05.747Z</time>
      </trkpt>
      <trkpt lat="48.73216" lon="2.01784">
        <ele>126</ele>
        <time>2021-05-20T12:07:06.747Z</time>
      </trkpt>
      <trkpt lat="48.73216" lon="2.01786">
        <ele>126</ele>
        <time>2021-05-20T12:07:07.747Z</time>
      </trkpt>
      <trkpt lat="48.73217" lon="2.01788">
        <ele>126</ele>
        <time>2021-05-20T12:07:08.747Z</time>
      </trkpt>
      <trkpt lat="48.73218" lon="2.01789">
        <ele>126</ele>
        <time>2021-05-20T12:07:09.747Z</time>
      </trkpt>
      <trkpt lat="48.73219" lon="2.0179">
        <ele>125</ele>
        <time>2021-05-20T12:07:10.747Z</time>
      </trkpt>
      <trkpt lat="48.7322" lon="2.01792">
        <ele>125</ele>
        <time>2021-05-20T12:07:11.747Z</time>
      </trkpt>
      <trkpt lat="48.73221" lon="2.01793">
        <ele>125</ele>
        <time>2021-05-20T12:07:12.747Z</time>
      </trkpt>
      <trkpt lat="48.73222" lon="2.01794">
        <ele>125</ele>
        <time>2021-05-20T12:07:13.747Z</time>
      </trkpt>
      <trkpt lat="48.73223" lon="2.01795">
        <ele>125</ele>
        <time>2021-05-20T12:07:14.747Z</time>
      </trkpt>
      <trkpt lat="48.73223" lon="2.01797">
        <ele>125</ele>
        <time>2021-05-20T12:07:15.747Z</time>
      </trkpt>
      <trkpt lat="48.73224" lon="2.01798">
        <ele>125</ele>
        <time>2021-05-20T12:07:16.747Z</time>
      </trkpt>
      <trkpt lat="48.73225" lon="2.018">
        <ele>125</ele>
        <time>2021-05-20T12:07:17.747Z</time>
      </trkpt>
      <trkpt lat="48.73227" lon="2.01801">
        <ele>125</ele>
        <time>2021-05-20T12:07:18.747Z</time>
      </trkpt>
      <trkpt lat="48.73228" lon="2.01802">
        <ele>125</ele>
        <time>2021-05-20T12:07:19.747Z</time>
      </trkpt>
      <trkpt lat="48.73228" lon="2.01804">
        <ele>124</ele>
        <time>2021-05-20T12:07:20.747Z</time>
      </trkpt>
      <trkpt lat="48.73229" lon="2.01805">
        <ele>124</ele>
        <time>2021-05-20T12:07:21.747Z</time>
      </trkpt>
      <trkpt lat="48.7323" lon="2.01806">
        <ele>124</ele>
        <time>2021-05-20T12:07:22.747Z</time>
      </trkpt>
      <trkpt lat="48.73231" lon="2.01807">
        <ele>124</ele>
        <time>2021-05-20T12:07:23.747Z</time>
      </trkpt>
      <trkpt lat="48.73232" lon="2.01808">
        <ele>124</ele>
        <time>2021-05-20T12:07:27.020Z</time>
      </trkpt>
      <trkpt lat="48.73234" lon="2.01809">
        <ele>124</ele>
        <time>2021-05-20T12:07:28.020Z</time>
      </trkpt>
      <trkpt lat="48.73235" lon="2.01811">
        <ele>124</ele>
        <time>2021-05-20T12:07:29.020Z</time>
      </trkpt>
      <trkpt lat="48.73236" lon="2.01812">
        <ele>123</ele>
        <time>2021-05-20T12:07:30.020Z</time>
      </trkpt>
      <trkpt lat="48.73237" lon="2.01813">
        <ele>123</ele>
        <time>2021-05-20T12:07:31.020Z</time>
      </trkpt>
      <trkpt lat="48.73238" lon="2.01814">
        <ele>123</ele>
        <time>2021-05-20T12:07:32.020Z</time>
      </trkpt>
      <trkpt lat="48.73239" lon="2.01815">
        <ele>123</ele>
        <time>2021-05-20T12:07:33.020Z</time>
      </trkpt>
      <trkpt lat="48.7324" lon="2.01816">
        <ele>123</ele>
        <time>2021-05-20T12:07:37.007Z</time>
      </trkpt>
      <trkpt lat="48.73242" lon="2.01818">
        <ele>123</ele>
        <time>2021-05-20T12:07:38.007Z</time>
      </trkpt>
      <trkpt lat="48.73243" lon="2.01819">
        <ele>122</ele>
        <time>2021-05-20T12:07:39.007Z</time>
      </trkpt>
      <trkpt lat="48.73244" lon="2.0182">
        <ele>122</ele>
        <time>2021-05-20T12:07:40.007Z</time>
      </trkpt>
      <trkpt lat="48.73245" lon="2.01821">
        <ele>122</ele>
        <time>2021-05-20T12:07:41.007Z</time>
      </trkpt>
      <trkpt lat="48.73246" lon="2.01822">
        <ele>122</ele>
        <time>2021-05-20T12:07:42.007Z</time>
      </trkpt>
      <trkpt lat="48.73247" lon="2.01823">
        <ele>122</ele>
        <time>2021-05-20T12:07:43.007Z</time>
      </trkpt>
      <trkpt lat="48.73249" lon="2.01824">
        <ele>121</ele>
        <time>2021-05-20T12:07:44.007Z</time>
      </trkpt>
      <trkpt lat="48.7325" lon="2.01825">
        <ele>121</ele>
        <time>2021-05-20T12:07:45.007Z</time>
      </trkpt>
      <trkpt lat="48.73251" lon="2.01826">
        <ele>121</ele>
        <time>2021-05-20T12:07:46.007Z</time>
      </trkpt>
      <trkpt lat="48.73252" lon="2.01827">
        <ele>121</ele>
        <time>2021-05-20T12:07:47.007Z</time>
      </trkpt>
      <trkpt lat="48.73253" lon="2.01828">
        <ele>121</ele>
        <time>2021-05-20T12:07:48.007Z</time>
      </trkpt>
      <trkpt lat="48.73255" lon="2.01829">
        <ele>121</ele>
        <time>2021-05-20T12:07:49.007Z</time>
      </trkpt>
      <trkpt lat="48.73256" lon="2.0183">
        <ele>122</ele>
        <time>2021-05-20T12:07:50.007Z</time>
      </trkpt>
      <trkpt lat="48.73257" lon="2.01832">
        <ele>122</ele>
        <time>2021-05-20T12:07:51.007Z</time>
      </trkpt>
      <trkpt lat="48.73258" lon="2.01833">
        <ele>122</ele>
        <time>2021-05-20T12:07:52.007Z</time>
      </trkpt>
      <trkpt lat="48.73259" lon="2.01835">
        <ele>122</ele>
        <time>2021-05-20T12:07:53.007Z</time>
      </trkpt>
      <trkpt lat="48.7326" lon="2.01837">
        <ele>122</ele>
        <time>2021-05-20T12:07:54.007Z</time>
      </trkpt>
      <trkpt lat="48.73261" lon="2.01839">
        <ele>122</ele>
        <time>2021-05-20T12:07:55.007Z</time>
      </trkpt>
      <trkpt lat="48.73262" lon="2.01841">
        <ele>122</ele>
        <time>2021-05-20T12:07:56.007Z</time>
      </trkpt>
      <trkpt lat="48.73263" lon="2.01842">
        <ele>122</ele>
        <time>2021-05-20T12:07:57.007Z</time>
      </trkpt>
      <trkpt lat="48.73264" lon="2.01844">
        <ele>122</ele>
        <time>2021-05-20T12:07:58.007Z</time>
      </trkpt>
      <trkpt lat="48.73265" lon="2.01846">
        <ele>122</ele>
        <time>2021-05-20T12:07:59.007Z</time>
      </trkpt>
      <trkpt lat="48.73266" lon="2.01848">
        <ele>123</ele>
        <time>2021-05-20T12:08:00.007Z</time>
      </trkpt>
      <trkpt lat="48.73267" lon="2.01849">
        <ele>123</ele>
        <time>2021-05-20T12:08:01.007Z</time>
      </trkpt>
      <trkpt lat="48.73268" lon="2.01851">
        <ele>123</ele>
        <time>2021-05-20T12:08:02.007Z</time>
      </trkpt>
      <trkpt lat="48.73269" lon="2.01852">
        <ele>123</ele>
        <time>2021-05-20T12:08:03.007Z</time>
      </trkpt>
      <trkpt lat="48.7327" lon="2.01854">
        <ele>123</ele>
        <time>2021-05-20T12:08:04.007Z</time>
      </trkpt>
      <trkpt lat="48.73271" lon="2.01855">
        <ele>123</ele>
        <time>2021-05-20T12:08:15.012Z</time>
      </trkpt>
      <trkpt lat="48.73272" lon="2.01857">
        <ele>123</ele>
        <time>2021-05-20T12:08:16.012Z</time>
      </trkpt>
      <trkpt lat="48.73273" lon="2.01859">
        <ele>123</ele>
        <time>2021-05-20T12:08:17.012Z</time>
      </trkpt>
      <trkpt lat="48.73274" lon="2.0186">
        <ele>124</ele>
        <time>2021-05-20T12:08:18.012Z</time>
      </trkpt>
      <trkpt lat="48.73275" lon="2.01862">
        <ele>124</ele>
        <time>2021-05-20T12:08:19.012Z</time>
      </trkpt>
      <trkpt lat="48.73276" lon="2.01863">
        <ele>124</ele>
        <time>2021-05-20T12:08:20.012Z</time>
      </trkpt>
      <trkpt lat="48.73277" lon="2.01865">
        <ele>124</ele>
        <time>2021-05-20T12:08:21.012Z</time>
      </trkpt>
      <trkpt lat="48.73278" lon="2.01866">
        <ele>124</ele>
        <time>2021-05-20T12:08:22.012Z</time>
      </trkpt>
      <trkpt lat="48.73279" lon="2.01867">
        <ele>124</ele>
        <time>2021-05-20T12:08:23.012Z</time>
      </trkpt>
      <trkpt lat="48.73279" lon="2.01869">
        <ele>124</ele>
        <time>2021-05-20T12:08:24.012Z</time>
      </trkpt>
      <trkpt lat="48.7328" lon="2.0187">
        <ele>124</ele>
        <time>2021-05-20T12:08:25.012Z</time>
      </trkpt>
      <trkpt lat="48.73281" lon="2.01872">
        <ele>124</ele>
        <time>2021-05-20T12:08:26.012Z</time>
      </trkpt>
      <trkpt lat="48.73282" lon="2.01873">
        <ele>124</ele>
        <time>2021-05-20T12:08:27.012Z</time>
      </trkpt>
      <trkpt lat="48.73283" lon="2.01875">
        <ele>124</ele>
        <time>2021-05-20T12:08:28.012Z</time>
      </trkpt>
      <trkpt lat="48.73285" lon="2.01877">
        <ele>124</ele>
        <time>2021-05-20T12:08:29.012Z</time>
      </trkpt>
      <trkpt lat="48.73286" lon="2.01879">
        <ele>124</ele>
        <time>2021-05-20T12:08:30.012Z</time>
      </trkpt>
      <trkpt lat="48.73287" lon="2.01881">
        <ele>124</ele>
        <time>2021-05-20T12:08:31.012Z</time>
      </trkpt>
      <trkpt lat="48.73288" lon="2.01882">
        <ele>124</ele>
        <time>2021-05-20T12:08:32.012Z</time>
      </trkpt>
      <trkpt lat="48.73289" lon="2.01884">
        <ele>124</ele>
        <time>2021-05-20T12:08:33.012Z</time>
      </trkpt>
      <trkpt lat="48.7329" lon="2.01886">
        <ele>124</ele>
        <time>2021-05-20T12:08:34.012Z</time>
      </trkpt>
      <trkpt lat="48.73291" lon="2.01888">
        <ele>124</ele>
        <time>2021-05-20T12:08:35.012Z</time>
      </trkpt>
      <trkpt lat="48.73292" lon="2.01889">
        <ele>124</ele>
        <time>2021-05-20T12:08:36.012Z</time>
      </trkpt>
      <trkpt lat="48.73293" lon="2.01891">
        <ele>124</ele>
        <time>2021-05-20T12:08:37.012Z</time>
      </trkpt>
      <trkpt lat="48.73294" lon="2.01892">
        <ele>124</ele>
        <time>2021-05-20T12:08:38.012Z</time>
      </trkpt>
      <trkpt lat="48.73295" lon="2.01894">
        <ele>123</ele>
        <time>2021-05-20T12:08:39.012Z</time>
      </trkpt>
      <trkpt lat="48.73296" lon="2.01895">
        <ele>123</ele>
        <time>2021-05-20T12:08:40.012Z</time>
      </trkpt>
      <trkpt lat="48.73297" lon="2.01897">
        <ele>123</ele>
        <time>2021-05-20T12:08:41.012Z</time>
      </trkpt>
      <trkpt lat="48.73298" lon="2.01898">
        <ele>123</ele>
        <time>2021-05-20T12:08:42.012Z</time>
      </trkpt>
      <trkpt lat="48.73299" lon="2.019">
        <ele>123</ele>
        <time>2021-05-20T12:08:43.012Z</time>
      </trkpt>
      <trkpt lat="48.733" lon="2.01901">
        <ele>123</ele>
        <time>2021-05-20T12:08:44.012Z</time>
      </trkpt>
      <trkpt lat="48.73301" lon="2.01903">
        <ele>123</ele>
        <time>2021-05-20T12:08:45.012Z</time>
      </trkpt>
      <trkpt lat="48.73302" lon="2.01904">
        <ele>123</ele>
        <time>2021-05-20T12:08:46.012Z</time>
      </trkpt>
      <trkpt lat="48.73302" lon="2.01906">
        <ele>123</ele>
        <time>2021-05-20T12:08:47.012Z</time>
      </trkpt>
      <trkpt lat="48.73303" lon="2.01907">
        <ele>123</ele>
        <time>2021-05-20T12:08:48.012Z</time>
      </trkpt>
      <trkpt lat="48.73304" lon="2.01908">
        <ele>123</ele>
        <time>2021-05-20T12:08:49.012Z</time>
      </trkpt>
      <trkpt lat="48.73304" lon="2.0191">
        <ele>123</ele>
        <time>2021-05-20T12:08:50.012Z</time>
      </trkpt>
      <trkpt lat="48.73305" lon="2.01911">
        <ele>122</ele>
        <time>2021-05-20T12:08:51.012Z</time>
      </trkpt>
      <trkpt lat="48.73306" lon="2.01912">
        <ele>122</ele>
        <time>2021-05-20T12:08:52.012Z</time>
      </trkpt>
      <trkpt lat="48.73307" lon="2.01914">
        <ele>122</ele>
        <time>2021-05-20T12:08:53.012Z</time>
      </trkpt>
      <trkpt lat="48.73308" lon="2.01916">
        <ele>122</ele>
        <time>2021-05-20T12:08:54.012Z</time>
      </trkpt>
      <trkpt lat="48.73308" lon="2.01918">
        <ele>122</ele>
        <time>2021-05-20T12:08:55.012Z</time>
      </trkpt>
      <trkpt lat="48.73309" lon="2.0192">
        <ele>122</ele>
        <time>2021-05-20T12:08:56.012Z</time>
      </trkpt>
      <trkpt lat="48.73309" lon="2.01921">
        <ele>122</ele>
        <time>2021-05-20T12:08:57.012Z</time>
      </trkpt>
      <trkpt lat="48.7331" lon="2.01923">
        <ele>122</ele>
        <time>2021-05-20T12:08:58.012Z</time>
      </trkpt>
      <trkpt lat="48.73311" lon="2.01925">
        <ele>121</ele>
        <time>2021-05-20T12:08:59.012Z</time>
      </trkpt>
      <trkpt lat="48.73311" lon="2.01926">
        <ele>121</ele>
        <time>2021-05-20T12:09:00.012Z</time>
      </trkpt>
      <trkpt lat="48.73312" lon="2.01927">
        <ele>121</ele>
        <time>2021-05-20T12:09:01.012Z</time>
      </trkpt>
      <trkpt lat="48.73313" lon="2.01929">
        <ele>121</ele>
        <time>2021-05-20T12:09:02.012Z</time>
      </trkpt>
      <trkpt lat="48.73314" lon="2.0193">
        <ele>120</ele>
        <time>2021-05-20T12:09:03.012Z</time>
      </trkpt>
      <trkpt lat="48.73314" lon="2.01932">
        <ele>120</ele>
        <time>2021-05-20T12:09:09.001Z</time>
      </trkpt>
      <trkpt lat="48.73315" lon="2.01933">
        <ele>120</ele>
        <time>2021-05-20T12:09:10.001Z</time>
      </trkpt>
      <trkpt lat="48.73316" lon="2.01935">
        <ele>120</ele>
        <time>2021-05-20T12:09:20.976Z</time>
      </trkpt>
      <trkpt lat="48.73316" lon="2.01936">
        <ele>120</ele>
        <time>2021-05-20T12:09:21.976Z</time>
      </trkpt>
      <trkpt lat="48.73317" lon="2.01937">
        <ele>119</ele>
        <time>2021-05-20T12:09:22.976Z</time>
      </trkpt>
      <trkpt lat="48.73318" lon="2.01939">
        <ele>119</ele>
        <time>2021-05-20T12:09:23.976Z</time>
      </trkpt>
      <trkpt lat="48.73318" lon="2.01941">
        <ele>119</ele>
        <time>2021-05-20T12:09:24.976Z</time>
      </trkpt>
      <trkpt lat="48.73319" lon="2.01942">
        <ele>119</ele>
        <time>2021-05-20T12:09:25.976Z</time>
      </trkpt>
      <trkpt lat="48.73319" lon="2.01944">
        <ele>119</ele>
        <time>2021-05-20T12:09:26.976Z</time>
      </trkpt>
      <trkpt lat="48.7332" lon="2.01945">
        <ele>118</ele>
        <time>2021-05-20T12:09:27.976Z</time>
      </trkpt>
      <trkpt lat="48.7332" lon="2.01946">
        <ele>118</ele>
        <time>2021-05-20T12:09:28.976Z</time>
      </trkpt>
      <trkpt lat="48.73321" lon="2.01948">
        <ele>118</ele>
        <time>2021-05-20T12:09:29.976Z</time>
      </trkpt>
      <trkpt lat="48.73321" lon="2.01949">
        <ele>117</ele>
        <time>2021-05-20T12:09:30.976Z</time>
      </trkpt>
      <trkpt lat="48.73322" lon="2.0195">
        <ele>117</ele>
        <time>2021-05-20T12:09:31.976Z</time>
      </trkpt>
      <trkpt lat="48.73322" lon="2.01952">
        <ele>117</ele>
        <time>2021-05-20T12:09:32.976Z</time>
      </trkpt>
      <trkpt lat="48.73322" lon="2.01954">
        <ele>117</ele>
        <time>2021-05-20T12:09:33.976Z</time>
      </trkpt>
      <trkpt lat="48.73322" lon="2.01956">
        <ele>116</ele>
        <time>2021-05-20T12:09:34.976Z</time>
      </trkpt>
      <trkpt lat="48.73322" lon="2.01958">
        <ele>116</ele>
        <time>2021-05-20T12:09:35.976Z</time>
      </trkpt>
      <trkpt lat="48.73322" lon="2.01959">
        <ele>116</ele>
        <time>2021-05-20T12:09:36.976Z</time>
      </trkpt>
      <trkpt lat="48.73321" lon="2.0196">
        <ele>116</ele>
        <time>2021-05-20T12:09:37.976Z</time>
      </trkpt>
      <trkpt lat="48.73321" lon="2.01962">
        <ele>116</ele>
        <time>2021-05-20T12:09:38.976Z</time>
      </trkpt>
      <trkpt lat="48.7332" lon="2.01963">
        <ele>116</ele>
        <time>2021-05-20T12:09:39.976Z</time>
      </trkpt>
      <trkpt lat="48.7332" lon="2.01964">
        <ele>115</ele>
        <time>2021-05-20T12:09:40.976Z</time>
      </trkpt>
      <trkpt lat="48.7332" lon="2.01965">
        <ele>115</ele>
        <time>2021-05-20T12:09:41.976Z</time>
      </trkpt>
      <trkpt lat="48.73319" lon="2.01965">
        <ele>115</ele>
        <time>2021-05-20T12:09:42.976Z</time>
      </trkpt>
      <trkpt lat="48.73319" lon="2.01965">
        <ele>115</ele>
        <time>2021-05-20T12:09:43.976Z</time>
      </trkpt>
      <trkpt lat="48.7332" lon="2.01965">
        <ele>115</ele>
        <time>2021-05-20T12:09:44.976Z</time>
      </trkpt>
      <trkpt lat="48.7332" lon="2.01966">
        <ele>115</ele>
        <time>2021-05-20T12:09:45.976Z</time>
      </trkpt>
      <trkpt lat="48.7332" lon="2.01967">
        <ele>115</ele>
        <time>2021-05-20T12:09:46.976Z</time>
      </trkpt>
      <trkpt lat="48.73321" lon="2.01968">
        <ele>115</ele>
        <time>2021-05-20T12:09:47.976Z</time>
      </trkpt>
      <trkpt lat="48.73321" lon="2.01969">
        <ele>114</ele>
        <time>2021-05-20T12:09:48.976Z</time>
      </trkpt>
      <trkpt lat="48.73322" lon="2.01969">
        <ele>114</ele>
        <time>2021-05-20T12:09:49.976Z</time>
      </trkpt>
      <trkpt lat="48.73323" lon="2.0197">
        <ele>114</ele>
        <time>2021-05-20T12:09:50.976Z</time>
      </trkpt>
      <trkpt lat="48.73324" lon="2.0197">
        <ele>114</ele>
        <time>2021-05-20T12:09:51.976Z</time>
      </trkpt>
      <trkpt lat="48.73324" lon="2.01972">
        <ele>114</ele>
        <time>2021-05-20T12:09:52.976Z</time>
      </trkpt>
      <trkpt lat="48.73325" lon="2.01974">
        <ele>114</ele>
        <time>2021-05-20T12:09:53.976Z</time>
      </trkpt>
      <trkpt lat="48.73326" lon="2.01975">
        <ele>114</ele>
        <time>2021-05-20T12:09:54.976Z</time>
      </trkpt>
      <trkpt lat="48.73327" lon="2.01976">
        <ele>114</ele>
        <time>2021-05-20T12:09:55.976Z</time>
      </trkpt>
      <trkpt lat="48.73327" lon="2.01978">
        <ele>114</ele>
        <time>2021-05-20T12:09:56.976Z</time>
      </trkpt>
      <trkpt lat="48.73328" lon="2.0198">
        <ele>114</ele>
        <time>2021-05-20T12:09:57.976Z</time>
      </trkpt>
      <trkpt lat="48.73328" lon="2.01981">
        <ele>114</ele>
        <time>2021-05-20T12:09:58.976Z</time>
      </trkpt>
      <trkpt lat="48.73329" lon="2.01983">
        <ele>114</ele>
        <time>2021-05-20T12:09:59.976Z</time>
      </trkpt>
      <trkpt lat="48.73329" lon="2.01984">
        <ele>114</ele>
        <time>2021-05-20T12:10:00.976Z</time>
      </trkpt>
      <trkpt lat="48.73329" lon="2.01986">
        <ele>114</ele>
        <time>2021-05-20T12:10:01.976Z</time>
      </trkpt>
      <trkpt lat="48.73329" lon="2.01988">
        <ele>114</ele>
        <time>2021-05-20T12:10:02.976Z</time>
      </trkpt>
      <trkpt lat="48.7333" lon="2.01989">
        <ele>114</ele>
        <time>2021-05-20T12:10:03.976Z</time>
      </trkpt>
      <trkpt lat="48.7333" lon="2.01991">
        <ele>114</ele>
        <time>2021-05-20T12:10:04.976Z</time>
      </trkpt>
      <trkpt lat="48.7333" lon="2.01993">
        <ele>114</ele>
        <time>2021-05-20T12:10:05.976Z</time>
      </trkpt>
      <trkpt lat="48.7333" lon="2.01995">
        <ele>114</ele>
        <time>2021-05-20T12:10:06.976Z</time>
      </trkpt>
      <trkpt lat="48.7333" lon="2.01996">
        <ele>114</ele>
        <time>2021-05-20T12:10:07.976Z</time>
      </trkpt>
      <trkpt lat="48.7333" lon="2.01998">
        <ele>114</ele>
        <time>2021-05-20T12:10:08.976Z</time>
      </trkpt>
      <trkpt lat="48.73331" lon="2.02">
        <ele>114</ele>
        <time>2021-05-20T12:10:09.976Z</time>
      </trkpt>
      <trkpt lat="48.73331" lon="2.02002">
        <ele>114</ele>
        <time>2021-05-20T12:10:10.976Z</time>
      </trkpt>
      <trkpt lat="48.73331" lon="2.02003">
        <ele>114</ele>
        <time>2021-05-20T12:10:11.976Z</time>
      </trkpt>
      <trkpt lat="48.73331" lon="2.02004">
        <ele>114</ele>
        <time>2021-05-20T12:10:12.976Z</time>
      </trkpt>
      <trkpt lat="48.73331" lon="2.02006">
        <ele>114</ele>
        <time>2021-05-20T12:10:13.976Z</time>
      </trkpt>
      <trkpt lat="48.73331" lon="2.02007">
        <ele>114</ele>
        <time>2021-05-20T12:10:14.976Z</time>
      </trkpt>
      <trkpt lat="48.73332" lon="2.02009">
        <ele>114</ele>
        <time>2021-05-20T12:10:15.976Z</time>
      </trkpt>
      <trkpt lat="48.73332" lon="2.02011">
        <ele>114</ele>
        <time>2021-05-20T12:10:16.976Z</time>
      </trkpt>
      <trkpt lat="48.73332" lon="2.02012">
        <ele>114</ele>
        <time>2021-05-20T12:10:17.976Z</time>
      </trkpt>
      <trkpt lat="48.73332" lon="2.02014">
        <ele>114</ele>
        <time>2021-05-20T12:10:18.976Z</time>
      </trkpt>
      <trkpt lat="48.73332" lon="2.02016">
        <ele>114</ele>
        <time>2021-05-20T12:10:19.976Z</time>
      </trkpt>
      <trkpt lat="48.73332" lon="2.02018">
        <ele>114</ele>
        <time>2021-05-20T12:10:20.976Z</time>
      </trkpt>
      <trkpt lat="48.73333" lon="2.02019">
        <ele>114</ele>
        <time>2021-05-20T12:10:21.976Z</time>
      </trkpt>
      <trkpt lat="48.73333" lon="2.02021">
        <ele>114</ele>
        <time>2021-05-20T12:10:22.976Z</time>
      </trkpt>
      <trkpt lat="48.73334" lon="2.02023">
        <ele>114</ele>
        <time>2021-05-20T12:10:23.976Z</time>
      </trkpt>
      <trkpt lat="48.73334" lon="2.02025">
        <ele>114</ele>
        <time>2021-05-20T12:10:24.976Z</time>
      </trkpt>
      <trkpt lat="48.73334" lon="2.02027">
        <ele>114</ele>
        <time>2021-05-20T12:10:25.976Z</time>
      </trkpt>
      <trkpt lat="48.73334" lon="2.02029">
        <ele>115</ele>
        <time>2021-05-20T12:10:26.976Z</time>
      </trkpt>
      <trkpt lat="48.73334" lon="2.02031">
        <ele>115</ele>
        <time>2021-05-20T12:10:27.976Z</time>
      </trkpt>
      <trkpt lat="48.73334" lon="2.02033">
        <ele>115</ele>
        <time>2021-05-20T12:10:28.976Z</time>
      </trkpt>
      <trkpt lat="48.73335" lon="2.02035">
        <ele>115</ele>
        <time>2021-05-20T12:10:29.976Z</time>
      </trkpt>
      <trkpt lat="48.73335" lon="2.02037">
        <ele>115</ele>
        <time>2021-05-20T12:10:30.976Z</time>
      </trkpt>
      <trkpt lat="48.73336" lon="2.02039">
        <ele>115</ele>
        <time>2021-05-20T12:10:31.976Z</time>
      </trkpt>
      <trkpt lat="48.73337" lon="2.02041">
        <ele>115</ele>
        <time>2021-05-20T12:10:32.976Z</time>
      </trkpt>
      <trkpt lat="48.73337" lon="2.02043">
        <ele>115</ele>
        <time>2021-05-20T12:10:33.976Z</time>
      </trkpt>
      <trkpt lat="48.73338" lon="2.02045">
        <ele>115</ele>
        <time>2021-05-20T12:10:34.976Z</time>
      </trkpt>
      <trkpt lat="48.73338" lon="2.02046">
        <ele>116</ele>
        <time>2021-05-20T12:10:35.976Z</time>
      </trkpt>
      <trkpt lat="48.73339" lon="2.02048">
        <ele>116</ele>
        <time>2021-05-20T12:10:36.976Z</time>
      </trkpt>
      <trkpt lat="48.73339" lon="2.0205">
        <ele>116</ele>
        <time>2021-05-20T12:10:37.976Z</time>
      </trkpt>
      <trkpt lat="48.73339" lon="2.02052">
        <ele>116</ele>
        <time>2021-05-20T12:10:38.976Z</time>
      </trkpt>
      <trkpt lat="48.7334" lon="2.02054">
        <ele>116</ele>
        <time>2021-05-20T12:10:39.976Z</time>
      </trkpt>
      <trkpt lat="48.7334" lon="2.02056">
        <ele>116</ele>
        <time>2021-05-20T12:10:40.976Z</time>
      </trkpt>
      <trkpt lat="48.7334" lon="2.02057">
        <ele>116</ele>
        <time>2021-05-20T12:10:41.976Z</time>
      </trkpt>
      <trkpt lat="48.73341" lon="2.02059">
        <ele>116</ele>
        <time>2021-05-20T12:10:42.976Z</time>
      </trkpt>
      <trkpt lat="48.73341" lon="2.02061">
        <ele>116</ele>
        <time>2021-05-20T12:10:43.976Z</time>
      </trkpt>
      <trkpt lat="48.73341" lon="2.02063">
        <ele>116</ele>
        <time>2021-05-20T12:10:44.976Z</time>
      </trkpt>
      <trkpt lat="48.73341" lon="2.02065">
        <ele>116</ele>
        <time>2021-05-20T12:10:45.976Z</time>
      </trkpt>
      <trkpt lat="48.73342" lon="2.02067">
        <ele>116</ele>
        <time>2021-05-20T12:10:46.976Z</time>
      </trkpt>
      <trkpt lat="48.73342" lon="2.02069">
        <ele>116</ele>
        <time>2021-05-20T12:10:47.976Z</time>
      </trkpt>
      <trkpt lat="48.73343" lon="2.02071">
        <ele>116</ele>
        <time>2021-05-20T12:10:48.976Z</time>
      </trkpt>
      <trkpt lat="48.73343" lon="2.02073">
        <ele>116</ele>
        <time>2021-05-20T12:10:49.976Z</time>
      </trkpt>
      <trkpt lat="48.73344" lon="2.02075">
        <ele>116</ele>
        <time>2021-05-20T12:10:50.976Z</time>
      </trkpt>
      <trkpt lat="48.73344" lon="2.02077">
        <ele>116</ele>
        <time>2021-05-20T12:10:51.976Z</time>
      </trkpt>
      <trkpt lat="48.73345" lon="2.02078">
        <ele>116</ele>
        <time>2021-05-20T12:10:52.976Z</time>
      </trkpt>
      <trkpt lat="48.73345" lon="2.0208">
        <ele>116</ele>
        <time>2021-05-20T12:10:53.976Z</time>
      </trkpt>
      <trkpt lat="48.73345" lon="2.02082">
        <ele>115</ele>
        <time>2021-05-20T12:10:54.976Z</time>
      </trkpt>
      <trkpt lat="48.73346" lon="2.02083">
        <ele>115</ele>
        <time>2021-05-20T12:10:55.976Z</time>
      </trkpt>
      <trkpt lat="48.73346" lon="2.02085">
        <ele>115</ele>
        <time>2021-05-20T12:10:56.976Z</time>
      </trkpt>
      <trkpt lat="48.73347" lon="2.02087">
        <ele>115</ele>
        <time>2021-05-20T12:10:57.976Z</time>
      </trkpt>
      <trkpt lat="48.73347" lon="2.02089">
        <ele>115</ele>
        <time>2021-05-20T12:10:58.976Z</time>
      </trkpt>
      <trkpt lat="48.73347" lon="2.02091">
        <ele>115</ele>
        <time>2021-05-20T12:10:59.976Z</time>
      </trkpt>
      <trkpt lat="48.73348" lon="2.02093">
        <ele>115</ele>
        <time>2021-05-20T12:11:00.976Z</time>
      </trkpt>
      <trkpt lat="48.73348" lon="2.02095">
        <ele>115</ele>
        <time>2021-05-20T12:11:01.976Z</time>
      </trkpt>
      <trkpt lat="48.73349" lon="2.02097">
        <ele>114</ele>
        <time>2021-05-20T12:11:02.976Z</time>
      </trkpt>
      <trkpt lat="48.73349" lon="2.02098">
        <ele>114</ele>
        <time>2021-05-20T12:11:03.976Z</time>
      </trkpt>
      <trkpt lat="48.73349" lon="2.021">
        <ele>114</ele>
        <time>2021-05-20T12:11:04.976Z</time>
      </trkpt>
      <trkpt lat="48.73349" lon="2.02102">
        <ele>114</ele>
        <time>2021-05-20T12:11:05.976Z</time>
      </trkpt>
      <trkpt lat="48.73349" lon="2.02104">
        <ele>114</ele>
        <time>2021-05-20T12:11:06.976Z</time>
      </trkpt>
      <trkpt lat="48.7335" lon="2.02106">
        <ele>114</ele>
        <time>2021-05-20T12:11:07.976Z</time>
      </trkpt>
      <trkpt lat="48.7335" lon="2.02107">
        <ele>114</ele>
        <time>2021-05-20T12:11:08.976Z</time>
      </trkpt>
      <trkpt lat="48.73351" lon="2.02109">
        <ele>114</ele>
        <time>2021-05-20T12:11:09.976Z</time>
      </trkpt>
      <trkpt lat="48.73351" lon="2.02111">
        <ele>114</ele>
        <time>2021-05-20T12:11:10.976Z</time>
      </trkpt>
      <trkpt lat="48.73352" lon="2.02113">
        <ele>114</ele>
        <time>2021-05-20T12:11:11.976Z</time>
      </trkpt>
      <trkpt lat="48.73352" lon="2.02115">
        <ele>114</ele>
        <time>2021-05-20T12:11:12.976Z</time>
      </trkpt>
      <trkpt lat="48.73353" lon="2.02117">
        <ele>114</ele>
        <time>2021-05-20T12:11:13.976Z</time>
      </trkpt>
      <trkpt lat="48.73353" lon="2.02119">
        <ele>114</ele>
        <time>2021-05-20T12:11:14.976Z</time>
      </trkpt>
      <trkpt lat="48.73354" lon="2.02121">
        <ele>114</ele>
        <time>2021-05-20T12:11:15.976Z</time>
      </trkpt>
      <trkpt lat="48.73354" lon="2.02123">
        <ele>114</ele>
        <time>2021-05-20T12:11:16.976Z</time>
      </trkpt>
      <trkpt lat="48.73354" lon="2.02125">
        <ele>113</ele>
        <time>2021-05-20T12:11:17.976Z</time>
      </trkpt>
      <trkpt lat="48.73355" lon="2.02127">
        <ele>113</ele>
        <time>2021-05-20T12:11:18.976Z</time>
      </trkpt>
      <trkpt lat="48.73355" lon="2.02129">
        <ele>113</ele>
        <time>2021-05-20T12:11:19.976Z</time>
      </trkpt>
      <trkpt lat="48.73355" lon="2.02131">
        <ele>113</ele>
        <time>2021-05-20T12:11:20.976Z</time>
      </trkpt>
      <trkpt lat="48.73356" lon="2.02133">
        <ele>113</ele>
        <time>2021-05-20T12:11:21.976Z</time>
      </trkpt>
      <trkpt lat="48.73356" lon="2.02135">
        <ele>113</ele>
        <time>2021-05-20T12:11:22.976Z</time>
      </trkpt>
      <trkpt lat="48.73356" lon="2.02137">
        <ele>113</ele>
        <time>2021-05-20T12:11:23.976Z</time>
      </trkpt>
      <trkpt lat="48.73355" lon="2.02139">
        <ele>112</ele>
        <time>2021-05-20T12:11:24.976Z</time>
      </trkpt>
      <trkpt lat="48.73355" lon="2.02142">
        <ele>112</ele>
        <time>2021-05-20T12:11:25.976Z</time>
      </trkpt>
      <trkpt lat="48.73355" lon="2.02144">
        <ele>112</ele>
        <time>2021-05-20T12:11:26.976Z</time>
      </trkpt>
      <trkpt lat="48.73355" lon="2.02146">
        <ele>112</ele>
        <time>2021-05-20T12:11:27.976Z</time>
      </trkpt>
      <trkpt lat="48.73355" lon="2.02147">
        <ele>112</ele>
        <time>2021-05-20T12:11:28.976Z</time>
      </trkpt>
      <trkpt lat="48.73355" lon="2.02149">
        <ele>112</ele>
        <time>2021-05-20T12:11:29.976Z</time>
      </trkpt>
      <trkpt lat="48.73355" lon="2.02151">
        <ele>112</ele>
        <time>2021-05-20T12:11:30.976Z</time>
      </trkpt>
      <trkpt lat="48.73355" lon="2.02152">
        <ele>111</ele>
        <time>2021-05-20T12:11:31.976Z</time>
      </trkpt>
      <trkpt lat="48.73356" lon="2.02154">
        <ele>111</ele>
        <time>2021-05-20T12:11:32.976Z</time>
      </trkpt>
      <trkpt lat="48.73356" lon="2.02156">
        <ele>111</ele>
        <time>2021-05-20T12:11:33.976Z</time>
      </trkpt>
      <trkpt lat="48.73357" lon="2.02158">
        <ele>111</ele>
        <time>2021-05-20T12:11:34.976Z</time>
      </trkpt>
      <trkpt lat="48.73357" lon="2.0216">
        <ele>111</ele>
        <time>2021-05-20T12:11:35.976Z</time>
      </trkpt>
      <trkpt lat="48.73357" lon="2.02162">
        <ele>111</ele>
        <time>2021-05-20T12:11:36.976Z</time>
      </trkpt>
      <trkpt lat="48.73358" lon="2.02164">
        <ele>111</ele>
        <time>2021-05-20T12:11:37.976Z</time>
      </trkpt>
      <trkpt lat="48.73358" lon="2.02166">
        <ele>111</ele>
        <time>2021-05-20T12:11:38.976Z</time>
      </trkpt>
      <trkpt lat="48.73358" lon="2.02168">
        <ele>111</ele>
        <time>2021-05-20T12:11:39.976Z</time>
      </trkpt>
      <trkpt lat="48.73358" lon="2.0217">
        <ele>110</ele>
        <time>2021-05-20T12:11:40.976Z</time>
      </trkpt>
      <trkpt lat="48.73359" lon="2.02172">
        <ele>110</ele>
        <time>2021-05-20T12:11:41.976Z</time>
      </trkpt>
      <trkpt lat="48.73359" lon="2.02173">
        <ele>110</ele>
        <time>2021-05-20T12:11:42.976Z</time>
      </trkpt>
      <trkpt lat="48.73359" lon="2.02175">
        <ele>110</ele>
        <time>2021-05-20T12:11:43.976Z</time>
      </trkpt>
      <trkpt lat="48.7336" lon="2.02177">
        <ele>110</ele>
        <time>2021-05-20T12:11:44.976Z</time>
      </trkpt>
      <trkpt lat="48.7336" lon="2.02178">
        <ele>110</ele>
        <time>2021-05-20T12:11:45.976Z</time>
      </trkpt>
      <trkpt lat="48.73361" lon="2.0218">
        <ele>110</ele>
        <time>2021-05-20T12:11:46.976Z</time>
      </trkpt>
      <trkpt lat="48.73362" lon="2.02181">
        <ele>110</ele>
        <time>2021-05-20T12:11:47.976Z</time>
      </trkpt>
      <trkpt lat="48.73363" lon="2.02183">
        <ele>110</ele>
        <time>2021-05-20T12:11:48.976Z</time>
      </trkpt>
      <trkpt lat="48.73363" lon="2.02185">
        <ele>110</ele>
        <time>2021-05-20T12:11:49.976Z</time>
      </trkpt>
      <trkpt lat="48.73365" lon="2.02186">
        <ele>109</ele>
        <time>2021-05-20T12:11:50.976Z</time>
      </trkpt>
      <trkpt lat="48.73365" lon="2.02187">
        <ele>109</ele>
        <time>2021-05-20T12:11:51.976Z</time>
      </trkpt>
      <trkpt lat="48.73366" lon="2.02189">
        <ele>109</ele>
        <time>2021-05-20T12:11:52.976Z</time>
      </trkpt>
      <trkpt lat="48.73367" lon="2.02191">
        <ele>109</ele>
        <time>2021-05-20T12:11:53.976Z</time>
      </trkpt>
      <trkpt lat="48.73368" lon="2.02192">
        <ele>109</ele>
        <time>2021-05-20T12:11:54.976Z</time>
      </trkpt>
      <trkpt lat="48.73369" lon="2.02194">
        <ele>109</ele>
        <time>2021-05-20T12:11:55.976Z</time>
      </trkpt>
      <trkpt lat="48.7337" lon="2.02195">
        <ele>109</ele>
        <time>2021-05-20T12:11:56.976Z</time>
      </trkpt>
      <trkpt lat="48.7337" lon="2.02197">
        <ele>109</ele>
        <time>2021-05-20T12:11:57.976Z</time>
      </trkpt>
      <trkpt lat="48.73371" lon="2.02199">
        <ele>109</ele>
        <time>2021-05-20T12:11:58.976Z</time>
      </trkpt>
      <trkpt lat="48.73372" lon="2.02201">
        <ele>109</ele>
        <time>2021-05-20T12:11:59.976Z</time>
      </trkpt>
      <trkpt lat="48.73373" lon="2.02202">
        <ele>109</ele>
        <time>2021-05-20T12:12:00.976Z</time>
      </trkpt>
      <trkpt lat="48.73374" lon="2.02204">
        <ele>109</ele>
        <time>2021-05-20T12:12:01.976Z</time>
      </trkpt>
      <trkpt lat="48.73375" lon="2.02205">
        <ele>109</ele>
        <time>2021-05-20T12:12:02.976Z</time>
      </trkpt>
      <trkpt lat="48.73376" lon="2.02206">
        <ele>109</ele>
        <time>2021-05-20T12:12:03.976Z</time>
      </trkpt>
      <trkpt lat="48.73377" lon="2.02208">
        <ele>108</ele>
        <time>2021-05-20T12:12:04.976Z</time>
      </trkpt>
      <trkpt lat="48.73378" lon="2.02209">
        <ele>108</ele>
        <time>2021-05-20T12:12:05.976Z</time>
      </trkpt>
      <trkpt lat="48.73379" lon="2.02211">
        <ele>108</ele>
        <time>2021-05-20T12:12:06.976Z</time>
      </trkpt>
      <trkpt lat="48.7338" lon="2.02212">
        <ele>108</ele>
        <time>2021-05-20T12:12:07.976Z</time>
      </trkpt>
      <trkpt lat="48.73381" lon="2.02213">
        <ele>108</ele>
        <time>2021-05-20T12:12:08.976Z</time>
      </trkpt>
      <trkpt lat="48.73381" lon="2.02214">
        <ele>108</ele>
        <time>2021-05-20T12:12:09.976Z</time>
      </trkpt>
      <trkpt lat="48.73382" lon="2.02215">
        <ele>108</ele>
        <time>2021-05-20T12:12:10.976Z</time>
      </trkpt>
      <trkpt lat="48.73383" lon="2.02216">
        <ele>108</ele>
        <time>2021-05-20T12:12:11.976Z</time>
      </trkpt>
      <trkpt lat="48.73385" lon="2.02217">
        <ele>108</ele>
        <time>2021-05-20T12:12:12.976Z</time>
      </trkpt>
      <trkpt lat="48.73386" lon="2.02218">
        <ele>108</ele>
        <time>2021-05-20T12:12:13.976Z</time>
      </trkpt>
      <trkpt lat="48.73387" lon="2.02219">
        <ele>108</ele>
        <time>2021-05-20T12:12:14.976Z</time>
      </trkpt>
      <trkpt lat="48.73388" lon="2.0222">
        <ele>108</ele>
        <time>2021-05-20T12:12:15.976Z</time>
      </trkpt>
      <trkpt lat="48.73389" lon="2.02221">
        <ele>108</ele>
        <time>2021-05-20T12:12:16.976Z</time>
      </trkpt>
      <trkpt lat="48.7339" lon="2.02222">
        <ele>109</ele>
        <time>2021-05-20T12:12:26.987Z</time>
      </trkpt>
      <trkpt lat="48.73391" lon="2.02223">
        <ele>109</ele>
        <time>2021-05-20T12:12:27.987Z</time>
      </trkpt>
      <trkpt lat="48.73393" lon="2.02224">
        <ele>109</ele>
        <time>2021-05-20T12:12:28.987Z</time>
      </trkpt>
      <trkpt lat="48.73393" lon="2.02225">
        <ele>109</ele>
        <time>2021-05-20T12:12:29.987Z</time>
      </trkpt>
      <trkpt lat="48.73394" lon="2.02226">
        <ele>109</ele>
        <time>2021-05-20T12:12:30.987Z</time>
      </trkpt>
      <trkpt lat="48.73395" lon="2.02227">
        <ele>109</ele>
        <time>2021-05-20T12:12:31.987Z</time>
      </trkpt>
      <trkpt lat="48.73396" lon="2.02228">
        <ele>109</ele>
        <time>2021-05-20T12:12:32.987Z</time>
      </trkpt>
      <trkpt lat="48.73397" lon="2.02228">
        <ele>109</ele>
        <time>2021-05-20T12:12:33.987Z</time>
      </trkpt>
      <trkpt lat="48.73398" lon="2.02229">
        <ele>109</ele>
        <time>2021-05-20T12:12:34.987Z</time>
      </trkpt>
      <trkpt lat="48.73399" lon="2.0223">
        <ele>109</ele>
        <time>2021-05-20T12:12:35.987Z</time>
      </trkpt>
      <trkpt lat="48.73401" lon="2.02231">
        <ele>109</ele>
        <time>2021-05-20T12:12:36.987Z</time>
      </trkpt>
      <trkpt lat="48.73402" lon="2.02232">
        <ele>109</ele>
        <time>2021-05-20T12:12:37.987Z</time>
      </trkpt>
      <trkpt lat="48.73403" lon="2.02233">
        <ele>109</ele>
        <time>2021-05-20T12:12:38.987Z</time>
      </trkpt>
      <trkpt lat="48.73404" lon="2.02234">
        <ele>109</ele>
        <time>2021-05-20T12:12:39.987Z</time>
      </trkpt>
      <trkpt lat="48.73405" lon="2.02235">
        <ele>109</ele>
        <time>2021-05-20T12:12:40.987Z</time>
      </trkpt>
      <trkpt lat="48.73406" lon="2.02235">
        <ele>109</ele>
        <time>2021-05-20T12:12:41.987Z</time>
      </trkpt>
      <trkpt lat="48.73408" lon="2.02236">
        <ele>109</ele>
        <time>2021-05-20T12:12:42.987Z</time>
      </trkpt>
      <trkpt lat="48.73409" lon="2.02237">
        <ele>109</ele>
        <time>2021-05-20T12:12:43.987Z</time>
      </trkpt>
      <trkpt lat="48.7341" lon="2.02239">
        <ele>109</ele>
        <time>2021-05-20T12:12:44.987Z</time>
      </trkpt>
      <trkpt lat="48.73411" lon="2.0224">
        <ele>109</ele>
        <time>2021-05-20T12:12:45.987Z</time>
      </trkpt>
      <trkpt lat="48.73412" lon="2.02241">
        <ele>109</ele>
        <time>2021-05-20T12:12:46.987Z</time>
      </trkpt>
      <trkpt lat="48.73413" lon="2.02243">
        <ele>109</ele>
        <time>2021-05-20T12:12:47.987Z</time>
      </trkpt>
      <trkpt lat="48.73414" lon="2.02244">
        <ele>109</ele>
        <time>2021-05-20T12:12:48.987Z</time>
      </trkpt>
      <trkpt lat="48.73415" lon="2.02245">
        <ele>108</ele>
        <time>2021-05-20T12:12:49.987Z</time>
      </trkpt>
      <trkpt lat="48.73416" lon="2.02246">
        <ele>108</ele>
        <time>2021-05-20T12:12:50.987Z</time>
      </trkpt>
      <trkpt lat="48.73417" lon="2.02247">
        <ele>108</ele>
        <time>2021-05-20T12:12:51.987Z</time>
      </trkpt>
      <trkpt lat="48.73418" lon="2.02248">
        <ele>108</ele>
        <time>2021-05-20T12:12:52.987Z</time>
      </trkpt>
      <trkpt lat="48.73419" lon="2.02249">
        <ele>108</ele>
        <time>2021-05-20T12:12:53.987Z</time>
      </trkpt>
      <trkpt lat="48.7342" lon="2.02251">
        <ele>108</ele>
        <time>2021-05-20T12:12:54.987Z</time>
      </trkpt>
      <trkpt lat="48.73421" lon="2.02252">
        <ele>108</ele>
        <time>2021-05-20T12:12:55.987Z</time>
      </trkpt>
      <trkpt lat="48.73423" lon="2.02253">
        <ele>108</ele>
        <time>2021-05-20T12:12:56.987Z</time>
      </trkpt>
      <trkpt lat="48.73424" lon="2.02254">
        <ele>108</ele>
        <time>2021-05-20T12:12:57.987Z</time>
      </trkpt>
      <trkpt lat="48.73425" lon="2.02256">
        <ele>108</ele>
        <time>2021-05-20T12:12:58.987Z</time>
      </trkpt>
      <trkpt lat="48.73425" lon="2.02257">
        <ele>108</ele>
        <time>2021-05-20T12:12:59.987Z</time>
      </trkpt>
      <trkpt lat="48.73426" lon="2.02258">
        <ele>108</ele>
        <time>2021-05-20T12:13:00.987Z</time>
      </trkpt>
      <trkpt lat="48.73428" lon="2.02259">
        <ele>108</ele>
        <time>2021-05-20T12:13:01.987Z</time>
      </trkpt>
      <trkpt lat="48.73429" lon="2.02261">
        <ele>108</ele>
        <time>2021-05-20T12:13:02.987Z</time>
      </trkpt>
      <trkpt lat="48.7343" lon="2.02262">
        <ele>108</ele>
        <time>2021-05-20T12:13:03.987Z</time>
      </trkpt>
      <trkpt lat="48.73431" lon="2.02264">
        <ele>108</ele>
        <time>2021-05-20T12:13:04.987Z</time>
      </trkpt>
      <trkpt lat="48.73432" lon="2.02265">
        <ele>108</ele>
        <time>2021-05-20T12:13:05.987Z</time>
      </trkpt>
      <trkpt lat="48.73433" lon="2.02266">
        <ele>108</ele>
        <time>2021-05-20T12:13:06.987Z</time>
      </trkpt>
      <trkpt lat="48.73434" lon="2.02267">
        <ele>108</ele>
        <time>2021-05-20T12:13:07.987Z</time>
      </trkpt>
      <trkpt lat="48.73435" lon="2.02268">
        <ele>108</ele>
        <time>2021-05-20T12:13:08.987Z</time>
      </trkpt>
      <trkpt lat="48.73436" lon="2.02269">
        <ele>108</ele>
        <time>2021-05-20T12:13:09.987Z</time>
      </trkpt>
      <trkpt lat="48.73437" lon="2.0227">
        <ele>109</ele>
        <time>2021-05-20T12:13:10.987Z</time>
      </trkpt>
      <trkpt lat="48.73438" lon="2.02272">
        <ele>109</ele>
        <time>2021-05-20T12:13:11.987Z</time>
      </trkpt>
      <trkpt lat="48.73439" lon="2.02273">
        <ele>109</ele>
        <time>2021-05-20T12:13:12.987Z</time>
      </trkpt>
      <trkpt lat="48.7344" lon="2.02274">
        <ele>109</ele>
        <time>2021-05-20T12:13:13.987Z</time>
      </trkpt>
      <trkpt lat="48.73441" lon="2.02276">
        <ele>109</ele>
        <time>2021-05-20T12:13:14.987Z</time>
      </trkpt>
      <trkpt lat="48.73442" lon="2.02277">
        <ele>109</ele>
        <time>2021-05-20T12:13:15.987Z</time>
      </trkpt>
      <trkpt lat="48.73443" lon="2.02279">
        <ele>109</ele>
        <time>2021-05-20T12:13:16.987Z</time>
      </trkpt>
      <trkpt lat="48.73444" lon="2.0228">
        <ele>109</ele>
        <time>2021-05-20T12:13:17.987Z</time>
      </trkpt>
      <trkpt lat="48.73445" lon="2.02281">
        <ele>109</ele>
        <time>2021-05-20T12:13:18.987Z</time>
      </trkpt>
      <trkpt lat="48.73446" lon="2.02282">
        <ele>109</ele>
        <time>2021-05-20T12:13:19.987Z</time>
      </trkpt>
      <trkpt lat="48.73447" lon="2.02283">
        <ele>109</ele>
        <time>2021-05-20T12:13:20.987Z</time>
      </trkpt>
      <trkpt lat="48.73448" lon="2.02284">
        <ele>109</ele>
        <time>2021-05-20T12:13:21.987Z</time>
      </trkpt>
      <trkpt lat="48.73449" lon="2.02285">
        <ele>109</ele>
        <time>2021-05-20T12:13:22.987Z</time>
      </trkpt>
      <trkpt lat="48.7345" lon="2.02286">
        <ele>110</ele>
        <time>2021-05-20T12:13:23.987Z</time>
      </trkpt>
      <trkpt lat="48.73451" lon="2.02287">
        <ele>110</ele>
        <time>2021-05-20T12:13:24.987Z</time>
      </trkpt>
      <trkpt lat="48.73452" lon="2.02288">
        <ele>110</ele>
        <time>2021-05-20T12:13:25.987Z</time>
      </trkpt>
      <trkpt lat="48.73453" lon="2.02289">
        <ele>110</ele>
        <time>2021-05-20T12:13:26.987Z</time>
      </trkpt>
      <trkpt lat="48.73454" lon="2.02289">
        <ele>110</ele>
        <time>2021-05-20T12:13:27.987Z</time>
      </trkpt>
      <trkpt lat="48.73455" lon="2.0229">
        <ele>110</ele>
        <time>2021-05-20T12:13:28.987Z</time>
      </trkpt>
      <trkpt lat="48.73456" lon="2.0229">
        <ele>110</ele>
        <time>2021-05-20T12:13:29.987Z</time>
      </trkpt>
      <trkpt lat="48.73457" lon="2.0229">
        <ele>110</ele>
        <time>2021-05-20T12:13:30.987Z</time>
      </trkpt>
      <trkpt lat="48.73458" lon="2.02291">
        <ele>110</ele>
        <time>2021-05-20T12:13:31.987Z</time>
      </trkpt>
      <trkpt lat="48.7346" lon="2.02291">
        <ele>111</ele>
        <time>2021-05-20T12:13:32.987Z</time>
      </trkpt>
      <trkpt lat="48.73461" lon="2.02291">
        <ele>111</ele>
        <time>2021-05-20T12:13:33.987Z</time>
      </trkpt>
      <trkpt lat="48.73461" lon="2.02291">
        <ele>111</ele>
        <time>2021-05-20T12:13:34.987Z</time>
      </trkpt>
      <trkpt lat="48.73462" lon="2.02291">
        <ele>111</ele>
        <time>2021-05-20T12:13:35.987Z</time>
      </trkpt>
      <trkpt lat="48.73463" lon="2.02291">
        <ele>111</ele>
        <time>2021-05-20T12:13:36.987Z</time>
      </trkpt>
      <trkpt lat="48.73464" lon="2.02292">
        <ele>111</ele>
        <time>2021-05-20T12:13:37.987Z</time>
      </trkpt>
      <trkpt lat="48.73465" lon="2.02291">
        <ele>111</ele>
        <time>2021-05-20T12:13:38.987Z</time>
      </trkpt>
      <trkpt lat="48.73466" lon="2.02291">
        <ele>111</ele>
        <time>2021-05-20T12:13:39.987Z</time>
      </trkpt>
      <trkpt lat="48.73468" lon="2.02291">
        <ele>112</ele>
        <time>2021-05-20T12:13:40.987Z</time>
      </trkpt>
      <trkpt lat="48.73469" lon="2.02291">
        <ele>112</ele>
        <time>2021-05-20T12:13:41.987Z</time>
      </trkpt>
      <trkpt lat="48.7347" lon="2.02291">
        <ele>112</ele>
        <time>2021-05-20T12:13:42.987Z</time>
      </trkpt>
      <trkpt lat="48.73471" lon="2.02292">
        <ele>112</ele>
        <time>2021-05-20T12:13:43.987Z</time>
      </trkpt>
      <trkpt lat="48.73472" lon="2.02292">
        <ele>112</ele>
        <time>2021-05-20T12:13:44.987Z</time>
      </trkpt>
      <trkpt lat="48.73473" lon="2.02292">
        <ele>112</ele>
        <time>2021-05-20T12:13:45.987Z</time>
      </trkpt>
      <trkpt lat="48.73474" lon="2.02292">
        <ele>112</ele>
        <time>2021-05-20T12:13:46.987Z</time>
      </trkpt>
      <trkpt lat="48.73475" lon="2.02292">
        <ele>112</ele>
        <time>2021-05-20T12:13:47.987Z</time>
      </trkpt>
      <trkpt lat="48.73476" lon="2.02292">
        <ele>113</ele>
        <time>2021-05-20T12:13:48.987Z</time>
      </trkpt>
      <trkpt lat="48.73477" lon="2.02292">
        <ele>113</ele>
        <time>2021-05-20T12:13:49.987Z</time>
      </trkpt>
      <trkpt lat="48.73478" lon="2.02292">
        <ele>113</ele>
        <time>2021-05-20T12:13:50.987Z</time>
      </trkpt>
      <trkpt lat="48.7348" lon="2.02292">
        <ele>113</ele>
        <time>2021-05-20T12:13:51.987Z</time>
      </trkpt>
      <trkpt lat="48.73481" lon="2.02292">
        <ele>113</ele>
        <time>2021-05-20T12:13:52.987Z</time>
      </trkpt>
      <trkpt lat="48.73483" lon="2.02292">
        <ele>113</ele>
        <time>2021-05-20T12:13:53.987Z</time>
      </trkpt>
      <trkpt lat="48.73484" lon="2.02292">
        <ele>113</ele>
        <time>2021-05-20T12:13:54.987Z</time>
      </trkpt>
      <trkpt lat="48.73485" lon="2.02292">
        <ele>113</ele>
        <time>2021-05-20T12:13:55.987Z</time>
      </trkpt>
      <trkpt lat="48.73487" lon="2.02292">
        <ele>114</ele>
        <time>2021-05-20T12:13:56.987Z</time>
      </trkpt>
      <trkpt lat="48.73488" lon="2.02292">
        <ele>114</ele>
        <time>2021-05-20T12:13:57.987Z</time>
      </trkpt>
      <trkpt lat="48.73489" lon="2.02292">
        <ele>114</ele>
        <time>2021-05-20T12:13:58.987Z</time>
      </trkpt>
      <trkpt lat="48.7349" lon="2.02293">
        <ele>114</ele>
        <time>2021-05-20T12:13:59.987Z</time>
      </trkpt>
      <trkpt lat="48.73491" lon="2.02293">
        <ele>114</ele>
        <time>2021-05-20T12:14:00.987Z</time>
      </trkpt>
      <trkpt lat="48.73492" lon="2.02292">
        <ele>114</ele>
        <time>2021-05-20T12:14:01.987Z</time>
      </trkpt>
      <trkpt lat="48.73493" lon="2.02292">
        <ele>114</ele>
        <time>2021-05-20T12:14:02.987Z</time>
      </trkpt>
      <trkpt lat="48.73495" lon="2.02292">
        <ele>114</ele>
        <time>2021-05-20T12:14:03.987Z</time>
      </trkpt>
      <trkpt lat="48.73496" lon="2.02292">
        <ele>114</ele>
        <time>2021-05-20T12:14:04.987Z</time>
      </trkpt>
      <trkpt lat="48.73497" lon="2.02293">
        <ele>114</ele>
        <time>2021-05-20T12:14:05.987Z</time>
      </trkpt>
      <trkpt lat="48.73498" lon="2.02293">
        <ele>115</ele>
        <time>2021-05-20T12:14:06.987Z</time>
      </trkpt>
      <trkpt lat="48.73499" lon="2.02293">
        <ele>115</ele>
        <time>2021-05-20T12:14:07.987Z</time>
      </trkpt>
      <trkpt lat="48.735" lon="2.02294">
        <ele>115</ele>
        <time>2021-05-20T12:14:08.987Z</time>
      </trkpt>
      <trkpt lat="48.73502" lon="2.02294">
        <ele>115</ele>
        <time>2021-05-20T12:14:09.987Z</time>
      </trkpt>
      <trkpt lat="48.73503" lon="2.02294">
        <ele>115</ele>
        <time>2021-05-20T12:14:10.987Z</time>
      </trkpt>
      <trkpt lat="48.73504" lon="2.02294">
        <ele>115</ele>
        <time>2021-05-20T12:14:11.987Z</time>
      </trkpt>
      <trkpt lat="48.73506" lon="2.02294">
        <ele>115</ele>
        <time>2021-05-20T12:14:12.987Z</time>
      </trkpt>
      <trkpt lat="48.73507" lon="2.02294">
        <ele>115</ele>
        <time>2021-05-20T12:14:13.987Z</time>
      </trkpt>
      <trkpt lat="48.73508" lon="2.02294">
        <ele>115</ele>
        <time>2021-05-20T12:14:14.987Z</time>
      </trkpt>
      <trkpt lat="48.73509" lon="2.02294">
        <ele>115</ele>
        <time>2021-05-20T12:14:15.987Z</time>
      </trkpt>
      <trkpt lat="48.7351" lon="2.02294">
        <ele>115</ele>
        <time>2021-05-20T12:14:16.987Z</time>
      </trkpt>
      <trkpt lat="48.73511" lon="2.02294">
        <ele>115</ele>
        <time>2021-05-20T12:14:17.987Z</time>
      </trkpt>
      <trkpt lat="48.73512" lon="2.02294">
        <ele>115</ele>
        <time>2021-05-20T12:14:18.987Z</time>
      </trkpt>
      <trkpt lat="48.73513" lon="2.02294">
        <ele>116</ele>
        <time>2021-05-20T12:14:19.987Z</time>
      </trkpt>
      <trkpt lat="48.73514" lon="2.02294">
        <ele>116</ele>
        <time>2021-05-20T12:14:20.987Z</time>
      </trkpt>
      <trkpt lat="48.73516" lon="2.02294">
        <ele>116</ele>
        <time>2021-05-20T12:14:21.987Z</time>
      </trkpt>
      <trkpt lat="48.73517" lon="2.02294">
        <ele>116</ele>
        <time>2021-05-20T12:14:22.987Z</time>
      </trkpt>
      <trkpt lat="48.73518" lon="2.02294">
        <ele>116</ele>
        <time>2021-05-20T12:14:23.987Z</time>
      </trkpt>
      <trkpt lat="48.73519" lon="2.02293">
        <ele>116</ele>
        <time>2021-05-20T12:14:24.987Z</time>
      </trkpt>
      <trkpt lat="48.73521" lon="2.02293">
        <ele>116</ele>
        <time>2021-05-20T12:14:25.987Z</time>
      </trkpt>
      <trkpt lat="48.73522" lon="2.02293">
        <ele>116</ele>
        <time>2021-05-20T12:15:04.986Z</time>
      </trkpt>
      <trkpt lat="48.73523" lon="2.02293">
        <ele>116</ele>
        <time>2021-05-20T12:15:05.986Z</time>
      </trkpt>
      <trkpt lat="48.73525" lon="2.02293">
        <ele>116</ele>
        <time>2021-05-20T12:15:06.986Z</time>
      </trkpt>
      <trkpt lat="48.73526" lon="2.02293">
        <ele>117</ele>
        <time>2021-05-20T12:15:07.986Z</time>
      </trkpt>
      <trkpt lat="48.73528" lon="2.02293">
        <ele>117</ele>
        <time>2021-05-20T12:15:08.986Z</time>
      </trkpt>
      <trkpt lat="48.73529" lon="2.02293">
        <ele>117</ele>
        <time>2021-05-20T12:15:09.986Z</time>
      </trkpt>
      <trkpt lat="48.7353" lon="2.02292">
        <ele>117</ele>
        <time>2021-05-20T12:15:10.986Z</time>
      </trkpt>
      <trkpt lat="48.73532" lon="2.02292">
        <ele>117</ele>
        <time>2021-05-20T12:15:11.986Z</time>
      </trkpt>
      <trkpt lat="48.73533" lon="2.02292">
        <ele>117</ele>
        <time>2021-05-20T12:15:12.986Z</time>
      </trkpt>
      <trkpt lat="48.73534" lon="2.02291">
        <ele>118</ele>
        <time>2021-05-20T12:15:13.986Z</time>
      </trkpt>
      <trkpt lat="48.73535" lon="2.02291">
        <ele>118</ele>
        <time>2021-05-20T12:15:14.986Z</time>
      </trkpt>
      <trkpt lat="48.73537" lon="2.0229">
        <ele>118</ele>
        <time>2021-05-20T12:15:15.986Z</time>
      </trkpt>
      <trkpt lat="48.73538" lon="2.0229">
        <ele>118</ele>
        <time>2021-05-20T12:15:16.986Z</time>
      </trkpt>
      <trkpt lat="48.73539" lon="2.0229">
        <ele>118</ele>
        <time>2021-05-20T12:15:17.986Z</time>
      </trkpt>
      <trkpt lat="48.7354" lon="2.0229">
        <ele>118</ele>
        <time>2021-05-20T12:15:18.986Z</time>
      </trkpt>
      <trkpt lat="48.73541" lon="2.0229">
        <ele>118</ele>
        <time>2021-05-20T12:15:19.986Z</time>
      </trkpt>
      <trkpt lat="48.73542" lon="2.0229">
        <ele>118</ele>
        <time>2021-05-20T12:15:20.986Z</time>
      </trkpt>
      <trkpt lat="48.73544" lon="2.0229">
        <ele>118</ele>
        <time>2021-05-20T12:15:21.986Z</time>
      </trkpt>
      <trkpt lat="48.73545" lon="2.0229">
        <ele>118</ele>
        <time>2021-05-20T12:15:22.986Z</time>
      </trkpt>
      <trkpt lat="48.73547" lon="2.0229">
        <ele>118</ele>
        <time>2021-05-20T12:15:23.986Z</time>
      </trkpt>
      <trkpt lat="48.73548" lon="2.0229">
        <ele>118</ele>
        <time>2021-05-20T12:15:24.986Z</time>
      </trkpt>
      <trkpt lat="48.7355" lon="2.0229">
        <ele>118</ele>
        <time>2021-05-20T12:15:25.986Z</time>
      </trkpt>
      <trkpt lat="48.73551" lon="2.0229">
        <ele>119</ele>
        <time>2021-05-20T12:15:26.986Z</time>
      </trkpt>
      <trkpt lat="48.73552" lon="2.0229">
        <ele>119</ele>
        <time>2021-05-20T12:15:27.986Z</time>
      </trkpt>
      <trkpt lat="48.73553" lon="2.02289">
        <ele>119</ele>
        <time>2021-05-20T12:15:28.986Z</time>
      </trkpt>
      <trkpt lat="48.73554" lon="2.02289">
        <ele>119</ele>
        <time>2021-05-20T12:15:29.986Z</time>
      </trkpt>
      <trkpt lat="48.73556" lon="2.02289">
        <ele>119</ele>
        <time>2021-05-20T12:15:30.986Z</time>
      </trkpt>
      <trkpt lat="48.73557" lon="2.02289">
        <ele>119</ele>
        <time>2021-05-20T12:15:31.986Z</time>
      </trkpt>
      <trkpt lat="48.73558" lon="2.02289">
        <ele>119</ele>
        <time>2021-05-20T12:15:32.986Z</time>
      </trkpt>
      <trkpt lat="48.73559" lon="2.02289">
        <ele>119</ele>
        <time>2021-05-20T12:15:33.986Z</time>
      </trkpt>
      <trkpt lat="48.7356" lon="2.02289">
        <ele>119</ele>
        <time>2021-05-20T12:15:34.986Z</time>
      </trkpt>
      <trkpt lat="48.73562" lon="2.02289">
        <ele>119</ele>
        <time>2021-05-20T12:15:35.986Z</time>
      </trkpt>
      <trkpt lat="48.73563" lon="2.02289">
        <ele>119</ele>
        <time>2021-05-20T12:15:36.986Z</time>
      </trkpt>
      <trkpt lat="48.73564" lon="2.02289">
        <ele>120</ele>
        <time>2021-05-20T12:15:37.986Z</time>
      </trkpt>
      <trkpt lat="48.73566" lon="2.02289">
        <ele>120</ele>
        <time>2021-05-20T12:15:38.986Z</time>
      </trkpt>
      <trkpt lat="48.73567" lon="2.02289">
        <ele>120</ele>
        <time>2021-05-20T12:15:39.986Z</time>
      </trkpt>
      <trkpt lat="48.73568" lon="2.02289">
        <ele>120</ele>
        <time>2021-05-20T12:15:40.986Z</time>
      </trkpt>
      <trkpt lat="48.73569" lon="2.02289">
        <ele>120</ele>
        <time>2021-05-20T12:15:41.986Z</time>
      </trkpt>
      <trkpt lat="48.7357" lon="2.02289">
        <ele>120</ele>
        <time>2021-05-20T12:15:42.986Z</time>
      </trkpt>
      <trkpt lat="48.73571" lon="2.02289">
        <ele>121</ele>
        <time>2021-05-20T12:15:43.986Z</time>
      </trkpt>
      <trkpt lat="48.73572" lon="2.02289">
        <ele>121</ele>
        <time>2021-05-20T12:15:44.986Z</time>
      </trkpt>
      <trkpt lat="48.73573" lon="2.02289">
        <ele>121</ele>
        <time>2021-05-20T12:15:45.986Z</time>
      </trkpt>
      <trkpt lat="48.73574" lon="2.02288">
        <ele>121</ele>
        <time>2021-05-20T12:15:46.986Z</time>
      </trkpt>
      <trkpt lat="48.73575" lon="2.02288">
        <ele>121</ele>
        <time>2021-05-20T12:15:47.986Z</time>
      </trkpt>
      <trkpt lat="48.73576" lon="2.02288">
        <ele>122</ele>
        <time>2021-05-20T12:15:51.259Z</time>
      </trkpt>
      <trkpt lat="48.73577" lon="2.02288">
        <ele>122</ele>
        <time>2021-05-20T12:15:52.259Z</time>
      </trkpt>
      <trkpt lat="48.73578" lon="2.02288">
        <ele>122</ele>
        <time>2021-05-20T12:15:53.259Z</time>
      </trkpt>
      <trkpt lat="48.73579" lon="2.02288">
        <ele>122</ele>
        <time>2021-05-20T12:15:54.259Z</time>
      </trkpt>
      <trkpt lat="48.7358" lon="2.02288">
        <ele>122</ele>
        <time>2021-05-20T12:15:55.259Z</time>
      </trkpt>
      <trkpt lat="48.73581" lon="2.02288">
        <ele>123</ele>
        <time>2021-05-20T12:15:56.259Z</time>
      </trkpt>
      <trkpt lat="48.73582" lon="2.02288">
        <ele>123</ele>
        <time>2021-05-20T12:15:57.259Z</time>
      </trkpt>
      <trkpt lat="48.73583" lon="2.02288">
        <ele>123</ele>
        <time>2021-05-20T12:15:58.259Z</time>
      </trkpt>
      <trkpt lat="48.73584" lon="2.02287">
        <ele>123</ele>
        <time>2021-05-20T12:15:59.259Z</time>
      </trkpt>
      <trkpt lat="48.73586" lon="2.02287">
        <ele>124</ele>
        <time>2021-05-20T12:16:00.259Z</time>
      </trkpt>
      <trkpt lat="48.73587" lon="2.02287">
        <ele>124</ele>
        <time>2021-05-20T12:16:01.259Z</time>
      </trkpt>
      <trkpt lat="48.73588" lon="2.02288">
        <ele>124</ele>
        <time>2021-05-20T12:16:02.259Z</time>
      </trkpt>
      <trkpt lat="48.7359" lon="2.02288">
        <ele>125</ele>
        <time>2021-05-20T12:16:03.259Z</time>
      </trkpt>
      <trkpt lat="48.73591" lon="2.02288">
        <ele>125</ele>
        <time>2021-05-20T12:16:04.259Z</time>
      </trkpt>
      <trkpt lat="48.73593" lon="2.02289">
        <ele>125</ele>
        <time>2021-05-20T12:16:05.259Z</time>
      </trkpt>
      <trkpt lat="48.73594" lon="2.02288">
        <ele>126</ele>
        <time>2021-05-20T12:16:06.259Z</time>
      </trkpt>
      <trkpt lat="48.73595" lon="2.02288">
        <ele>126</ele>
        <time>2021-05-20T12:16:07.259Z</time>
      </trkpt>
      <trkpt lat="48.73597" lon="2.02288">
        <ele>126</ele>
        <time>2021-05-20T12:16:08.259Z</time>
      </trkpt>
      <trkpt lat="48.73598" lon="2.02288">
        <ele>127</ele>
        <time>2021-05-20T12:16:09.259Z</time>
      </trkpt>
      <trkpt lat="48.73599" lon="2.02288">
        <ele>127</ele>
        <time>2021-05-20T12:16:10.259Z</time>
      </trkpt>
      <trkpt lat="48.736" lon="2.02288">
        <ele>127</ele>
        <time>2021-05-20T12:16:11.259Z</time>
      </trkpt>
      <trkpt lat="48.73602" lon="2.02289">
        <ele>127</ele>
        <time>2021-05-20T12:16:12.259Z</time>
      </trkpt>
      <trkpt lat="48.73603" lon="2.02289">
        <ele>127</ele>
        <time>2021-05-20T12:16:13.259Z</time>
      </trkpt>
      <trkpt lat="48.73604" lon="2.02288">
        <ele>128</ele>
        <time>2021-05-20T12:16:14.259Z</time>
      </trkpt>
      <trkpt lat="48.73606" lon="2.02288">
        <ele>128</ele>
        <time>2021-05-20T12:16:15.259Z</time>
      </trkpt>
      <trkpt lat="48.73607" lon="2.02288">
        <ele>128</ele>
        <time>2021-05-20T12:16:16.259Z</time>
      </trkpt>
      <trkpt lat="48.73609" lon="2.02288">
        <ele>128</ele>
        <time>2021-05-20T12:16:17.259Z</time>
      </trkpt>
      <trkpt lat="48.7361" lon="2.02287">
        <ele>128</ele>
        <time>2021-05-20T12:16:18.259Z</time>
      </trkpt>
      <trkpt lat="48.73612" lon="2.02287">
        <ele>128</ele>
        <time>2021-05-20T12:16:19.259Z</time>
      </trkpt>
      <trkpt lat="48.73613" lon="2.02287">
        <ele>128</ele>
        <time>2021-05-20T12:16:20.259Z</time>
      </trkpt>
      <trkpt lat="48.73615" lon="2.02287">
        <ele>128</ele>
        <time>2021-05-20T12:16:21.259Z</time>
      </trkpt>
      <trkpt lat="48.73616" lon="2.02287">
        <ele>127</ele>
        <time>2021-05-20T12:16:22.259Z</time>
      </trkpt>
      <trkpt lat="48.73617" lon="2.02287">
        <ele>127</ele>
        <time>2021-05-20T12:16:23.259Z</time>
      </trkpt>
      <trkpt lat="48.73619" lon="2.02286">
        <ele>127</ele>
        <time>2021-05-20T12:16:24.259Z</time>
      </trkpt>
      <trkpt lat="48.7362" lon="2.02286">
        <ele>127</ele>
        <time>2021-05-20T12:16:25.259Z</time>
      </trkpt>
      <trkpt lat="48.73621" lon="2.02286">
        <ele>127</ele>
        <time>2021-05-20T12:16:26.259Z</time>
      </trkpt>
      <trkpt lat="48.73623" lon="2.02286">
        <ele>127</ele>
        <time>2021-05-20T12:16:27.259Z</time>
      </trkpt>
      <trkpt lat="48.73624" lon="2.02285">
        <ele>127</ele>
        <time>2021-05-20T12:16:28.259Z</time>
      </trkpt>
      <trkpt lat="48.73625" lon="2.02285">
        <ele>127</ele>
        <time>2021-05-20T12:16:29.259Z</time>
      </trkpt>
      <trkpt lat="48.73627" lon="2.02285">
        <ele>127</ele>
        <time>2021-05-20T12:16:30.259Z</time>
      </trkpt>
      <trkpt lat="48.73628" lon="2.02285">
        <ele>126</ele>
        <time>2021-05-20T12:16:31.259Z</time>
      </trkpt>
      <trkpt lat="48.73629" lon="2.02285">
        <ele>126</ele>
        <time>2021-05-20T12:16:32.259Z</time>
      </trkpt>
      <trkpt lat="48.73631" lon="2.02285">
        <ele>126</ele>
        <time>2021-05-20T12:16:33.259Z</time>
      </trkpt>
      <trkpt lat="48.73632" lon="2.02284">
        <ele>126</ele>
        <time>2021-05-20T12:16:34.259Z</time>
      </trkpt>
      <trkpt lat="48.73633" lon="2.02284">
        <ele>126</ele>
        <time>2021-05-20T12:16:35.259Z</time>
      </trkpt>
      <trkpt lat="48.73634" lon="2.02284">
        <ele>126</ele>
        <time>2021-05-20T12:16:36.259Z</time>
      </trkpt>
      <trkpt lat="48.73635" lon="2.02283">
        <ele>126</ele>
        <time>2021-05-20T12:16:37.259Z</time>
      </trkpt>
      <trkpt lat="48.73636" lon="2.02283">
        <ele>126</ele>
        <time>2021-05-20T12:16:38.259Z</time>
      </trkpt>
      <trkpt lat="48.73637" lon="2.02283">
        <ele>126</ele>
        <time>2021-05-20T12:16:39.259Z</time>
      </trkpt>
      <trkpt lat="48.73639" lon="2.02283">
        <ele>126</ele>
        <time>2021-05-20T12:16:40.259Z</time>
      </trkpt>
      <trkpt lat="48.7364" lon="2.02283">
        <ele>126</ele>
        <time>2021-05-20T12:16:41.259Z</time>
      </trkpt>
      <trkpt lat="48.73641" lon="2.02283">
        <ele>126</ele>
        <time>2021-05-20T12:16:42.259Z</time>
      </trkpt>
      <trkpt lat="48.73642" lon="2.02283">
        <ele>126</ele>
        <time>2021-05-20T12:16:43.259Z</time>
      </trkpt>
      <trkpt lat="48.73643" lon="2.02283">
        <ele>126</ele>
        <time>2021-05-20T12:16:44.259Z</time>
      </trkpt>
      <trkpt lat="48.73644" lon="2.02283">
        <ele>126</ele>
        <time>2021-05-20T12:16:45.259Z</time>
      </trkpt>
      <trkpt lat="48.73645" lon="2.02283">
        <ele>126</ele>
        <time>2021-05-20T12:16:46.259Z</time>
      </trkpt>
      <trkpt lat="48.73647" lon="2.02283">
        <ele>126</ele>
        <time>2021-05-20T12:16:47.259Z</time>
      </trkpt>
      <trkpt lat="48.73648" lon="2.02284">
        <ele>126</ele>
        <time>2021-05-20T12:16:50.531Z</time>
      </trkpt>
      <trkpt lat="48.7365" lon="2.02284">
        <ele>126</ele>
        <time>2021-05-20T12:16:51.531Z</time>
      </trkpt>
      <trkpt lat="48.73651" lon="2.02284">
        <ele>126</ele>
        <time>2021-05-20T12:16:52.531Z</time>
      </trkpt>
      <trkpt lat="48.73653" lon="2.02284">
        <ele>126</ele>
        <time>2021-05-20T12:16:53.531Z</time>
      </trkpt>
      <trkpt lat="48.73654" lon="2.02284">
        <ele>126</ele>
        <time>2021-05-20T12:16:56.804Z</time>
      </trkpt>
      <trkpt lat="48.73655" lon="2.02284">
        <ele>126</ele>
        <time>2021-05-20T12:16:57.804Z</time>
      </trkpt>
      <trkpt lat="48.73656" lon="2.02283">
        <ele>127</ele>
        <time>2021-05-20T12:16:58.804Z</time>
      </trkpt>
      <trkpt lat="48.73657" lon="2.02284">
        <ele>127</ele>
        <time>2021-05-20T12:16:59.804Z</time>
      </trkpt>
      <trkpt lat="48.73658" lon="2.02283">
        <ele>127</ele>
        <time>2021-05-20T12:17:00.804Z</time>
      </trkpt>
      <trkpt lat="48.73659" lon="2.02283">
        <ele>127</ele>
        <time>2021-05-20T12:17:01.804Z</time>
      </trkpt>
      <trkpt lat="48.7366" lon="2.02283">
        <ele>127</ele>
        <time>2021-05-20T12:17:05.805Z</time>
      </trkpt>
      <trkpt lat="48.73661" lon="2.02283">
        <ele>127</ele>
        <time>2021-05-20T12:17:06.805Z</time>
      </trkpt>
      <trkpt lat="48.73662" lon="2.02283">
        <ele>127</ele>
        <time>2021-05-20T12:17:07.805Z</time>
      </trkpt>
      <trkpt lat="48.73663" lon="2.02282">
        <ele>127</ele>
        <time>2021-05-20T12:17:13.807Z</time>
      </trkpt>
      <trkpt lat="48.73665" lon="2.02282">
        <ele>128</ele>
        <time>2021-05-20T12:17:14.807Z</time>
      </trkpt>
      <trkpt lat="48.73666" lon="2.02282">
        <ele>128</ele>
        <time>2021-05-20T12:17:15.807Z</time>
      </trkpt>
      <trkpt lat="48.73667" lon="2.02281">
        <ele>128</ele>
        <time>2021-05-20T12:17:25.810Z</time>
      </trkpt>
      <trkpt lat="48.73668" lon="2.0228">
        <ele>128</ele>
        <time>2021-05-20T12:17:26.810Z</time>
      </trkpt>
      <trkpt lat="48.73668" lon="2.0228">
        <ele>128</ele>
        <time>2021-05-20T12:17:27.810Z</time>
      </trkpt>
      <trkpt lat="48.73669" lon="2.02279">
        <ele>128</ele>
        <time>2021-05-20T12:17:28.810Z</time>
      </trkpt>
      <trkpt lat="48.7367" lon="2.02278">
        <ele>128</ele>
        <time>2021-05-20T12:17:29.810Z</time>
      </trkpt>
      <trkpt lat="48.73671" lon="2.02277">
        <ele>128</ele>
        <time>2021-05-20T12:17:30.810Z</time>
      </trkpt>
      <trkpt lat="48.73672" lon="2.02276">
        <ele>128</ele>
        <time>2021-05-20T12:17:31.810Z</time>
      </trkpt>
      <trkpt lat="48.73673" lon="2.02276">
        <ele>128</ele>
        <time>2021-05-20T12:17:32.810Z</time>
      </trkpt>
      <trkpt lat="48.73674" lon="2.02275">
        <ele>129</ele>
        <time>2021-05-20T12:17:33.810Z</time>
      </trkpt>
      <trkpt lat="48.73675" lon="2.02274">
        <ele>129</ele>
        <time>2021-05-20T12:17:34.810Z</time>
      </trkpt>
      <trkpt lat="48.73676" lon="2.02274">
        <ele>129</ele>
        <time>2021-05-20T12:17:35.810Z</time>
      </trkpt>
      <trkpt lat="48.73677" lon="2.02273">
        <ele>129</ele>
        <time>2021-05-20T12:17:36.810Z</time>
      </trkpt>
      <trkpt lat="48.73678" lon="2.02273">
        <ele>129</ele>
        <time>2021-05-20T12:17:37.810Z</time>
      </trkpt>
      <trkpt lat="48.73679" lon="2.02272">
        <ele>129</ele>
        <time>2021-05-20T12:17:38.810Z</time>
      </trkpt>
      <trkpt lat="48.7368" lon="2.02272">
        <ele>129</ele>
        <time>2021-05-20T12:17:39.810Z</time>
      </trkpt>
      <trkpt lat="48.73681" lon="2.02271">
        <ele>129</ele>
        <time>2021-05-20T12:17:43.836Z</time>
      </trkpt>
      <trkpt lat="48.73683" lon="2.0227">
        <ele>129</ele>
        <time>2021-05-20T12:17:44.836Z</time>
      </trkpt>
      <trkpt lat="48.73684" lon="2.02269">
        <ele>129</ele>
        <time>2021-05-20T12:17:45.836Z</time>
      </trkpt>
      <trkpt lat="48.73685" lon="2.02268">
        <ele>129</ele>
        <time>2021-05-20T12:17:46.836Z</time>
      </trkpt>
      <trkpt lat="48.73686" lon="2.02268">
        <ele>129</ele>
        <time>2021-05-20T12:17:47.836Z</time>
      </trkpt>
      <trkpt lat="48.73688" lon="2.02267">
        <ele>128</ele>
        <time>2021-05-20T12:17:48.836Z</time>
      </trkpt>
      <trkpt lat="48.73689" lon="2.02267">
        <ele>128</ele>
        <time>2021-05-20T12:17:49.836Z</time>
      </trkpt>
      <trkpt lat="48.7369" lon="2.02267">
        <ele>128</ele>
        <time>2021-05-20T12:17:50.836Z</time>
      </trkpt>
      <trkpt lat="48.73692" lon="2.02267">
        <ele>128</ele>
        <time>2021-05-20T12:17:51.836Z</time>
      </trkpt>
      <trkpt lat="48.73693" lon="2.02267">
        <ele>127</ele>
        <time>2021-05-20T12:17:52.836Z</time>
      </trkpt>
      <trkpt lat="48.73694" lon="2.02266">
        <ele>127</ele>
        <time>2021-05-20T12:17:53.836Z</time>
      </trkpt>
      <trkpt lat="48.73695" lon="2.02266">
        <ele>127</ele>
        <time>2021-05-20T12:17:54.836Z</time>
      </trkpt>
      <trkpt lat="48.73696" lon="2.02266">
        <ele>127</ele>
        <time>2021-05-20T12:17:55.836Z</time>
      </trkpt>
      <trkpt lat="48.73697" lon="2.02265">
        <ele>127</ele>
        <time>2021-05-20T12:17:56.836Z</time>
      </trkpt>
      <trkpt lat="48.73698" lon="2.02264">
        <ele>127</ele>
        <time>2021-05-20T12:17:57.836Z</time>
      </trkpt>
      <trkpt lat="48.737" lon="2.02263">
        <ele>126</ele>
        <time>2021-05-20T12:17:58.836Z</time>
      </trkpt>
      <trkpt lat="48.73701" lon="2.02262">
        <ele>126</ele>
        <time>2021-05-20T12:17:59.836Z</time>
      </trkpt>
      <trkpt lat="48.73702" lon="2.02262">
        <ele>126</ele>
        <time>2021-05-20T12:18:00.836Z</time>
      </trkpt>
      <trkpt lat="48.73703" lon="2.02261">
        <ele>126</ele>
        <time>2021-05-20T12:18:01.836Z</time>
      </trkpt>
      <trkpt lat="48.73704" lon="2.02261">
        <ele>126</ele>
        <time>2021-05-20T12:18:02.836Z</time>
      </trkpt>
      <trkpt lat="48.73705" lon="2.02261">
        <ele>127</ele>
        <time>2021-05-20T12:18:03.836Z</time>
      </trkpt>
      <trkpt lat="48.73707" lon="2.02261">
        <ele>127</ele>
        <time>2021-05-20T12:18:04.836Z</time>
      </trkpt>
      <trkpt lat="48.73708" lon="2.0226">
        <ele>127</ele>
        <time>2021-05-20T12:18:05.836Z</time>
      </trkpt>
      <trkpt lat="48.73709" lon="2.0226">
        <ele>127</ele>
        <time>2021-05-20T12:18:06.836Z</time>
      </trkpt>
      <trkpt lat="48.73711" lon="2.02259">
        <ele>127</ele>
        <time>2021-05-20T12:18:07.836Z</time>
      </trkpt>
      <trkpt lat="48.73712" lon="2.02259">
        <ele>127</ele>
        <time>2021-05-20T12:18:08.836Z</time>
      </trkpt>
      <trkpt lat="48.73713" lon="2.02259">
        <ele>127</ele>
        <time>2021-05-20T12:18:09.836Z</time>
      </trkpt>
      <trkpt lat="48.73715" lon="2.02259">
        <ele>127</ele>
        <time>2021-05-20T12:18:10.836Z</time>
      </trkpt>
      <trkpt lat="48.73716" lon="2.02259">
        <ele>127</ele>
        <time>2021-05-20T12:18:11.836Z</time>
      </trkpt>
      <trkpt lat="48.73717" lon="2.02259">
        <ele>127</ele>
        <time>2021-05-20T12:18:12.836Z</time>
      </trkpt>
      <trkpt lat="48.73718" lon="2.02259">
        <ele>127</ele>
        <time>2021-05-20T12:18:13.836Z</time>
      </trkpt>
      <trkpt lat="48.73719" lon="2.02259">
        <ele>127</ele>
        <time>2021-05-20T12:18:14.836Z</time>
      </trkpt>
      <trkpt lat="48.7372" lon="2.02258">
        <ele>127</ele>
        <time>2021-05-20T12:18:15.836Z</time>
      </trkpt>
      <trkpt lat="48.73722" lon="2.02258">
        <ele>127</ele>
        <time>2021-05-20T12:18:16.836Z</time>
      </trkpt>
      <trkpt lat="48.73723" lon="2.02257">
        <ele>127</ele>
        <time>2021-05-20T12:18:17.836Z</time>
      </trkpt>
      <trkpt lat="48.73724" lon="2.02257">
        <ele>127</ele>
        <time>2021-05-20T12:18:18.836Z</time>
      </trkpt>
      <trkpt lat="48.73725" lon="2.02256">
        <ele>127</ele>
        <time>2021-05-20T12:18:19.836Z</time>
      </trkpt>
      <trkpt lat="48.73726" lon="2.02256">
        <ele>127</ele>
        <time>2021-05-20T12:18:20.836Z</time>
      </trkpt>
      <trkpt lat="48.73728" lon="2.02256">
        <ele>127</ele>
        <time>2021-05-20T12:18:21.836Z</time>
      </trkpt>
      <trkpt lat="48.73729" lon="2.02256">
        <ele>126</ele>
        <time>2021-05-20T12:18:22.836Z</time>
      </trkpt>
      <trkpt lat="48.73731" lon="2.02256">
        <ele>126</ele>
        <time>2021-05-20T12:18:23.836Z</time>
      </trkpt>
      <trkpt lat="48.73733" lon="2.02256">
        <ele>126</ele>
        <time>2021-05-20T12:18:24.836Z</time>
      </trkpt>
      <trkpt lat="48.73735" lon="2.02256">
        <ele>126</ele>
        <time>2021-05-20T12:18:25.836Z</time>
      </trkpt>
      <trkpt lat="48.73737" lon="2.02255">
        <ele>126</ele>
        <time>2021-05-20T12:18:26.836Z</time>
      </trkpt>
      <trkpt lat="48.73738" lon="2.02255">
        <ele>126</ele>
        <time>2021-05-20T12:18:27.836Z</time>
      </trkpt>
      <trkpt lat="48.7374" lon="2.02255">
        <ele>126</ele>
        <time>2021-05-20T12:18:28.836Z</time>
      </trkpt>
      <trkpt lat="48.73741" lon="2.02254">
        <ele>126</ele>
        <time>2021-05-20T12:18:32.824Z</time>
      </trkpt>
      <trkpt lat="48.73742" lon="2.02254">
        <ele>126</ele>
        <time>2021-05-20T12:18:33.824Z</time>
      </trkpt>
      <trkpt lat="48.73744" lon="2.02254">
        <ele>126</ele>
        <time>2021-05-20T12:18:34.824Z</time>
      </trkpt>
      <trkpt lat="48.73745" lon="2.02254">
        <ele>126</ele>
        <time>2021-05-20T12:18:35.824Z</time>
      </trkpt>
      <trkpt lat="48.73746" lon="2.02254">
        <ele>126</ele>
        <time>2021-05-20T12:18:36.824Z</time>
      </trkpt>
      <trkpt lat="48.73748" lon="2.02253">
        <ele>126</ele>
        <time>2021-05-20T12:18:37.824Z</time>
      </trkpt>
      <trkpt lat="48.73749" lon="2.02252">
        <ele>125</ele>
        <time>2021-05-20T12:18:38.824Z</time>
      </trkpt>
      <trkpt lat="48.7375" lon="2.02252">
        <ele>125</ele>
        <time>2021-05-20T12:18:39.824Z</time>
      </trkpt>
      <trkpt lat="48.73751" lon="2.02252">
        <ele>125</ele>
        <time>2021-05-20T12:18:40.824Z</time>
      </trkpt>
      <trkpt lat="48.73752" lon="2.02251">
        <ele>125</ele>
        <time>2021-05-20T12:18:41.824Z</time>
      </trkpt>
      <trkpt lat="48.73753" lon="2.02252">
        <ele>125</ele>
        <time>2021-05-20T12:18:42.824Z</time>
      </trkpt>
      <trkpt lat="48.73755" lon="2.02252">
        <ele>125</ele>
        <time>2021-05-20T12:18:43.824Z</time>
      </trkpt>
      <trkpt lat="48.73756" lon="2.02252">
        <ele>124</ele>
        <time>2021-05-20T12:18:44.824Z</time>
      </trkpt>
      <trkpt lat="48.73758" lon="2.02251">
        <ele>124</ele>
        <time>2021-05-20T12:18:45.824Z</time>
      </trkpt>
      <trkpt lat="48.7376" lon="2.02251">
        <ele>124</ele>
        <time>2021-05-20T12:18:46.824Z</time>
      </trkpt>
      <trkpt lat="48.73761" lon="2.02251">
        <ele>124</ele>
        <time>2021-05-20T12:18:47.824Z</time>
      </trkpt>
      <trkpt lat="48.73763" lon="2.02251">
        <ele>124</ele>
        <time>2021-05-20T12:18:48.824Z</time>
      </trkpt>
      <trkpt lat="48.73764" lon="2.02251">
        <ele>124</ele>
        <time>2021-05-20T12:18:49.824Z</time>
      </trkpt>
      <trkpt lat="48.73765" lon="2.02251">
        <ele>124</ele>
        <time>2021-05-20T12:18:50.824Z</time>
      </trkpt>
      <trkpt lat="48.73766" lon="2.0225">
        <ele>124</ele>
        <time>2021-05-20T12:18:51.824Z</time>
      </trkpt>
      <trkpt lat="48.73767" lon="2.0225">
        <ele>124</ele>
        <time>2021-05-20T12:18:52.824Z</time>
      </trkpt>
      <trkpt lat="48.73768" lon="2.0225">
        <ele>124</ele>
        <time>2021-05-20T12:18:56.096Z</time>
      </trkpt>
      <trkpt lat="48.73769" lon="2.02249">
        <ele>124</ele>
        <time>2021-05-20T12:18:57.096Z</time>
      </trkpt>
      <trkpt lat="48.7377" lon="2.02249">
        <ele>124</ele>
        <time>2021-05-20T12:18:58.096Z</time>
      </trkpt>
      <trkpt lat="48.73772" lon="2.02249">
        <ele>124</ele>
        <time>2021-05-20T12:18:59.096Z</time>
      </trkpt>
      <trkpt lat="48.73773" lon="2.02248">
        <ele>124</ele>
        <time>2021-05-20T12:19:00.096Z</time>
      </trkpt>
      <trkpt lat="48.73774" lon="2.02248">
        <ele>124</ele>
        <time>2021-05-20T12:19:01.096Z</time>
      </trkpt>
      <trkpt lat="48.73775" lon="2.02247">
        <ele>124</ele>
        <time>2021-05-20T12:19:02.096Z</time>
      </trkpt>
      <trkpt lat="48.73777" lon="2.02247">
        <ele>124</ele>
        <time>2021-05-20T12:19:03.096Z</time>
      </trkpt>
      <trkpt lat="48.73778" lon="2.02247">
        <ele>124</ele>
        <time>2021-05-20T12:19:04.096Z</time>
      </trkpt>
      <trkpt lat="48.73779" lon="2.02247">
        <ele>124</ele>
        <time>2021-05-20T12:19:05.096Z</time>
      </trkpt>
      <trkpt lat="48.7378" lon="2.02246">
        <ele>124</ele>
        <time>2021-05-20T12:19:06.096Z</time>
      </trkpt>
      <trkpt lat="48.73781" lon="2.02246">
        <ele>124</ele>
        <time>2021-05-20T12:19:07.096Z</time>
      </trkpt>
      <trkpt lat="48.73782" lon="2.02246">
        <ele>125</ele>
        <time>2021-05-20T12:19:08.096Z</time>
      </trkpt>
      <trkpt lat="48.73784" lon="2.02245">
        <ele>125</ele>
        <time>2021-05-20T12:19:09.096Z</time>
      </trkpt>
      <trkpt lat="48.73785" lon="2.02245">
        <ele>125</ele>
        <time>2021-05-20T12:19:10.096Z</time>
      </trkpt>
      <trkpt lat="48.73786" lon="2.02244">
        <ele>125</ele>
        <time>2021-05-20T12:19:11.096Z</time>
      </trkpt>
      <trkpt lat="48.73788" lon="2.02244">
        <ele>125</ele>
        <time>2021-05-20T12:19:14.368Z</time>
      </trkpt>
      <trkpt lat="48.73789" lon="2.02243">
        <ele>125</ele>
        <time>2021-05-20T12:19:15.368Z</time>
      </trkpt>
      <trkpt lat="48.7379" lon="2.02243">
        <ele>126</ele>
        <time>2021-05-20T12:19:16.368Z</time>
      </trkpt>
      <trkpt lat="48.73791" lon="2.02242">
        <ele>126</ele>
        <time>2021-05-20T12:19:19.643Z</time>
      </trkpt>
      <trkpt lat="48.73793" lon="2.02242">
        <ele>126</ele>
        <time>2021-05-20T12:19:20.643Z</time>
      </trkpt>
      <trkpt lat="48.73794" lon="2.02242">
        <ele>126</ele>
        <time>2021-05-20T12:19:21.643Z</time>
      </trkpt>
      <trkpt lat="48.73795" lon="2.02241">
        <ele>126</ele>
        <time>2021-05-20T12:19:29.647Z</time>
      </trkpt>
      <trkpt lat="48.73796" lon="2.02241">
        <ele>127</ele>
        <time>2021-05-20T12:19:30.647Z</time>
      </trkpt>
      <trkpt lat="48.73797" lon="2.02241">
        <ele>127</ele>
        <time>2021-05-20T12:19:31.647Z</time>
      </trkpt>
      <trkpt lat="48.73798" lon="2.0224">
        <ele>127</ele>
        <time>2021-05-20T12:19:32.647Z</time>
      </trkpt>
      <trkpt lat="48.73799" lon="2.02241">
        <ele>127</ele>
        <time>2021-05-20T12:19:33.647Z</time>
      </trkpt>
      <trkpt lat="48.738" lon="2.02241">
        <ele>128</ele>
        <time>2021-05-20T12:19:34.647Z</time>
      </trkpt>
      <trkpt lat="48.73801" lon="2.02241">
        <ele>128</ele>
        <time>2021-05-20T12:19:35.647Z</time>
      </trkpt>
      <trkpt lat="48.73802" lon="2.02242">
        <ele>128</ele>
        <time>2021-05-20T12:19:36.647Z</time>
      </trkpt>
      <trkpt lat="48.73803" lon="2.02241">
        <ele>128</ele>
        <time>2021-05-20T12:19:37.647Z</time>
      </trkpt>
      <trkpt lat="48.73804" lon="2.02242">
        <ele>128</ele>
        <time>2021-05-20T12:19:38.647Z</time>
      </trkpt>
      <trkpt lat="48.73806" lon="2.02242">
        <ele>129</ele>
        <time>2021-05-20T12:19:39.647Z</time>
      </trkpt>
      <trkpt lat="48.73807" lon="2.02242">
        <ele>129</ele>
        <time>2021-05-20T12:19:40.647Z</time>
      </trkpt>
      <trkpt lat="48.73808" lon="2.02242">
        <ele>129</ele>
        <time>2021-05-20T12:19:41.647Z</time>
      </trkpt>
      <trkpt lat="48.73809" lon="2.02242">
        <ele>129</ele>
        <time>2021-05-20T12:19:49.652Z</time>
      </trkpt>
      <trkpt lat="48.7381" lon="2.02242">
        <ele>129</ele>
        <time>2021-05-20T12:19:50.652Z</time>
      </trkpt>
      <trkpt lat="48.73811" lon="2.02242">
        <ele>130</ele>
        <time>2021-05-20T12:19:51.652Z</time>
      </trkpt>
      <trkpt lat="48.73813" lon="2.02242">
        <ele>130</ele>
        <time>2021-05-20T12:19:52.652Z</time>
      </trkpt>
      <trkpt lat="48.73814" lon="2.02241">
        <ele>130</ele>
        <time>2021-05-20T12:19:53.652Z</time>
      </trkpt>
      <trkpt lat="48.73815" lon="2.02242">
        <ele>130</ele>
        <time>2021-05-20T12:19:54.652Z</time>
      </trkpt>
      <trkpt lat="48.73816" lon="2.02241">
        <ele>131</ele>
        <time>2021-05-20T12:19:55.652Z</time>
      </trkpt>
      <trkpt lat="48.73817" lon="2.02241">
        <ele>131</ele>
        <time>2021-05-20T12:19:56.652Z</time>
      </trkpt>
      <trkpt lat="48.73818" lon="2.02241">
        <ele>131</ele>
        <time>2021-05-20T12:20:07.657Z</time>
      </trkpt>
      <trkpt lat="48.73819" lon="2.02241">
        <ele>131</ele>
        <time>2021-05-20T12:20:08.657Z</time>
      </trkpt>
      <trkpt lat="48.7382" lon="2.02241">
        <ele>131</ele>
        <time>2021-05-20T12:20:09.657Z</time>
      </trkpt>
      <trkpt lat="48.73821" lon="2.02241">
        <ele>131</ele>
        <time>2021-05-20T12:20:10.657Z</time>
      </trkpt>
      <trkpt lat="48.73823" lon="2.02241">
        <ele>132</ele>
        <time>2021-05-20T12:20:11.657Z</time>
      </trkpt>
      <trkpt lat="48.73824" lon="2.02241">
        <ele>132</ele>
        <time>2021-05-20T12:20:12.657Z</time>
      </trkpt>
      <trkpt lat="48.73825" lon="2.02242">
        <ele>132</ele>
        <time>2021-05-20T12:20:13.657Z</time>
      </trkpt>
      <trkpt lat="48.73827" lon="2.02242">
        <ele>132</ele>
        <time>2021-05-20T12:20:16.929Z</time>
      </trkpt>
      <trkpt lat="48.73828" lon="2.02242">
        <ele>132</ele>
        <time>2021-05-20T12:20:17.929Z</time>
      </trkpt>
      <trkpt lat="48.7383" lon="2.02243">
        <ele>133</ele>
        <time>2021-05-20T12:20:21.201Z</time>
      </trkpt>
      <trkpt lat="48.73831" lon="2.02243">
        <ele>133</ele>
        <time>2021-05-20T12:20:22.201Z</time>
      </trkpt>
      <trkpt lat="48.73833" lon="2.02243">
        <ele>133</ele>
        <time>2021-05-20T12:20:23.201Z</time>
      </trkpt>
      <trkpt lat="48.73834" lon="2.02244">
        <ele>133</ele>
        <time>2021-05-20T12:20:43.201Z</time>
      </trkpt>
      <trkpt lat="48.73836" lon="2.02244">
        <ele>133</ele>
        <time>2021-05-20T12:20:44.201Z</time>
      </trkpt>
      <trkpt lat="48.73837" lon="2.02244">
        <ele>133</ele>
        <time>2021-05-20T12:20:45.201Z</time>
      </trkpt>
      <trkpt lat="48.73839" lon="2.02244">
        <ele>133</ele>
        <time>2021-05-20T12:20:46.201Z</time>
      </trkpt>
      <trkpt lat="48.7384" lon="2.02244">
        <ele>133</ele>
        <time>2021-05-20T12:20:47.201Z</time>
      </trkpt>
      <trkpt lat="48.73841" lon="2.02245">
        <ele>133</ele>
        <time>2021-05-20T12:20:48.201Z</time>
      </trkpt>
      <trkpt lat="48.73843" lon="2.02245">
        <ele>133</ele>
        <time>2021-05-20T12:21:22.200Z</time>
      </trkpt>
      <trkpt lat="48.73844" lon="2.02245">
        <ele>133</ele>
        <time>2021-05-20T12:21:23.200Z</time>
      </trkpt>
      <trkpt lat="48.73846" lon="2.02246">
        <ele>133</ele>
        <time>2021-05-20T12:21:31.199Z</time>
      </trkpt>
      <trkpt lat="48.73848" lon="2.02246">
        <ele>133</ele>
        <time>2021-05-20T12:21:32.199Z</time>
      </trkpt>
      <trkpt lat="48.73849" lon="2.02246">
        <ele>133</ele>
        <time>2021-05-20T12:23:03.204Z</time>
      </trkpt>
      <trkpt lat="48.7385" lon="2.02246">
        <ele>133</ele>
        <time>2021-05-20T12:23:04.204Z</time>
      </trkpt>
      <trkpt lat="48.73852" lon="2.02247">
        <ele>133</ele>
        <time>2021-05-20T12:23:10.210Z</time>
      </trkpt>
      <trkpt lat="48.73853" lon="2.02247">
        <ele>133</ele>
        <time>2021-05-20T12:23:11.210Z</time>
      </trkpt>
      <trkpt lat="48.73854" lon="2.02248">
        <ele>133</ele>
        <time>2021-05-20T12:23:12.210Z</time>
      </trkpt>
      <trkpt lat="48.73855" lon="2.02248">
        <ele>133</ele>
        <time>2021-05-20T12:23:13.210Z</time>
      </trkpt>
      <trkpt lat="48.73856" lon="2.02248">
        <ele>134</ele>
        <time>2021-05-20T12:23:14.210Z</time>
      </trkpt>
      <trkpt lat="48.73857" lon="2.02247">
        <ele>134</ele>
        <time>2021-05-20T12:23:15.210Z</time>
      </trkpt>
      <trkpt lat="48.73858" lon="2.02247">
        <ele>134</ele>
        <time>2021-05-20T12:23:16.210Z</time>
      </trkpt>
      <trkpt lat="48.73859" lon="2.02247">
        <ele>134</ele>
        <time>2021-05-20T12:23:17.210Z</time>
      </trkpt>
      <trkpt lat="48.7386" lon="2.02247">
        <ele>134</ele>
        <time>2021-05-20T12:23:18.210Z</time>
      </trkpt>
      <trkpt lat="48.73861" lon="2.02247">
        <ele>134</ele>
        <time>2021-05-20T12:23:19.210Z</time>
      </trkpt>
      <trkpt lat="48.73862" lon="2.02247">
        <ele>134</ele>
        <time>2021-05-20T12:23:20.210Z</time>
      </trkpt>
      <trkpt lat="48.73864" lon="2.02247">
        <ele>134</ele>
        <time>2021-05-20T12:23:21.210Z</time>
      </trkpt>
      <trkpt lat="48.73865" lon="2.02248">
        <ele>134</ele>
        <time>2021-05-20T12:27:33.226Z</time>
      </trkpt>
      <trkpt lat="48.73866" lon="2.02248">
        <ele>134</ele>
        <time>2021-05-20T12:27:34.226Z</time>
      </trkpt>
      <trkpt lat="48.73867" lon="2.02248">
        <ele>134</ele>
        <time>2021-05-20T12:27:35.226Z</time>
      </trkpt>
      <trkpt lat="48.73869" lon="2.02248">
        <ele>134</ele>
        <time>2021-05-20T12:27:36.226Z</time>
      </trkpt>
      <trkpt lat="48.7387" lon="2.02248">
        <ele>134</ele>
        <time>2021-05-20T12:27:37.226Z</time>
      </trkpt>
      <trkpt lat="48.73872" lon="2.02248">
        <ele>134</ele>
        <time>2021-05-20T12:53:09.237Z</time>
      </trkpt>
      <trkpt lat="48.73873" lon="2.02248">
        <ele>134</ele>
        <time>2021-05-20T12:53:10.237Z</time>
      </trkpt>
      <trkpt lat="48.73875" lon="2.02249">
        <ele>134</ele>
        <time>2021-05-20T12:53:11.237Z</time>
      </trkpt>
      <trkpt lat="48.73877" lon="2.02249">
        <ele>134</ele>
        <time>2021-05-20T12:53:12.237Z</time>
      </trkpt>
      <trkpt lat="48.73878" lon="2.02249">
        <ele>134</ele>
        <time>2021-05-20T12:53:13.237Z</time>
      </trkpt>
      <trkpt lat="48.73879" lon="2.0225">
        <ele>134</ele>
        <time>2021-05-20T12:53:14.237Z</time>
      </trkpt>
      <trkpt lat="48.7388" lon="2.0225">
        <ele>134</ele>
        <time>2021-05-20T12:53:15.237Z</time>
      </trkpt>
      <trkpt lat="48.73881" lon="2.0225">
        <ele>134</ele>
        <time>2021-05-20T12:53:16.237Z</time>
      </trkpt>
      <trkpt lat="48.73883" lon="2.02251">
        <ele>134</ele>
        <time>2021-05-20T12:53:17.237Z</time>
      </trkpt>
      <trkpt lat="48.73884" lon="2.0225">
        <ele>134</ele>
        <time>2021-05-20T12:53:18.237Z</time>
      </trkpt>
      <trkpt lat="48.73885" lon="2.0225">
        <ele>134</ele>
        <time>2021-05-20T12:53:19.237Z</time>
      </trkpt>
      <trkpt lat="48.73887" lon="2.0225">
        <ele>134</ele>
        <time>2021-05-20T12:53:20.237Z</time>
      </trkpt>
      <trkpt lat="48.73888" lon="2.02251">
        <ele>134</ele>
        <time>2021-05-20T12:53:21.237Z</time>
      </trkpt>
      <trkpt lat="48.73889" lon="2.02251">
        <ele>134</ele>
        <time>2021-05-20T12:53:22.237Z</time>
      </trkpt>
      <trkpt lat="48.7389" lon="2.02251">
        <ele>134</ele>
        <time>2021-05-20T12:53:23.237Z</time>
      </trkpt>
      <trkpt lat="48.73891" lon="2.02251">
        <ele>134</ele>
        <time>2021-05-20T12:53:24.237Z</time>
      </trkpt>
      <trkpt lat="48.73892" lon="2.02251">
        <ele>134</ele>
        <time>2021-05-20T12:53:25.237Z</time>
      </trkpt>
      <trkpt lat="48.73893" lon="2.02251">
        <ele>134</ele>
        <time>2021-05-20T12:53:26.237Z</time>
      </trkpt>
      <trkpt lat="48.73894" lon="2.02251">
        <ele>134</ele>
        <time>2021-05-20T12:53:27.237Z</time>
      </trkpt>
      <trkpt lat="48.73895" lon="2.02251">
        <ele>134</ele>
        <time>2021-05-20T12:53:28.237Z</time>
      </trkpt>
      <trkpt lat="48.73896" lon="2.02252">
        <ele>133</ele>
        <time>2021-05-20T12:53:29.237Z</time>
      </trkpt>
      <trkpt lat="48.73897" lon="2.02252">
        <ele>133</ele>
        <time>2021-05-20T12:53:30.237Z</time>
      </trkpt>
      <trkpt lat="48.73898" lon="2.02252">
        <ele>133</ele>
        <time>2021-05-20T12:53:31.237Z</time>
      </trkpt>
      <trkpt lat="48.739" lon="2.02252">
        <ele>133</ele>
        <time>2021-05-20T12:53:32.237Z</time>
      </trkpt>
      <trkpt lat="48.73901" lon="2.02253">
        <ele>133</ele>
        <time>2021-05-20T12:53:33.237Z</time>
      </trkpt>
      <trkpt lat="48.73902" lon="2.02253">
        <ele>133</ele>
        <time>2021-05-20T12:53:34.237Z</time>
      </trkpt>
      <trkpt lat="48.73903" lon="2.02254">
        <ele>132</ele>
        <time>2021-05-20T12:53:35.237Z</time>
      </trkpt>
      <trkpt lat="48.73905" lon="2.02254">
        <ele>132</ele>
        <time>2021-05-20T12:53:36.237Z</time>
      </trkpt>
      <trkpt lat="48.73907" lon="2.02254">
        <ele>132</ele>
        <time>2021-05-20T12:53:37.237Z</time>
      </trkpt>
      <trkpt lat="48.73908" lon="2.02255">
        <ele>131</ele>
        <time>2021-05-20T12:53:38.237Z</time>
      </trkpt>
      <trkpt lat="48.7391" lon="2.02255">
        <ele>131</ele>
        <time>2021-05-20T12:53:39.237Z</time>
      </trkpt>
      <trkpt lat="48.73912" lon="2.02255">
        <ele>130</ele>
        <time>2021-05-20T12:53:40.237Z</time>
      </trkpt>
      <trkpt lat="48.73913" lon="2.02255">
        <ele>130</ele>
        <time>2021-05-20T12:53:41.237Z</time>
      </trkpt>
      <trkpt lat="48.73915" lon="2.02256">
        <ele>129</ele>
        <time>2021-05-20T12:53:42.237Z</time>
      </trkpt>
      <trkpt lat="48.73916" lon="2.02256">
        <ele>129</ele>
        <time>2021-05-20T12:53:43.237Z</time>
      </trkpt>
      <trkpt lat="48.73918" lon="2.02256">
        <ele>129</ele>
        <time>2021-05-20T12:53:44.237Z</time>
      </trkpt>
      <trkpt lat="48.73919" lon="2.02256">
        <ele>129</ele>
        <time>2021-05-20T12:53:45.237Z</time>
      </trkpt>
      <trkpt lat="48.7392" lon="2.02256">
        <ele>128</ele>
        <time>2021-05-20T12:53:46.237Z</time>
      </trkpt>
      <trkpt lat="48.73922" lon="2.02257">
        <ele>128</ele>
        <time>2021-05-20T12:53:47.237Z</time>
      </trkpt>
      <trkpt lat="48.73923" lon="2.02257">
        <ele>128</ele>
        <time>2021-05-20T12:53:48.237Z</time>
      </trkpt>
      <trkpt lat="48.73924" lon="2.02257">
        <ele>128</ele>
        <time>2021-05-20T12:53:49.237Z</time>
      </trkpt>
      <trkpt lat="48.73925" lon="2.02257">
        <ele>127</ele>
        <time>2021-05-20T12:53:50.237Z</time>
      </trkpt>
      <trkpt lat="48.73927" lon="2.02257">
        <ele>127</ele>
        <time>2021-05-20T12:53:51.237Z</time>
      </trkpt>
      <trkpt lat="48.73928" lon="2.02258">
        <ele>127</ele>
        <time>2021-05-20T12:53:52.237Z</time>
      </trkpt>
      <trkpt lat="48.73929" lon="2.02258">
        <ele>127</ele>
        <time>2021-05-20T12:53:53.237Z</time>
      </trkpt>
      <trkpt lat="48.7393" lon="2.02259">
        <ele>127</ele>
        <time>2021-05-20T12:53:54.237Z</time>
      </trkpt>
      <trkpt lat="48.73931" lon="2.02259">
        <ele>127</ele>
        <time>2021-05-20T12:53:55.237Z</time>
      </trkpt>
      <trkpt lat="48.73932" lon="2.02259">
        <ele>127</ele>
        <time>2021-05-20T12:53:56.237Z</time>
      </trkpt>
      <trkpt lat="48.73933" lon="2.0226">
        <ele>127</ele>
        <time>2021-05-20T12:53:57.237Z</time>
      </trkpt>
      <trkpt lat="48.73935" lon="2.0226">
        <ele>126</ele>
        <time>2021-05-20T12:53:58.237Z</time>
      </trkpt>
      <trkpt lat="48.73936" lon="2.0226">
        <ele>126</ele>
        <time>2021-05-20T12:53:59.237Z</time>
      </trkpt>
      <trkpt lat="48.73937" lon="2.02261">
        <ele>126</ele>
        <time>2021-05-20T12:54:00.237Z</time>
      </trkpt>
      <trkpt lat="48.73939" lon="2.02261">
        <ele>126</ele>
        <time>2021-05-20T12:54:01.237Z</time>
      </trkpt>
      <trkpt lat="48.73941" lon="2.02262">
        <ele>126</ele>
        <time>2021-05-20T12:54:02.237Z</time>
      </trkpt>
      <trkpt lat="48.73942" lon="2.02262">
        <ele>126</ele>
        <time>2021-05-20T12:54:03.237Z</time>
      </trkpt>
      <trkpt lat="48.73943" lon="2.02263">
        <ele>126</ele>
        <time>2021-05-20T12:54:04.237Z</time>
      </trkpt>
      <trkpt lat="48.73944" lon="2.02264">
        <ele>126</ele>
        <time>2021-05-20T12:54:05.237Z</time>
      </trkpt>
      <trkpt lat="48.73945" lon="2.02265">
        <ele>126</ele>
        <time>2021-05-20T12:54:06.237Z</time>
      </trkpt>
      <trkpt lat="48.73946" lon="2.02265">
        <ele>125</ele>
        <time>2021-05-20T12:54:07.237Z</time>
      </trkpt>
      <trkpt lat="48.73947" lon="2.02266">
        <ele>125</ele>
        <time>2021-05-20T12:54:08.237Z</time>
      </trkpt>
      <trkpt lat="48.73948" lon="2.02267">
        <ele>125</ele>
        <time>2021-05-20T12:54:09.237Z</time>
      </trkpt>
      <trkpt lat="48.73949" lon="2.02267">
        <ele>125</ele>
        <time>2021-05-20T12:54:10.237Z</time>
      </trkpt>
      <trkpt lat="48.7395" lon="2.02268">
        <ele>125</ele>
        <time>2021-05-20T12:54:11.237Z</time>
      </trkpt>
      <trkpt lat="48.73951" lon="2.02269">
        <ele>126</ele>
        <time>2021-05-20T12:54:12.237Z</time>
      </trkpt>
      <trkpt lat="48.73952" lon="2.02269">
        <ele>126</ele>
        <time>2021-05-20T12:54:13.237Z</time>
      </trkpt>
      <trkpt lat="48.73954" lon="2.0227">
        <ele>126</ele>
        <time>2021-05-20T12:54:14.237Z</time>
      </trkpt>
      <trkpt lat="48.73955" lon="2.02271">
        <ele>126</ele>
        <time>2021-05-20T12:54:15.237Z</time>
      </trkpt>
      <trkpt lat="48.73956" lon="2.02271">
        <ele>126</ele>
        <time>2021-05-20T12:54:16.237Z</time>
      </trkpt>
      <trkpt lat="48.73957" lon="2.02272">
        <ele>126</ele>
        <time>2021-05-20T12:54:17.237Z</time>
      </trkpt>
      <trkpt lat="48.73959" lon="2.02272">
        <ele>126</ele>
        <time>2021-05-20T12:54:18.237Z</time>
      </trkpt>
      <trkpt lat="48.7396" lon="2.02273">
        <ele>126</ele>
        <time>2021-05-20T12:54:19.237Z</time>
      </trkpt>
      <trkpt lat="48.73961" lon="2.02273">
        <ele>126</ele>
        <time>2021-05-20T12:54:20.237Z</time>
      </trkpt>
      <trkpt lat="48.73962" lon="2.02274">
        <ele>125</ele>
        <time>2021-05-20T12:54:21.237Z</time>
      </trkpt>
      <trkpt lat="48.73963" lon="2.02274">
        <ele>125</ele>
        <time>2021-05-20T12:54:22.237Z</time>
      </trkpt>
      <trkpt lat="48.73965" lon="2.02275">
        <ele>125</ele>
        <time>2021-05-20T12:54:23.237Z</time>
      </trkpt>
      <trkpt lat="48.73966" lon="2.02276">
        <ele>125</ele>
        <time>2021-05-20T12:54:24.237Z</time>
      </trkpt>
      <trkpt lat="48.73967" lon="2.02277">
        <ele>125</ele>
        <time>2021-05-20T12:54:25.237Z</time>
      </trkpt>
      <trkpt lat="48.73969" lon="2.02277">
        <ele>125</ele>
        <time>2021-05-20T12:54:26.237Z</time>
      </trkpt>
      <trkpt lat="48.7397" lon="2.02278">
        <ele>125</ele>
        <time>2021-05-20T12:54:27.237Z</time>
      </trkpt>
      <trkpt lat="48.73971" lon="2.02279">
        <ele>125</ele>
        <time>2021-05-20T12:54:28.237Z</time>
      </trkpt>
      <trkpt lat="48.73973" lon="2.02279">
        <ele>125</ele>
        <time>2021-05-20T12:54:29.237Z</time>
      </trkpt>
      <trkpt lat="48.73974" lon="2.0228">
        <ele>125</ele>
        <time>2021-05-20T12:54:30.237Z</time>
      </trkpt>
      <trkpt lat="48.73975" lon="2.0228">
        <ele>124</ele>
        <time>2021-05-20T12:54:31.237Z</time>
      </trkpt>
      <trkpt lat="48.73976" lon="2.02281">
        <ele>124</ele>
        <time>2021-05-20T12:54:32.237Z</time>
      </trkpt>
      <trkpt lat="48.73977" lon="2.02282">
        <ele>124</ele>
        <time>2021-05-20T12:54:33.237Z</time>
      </trkpt>
      <trkpt lat="48.73979" lon="2.02282">
        <ele>124</ele>
        <time>2021-05-20T12:54:34.237Z</time>
      </trkpt>
      <trkpt lat="48.7398" lon="2.02283">
        <ele>124</ele>
        <time>2021-05-20T12:54:35.237Z</time>
      </trkpt>
      <trkpt lat="48.73981" lon="2.02283">
        <ele>123</ele>
        <time>2021-05-20T12:54:36.237Z</time>
      </trkpt>
      <trkpt lat="48.73982" lon="2.02284">
        <ele>123</ele>
        <time>2021-05-20T12:54:37.237Z</time>
      </trkpt>
      <trkpt lat="48.73983" lon="2.02284">
        <ele>123</ele>
        <time>2021-05-20T12:54:38.237Z</time>
      </trkpt>
      <trkpt lat="48.73984" lon="2.02285">
        <ele>123</ele>
        <time>2021-05-20T12:54:39.237Z</time>
      </trkpt>
      <trkpt lat="48.73985" lon="2.02285">
        <ele>123</ele>
        <time>2021-05-20T12:54:40.237Z</time>
      </trkpt>
      <trkpt lat="48.73986" lon="2.02285">
        <ele>123</ele>
        <time>2021-05-20T12:54:41.237Z</time>
      </trkpt>
      <trkpt lat="48.73988" lon="2.02286">
        <ele>123</ele>
        <time>2021-05-20T12:54:42.237Z</time>
      </trkpt>
      <trkpt lat="48.73989" lon="2.02288">
        <ele>123</ele>
        <time>2021-05-20T12:54:43.237Z</time>
      </trkpt>
      <trkpt lat="48.7399" lon="2.02289">
        <ele>124</ele>
        <time>2021-05-20T12:54:44.237Z</time>
      </trkpt>
      <trkpt lat="48.73991" lon="2.0229">
        <ele>124</ele>
        <time>2021-05-20T12:54:45.237Z</time>
      </trkpt>
      <trkpt lat="48.73992" lon="2.02291">
        <ele>124</ele>
        <time>2021-05-20T12:54:46.237Z</time>
      </trkpt>
      <trkpt lat="48.73993" lon="2.02291">
        <ele>124</ele>
        <time>2021-05-20T12:54:47.237Z</time>
      </trkpt>
      <trkpt lat="48.73994" lon="2.02292">
        <ele>124</ele>
        <time>2021-05-20T12:54:48.237Z</time>
      </trkpt>
      <trkpt lat="48.73994" lon="2.02292">
        <ele>124</ele>
        <time>2021-05-20T12:54:49.237Z</time>
      </trkpt>
      <trkpt lat="48.73995" lon="2.02292">
        <ele>124</ele>
        <time>2021-05-20T12:54:50.237Z</time>
      </trkpt>
      <trkpt lat="48.73995" lon="2.02292">
        <ele>124</ele>
        <time>2021-05-20T12:54:51.237Z</time>
      </trkpt>
      <trkpt lat="48.73996" lon="2.02295">
        <ele>130</ele>
        <time>2021-05-20T12:54:52.237Z</time>
      </trkpt>
      <trkpt lat="48.73996" lon="2.02296">
        <ele>130</ele>
        <time>2021-05-20T12:54:53.237Z</time>
      </trkpt>
      <trkpt lat="48.73996" lon="2.02296">
        <ele>131</ele>
        <time>2021-05-20T12:54:54.237Z</time>
      </trkpt>
      <trkpt lat="48.73996" lon="2.02296">
        <ele>131</ele>
        <time>2021-05-20T12:54:55.237Z</time>
      </trkpt>
      <trkpt lat="48.73996" lon="2.02296">
        <ele>131</ele>
        <time>2021-05-20T12:54:56.237Z</time>
      </trkpt>
      <trkpt lat="48.73996" lon="2.02296">
        <ele>129</ele>
        <time>2021-05-20T12:54:57.237Z</time>
      </trkpt>
      <trkpt lat="48.73996" lon="2.02296">
        <ele>129</ele>
        <time>2021-05-20T12:54:58.237Z</time>
      </trkpt>
      <trkpt lat="48.73997" lon="2.02297">
        <ele>129</ele>
        <time>2021-05-20T12:54:59.237Z</time>
      </trkpt>
      <trkpt lat="48.73997" lon="2.02298">
        <ele>129</ele>
        <time>2021-05-20T12:55:00.237Z</time>
      </trkpt>
      <trkpt lat="48.73998" lon="2.023">
        <ele>129</ele>
        <time>2021-05-20T12:55:01.237Z</time>
      </trkpt>
      <trkpt lat="48.73997" lon="2.02302">
        <ele>129</ele>
        <time>2021-05-20T12:55:02.237Z</time>
      </trkpt>
      <trkpt lat="48.73997" lon="2.02303">
        <ele>129</ele>
        <time>2021-05-20T12:55:03.237Z</time>
      </trkpt>
      <trkpt lat="48.73997" lon="2.02305">
        <ele>129</ele>
        <time>2021-05-20T12:55:04.237Z</time>
      </trkpt>
      <trkpt lat="48.73997" lon="2.02307">
        <ele>129</ele>
        <time>2021-05-20T12:55:05.237Z</time>
      </trkpt>
      <trkpt lat="48.73997" lon="2.02309">
        <ele>129</ele>
        <time>2021-05-20T12:55:06.237Z</time>
      </trkpt>
      <trkpt lat="48.73996" lon="2.02311">
        <ele>129</ele>
        <time>2021-05-20T12:55:07.237Z</time>
      </trkpt>
      <trkpt lat="48.73996" lon="2.02313">
        <ele>129</ele>
        <time>2021-05-20T12:55:08.237Z</time>
      </trkpt>
      <trkpt lat="48.73996" lon="2.02315">
        <ele>129</ele>
        <time>2021-05-20T12:55:09.237Z</time>
      </trkpt>
      <trkpt lat="48.73997" lon="2.02317">
        <ele>129</ele>
        <time>2021-05-20T12:55:10.237Z</time>
      </trkpt>
      <trkpt lat="48.73997" lon="2.02318">
        <ele>129</ele>
        <time>2021-05-20T12:55:11.237Z</time>
      </trkpt>
      <trkpt lat="48.73997" lon="2.0232">
        <ele>129</ele>
        <time>2021-05-20T12:55:12.237Z</time>
      </trkpt>
      <trkpt lat="48.73997" lon="2.02322">
        <ele>129</ele>
        <time>2021-05-20T12:55:13.237Z</time>
      </trkpt>
      <trkpt lat="48.73996" lon="2.02324">
        <ele>128</ele>
        <time>2021-05-20T12:55:14.237Z</time>
      </trkpt>
      <trkpt lat="48.73996" lon="2.02326">
        <ele>128</ele>
        <time>2021-05-20T12:55:15.237Z</time>
      </trkpt>
      <trkpt lat="48.73996" lon="2.02329">
        <ele>128</ele>
        <time>2021-05-20T12:55:16.237Z</time>
      </trkpt>
      <trkpt lat="48.73996" lon="2.02331">
        <ele>128</ele>
        <time>2021-05-20T12:55:17.237Z</time>
      </trkpt>
      <trkpt lat="48.73996" lon="2.02333">
        <ele>128</ele>
        <time>2021-05-20T12:55:18.237Z</time>
      </trkpt>
      <trkpt lat="48.73996" lon="2.02335">
        <ele>128</ele>
        <time>2021-05-20T12:55:19.237Z</time>
      </trkpt>
      <trkpt lat="48.73996" lon="2.02337">
        <ele>128</ele>
        <time>2021-05-20T12:55:20.237Z</time>
      </trkpt>
      <trkpt lat="48.73995" lon="2.02339">
        <ele>128</ele>
        <time>2021-05-20T12:55:21.237Z</time>
      </trkpt>
      <trkpt lat="48.73995" lon="2.0234">
        <ele>128</ele>
        <time>2021-05-20T12:55:22.237Z</time>
      </trkpt>
      <trkpt lat="48.73995" lon="2.02342">
        <ele>128</ele>
        <time>2021-05-20T12:55:23.237Z</time>
      </trkpt>
      <trkpt lat="48.73995" lon="2.02344">
        <ele>127</ele>
        <time>2021-05-20T12:55:24.237Z</time>
      </trkpt>
      <trkpt lat="48.73995" lon="2.02346">
        <ele>127</ele>
        <time>2021-05-20T12:55:25.237Z</time>
      </trkpt>
      <trkpt lat="48.73995" lon="2.02347">
        <ele>127</ele>
        <time>2021-05-20T12:55:26.237Z</time>
      </trkpt>
      <trkpt lat="48.73995" lon="2.02349">
        <ele>127</ele>
        <time>2021-05-20T12:55:27.237Z</time>
      </trkpt>
      <trkpt lat="48.73995" lon="2.02351">
        <ele>127</ele>
        <time>2021-05-20T12:55:28.237Z</time>
      </trkpt>
      <trkpt lat="48.73995" lon="2.02352">
        <ele>127</ele>
        <time>2021-05-20T12:55:29.237Z</time>
      </trkpt>
      <trkpt lat="48.73994" lon="2.02354">
        <ele>127</ele>
        <time>2021-05-20T12:55:30.237Z</time>
      </trkpt>
      <trkpt lat="48.73994" lon="2.02355">
        <ele>127</ele>
        <time>2021-05-20T12:55:31.237Z</time>
      </trkpt>
      <trkpt lat="48.73993" lon="2.02356">
        <ele>127</ele>
        <time>2021-05-20T12:55:32.237Z</time>
      </trkpt>
      <trkpt lat="48.73993" lon="2.02357">
        <ele>127</ele>
        <time>2021-05-20T12:55:33.237Z</time>
      </trkpt>
      <trkpt lat="48.73993" lon="2.02359">
        <ele>127</ele>
        <time>2021-05-20T12:55:34.237Z</time>
      </trkpt>
      <trkpt lat="48.73993" lon="2.0236">
        <ele>127</ele>
        <time>2021-05-20T12:55:35.237Z</time>
      </trkpt>
      <trkpt lat="48.73993" lon="2.02362">
        <ele>127</ele>
        <time>2021-05-20T12:55:36.237Z</time>
      </trkpt>
      <trkpt lat="48.73993" lon="2.02364">
        <ele>127</ele>
        <time>2021-05-20T12:55:37.237Z</time>
      </trkpt>
      <trkpt lat="48.73993" lon="2.02366">
        <ele>127</ele>
        <time>2021-05-20T12:55:38.237Z</time>
      </trkpt>
      <trkpt lat="48.73993" lon="2.02368">
        <ele>127</ele>
        <time>2021-05-20T12:55:39.237Z</time>
      </trkpt>
      <trkpt lat="48.73993" lon="2.0237">
        <ele>127</ele>
        <time>2021-05-20T12:55:40.237Z</time>
      </trkpt>
      <trkpt lat="48.73992" lon="2.02372">
        <ele>127</ele>
        <time>2021-05-20T12:55:41.237Z</time>
      </trkpt>
      <trkpt lat="48.73992" lon="2.02375">
        <ele>127</ele>
        <time>2021-05-20T12:55:42.237Z</time>
      </trkpt>
      <trkpt lat="48.73992" lon="2.02377">
        <ele>127</ele>
        <time>2021-05-20T12:55:43.237Z</time>
      </trkpt>
      <trkpt lat="48.73991" lon="2.0238">
        <ele>127</ele>
        <time>2021-05-20T12:55:44.237Z</time>
      </trkpt>
      <trkpt lat="48.73991" lon="2.02382">
        <ele>127</ele>
        <time>2021-05-20T12:55:45.237Z</time>
      </trkpt>
      <trkpt lat="48.73991" lon="2.02384">
        <ele>127</ele>
        <time>2021-05-20T12:55:46.237Z</time>
      </trkpt>
      <trkpt lat="48.73991" lon="2.02386">
        <ele>127</ele>
        <time>2021-05-20T12:55:47.237Z</time>
      </trkpt>
      <trkpt lat="48.7399" lon="2.02388">
        <ele>127</ele>
        <time>2021-05-20T12:55:48.237Z</time>
      </trkpt>
      <trkpt lat="48.7399" lon="2.0239">
        <ele>127</ele>
        <time>2021-05-20T12:55:49.237Z</time>
      </trkpt>
      <trkpt lat="48.73989" lon="2.02393">
        <ele>127</ele>
        <time>2021-05-20T12:55:50.237Z</time>
      </trkpt>
      <trkpt lat="48.73989" lon="2.02395">
        <ele>127</ele>
        <time>2021-05-20T12:55:51.237Z</time>
      </trkpt>
      <trkpt lat="48.73988" lon="2.02397">
        <ele>127</ele>
        <time>2021-05-20T12:55:52.237Z</time>
      </trkpt>
      <trkpt lat="48.73987" lon="2.02398">
        <ele>127</ele>
        <time>2021-05-20T12:55:53.237Z</time>
      </trkpt>
      <trkpt lat="48.73986" lon="2.024">
        <ele>127</ele>
        <time>2021-05-20T12:55:54.237Z</time>
      </trkpt>
      <trkpt lat="48.73985" lon="2.02402">
        <ele>127</ele>
        <time>2021-05-20T12:55:55.237Z</time>
      </trkpt>
      <trkpt lat="48.73985" lon="2.02404">
        <ele>127</ele>
        <time>2021-05-20T12:55:56.237Z</time>
      </trkpt>
      <trkpt lat="48.73984" lon="2.02406">
        <ele>127</ele>
        <time>2021-05-20T12:55:57.237Z</time>
      </trkpt>
      <trkpt lat="48.73983" lon="2.02407">
        <ele>127</ele>
        <time>2021-05-20T12:55:58.237Z</time>
      </trkpt>
      <trkpt lat="48.73982" lon="2.02408">
        <ele>127</ele>
        <time>2021-05-20T12:55:59.237Z</time>
      </trkpt>
      <trkpt lat="48.73981" lon="2.0241">
        <ele>127</ele>
        <time>2021-05-20T12:56:00.237Z</time>
      </trkpt>
      <trkpt lat="48.73981" lon="2.02412">
        <ele>128</ele>
        <time>2021-05-20T12:56:01.237Z</time>
      </trkpt>
      <trkpt lat="48.7398" lon="2.02413">
        <ele>128</ele>
        <time>2021-05-20T12:56:02.237Z</time>
      </trkpt>
      <trkpt lat="48.73979" lon="2.02415">
        <ele>128</ele>
        <time>2021-05-20T12:56:03.237Z</time>
      </trkpt>
      <trkpt lat="48.73979" lon="2.02417">
        <ele>128</ele>
        <time>2021-05-20T12:56:04.237Z</time>
      </trkpt>
      <trkpt lat="48.73979" lon="2.02418">
        <ele>128</ele>
        <time>2021-05-20T12:56:05.237Z</time>
      </trkpt>
      <trkpt lat="48.73979" lon="2.0242">
        <ele>128</ele>
        <time>2021-05-20T12:56:06.237Z</time>
      </trkpt>
      <trkpt lat="48.73979" lon="2.02421">
        <ele>128</ele>
        <time>2021-05-20T12:56:07.237Z</time>
      </trkpt>
      <trkpt lat="48.73978" lon="2.02423">
        <ele>128</ele>
        <time>2021-05-20T12:56:08.237Z</time>
      </trkpt>
      <trkpt lat="48.73978" lon="2.02424">
        <ele>128</ele>
        <time>2021-05-20T12:56:09.237Z</time>
      </trkpt>
      <trkpt lat="48.73977" lon="2.02426">
        <ele>128</ele>
        <time>2021-05-20T12:56:10.237Z</time>
      </trkpt>
      <trkpt lat="48.73977" lon="2.02427">
        <ele>129</ele>
        <time>2021-05-20T12:56:11.237Z</time>
      </trkpt>
      <trkpt lat="48.73977" lon="2.02428">
        <ele>129</ele>
        <time>2021-05-20T12:56:12.237Z</time>
      </trkpt>
      <trkpt lat="48.73976" lon="2.0243">
        <ele>129</ele>
        <time>2021-05-20T12:56:13.237Z</time>
      </trkpt>
      <trkpt lat="48.73976" lon="2.02431">
        <ele>129</ele>
        <time>2021-05-20T12:56:14.237Z</time>
      </trkpt>
      <trkpt lat="48.73976" lon="2.02432">
        <ele>129</ele>
        <time>2021-05-20T12:56:15.237Z</time>
      </trkpt>
      <trkpt lat="48.73976" lon="2.02434">
        <ele>129</ele>
        <time>2021-05-20T12:56:16.237Z</time>
      </trkpt>
      <trkpt lat="48.73976" lon="2.02435">
        <ele>129</ele>
        <time>2021-05-20T12:56:17.237Z</time>
      </trkpt>
      <trkpt lat="48.73975" lon="2.02437">
        <ele>129</ele>
        <time>2021-05-20T12:56:18.237Z</time>
      </trkpt>
      <trkpt lat="48.73975" lon="2.02439">
        <ele>129</ele>
        <time>2021-05-20T12:56:19.237Z</time>
      </trkpt>
      <trkpt lat="48.73974" lon="2.0244">
        <ele>129</ele>
        <time>2021-05-20T12:56:20.237Z</time>
      </trkpt>
      <trkpt lat="48.73974" lon="2.02441">
        <ele>129</ele>
        <time>2021-05-20T12:56:21.237Z</time>
      </trkpt>
      <trkpt lat="48.73973" lon="2.02443">
        <ele>130</ele>
        <time>2021-05-20T12:56:22.237Z</time>
      </trkpt>
      <trkpt lat="48.73973" lon="2.02444">
        <ele>130</ele>
        <time>2021-05-20T12:56:23.237Z</time>
      </trkpt>
      <trkpt lat="48.73973" lon="2.02446">
        <ele>130</ele>
        <time>2021-05-20T12:56:24.237Z</time>
      </trkpt>
      <trkpt lat="48.73972" lon="2.02448">
        <ele>130</ele>
        <time>2021-05-20T12:56:25.237Z</time>
      </trkpt>
      <trkpt lat="48.73972" lon="2.02449">
        <ele>130</ele>
        <time>2021-05-20T12:56:26.237Z</time>
      </trkpt>
      <trkpt lat="48.73971" lon="2.0245">
        <ele>130</ele>
        <time>2021-05-20T12:56:27.237Z</time>
      </trkpt>
      <trkpt lat="48.7397" lon="2.02452">
        <ele>130</ele>
        <time>2021-05-20T12:56:28.237Z</time>
      </trkpt>
      <trkpt lat="48.7397" lon="2.02454">
        <ele>130</ele>
        <time>2021-05-20T12:56:29.237Z</time>
      </trkpt>
      <trkpt lat="48.73969" lon="2.02456">
        <ele>130</ele>
        <time>2021-05-20T12:56:30.237Z</time>
      </trkpt>
      <trkpt lat="48.73969" lon="2.02457">
        <ele>130</ele>
        <time>2021-05-20T12:56:31.237Z</time>
      </trkpt>
      <trkpt lat="48.73968" lon="2.02459">
        <ele>130</ele>
        <time>2021-05-20T12:56:32.237Z</time>
      </trkpt>
      <trkpt lat="48.73968" lon="2.0246">
        <ele>130</ele>
        <time>2021-05-20T12:56:33.237Z</time>
      </trkpt>
      <trkpt lat="48.73967" lon="2.02462">
        <ele>130</ele>
        <time>2021-05-20T12:56:34.237Z</time>
      </trkpt>
      <trkpt lat="48.73966" lon="2.02464">
        <ele>130</ele>
        <time>2021-05-20T12:56:35.237Z</time>
      </trkpt>
      <trkpt lat="48.73965" lon="2.02466">
        <ele>130</ele>
        <time>2021-05-20T12:56:36.237Z</time>
      </trkpt>
      <trkpt lat="48.73965" lon="2.02467">
        <ele>130</ele>
        <time>2021-05-20T12:56:37.237Z</time>
      </trkpt>
      <trkpt lat="48.73964" lon="2.02468">
        <ele>130</ele>
        <time>2021-05-20T12:56:38.237Z</time>
      </trkpt>
      <trkpt lat="48.73963" lon="2.0247">
        <ele>130</ele>
        <time>2021-05-20T12:56:39.237Z</time>
      </trkpt>
      <trkpt lat="48.73963" lon="2.02472">
        <ele>130</ele>
        <time>2021-05-20T12:56:40.237Z</time>
      </trkpt>
      <trkpt lat="48.73962" lon="2.02473">
        <ele>130</ele>
        <time>2021-05-20T12:56:41.237Z</time>
      </trkpt>
      <trkpt lat="48.73962" lon="2.02474">
        <ele>130</ele>
        <time>2021-05-20T12:57:06.219Z</time>
      </trkpt>
      <trkpt lat="48.73961" lon="2.02476">
        <ele>130</ele>
        <time>2021-05-20T12:57:07.219Z</time>
      </trkpt>
      <trkpt lat="48.7396" lon="2.02477">
        <ele>130</ele>
        <time>2021-05-20T12:57:08.219Z</time>
      </trkpt>
      <trkpt lat="48.7396" lon="2.02479">
        <ele>130</ele>
        <time>2021-05-20T12:57:09.219Z</time>
      </trkpt>
      <trkpt lat="48.73959" lon="2.02481">
        <ele>131</ele>
        <time>2021-05-20T12:57:10.219Z</time>
      </trkpt>
      <trkpt lat="48.73959" lon="2.02482">
        <ele>131</ele>
        <time>2021-05-20T12:57:13.492Z</time>
      </trkpt>
      <trkpt lat="48.73958" lon="2.02483">
        <ele>131</ele>
        <time>2021-05-20T12:57:14.492Z</time>
      </trkpt>
      <trkpt lat="48.73958" lon="2.02485">
        <ele>131</ele>
        <time>2021-05-20T12:57:15.492Z</time>
      </trkpt>
      <trkpt lat="48.73957" lon="2.02487">
        <ele>131</ele>
        <time>2021-05-20T12:57:16.492Z</time>
      </trkpt>
      <trkpt lat="48.73957" lon="2.02488">
        <ele>131</ele>
        <time>2021-05-20T12:57:17.492Z</time>
      </trkpt>
      <trkpt lat="48.73957" lon="2.0249">
        <ele>131</ele>
        <time>2021-05-20T12:57:18.492Z</time>
      </trkpt>
      <trkpt lat="48.73956" lon="2.02492">
        <ele>131</ele>
        <time>2021-05-20T12:57:19.492Z</time>
      </trkpt>
      <trkpt lat="48.73956" lon="2.02494">
        <ele>131</ele>
        <time>2021-05-20T12:57:20.492Z</time>
      </trkpt>
      <trkpt lat="48.73956" lon="2.02496">
        <ele>131</ele>
        <time>2021-05-20T12:57:21.492Z</time>
      </trkpt>
      <trkpt lat="48.73955" lon="2.02497">
        <ele>131</ele>
        <time>2021-05-20T12:57:22.492Z</time>
      </trkpt>
      <trkpt lat="48.73955" lon="2.02499">
        <ele>131</ele>
        <time>2021-05-20T12:57:23.492Z</time>
      </trkpt>
      <trkpt lat="48.73954" lon="2.02501">
        <ele>132</ele>
        <time>2021-05-20T12:57:24.492Z</time>
      </trkpt>
      <trkpt lat="48.73954" lon="2.02503">
        <ele>132</ele>
        <time>2021-05-20T12:57:25.492Z</time>
      </trkpt>
      <trkpt lat="48.73954" lon="2.02504">
        <ele>132</ele>
        <time>2021-05-20T12:57:26.492Z</time>
      </trkpt>
      <trkpt lat="48.73953" lon="2.02505">
        <ele>132</ele>
        <time>2021-05-20T12:57:27.492Z</time>
      </trkpt>
      <trkpt lat="48.73953" lon="2.02507">
        <ele>132</ele>
        <time>2021-05-20T12:57:28.492Z</time>
      </trkpt>
      <trkpt lat="48.73952" lon="2.02508">
        <ele>132</ele>
        <time>2021-05-20T12:57:29.492Z</time>
      </trkpt>
      <trkpt lat="48.73952" lon="2.0251">
        <ele>132</ele>
        <time>2021-05-20T12:57:30.492Z</time>
      </trkpt>
      <trkpt lat="48.73951" lon="2.02512">
        <ele>132</ele>
        <time>2021-05-20T12:57:31.492Z</time>
      </trkpt>
      <trkpt lat="48.73951" lon="2.02513">
        <ele>132</ele>
        <time>2021-05-20T12:57:32.492Z</time>
      </trkpt>
      <trkpt lat="48.7395" lon="2.02514">
        <ele>132</ele>
        <time>2021-05-20T12:57:33.492Z</time>
      </trkpt>
      <trkpt lat="48.73949" lon="2.02515">
        <ele>132</ele>
        <time>2021-05-20T12:57:34.492Z</time>
      </trkpt>
      <trkpt lat="48.73949" lon="2.02517">
        <ele>132</ele>
        <time>2021-05-20T12:57:35.492Z</time>
      </trkpt>
      <trkpt lat="48.73949" lon="2.02518">
        <ele>132</ele>
        <time>2021-05-20T12:57:36.492Z</time>
      </trkpt>
      <trkpt lat="48.73949" lon="2.0252">
        <ele>132</ele>
        <time>2021-05-20T12:57:37.492Z</time>
      </trkpt>
      <trkpt lat="48.73949" lon="2.02521">
        <ele>133</ele>
        <time>2021-05-20T12:57:38.492Z</time>
      </trkpt>
      <trkpt lat="48.73948" lon="2.02522">
        <ele>133</ele>
        <time>2021-05-20T12:57:39.492Z</time>
      </trkpt>
      <trkpt lat="48.73948" lon="2.02524">
        <ele>133</ele>
        <time>2021-05-20T12:57:40.492Z</time>
      </trkpt>
      <trkpt lat="48.73947" lon="2.02525">
        <ele>133</ele>
        <time>2021-05-20T12:57:41.492Z</time>
      </trkpt>
      <trkpt lat="48.73947" lon="2.02526">
        <ele>133</ele>
        <time>2021-05-20T12:57:42.492Z</time>
      </trkpt>
      <trkpt lat="48.73947" lon="2.02527">
        <ele>133</ele>
        <time>2021-05-20T12:57:54.505Z</time>
      </trkpt>
      <trkpt lat="48.73947" lon="2.02529">
        <ele>134</ele>
        <time>2021-05-20T12:57:55.505Z</time>
      </trkpt>
      <trkpt lat="48.73947" lon="2.02529">
        <ele>134</ele>
        <time>2021-05-20T12:57:56.505Z</time>
      </trkpt>
      <trkpt lat="48.73947" lon="2.0253">
        <ele>134</ele>
        <time>2021-05-20T12:57:57.505Z</time>
      </trkpt>
      <trkpt lat="48.73947" lon="2.02531">
        <ele>134</ele>
        <time>2021-05-20T12:57:58.505Z</time>
      </trkpt>
      <trkpt lat="48.73947" lon="2.02533">
        <ele>134</ele>
        <time>2021-05-20T12:57:59.505Z</time>
      </trkpt>
      <trkpt lat="48.73947" lon="2.02534">
        <ele>135</ele>
        <time>2021-05-20T12:58:00.505Z</time>
      </trkpt>
      <trkpt lat="48.73947" lon="2.02535">
        <ele>135</ele>
        <time>2021-05-20T12:58:01.505Z</time>
      </trkpt>
      <trkpt lat="48.73947" lon="2.02535">
        <ele>135</ele>
        <time>2021-05-20T12:58:02.505Z</time>
      </trkpt>
      <trkpt lat="48.73947" lon="2.02536">
        <ele>135</ele>
        <time>2021-05-20T12:58:03.505Z</time>
      </trkpt>
      <trkpt lat="48.73948" lon="2.02537">
        <ele>136</ele>
        <time>2021-05-20T12:58:04.505Z</time>
      </trkpt>
      <trkpt lat="48.73948" lon="2.02538">
        <ele>136</ele>
        <time>2021-05-20T12:58:05.505Z</time>
      </trkpt>
      <trkpt lat="48.73948" lon="2.02539">
        <ele>136</ele>
        <time>2021-05-20T12:58:06.505Z</time>
      </trkpt>
      <trkpt lat="48.73949" lon="2.0254">
        <ele>136</ele>
        <time>2021-05-20T12:58:07.505Z</time>
      </trkpt>
      <trkpt lat="48.73949" lon="2.02541">
        <ele>136</ele>
        <time>2021-05-20T12:58:08.505Z</time>
      </trkpt>
      <trkpt lat="48.7395" lon="2.02543">
        <ele>137</ele>
        <time>2021-05-20T12:58:09.505Z</time>
      </trkpt>
      <trkpt lat="48.73951" lon="2.02544">
        <ele>137</ele>
        <time>2021-05-20T12:58:10.505Z</time>
      </trkpt>
      <trkpt lat="48.73951" lon="2.02546">
        <ele>137</ele>
        <time>2021-05-20T12:58:11.505Z</time>
      </trkpt>
      <trkpt lat="48.73952" lon="2.02548">
        <ele>138</ele>
        <time>2021-05-20T12:58:12.505Z</time>
      </trkpt>
      <trkpt lat="48.73953" lon="2.0255">
        <ele>138</ele>
        <time>2021-05-20T12:58:13.505Z</time>
      </trkpt>
      <trkpt lat="48.73953" lon="2.02552">
        <ele>138</ele>
        <time>2021-05-20T12:58:14.505Z</time>
      </trkpt>
      <trkpt lat="48.73954" lon="2.02554">
        <ele>139</ele>
        <time>2021-05-20T12:58:15.505Z</time>
      </trkpt>
      <trkpt lat="48.73954" lon="2.02556">
        <ele>139</ele>
        <time>2021-05-20T12:58:16.505Z</time>
      </trkpt>
      <trkpt lat="48.73955" lon="2.02558">
        <ele>139</ele>
        <time>2021-05-20T12:58:17.505Z</time>
      </trkpt>
      <trkpt lat="48.73955" lon="2.0256">
        <ele>140</ele>
        <time>2021-05-20T12:58:18.505Z</time>
      </trkpt>
      <trkpt lat="48.73956" lon="2.02561">
        <ele>140</ele>
        <time>2021-05-20T12:58:19.505Z</time>
      </trkpt>
      <trkpt lat="48.73957" lon="2.02562">
        <ele>140</ele>
        <time>2021-05-20T12:58:20.505Z</time>
      </trkpt>
      <trkpt lat="48.73957" lon="2.02564">
        <ele>141</ele>
        <time>2021-05-20T12:58:21.505Z</time>
      </trkpt>
      <trkpt lat="48.73958" lon="2.02565">
        <ele>141</ele>
        <time>2021-05-20T12:58:22.505Z</time>
      </trkpt>
      <trkpt lat="48.73959" lon="2.02567">
        <ele>141</ele>
        <time>2021-05-20T12:58:23.505Z</time>
      </trkpt>
      <trkpt lat="48.7396" lon="2.02569">
        <ele>142</ele>
        <time>2021-05-20T12:58:24.505Z</time>
      </trkpt>
      <trkpt lat="48.73961" lon="2.02571">
        <ele>142</ele>
        <time>2021-05-20T12:58:25.505Z</time>
      </trkpt>
      <trkpt lat="48.73961" lon="2.02573">
        <ele>143</ele>
        <time>2021-05-20T12:58:26.505Z</time>
      </trkpt>
      <trkpt lat="48.73962" lon="2.02574">
        <ele>143</ele>
        <time>2021-05-20T12:58:27.505Z</time>
      </trkpt>
      <trkpt lat="48.73962" lon="2.02575">
        <ele>143</ele>
        <time>2021-05-20T12:58:28.505Z</time>
      </trkpt>
      <trkpt lat="48.73963" lon="2.02577">
        <ele>144</ele>
        <time>2021-05-20T12:58:29.505Z</time>
      </trkpt>
      <trkpt lat="48.73963" lon="2.02578">
        <ele>144</ele>
        <time>2021-05-20T12:58:30.505Z</time>
      </trkpt>
      <trkpt lat="48.73964" lon="2.02579">
        <ele>144</ele>
        <time>2021-05-20T12:58:31.505Z</time>
      </trkpt>
      <trkpt lat="48.73965" lon="2.02581">
        <ele>144</ele>
        <time>2021-05-20T12:58:32.505Z</time>
      </trkpt>
      <trkpt lat="48.73965" lon="2.02582">
        <ele>145</ele>
        <time>2021-05-20T12:58:33.505Z</time>
      </trkpt>
      <trkpt lat="48.73966" lon="2.02584">
        <ele>145</ele>
        <time>2021-05-20T12:58:34.505Z</time>
      </trkpt>
      <trkpt lat="48.73967" lon="2.02585">
        <ele>145</ele>
        <time>2021-05-20T12:58:35.505Z</time>
      </trkpt>
      <trkpt lat="48.73967" lon="2.02586">
        <ele>145</ele>
        <time>2021-05-20T12:58:36.505Z</time>
      </trkpt>
      <trkpt lat="48.73967" lon="2.02587">
        <ele>145</ele>
        <time>2021-05-20T12:58:37.505Z</time>
      </trkpt>
      <trkpt lat="48.73968" lon="2.02588">
        <ele>145</ele>
        <time>2021-05-20T12:58:38.505Z</time>
      </trkpt>
      <trkpt lat="48.73968" lon="2.0259">
        <ele>145</ele>
        <time>2021-05-20T12:58:39.505Z</time>
      </trkpt>
      <trkpt lat="48.73968" lon="2.02591">
        <ele>145</ele>
        <time>2021-05-20T12:58:40.505Z</time>
      </trkpt>
      <trkpt lat="48.73968" lon="2.02592">
        <ele>146</ele>
        <time>2021-05-20T12:58:41.505Z</time>
      </trkpt>
      <trkpt lat="48.73969" lon="2.02593">
        <ele>146</ele>
        <time>2021-05-20T12:58:42.505Z</time>
      </trkpt>
      <trkpt lat="48.73969" lon="2.02594">
        <ele>146</ele>
        <time>2021-05-20T12:58:47.503Z</time>
      </trkpt>
      <trkpt lat="48.7397" lon="2.02595">
        <ele>146</ele>
        <time>2021-05-20T12:58:48.503Z</time>
      </trkpt>
      <trkpt lat="48.7397" lon="2.02596">
        <ele>146</ele>
        <time>2021-05-20T12:58:49.503Z</time>
      </trkpt>
      <trkpt lat="48.73971" lon="2.02598">
        <ele>146</ele>
        <time>2021-05-20T12:58:50.503Z</time>
      </trkpt>
      <trkpt lat="48.73971" lon="2.02599">
        <ele>146</ele>
        <time>2021-05-20T12:58:51.503Z</time>
      </trkpt>
      <trkpt lat="48.73971" lon="2.02599">
        <ele>146</ele>
        <time>2021-05-20T12:58:52.503Z</time>
      </trkpt>
      <trkpt lat="48.73972" lon="2.02601">
        <ele>146</ele>
        <time>2021-05-20T12:58:53.503Z</time>
      </trkpt>
      <trkpt lat="48.73972" lon="2.02602">
        <ele>146</ele>
        <time>2021-05-20T12:58:54.503Z</time>
      </trkpt>
      <trkpt lat="48.73973" lon="2.02603">
        <ele>146</ele>
        <time>2021-05-20T12:58:55.503Z</time>
      </trkpt>
      <trkpt lat="48.73973" lon="2.02604">
        <ele>146</ele>
        <time>2021-05-20T12:58:56.503Z</time>
      </trkpt>
      <trkpt lat="48.73973" lon="2.02605">
        <ele>147</ele>
        <time>2021-05-20T12:58:57.503Z</time>
      </trkpt>
      <trkpt lat="48.73974" lon="2.02606">
        <ele>147</ele>
        <time>2021-05-20T12:58:58.503Z</time>
      </trkpt>
      <trkpt lat="48.73974" lon="2.02607">
        <ele>147</ele>
        <time>2021-05-20T12:58:59.503Z</time>
      </trkpt>
      <trkpt lat="48.73975" lon="2.02607">
        <ele>147</ele>
        <time>2021-05-20T12:59:00.503Z</time>
      </trkpt>
      <trkpt lat="48.73976" lon="2.02608">
        <ele>147</ele>
        <time>2021-05-20T12:59:01.503Z</time>
      </trkpt>
      <trkpt lat="48.73976" lon="2.02609">
        <ele>147</ele>
        <time>2021-05-20T12:59:02.503Z</time>
      </trkpt>
      <trkpt lat="48.73977" lon="2.0261">
        <ele>147</ele>
        <time>2021-05-20T12:59:03.503Z</time>
      </trkpt>
      <trkpt lat="48.73977" lon="2.02611">
        <ele>147</ele>
        <time>2021-05-20T12:59:04.503Z</time>
      </trkpt>
      <trkpt lat="48.73978" lon="2.02612">
        <ele>147</ele>
        <time>2021-05-20T12:59:05.503Z</time>
      </trkpt>
      <trkpt lat="48.73979" lon="2.02613">
        <ele>148</ele>
        <time>2021-05-20T12:59:06.503Z</time>
      </trkpt>
      <trkpt lat="48.7398" lon="2.02614">
        <ele>148</ele>
        <time>2021-05-20T12:59:12.531Z</time>
      </trkpt>
      <trkpt lat="48.7398" lon="2.02615">
        <ele>148</ele>
        <time>2021-05-20T12:59:13.531Z</time>
      </trkpt>
      <trkpt lat="48.73981" lon="2.02616">
        <ele>148</ele>
        <time>2021-05-20T12:59:14.531Z</time>
      </trkpt>
      <trkpt lat="48.73982" lon="2.02617">
        <ele>148</ele>
        <time>2021-05-20T12:59:15.531Z</time>
      </trkpt>
      <trkpt lat="48.73982" lon="2.02618">
        <ele>149</ele>
        <time>2021-05-20T12:59:16.531Z</time>
      </trkpt>
      <trkpt lat="48.73983" lon="2.02619">
        <ele>149</ele>
        <time>2021-05-20T12:59:17.531Z</time>
      </trkpt>
      <trkpt lat="48.73983" lon="2.0262">
        <ele>149</ele>
        <time>2021-05-20T12:59:18.531Z</time>
      </trkpt>
      <trkpt lat="48.73984" lon="2.02622">
        <ele>149</ele>
        <time>2021-05-20T12:59:19.531Z</time>
      </trkpt>
      <trkpt lat="48.73984" lon="2.02623">
        <ele>149</ele>
        <time>2021-05-20T12:59:20.531Z</time>
      </trkpt>
      <trkpt lat="48.73985" lon="2.02624">
        <ele>149</ele>
        <time>2021-05-20T12:59:21.531Z</time>
      </trkpt>
      <trkpt lat="48.73985" lon="2.02626">
        <ele>150</ele>
        <time>2021-05-20T12:59:22.531Z</time>
      </trkpt>
      <trkpt lat="48.73986" lon="2.02627">
        <ele>150</ele>
        <time>2021-05-20T12:59:23.531Z</time>
      </trkpt>
      <trkpt lat="48.73987" lon="2.02628">
        <ele>150</ele>
        <time>2021-05-20T12:59:24.531Z</time>
      </trkpt>
      <trkpt lat="48.73987" lon="2.02629">
        <ele>150</ele>
        <time>2021-05-20T12:59:25.531Z</time>
      </trkpt>
      <trkpt lat="48.73988" lon="2.0263">
        <ele>150</ele>
        <time>2021-05-20T12:59:26.531Z</time>
      </trkpt>
      <trkpt lat="48.73989" lon="2.02631">
        <ele>150</ele>
        <time>2021-05-20T12:59:27.531Z</time>
      </trkpt>
      <trkpt lat="48.7399" lon="2.02632">
        <ele>151</ele>
        <time>2021-05-20T12:59:28.531Z</time>
      </trkpt>
      <trkpt lat="48.73991" lon="2.02633">
        <ele>151</ele>
        <time>2021-05-20T12:59:29.531Z</time>
      </trkpt>
      <trkpt lat="48.73991" lon="2.02634">
        <ele>151</ele>
        <time>2021-05-20T12:59:30.531Z</time>
      </trkpt>
      <trkpt lat="48.73992" lon="2.02635">
        <ele>151</ele>
        <time>2021-05-20T12:59:31.531Z</time>
      </trkpt>
      <trkpt lat="48.73993" lon="2.02636">
        <ele>151</ele>
        <time>2021-05-20T12:59:32.531Z</time>
      </trkpt>
      <trkpt lat="48.73993" lon="2.02636">
        <ele>151</ele>
        <time>2021-05-20T12:59:33.531Z</time>
      </trkpt>
      <trkpt lat="48.73994" lon="2.02637">
        <ele>152</ele>
        <time>2021-05-20T12:59:34.531Z</time>
      </trkpt>
      <trkpt lat="48.73996" lon="2.0264">
        <ele>152</ele>
        <time>2021-05-20T12:59:35.531Z</time>
      </trkpt>
      <trkpt lat="48.73997" lon="2.02641">
        <ele>152</ele>
        <time>2021-05-20T12:59:36.531Z</time>
      </trkpt>
      <trkpt lat="48.73997" lon="2.02642">
        <ele>152</ele>
        <time>2021-05-20T12:59:37.531Z</time>
      </trkpt>
      <trkpt lat="48.73998" lon="2.02643">
        <ele>152</ele>
        <time>2021-05-20T12:59:38.531Z</time>
      </trkpt>
      <trkpt lat="48.73999" lon="2.02644">
        <ele>153</ele>
        <time>2021-05-20T12:59:39.531Z</time>
      </trkpt>
      <trkpt lat="48.74" lon="2.02645">
        <ele>153</ele>
        <time>2021-05-20T12:59:40.531Z</time>
      </trkpt>
      <trkpt lat="48.74" lon="2.02646">
        <ele>153</ele>
        <time>2021-05-20T12:59:41.531Z</time>
      </trkpt>
      <trkpt lat="48.74001" lon="2.02648">
        <ele>153</ele>
        <time>2021-05-20T12:59:42.531Z</time>
      </trkpt>
      <trkpt lat="48.74002" lon="2.02648">
        <ele>153</ele>
        <time>2021-05-20T12:59:43.531Z</time>
      </trkpt>
      <trkpt lat="48.74002" lon="2.02649">
        <ele>153</ele>
        <time>2021-05-20T12:59:44.531Z</time>
      </trkpt>
      <trkpt lat="48.74003" lon="2.0265">
        <ele>153</ele>
        <time>2021-05-20T12:59:45.531Z</time>
      </trkpt>
      <trkpt lat="48.74004" lon="2.02651">
        <ele>153</ele>
        <time>2021-05-20T12:59:46.531Z</time>
      </trkpt>
      <trkpt lat="48.74004" lon="2.02652">
        <ele>153</ele>
        <time>2021-05-20T12:59:47.531Z</time>
      </trkpt>
      <trkpt lat="48.74005" lon="2.02653">
        <ele>154</ele>
        <time>2021-05-20T12:59:48.531Z</time>
      </trkpt>
      <trkpt lat="48.74005" lon="2.02654">
        <ele>154</ele>
        <time>2021-05-20T12:59:49.531Z</time>
      </trkpt>
      <trkpt lat="48.74006" lon="2.02655">
        <ele>154</ele>
        <time>2021-05-20T12:59:50.531Z</time>
      </trkpt>
      <trkpt lat="48.74007" lon="2.02656">
        <ele>154</ele>
        <time>2021-05-20T12:59:51.531Z</time>
      </trkpt>
      <trkpt lat="48.74008" lon="2.02657">
        <ele>154</ele>
        <time>2021-05-20T12:59:52.531Z</time>
      </trkpt>
      <trkpt lat="48.74009" lon="2.02657">
        <ele>154</ele>
        <time>2021-05-20T12:59:53.531Z</time>
      </trkpt>
      <trkpt lat="48.7401" lon="2.02659">
        <ele>154</ele>
        <time>2021-05-20T12:59:54.531Z</time>
      </trkpt>
      <trkpt lat="48.74011" lon="2.0266">
        <ele>154</ele>
        <time>2021-05-20T12:59:55.531Z</time>
      </trkpt>
      <trkpt lat="48.74011" lon="2.02661">
        <ele>154</ele>
        <time>2021-05-20T12:59:56.531Z</time>
      </trkpt>
      <trkpt lat="48.74013" lon="2.02662">
        <ele>154</ele>
        <time>2021-05-20T12:59:57.531Z</time>
      </trkpt>
      <trkpt lat="48.74014" lon="2.02663">
        <ele>155</ele>
        <time>2021-05-20T12:59:58.531Z</time>
      </trkpt>
      <trkpt lat="48.74015" lon="2.02664">
        <ele>155</ele>
        <time>2021-05-20T12:59:59.531Z</time>
      </trkpt>
      <trkpt lat="48.74015" lon="2.02665">
        <ele>155</ele>
        <time>2021-05-20T13:00:00.531Z</time>
      </trkpt>
      <trkpt lat="48.74016" lon="2.02665">
        <ele>155</ele>
        <time>2021-05-20T13:00:01.531Z</time>
      </trkpt>
      <trkpt lat="48.74017" lon="2.02666">
        <ele>155</ele>
        <time>2021-05-20T13:00:02.531Z</time>
      </trkpt>
      <trkpt lat="48.74018" lon="2.02667">
        <ele>155</ele>
        <time>2021-05-20T13:00:33.499Z</time>
      </trkpt>
      <trkpt lat="48.74019" lon="2.02668">
        <ele>156</ele>
        <time>2021-05-20T13:00:34.499Z</time>
      </trkpt>
      <trkpt lat="48.74019" lon="2.0267">
        <ele>156</ele>
        <time>2021-05-20T13:00:38.498Z</time>
      </trkpt>
      <trkpt lat="48.7402" lon="2.0267">
        <ele>156</ele>
        <time>2021-05-20T13:00:39.498Z</time>
      </trkpt>
      <trkpt lat="48.74021" lon="2.02671">
        <ele>156</ele>
        <time>2021-05-20T13:00:40.498Z</time>
      </trkpt>
      <trkpt lat="48.74021" lon="2.02671">
        <ele>156</ele>
        <time>2021-05-20T13:00:41.498Z</time>
      </trkpt>
      <trkpt lat="48.74022" lon="2.02672">
        <ele>157</ele>
        <time>2021-05-20T13:00:42.498Z</time>
      </trkpt>
      <trkpt lat="48.74023" lon="2.02673">
        <ele>157</ele>
        <time>2021-05-20T13:00:43.498Z</time>
      </trkpt>
      <trkpt lat="48.74024" lon="2.02674">
        <ele>157</ele>
        <time>2021-05-20T13:00:46.771Z</time>
      </trkpt>
      <trkpt lat="48.74025" lon="2.02674">
        <ele>157</ele>
        <time>2021-05-20T13:00:47.771Z</time>
      </trkpt>
      <trkpt lat="48.74025" lon="2.02674">
        <ele>157</ele>
        <time>2021-05-20T13:00:48.771Z</time>
      </trkpt>
      <trkpt lat="48.74026" lon="2.02675">
        <ele>158</ele>
        <time>2021-05-20T13:00:49.771Z</time>
      </trkpt>
      <trkpt lat="48.74027" lon="2.02676">
        <ele>158</ele>
        <time>2021-05-20T13:00:50.771Z</time>
      </trkpt>
      <trkpt lat="48.74028" lon="2.02676">
        <ele>158</ele>
        <time>2021-05-20T13:00:51.771Z</time>
      </trkpt>
      <trkpt lat="48.74029" lon="2.02677">
        <ele>158</ele>
        <time>2021-05-20T13:00:52.771Z</time>
      </trkpt>
      <trkpt lat="48.7403" lon="2.02678">
        <ele>158</ele>
        <time>2021-05-20T13:00:53.771Z</time>
      </trkpt>
      <trkpt lat="48.74031" lon="2.02678">
        <ele>158</ele>
        <time>2021-05-20T13:00:54.771Z</time>
      </trkpt>
      <trkpt lat="48.74032" lon="2.02679">
        <ele>159</ele>
        <time>2021-05-20T13:00:55.771Z</time>
      </trkpt>
      <trkpt lat="48.74032" lon="2.02679">
        <ele>159</ele>
        <time>2021-05-20T13:00:56.771Z</time>
      </trkpt>
      <trkpt lat="48.74033" lon="2.0268">
        <ele>159</ele>
        <time>2021-05-20T13:00:57.771Z</time>
      </trkpt>
      <trkpt lat="48.74033" lon="2.0268">
        <ele>159</ele>
        <time>2021-05-20T13:00:58.771Z</time>
      </trkpt>
      <trkpt lat="48.74036" lon="2.0268">
        <ele>159</ele>
        <time>2021-05-20T13:00:59.771Z</time>
      </trkpt>
      <trkpt lat="48.74036" lon="2.02681">
        <ele>160</ele>
        <time>2021-05-20T13:01:00.771Z</time>
      </trkpt>
      <trkpt lat="48.74037" lon="2.02681">
        <ele>160</ele>
        <time>2021-05-20T13:01:01.771Z</time>
      </trkpt>
      <trkpt lat="48.74038" lon="2.02682">
        <ele>160</ele>
        <time>2021-05-20T13:01:02.771Z</time>
      </trkpt>
      <trkpt lat="48.74039" lon="2.02683">
        <ele>160</ele>
        <time>2021-05-20T13:01:03.771Z</time>
      </trkpt>
      <trkpt lat="48.7404" lon="2.02683">
        <ele>160</ele>
        <time>2021-05-20T13:01:04.771Z</time>
      </trkpt>
      <trkpt lat="48.74041" lon="2.02684">
        <ele>161</ele>
        <time>2021-05-20T13:01:05.771Z</time>
      </trkpt>
      <trkpt lat="48.74042" lon="2.02685">
        <ele>161</ele>
        <time>2021-05-20T13:01:06.771Z</time>
      </trkpt>
      <trkpt lat="48.74044" lon="2.02686">
        <ele>161</ele>
        <time>2021-05-20T13:01:07.771Z</time>
      </trkpt>
      <trkpt lat="48.74045" lon="2.02686">
        <ele>161</ele>
        <time>2021-05-20T13:01:08.771Z</time>
      </trkpt>
      <trkpt lat="48.74046" lon="2.02687">
        <ele>161</ele>
        <time>2021-05-20T13:01:09.771Z</time>
      </trkpt>
      <trkpt lat="48.74047" lon="2.02688">
        <ele>161</ele>
        <time>2021-05-20T13:01:10.771Z</time>
      </trkpt>
      <trkpt lat="48.74048" lon="2.02689">
        <ele>162</ele>
        <time>2021-05-20T13:01:11.771Z</time>
      </trkpt>
      <trkpt lat="48.74049" lon="2.02689">
        <ele>162</ele>
        <time>2021-05-20T13:01:12.771Z</time>
      </trkpt>
      <trkpt lat="48.7405" lon="2.02689">
        <ele>162</ele>
        <time>2021-05-20T13:01:13.771Z</time>
      </trkpt>
      <trkpt lat="48.74051" lon="2.0269">
        <ele>162</ele>
        <time>2021-05-20T13:01:14.771Z</time>
      </trkpt>
      <trkpt lat="48.74052" lon="2.0269">
        <ele>162</ele>
        <time>2021-05-20T13:01:15.771Z</time>
      </trkpt>
      <trkpt lat="48.74053" lon="2.0269">
        <ele>162</ele>
        <time>2021-05-20T13:01:16.771Z</time>
      </trkpt>
      <trkpt lat="48.74053" lon="2.0269">
        <ele>162</ele>
        <time>2021-05-20T13:01:17.771Z</time>
      </trkpt>
      <trkpt lat="48.74054" lon="2.02691">
        <ele>162</ele>
        <time>2021-05-20T13:01:18.771Z</time>
      </trkpt>
      <trkpt lat="48.74055" lon="2.02691">
        <ele>162</ele>
        <time>2021-05-20T13:01:19.771Z</time>
      </trkpt>
      <trkpt lat="48.74056" lon="2.02692">
        <ele>162</ele>
        <time>2021-05-20T13:01:20.771Z</time>
      </trkpt>
      <trkpt lat="48.74056" lon="2.02693">
        <ele>162</ele>
        <time>2021-05-20T13:01:21.771Z</time>
      </trkpt>
      <trkpt lat="48.74057" lon="2.02693">
        <ele>162</ele>
        <time>2021-05-20T13:01:22.771Z</time>
      </trkpt>
      <trkpt lat="48.74058" lon="2.02694">
        <ele>162</ele>
        <time>2021-05-20T13:01:23.771Z</time>
      </trkpt>
      <trkpt lat="48.74059" lon="2.02695">
        <ele>163</ele>
        <time>2021-05-20T13:01:24.771Z</time>
      </trkpt>
      <trkpt lat="48.74059" lon="2.02696">
        <ele>163</ele>
        <time>2021-05-20T13:01:25.771Z</time>
      </trkpt>
      <trkpt lat="48.7406" lon="2.02697">
        <ele>163</ele>
        <time>2021-05-20T13:01:26.771Z</time>
      </trkpt>
      <trkpt lat="48.74061" lon="2.02698">
        <ele>163</ele>
        <time>2021-05-20T13:01:27.771Z</time>
      </trkpt>
      <trkpt lat="48.74062" lon="2.027">
        <ele>163</ele>
        <time>2021-05-20T13:01:28.771Z</time>
      </trkpt>
      <trkpt lat="48.74063" lon="2.027">
        <ele>163</ele>
        <time>2021-05-20T13:01:29.771Z</time>
      </trkpt>
      <trkpt lat="48.74064" lon="2.02701">
        <ele>163</ele>
        <time>2021-05-20T13:01:30.771Z</time>
      </trkpt>
      <trkpt lat="48.74065" lon="2.02702">
        <ele>163</ele>
        <time>2021-05-20T13:01:31.771Z</time>
      </trkpt>
      <trkpt lat="48.74066" lon="2.02703">
        <ele>163</ele>
        <time>2021-05-20T13:01:32.771Z</time>
      </trkpt>
      <trkpt lat="48.74067" lon="2.02704">
        <ele>164</ele>
        <time>2021-05-20T13:01:33.771Z</time>
      </trkpt>
      <trkpt lat="48.74068" lon="2.02704">
        <ele>164</ele>
        <time>2021-05-20T13:01:34.771Z</time>
      </trkpt>
      <trkpt lat="48.74069" lon="2.02705">
        <ele>164</ele>
        <time>2021-05-20T13:01:35.771Z</time>
      </trkpt>
      <trkpt lat="48.7407" lon="2.02706">
        <ele>164</ele>
        <time>2021-05-20T13:01:36.771Z</time>
      </trkpt>
      <trkpt lat="48.74071" lon="2.02707">
        <ele>164</ele>
        <time>2021-05-20T13:01:37.771Z</time>
      </trkpt>
      <trkpt lat="48.74072" lon="2.02708">
        <ele>164</ele>
        <time>2021-05-20T13:01:38.771Z</time>
      </trkpt>
      <trkpt lat="48.74073" lon="2.02709">
        <ele>164</ele>
        <time>2021-05-20T13:01:39.771Z</time>
      </trkpt>
      <trkpt lat="48.74074" lon="2.0271">
        <ele>164</ele>
        <time>2021-05-20T13:01:40.771Z</time>
      </trkpt>
      <trkpt lat="48.74075" lon="2.02711">
        <ele>165</ele>
        <time>2021-05-20T13:01:41.771Z</time>
      </trkpt>
      <trkpt lat="48.74076" lon="2.02712">
        <ele>165</ele>
        <time>2021-05-20T13:01:42.771Z</time>
      </trkpt>
      <trkpt lat="48.74076" lon="2.02713">
        <ele>165</ele>
        <time>2021-05-20T13:01:43.771Z</time>
      </trkpt>
      <trkpt lat="48.74077" lon="2.02714">
        <ele>165</ele>
        <time>2021-05-20T13:01:44.771Z</time>
      </trkpt>
      <trkpt lat="48.74078" lon="2.02715">
        <ele>165</ele>
        <time>2021-05-20T13:01:45.771Z</time>
      </trkpt>
      <trkpt lat="48.74079" lon="2.02715">
        <ele>165</ele>
        <time>2021-05-20T13:01:46.771Z</time>
      </trkpt>
      <trkpt lat="48.7408" lon="2.02716">
        <ele>165</ele>
        <time>2021-05-20T13:01:47.771Z</time>
      </trkpt>
      <trkpt lat="48.74081" lon="2.02717">
        <ele>165</ele>
        <time>2021-05-20T13:01:48.771Z</time>
      </trkpt>
      <trkpt lat="48.74081" lon="2.02717">
        <ele>166</ele>
        <time>2021-05-20T13:01:49.771Z</time>
      </trkpt>
      <trkpt lat="48.74082" lon="2.02718">
        <ele>166</ele>
        <time>2021-05-20T13:01:50.771Z</time>
      </trkpt>
      <trkpt lat="48.74083" lon="2.02719">
        <ele>166</ele>
        <time>2021-05-20T13:01:51.771Z</time>
      </trkpt>
      <trkpt lat="48.74084" lon="2.0272">
        <ele>166</ele>
        <time>2021-05-20T13:01:52.771Z</time>
      </trkpt>
      <trkpt lat="48.74084" lon="2.0272">
        <ele>166</ele>
        <time>2021-05-20T13:01:53.771Z</time>
      </trkpt>
      <trkpt lat="48.74085" lon="2.02721">
        <ele>166</ele>
        <time>2021-05-20T13:01:54.771Z</time>
      </trkpt>
      <trkpt lat="48.74086" lon="2.02722">
        <ele>167</ele>
        <time>2021-05-20T13:01:55.771Z</time>
      </trkpt>
      <trkpt lat="48.74086" lon="2.02723">
        <ele>167</ele>
        <time>2021-05-20T13:01:56.771Z</time>
      </trkpt>
      <trkpt lat="48.74087" lon="2.02724">
        <ele>167</ele>
        <time>2021-05-20T13:01:57.771Z</time>
      </trkpt>
      <trkpt lat="48.74088" lon="2.02724">
        <ele>167</ele>
        <time>2021-05-20T13:01:58.771Z</time>
      </trkpt>
      <trkpt lat="48.74089" lon="2.02725">
        <ele>167</ele>
        <time>2021-05-20T13:01:59.771Z</time>
      </trkpt>
      <trkpt lat="48.7409" lon="2.02725">
        <ele>167</ele>
        <time>2021-05-20T13:02:00.771Z</time>
      </trkpt>
      <trkpt lat="48.74091" lon="2.02726">
        <ele>168</ele>
        <time>2021-05-20T13:02:01.771Z</time>
      </trkpt>
      <trkpt lat="48.74092" lon="2.02727">
        <ele>168</ele>
        <time>2021-05-20T13:02:02.771Z</time>
      </trkpt>
      <trkpt lat="48.74093" lon="2.02727">
        <ele>168</ele>
        <time>2021-05-20T13:02:03.771Z</time>
      </trkpt>
      <trkpt lat="48.74094" lon="2.02728">
        <ele>168</ele>
        <time>2021-05-20T13:02:04.771Z</time>
      </trkpt>
      <trkpt lat="48.74095" lon="2.02729">
        <ele>168</ele>
        <time>2021-05-20T13:02:05.771Z</time>
      </trkpt>
      <trkpt lat="48.74096" lon="2.0273">
        <ele>168</ele>
        <time>2021-05-20T13:02:06.771Z</time>
      </trkpt>
      <trkpt lat="48.74097" lon="2.02731">
        <ele>168</ele>
        <time>2021-05-20T13:02:07.771Z</time>
      </trkpt>
      <trkpt lat="48.74098" lon="2.02732">
        <ele>169</ele>
        <time>2021-05-20T13:02:08.771Z</time>
      </trkpt>
      <trkpt lat="48.74099" lon="2.02733">
        <ele>169</ele>
        <time>2021-05-20T13:02:09.771Z</time>
      </trkpt>
      <trkpt lat="48.74099" lon="2.02733">
        <ele>169</ele>
        <time>2021-05-20T13:02:10.771Z</time>
      </trkpt>
      <trkpt lat="48.741" lon="2.02734">
        <ele>169</ele>
        <time>2021-05-20T13:02:11.771Z</time>
      </trkpt>
      <trkpt lat="48.74101" lon="2.02735">
        <ele>169</ele>
        <time>2021-05-20T13:02:12.771Z</time>
      </trkpt>
      <trkpt lat="48.74102" lon="2.02736">
        <ele>170</ele>
        <time>2021-05-20T13:02:13.771Z</time>
      </trkpt>
      <trkpt lat="48.74103" lon="2.02737">
        <ele>170</ele>
        <time>2021-05-20T13:02:14.771Z</time>
      </trkpt>
      <trkpt lat="48.74104" lon="2.02738">
        <ele>170</ele>
        <time>2021-05-20T13:02:15.771Z</time>
      </trkpt>
      <trkpt lat="48.74104" lon="2.02738">
        <ele>170</ele>
        <time>2021-05-20T13:02:16.771Z</time>
      </trkpt>
      <trkpt lat="48.74105" lon="2.02739">
        <ele>170</ele>
        <time>2021-05-20T13:02:17.771Z</time>
      </trkpt>
      <trkpt lat="48.74105" lon="2.02739">
        <ele>170</ele>
        <time>2021-05-20T13:02:18.771Z</time>
      </trkpt>
      <trkpt lat="48.74108" lon="2.02742">
        <ele>171</ele>
        <time>2021-05-20T13:02:19.771Z</time>
      </trkpt>
      <trkpt lat="48.74109" lon="2.02742">
        <ele>171</ele>
        <time>2021-05-20T13:02:20.771Z</time>
      </trkpt>
      <trkpt lat="48.74109" lon="2.02743">
        <ele>171</ele>
        <time>2021-05-20T13:02:21.771Z</time>
      </trkpt>
      <trkpt lat="48.7411" lon="2.02744">
        <ele>171</ele>
        <time>2021-05-20T13:02:22.771Z</time>
      </trkpt>
      <trkpt lat="48.74111" lon="2.02744">
        <ele>171</ele>
        <time>2021-05-20T13:02:23.771Z</time>
      </trkpt>
      <trkpt lat="48.74111" lon="2.02745">
        <ele>172</ele>
        <time>2021-05-20T13:02:24.771Z</time>
      </trkpt>
      <trkpt lat="48.74112" lon="2.02746">
        <ele>172</ele>
        <time>2021-05-20T13:02:25.771Z</time>
      </trkpt>
      <trkpt lat="48.74112" lon="2.02746">
        <ele>172</ele>
        <time>2021-05-20T13:02:26.771Z</time>
      </trkpt>
      <trkpt lat="48.74113" lon="2.02747">
        <ele>172</ele>
        <time>2021-05-20T13:02:27.771Z</time>
      </trkpt>
      <trkpt lat="48.74114" lon="2.02748">
        <ele>172</ele>
        <time>2021-05-20T13:02:28.771Z</time>
      </trkpt>
      <trkpt lat="48.74115" lon="2.02749">
        <ele>172</ele>
        <time>2021-05-20T13:02:29.771Z</time>
      </trkpt>
      <trkpt lat="48.74116" lon="2.02751">
        <ele>172</ele>
        <time>2021-05-20T13:02:30.771Z</time>
      </trkpt>
      <trkpt lat="48.74117" lon="2.02752">
        <ele>172</ele>
        <time>2021-05-20T13:02:31.771Z</time>
      </trkpt>
      <trkpt lat="48.74117" lon="2.02753">
        <ele>172</ele>
        <time>2021-05-20T13:02:32.771Z</time>
      </trkpt>
      <trkpt lat="48.74118" lon="2.02754">
        <ele>172</ele>
        <time>2021-05-20T13:02:33.771Z</time>
      </trkpt>
      <trkpt lat="48.7412" lon="2.02755">
        <ele>172</ele>
        <time>2021-05-20T13:02:34.771Z</time>
      </trkpt>
      <trkpt lat="48.74121" lon="2.02756">
        <ele>172</ele>
        <time>2021-05-20T13:02:35.771Z</time>
      </trkpt>
      <trkpt lat="48.74122" lon="2.02757">
        <ele>172</ele>
        <time>2021-05-20T13:02:36.771Z</time>
      </trkpt>
      <trkpt lat="48.74123" lon="2.02758">
        <ele>173</ele>
        <time>2021-05-20T13:02:37.771Z</time>
      </trkpt>
      <trkpt lat="48.74124" lon="2.02759">
        <ele>173</ele>
        <time>2021-05-20T13:02:38.771Z</time>
      </trkpt>
      <trkpt lat="48.74125" lon="2.02759">
        <ele>173</ele>
        <time>2021-05-20T13:02:39.771Z</time>
      </trkpt>
      <trkpt lat="48.74126" lon="2.0276">
        <ele>173</ele>
        <time>2021-05-20T13:02:40.771Z</time>
      </trkpt>
      <trkpt lat="48.74127" lon="2.02761">
        <ele>173</ele>
        <time>2021-05-20T13:02:41.771Z</time>
      </trkpt>
      <trkpt lat="48.74128" lon="2.02762">
        <ele>173</ele>
        <time>2021-05-20T13:02:42.771Z</time>
      </trkpt>
      <trkpt lat="48.74129" lon="2.02763">
        <ele>173</ele>
        <time>2021-05-20T13:02:43.771Z</time>
      </trkpt>
      <trkpt lat="48.7413" lon="2.02764">
        <ele>173</ele>
        <time>2021-05-20T13:02:44.771Z</time>
      </trkpt>
      <trkpt lat="48.74131" lon="2.02765">
        <ele>173</ele>
        <time>2021-05-20T13:02:45.771Z</time>
      </trkpt>
      <trkpt lat="48.74132" lon="2.02765">
        <ele>173</ele>
        <time>2021-05-20T13:02:46.771Z</time>
      </trkpt>
      <trkpt lat="48.74133" lon="2.02766">
        <ele>173</ele>
        <time>2021-05-20T13:02:47.771Z</time>
      </trkpt>
      <trkpt lat="48.74134" lon="2.02767">
        <ele>173</ele>
        <time>2021-05-20T13:02:48.771Z</time>
      </trkpt>
      <trkpt lat="48.74135" lon="2.02768">
        <ele>173</ele>
        <time>2021-05-20T13:02:49.771Z</time>
      </trkpt>
      <trkpt lat="48.74136" lon="2.02768">
        <ele>173</ele>
        <time>2021-05-20T13:02:50.771Z</time>
      </trkpt>
      <trkpt lat="48.74136" lon="2.0277">
        <ele>173</ele>
        <time>2021-05-20T13:02:51.771Z</time>
      </trkpt>
      <trkpt lat="48.74137" lon="2.02771">
        <ele>172</ele>
        <time>2021-05-20T13:02:52.771Z</time>
      </trkpt>
      <trkpt lat="48.74138" lon="2.02772">
        <ele>172</ele>
        <time>2021-05-20T13:02:53.771Z</time>
      </trkpt>
      <trkpt lat="48.74139" lon="2.02773">
        <ele>172</ele>
        <time>2021-05-20T13:02:54.771Z</time>
      </trkpt>
      <trkpt lat="48.7414" lon="2.02774">
        <ele>172</ele>
        <time>2021-05-20T13:02:55.771Z</time>
      </trkpt>
      <trkpt lat="48.74141" lon="2.02774">
        <ele>172</ele>
        <time>2021-05-20T13:02:56.771Z</time>
      </trkpt>
      <trkpt lat="48.74142" lon="2.02776">
        <ele>172</ele>
        <time>2021-05-20T13:02:57.771Z</time>
      </trkpt>
      <trkpt lat="48.74143" lon="2.02777">
        <ele>171</ele>
        <time>2021-05-20T13:02:58.771Z</time>
      </trkpt>
      <trkpt lat="48.74144" lon="2.02778">
        <ele>171</ele>
        <time>2021-05-20T13:02:59.771Z</time>
      </trkpt>
      <trkpt lat="48.74145" lon="2.02779">
        <ele>171</ele>
        <time>2021-05-20T13:03:00.771Z</time>
      </trkpt>
      <trkpt lat="48.74146" lon="2.0278">
        <ele>171</ele>
        <time>2021-05-20T13:03:01.771Z</time>
      </trkpt>
      <trkpt lat="48.74147" lon="2.02781">
        <ele>171</ele>
        <time>2021-05-20T13:03:02.771Z</time>
      </trkpt>
      <trkpt lat="48.74147" lon="2.02782">
        <ele>171</ele>
        <time>2021-05-20T13:03:03.771Z</time>
      </trkpt>
      <trkpt lat="48.74148" lon="2.02783">
        <ele>171</ele>
        <time>2021-05-20T13:03:04.771Z</time>
      </trkpt>
      <trkpt lat="48.74149" lon="2.02784">
        <ele>171</ele>
        <time>2021-05-20T13:03:05.771Z</time>
      </trkpt>
      <trkpt lat="48.7415" lon="2.02785">
        <ele>171</ele>
        <time>2021-05-20T13:03:06.771Z</time>
      </trkpt>
      <trkpt lat="48.74151" lon="2.02787">
        <ele>171</ele>
        <time>2021-05-20T13:03:07.771Z</time>
      </trkpt>
      <trkpt lat="48.74152" lon="2.02788">
        <ele>170</ele>
        <time>2021-05-20T13:03:08.771Z</time>
      </trkpt>
      <trkpt lat="48.74153" lon="2.02789">
        <ele>170</ele>
        <time>2021-05-20T13:03:09.771Z</time>
      </trkpt>
      <trkpt lat="48.74154" lon="2.0279">
        <ele>170</ele>
        <time>2021-05-20T13:03:10.771Z</time>
      </trkpt>
      <trkpt lat="48.74155" lon="2.02792">
        <ele>170</ele>
        <time>2021-05-20T13:03:11.771Z</time>
      </trkpt>
      <trkpt lat="48.74156" lon="2.02793">
        <ele>170</ele>
        <time>2021-05-20T13:03:12.771Z</time>
      </trkpt>
      <trkpt lat="48.74157" lon="2.02795">
        <ele>170</ele>
        <time>2021-05-20T13:03:13.771Z</time>
      </trkpt>
      <trkpt lat="48.74158" lon="2.02796">
        <ele>170</ele>
        <time>2021-05-20T13:03:14.771Z</time>
      </trkpt>
      <trkpt lat="48.74158" lon="2.02797">
        <ele>170</ele>
        <time>2021-05-20T13:03:15.771Z</time>
      </trkpt>
      <trkpt lat="48.74159" lon="2.02798">
        <ele>170</ele>
        <time>2021-05-20T13:03:16.771Z</time>
      </trkpt>
      <trkpt lat="48.7416" lon="2.028">
        <ele>170</ele>
        <time>2021-05-20T13:03:17.771Z</time>
      </trkpt>
      <trkpt lat="48.74161" lon="2.02801">
        <ele>170</ele>
        <time>2021-05-20T13:03:18.771Z</time>
      </trkpt>
      <trkpt lat="48.74162" lon="2.02803">
        <ele>170</ele>
        <time>2021-05-20T13:03:19.771Z</time>
      </trkpt>
      <trkpt lat="48.74164" lon="2.02804">
        <ele>170</ele>
        <time>2021-05-20T13:03:20.771Z</time>
      </trkpt>
      <trkpt lat="48.74165" lon="2.02806">
        <ele>170</ele>
        <time>2021-05-20T13:03:21.771Z</time>
      </trkpt>
      <trkpt lat="48.74166" lon="2.02807">
        <ele>169</ele>
        <time>2021-05-20T13:03:22.771Z</time>
      </trkpt>
      <trkpt lat="48.74167" lon="2.02808">
        <ele>169</ele>
        <time>2021-05-20T13:03:23.771Z</time>
      </trkpt>
      <trkpt lat="48.74168" lon="2.02809">
        <ele>169</ele>
        <time>2021-05-20T13:03:24.771Z</time>
      </trkpt>
      <trkpt lat="48.74169" lon="2.0281">
        <ele>169</ele>
        <time>2021-05-20T13:03:25.771Z</time>
      </trkpt>
      <trkpt lat="48.74169" lon="2.02811">
        <ele>168</ele>
        <time>2021-05-20T13:03:26.771Z</time>
      </trkpt>
      <trkpt lat="48.7417" lon="2.02813">
        <ele>168</ele>
        <time>2021-05-20T13:03:27.771Z</time>
      </trkpt>
      <trkpt lat="48.74171" lon="2.02814">
        <ele>168</ele>
        <time>2021-05-20T13:03:28.771Z</time>
      </trkpt>
      <trkpt lat="48.74172" lon="2.02816">
        <ele>168</ele>
        <time>2021-05-20T13:03:29.771Z</time>
      </trkpt>
      <trkpt lat="48.74173" lon="2.02817">
        <ele>167</ele>
        <time>2021-05-20T13:03:30.771Z</time>
      </trkpt>
      <trkpt lat="48.74173" lon="2.02819">
        <ele>167</ele>
        <time>2021-05-20T13:03:31.771Z</time>
      </trkpt>
      <trkpt lat="48.74174" lon="2.0282">
        <ele>167</ele>
        <time>2021-05-20T13:03:32.771Z</time>
      </trkpt>
      <trkpt lat="48.74175" lon="2.02821">
        <ele>167</ele>
        <time>2021-05-20T13:03:33.771Z</time>
      </trkpt>
      <trkpt lat="48.74176" lon="2.02823">
        <ele>167</ele>
        <time>2021-05-20T13:03:34.771Z</time>
      </trkpt>
      <trkpt lat="48.74176" lon="2.02824">
        <ele>167</ele>
        <time>2021-05-20T13:03:35.771Z</time>
      </trkpt>
      <trkpt lat="48.74176" lon="2.02824">
        <ele>167</ele>
        <time>2021-05-20T13:03:36.771Z</time>
      </trkpt>
      <trkpt lat="48.74177" lon="2.02824">
        <ele>167</ele>
        <time>2021-05-20T13:03:37.771Z</time>
      </trkpt>
      <trkpt lat="48.74177" lon="2.02825">
        <ele>167</ele>
        <time>2021-05-20T13:03:38.771Z</time>
      </trkpt>
      <trkpt lat="48.74177" lon="2.02825">
        <ele>167</ele>
        <time>2021-05-20T13:03:39.771Z</time>
      </trkpt>
      <trkpt lat="48.74176" lon="2.02833">
        <ele>163</ele>
        <time>2021-05-20T13:03:40.771Z</time>
      </trkpt>
      <trkpt lat="48.74177" lon="2.02833">
        <ele>163</ele>
        <time>2021-05-20T13:03:41.771Z</time>
      </trkpt>
      <trkpt lat="48.74177" lon="2.02834">
        <ele>163</ele>
        <time>2021-05-20T13:03:42.771Z</time>
      </trkpt>
      <trkpt lat="48.74178" lon="2.02835">
        <ele>163</ele>
        <time>2021-05-20T13:03:43.771Z</time>
      </trkpt>
      <trkpt lat="48.74178" lon="2.02836">
        <ele>163</ele>
        <time>2021-05-20T13:03:44.771Z</time>
      </trkpt>
      <trkpt lat="48.74179" lon="2.02836">
        <ele>163</ele>
        <time>2021-05-20T13:03:45.771Z</time>
      </trkpt>
      <trkpt lat="48.7418" lon="2.02837">
        <ele>163</ele>
        <time>2021-05-20T13:03:46.771Z</time>
      </trkpt>
      <trkpt lat="48.74181" lon="2.02838">
        <ele>163</ele>
        <time>2021-05-20T13:03:47.771Z</time>
      </trkpt>
      <trkpt lat="48.74181" lon="2.02839">
        <ele>163</ele>
        <time>2021-05-20T13:03:48.771Z</time>
      </trkpt>
      <trkpt lat="48.74182" lon="2.02839">
        <ele>163</ele>
        <time>2021-05-20T13:03:49.771Z</time>
      </trkpt>
      <trkpt lat="48.74183" lon="2.0284">
        <ele>163</ele>
        <time>2021-05-20T13:03:50.771Z</time>
      </trkpt>
      <trkpt lat="48.74184" lon="2.02841">
        <ele>163</ele>
        <time>2021-05-20T13:03:51.771Z</time>
      </trkpt>
      <trkpt lat="48.74185" lon="2.02842">
        <ele>163</ele>
        <time>2021-05-20T13:03:52.771Z</time>
      </trkpt>
      <trkpt lat="48.74186" lon="2.02843">
        <ele>163</ele>
        <time>2021-05-20T13:03:53.771Z</time>
      </trkpt>
      <trkpt lat="48.74187" lon="2.02844">
        <ele>163</ele>
        <time>2021-05-20T13:03:54.771Z</time>
      </trkpt>
      <trkpt lat="48.74188" lon="2.02845">
        <ele>163</ele>
        <time>2021-05-20T13:03:55.771Z</time>
      </trkpt>
      <trkpt lat="48.74189" lon="2.02846">
        <ele>163</ele>
        <time>2021-05-20T13:03:56.771Z</time>
      </trkpt>
      <trkpt lat="48.7419" lon="2.02847">
        <ele>163</ele>
        <time>2021-05-20T13:03:57.771Z</time>
      </trkpt>
      <trkpt lat="48.74191" lon="2.02848">
        <ele>163</ele>
        <time>2021-05-20T13:03:58.771Z</time>
      </trkpt>
      <trkpt lat="48.74191" lon="2.02849">
        <ele>163</ele>
        <time>2021-05-20T13:03:59.771Z</time>
      </trkpt>
      <trkpt lat="48.74192" lon="2.0285">
        <ele>163</ele>
        <time>2021-05-20T13:04:00.771Z</time>
      </trkpt>
      <trkpt lat="48.74193" lon="2.02851">
        <ele>163</ele>
        <time>2021-05-20T13:04:01.771Z</time>
      </trkpt>
      <trkpt lat="48.74194" lon="2.02853">
        <ele>163</ele>
        <time>2021-05-20T13:04:02.771Z</time>
      </trkpt>
      <trkpt lat="48.74195" lon="2.02854">
        <ele>163</ele>
        <time>2021-05-20T13:04:03.771Z</time>
      </trkpt>
      <trkpt lat="48.74196" lon="2.02855">
        <ele>163</ele>
        <time>2021-05-20T13:04:04.771Z</time>
      </trkpt>
      <trkpt lat="48.74197" lon="2.02856">
        <ele>163</ele>
        <time>2021-05-20T13:04:05.771Z</time>
      </trkpt>
      <trkpt lat="48.74198" lon="2.02857">
        <ele>163</ele>
        <time>2021-05-20T13:04:06.771Z</time>
      </trkpt>
      <trkpt lat="48.74199" lon="2.02858">
        <ele>163</ele>
        <time>2021-05-20T13:04:07.771Z</time>
      </trkpt>
      <trkpt lat="48.74199" lon="2.02859">
        <ele>163</ele>
        <time>2021-05-20T13:04:08.771Z</time>
      </trkpt>
      <trkpt lat="48.742" lon="2.0286">
        <ele>163</ele>
        <time>2021-05-20T13:04:09.771Z</time>
      </trkpt>
      <trkpt lat="48.74201" lon="2.02861">
        <ele>163</ele>
        <time>2021-05-20T13:04:10.771Z</time>
      </trkpt>
      <trkpt lat="48.74202" lon="2.02863">
        <ele>163</ele>
        <time>2021-05-20T13:04:11.771Z</time>
      </trkpt>
      <trkpt lat="48.74203" lon="2.02864">
        <ele>163</ele>
        <time>2021-05-20T13:04:12.771Z</time>
      </trkpt>
      <trkpt lat="48.74204" lon="2.02865">
        <ele>163</ele>
        <time>2021-05-20T13:04:13.771Z</time>
      </trkpt>
      <trkpt lat="48.74205" lon="2.02866">
        <ele>163</ele>
        <time>2021-05-20T13:04:14.771Z</time>
      </trkpt>
      <trkpt lat="48.74205" lon="2.02867">
        <ele>163</ele>
        <time>2021-05-20T13:04:15.771Z</time>
      </trkpt>
      <trkpt lat="48.74206" lon="2.02868">
        <ele>163</ele>
        <time>2021-05-20T13:04:16.771Z</time>
      </trkpt>
      <trkpt lat="48.74207" lon="2.02869">
        <ele>163</ele>
        <time>2021-05-20T13:04:17.771Z</time>
      </trkpt>
      <trkpt lat="48.74208" lon="2.0287">
        <ele>163</ele>
        <time>2021-05-20T13:04:18.771Z</time>
      </trkpt>
      <trkpt lat="48.74209" lon="2.02871">
        <ele>163</ele>
        <time>2021-05-20T13:04:19.771Z</time>
      </trkpt>
      <trkpt lat="48.7421" lon="2.02872">
        <ele>163</ele>
        <time>2021-05-20T13:04:20.771Z</time>
      </trkpt>
      <trkpt lat="48.74211" lon="2.02873">
        <ele>163</ele>
        <time>2021-05-20T13:04:21.771Z</time>
      </trkpt>
      <trkpt lat="48.74212" lon="2.02874">
        <ele>163</ele>
        <time>2021-05-20T13:04:22.771Z</time>
      </trkpt>
      <trkpt lat="48.74213" lon="2.02875">
        <ele>163</ele>
        <time>2021-05-20T13:04:23.771Z</time>
      </trkpt>
      <trkpt lat="48.74213" lon="2.02877">
        <ele>163</ele>
        <time>2021-05-20T13:04:24.771Z</time>
      </trkpt>
      <trkpt lat="48.74214" lon="2.02878">
        <ele>163</ele>
        <time>2021-05-20T13:04:25.771Z</time>
      </trkpt>
      <trkpt lat="48.74215" lon="2.02879">
        <ele>163</ele>
        <time>2021-05-20T13:04:26.771Z</time>
      </trkpt>
      <trkpt lat="48.74216" lon="2.02881">
        <ele>164</ele>
        <time>2021-05-20T13:04:27.771Z</time>
      </trkpt>
      <trkpt lat="48.74217" lon="2.02882">
        <ele>164</ele>
        <time>2021-05-20T13:04:28.771Z</time>
      </trkpt>
      <trkpt lat="48.74217" lon="2.02883">
        <ele>164</ele>
        <time>2021-05-20T13:04:29.771Z</time>
      </trkpt>
      <trkpt lat="48.74218" lon="2.02885">
        <ele>164</ele>
        <time>2021-05-20T13:04:30.771Z</time>
      </trkpt>
      <trkpt lat="48.74219" lon="2.02886">
        <ele>164</ele>
        <time>2021-05-20T13:04:31.771Z</time>
      </trkpt>
      <trkpt lat="48.7422" lon="2.02887">
        <ele>164</ele>
        <time>2021-05-20T13:04:32.771Z</time>
      </trkpt>
      <trkpt lat="48.74221" lon="2.02889">
        <ele>164</ele>
        <time>2021-05-20T13:04:33.771Z</time>
      </trkpt>
      <trkpt lat="48.74222" lon="2.0289">
        <ele>164</ele>
        <time>2021-05-20T13:04:34.771Z</time>
      </trkpt>
      <trkpt lat="48.74222" lon="2.02892">
        <ele>164</ele>
        <time>2021-05-20T13:04:35.771Z</time>
      </trkpt>
      <trkpt lat="48.74223" lon="2.02893">
        <ele>164</ele>
        <time>2021-05-20T13:04:36.771Z</time>
      </trkpt>
      <trkpt lat="48.74224" lon="2.02894">
        <ele>164</ele>
        <time>2021-05-20T13:04:37.771Z</time>
      </trkpt>
      <trkpt lat="48.74225" lon="2.02896">
        <ele>164</ele>
        <time>2021-05-20T13:04:38.771Z</time>
      </trkpt>
      <trkpt lat="48.74225" lon="2.02897">
        <ele>164</ele>
        <time>2021-05-20T13:04:39.771Z</time>
      </trkpt>
      <trkpt lat="48.74226" lon="2.02899">
        <ele>164</ele>
        <time>2021-05-20T13:04:40.771Z</time>
      </trkpt>
      <trkpt lat="48.74227" lon="2.029">
        <ele>164</ele>
        <time>2021-05-20T13:04:41.771Z</time>
      </trkpt>
      <trkpt lat="48.74227" lon="2.02901">
        <ele>164</ele>
        <time>2021-05-20T13:04:42.771Z</time>
      </trkpt>
      <trkpt lat="48.74228" lon="2.02903">
        <ele>164</ele>
        <time>2021-05-20T13:04:43.771Z</time>
      </trkpt>
      <trkpt lat="48.74228" lon="2.02904">
        <ele>164</ele>
        <time>2021-05-20T13:04:44.771Z</time>
      </trkpt>
      <trkpt lat="48.74229" lon="2.02905">
        <ele>164</ele>
        <time>2021-05-20T13:04:45.771Z</time>
      </trkpt>
      <trkpt lat="48.74229" lon="2.02906">
        <ele>164</ele>
        <time>2021-05-20T13:04:46.771Z</time>
      </trkpt>
      <trkpt lat="48.7423" lon="2.02906">
        <ele>164</ele>
        <time>2021-05-20T13:04:47.771Z</time>
      </trkpt>
      <trkpt lat="48.74231" lon="2.02906">
        <ele>165</ele>
        <time>2021-05-20T13:04:48.771Z</time>
      </trkpt>
      <trkpt lat="48.74232" lon="2.02906">
        <ele>165</ele>
        <time>2021-05-20T13:04:49.771Z</time>
      </trkpt>
      <trkpt lat="48.74233" lon="2.02906">
        <ele>165</ele>
        <time>2021-05-20T13:04:50.771Z</time>
      </trkpt>
      <trkpt lat="48.74234" lon="2.02905">
        <ele>165</ele>
        <time>2021-05-20T13:04:51.771Z</time>
      </trkpt>
      <trkpt lat="48.74235" lon="2.02904">
        <ele>165</ele>
        <time>2021-05-20T13:04:52.771Z</time>
      </trkpt>
      <trkpt lat="48.74236" lon="2.02904">
        <ele>165</ele>
        <time>2021-05-20T13:04:53.771Z</time>
      </trkpt>
      <trkpt lat="48.74237" lon="2.02903">
        <ele>165</ele>
        <time>2021-05-20T13:04:54.771Z</time>
      </trkpt>
      <trkpt lat="48.74238" lon="2.02902">
        <ele>165</ele>
        <time>2021-05-20T13:04:55.771Z</time>
      </trkpt>
      <trkpt lat="48.74239" lon="2.02901">
        <ele>165</ele>
        <time>2021-05-20T13:04:56.771Z</time>
      </trkpt>
      <trkpt lat="48.7424" lon="2.02899">
        <ele>165</ele>
        <time>2021-05-20T13:04:57.771Z</time>
      </trkpt>
      <trkpt lat="48.74241" lon="2.02898">
        <ele>165</ele>
        <time>2021-05-20T13:04:58.771Z</time>
      </trkpt>
      <trkpt lat="48.74242" lon="2.02897">
        <ele>165</ele>
        <time>2021-05-20T13:04:59.771Z</time>
      </trkpt>
      <trkpt lat="48.74242" lon="2.02896">
        <ele>165</ele>
        <time>2021-05-20T13:05:00.771Z</time>
      </trkpt>
      <trkpt lat="48.74243" lon="2.02894">
        <ele>165</ele>
        <time>2021-05-20T13:05:01.771Z</time>
      </trkpt>
      <trkpt lat="48.74244" lon="2.02893">
        <ele>165</ele>
        <time>2021-05-20T13:05:02.771Z</time>
      </trkpt>
      <trkpt lat="48.74245" lon="2.02892">
        <ele>165</ele>
        <time>2021-05-20T13:05:03.771Z</time>
      </trkpt>
      <trkpt lat="48.74246" lon="2.02891">
        <ele>165</ele>
        <time>2021-05-20T13:05:04.771Z</time>
      </trkpt>
      <trkpt lat="48.74247" lon="2.02889">
        <ele>165</ele>
        <time>2021-05-20T13:05:05.771Z</time>
      </trkpt>
      <trkpt lat="48.74248" lon="2.02888">
        <ele>165</ele>
        <time>2021-05-20T13:05:06.771Z</time>
      </trkpt>
      <trkpt lat="48.74249" lon="2.02887">
        <ele>165</ele>
        <time>2021-05-20T13:05:07.771Z</time>
      </trkpt>
      <trkpt lat="48.74249" lon="2.02886">
        <ele>165</ele>
        <time>2021-05-20T13:05:08.771Z</time>
      </trkpt>
      <trkpt lat="48.7425" lon="2.02885">
        <ele>165</ele>
        <time>2021-05-20T13:05:09.771Z</time>
      </trkpt>
      <trkpt lat="48.74251" lon="2.02883">
        <ele>165</ele>
        <time>2021-05-20T13:05:10.771Z</time>
      </trkpt>
      <trkpt lat="48.74252" lon="2.02882">
        <ele>165</ele>
        <time>2021-05-20T13:05:11.771Z</time>
      </trkpt>
      <trkpt lat="48.74253" lon="2.02881">
        <ele>165</ele>
        <time>2021-05-20T13:05:12.771Z</time>
      </trkpt>
      <trkpt lat="48.74254" lon="2.0288">
        <ele>165</ele>
        <time>2021-05-20T13:05:13.771Z</time>
      </trkpt>
      <trkpt lat="48.74255" lon="2.02878">
        <ele>165</ele>
        <time>2021-05-20T13:05:14.771Z</time>
      </trkpt>
      <trkpt lat="48.74256" lon="2.02877">
        <ele>165</ele>
        <time>2021-05-20T13:05:15.771Z</time>
      </trkpt>
      <trkpt lat="48.74256" lon="2.02876">
        <ele>165</ele>
        <time>2021-05-20T13:05:16.771Z</time>
      </trkpt>
      <trkpt lat="48.74257" lon="2.02874">
        <ele>165</ele>
        <time>2021-05-20T13:05:17.771Z</time>
      </trkpt>
      <trkpt lat="48.74258" lon="2.02873">
        <ele>165</ele>
        <time>2021-05-20T13:05:18.771Z</time>
      </trkpt>
      <trkpt lat="48.74259" lon="2.02872">
        <ele>165</ele>
        <time>2021-05-20T13:05:19.771Z</time>
      </trkpt>
      <trkpt lat="48.7426" lon="2.0287">
        <ele>165</ele>
        <time>2021-05-20T13:05:20.771Z</time>
      </trkpt>
      <trkpt lat="48.7426" lon="2.02869">
        <ele>165</ele>
        <time>2021-05-20T13:05:21.771Z</time>
      </trkpt>
      <trkpt lat="48.74261" lon="2.02868">
        <ele>165</ele>
        <time>2021-05-20T13:05:22.771Z</time>
      </trkpt>
      <trkpt lat="48.74262" lon="2.02867">
        <ele>165</ele>
        <time>2021-05-20T13:05:23.771Z</time>
      </trkpt>
      <trkpt lat="48.74263" lon="2.02866">
        <ele>165</ele>
        <time>2021-05-20T13:05:24.771Z</time>
      </trkpt>
      <trkpt lat="48.74264" lon="2.02864">
        <ele>165</ele>
        <time>2021-05-20T13:05:25.771Z</time>
      </trkpt>
      <trkpt lat="48.74265" lon="2.02863">
        <ele>165</ele>
        <time>2021-05-20T13:05:26.771Z</time>
      </trkpt>
      <trkpt lat="48.74265" lon="2.02862">
        <ele>165</ele>
        <time>2021-05-20T13:05:27.771Z</time>
      </trkpt>
      <trkpt lat="48.74266" lon="2.02861">
        <ele>165</ele>
        <time>2021-05-20T13:05:28.771Z</time>
      </trkpt>
      <trkpt lat="48.74267" lon="2.0286">
        <ele>165</ele>
        <time>2021-05-20T13:05:29.771Z</time>
      </trkpt>
      <trkpt lat="48.74268" lon="2.02858">
        <ele>165</ele>
        <time>2021-05-20T13:05:30.771Z</time>
      </trkpt>
      <trkpt lat="48.74269" lon="2.02857">
        <ele>165</ele>
        <time>2021-05-20T13:05:31.771Z</time>
      </trkpt>
      <trkpt lat="48.7427" lon="2.02856">
        <ele>165</ele>
        <time>2021-05-20T13:05:32.771Z</time>
      </trkpt>
      <trkpt lat="48.74271" lon="2.02854">
        <ele>165</ele>
        <time>2021-05-20T13:05:33.771Z</time>
      </trkpt>
      <trkpt lat="48.74272" lon="2.02853">
        <ele>165</ele>
        <time>2021-05-20T13:05:34.771Z</time>
      </trkpt>
      <trkpt lat="48.74272" lon="2.02852">
        <ele>165</ele>
        <time>2021-05-20T13:05:35.771Z</time>
      </trkpt>
      <trkpt lat="48.74273" lon="2.02851">
        <ele>165</ele>
        <time>2021-05-20T13:05:36.771Z</time>
      </trkpt>
      <trkpt lat="48.74274" lon="2.02849">
        <ele>164</ele>
        <time>2021-05-20T13:05:37.771Z</time>
      </trkpt>
      <trkpt lat="48.74274" lon="2.02848">
        <ele>164</ele>
        <time>2021-05-20T13:05:38.771Z</time>
      </trkpt>
      <trkpt lat="48.74275" lon="2.02847">
        <ele>164</ele>
        <time>2021-05-20T13:05:39.771Z</time>
      </trkpt>
      <trkpt lat="48.74276" lon="2.02846">
        <ele>164</ele>
        <time>2021-05-20T13:05:40.771Z</time>
      </trkpt>
      <trkpt lat="48.74277" lon="2.02844">
        <ele>164</ele>
        <time>2021-05-20T13:05:41.771Z</time>
      </trkpt>
      <trkpt lat="48.74278" lon="2.02843">
        <ele>164</ele>
        <time>2021-05-20T13:05:42.771Z</time>
      </trkpt>
      <trkpt lat="48.74279" lon="2.02841">
        <ele>164</ele>
        <time>2021-05-20T13:05:43.771Z</time>
      </trkpt>
      <trkpt lat="48.7428" lon="2.0284">
        <ele>163</ele>
        <time>2021-05-20T13:05:44.771Z</time>
      </trkpt>
      <trkpt lat="48.7428" lon="2.02839">
        <ele>163</ele>
        <time>2021-05-20T13:05:45.771Z</time>
      </trkpt>
      <trkpt lat="48.74281" lon="2.02837">
        <ele>163</ele>
        <time>2021-05-20T13:05:46.771Z</time>
      </trkpt>
      <trkpt lat="48.74282" lon="2.02836">
        <ele>163</ele>
        <time>2021-05-20T13:05:47.771Z</time>
      </trkpt>
      <trkpt lat="48.74283" lon="2.02835">
        <ele>163</ele>
        <time>2021-05-20T13:05:48.771Z</time>
      </trkpt>
      <trkpt lat="48.74284" lon="2.02833">
        <ele>163</ele>
        <time>2021-05-20T13:05:49.771Z</time>
      </trkpt>
      <trkpt lat="48.74284" lon="2.02832">
        <ele>163</ele>
        <time>2021-05-20T13:05:50.771Z</time>
      </trkpt>
      <trkpt lat="48.74285" lon="2.0283">
        <ele>163</ele>
        <time>2021-05-20T13:05:51.771Z</time>
      </trkpt>
      <trkpt lat="48.74286" lon="2.02829">
        <ele>163</ele>
        <time>2021-05-20T13:05:52.771Z</time>
      </trkpt>
      <trkpt lat="48.74287" lon="2.02828">
        <ele>163</ele>
        <time>2021-05-20T13:05:53.771Z</time>
      </trkpt>
      <trkpt lat="48.74288" lon="2.02827">
        <ele>163</ele>
        <time>2021-05-20T13:05:54.771Z</time>
      </trkpt>
      <trkpt lat="48.74288" lon="2.02826">
        <ele>163</ele>
        <time>2021-05-20T13:05:55.771Z</time>
      </trkpt>
      <trkpt lat="48.74289" lon="2.02824">
        <ele>163</ele>
        <time>2021-05-20T13:05:56.771Z</time>
      </trkpt>
      <trkpt lat="48.7429" lon="2.02823">
        <ele>163</ele>
        <time>2021-05-20T13:05:57.771Z</time>
      </trkpt>
      <trkpt lat="48.7429" lon="2.02822">
        <ele>163</ele>
        <time>2021-05-20T13:05:58.771Z</time>
      </trkpt>
      <trkpt lat="48.74291" lon="2.02821">
        <ele>163</ele>
        <time>2021-05-20T13:05:59.771Z</time>
      </trkpt>
      <trkpt lat="48.74292" lon="2.0282">
        <ele>163</ele>
        <time>2021-05-20T13:06:00.771Z</time>
      </trkpt>
      <trkpt lat="48.74293" lon="2.02819">
        <ele>163</ele>
        <time>2021-05-20T13:06:01.771Z</time>
      </trkpt>
      <trkpt lat="48.74294" lon="2.02818">
        <ele>163</ele>
        <time>2021-05-20T13:06:02.771Z</time>
      </trkpt>
      <trkpt lat="48.74295" lon="2.02817">
        <ele>163</ele>
        <time>2021-05-20T13:06:03.771Z</time>
      </trkpt>
      <trkpt lat="48.74296" lon="2.02816">
        <ele>163</ele>
        <time>2021-05-20T13:06:04.771Z</time>
      </trkpt>
      <trkpt lat="48.74297" lon="2.02814">
        <ele>163</ele>
        <time>2021-05-20T13:06:05.771Z</time>
      </trkpt>
      <trkpt lat="48.74298" lon="2.02813">
        <ele>163</ele>
        <time>2021-05-20T13:06:06.771Z</time>
      </trkpt>
      <trkpt lat="48.74298" lon="2.02813">
        <ele>164</ele>
        <time>2021-05-20T13:06:07.771Z</time>
      </trkpt>
      <trkpt lat="48.74299" lon="2.02812">
        <ele>164</ele>
        <time>2021-05-20T13:06:08.771Z</time>
      </trkpt>
      <trkpt lat="48.743" lon="2.02811">
        <ele>163</ele>
        <time>2021-05-20T13:06:09.771Z</time>
      </trkpt>
      <trkpt lat="48.74302" lon="2.02809">
        <ele>163</ele>
        <time>2021-05-20T13:06:10.771Z</time>
      </trkpt>
      <trkpt lat="48.74303" lon="2.02808">
        <ele>163</ele>
        <time>2021-05-20T13:06:11.771Z</time>
      </trkpt>
      <trkpt lat="48.74304" lon="2.02807">
        <ele>163</ele>
        <time>2021-05-20T13:06:12.771Z</time>
      </trkpt>
      <trkpt lat="48.74305" lon="2.02806">
        <ele>163</ele>
        <time>2021-05-20T13:06:13.771Z</time>
      </trkpt>
      <trkpt lat="48.74306" lon="2.02806">
        <ele>163</ele>
        <time>2021-05-20T13:06:14.771Z</time>
      </trkpt>
      <trkpt lat="48.74307" lon="2.02805">
        <ele>163</ele>
        <time>2021-05-20T13:06:15.771Z</time>
      </trkpt>
      <trkpt lat="48.74308" lon="2.02804">
        <ele>163</ele>
        <time>2021-05-20T13:06:16.771Z</time>
      </trkpt>
      <trkpt lat="48.74309" lon="2.02803">
        <ele>163</ele>
        <time>2021-05-20T13:06:17.771Z</time>
      </trkpt>
      <trkpt lat="48.7431" lon="2.02802">
        <ele>163</ele>
        <time>2021-05-20T13:06:18.771Z</time>
      </trkpt>
      <trkpt lat="48.74311" lon="2.02801">
        <ele>163</ele>
        <time>2021-05-20T13:06:19.771Z</time>
      </trkpt>
      <trkpt lat="48.74312" lon="2.02799">
        <ele>163</ele>
        <time>2021-05-20T13:06:20.771Z</time>
      </trkpt>
      <trkpt lat="48.74314" lon="2.02798">
        <ele>163</ele>
        <time>2021-05-20T13:06:21.771Z</time>
      </trkpt>
      <trkpt lat="48.74315" lon="2.02798">
        <ele>163</ele>
        <time>2021-05-20T13:06:22.771Z</time>
      </trkpt>
      <trkpt lat="48.74316" lon="2.02797">
        <ele>163</ele>
        <time>2021-05-20T13:06:23.771Z</time>
      </trkpt>
      <trkpt lat="48.74316" lon="2.02796">
        <ele>163</ele>
        <time>2021-05-20T13:06:24.771Z</time>
      </trkpt>
      <trkpt lat="48.74317" lon="2.02794">
        <ele>163</ele>
        <time>2021-05-20T13:06:25.771Z</time>
      </trkpt>
      <trkpt lat="48.74318" lon="2.02793">
        <ele>163</ele>
        <time>2021-05-20T13:06:26.771Z</time>
      </trkpt>
      <trkpt lat="48.74319" lon="2.02792">
        <ele>163</ele>
        <time>2021-05-20T13:06:27.771Z</time>
      </trkpt>
      <trkpt lat="48.7432" lon="2.02791">
        <ele>163</ele>
        <time>2021-05-20T13:06:28.771Z</time>
      </trkpt>
      <trkpt lat="48.74321" lon="2.02789">
        <ele>163</ele>
        <time>2021-05-20T13:06:29.771Z</time>
      </trkpt>
      <trkpt lat="48.74322" lon="2.02788">
        <ele>163</ele>
        <time>2021-05-20T13:06:30.771Z</time>
      </trkpt>
      <trkpt lat="48.74323" lon="2.02788">
        <ele>163</ele>
        <time>2021-05-20T13:06:31.771Z</time>
      </trkpt>
      <trkpt lat="48.74324" lon="2.02787">
        <ele>163</ele>
        <time>2021-05-20T13:06:32.771Z</time>
      </trkpt>
      <trkpt lat="48.74325" lon="2.02786">
        <ele>163</ele>
        <time>2021-05-20T13:06:33.771Z</time>
      </trkpt>
      <trkpt lat="48.74326" lon="2.02785">
        <ele>163</ele>
        <time>2021-05-20T13:06:34.771Z</time>
      </trkpt>
      <trkpt lat="48.74327" lon="2.02784">
        <ele>163</ele>
        <time>2021-05-20T13:06:35.771Z</time>
      </trkpt>
      <trkpt lat="48.74329" lon="2.02783">
        <ele>164</ele>
        <time>2021-05-20T13:06:36.771Z</time>
      </trkpt>
      <trkpt lat="48.7433" lon="2.02782">
        <ele>164</ele>
        <time>2021-05-20T13:06:37.771Z</time>
      </trkpt>
      <trkpt lat="48.74331" lon="2.02781">
        <ele>164</ele>
        <time>2021-05-20T13:06:38.771Z</time>
      </trkpt>
      <trkpt lat="48.74332" lon="2.0278">
        <ele>164</ele>
        <time>2021-05-20T13:06:39.771Z</time>
      </trkpt>
      <trkpt lat="48.74332" lon="2.02778">
        <ele>164</ele>
        <time>2021-05-20T13:06:40.771Z</time>
      </trkpt>
      <trkpt lat="48.74333" lon="2.02777">
        <ele>164</ele>
        <time>2021-05-20T13:06:41.771Z</time>
      </trkpt>
      <trkpt lat="48.74334" lon="2.02777">
        <ele>164</ele>
        <time>2021-05-20T13:06:42.771Z</time>
      </trkpt>
      <trkpt lat="48.74335" lon="2.02775">
        <ele>164</ele>
        <time>2021-05-20T13:06:43.771Z</time>
      </trkpt>
      <trkpt lat="48.74336" lon="2.02774">
        <ele>164</ele>
        <time>2021-05-20T13:06:44.771Z</time>
      </trkpt>
      <trkpt lat="48.74337" lon="2.02773">
        <ele>164</ele>
        <time>2021-05-20T13:06:45.771Z</time>
      </trkpt>
      <trkpt lat="48.74338" lon="2.02772">
        <ele>164</ele>
        <time>2021-05-20T13:06:46.771Z</time>
      </trkpt>
      <trkpt lat="48.74338" lon="2.0277">
        <ele>165</ele>
        <time>2021-05-20T13:06:47.771Z</time>
      </trkpt>
      <trkpt lat="48.74339" lon="2.02769">
        <ele>165</ele>
        <time>2021-05-20T13:06:48.771Z</time>
      </trkpt>
      <trkpt lat="48.7434" lon="2.02768">
        <ele>165</ele>
        <time>2021-05-20T13:06:49.771Z</time>
      </trkpt>
      <trkpt lat="48.7434" lon="2.02767">
        <ele>165</ele>
        <time>2021-05-20T13:06:50.771Z</time>
      </trkpt>
      <trkpt lat="48.74341" lon="2.02765">
        <ele>165</ele>
        <time>2021-05-20T13:06:51.771Z</time>
      </trkpt>
      <trkpt lat="48.74342" lon="2.02764">
        <ele>165</ele>
        <time>2021-05-20T13:06:52.771Z</time>
      </trkpt>
      <trkpt lat="48.74342" lon="2.02764">
        <ele>165</ele>
        <time>2021-05-20T13:06:53.771Z</time>
      </trkpt>
      <trkpt lat="48.74342" lon="2.02763">
        <ele>165</ele>
        <time>2021-05-20T13:06:54.771Z</time>
      </trkpt>
      <trkpt lat="48.74343" lon="2.02763">
        <ele>165</ele>
        <time>2021-05-20T13:06:55.771Z</time>
      </trkpt>
      <trkpt lat="48.74344" lon="2.02762">
        <ele>165</ele>
        <time>2021-05-20T13:06:56.771Z</time>
      </trkpt>
      <trkpt lat="48.74345" lon="2.02762">
        <ele>165</ele>
        <time>2021-05-20T13:06:57.771Z</time>
      </trkpt>
      <trkpt lat="48.74346" lon="2.02761">
        <ele>165</ele>
        <time>2021-05-20T13:06:58.771Z</time>
      </trkpt>
      <trkpt lat="48.74347" lon="2.02761">
        <ele>165</ele>
        <time>2021-05-20T13:06:59.771Z</time>
      </trkpt>
      <trkpt lat="48.74348" lon="2.0276">
        <ele>165</ele>
        <time>2021-05-20T13:07:00.771Z</time>
      </trkpt>
      <trkpt lat="48.74349" lon="2.0276">
        <ele>165</ele>
        <time>2021-05-20T13:07:01.771Z</time>
      </trkpt>
      <trkpt lat="48.7435" lon="2.0276">
        <ele>165</ele>
        <time>2021-05-20T13:07:02.771Z</time>
      </trkpt>
      <trkpt lat="48.74351" lon="2.02759">
        <ele>166</ele>
        <time>2021-05-20T13:07:03.771Z</time>
      </trkpt>
      <trkpt lat="48.74352" lon="2.02759">
        <ele>166</ele>
        <time>2021-05-20T13:07:04.771Z</time>
      </trkpt>
      <trkpt lat="48.74354" lon="2.02758">
        <ele>166</ele>
        <time>2021-05-20T13:07:05.771Z</time>
      </trkpt>
      <trkpt lat="48.74354" lon="2.02757">
        <ele>166</ele>
        <time>2021-05-20T13:07:06.771Z</time>
      </trkpt>
      <trkpt lat="48.74355" lon="2.02757">
        <ele>166</ele>
        <time>2021-05-20T13:07:07.771Z</time>
      </trkpt>
      <trkpt lat="48.74356" lon="2.02756">
        <ele>166</ele>
        <time>2021-05-20T13:07:08.771Z</time>
      </trkpt>
      <trkpt lat="48.74357" lon="2.02755">
        <ele>166</ele>
        <time>2021-05-20T13:07:09.771Z</time>
      </trkpt>
      <trkpt lat="48.74358" lon="2.02754">
        <ele>166</ele>
        <time>2021-05-20T13:07:10.771Z</time>
      </trkpt>
      <trkpt lat="48.74359" lon="2.02754">
        <ele>166</ele>
        <time>2021-05-20T13:07:11.771Z</time>
      </trkpt>
      <trkpt lat="48.74359" lon="2.02753">
        <ele>167</ele>
        <time>2021-05-20T13:07:12.771Z</time>
      </trkpt>
      <trkpt lat="48.7436" lon="2.02752">
        <ele>167</ele>
        <time>2021-05-20T13:07:13.771Z</time>
      </trkpt>
      <trkpt lat="48.74361" lon="2.02752">
        <ele>167</ele>
        <time>2021-05-20T13:07:14.771Z</time>
      </trkpt>
      <trkpt lat="48.74362" lon="2.02752">
        <ele>167</ele>
        <time>2021-05-20T13:07:15.771Z</time>
      </trkpt>
      <trkpt lat="48.74363" lon="2.02751">
        <ele>167</ele>
        <time>2021-05-20T13:07:16.771Z</time>
      </trkpt>
      <trkpt lat="48.74364" lon="2.02751">
        <ele>167</ele>
        <time>2021-05-20T13:07:17.771Z</time>
      </trkpt>
      <trkpt lat="48.74365" lon="2.0275">
        <ele>167</ele>
        <time>2021-05-20T13:07:18.771Z</time>
      </trkpt>
      <trkpt lat="48.74366" lon="2.02749">
        <ele>167</ele>
        <time>2021-05-20T13:07:19.771Z</time>
      </trkpt>
      <trkpt lat="48.74367" lon="2.02748">
        <ele>167</ele>
        <time>2021-05-20T13:07:20.771Z</time>
      </trkpt>
      <trkpt lat="48.74368" lon="2.02748">
        <ele>167</ele>
        <time>2021-05-20T13:07:21.771Z</time>
      </trkpt>
      <trkpt lat="48.74369" lon="2.02747">
        <ele>167</ele>
        <time>2021-05-20T13:07:22.771Z</time>
      </trkpt>
      <trkpt lat="48.74371" lon="2.02746">
        <ele>167</ele>
        <time>2021-05-20T13:07:23.771Z</time>
      </trkpt>
      <trkpt lat="48.74372" lon="2.02746">
        <ele>167</ele>
        <time>2021-05-20T13:07:24.771Z</time>
      </trkpt>
      <trkpt lat="48.74372" lon="2.02745">
        <ele>167</ele>
        <time>2021-05-20T13:07:25.771Z</time>
      </trkpt>
      <trkpt lat="48.74373" lon="2.02744">
        <ele>167</ele>
        <time>2021-05-20T13:07:26.771Z</time>
      </trkpt>
      <trkpt lat="48.74374" lon="2.02743">
        <ele>167</ele>
        <time>2021-05-20T13:07:27.771Z</time>
      </trkpt>
      <trkpt lat="48.74374" lon="2.02742">
        <ele>167</ele>
        <time>2021-05-20T13:07:28.771Z</time>
      </trkpt>
      <trkpt lat="48.74375" lon="2.02741">
        <ele>167</ele>
        <time>2021-05-20T13:07:36.782Z</time>
      </trkpt>
      <trkpt lat="48.74376" lon="2.02741">
        <ele>167</ele>
        <time>2021-05-20T13:07:37.782Z</time>
      </trkpt>
      <trkpt lat="48.74376" lon="2.02741">
        <ele>166</ele>
        <time>2021-05-20T13:07:38.782Z</time>
      </trkpt>
      <trkpt lat="48.74377" lon="2.0274">
        <ele>166</ele>
        <time>2021-05-20T13:07:39.782Z</time>
      </trkpt>
      <trkpt lat="48.74378" lon="2.0274">
        <ele>166</ele>
        <time>2021-05-20T13:07:40.782Z</time>
      </trkpt>
      <trkpt lat="48.74378" lon="2.02739">
        <ele>166</ele>
        <time>2021-05-20T13:07:41.782Z</time>
      </trkpt>
      <trkpt lat="48.74379" lon="2.02738">
        <ele>166</ele>
        <time>2021-05-20T13:07:42.782Z</time>
      </trkpt>
      <trkpt lat="48.7438" lon="2.02738">
        <ele>166</ele>
        <time>2021-05-20T13:07:43.782Z</time>
      </trkpt>
      <trkpt lat="48.74381" lon="2.02738">
        <ele>165</ele>
        <time>2021-05-20T13:07:44.782Z</time>
      </trkpt>
      <trkpt lat="48.74381" lon="2.02737">
        <ele>165</ele>
        <time>2021-05-20T13:07:45.782Z</time>
      </trkpt>
      <trkpt lat="48.74381" lon="2.02737">
        <ele>165</ele>
        <time>2021-05-20T13:07:46.782Z</time>
      </trkpt>
      <trkpt lat="48.74386" lon="2.02736">
        <ele>164</ele>
        <time>2021-05-20T13:07:47.782Z</time>
      </trkpt>
      <trkpt lat="48.74387" lon="2.02735">
        <ele>164</ele>
        <time>2021-05-20T13:07:48.782Z</time>
      </trkpt>
      <trkpt lat="48.74387" lon="2.02734">
        <ele>164</ele>
        <time>2021-05-20T13:07:49.782Z</time>
      </trkpt>
      <trkpt lat="48.74388" lon="2.02732">
        <ele>164</ele>
        <time>2021-05-20T13:07:50.782Z</time>
      </trkpt>
      <trkpt lat="48.74388" lon="2.02731">
        <ele>164</ele>
        <time>2021-05-20T13:07:51.782Z</time>
      </trkpt>
      <trkpt lat="48.74389" lon="2.0273">
        <ele>164</ele>
        <time>2021-05-20T13:07:56.792Z</time>
      </trkpt>
      <trkpt lat="48.7439" lon="2.02728">
        <ele>164</ele>
        <time>2021-05-20T13:07:57.792Z</time>
      </trkpt>
      <trkpt lat="48.7439" lon="2.02727">
        <ele>165</ele>
        <time>2021-05-20T13:07:58.792Z</time>
      </trkpt>
      <trkpt lat="48.74391" lon="2.02725">
        <ele>165</ele>
        <time>2021-05-20T13:07:59.792Z</time>
      </trkpt>
      <trkpt lat="48.74392" lon="2.02724">
        <ele>165</ele>
        <time>2021-05-20T13:08:00.792Z</time>
      </trkpt>
      <trkpt lat="48.74393" lon="2.02722">
        <ele>165</ele>
        <time>2021-05-20T13:08:27.803Z</time>
      </trkpt>
      <trkpt lat="48.74393" lon="2.02721">
        <ele>165</ele>
        <time>2021-05-20T13:08:28.803Z</time>
      </trkpt>
      <trkpt lat="48.74394" lon="2.02719">
        <ele>166</ele>
        <time>2021-05-20T13:08:29.803Z</time>
      </trkpt>
      <trkpt lat="48.74395" lon="2.02718">
        <ele>166</ele>
        <time>2021-05-20T13:08:30.803Z</time>
      </trkpt>
      <trkpt lat="48.74396" lon="2.02716">
        <ele>166</ele>
        <time>2021-05-20T13:08:31.803Z</time>
      </trkpt>
      <trkpt lat="48.74397" lon="2.02715">
        <ele>166</ele>
        <time>2021-05-20T13:08:32.803Z</time>
      </trkpt>
      <trkpt lat="48.74398" lon="2.02713">
        <ele>167</ele>
        <time>2021-05-20T13:08:33.803Z</time>
      </trkpt>
      <trkpt lat="48.74398" lon="2.02711">
        <ele>167</ele>
        <time>2021-05-20T13:08:34.803Z</time>
      </trkpt>
      <trkpt lat="48.74399" lon="2.0271">
        <ele>167</ele>
        <time>2021-05-20T13:08:35.803Z</time>
      </trkpt>
      <trkpt lat="48.74399" lon="2.02708">
        <ele>168</ele>
        <time>2021-05-20T13:08:36.803Z</time>
      </trkpt>
      <trkpt lat="48.74399" lon="2.02707">
        <ele>168</ele>
        <time>2021-05-20T13:08:37.803Z</time>
      </trkpt>
      <trkpt lat="48.744" lon="2.02705">
        <ele>168</ele>
        <time>2021-05-20T13:08:38.803Z</time>
      </trkpt>
      <trkpt lat="48.744" lon="2.02704">
        <ele>169</ele>
        <time>2021-05-20T13:08:42.076Z</time>
      </trkpt>
      <trkpt lat="48.74401" lon="2.02702">
        <ele>169</ele>
        <time>2021-05-20T13:08:43.076Z</time>
      </trkpt>
      <trkpt lat="48.74402" lon="2.027">
        <ele>169</ele>
        <time>2021-05-20T13:08:44.076Z</time>
      </trkpt>
      <trkpt lat="48.74402" lon="2.02698">
        <ele>169</ele>
        <time>2021-05-20T13:08:45.076Z</time>
      </trkpt>
      <trkpt lat="48.74403" lon="2.02696">
        <ele>170</ele>
        <time>2021-05-20T13:08:46.076Z</time>
      </trkpt>
      <trkpt lat="48.74403" lon="2.02694">
        <ele>170</ele>
        <time>2021-05-20T13:08:47.076Z</time>
      </trkpt>
      <trkpt lat="48.74403" lon="2.02692">
        <ele>170</ele>
        <time>2021-05-20T13:08:48.076Z</time>
      </trkpt>
      <trkpt lat="48.74403" lon="2.0269">
        <ele>170</ele>
        <time>2021-05-20T13:08:49.076Z</time>
      </trkpt>
      <trkpt lat="48.74403" lon="2.02688">
        <ele>171</ele>
        <time>2021-05-20T13:08:50.076Z</time>
      </trkpt>
      <trkpt lat="48.74404" lon="2.02686">
        <ele>171</ele>
        <time>2021-05-20T13:08:51.076Z</time>
      </trkpt>
      <trkpt lat="48.74405" lon="2.02684">
        <ele>171</ele>
        <time>2021-05-20T13:08:52.076Z</time>
      </trkpt>
      <trkpt lat="48.74406" lon="2.02681">
        <ele>171</ele>
        <time>2021-05-20T13:08:53.076Z</time>
      </trkpt>
      <trkpt lat="48.74407" lon="2.0268">
        <ele>171</ele>
        <time>2021-05-20T13:08:54.076Z</time>
      </trkpt>
      <trkpt lat="48.74407" lon="2.02678">
        <ele>171</ele>
        <time>2021-05-20T13:08:55.076Z</time>
      </trkpt>
      <trkpt lat="48.74408" lon="2.02676">
        <ele>172</ele>
        <time>2021-05-20T13:08:56.076Z</time>
      </trkpt>
      <trkpt lat="48.74409" lon="2.02675">
        <ele>172</ele>
        <time>2021-05-20T13:08:57.076Z</time>
      </trkpt>
      <trkpt lat="48.74409" lon="2.02673">
        <ele>172</ele>
        <time>2021-05-20T13:08:58.076Z</time>
      </trkpt>
      <trkpt lat="48.7441" lon="2.02671">
        <ele>172</ele>
        <time>2021-05-20T13:08:59.076Z</time>
      </trkpt>
      <trkpt lat="48.7441" lon="2.02669">
        <ele>172</ele>
        <time>2021-05-20T13:09:00.076Z</time>
      </trkpt>
      <trkpt lat="48.74411" lon="2.02667">
        <ele>172</ele>
        <time>2021-05-20T13:09:01.076Z</time>
      </trkpt>
      <trkpt lat="48.74411" lon="2.02666">
        <ele>172</ele>
        <time>2021-05-20T13:09:02.076Z</time>
      </trkpt>
      <trkpt lat="48.74412" lon="2.02664">
        <ele>173</ele>
        <time>2021-05-20T13:09:03.076Z</time>
      </trkpt>
      <trkpt lat="48.74413" lon="2.02662">
        <ele>173</ele>
        <time>2021-05-20T13:09:04.076Z</time>
      </trkpt>
      <trkpt lat="48.74413" lon="2.02661">
        <ele>173</ele>
        <time>2021-05-20T13:09:32.121Z</time>
      </trkpt>
      <trkpt lat="48.74413" lon="2.0266">
        <ele>173</ele>
        <time>2021-05-20T13:09:33.121Z</time>
      </trkpt>
      <trkpt lat="48.74414" lon="2.02659">
        <ele>173</ele>
        <time>2021-05-20T13:09:34.121Z</time>
      </trkpt>
      <trkpt lat="48.74414" lon="2.02657">
        <ele>173</ele>
        <time>2021-05-20T13:09:35.121Z</time>
      </trkpt>
      <trkpt lat="48.74414" lon="2.02656">
        <ele>173</ele>
        <time>2021-05-20T13:09:36.121Z</time>
      </trkpt>
      <trkpt lat="48.74415" lon="2.02655">
        <ele>173</ele>
        <time>2021-05-20T13:09:37.121Z</time>
      </trkpt>
      <trkpt lat="48.74415" lon="2.02653">
        <ele>172</ele>
        <time>2021-05-20T13:09:38.121Z</time>
      </trkpt>
      <trkpt lat="48.74416" lon="2.02652">
        <ele>172</ele>
        <time>2021-05-20T13:09:39.121Z</time>
      </trkpt>
      <trkpt lat="48.74416" lon="2.0265">
        <ele>172</ele>
        <time>2021-05-20T13:09:40.121Z</time>
      </trkpt>
      <trkpt lat="48.74416" lon="2.02648">
        <ele>172</ele>
        <time>2021-05-20T13:09:41.121Z</time>
      </trkpt>
      <trkpt lat="48.74417" lon="2.02647">
        <ele>172</ele>
        <time>2021-05-20T13:09:42.121Z</time>
      </trkpt>
      <trkpt lat="48.74418" lon="2.02646">
        <ele>172</ele>
        <time>2021-05-20T13:09:43.121Z</time>
      </trkpt>
      <trkpt lat="48.74418" lon="2.02645">
        <ele>171</ele>
        <time>2021-05-20T13:09:44.121Z</time>
      </trkpt>
      <trkpt lat="48.74419" lon="2.02643">
        <ele>171</ele>
        <time>2021-05-20T13:09:45.121Z</time>
      </trkpt>
      <trkpt lat="48.7442" lon="2.02641">
        <ele>171</ele>
        <time>2021-05-20T13:09:46.121Z</time>
      </trkpt>
      <trkpt lat="48.74421" lon="2.0264">
        <ele>170</ele>
        <time>2021-05-20T13:09:47.121Z</time>
      </trkpt>
      <trkpt lat="48.74421" lon="2.02638">
        <ele>170</ele>
        <time>2021-05-20T13:09:48.121Z</time>
      </trkpt>
      <trkpt lat="48.74422" lon="2.02637">
        <ele>170</ele>
        <time>2021-05-20T13:10:56.120Z</time>
      </trkpt>
      <trkpt lat="48.74422" lon="2.02635">
        <ele>169</ele>
        <time>2021-05-20T13:10:57.120Z</time>
      </trkpt>
      <trkpt lat="48.74423" lon="2.02633">
        <ele>169</ele>
        <time>2021-05-20T13:10:58.120Z</time>
      </trkpt>
      <trkpt lat="48.74424" lon="2.02632">
        <ele>169</ele>
        <time>2021-05-20T13:10:59.120Z</time>
      </trkpt>
      <trkpt lat="48.74425" lon="2.0263">
        <ele>169</ele>
        <time>2021-05-20T13:11:00.120Z</time>
      </trkpt>
      <trkpt lat="48.74426" lon="2.02629">
        <ele>169</ele>
        <time>2021-05-20T13:11:01.120Z</time>
      </trkpt>
      <trkpt lat="48.74426" lon="2.02627">
        <ele>168</ele>
        <time>2021-05-20T13:11:02.120Z</time>
      </trkpt>
      <trkpt lat="48.74427" lon="2.02626">
        <ele>168</ele>
        <time>2021-05-20T13:11:03.120Z</time>
      </trkpt>
      <trkpt lat="48.74428" lon="2.02625">
        <ele>168</ele>
        <time>2021-05-20T13:11:04.120Z</time>
      </trkpt>
      <trkpt lat="48.74428" lon="2.02623">
        <ele>167</ele>
        <time>2021-05-20T13:11:05.120Z</time>
      </trkpt>
      <trkpt lat="48.74429" lon="2.02621">
        <ele>167</ele>
        <time>2021-05-20T13:11:06.120Z</time>
      </trkpt>
      <trkpt lat="48.74429" lon="2.0262">
        <ele>167</ele>
        <time>2021-05-20T13:11:07.120Z</time>
      </trkpt>
      <trkpt lat="48.7443" lon="2.02618">
        <ele>167</ele>
        <time>2021-05-20T13:11:08.120Z</time>
      </trkpt>
      <trkpt lat="48.7443" lon="2.02617">
        <ele>167</ele>
        <time>2021-05-20T13:11:09.120Z</time>
      </trkpt>
      <trkpt lat="48.74431" lon="2.02616">
        <ele>167</ele>
        <time>2021-05-20T13:11:10.120Z</time>
      </trkpt>
      <trkpt lat="48.74431" lon="2.02614">
        <ele>166</ele>
        <time>2021-05-20T13:11:11.120Z</time>
      </trkpt>
      <trkpt lat="48.74431" lon="2.02613">
        <ele>166</ele>
        <time>2021-05-20T13:11:12.120Z</time>
      </trkpt>
      <trkpt lat="48.74432" lon="2.02611">
        <ele>166</ele>
        <time>2021-05-20T13:11:13.120Z</time>
      </trkpt>
      <trkpt lat="48.74433" lon="2.02609">
        <ele>166</ele>
        <time>2021-05-20T13:11:14.120Z</time>
      </trkpt>
      <trkpt lat="48.74434" lon="2.02607">
        <ele>166</ele>
        <time>2021-05-20T13:11:15.120Z</time>
      </trkpt>
      <trkpt lat="48.74434" lon="2.02606">
        <ele>166</ele>
        <time>2021-05-20T13:11:16.120Z</time>
      </trkpt>
      <trkpt lat="48.74435" lon="2.02604">
        <ele>166</ele>
        <time>2021-05-20T13:11:17.120Z</time>
      </trkpt>
      <trkpt lat="48.74436" lon="2.02603">
        <ele>166</ele>
        <time>2021-05-20T13:11:18.120Z</time>
      </trkpt>
      <trkpt lat="48.74436" lon="2.02601">
        <ele>165</ele>
        <time>2021-05-20T13:11:19.120Z</time>
      </trkpt>
      <trkpt lat="48.74437" lon="2.026">
        <ele>165</ele>
        <time>2021-05-20T13:11:20.120Z</time>
      </trkpt>
      <trkpt lat="48.74438" lon="2.02598">
        <ele>165</ele>
        <time>2021-05-20T13:11:21.120Z</time>
      </trkpt>
      <trkpt lat="48.74438" lon="2.02596">
        <ele>165</ele>
        <time>2021-05-20T13:11:22.120Z</time>
      </trkpt>
      <trkpt lat="48.74439" lon="2.02595">
        <ele>165</ele>
        <time>2021-05-20T13:11:23.120Z</time>
      </trkpt>
      <trkpt lat="48.74439" lon="2.02594">
        <ele>165</ele>
        <time>2021-05-20T13:11:24.120Z</time>
      </trkpt>
      <trkpt lat="48.7444" lon="2.02592">
        <ele>164</ele>
        <time>2021-05-20T13:11:25.120Z</time>
      </trkpt>
      <trkpt lat="48.74441" lon="2.02591">
        <ele>164</ele>
        <time>2021-05-20T13:11:26.120Z</time>
      </trkpt>
      <trkpt lat="48.74441" lon="2.02589">
        <ele>164</ele>
        <time>2021-05-20T13:11:27.120Z</time>
      </trkpt>
      <trkpt lat="48.74442" lon="2.02587">
        <ele>164</ele>
        <time>2021-05-20T13:11:28.120Z</time>
      </trkpt>
      <trkpt lat="48.74442" lon="2.02586">
        <ele>164</ele>
        <time>2021-05-20T13:11:29.120Z</time>
      </trkpt>
      <trkpt lat="48.74443" lon="2.02584">
        <ele>164</ele>
        <time>2021-05-20T13:11:30.120Z</time>
      </trkpt>
      <trkpt lat="48.74443" lon="2.02582">
        <ele>164</ele>
        <time>2021-05-20T13:11:31.120Z</time>
      </trkpt>
      <trkpt lat="48.74444" lon="2.02581">
        <ele>164</ele>
        <time>2021-05-20T13:11:32.120Z</time>
      </trkpt>
      <trkpt lat="48.74444" lon="2.02579">
        <ele>164</ele>
        <time>2021-05-20T13:11:33.120Z</time>
      </trkpt>
      <trkpt lat="48.74444" lon="2.02577">
        <ele>164</ele>
        <time>2021-05-20T13:11:34.120Z</time>
      </trkpt>
      <trkpt lat="48.74445" lon="2.02576">
        <ele>164</ele>
        <time>2021-05-20T13:11:35.120Z</time>
      </trkpt>
      <trkpt lat="48.74445" lon="2.02574">
        <ele>164</ele>
        <time>2021-05-20T13:11:36.120Z</time>
      </trkpt>
      <trkpt lat="48.74446" lon="2.02573">
        <ele>164</ele>
        <time>2021-05-20T13:11:37.120Z</time>
      </trkpt>
      <trkpt lat="48.74446" lon="2.02572">
        <ele>164</ele>
        <time>2021-05-20T13:11:38.120Z</time>
      </trkpt>
      <trkpt lat="48.74447" lon="2.0257">
        <ele>164</ele>
        <time>2021-05-20T13:11:39.120Z</time>
      </trkpt>
      <trkpt lat="48.74447" lon="2.02569">
        <ele>164</ele>
        <time>2021-05-20T13:11:40.120Z</time>
      </trkpt>
      <trkpt lat="48.74447" lon="2.02568">
        <ele>164</ele>
        <time>2021-05-20T13:11:41.120Z</time>
      </trkpt>
      <trkpt lat="48.74448" lon="2.02566">
        <ele>164</ele>
        <time>2021-05-20T13:11:42.120Z</time>
      </trkpt>
      <trkpt lat="48.74448" lon="2.02565">
        <ele>164</ele>
        <time>2021-05-20T13:11:43.120Z</time>
      </trkpt>
      <trkpt lat="48.74449" lon="2.02564">
        <ele>164</ele>
        <time>2021-05-20T13:11:44.120Z</time>
      </trkpt>
      <trkpt lat="48.74449" lon="2.02562">
        <ele>164</ele>
        <time>2021-05-20T13:11:45.120Z</time>
      </trkpt>
      <trkpt lat="48.74449" lon="2.02561">
        <ele>164</ele>
        <time>2021-05-20T13:11:46.120Z</time>
      </trkpt>
      <trkpt lat="48.74449" lon="2.0256">
        <ele>164</ele>
        <time>2021-05-20T13:11:47.120Z</time>
      </trkpt>
      <trkpt lat="48.7445" lon="2.02558">
        <ele>164</ele>
        <time>2021-05-20T13:11:48.120Z</time>
      </trkpt>
      <trkpt lat="48.7445" lon="2.02556">
        <ele>164</ele>
        <time>2021-05-20T13:11:49.120Z</time>
      </trkpt>
      <trkpt lat="48.7445" lon="2.02555">
        <ele>164</ele>
        <time>2021-05-20T13:11:50.120Z</time>
      </trkpt>
      <trkpt lat="48.74451" lon="2.02553">
        <ele>164</ele>
        <time>2021-05-20T13:11:51.120Z</time>
      </trkpt>
      <trkpt lat="48.74451" lon="2.02551">
        <ele>164</ele>
        <time>2021-05-20T13:11:52.120Z</time>
      </trkpt>
      <trkpt lat="48.74451" lon="2.02549">
        <ele>164</ele>
        <time>2021-05-20T13:11:53.120Z</time>
      </trkpt>
      <trkpt lat="48.74452" lon="2.02547">
        <ele>164</ele>
        <time>2021-05-20T13:11:54.120Z</time>
      </trkpt>
      <trkpt lat="48.74452" lon="2.02546">
        <ele>164</ele>
        <time>2021-05-20T13:11:55.120Z</time>
      </trkpt>
      <trkpt lat="48.74453" lon="2.02545">
        <ele>164</ele>
        <time>2021-05-20T13:11:56.120Z</time>
      </trkpt>
      <trkpt lat="48.74453" lon="2.02543">
        <ele>164</ele>
        <time>2021-05-20T13:11:57.120Z</time>
      </trkpt>
      <trkpt lat="48.74454" lon="2.02541">
        <ele>164</ele>
        <time>2021-05-20T13:11:58.120Z</time>
      </trkpt>
      <trkpt lat="48.74455" lon="2.02539">
        <ele>164</ele>
        <time>2021-05-20T13:11:59.120Z</time>
      </trkpt>
      <trkpt lat="48.74455" lon="2.02537">
        <ele>164</ele>
        <time>2021-05-20T13:12:00.120Z</time>
      </trkpt>
      <trkpt lat="48.74456" lon="2.02536">
        <ele>163</ele>
        <time>2021-05-20T13:12:01.120Z</time>
      </trkpt>
      <trkpt lat="48.74456" lon="2.02534">
        <ele>163</ele>
        <time>2021-05-20T13:12:02.120Z</time>
      </trkpt>
      <trkpt lat="48.74456" lon="2.02533">
        <ele>163</ele>
        <time>2021-05-20T13:12:03.120Z</time>
      </trkpt>
      <trkpt lat="48.74457" lon="2.02532">
        <ele>163</ele>
        <time>2021-05-20T13:12:04.120Z</time>
      </trkpt>
      <trkpt lat="48.74457" lon="2.0253">
        <ele>163</ele>
        <time>2021-05-20T13:12:05.120Z</time>
      </trkpt>
      <trkpt lat="48.74457" lon="2.02528">
        <ele>163</ele>
        <time>2021-05-20T13:12:06.120Z</time>
      </trkpt>
      <trkpt lat="48.74458" lon="2.02526">
        <ele>163</ele>
        <time>2021-05-20T13:12:07.120Z</time>
      </trkpt>
      <trkpt lat="48.74458" lon="2.02525">
        <ele>163</ele>
        <time>2021-05-20T13:12:08.120Z</time>
      </trkpt>
      <trkpt lat="48.74458" lon="2.02523">
        <ele>163</ele>
        <time>2021-05-20T13:12:09.120Z</time>
      </trkpt>
      <trkpt lat="48.74459" lon="2.02522">
        <ele>163</ele>
        <time>2021-05-20T13:12:10.120Z</time>
      </trkpt>
      <trkpt lat="48.74459" lon="2.02521">
        <ele>163</ele>
        <time>2021-05-20T13:12:11.120Z</time>
      </trkpt>
      <trkpt lat="48.74459" lon="2.02519">
        <ele>163</ele>
        <time>2021-05-20T13:12:12.120Z</time>
      </trkpt>
      <trkpt lat="48.7446" lon="2.02517">
        <ele>163</ele>
        <time>2021-05-20T13:12:13.120Z</time>
      </trkpt>
      <trkpt lat="48.7446" lon="2.02516">
        <ele>163</ele>
        <time>2021-05-20T13:12:14.120Z</time>
      </trkpt>
      <trkpt lat="48.7446" lon="2.02514">
        <ele>163</ele>
        <time>2021-05-20T13:12:15.120Z</time>
      </trkpt>
      <trkpt lat="48.74461" lon="2.02513">
        <ele>163</ele>
        <time>2021-05-20T13:12:16.120Z</time>
      </trkpt>
      <trkpt lat="48.74461" lon="2.02511">
        <ele>163</ele>
        <time>2021-05-20T13:12:17.120Z</time>
      </trkpt>
      <trkpt lat="48.74461" lon="2.0251">
        <ele>162</ele>
        <time>2021-05-20T13:12:18.120Z</time>
      </trkpt>
      <trkpt lat="48.74462" lon="2.02508">
        <ele>162</ele>
        <time>2021-05-20T13:12:19.120Z</time>
      </trkpt>
      <trkpt lat="48.74462" lon="2.02506">
        <ele>162</ele>
        <time>2021-05-20T13:12:20.120Z</time>
      </trkpt>
      <trkpt lat="48.74462" lon="2.02505">
        <ele>162</ele>
        <time>2021-05-20T13:12:21.120Z</time>
      </trkpt>
      <trkpt lat="48.74463" lon="2.02503">
        <ele>162</ele>
        <time>2021-05-20T13:12:22.120Z</time>
      </trkpt>
      <trkpt lat="48.74463" lon="2.02502">
        <ele>162</ele>
        <time>2021-05-20T13:12:23.120Z</time>
      </trkpt>
      <trkpt lat="48.74463" lon="2.025">
        <ele>162</ele>
        <time>2021-05-20T13:12:24.120Z</time>
      </trkpt>
      <trkpt lat="48.74464" lon="2.02499">
        <ele>162</ele>
        <time>2021-05-20T13:12:25.120Z</time>
      </trkpt>
      <trkpt lat="48.74464" lon="2.02497">
        <ele>162</ele>
        <time>2021-05-20T13:12:26.120Z</time>
      </trkpt>
      <trkpt lat="48.74465" lon="2.02496">
        <ele>162</ele>
        <time>2021-05-20T13:12:27.120Z</time>
      </trkpt>
      <trkpt lat="48.74465" lon="2.02494">
        <ele>162</ele>
        <time>2021-05-20T13:12:28.120Z</time>
      </trkpt>
      <trkpt lat="48.74465" lon="2.02493">
        <ele>163</ele>
        <time>2021-05-20T13:12:29.120Z</time>
      </trkpt>
      <trkpt lat="48.74466" lon="2.02492">
        <ele>163</ele>
        <time>2021-05-20T13:12:30.120Z</time>
      </trkpt>
      <trkpt lat="48.74466" lon="2.0249">
        <ele>163</ele>
        <time>2021-05-20T13:12:31.120Z</time>
      </trkpt>
      <trkpt lat="48.74466" lon="2.02489">
        <ele>163</ele>
        <time>2021-05-20T13:12:32.120Z</time>
      </trkpt>
      <trkpt lat="48.74466" lon="2.02488">
        <ele>163</ele>
        <time>2021-05-20T13:12:33.120Z</time>
      </trkpt>
      <trkpt lat="48.74467" lon="2.02486">
        <ele>163</ele>
        <time>2021-05-20T13:12:34.120Z</time>
      </trkpt>
      <trkpt lat="48.74467" lon="2.02485">
        <ele>163</ele>
        <time>2021-05-20T13:12:35.120Z</time>
      </trkpt>
      <trkpt lat="48.74467" lon="2.02484">
        <ele>162</ele>
        <time>2021-05-20T13:12:36.120Z</time>
      </trkpt>
      <trkpt lat="48.74467" lon="2.02482">
        <ele>162</ele>
        <time>2021-05-20T13:12:37.120Z</time>
      </trkpt>
      <trkpt lat="48.74468" lon="2.0248">
        <ele>162</ele>
        <time>2021-05-20T13:12:38.120Z</time>
      </trkpt>
      <trkpt lat="48.74468" lon="2.02479">
        <ele>162</ele>
        <time>2021-05-20T13:12:39.120Z</time>
      </trkpt>
      <trkpt lat="48.74468" lon="2.02477">
        <ele>162</ele>
        <time>2021-05-20T13:12:40.120Z</time>
      </trkpt>
      <trkpt lat="48.74468" lon="2.02475">
        <ele>162</ele>
        <time>2021-05-20T13:12:41.120Z</time>
      </trkpt>
      <trkpt lat="48.74469" lon="2.02474">
        <ele>162</ele>
        <time>2021-05-20T13:12:42.120Z</time>
      </trkpt>
      <trkpt lat="48.74469" lon="2.02472">
        <ele>162</ele>
        <time>2021-05-20T13:12:43.120Z</time>
      </trkpt>
      <trkpt lat="48.74469" lon="2.0247">
        <ele>162</ele>
        <time>2021-05-20T13:12:44.120Z</time>
      </trkpt>
      <trkpt lat="48.7447" lon="2.02469">
        <ele>163</ele>
        <time>2021-05-20T13:12:45.120Z</time>
      </trkpt>
      <trkpt lat="48.7447" lon="2.02467">
        <ele>163</ele>
        <time>2021-05-20T13:12:46.120Z</time>
      </trkpt>
      <trkpt lat="48.7447" lon="2.02466">
        <ele>163</ele>
        <time>2021-05-20T13:12:47.120Z</time>
      </trkpt>
      <trkpt lat="48.7447" lon="2.02464">
        <ele>163</ele>
        <time>2021-05-20T13:12:48.120Z</time>
      </trkpt>
      <trkpt lat="48.7447" lon="2.02462">
        <ele>163</ele>
        <time>2021-05-20T13:12:49.120Z</time>
      </trkpt>
      <trkpt lat="48.74471" lon="2.0246">
        <ele>163</ele>
        <time>2021-05-20T13:12:50.120Z</time>
      </trkpt>
      <trkpt lat="48.74471" lon="2.02459">
        <ele>163</ele>
        <time>2021-05-20T13:12:51.120Z</time>
      </trkpt>
      <trkpt lat="48.74471" lon="2.02457">
        <ele>163</ele>
        <time>2021-05-20T13:12:52.120Z</time>
      </trkpt>
      <trkpt lat="48.74471" lon="2.02456">
        <ele>164</ele>
        <time>2021-05-20T13:12:53.120Z</time>
      </trkpt>
      <trkpt lat="48.74472" lon="2.02454">
        <ele>164</ele>
        <time>2021-05-20T13:12:54.120Z</time>
      </trkpt>
      <trkpt lat="48.74472" lon="2.02453">
        <ele>164</ele>
        <time>2021-05-20T13:12:55.120Z</time>
      </trkpt>
      <trkpt lat="48.74472" lon="2.02451">
        <ele>164</ele>
        <time>2021-05-20T13:12:56.120Z</time>
      </trkpt>
      <trkpt lat="48.74472" lon="2.02449">
        <ele>164</ele>
        <time>2021-05-20T13:12:57.120Z</time>
      </trkpt>
      <trkpt lat="48.74473" lon="2.02448">
        <ele>165</ele>
        <time>2021-05-20T13:12:58.120Z</time>
      </trkpt>
      <trkpt lat="48.74473" lon="2.02446">
        <ele>165</ele>
        <time>2021-05-20T13:12:59.120Z</time>
      </trkpt>
      <trkpt lat="48.74473" lon="2.02445">
        <ele>165</ele>
        <time>2021-05-20T13:13:00.120Z</time>
      </trkpt>
      <trkpt lat="48.74473" lon="2.02444">
        <ele>165</ele>
        <time>2021-05-20T13:13:01.120Z</time>
      </trkpt>
      <trkpt lat="48.74473" lon="2.02442">
        <ele>165</ele>
        <time>2021-05-20T13:13:02.120Z</time>
      </trkpt>
      <trkpt lat="48.74474" lon="2.02441">
        <ele>165</ele>
        <time>2021-05-20T13:13:03.120Z</time>
      </trkpt>
      <trkpt lat="48.74474" lon="2.02439">
        <ele>166</ele>
        <time>2021-05-20T13:13:04.120Z</time>
      </trkpt>
      <trkpt lat="48.74474" lon="2.02437">
        <ele>166</ele>
        <time>2021-05-20T13:13:05.120Z</time>
      </trkpt>
      <trkpt lat="48.74475" lon="2.02436">
        <ele>166</ele>
        <time>2021-05-20T13:13:06.120Z</time>
      </trkpt>
      <trkpt lat="48.74475" lon="2.02435">
        <ele>166</ele>
        <time>2021-05-20T13:13:07.120Z</time>
      </trkpt>
      <trkpt lat="48.74475" lon="2.02433">
        <ele>166</ele>
        <time>2021-05-20T13:13:08.120Z</time>
      </trkpt>
      <trkpt lat="48.74475" lon="2.02431">
        <ele>166</ele>
        <time>2021-05-20T13:13:09.120Z</time>
      </trkpt>
      <trkpt lat="48.74475" lon="2.02429">
        <ele>166</ele>
        <time>2021-05-20T13:13:10.120Z</time>
      </trkpt>
      <trkpt lat="48.74475" lon="2.02427">
        <ele>166</ele>
        <time>2021-05-20T13:13:11.120Z</time>
      </trkpt>
      <trkpt lat="48.74475" lon="2.02426">
        <ele>166</ele>
        <time>2021-05-20T13:13:12.120Z</time>
      </trkpt>
      <trkpt lat="48.74475" lon="2.02424">
        <ele>166</ele>
        <time>2021-05-20T13:13:13.120Z</time>
      </trkpt>
      <trkpt lat="48.74475" lon="2.02423">
        <ele>166</ele>
        <time>2021-05-20T13:13:14.120Z</time>
      </trkpt>
      <trkpt lat="48.74475" lon="2.02421">
        <ele>166</ele>
        <time>2021-05-20T13:13:15.120Z</time>
      </trkpt>
      <trkpt lat="48.74475" lon="2.02419">
        <ele>166</ele>
        <time>2021-05-20T13:13:16.120Z</time>
      </trkpt>
      <trkpt lat="48.74475" lon="2.02417">
        <ele>166</ele>
        <time>2021-05-20T13:13:17.120Z</time>
      </trkpt>
      <trkpt lat="48.74475" lon="2.02416">
        <ele>166</ele>
        <time>2021-05-20T13:13:18.120Z</time>
      </trkpt>
      <trkpt lat="48.74475" lon="2.02414">
        <ele>166</ele>
        <time>2021-05-20T13:13:19.120Z</time>
      </trkpt>
      <trkpt lat="48.74476" lon="2.02413">
        <ele>166</ele>
        <time>2021-05-20T13:13:20.120Z</time>
      </trkpt>
      <trkpt lat="48.74476" lon="2.02411">
        <ele>166</ele>
        <time>2021-05-20T13:13:21.120Z</time>
      </trkpt>
      <trkpt lat="48.74477" lon="2.02409">
        <ele>165</ele>
        <time>2021-05-20T13:13:22.120Z</time>
      </trkpt>
      <trkpt lat="48.74478" lon="2.02407">
        <ele>165</ele>
        <time>2021-05-20T13:13:23.120Z</time>
      </trkpt>
      <trkpt lat="48.74478" lon="2.02406">
        <ele>165</ele>
        <time>2021-05-20T13:13:24.120Z</time>
      </trkpt>
      <trkpt lat="48.74478" lon="2.02404">
        <ele>165</ele>
        <time>2021-05-20T13:13:25.120Z</time>
      </trkpt>
      <trkpt lat="48.74479" lon="2.02402">
        <ele>165</ele>
        <time>2021-05-20T13:13:26.120Z</time>
      </trkpt>
      <trkpt lat="48.74479" lon="2.024">
        <ele>165</ele>
        <time>2021-05-20T13:13:27.120Z</time>
      </trkpt>
      <trkpt lat="48.74479" lon="2.02398">
        <ele>165</ele>
        <time>2021-05-20T13:13:28.120Z</time>
      </trkpt>
      <trkpt lat="48.7448" lon="2.02397">
        <ele>165</ele>
        <time>2021-05-20T13:13:29.120Z</time>
      </trkpt>
      <trkpt lat="48.7448" lon="2.02395">
        <ele>165</ele>
        <time>2021-05-20T13:13:30.120Z</time>
      </trkpt>
      <trkpt lat="48.7448" lon="2.02393">
        <ele>165</ele>
        <time>2021-05-20T13:13:31.120Z</time>
      </trkpt>
      <trkpt lat="48.7448" lon="2.02391">
        <ele>164</ele>
        <time>2021-05-20T13:13:32.120Z</time>
      </trkpt>
      <trkpt lat="48.74481" lon="2.0239">
        <ele>164</ele>
        <time>2021-05-20T13:13:33.120Z</time>
      </trkpt>
      <trkpt lat="48.74481" lon="2.02388">
        <ele>164</ele>
        <time>2021-05-20T13:13:34.120Z</time>
      </trkpt>
      <trkpt lat="48.74481" lon="2.02387">
        <ele>164</ele>
        <time>2021-05-20T13:13:35.120Z</time>
      </trkpt>
      <trkpt lat="48.74482" lon="2.02385">
        <ele>164</ele>
        <time>2021-05-20T13:13:36.120Z</time>
      </trkpt>
      <trkpt lat="48.74482" lon="2.02384">
        <ele>164</ele>
        <time>2021-05-20T13:13:37.120Z</time>
      </trkpt>
      <trkpt lat="48.74482" lon="2.02382">
        <ele>164</ele>
        <time>2021-05-20T13:13:38.120Z</time>
      </trkpt>
      <trkpt lat="48.74483" lon="2.02381">
        <ele>164</ele>
        <time>2021-05-20T13:13:39.120Z</time>
      </trkpt>
      <trkpt lat="48.74483" lon="2.02379">
        <ele>164</ele>
        <time>2021-05-20T13:13:40.120Z</time>
      </trkpt>
      <trkpt lat="48.74483" lon="2.02378">
        <ele>164</ele>
        <time>2021-05-20T13:13:41.120Z</time>
      </trkpt>
      <trkpt lat="48.74484" lon="2.02376">
        <ele>164</ele>
        <time>2021-05-20T13:13:42.120Z</time>
      </trkpt>
      <trkpt lat="48.74484" lon="2.02375">
        <ele>165</ele>
        <time>2021-05-20T13:13:43.120Z</time>
      </trkpt>
      <trkpt lat="48.74484" lon="2.02374">
        <ele>165</ele>
        <time>2021-05-20T13:13:44.120Z</time>
      </trkpt>
      <trkpt lat="48.74485" lon="2.02373">
        <ele>165</ele>
        <time>2021-05-20T13:13:45.120Z</time>
      </trkpt>
      <trkpt lat="48.74485" lon="2.02372">
        <ele>165</ele>
        <time>2021-05-20T13:13:46.120Z</time>
      </trkpt>
      <trkpt lat="48.74485" lon="2.02371">
        <ele>165</ele>
        <time>2021-05-20T13:13:47.120Z</time>
      </trkpt>
      <trkpt lat="48.74486" lon="2.02369">
        <ele>165</ele>
        <time>2021-05-20T13:13:48.120Z</time>
      </trkpt>
      <trkpt lat="48.74487" lon="2.02368">
        <ele>165</ele>
        <time>2021-05-20T13:13:49.120Z</time>
      </trkpt>
      <trkpt lat="48.74487" lon="2.02367">
        <ele>165</ele>
        <time>2021-05-20T13:13:50.120Z</time>
      </trkpt>
      <trkpt lat="48.74487" lon="2.02365">
        <ele>165</ele>
        <time>2021-05-20T13:13:51.120Z</time>
      </trkpt>
      <trkpt lat="48.74488" lon="2.02364">
        <ele>166</ele>
        <time>2021-05-20T13:13:52.120Z</time>
      </trkpt>
      <trkpt lat="48.74488" lon="2.02362">
        <ele>166</ele>
        <time>2021-05-20T13:13:53.120Z</time>
      </trkpt>
      <trkpt lat="48.74489" lon="2.02361">
        <ele>166</ele>
        <time>2021-05-20T13:13:54.120Z</time>
      </trkpt>
      <trkpt lat="48.7449" lon="2.02359">
        <ele>166</ele>
        <time>2021-05-20T13:13:55.120Z</time>
      </trkpt>
      <trkpt lat="48.7449" lon="2.02358">
        <ele>166</ele>
        <time>2021-05-20T13:13:56.120Z</time>
      </trkpt>
      <trkpt lat="48.74491" lon="2.02356">
        <ele>166</ele>
        <time>2021-05-20T13:13:57.120Z</time>
      </trkpt>
      <trkpt lat="48.74492" lon="2.02355">
        <ele>166</ele>
        <time>2021-05-20T13:13:58.120Z</time>
      </trkpt>
      <trkpt lat="48.74493" lon="2.02354">
        <ele>166</ele>
        <time>2021-05-20T13:13:59.120Z</time>
      </trkpt>
      <trkpt lat="48.74493" lon="2.02352">
        <ele>166</ele>
        <time>2021-05-20T13:14:00.120Z</time>
      </trkpt>
      <trkpt lat="48.74494" lon="2.02351">
        <ele>166</ele>
        <time>2021-05-20T13:14:01.120Z</time>
      </trkpt>
      <trkpt lat="48.74495" lon="2.0235">
        <ele>166</ele>
        <time>2021-05-20T13:14:02.120Z</time>
      </trkpt>
      <trkpt lat="48.74496" lon="2.02348">
        <ele>166</ele>
        <time>2021-05-20T13:14:03.120Z</time>
      </trkpt>
      <trkpt lat="48.74497" lon="2.02347">
        <ele>166</ele>
        <time>2021-05-20T13:14:04.120Z</time>
      </trkpt>
      <trkpt lat="48.74498" lon="2.02345">
        <ele>166</ele>
        <time>2021-05-20T13:14:05.120Z</time>
      </trkpt>
      <trkpt lat="48.74499" lon="2.02344">
        <ele>166</ele>
        <time>2021-05-20T13:14:06.120Z</time>
      </trkpt>
      <trkpt lat="48.745" lon="2.02342">
        <ele>166</ele>
        <time>2021-05-20T13:14:07.120Z</time>
      </trkpt>
      <trkpt lat="48.74501" lon="2.02341">
        <ele>166</ele>
        <time>2021-05-20T13:14:08.120Z</time>
      </trkpt>
      <trkpt lat="48.74502" lon="2.02339">
        <ele>166</ele>
        <time>2021-05-20T13:14:09.120Z</time>
      </trkpt>
      <trkpt lat="48.74502" lon="2.02337">
        <ele>166</ele>
        <time>2021-05-20T13:14:10.120Z</time>
      </trkpt>
      <trkpt lat="48.74503" lon="2.02335">
        <ele>165</ele>
        <time>2021-05-20T13:14:11.120Z</time>
      </trkpt>
      <trkpt lat="48.74503" lon="2.02334">
        <ele>165</ele>
        <time>2021-05-20T13:14:12.120Z</time>
      </trkpt>
      <trkpt lat="48.74504" lon="2.02332">
        <ele>165</ele>
        <time>2021-05-20T13:14:13.120Z</time>
      </trkpt>
      <trkpt lat="48.74505" lon="2.02331">
        <ele>165</ele>
        <time>2021-05-20T13:14:14.120Z</time>
      </trkpt>
      <trkpt lat="48.74506" lon="2.02329">
        <ele>165</ele>
        <time>2021-05-20T13:14:15.120Z</time>
      </trkpt>
      <trkpt lat="48.74506" lon="2.02328">
        <ele>164</ele>
        <time>2021-05-20T13:14:16.120Z</time>
      </trkpt>
      <trkpt lat="48.74506" lon="2.02327">
        <ele>164</ele>
        <time>2021-05-20T13:14:17.120Z</time>
      </trkpt>
      <trkpt lat="48.74506" lon="2.02326">
        <ele>164</ele>
        <time>2021-05-20T13:14:18.120Z</time>
      </trkpt>
      <trkpt lat="48.74507" lon="2.02325">
        <ele>164</ele>
        <time>2021-05-20T13:14:19.120Z</time>
      </trkpt>
      <trkpt lat="48.74507" lon="2.02323">
        <ele>163</ele>
        <time>2021-05-20T13:14:20.120Z</time>
      </trkpt>
      <trkpt lat="48.74508" lon="2.02321">
        <ele>163</ele>
        <time>2021-05-20T13:14:21.120Z</time>
      </trkpt>
      <trkpt lat="48.74509" lon="2.0232">
        <ele>163</ele>
        <time>2021-05-20T13:14:22.120Z</time>
      </trkpt>
      <trkpt lat="48.7451" lon="2.02318">
        <ele>163</ele>
        <time>2021-05-20T13:14:23.120Z</time>
      </trkpt>
      <trkpt lat="48.74511" lon="2.02317">
        <ele>162</ele>
        <time>2021-05-20T13:14:24.120Z</time>
      </trkpt>
      <trkpt lat="48.74512" lon="2.02315">
        <ele>162</ele>
        <time>2021-05-20T13:14:25.120Z</time>
      </trkpt>
      <trkpt lat="48.74513" lon="2.02314">
        <ele>162</ele>
        <time>2021-05-20T13:14:26.120Z</time>
      </trkpt>
      <trkpt lat="48.74514" lon="2.02312">
        <ele>162</ele>
        <time>2021-05-20T13:14:27.120Z</time>
      </trkpt>
      <trkpt lat="48.74515" lon="2.02311">
        <ele>161</ele>
        <time>2021-05-20T13:14:28.120Z</time>
      </trkpt>
      <trkpt lat="48.74516" lon="2.02309">
        <ele>161</ele>
        <time>2021-05-20T13:14:29.120Z</time>
      </trkpt>
      <trkpt lat="48.74517" lon="2.02308">
        <ele>161</ele>
        <time>2021-05-20T13:14:30.120Z</time>
      </trkpt>
      <trkpt lat="48.74517" lon="2.02307">
        <ele>161</ele>
        <time>2021-05-20T13:14:31.120Z</time>
      </trkpt>
      <trkpt lat="48.74518" lon="2.02306">
        <ele>161</ele>
        <time>2021-05-20T13:14:32.120Z</time>
      </trkpt>
      <trkpt lat="48.74519" lon="2.02304">
        <ele>161</ele>
        <time>2021-05-20T13:14:33.120Z</time>
      </trkpt>
      <trkpt lat="48.7452" lon="2.02303">
        <ele>160</ele>
        <time>2021-05-20T13:14:34.120Z</time>
      </trkpt>
      <trkpt lat="48.7452" lon="2.02301">
        <ele>160</ele>
        <time>2021-05-20T13:14:35.120Z</time>
      </trkpt>
      <trkpt lat="48.74521" lon="2.023">
        <ele>160</ele>
        <time>2021-05-20T13:14:36.120Z</time>
      </trkpt>
      <trkpt lat="48.74522" lon="2.02298">
        <ele>160</ele>
        <time>2021-05-20T13:14:37.120Z</time>
      </trkpt>
      <trkpt lat="48.74523" lon="2.02296">
        <ele>160</ele>
        <time>2021-05-20T13:14:38.120Z</time>
      </trkpt>
      <trkpt lat="48.74523" lon="2.02294">
        <ele>160</ele>
        <time>2021-05-20T13:14:39.120Z</time>
      </trkpt>
      <trkpt lat="48.74524" lon="2.02293">
        <ele>160</ele>
        <time>2021-05-20T13:14:40.120Z</time>
      </trkpt>
      <trkpt lat="48.74525" lon="2.02292">
        <ele>160</ele>
        <time>2021-05-20T13:14:41.120Z</time>
      </trkpt>
      <trkpt lat="48.74526" lon="2.02291">
        <ele>160</ele>
        <time>2021-05-20T13:14:42.120Z</time>
      </trkpt>
      <trkpt lat="48.74527" lon="2.0229">
        <ele>160</ele>
        <time>2021-05-20T13:14:43.120Z</time>
      </trkpt>
      <trkpt lat="48.74528" lon="2.02289">
        <ele>160</ele>
        <time>2021-05-20T13:14:44.120Z</time>
      </trkpt>
      <trkpt lat="48.74529" lon="2.02287">
        <ele>160</ele>
        <time>2021-05-20T13:14:45.120Z</time>
      </trkpt>
      <trkpt lat="48.7453" lon="2.02286">
        <ele>160</ele>
        <time>2021-05-20T13:14:46.120Z</time>
      </trkpt>
      <trkpt lat="48.7453" lon="2.02285">
        <ele>160</ele>
        <time>2021-05-20T13:14:47.120Z</time>
      </trkpt>
      <trkpt lat="48.74531" lon="2.02284">
        <ele>160</ele>
        <time>2021-05-20T13:14:48.120Z</time>
      </trkpt>
      <trkpt lat="48.74532" lon="2.02283">
        <ele>160</ele>
        <time>2021-05-20T13:14:49.120Z</time>
      </trkpt>
      <trkpt lat="48.74533" lon="2.02282">
        <ele>160</ele>
        <time>2021-05-20T13:14:50.120Z</time>
      </trkpt>
      <trkpt lat="48.74534" lon="2.0228">
        <ele>160</ele>
        <time>2021-05-20T13:14:51.120Z</time>
      </trkpt>
      <trkpt lat="48.74535" lon="2.02279">
        <ele>160</ele>
        <time>2021-05-20T13:14:52.120Z</time>
      </trkpt>
      <trkpt lat="48.74536" lon="2.02278">
        <ele>160</ele>
        <time>2021-05-20T13:14:53.120Z</time>
      </trkpt>
      <trkpt lat="48.74536" lon="2.02277">
        <ele>160</ele>
        <time>2021-05-20T13:14:54.120Z</time>
      </trkpt>
      <trkpt lat="48.74537" lon="2.02276">
        <ele>160</ele>
        <time>2021-05-20T13:14:55.120Z</time>
      </trkpt>
      <trkpt lat="48.74538" lon="2.02274">
        <ele>160</ele>
        <time>2021-05-20T13:14:56.120Z</time>
      </trkpt>
      <trkpt lat="48.74539" lon="2.02272">
        <ele>160</ele>
        <time>2021-05-20T13:14:57.120Z</time>
      </trkpt>
      <trkpt lat="48.74539" lon="2.02271">
        <ele>160</ele>
        <time>2021-05-20T13:14:58.120Z</time>
      </trkpt>
      <trkpt lat="48.7454" lon="2.02269">
        <ele>160</ele>
        <time>2021-05-20T13:14:59.120Z</time>
      </trkpt>
      <trkpt lat="48.74541" lon="2.02268">
        <ele>161</ele>
        <time>2021-05-20T13:15:00.120Z</time>
      </trkpt>
      <trkpt lat="48.74542" lon="2.02267">
        <ele>161</ele>
        <time>2021-05-20T13:15:01.120Z</time>
      </trkpt>
      <trkpt lat="48.74543" lon="2.02266">
        <ele>161</ele>
        <time>2021-05-20T13:15:02.120Z</time>
      </trkpt>
      <trkpt lat="48.74544" lon="2.02265">
        <ele>161</ele>
        <time>2021-05-20T13:15:03.120Z</time>
      </trkpt>
      <trkpt lat="48.74545" lon="2.02263">
        <ele>161</ele>
        <time>2021-05-20T13:15:04.120Z</time>
      </trkpt>
      <trkpt lat="48.74545" lon="2.02262">
        <ele>161</ele>
        <time>2021-05-20T13:15:05.120Z</time>
      </trkpt>
      <trkpt lat="48.74546" lon="2.02261">
        <ele>161</ele>
        <time>2021-05-20T13:15:06.120Z</time>
      </trkpt>
      <trkpt lat="48.74547" lon="2.0226">
        <ele>161</ele>
        <time>2021-05-20T13:15:07.120Z</time>
      </trkpt>
      <trkpt lat="48.74547" lon="2.02259">
        <ele>161</ele>
        <time>2021-05-20T13:15:08.120Z</time>
      </trkpt>
      <trkpt lat="48.74548" lon="2.02258">
        <ele>161</ele>
        <time>2021-05-20T13:15:09.120Z</time>
      </trkpt>
      <trkpt lat="48.74549" lon="2.02256">
        <ele>161</ele>
        <time>2021-05-20T13:15:10.120Z</time>
      </trkpt>
      <trkpt lat="48.7455" lon="2.02255">
        <ele>161</ele>
        <time>2021-05-20T13:15:11.120Z</time>
      </trkpt>
      <trkpt lat="48.7455" lon="2.02254">
        <ele>161</ele>
        <time>2021-05-20T13:15:12.120Z</time>
      </trkpt>
      <trkpt lat="48.74551" lon="2.02253">
        <ele>161</ele>
        <time>2021-05-20T13:15:13.120Z</time>
      </trkpt>
      <trkpt lat="48.74551" lon="2.02252">
        <ele>161</ele>
        <time>2021-05-20T13:15:14.120Z</time>
      </trkpt>
      <trkpt lat="48.74552" lon="2.02251">
        <ele>161</ele>
        <time>2021-05-20T13:15:15.120Z</time>
      </trkpt>
      <trkpt lat="48.74553" lon="2.0225">
        <ele>161</ele>
        <time>2021-05-20T13:15:16.120Z</time>
      </trkpt>
      <trkpt lat="48.74554" lon="2.02248">
        <ele>162</ele>
        <time>2021-05-20T13:15:17.120Z</time>
      </trkpt>
      <trkpt lat="48.74555" lon="2.02247">
        <ele>162</ele>
        <time>2021-05-20T13:15:18.120Z</time>
      </trkpt>
      <trkpt lat="48.74556" lon="2.02246">
        <ele>162</ele>
        <time>2021-05-20T13:15:19.120Z</time>
      </trkpt>
      <trkpt lat="48.74557" lon="2.02245">
        <ele>162</ele>
        <time>2021-05-20T13:15:20.120Z</time>
      </trkpt>
      <trkpt lat="48.74558" lon="2.02244">
        <ele>162</ele>
        <time>2021-05-20T13:15:21.120Z</time>
      </trkpt>
      <trkpt lat="48.74559" lon="2.02243">
        <ele>162</ele>
        <time>2021-05-20T13:15:22.120Z</time>
      </trkpt>
      <trkpt lat="48.7456" lon="2.02242">
        <ele>162</ele>
        <time>2021-05-20T13:15:23.120Z</time>
      </trkpt>
      <trkpt lat="48.74561" lon="2.02241">
        <ele>163</ele>
        <time>2021-05-20T13:15:24.120Z</time>
      </trkpt>
      <trkpt lat="48.74562" lon="2.0224">
        <ele>163</ele>
        <time>2021-05-20T13:15:25.120Z</time>
      </trkpt>
      <trkpt lat="48.74563" lon="2.02239">
        <ele>163</ele>
        <time>2021-05-20T13:15:26.120Z</time>
      </trkpt>
      <trkpt lat="48.74564" lon="2.02238">
        <ele>163</ele>
        <time>2021-05-20T13:15:27.120Z</time>
      </trkpt>
      <trkpt lat="48.74565" lon="2.02237">
        <ele>163</ele>
        <time>2021-05-20T13:15:28.120Z</time>
      </trkpt>
      <trkpt lat="48.74566" lon="2.02236">
        <ele>163</ele>
        <time>2021-05-20T13:15:29.120Z</time>
      </trkpt>
      <trkpt lat="48.74567" lon="2.02235">
        <ele>163</ele>
        <time>2021-05-20T13:15:30.120Z</time>
      </trkpt>
      <trkpt lat="48.74568" lon="2.02234">
        <ele>163</ele>
        <time>2021-05-20T13:15:31.120Z</time>
      </trkpt>
      <trkpt lat="48.74569" lon="2.02233">
        <ele>163</ele>
        <time>2021-05-20T13:15:32.120Z</time>
      </trkpt>
      <trkpt lat="48.7457" lon="2.02232">
        <ele>163</ele>
        <time>2021-05-20T13:15:33.120Z</time>
      </trkpt>
      <trkpt lat="48.74571" lon="2.02231">
        <ele>164</ele>
        <time>2021-05-20T13:15:34.120Z</time>
      </trkpt>
      <trkpt lat="48.74571" lon="2.0223">
        <ele>164</ele>
        <time>2021-05-20T13:15:35.120Z</time>
      </trkpt>
      <trkpt lat="48.74572" lon="2.02229">
        <ele>164</ele>
        <time>2021-05-20T13:15:36.120Z</time>
      </trkpt>
      <trkpt lat="48.74573" lon="2.02228">
        <ele>164</ele>
        <time>2021-05-20T13:15:37.120Z</time>
      </trkpt>
      <trkpt lat="48.74574" lon="2.02227">
        <ele>164</ele>
        <time>2021-05-20T13:15:38.120Z</time>
      </trkpt>
      <trkpt lat="48.74576" lon="2.02226">
        <ele>164</ele>
        <time>2021-05-20T13:15:39.120Z</time>
      </trkpt>
      <trkpt lat="48.74577" lon="2.02226">
        <ele>164</ele>
        <time>2021-05-20T13:15:40.120Z</time>
      </trkpt>
      <trkpt lat="48.74578" lon="2.02225">
        <ele>164</ele>
        <time>2021-05-20T13:15:41.120Z</time>
      </trkpt>
      <trkpt lat="48.74579" lon="2.02225">
        <ele>164</ele>
        <time>2021-05-20T13:15:42.120Z</time>
      </trkpt>
      <trkpt lat="48.7458" lon="2.02224">
        <ele>164</ele>
        <time>2021-05-20T13:15:43.120Z</time>
      </trkpt>
      <trkpt lat="48.74581" lon="2.02223">
        <ele>164</ele>
        <time>2021-05-20T13:15:44.120Z</time>
      </trkpt>
      <trkpt lat="48.74582" lon="2.02222">
        <ele>164</ele>
        <time>2021-05-20T13:15:45.120Z</time>
      </trkpt>
      <trkpt lat="48.74583" lon="2.02221">
        <ele>164</ele>
        <time>2021-05-20T13:15:46.120Z</time>
      </trkpt>
      <trkpt lat="48.74583" lon="2.0222">
        <ele>165</ele>
        <time>2021-05-20T13:15:47.120Z</time>
      </trkpt>
      <trkpt lat="48.74584" lon="2.0222">
        <ele>165</ele>
        <time>2021-05-20T13:15:48.120Z</time>
      </trkpt>
      <trkpt lat="48.74585" lon="2.02219">
        <ele>164</ele>
        <time>2021-05-20T13:15:49.120Z</time>
      </trkpt>
      <trkpt lat="48.74586" lon="2.02218">
        <ele>164</ele>
        <time>2021-05-20T13:15:50.120Z</time>
      </trkpt>
      <trkpt lat="48.74587" lon="2.02217">
        <ele>164</ele>
        <time>2021-05-20T13:15:51.120Z</time>
      </trkpt>
      <trkpt lat="48.74588" lon="2.02216">
        <ele>164</ele>
        <time>2021-05-20T13:15:52.120Z</time>
      </trkpt>
      <trkpt lat="48.74589" lon="2.02214">
        <ele>164</ele>
        <time>2021-05-20T13:15:53.120Z</time>
      </trkpt>
      <trkpt lat="48.7459" lon="2.02213">
        <ele>164</ele>
        <time>2021-05-20T13:15:54.120Z</time>
      </trkpt>
      <trkpt lat="48.74591" lon="2.02212">
        <ele>164</ele>
        <time>2021-05-20T13:15:55.120Z</time>
      </trkpt>
      <trkpt lat="48.74592" lon="2.02211">
        <ele>164</ele>
        <time>2021-05-20T13:15:56.120Z</time>
      </trkpt>
      <trkpt lat="48.74593" lon="2.0221">
        <ele>164</ele>
        <time>2021-05-20T13:15:57.120Z</time>
      </trkpt>
      <trkpt lat="48.74593" lon="2.02209">
        <ele>163</ele>
        <time>2021-05-20T13:15:58.120Z</time>
      </trkpt>
      <trkpt lat="48.74594" lon="2.02208">
        <ele>163</ele>
        <time>2021-05-20T13:15:59.120Z</time>
      </trkpt>
      <trkpt lat="48.74596" lon="2.02206">
        <ele>163</ele>
        <time>2021-05-20T13:16:00.120Z</time>
      </trkpt>
      <trkpt lat="48.74597" lon="2.02205">
        <ele>162</ele>
        <time>2021-05-20T13:16:01.120Z</time>
      </trkpt>
      <trkpt lat="48.74598" lon="2.02203">
        <ele>162</ele>
        <time>2021-05-20T13:16:02.120Z</time>
      </trkpt>
      <trkpt lat="48.74599" lon="2.02202">
        <ele>162</ele>
        <time>2021-05-20T13:16:03.120Z</time>
      </trkpt>
      <trkpt lat="48.746" lon="2.02201">
        <ele>162</ele>
        <time>2021-05-20T13:16:04.120Z</time>
      </trkpt>
      <trkpt lat="48.74601" lon="2.022">
        <ele>162</ele>
        <time>2021-05-20T13:16:05.120Z</time>
      </trkpt>
      <trkpt lat="48.74602" lon="2.02198">
        <ele>162</ele>
        <time>2021-05-20T13:16:06.120Z</time>
      </trkpt>
      <trkpt lat="48.74603" lon="2.02197">
        <ele>162</ele>
        <time>2021-05-20T13:16:07.120Z</time>
      </trkpt>
      <trkpt lat="48.74604" lon="2.02195">
        <ele>162</ele>
        <time>2021-05-20T13:16:08.120Z</time>
      </trkpt>
      <trkpt lat="48.74605" lon="2.02194">
        <ele>161</ele>
        <time>2021-05-20T13:16:09.120Z</time>
      </trkpt>
      <trkpt lat="48.74606" lon="2.02193">
        <ele>161</ele>
        <time>2021-05-20T13:16:10.120Z</time>
      </trkpt>
      <trkpt lat="48.74607" lon="2.02191">
        <ele>161</ele>
        <time>2021-05-20T13:16:11.120Z</time>
      </trkpt>
      <trkpt lat="48.74608" lon="2.0219">
        <ele>161</ele>
        <time>2021-05-20T13:16:12.120Z</time>
      </trkpt>
      <trkpt lat="48.74609" lon="2.02189">
        <ele>161</ele>
        <time>2021-05-20T13:16:13.120Z</time>
      </trkpt>
      <trkpt lat="48.7461" lon="2.02187">
        <ele>161</ele>
        <time>2021-05-20T13:16:14.120Z</time>
      </trkpt>
      <trkpt lat="48.74611" lon="2.02186">
        <ele>161</ele>
        <time>2021-05-20T13:16:15.120Z</time>
      </trkpt>
      <trkpt lat="48.74612" lon="2.02185">
        <ele>161</ele>
        <time>2021-05-20T13:16:16.120Z</time>
      </trkpt>
      <trkpt lat="48.74613" lon="2.02184">
        <ele>161</ele>
        <time>2021-05-20T13:16:17.120Z</time>
      </trkpt>
      <trkpt lat="48.74614" lon="2.02183">
        <ele>161</ele>
        <time>2021-05-20T13:16:18.120Z</time>
      </trkpt>
      <trkpt lat="48.74615" lon="2.02183">
        <ele>161</ele>
        <time>2021-05-20T13:16:19.120Z</time>
      </trkpt>
      <trkpt lat="48.74616" lon="2.02183">
        <ele>161</ele>
        <time>2021-05-20T13:16:20.120Z</time>
      </trkpt>
      <trkpt lat="48.74617" lon="2.02184">
        <ele>161</ele>
        <time>2021-05-20T13:16:21.120Z</time>
      </trkpt>
      <trkpt lat="48.74617" lon="2.02186">
        <ele>161</ele>
        <time>2021-05-20T13:16:22.120Z</time>
      </trkpt>
      <trkpt lat="48.74618" lon="2.02188">
        <ele>161</ele>
        <time>2021-05-20T13:16:23.120Z</time>
      </trkpt>
      <trkpt lat="48.74618" lon="2.02189">
        <ele>161</ele>
        <time>2021-05-20T13:16:24.120Z</time>
      </trkpt>
      <trkpt lat="48.74619" lon="2.02191">
        <ele>162</ele>
        <time>2021-05-20T13:16:25.120Z</time>
      </trkpt>
      <trkpt lat="48.74619" lon="2.02192">
        <ele>162</ele>
        <time>2021-05-20T13:16:26.120Z</time>
      </trkpt>
      <trkpt lat="48.7462" lon="2.02194">
        <ele>162</ele>
        <time>2021-05-20T13:16:27.120Z</time>
      </trkpt>
      <trkpt lat="48.7462" lon="2.02195">
        <ele>162</ele>
        <time>2021-05-20T13:16:28.120Z</time>
      </trkpt>
      <trkpt lat="48.74621" lon="2.02197">
        <ele>162</ele>
        <time>2021-05-20T13:16:29.120Z</time>
      </trkpt>
      <trkpt lat="48.74622" lon="2.02198">
        <ele>162</ele>
        <time>2021-05-20T13:16:30.120Z</time>
      </trkpt>
      <trkpt lat="48.74622" lon="2.02199">
        <ele>162</ele>
        <time>2021-05-20T13:16:31.120Z</time>
      </trkpt>
      <trkpt lat="48.74623" lon="2.022">
        <ele>162</ele>
        <time>2021-05-20T13:16:32.120Z</time>
      </trkpt>
      <trkpt lat="48.74623" lon="2.02202">
        <ele>162</ele>
        <time>2021-05-20T13:16:33.120Z</time>
      </trkpt>
      <trkpt lat="48.74624" lon="2.02203">
        <ele>162</ele>
        <time>2021-05-20T13:16:34.120Z</time>
      </trkpt>
      <trkpt lat="48.74624" lon="2.02205">
        <ele>162</ele>
        <time>2021-05-20T13:16:35.120Z</time>
      </trkpt>
      <trkpt lat="48.74625" lon="2.02207">
        <ele>162</ele>
        <time>2021-05-20T13:16:36.120Z</time>
      </trkpt>
      <trkpt lat="48.74626" lon="2.02209">
        <ele>162</ele>
        <time>2021-05-20T13:16:37.120Z</time>
      </trkpt>
      <trkpt lat="48.74626" lon="2.0221">
        <ele>162</ele>
        <time>2021-05-20T13:16:38.120Z</time>
      </trkpt>
      <trkpt lat="48.74627" lon="2.02212">
        <ele>162</ele>
        <time>2021-05-20T13:16:39.120Z</time>
      </trkpt>
      <trkpt lat="48.74627" lon="2.02213">
        <ele>162</ele>
        <time>2021-05-20T13:16:40.120Z</time>
      </trkpt>
      <trkpt lat="48.74628" lon="2.02215">
        <ele>162</ele>
        <time>2021-05-20T13:16:41.120Z</time>
      </trkpt>
      <trkpt lat="48.74628" lon="2.02217">
        <ele>162</ele>
        <time>2021-05-20T13:16:42.120Z</time>
      </trkpt>
      <trkpt lat="48.74629" lon="2.02219">
        <ele>162</ele>
        <time>2021-05-20T13:16:43.120Z</time>
      </trkpt>
      <trkpt lat="48.74629" lon="2.02221">
        <ele>162</ele>
        <time>2021-05-20T13:16:44.120Z</time>
      </trkpt>
      <trkpt lat="48.7463" lon="2.02222">
        <ele>162</ele>
        <time>2021-05-20T13:16:45.120Z</time>
      </trkpt>
      <trkpt lat="48.7463" lon="2.02224">
        <ele>163</ele>
        <time>2021-05-20T13:16:46.120Z</time>
      </trkpt>
      <trkpt lat="48.7463" lon="2.02225">
        <ele>163</ele>
        <time>2021-05-20T13:16:47.120Z</time>
      </trkpt>
      <trkpt lat="48.7463" lon="2.02225">
        <ele>163</ele>
        <time>2021-05-20T13:16:48.120Z</time>
      </trkpt>
      <trkpt lat="48.7463" lon="2.02226">
        <ele>163</ele>
        <time>2021-05-20T13:16:49.120Z</time>
      </trkpt>
      <trkpt lat="48.7463" lon="2.02226">
        <ele>163</ele>
        <time>2021-05-20T13:16:50.120Z</time>
      </trkpt>
      <trkpt lat="48.74631" lon="2.02226">
        <ele>163</ele>
        <time>2021-05-20T13:16:51.120Z</time>
      </trkpt>
      <trkpt lat="48.74632" lon="2.02226">
        <ele>163</ele>
        <time>2021-05-20T13:16:52.120Z</time>
      </trkpt>
      <trkpt lat="48.74633" lon="2.02226">
        <ele>164</ele>
        <time>2021-05-20T13:16:53.120Z</time>
      </trkpt>
      <trkpt lat="48.74633" lon="2.02225">
        <ele>164</ele>
        <time>2021-05-20T13:16:54.120Z</time>
      </trkpt>
      <trkpt lat="48.74634" lon="2.02224">
        <ele>164</ele>
        <time>2021-05-20T13:16:55.120Z</time>
      </trkpt>
      <trkpt lat="48.74635" lon="2.02223">
        <ele>164</ele>
        <time>2021-05-20T13:16:56.120Z</time>
      </trkpt>
      <trkpt lat="48.74636" lon="2.02222">
        <ele>164</ele>
        <time>2021-05-20T13:16:57.120Z</time>
      </trkpt>
      <trkpt lat="48.74636" lon="2.02221">
        <ele>164</ele>
        <time>2021-05-20T13:16:58.120Z</time>
      </trkpt>
      <trkpt lat="48.74637" lon="2.0222">
        <ele>164</ele>
        <time>2021-05-20T13:16:59.120Z</time>
      </trkpt>
      <trkpt lat="48.74638" lon="2.02218">
        <ele>164</ele>
        <time>2021-05-20T13:17:00.120Z</time>
      </trkpt>
      <trkpt lat="48.74638" lon="2.02217">
        <ele>164</ele>
        <time>2021-05-20T13:17:01.120Z</time>
      </trkpt>
      <trkpt lat="48.74639" lon="2.02216">
        <ele>164</ele>
        <time>2021-05-20T13:17:02.120Z</time>
      </trkpt>
      <trkpt lat="48.74639" lon="2.02214">
        <ele>164</ele>
        <time>2021-05-20T13:17:03.120Z</time>
      </trkpt>
      <trkpt lat="48.7464" lon="2.02213">
        <ele>164</ele>
        <time>2021-05-20T13:17:04.120Z</time>
      </trkpt>
      <trkpt lat="48.7464" lon="2.02212">
        <ele>164</ele>
        <time>2021-05-20T13:17:05.120Z</time>
      </trkpt>
      <trkpt lat="48.74641" lon="2.02211">
        <ele>164</ele>
        <time>2021-05-20T13:17:06.120Z</time>
      </trkpt>
      <trkpt lat="48.74641" lon="2.0221">
        <ele>164</ele>
        <time>2021-05-20T13:17:07.120Z</time>
      </trkpt>
      <trkpt lat="48.74642" lon="2.02209">
        <ele>165</ele>
        <time>2021-05-20T13:17:08.120Z</time>
      </trkpt>
      <trkpt lat="48.74642" lon="2.02207">
        <ele>165</ele>
        <time>2021-05-20T13:17:09.120Z</time>
      </trkpt>
      <trkpt lat="48.74643" lon="2.02206">
        <ele>165</ele>
        <time>2021-05-20T13:17:10.120Z</time>
      </trkpt>
      <trkpt lat="48.74643" lon="2.02205">
        <ele>165</ele>
        <time>2021-05-20T13:17:11.120Z</time>
      </trkpt>
      <trkpt lat="48.74644" lon="2.02204">
        <ele>165</ele>
        <time>2021-05-20T13:17:12.120Z</time>
      </trkpt>
      <trkpt lat="48.74644" lon="2.02203">
        <ele>165</ele>
        <time>2021-05-20T13:17:13.120Z</time>
      </trkpt>
      <trkpt lat="48.74645" lon="2.02202">
        <ele>165</ele>
        <time>2021-05-20T13:17:14.120Z</time>
      </trkpt>
      <trkpt lat="48.74645" lon="2.022">
        <ele>165</ele>
        <time>2021-05-20T13:17:15.120Z</time>
      </trkpt>
      <trkpt lat="48.74646" lon="2.02199">
        <ele>165</ele>
        <time>2021-05-20T13:17:16.120Z</time>
      </trkpt>
      <trkpt lat="48.74646" lon="2.02198">
        <ele>164</ele>
        <time>2021-05-20T13:17:17.120Z</time>
      </trkpt>
      <trkpt lat="48.74646" lon="2.02197">
        <ele>164</ele>
        <time>2021-05-20T13:17:18.120Z</time>
      </trkpt>
      <trkpt lat="48.74646" lon="2.02196">
        <ele>164</ele>
        <time>2021-05-20T13:17:19.120Z</time>
      </trkpt>
      <trkpt lat="48.74646" lon="2.02195">
        <ele>164</ele>
        <time>2021-05-20T13:17:20.120Z</time>
      </trkpt>
      <trkpt lat="48.74647" lon="2.02194">
        <ele>164</ele>
        <time>2021-05-20T13:17:21.120Z</time>
      </trkpt>
      <trkpt lat="48.74647" lon="2.02193">
        <ele>164</ele>
        <time>2021-05-20T13:17:22.120Z</time>
      </trkpt>
      <trkpt lat="48.74647" lon="2.02191">
        <ele>164</ele>
        <time>2021-05-20T13:17:23.120Z</time>
      </trkpt>
      <trkpt lat="48.74648" lon="2.0219">
        <ele>164</ele>
        <time>2021-05-20T13:17:24.120Z</time>
      </trkpt>
      <trkpt lat="48.74648" lon="2.02188">
        <ele>164</ele>
        <time>2021-05-20T13:17:25.120Z</time>
      </trkpt>
      <trkpt lat="48.74648" lon="2.02187">
        <ele>164</ele>
        <time>2021-05-20T13:17:26.120Z</time>
      </trkpt>
      <trkpt lat="48.74649" lon="2.02186">
        <ele>164</ele>
        <time>2021-05-20T13:17:27.120Z</time>
      </trkpt>
      <trkpt lat="48.74649" lon="2.02184">
        <ele>164</ele>
        <time>2021-05-20T13:17:28.120Z</time>
      </trkpt>
      <trkpt lat="48.7465" lon="2.02183">
        <ele>164</ele>
        <time>2021-05-20T13:17:29.120Z</time>
      </trkpt>
      <trkpt lat="48.74651" lon="2.02181">
        <ele>164</ele>
        <time>2021-05-20T13:17:30.120Z</time>
      </trkpt>
      <trkpt lat="48.74651" lon="2.0218">
        <ele>164</ele>
        <time>2021-05-20T13:17:31.120Z</time>
      </trkpt>
      <trkpt lat="48.74652" lon="2.02179">
        <ele>164</ele>
        <time>2021-05-20T13:17:32.120Z</time>
      </trkpt>
      <trkpt lat="48.74652" lon="2.02177">
        <ele>164</ele>
        <time>2021-05-20T13:17:33.120Z</time>
      </trkpt>
      <trkpt lat="48.74653" lon="2.02176">
        <ele>164</ele>
        <time>2021-05-20T13:17:34.120Z</time>
      </trkpt>
      <trkpt lat="48.74653" lon="2.02175">
        <ele>164</ele>
        <time>2021-05-20T13:17:35.120Z</time>
      </trkpt>
      <trkpt lat="48.74654" lon="2.02174">
        <ele>164</ele>
        <time>2021-05-20T13:17:36.120Z</time>
      </trkpt>
      <trkpt lat="48.74654" lon="2.02173">
        <ele>164</ele>
        <time>2021-05-20T13:17:37.120Z</time>
      </trkpt>
      <trkpt lat="48.74655" lon="2.02172">
        <ele>164</ele>
        <time>2021-05-20T13:17:38.120Z</time>
      </trkpt>
      <trkpt lat="48.74655" lon="2.0217">
        <ele>164</ele>
        <time>2021-05-20T13:17:46.095Z</time>
      </trkpt>
      <trkpt lat="48.74656" lon="2.02169">
        <ele>164</ele>
        <time>2021-05-20T13:17:47.095Z</time>
      </trkpt>
      <trkpt lat="48.74656" lon="2.02168">
        <ele>164</ele>
        <time>2021-05-20T13:17:48.095Z</time>
      </trkpt>
      <trkpt lat="48.74657" lon="2.02167">
        <ele>164</ele>
        <time>2021-05-20T13:17:49.095Z</time>
      </trkpt>
      <trkpt lat="48.74657" lon="2.02166">
        <ele>164</ele>
        <time>2021-05-20T13:17:50.095Z</time>
      </trkpt>
      <trkpt lat="48.74658" lon="2.02165">
        <ele>164</ele>
        <time>2021-05-20T13:17:51.095Z</time>
      </trkpt>
      <trkpt lat="48.74658" lon="2.02164">
        <ele>164</ele>
        <time>2021-05-20T13:17:52.095Z</time>
      </trkpt>
      <trkpt lat="48.74659" lon="2.02164">
        <ele>164</ele>
        <time>2021-05-20T13:17:53.095Z</time>
      </trkpt>
      <trkpt lat="48.7466" lon="2.02163">
        <ele>164</ele>
        <time>2021-05-20T13:17:54.095Z</time>
      </trkpt>
      <trkpt lat="48.7466" lon="2.02163">
        <ele>164</ele>
        <time>2021-05-20T13:17:55.095Z</time>
      </trkpt>
      <trkpt lat="48.7466" lon="2.02163">
        <ele>164</ele>
        <time>2021-05-20T13:17:56.095Z</time>
      </trkpt>
      <trkpt lat="48.7466" lon="2.02158">
        <ele>164</ele>
        <time>2021-05-20T13:17:57.095Z</time>
      </trkpt>
      <trkpt lat="48.7466" lon="2.02157">
        <ele>164</ele>
        <time>2021-05-20T13:17:58.095Z</time>
      </trkpt>
      <trkpt lat="48.74661" lon="2.02156">
        <ele>164</ele>
        <time>2021-05-20T13:17:59.095Z</time>
      </trkpt>
      <trkpt lat="48.74661" lon="2.02155">
        <ele>164</ele>
        <time>2021-05-20T13:18:00.095Z</time>
      </trkpt>
      <trkpt lat="48.74661" lon="2.02155">
        <ele>164</ele>
        <time>2021-05-20T13:18:01.095Z</time>
      </trkpt>
      <trkpt lat="48.74661" lon="2.02155">
        <ele>164</ele>
        <time>2021-05-20T13:18:02.095Z</time>
      </trkpt>
      <trkpt lat="48.74664" lon="2.0215">
        <ele>163</ele>
        <time>2021-05-20T13:18:03.095Z</time>
      </trkpt>
      <trkpt lat="48.74665" lon="2.02148">
        <ele>163</ele>
        <time>2021-05-20T13:18:04.095Z</time>
      </trkpt>
      <trkpt lat="48.74665" lon="2.02147">
        <ele>163</ele>
        <time>2021-05-20T13:18:05.095Z</time>
      </trkpt>
      <trkpt lat="48.74666" lon="2.02145">
        <ele>163</ele>
        <time>2021-05-20T13:18:06.095Z</time>
      </trkpt>
      <trkpt lat="48.74667" lon="2.02143">
        <ele>163</ele>
        <time>2021-05-20T13:18:07.095Z</time>
      </trkpt>
      <trkpt lat="48.74668" lon="2.0214">
        <ele>163</ele>
        <time>2021-05-20T13:18:08.095Z</time>
      </trkpt>
      <trkpt lat="48.74669" lon="2.02138">
        <ele>163</ele>
        <time>2021-05-20T13:18:09.095Z</time>
      </trkpt>
      <trkpt lat="48.7467" lon="2.02136">
        <ele>162</ele>
        <time>2021-05-20T13:18:10.095Z</time>
      </trkpt>
      <trkpt lat="48.7467" lon="2.02133">
        <ele>162</ele>
        <time>2021-05-20T13:18:11.095Z</time>
      </trkpt>
      <trkpt lat="48.74671" lon="2.0213">
        <ele>163</ele>
        <time>2021-05-20T13:18:12.095Z</time>
      </trkpt>
      <trkpt lat="48.74672" lon="2.02128">
        <ele>163</ele>
        <time>2021-05-20T13:18:13.095Z</time>
      </trkpt>
      <trkpt lat="48.74673" lon="2.02125">
        <ele>163</ele>
        <time>2021-05-20T13:18:14.095Z</time>
      </trkpt>
      <trkpt lat="48.74673" lon="2.02123">
        <ele>163</ele>
        <time>2021-05-20T13:18:15.095Z</time>
      </trkpt>
      <trkpt lat="48.74674" lon="2.02121">
        <ele>163</ele>
        <time>2021-05-20T13:18:16.095Z</time>
      </trkpt>
      <trkpt lat="48.74675" lon="2.02119">
        <ele>163</ele>
        <time>2021-05-20T13:18:17.095Z</time>
      </trkpt>
      <trkpt lat="48.74676" lon="2.02116">
        <ele>163</ele>
        <time>2021-05-20T13:18:18.095Z</time>
      </trkpt>
      <trkpt lat="48.74676" lon="2.02114">
        <ele>163</ele>
        <time>2021-05-20T13:18:19.095Z</time>
      </trkpt>
      <trkpt lat="48.74677" lon="2.02111">
        <ele>163</ele>
        <time>2021-05-20T13:18:20.095Z</time>
      </trkpt>
      <trkpt lat="48.74678" lon="2.02109">
        <ele>163</ele>
        <time>2021-05-20T13:18:21.095Z</time>
      </trkpt>
      <trkpt lat="48.74679" lon="2.02107">
        <ele>163</ele>
        <time>2021-05-20T13:18:22.095Z</time>
      </trkpt>
      <trkpt lat="48.7468" lon="2.02104">
        <ele>163</ele>
        <time>2021-05-20T13:18:23.095Z</time>
      </trkpt>
      <trkpt lat="48.7468" lon="2.02102">
        <ele>163</ele>
        <time>2021-05-20T13:18:24.095Z</time>
      </trkpt>
      <trkpt lat="48.74681" lon="2.02099">
        <ele>164</ele>
        <time>2021-05-20T13:18:25.095Z</time>
      </trkpt>
      <trkpt lat="48.74682" lon="2.02096">
        <ele>164</ele>
        <time>2021-05-20T13:18:26.095Z</time>
      </trkpt>
      <trkpt lat="48.74682" lon="2.02093">
        <ele>164</ele>
        <time>2021-05-20T13:18:27.095Z</time>
      </trkpt>
      <trkpt lat="48.74683" lon="2.02091">
        <ele>164</ele>
        <time>2021-05-20T13:18:28.095Z</time>
      </trkpt>
      <trkpt lat="48.74684" lon="2.02088">
        <ele>164</ele>
        <time>2021-05-20T13:18:29.095Z</time>
      </trkpt>
      <trkpt lat="48.74685" lon="2.02086">
        <ele>164</ele>
        <time>2021-05-20T13:18:30.095Z</time>
      </trkpt>
      <trkpt lat="48.74686" lon="2.02083">
        <ele>164</ele>
        <time>2021-05-20T13:18:31.095Z</time>
      </trkpt>
      <trkpt lat="48.74687" lon="2.0208">
        <ele>164</ele>
        <time>2021-05-20T13:18:32.095Z</time>
      </trkpt>
      <trkpt lat="48.74688" lon="2.02077">
        <ele>164</ele>
        <time>2021-05-20T13:18:33.095Z</time>
      </trkpt>
      <trkpt lat="48.74689" lon="2.02075">
        <ele>164</ele>
        <time>2021-05-20T13:18:34.095Z</time>
      </trkpt>
      <trkpt lat="48.7469" lon="2.02072">
        <ele>164</ele>
        <time>2021-05-20T13:18:35.095Z</time>
      </trkpt>
      <trkpt lat="48.74691" lon="2.02069">
        <ele>164</ele>
        <time>2021-05-20T13:18:36.095Z</time>
      </trkpt>
      <trkpt lat="48.74692" lon="2.02066">
        <ele>164</ele>
        <time>2021-05-20T13:18:37.095Z</time>
      </trkpt>
      <trkpt lat="48.74693" lon="2.02063">
        <ele>164</ele>
        <time>2021-05-20T13:18:38.095Z</time>
      </trkpt>
      <trkpt lat="48.74694" lon="2.0206">
        <ele>164</ele>
        <time>2021-05-20T13:18:39.095Z</time>
      </trkpt>
      <trkpt lat="48.74695" lon="2.02057">
        <ele>163</ele>
        <time>2021-05-20T13:18:40.095Z</time>
      </trkpt>
      <trkpt lat="48.74695" lon="2.02054">
        <ele>163</ele>
        <time>2021-05-20T13:18:41.095Z</time>
      </trkpt>
      <trkpt lat="48.74697" lon="2.02052">
        <ele>163</ele>
        <time>2021-05-20T13:18:42.095Z</time>
      </trkpt>
      <trkpt lat="48.74698" lon="2.02048">
        <ele>163</ele>
        <time>2021-05-20T13:18:43.095Z</time>
      </trkpt>
      <trkpt lat="48.74699" lon="2.02045">
        <ele>163</ele>
        <time>2021-05-20T13:18:44.095Z</time>
      </trkpt>
      <trkpt lat="48.74701" lon="2.02042">
        <ele>163</ele>
        <time>2021-05-20T13:18:45.095Z</time>
      </trkpt>
      <trkpt lat="48.74702" lon="2.02039">
        <ele>163</ele>
        <time>2021-05-20T13:18:46.095Z</time>
      </trkpt>
      <trkpt lat="48.74703" lon="2.02035">
        <ele>164</ele>
        <time>2021-05-20T13:18:47.095Z</time>
      </trkpt>
      <trkpt lat="48.74704" lon="2.02032">
        <ele>164</ele>
        <time>2021-05-20T13:18:48.095Z</time>
      </trkpt>
      <trkpt lat="48.74706" lon="2.0203">
        <ele>164</ele>
        <time>2021-05-20T13:18:49.095Z</time>
      </trkpt>
      <trkpt lat="48.74707" lon="2.02027">
        <ele>164</ele>
        <time>2021-05-20T13:18:50.095Z</time>
      </trkpt>
      <trkpt lat="48.74708" lon="2.02024">
        <ele>164</ele>
        <time>2021-05-20T13:18:51.095Z</time>
      </trkpt>
      <trkpt lat="48.74709" lon="2.02022">
        <ele>164</ele>
        <time>2021-05-20T13:18:52.095Z</time>
      </trkpt>
      <trkpt lat="48.7471" lon="2.02019">
        <ele>164</ele>
        <time>2021-05-20T13:18:53.095Z</time>
      </trkpt>
      <trkpt lat="48.74711" lon="2.02016">
        <ele>164</ele>
        <time>2021-05-20T13:18:54.095Z</time>
      </trkpt>
      <trkpt lat="48.74712" lon="2.02013">
        <ele>164</ele>
        <time>2021-05-20T13:18:55.095Z</time>
      </trkpt>
      <trkpt lat="48.74714" lon="2.0201">
        <ele>164</ele>
        <time>2021-05-20T13:18:56.095Z</time>
      </trkpt>
      <trkpt lat="48.74715" lon="2.02008">
        <ele>164</ele>
        <time>2021-05-20T13:18:57.095Z</time>
      </trkpt>
      <trkpt lat="48.74716" lon="2.02005">
        <ele>164</ele>
        <time>2021-05-20T13:18:58.095Z</time>
      </trkpt>
      <trkpt lat="48.74717" lon="2.02002">
        <ele>164</ele>
        <time>2021-05-20T13:18:59.095Z</time>
      </trkpt>
      <trkpt lat="48.74718" lon="2.02">
        <ele>164</ele>
        <time>2021-05-20T13:19:00.095Z</time>
      </trkpt>
      <trkpt lat="48.74719" lon="2.01997">
        <ele>164</ele>
        <time>2021-05-20T13:19:01.095Z</time>
      </trkpt>
      <trkpt lat="48.7472" lon="2.01995">
        <ele>164</ele>
        <time>2021-05-20T13:19:02.095Z</time>
      </trkpt>
      <trkpt lat="48.74721" lon="2.01993">
        <ele>164</ele>
        <time>2021-05-20T13:19:03.095Z</time>
      </trkpt>
      <trkpt lat="48.74722" lon="2.01991">
        <ele>164</ele>
        <time>2021-05-20T13:19:04.095Z</time>
      </trkpt>
      <trkpt lat="48.74722" lon="2.0199">
        <ele>164</ele>
        <time>2021-05-20T13:19:05.095Z</time>
      </trkpt>
      <trkpt lat="48.74723" lon="2.01988">
        <ele>164</ele>
        <time>2021-05-20T13:19:06.095Z</time>
      </trkpt>
      <trkpt lat="48.74723" lon="2.01986">
        <ele>164</ele>
        <time>2021-05-20T13:19:07.095Z</time>
      </trkpt>
      <trkpt lat="48.74724" lon="2.01984">
        <ele>165</ele>
        <time>2021-05-20T13:19:08.095Z</time>
      </trkpt>
      <trkpt lat="48.74724" lon="2.01982">
        <ele>165</ele>
        <time>2021-05-20T13:19:09.095Z</time>
      </trkpt>
      <trkpt lat="48.74725" lon="2.01979">
        <ele>165</ele>
        <time>2021-05-20T13:19:10.095Z</time>
      </trkpt>
      <trkpt lat="48.74725" lon="2.01977">
        <ele>165</ele>
        <time>2021-05-20T13:19:11.095Z</time>
      </trkpt>
      <trkpt lat="48.74725" lon="2.01975">
        <ele>165</ele>
        <time>2021-05-20T13:19:12.095Z</time>
      </trkpt>
      <trkpt lat="48.74726" lon="2.01974">
        <ele>165</ele>
        <time>2021-05-20T13:19:13.095Z</time>
      </trkpt>
      <trkpt lat="48.74726" lon="2.01972">
        <ele>165</ele>
        <time>2021-05-20T13:19:14.095Z</time>
      </trkpt>
      <trkpt lat="48.74727" lon="2.0197">
        <ele>165</ele>
        <time>2021-05-20T13:19:15.095Z</time>
      </trkpt>
      <trkpt lat="48.74727" lon="2.01969">
        <ele>165</ele>
        <time>2021-05-20T13:19:16.095Z</time>
      </trkpt>
      <trkpt lat="48.74728" lon="2.01967">
        <ele>165</ele>
        <time>2021-05-20T13:19:17.095Z</time>
      </trkpt>
      <trkpt lat="48.74728" lon="2.01965">
        <ele>165</ele>
        <time>2021-05-20T13:19:18.095Z</time>
      </trkpt>
      <trkpt lat="48.74729" lon="2.01964">
        <ele>165</ele>
        <time>2021-05-20T13:19:19.095Z</time>
      </trkpt>
      <trkpt lat="48.74729" lon="2.01962">
        <ele>165</ele>
        <time>2021-05-20T13:19:20.095Z</time>
      </trkpt>
      <trkpt lat="48.7473" lon="2.01961">
        <ele>165</ele>
        <time>2021-05-20T13:19:21.095Z</time>
      </trkpt>
      <trkpt lat="48.7473" lon="2.01959">
        <ele>165</ele>
        <time>2021-05-20T13:19:22.095Z</time>
      </trkpt>
      <trkpt lat="48.74731" lon="2.01958">
        <ele>165</ele>
        <time>2021-05-20T13:19:23.095Z</time>
      </trkpt>
      <trkpt lat="48.74732" lon="2.01956">
        <ele>165</ele>
        <time>2021-05-20T13:19:24.095Z</time>
      </trkpt>
      <trkpt lat="48.74732" lon="2.01955">
        <ele>165</ele>
        <time>2021-05-20T13:19:25.095Z</time>
      </trkpt>
      <trkpt lat="48.74733" lon="2.01953">
        <ele>165</ele>
        <time>2021-05-20T13:19:26.095Z</time>
      </trkpt>
      <trkpt lat="48.74733" lon="2.01951">
        <ele>165</ele>
        <time>2021-05-20T13:19:27.095Z</time>
      </trkpt>
      <trkpt lat="48.74734" lon="2.01949">
        <ele>165</ele>
        <time>2021-05-20T13:19:28.095Z</time>
      </trkpt>
      <trkpt lat="48.74734" lon="2.01948">
        <ele>165</ele>
        <time>2021-05-20T13:19:29.095Z</time>
      </trkpt>
      <trkpt lat="48.74735" lon="2.01946">
        <ele>166</ele>
        <time>2021-05-20T13:19:30.095Z</time>
      </trkpt>
      <trkpt lat="48.74735" lon="2.01944">
        <ele>166</ele>
        <time>2021-05-20T13:19:31.095Z</time>
      </trkpt>
      <trkpt lat="48.74736" lon="2.01942">
        <ele>166</ele>
        <time>2021-05-20T13:19:32.095Z</time>
      </trkpt>
      <trkpt lat="48.74736" lon="2.01941">
        <ele>166</ele>
        <time>2021-05-20T13:19:33.095Z</time>
      </trkpt>
      <trkpt lat="48.74737" lon="2.01939">
        <ele>166</ele>
        <time>2021-05-20T13:19:34.095Z</time>
      </trkpt>
      <trkpt lat="48.74737" lon="2.01937">
        <ele>166</ele>
        <time>2021-05-20T13:19:35.095Z</time>
      </trkpt>
      <trkpt lat="48.74738" lon="2.01935">
        <ele>166</ele>
        <time>2021-05-20T13:19:36.095Z</time>
      </trkpt>
      <trkpt lat="48.74738" lon="2.01933">
        <ele>166</ele>
        <time>2021-05-20T13:19:37.095Z</time>
      </trkpt>
      <trkpt lat="48.74738" lon="2.01931">
        <ele>166</ele>
        <time>2021-05-20T13:19:38.095Z</time>
      </trkpt>
      <trkpt lat="48.74739" lon="2.01929">
        <ele>166</ele>
        <time>2021-05-20T13:19:39.095Z</time>
      </trkpt>
      <trkpt lat="48.74739" lon="2.01928">
        <ele>166</ele>
        <time>2021-05-20T13:19:40.095Z</time>
      </trkpt>
      <trkpt lat="48.7474" lon="2.01926">
        <ele>166</ele>
        <time>2021-05-20T13:19:41.095Z</time>
      </trkpt>
      <trkpt lat="48.7474" lon="2.01924">
        <ele>166</ele>
        <time>2021-05-20T13:19:42.095Z</time>
      </trkpt>
      <trkpt lat="48.74741" lon="2.01923">
        <ele>166</ele>
        <time>2021-05-20T13:19:43.095Z</time>
      </trkpt>
      <trkpt lat="48.74741" lon="2.01921">
        <ele>166</ele>
        <time>2021-05-20T13:19:44.095Z</time>
      </trkpt>
      <trkpt lat="48.74742" lon="2.01919">
        <ele>166</ele>
        <time>2021-05-20T13:19:45.095Z</time>
      </trkpt>
      <trkpt lat="48.74743" lon="2.01917">
        <ele>166</ele>
        <time>2021-05-20T13:19:46.095Z</time>
      </trkpt>
      <trkpt lat="48.74743" lon="2.01916">
        <ele>166</ele>
        <time>2021-05-20T13:19:47.095Z</time>
      </trkpt>
      <trkpt lat="48.74744" lon="2.01914">
        <ele>166</ele>
        <time>2021-05-20T13:19:48.095Z</time>
      </trkpt>
      <trkpt lat="48.74744" lon="2.01913">
        <ele>166</ele>
        <time>2021-05-20T13:19:49.095Z</time>
      </trkpt>
      <trkpt lat="48.74745" lon="2.01911">
        <ele>166</ele>
        <time>2021-05-20T13:19:50.095Z</time>
      </trkpt>
      <trkpt lat="48.74746" lon="2.01909">
        <ele>166</ele>
        <time>2021-05-20T13:19:51.095Z</time>
      </trkpt>
      <trkpt lat="48.74747" lon="2.01908">
        <ele>166</ele>
        <time>2021-05-20T13:19:52.095Z</time>
      </trkpt>
      <trkpt lat="48.74747" lon="2.01906">
        <ele>166</ele>
        <time>2021-05-20T13:19:53.095Z</time>
      </trkpt>
      <trkpt lat="48.74748" lon="2.01905">
        <ele>166</ele>
        <time>2021-05-20T13:19:54.095Z</time>
      </trkpt>
      <trkpt lat="48.74748" lon="2.01903">
        <ele>166</ele>
        <time>2021-05-20T13:19:55.095Z</time>
      </trkpt>
      <trkpt lat="48.74749" lon="2.01902">
        <ele>166</ele>
        <time>2021-05-20T13:19:56.095Z</time>
      </trkpt>
      <trkpt lat="48.7475" lon="2.019">
        <ele>166</ele>
        <time>2021-05-20T13:19:57.095Z</time>
      </trkpt>
      <trkpt lat="48.74751" lon="2.01898">
        <ele>166</ele>
        <time>2021-05-20T13:19:58.095Z</time>
      </trkpt>
      <trkpt lat="48.74752" lon="2.01896">
        <ele>166</ele>
        <time>2021-05-20T13:19:59.095Z</time>
      </trkpt>
      <trkpt lat="48.74752" lon="2.01894">
        <ele>166</ele>
        <time>2021-05-20T13:20:00.095Z</time>
      </trkpt>
      <trkpt lat="48.74753" lon="2.01892">
        <ele>166</ele>
        <time>2021-05-20T13:20:01.095Z</time>
      </trkpt>
      <trkpt lat="48.74753" lon="2.01891">
        <ele>166</ele>
        <time>2021-05-20T13:20:02.095Z</time>
      </trkpt>
      <trkpt lat="48.74754" lon="2.01889">
        <ele>166</ele>
        <time>2021-05-20T13:20:03.095Z</time>
      </trkpt>
      <trkpt lat="48.74754" lon="2.01887">
        <ele>166</ele>
        <time>2021-05-20T13:20:04.095Z</time>
      </trkpt>
      <trkpt lat="48.74755" lon="2.01885">
        <ele>166</ele>
        <time>2021-05-20T13:20:05.095Z</time>
      </trkpt>
      <trkpt lat="48.74756" lon="2.01883">
        <ele>166</ele>
        <time>2021-05-20T13:20:06.095Z</time>
      </trkpt>
      <trkpt lat="48.74756" lon="2.01881">
        <ele>166</ele>
        <time>2021-05-20T13:20:07.095Z</time>
      </trkpt>
      <trkpt lat="48.74757" lon="2.01879">
        <ele>166</ele>
        <time>2021-05-20T13:20:08.095Z</time>
      </trkpt>
      <trkpt lat="48.74758" lon="2.01877">
        <ele>166</ele>
        <time>2021-05-20T13:20:09.095Z</time>
      </trkpt>
      <trkpt lat="48.74758" lon="2.01875">
        <ele>166</ele>
        <time>2021-05-20T13:20:10.095Z</time>
      </trkpt>
      <trkpt lat="48.74759" lon="2.01873">
        <ele>165</ele>
        <time>2021-05-20T13:20:11.095Z</time>
      </trkpt>
      <trkpt lat="48.74759" lon="2.01871">
        <ele>165</ele>
        <time>2021-05-20T13:20:12.095Z</time>
      </trkpt>
      <trkpt lat="48.7476" lon="2.01869">
        <ele>165</ele>
        <time>2021-05-20T13:20:13.095Z</time>
      </trkpt>
      <trkpt lat="48.7476" lon="2.01867">
        <ele>165</ele>
        <time>2021-05-20T13:20:14.095Z</time>
      </trkpt>
      <trkpt lat="48.74761" lon="2.01865">
        <ele>165</ele>
        <time>2021-05-20T13:20:15.095Z</time>
      </trkpt>
      <trkpt lat="48.74761" lon="2.01863">
        <ele>164</ele>
        <time>2021-05-20T13:20:16.095Z</time>
      </trkpt>
      <trkpt lat="48.74762" lon="2.01861">
        <ele>164</ele>
        <time>2021-05-20T13:20:17.095Z</time>
      </trkpt>
      <trkpt lat="48.74763" lon="2.01859">
        <ele>164</ele>
        <time>2021-05-20T13:20:18.095Z</time>
      </trkpt>
      <trkpt lat="48.74763" lon="2.01857">
        <ele>164</ele>
        <time>2021-05-20T13:20:19.095Z</time>
      </trkpt>
      <trkpt lat="48.74763" lon="2.01855">
        <ele>164</ele>
        <time>2021-05-20T13:20:20.095Z</time>
      </trkpt>
      <trkpt lat="48.74764" lon="2.01853">
        <ele>164</ele>
        <time>2021-05-20T13:20:21.095Z</time>
      </trkpt>
      <trkpt lat="48.74764" lon="2.01851">
        <ele>165</ele>
        <time>2021-05-20T13:20:22.095Z</time>
      </trkpt>
      <trkpt lat="48.74765" lon="2.01849">
        <ele>165</ele>
        <time>2021-05-20T13:20:23.095Z</time>
      </trkpt>
      <trkpt lat="48.74765" lon="2.01848">
        <ele>164</ele>
        <time>2021-05-20T13:20:24.095Z</time>
      </trkpt>
      <trkpt lat="48.74766" lon="2.01846">
        <ele>165</ele>
        <time>2021-05-20T13:20:25.095Z</time>
      </trkpt>
    </trkseg>
  </trk>
</gpx>